<?xml version="1.0" encoding="UTF-8" standalone="no" ?>
<gpx xmlns="http://www.topografix.com/GPX/1/1" xmlns:xsi="http://www.w3.org/2001/XMLSchema-instance" xsi:schemaLocation="http://www.topografix.com/GPX/1/1 http://www.topografix.com/GPX/1/1/gpx.xsd" version="1.1" creator="VisuGPX - https://www.visugpx.com">
  <metadata>
    <name>Mtp St Gely 31122020</name>
  </metadata>
  <trk>
    <name><![CDATA[Mtp St Gely 31122020_1]]></name>
    <trkseg>
      <trkpt lat="43.62418" lon="3.83676">
        <ele>73</ele>
        <time>2020-12-31T10:56:37Z</time>
      </trkpt>
      <trkpt lat="43.62418" lon="3.83683">
        <ele>73</ele>
        <time>2020-12-31T10:56:49Z</time>
      </trkpt>
      <trkpt lat="43.62415" lon="3.83683">
        <ele>73.1</ele>
        <time>2020-12-31T10:56:51Z</time>
      </trkpt>
      <trkpt lat="43.62413" lon="3.83681">
        <ele>73.1</ele>
        <time>2020-12-31T10:56:53Z</time>
      </trkpt>
      <trkpt lat="43.62412" lon="3.83678">
        <ele>73.2</ele>
        <time>2020-12-31T10:56:56Z</time>
      </trkpt>
      <trkpt lat="43.62415" lon="3.83678">
        <ele>73.1</ele>
        <time>2020-12-31T10:56:58Z</time>
      </trkpt>
      <trkpt lat="43.62418" lon="3.83681">
        <ele>73</ele>
        <time>2020-12-31T10:57:00Z</time>
      </trkpt>
      <trkpt lat="43.6242" lon="3.83682">
        <ele>72.9</ele>
        <time>2020-12-31T10:57:01Z</time>
      </trkpt>
      <trkpt lat="43.62419" lon="3.83686">
        <ele>72.9</ele>
        <time>2020-12-31T10:57:04Z</time>
      </trkpt>
      <trkpt lat="43.62416" lon="3.83685">
        <ele>73</ele>
        <time>2020-12-31T10:57:05Z</time>
      </trkpt>
      <trkpt lat="43.62413" lon="3.83683">
        <ele>73.1</ele>
        <time>2020-12-31T10:57:07Z</time>
      </trkpt>
      <trkpt lat="43.62411" lon="3.8368">
        <ele>77</ele>
        <time>2020-12-31T10:57:09Z</time>
      </trkpt>
      <trkpt lat="43.62414" lon="3.83681">
        <ele>73.1</ele>
        <time>2020-12-31T10:57:15Z</time>
      </trkpt>
      <trkpt lat="43.62416" lon="3.83684">
        <ele>73</ele>
        <time>2020-12-31T10:57:17Z</time>
      </trkpt>
      <trkpt lat="43.62418" lon="3.83686">
        <ele>73</ele>
        <time>2020-12-31T10:57:20Z</time>
      </trkpt>
      <trkpt lat="43.62415" lon="3.83686">
        <ele>73.1</ele>
        <time>2020-12-31T10:57:23Z</time>
      </trkpt>
      <trkpt lat="43.62413" lon="3.83685">
        <ele>73.1</ele>
        <time>2020-12-31T10:57:24Z</time>
      </trkpt>
      <trkpt lat="43.62411" lon="3.83683">
        <ele>73.2</ele>
        <time>2020-12-31T10:57:26Z</time>
      </trkpt>
      <trkpt lat="43.62409" lon="3.83681">
        <ele>79</ele>
        <time>2020-12-31T10:57:29Z</time>
      </trkpt>
      <trkpt lat="43.62409" lon="3.83678">
        <ele>73.3</ele>
        <time>2020-12-31T10:57:31Z</time>
      </trkpt>
      <trkpt lat="43.62411" lon="3.83678">
        <ele>73.2</ele>
        <time>2020-12-31T10:57:34Z</time>
      </trkpt>
      <trkpt lat="43.62413" lon="3.8368">
        <ele>73.1</ele>
        <time>2020-12-31T10:57:36Z</time>
      </trkpt>
      <trkpt lat="43.62415" lon="3.83681">
        <ele>73.1</ele>
        <time>2020-12-31T10:57:38Z</time>
      </trkpt>
      <trkpt lat="43.62418" lon="3.83684">
        <ele>80</ele>
        <time>2020-12-31T10:57:39Z</time>
      </trkpt>
      <trkpt lat="43.62417" lon="3.83687">
        <ele>73</ele>
        <time>2020-12-31T10:57:41Z</time>
      </trkpt>
      <trkpt lat="43.62414" lon="3.83686">
        <ele>73.1</ele>
        <time>2020-12-31T10:57:44Z</time>
      </trkpt>
      <trkpt lat="43.62412" lon="3.83684">
        <ele>73.2</ele>
        <time>2020-12-31T10:57:46Z</time>
      </trkpt>
      <trkpt lat="43.6241" lon="3.8368">
        <ele>73.2</ele>
        <time>2020-12-31T10:57:47Z</time>
      </trkpt>
      <trkpt lat="43.62412" lon="3.83677">
        <ele>80</ele>
        <time>2020-12-31T10:57:49Z</time>
      </trkpt>
      <trkpt lat="43.62414" lon="3.83673">
        <ele>73.1</ele>
        <time>2020-12-31T10:57:51Z</time>
      </trkpt>
      <trkpt lat="43.62415" lon="3.83669">
        <ele>73.1</ele>
        <time>2020-12-31T10:57:54Z</time>
      </trkpt>
      <trkpt lat="43.62415" lon="3.83665">
        <ele>73</ele>
        <time>2020-12-31T10:57:55Z</time>
      </trkpt>
      <trkpt lat="43.62414" lon="3.83662">
        <ele>72.9</ele>
        <time>2020-12-31T10:57:57Z</time>
      </trkpt>
      <trkpt lat="43.62412" lon="3.8366">
        <ele>72.9</ele>
        <time>2020-12-31T10:57:58Z</time>
      </trkpt>
      <trkpt lat="43.62411" lon="3.83659">
        <ele>79</ele>
        <time>2020-12-31T10:57:59Z</time>
      </trkpt>
      <trkpt lat="43.62408" lon="3.83662">
        <ele>73.1</ele>
        <time>2020-12-31T10:58:01Z</time>
      </trkpt>
      <trkpt lat="43.62407" lon="3.83667">
        <ele>73.3</ele>
        <time>2020-12-31T10:58:03Z</time>
      </trkpt>
      <trkpt lat="43.62407" lon="3.83669">
        <ele>73.3</ele>
        <time>2020-12-31T10:58:04Z</time>
      </trkpt>
      <trkpt lat="43.62406" lon="3.83674">
        <ele>73.4</ele>
        <time>2020-12-31T10:58:07Z</time>
      </trkpt>
      <trkpt lat="43.62407" lon="3.83678">
        <ele>73.3</ele>
        <time>2020-12-31T10:58:08Z</time>
      </trkpt>
      <trkpt lat="43.6241" lon="3.83679">
        <ele>73.2</ele>
        <time>2020-12-31T10:58:11Z</time>
      </trkpt>
      <trkpt lat="43.62413" lon="3.8368">
        <ele>73.1</ele>
        <time>2020-12-31T10:58:12Z</time>
      </trkpt>
      <trkpt lat="43.62415" lon="3.83681">
        <ele>73.1</ele>
        <time>2020-12-31T10:58:14Z</time>
      </trkpt>
      <trkpt lat="43.62418" lon="3.83681">
        <ele>73</ele>
        <time>2020-12-31T10:58:16Z</time>
      </trkpt>
      <trkpt lat="43.6242" lon="3.83683">
        <ele>72.9</ele>
        <time>2020-12-31T10:58:18Z</time>
      </trkpt>
      <trkpt lat="43.62419" lon="3.83685">
        <ele>72.9</ele>
        <time>2020-12-31T10:58:20Z</time>
      </trkpt>
      <trkpt lat="43.62416" lon="3.83684">
        <ele>73</ele>
        <time>2020-12-31T10:58:22Z</time>
      </trkpt>
      <trkpt lat="43.62414" lon="3.83682">
        <ele>73.1</ele>
        <time>2020-12-31T10:58:24Z</time>
      </trkpt>
      <trkpt lat="43.62412" lon="3.83678">
        <ele>73.2</ele>
        <time>2020-12-31T10:58:26Z</time>
      </trkpt>
      <trkpt lat="43.62415" lon="3.83676">
        <ele>73.1</ele>
        <time>2020-12-31T10:58:28Z</time>
      </trkpt>
      <trkpt lat="43.62417" lon="3.83677">
        <ele>73</ele>
        <time>2020-12-31T10:58:30Z</time>
      </trkpt>
      <trkpt lat="43.62417" lon="3.83677">
        <ele>77</ele>
        <time>2020-12-31T10:58:36Z</time>
      </trkpt>
      <trkpt lat="43.62419" lon="3.83686">
        <ele>78</ele>
        <time>2020-12-31T10:58:53Z</time>
      </trkpt>
      <trkpt lat="43.62416" lon="3.83684">
        <ele>73</ele>
        <time>2020-12-31T10:58:55Z</time>
      </trkpt>
      <trkpt lat="43.62413" lon="3.83681">
        <ele>73.1</ele>
        <time>2020-12-31T10:58:56Z</time>
      </trkpt>
      <trkpt lat="43.62412" lon="3.83678">
        <ele>73.2</ele>
        <time>2020-12-31T10:58:58Z</time>
      </trkpt>
      <trkpt lat="43.62415" lon="3.83678">
        <ele>73.1</ele>
        <time>2020-12-31T10:59:01Z</time>
      </trkpt>
      <trkpt lat="43.62416" lon="3.83678">
        <ele>78</ele>
        <time>2020-12-31T10:59:06Z</time>
      </trkpt>
      <trkpt lat="43.62415" lon="3.83677">
        <ele>81</ele>
        <time>2020-12-31T11:07:05Z</time>
      </trkpt>
      <trkpt lat="43.62416" lon="3.83675">
        <ele>73</ele>
        <time>2020-12-31T11:07:07Z</time>
      </trkpt>
      <trkpt lat="43.6242" lon="3.83671">
        <ele>72.9</ele>
        <time>2020-12-31T11:07:08Z</time>
      </trkpt>
      <trkpt lat="43.62422" lon="3.83671">
        <ele>72.8</ele>
        <time>2020-12-31T11:07:10Z</time>
      </trkpt>
      <trkpt lat="43.62426" lon="3.8367">
        <ele>72.7</ele>
        <time>2020-12-31T11:07:11Z</time>
      </trkpt>
      <trkpt lat="43.62429" lon="3.83669">
        <ele>72.6</ele>
        <time>2020-12-31T11:07:12Z</time>
      </trkpt>
      <trkpt lat="43.62433" lon="3.83667">
        <ele>72.4</ele>
        <time>2020-12-31T11:07:13Z</time>
      </trkpt>
      <trkpt lat="43.6244" lon="3.83663">
        <ele>72</ele>
        <time>2020-12-31T11:07:14Z</time>
      </trkpt>
      <trkpt lat="43.62444" lon="3.83662">
        <ele>81</ele>
        <time>2020-12-31T11:07:15Z</time>
      </trkpt>
      <trkpt lat="43.62447" lon="3.8366">
        <ele>71.6</ele>
        <time>2020-12-31T11:07:16Z</time>
      </trkpt>
      <trkpt lat="43.62451" lon="3.83659">
        <ele>71.4</ele>
        <time>2020-12-31T11:07:17Z</time>
      </trkpt>
      <trkpt lat="43.62454" lon="3.83657">
        <ele>71.2</ele>
        <time>2020-12-31T11:07:18Z</time>
      </trkpt>
      <trkpt lat="43.62457" lon="3.83656">
        <ele>71.1</ele>
        <time>2020-12-31T11:07:19Z</time>
      </trkpt>
      <trkpt lat="43.6246" lon="3.83655">
        <ele>70.9</ele>
        <time>2020-12-31T11:07:20Z</time>
      </trkpt>
      <trkpt lat="43.62464" lon="3.83653">
        <ele>70.8</ele>
        <time>2020-12-31T11:07:21Z</time>
      </trkpt>
      <trkpt lat="43.62471" lon="3.83651">
        <ele>70.6</ele>
        <time>2020-12-31T11:07:23Z</time>
      </trkpt>
      <trkpt lat="43.62474" lon="3.83649">
        <ele>70.7</ele>
        <time>2020-12-31T11:07:24Z</time>
      </trkpt>
      <trkpt lat="43.62478" lon="3.83648">
        <ele>81</ele>
        <time>2020-12-31T11:07:25Z</time>
      </trkpt>
      <trkpt lat="43.62482" lon="3.83647">
        <ele>71.3</ele>
        <time>2020-12-31T11:07:26Z</time>
      </trkpt>
      <trkpt lat="43.62485" lon="3.83646">
        <ele>71.5</ele>
        <time>2020-12-31T11:07:27Z</time>
      </trkpt>
      <trkpt lat="43.62488" lon="3.83644">
        <ele>71.8</ele>
        <time>2020-12-31T11:07:28Z</time>
      </trkpt>
      <trkpt lat="43.62491" lon="3.83639">
        <ele>72.3</ele>
        <time>2020-12-31T11:07:29Z</time>
      </trkpt>
      <trkpt lat="43.62493" lon="3.83634">
        <ele>72.9</ele>
        <time>2020-12-31T11:07:30Z</time>
      </trkpt>
      <trkpt lat="43.62495" lon="3.8363">
        <ele>73.4</ele>
        <time>2020-12-31T11:07:31Z</time>
      </trkpt>
      <trkpt lat="43.62496" lon="3.83624">
        <ele>74.1</ele>
        <time>2020-12-31T11:07:32Z</time>
      </trkpt>
      <trkpt lat="43.62498" lon="3.8362">
        <ele>74.7</ele>
        <time>2020-12-31T11:07:33Z</time>
      </trkpt>
      <trkpt lat="43.625" lon="3.83615">
        <ele>75.6</ele>
        <time>2020-12-31T11:07:34Z</time>
      </trkpt>
      <trkpt lat="43.62502" lon="3.83611">
        <ele>80</ele>
        <time>2020-12-31T11:07:35Z</time>
      </trkpt>
      <trkpt lat="43.62505" lon="3.83608">
        <ele>75.3</ele>
        <time>2020-12-31T11:07:36Z</time>
      </trkpt>
      <trkpt lat="43.6251" lon="3.83605">
        <ele>74.6</ele>
        <time>2020-12-31T11:07:37Z</time>
      </trkpt>
      <trkpt lat="43.62514" lon="3.83603">
        <ele>74.2</ele>
        <time>2020-12-31T11:07:39Z</time>
      </trkpt>
      <trkpt lat="43.62518" lon="3.83603">
        <ele>74.1</ele>
        <time>2020-12-31T11:07:40Z</time>
      </trkpt>
      <trkpt lat="43.62522" lon="3.83603">
        <ele>74</ele>
        <time>2020-12-31T11:07:41Z</time>
      </trkpt>
      <trkpt lat="43.62526" lon="3.83604">
        <ele>74</ele>
        <time>2020-12-31T11:07:42Z</time>
      </trkpt>
      <trkpt lat="43.62529" lon="3.83605">
        <ele>74</ele>
        <time>2020-12-31T11:07:43Z</time>
      </trkpt>
      <trkpt lat="43.62535" lon="3.8361">
        <ele>73.9</ele>
        <time>2020-12-31T11:07:44Z</time>
      </trkpt>
      <trkpt lat="43.62537" lon="3.83613">
        <ele>73.5</ele>
        <time>2020-12-31T11:07:46Z</time>
      </trkpt>
      <trkpt lat="43.62543" lon="3.83618">
        <ele>72.4</ele>
        <time>2020-12-31T11:07:47Z</time>
      </trkpt>
      <trkpt lat="43.62546" lon="3.83621">
        <ele>71.9</ele>
        <time>2020-12-31T11:07:49Z</time>
      </trkpt>
      <trkpt lat="43.62553" lon="3.83621">
        <ele>71.2</ele>
        <time>2020-12-31T11:07:50Z</time>
      </trkpt>
      <trkpt lat="43.62557" lon="3.83619">
        <ele>71.2</ele>
        <time>2020-12-31T11:07:51Z</time>
      </trkpt>
      <trkpt lat="43.62561" lon="3.83618">
        <ele>71.7</ele>
        <time>2020-12-31T11:07:52Z</time>
      </trkpt>
      <trkpt lat="43.62564" lon="3.83616">
        <ele>72.2</ele>
        <time>2020-12-31T11:07:53Z</time>
      </trkpt>
      <trkpt lat="43.62568" lon="3.83614">
        <ele>72.7</ele>
        <time>2020-12-31T11:07:54Z</time>
      </trkpt>
      <trkpt lat="43.62572" lon="3.83612">
        <ele>79</ele>
        <time>2020-12-31T11:07:55Z</time>
      </trkpt>
      <trkpt lat="43.62574" lon="3.83609">
        <ele>73.6</ele>
        <time>2020-12-31T11:07:57Z</time>
      </trkpt>
      <trkpt lat="43.62575" lon="3.83605">
        <ele>73.7</ele>
        <time>2020-12-31T11:07:58Z</time>
      </trkpt>
      <trkpt lat="43.62574" lon="3.83602">
        <ele>73.6</ele>
        <time>2020-12-31T11:07:59Z</time>
      </trkpt>
      <trkpt lat="43.62573" lon="3.83598">
        <ele>73.4</ele>
        <time>2020-12-31T11:08:00Z</time>
      </trkpt>
      <trkpt lat="43.62571" lon="3.83595">
        <ele>73.4</ele>
        <time>2020-12-31T11:08:01Z</time>
      </trkpt>
      <trkpt lat="43.6257" lon="3.83591">
        <ele>73.4</ele>
        <time>2020-12-31T11:08:02Z</time>
      </trkpt>
      <trkpt lat="43.62569" lon="3.83588">
        <ele>73.4</ele>
        <time>2020-12-31T11:08:03Z</time>
      </trkpt>
      <trkpt lat="43.62567" lon="3.83584">
        <ele>73.6</ele>
        <time>2020-12-31T11:08:04Z</time>
      </trkpt>
      <trkpt lat="43.6256" lon="3.83576">
        <ele>79</ele>
        <time>2020-12-31T11:08:05Z</time>
      </trkpt>
      <trkpt lat="43.62556" lon="3.83571">
        <ele>74</ele>
        <time>2020-12-31T11:08:06Z</time>
      </trkpt>
      <trkpt lat="43.62551" lon="3.83567">
        <ele>73.8</ele>
        <time>2020-12-31T11:08:07Z</time>
      </trkpt>
      <trkpt lat="43.62547" lon="3.83564">
        <ele>73.7</ele>
        <time>2020-12-31T11:08:08Z</time>
      </trkpt>
      <trkpt lat="43.62542" lon="3.83561">
        <ele>73.7</ele>
        <time>2020-12-31T11:08:09Z</time>
      </trkpt>
      <trkpt lat="43.62538" lon="3.83557">
        <ele>73.9</ele>
        <time>2020-12-31T11:08:10Z</time>
      </trkpt>
      <trkpt lat="43.62535" lon="3.83553">
        <ele>74.1</ele>
        <time>2020-12-31T11:08:11Z</time>
      </trkpt>
      <trkpt lat="43.62532" lon="3.83549">
        <ele>74.2</ele>
        <time>2020-12-31T11:08:13Z</time>
      </trkpt>
      <trkpt lat="43.62531" lon="3.83545">
        <ele>74.3</ele>
        <time>2020-12-31T11:08:14Z</time>
      </trkpt>
      <trkpt lat="43.6253" lon="3.83541">
        <ele>78</ele>
        <time>2020-12-31T11:08:15Z</time>
      </trkpt>
      <trkpt lat="43.62529" lon="3.83537">
        <ele>74.6</ele>
        <time>2020-12-31T11:08:16Z</time>
      </trkpt>
      <trkpt lat="43.62528" lon="3.83532">
        <ele>74.8</ele>
        <time>2020-12-31T11:08:17Z</time>
      </trkpt>
      <trkpt lat="43.62527" lon="3.83527">
        <ele>74.9</ele>
        <time>2020-12-31T11:08:18Z</time>
      </trkpt>
      <trkpt lat="43.62525" lon="3.83522">
        <ele>74.8</ele>
        <time>2020-12-31T11:08:19Z</time>
      </trkpt>
      <trkpt lat="43.62521" lon="3.83513">
        <ele>74.7</ele>
        <time>2020-12-31T11:08:20Z</time>
      </trkpt>
      <trkpt lat="43.62519" lon="3.83509">
        <ele>74.6</ele>
        <time>2020-12-31T11:08:21Z</time>
      </trkpt>
      <trkpt lat="43.62516" lon="3.83499">
        <ele>74.8</ele>
        <time>2020-12-31T11:08:23Z</time>
      </trkpt>
      <trkpt lat="43.62514" lon="3.83495">
        <ele>74.7</ele>
        <time>2020-12-31T11:08:24Z</time>
      </trkpt>
      <trkpt lat="43.62512" lon="3.83491">
        <ele>79</ele>
        <time>2020-12-31T11:08:25Z</time>
      </trkpt>
      <trkpt lat="43.6251" lon="3.83486">
        <ele>74.7</ele>
        <time>2020-12-31T11:08:26Z</time>
      </trkpt>
      <trkpt lat="43.62508" lon="3.83482">
        <ele>74.8</ele>
        <time>2020-12-31T11:08:27Z</time>
      </trkpt>
      <trkpt lat="43.62507" lon="3.83477">
        <ele>75</ele>
        <time>2020-12-31T11:08:28Z</time>
      </trkpt>
      <trkpt lat="43.62505" lon="3.83472">
        <ele>75.2</ele>
        <time>2020-12-31T11:08:29Z</time>
      </trkpt>
      <trkpt lat="43.62504" lon="3.83468">
        <ele>75</ele>
        <time>2020-12-31T11:08:31Z</time>
      </trkpt>
      <trkpt lat="43.62503" lon="3.83462">
        <ele>74.8</ele>
        <time>2020-12-31T11:08:32Z</time>
      </trkpt>
      <trkpt lat="43.62503" lon="3.83456">
        <ele>74.7</ele>
        <time>2020-12-31T11:08:33Z</time>
      </trkpt>
      <trkpt lat="43.62504" lon="3.83451">
        <ele>74.6</ele>
        <time>2020-12-31T11:08:34Z</time>
      </trkpt>
      <trkpt lat="43.62505" lon="3.83445">
        <ele>79</ele>
        <time>2020-12-31T11:08:35Z</time>
      </trkpt>
      <trkpt lat="43.62507" lon="3.8344">
        <ele>74.8</ele>
        <time>2020-12-31T11:08:36Z</time>
      </trkpt>
      <trkpt lat="43.62509" lon="3.83434">
        <ele>75</ele>
        <time>2020-12-31T11:08:37Z</time>
      </trkpt>
      <trkpt lat="43.62511" lon="3.83428">
        <ele>75.2</ele>
        <time>2020-12-31T11:08:38Z</time>
      </trkpt>
      <trkpt lat="43.62512" lon="3.83422">
        <ele>75.3</ele>
        <time>2020-12-31T11:08:39Z</time>
      </trkpt>
      <trkpt lat="43.62514" lon="3.83416">
        <ele>75.5</ele>
        <time>2020-12-31T11:08:40Z</time>
      </trkpt>
      <trkpt lat="43.62515" lon="3.8341">
        <ele>75.7</ele>
        <time>2020-12-31T11:08:41Z</time>
      </trkpt>
      <trkpt lat="43.62517" lon="3.83395">
        <ele>76.1</ele>
        <time>2020-12-31T11:08:42Z</time>
      </trkpt>
      <trkpt lat="43.62519" lon="3.83389">
        <ele>76.4</ele>
        <time>2020-12-31T11:08:43Z</time>
      </trkpt>
      <trkpt lat="43.62521" lon="3.83383">
        <ele>76.4</ele>
        <time>2020-12-31T11:08:44Z</time>
      </trkpt>
      <trkpt lat="43.62523" lon="3.83377">
        <ele>79</ele>
        <time>2020-12-31T11:08:45Z</time>
      </trkpt>
      <trkpt lat="43.62525" lon="3.8337">
        <ele>76.2</ele>
        <time>2020-12-31T11:08:46Z</time>
      </trkpt>
      <trkpt lat="43.62527" lon="3.83364">
        <ele>76.1</ele>
        <time>2020-12-31T11:08:47Z</time>
      </trkpt>
      <trkpt lat="43.62529" lon="3.83358">
        <ele>76.1</ele>
        <time>2020-12-31T11:08:48Z</time>
      </trkpt>
      <trkpt lat="43.6253" lon="3.83351">
        <ele>76.2</ele>
        <time>2020-12-31T11:08:49Z</time>
      </trkpt>
      <trkpt lat="43.62532" lon="3.83345">
        <ele>76.3</ele>
        <time>2020-12-31T11:08:50Z</time>
      </trkpt>
      <trkpt lat="43.62534" lon="3.8334">
        <ele>76.4</ele>
        <time>2020-12-31T11:08:51Z</time>
      </trkpt>
      <trkpt lat="43.62536" lon="3.83334">
        <ele>76.6</ele>
        <time>2020-12-31T11:08:52Z</time>
      </trkpt>
      <trkpt lat="43.62537" lon="3.83328">
        <ele>76.7</ele>
        <time>2020-12-31T11:08:53Z</time>
      </trkpt>
      <trkpt lat="43.62539" lon="3.83322">
        <ele>76.8</ele>
        <time>2020-12-31T11:08:54Z</time>
      </trkpt>
      <trkpt lat="43.62541" lon="3.83317">
        <ele>77</ele>
        <time>2020-12-31T11:08:56Z</time>
      </trkpt>
      <trkpt lat="43.62544" lon="3.83306">
        <ele>77.2</ele>
        <time>2020-12-31T11:08:57Z</time>
      </trkpt>
      <trkpt lat="43.62545" lon="3.83301">
        <ele>77.2</ele>
        <time>2020-12-31T11:08:59Z</time>
      </trkpt>
      <trkpt lat="43.62549" lon="3.83291">
        <ele>77.5</ele>
        <time>2020-12-31T11:09:00Z</time>
      </trkpt>
      <trkpt lat="43.6255" lon="3.83286">
        <ele>77.6</ele>
        <time>2020-12-31T11:09:02Z</time>
      </trkpt>
      <trkpt lat="43.62552" lon="3.83282">
        <ele>77.7</ele>
        <time>2020-12-31T11:09:03Z</time>
      </trkpt>
      <trkpt lat="43.62554" lon="3.83277">
        <ele>77.9</ele>
        <time>2020-12-31T11:09:04Z</time>
      </trkpt>
      <trkpt lat="43.62557" lon="3.83273">
        <ele>83</ele>
        <time>2020-12-31T11:09:05Z</time>
      </trkpt>
      <trkpt lat="43.6256" lon="3.8327">
        <ele>78</ele>
        <time>2020-12-31T11:09:06Z</time>
      </trkpt>
      <trkpt lat="43.62564" lon="3.83268">
        <ele>78.1</ele>
        <time>2020-12-31T11:09:07Z</time>
      </trkpt>
      <trkpt lat="43.62568" lon="3.83266">
        <ele>78.2</ele>
        <time>2020-12-31T11:09:08Z</time>
      </trkpt>
      <trkpt lat="43.62572" lon="3.83263">
        <ele>78.3</ele>
        <time>2020-12-31T11:09:09Z</time>
      </trkpt>
      <trkpt lat="43.62575" lon="3.8326">
        <ele>78.4</ele>
        <time>2020-12-31T11:09:10Z</time>
      </trkpt>
      <trkpt lat="43.62578" lon="3.83257">
        <ele>78.6</ele>
        <time>2020-12-31T11:09:11Z</time>
      </trkpt>
      <trkpt lat="43.6258" lon="3.83252">
        <ele>78.8</ele>
        <time>2020-12-31T11:09:12Z</time>
      </trkpt>
      <trkpt lat="43.62582" lon="3.83248">
        <ele>79</ele>
        <time>2020-12-31T11:09:13Z</time>
      </trkpt>
      <trkpt lat="43.62584" lon="3.83243">
        <ele>79</ele>
        <time>2020-12-31T11:09:14Z</time>
      </trkpt>
      <trkpt lat="43.62589" lon="3.83234">
        <ele>83</ele>
        <time>2020-12-31T11:09:15Z</time>
      </trkpt>
      <trkpt lat="43.62592" lon="3.83231">
        <ele>79.2</ele>
        <time>2020-12-31T11:09:16Z</time>
      </trkpt>
      <trkpt lat="43.62596" lon="3.83229">
        <ele>79.3</ele>
        <time>2020-12-31T11:09:17Z</time>
      </trkpt>
      <trkpt lat="43.62604" lon="3.83225">
        <ele>79.7</ele>
        <time>2020-12-31T11:09:19Z</time>
      </trkpt>
      <trkpt lat="43.62607" lon="3.83222">
        <ele>79.9</ele>
        <time>2020-12-31T11:09:20Z</time>
      </trkpt>
      <trkpt lat="43.6261" lon="3.8322">
        <ele>80</ele>
        <time>2020-12-31T11:09:21Z</time>
      </trkpt>
      <trkpt lat="43.62613" lon="3.83218">
        <ele>80</ele>
        <time>2020-12-31T11:09:22Z</time>
      </trkpt>
      <trkpt lat="43.62616" lon="3.83215">
        <ele>80</ele>
        <time>2020-12-31T11:09:23Z</time>
      </trkpt>
      <trkpt lat="43.62619" lon="3.83212">
        <ele>80.1</ele>
        <time>2020-12-31T11:09:24Z</time>
      </trkpt>
      <trkpt lat="43.62622" lon="3.83209">
        <ele>84</ele>
        <time>2020-12-31T11:09:25Z</time>
      </trkpt>
      <trkpt lat="43.62629" lon="3.83203">
        <ele>80.4</ele>
        <time>2020-12-31T11:09:27Z</time>
      </trkpt>
      <trkpt lat="43.62632" lon="3.83201">
        <ele>80.6</ele>
        <time>2020-12-31T11:09:28Z</time>
      </trkpt>
      <trkpt lat="43.62635" lon="3.83198">
        <ele>80.7</ele>
        <time>2020-12-31T11:09:29Z</time>
      </trkpt>
      <trkpt lat="43.62639" lon="3.83195">
        <ele>81</ele>
        <time>2020-12-31T11:09:30Z</time>
      </trkpt>
      <trkpt lat="43.62642" lon="3.83193">
        <ele>81.1</ele>
        <time>2020-12-31T11:09:31Z</time>
      </trkpt>
      <trkpt lat="43.62646" lon="3.83191">
        <ele>81.3</ele>
        <time>2020-12-31T11:09:32Z</time>
      </trkpt>
      <trkpt lat="43.62649" lon="3.83189">
        <ele>81.4</ele>
        <time>2020-12-31T11:09:34Z</time>
      </trkpt>
      <trkpt lat="43.62655" lon="3.83184">
        <ele>85</ele>
        <time>2020-12-31T11:09:35Z</time>
      </trkpt>
      <trkpt lat="43.62659" lon="3.83181">
        <ele>81.7</ele>
        <time>2020-12-31T11:09:36Z</time>
      </trkpt>
      <trkpt lat="43.62662" lon="3.83179">
        <ele>81.8</ele>
        <time>2020-12-31T11:09:37Z</time>
      </trkpt>
      <trkpt lat="43.62665" lon="3.83177">
        <ele>81.9</ele>
        <time>2020-12-31T11:09:38Z</time>
      </trkpt>
      <trkpt lat="43.62668" lon="3.83175">
        <ele>82</ele>
        <time>2020-12-31T11:09:39Z</time>
      </trkpt>
      <trkpt lat="43.62671" lon="3.83172">
        <ele>82.2</ele>
        <time>2020-12-31T11:09:40Z</time>
      </trkpt>
      <trkpt lat="43.62673" lon="3.83169">
        <ele>82.2</ele>
        <time>2020-12-31T11:09:41Z</time>
      </trkpt>
      <trkpt lat="43.62673" lon="3.83165">
        <ele>82.3</ele>
        <time>2020-12-31T11:09:42Z</time>
      </trkpt>
      <trkpt lat="43.62673" lon="3.83161">
        <ele>82.4</ele>
        <time>2020-12-31T11:09:44Z</time>
      </trkpt>
      <trkpt lat="43.62672" lon="3.83156">
        <ele>86</ele>
        <time>2020-12-31T11:09:45Z</time>
      </trkpt>
      <trkpt lat="43.62673" lon="3.83152">
        <ele>82.8</ele>
        <time>2020-12-31T11:09:46Z</time>
      </trkpt>
      <trkpt lat="43.62675" lon="3.83149">
        <ele>82.9</ele>
        <time>2020-12-31T11:09:47Z</time>
      </trkpt>
      <trkpt lat="43.62678" lon="3.83147">
        <ele>83.1</ele>
        <time>2020-12-31T11:09:48Z</time>
      </trkpt>
      <trkpt lat="43.62681" lon="3.83145">
        <ele>83.3</ele>
        <time>2020-12-31T11:09:49Z</time>
      </trkpt>
      <trkpt lat="43.62684" lon="3.83143">
        <ele>83.5</ele>
        <time>2020-12-31T11:09:50Z</time>
      </trkpt>
      <trkpt lat="43.6269" lon="3.83139">
        <ele>83.8</ele>
        <time>2020-12-31T11:09:51Z</time>
      </trkpt>
      <trkpt lat="43.62693" lon="3.83137">
        <ele>83.9</ele>
        <time>2020-12-31T11:09:52Z</time>
      </trkpt>
      <trkpt lat="43.62696" lon="3.83135">
        <ele>84.1</ele>
        <time>2020-12-31T11:09:54Z</time>
      </trkpt>
      <trkpt lat="43.62703" lon="3.83131">
        <ele>87</ele>
        <time>2020-12-31T11:09:55Z</time>
      </trkpt>
      <trkpt lat="43.62706" lon="3.83129">
        <ele>84.6</ele>
        <time>2020-12-31T11:09:57Z</time>
      </trkpt>
      <trkpt lat="43.62709" lon="3.83127">
        <ele>84.7</ele>
        <time>2020-12-31T11:09:58Z</time>
      </trkpt>
      <trkpt lat="43.62712" lon="3.83125">
        <ele>84.9</ele>
        <time>2020-12-31T11:09:59Z</time>
      </trkpt>
      <trkpt lat="43.62718" lon="3.83121">
        <ele>85.4</ele>
        <time>2020-12-31T11:10:00Z</time>
      </trkpt>
      <trkpt lat="43.62721" lon="3.8312">
        <ele>85.6</ele>
        <time>2020-12-31T11:10:01Z</time>
      </trkpt>
      <trkpt lat="43.62724" lon="3.83118">
        <ele>85.8</ele>
        <time>2020-12-31T11:10:02Z</time>
      </trkpt>
      <trkpt lat="43.62727" lon="3.83117">
        <ele>85.8</ele>
        <time>2020-12-31T11:10:03Z</time>
      </trkpt>
      <trkpt lat="43.6273" lon="3.83115">
        <ele>85.9</ele>
        <time>2020-12-31T11:10:04Z</time>
      </trkpt>
      <trkpt lat="43.62732" lon="3.83114">
        <ele>88</ele>
        <time>2020-12-31T11:10:05Z</time>
      </trkpt>
      <trkpt lat="43.62734" lon="3.83113">
        <ele>85.9</ele>
        <time>2020-12-31T11:10:06Z</time>
      </trkpt>
      <trkpt lat="43.62736" lon="3.83111">
        <ele>86</ele>
        <time>2020-12-31T11:10:07Z</time>
      </trkpt>
      <trkpt lat="43.62739" lon="3.8311">
        <ele>86</ele>
        <time>2020-12-31T11:10:09Z</time>
      </trkpt>
      <trkpt lat="43.62742" lon="3.83109">
        <ele>86</ele>
        <time>2020-12-31T11:10:10Z</time>
      </trkpt>
      <trkpt lat="43.62744" lon="3.83108">
        <ele>86</ele>
        <time>2020-12-31T11:10:11Z</time>
      </trkpt>
      <trkpt lat="43.62747" lon="3.83106">
        <ele>86</ele>
        <time>2020-12-31T11:10:12Z</time>
      </trkpt>
      <trkpt lat="43.6275" lon="3.83106">
        <ele>86</ele>
        <time>2020-12-31T11:10:13Z</time>
      </trkpt>
      <trkpt lat="43.62755" lon="3.83103">
        <ele>85.9</ele>
        <time>2020-12-31T11:10:14Z</time>
      </trkpt>
      <trkpt lat="43.62757" lon="3.83102">
        <ele>89</ele>
        <time>2020-12-31T11:10:15Z</time>
      </trkpt>
      <trkpt lat="43.6276" lon="3.83102">
        <ele>85.8</ele>
        <time>2020-12-31T11:10:17Z</time>
      </trkpt>
      <trkpt lat="43.62762" lon="3.83101">
        <ele>85.7</ele>
        <time>2020-12-31T11:10:18Z</time>
      </trkpt>
      <trkpt lat="43.62765" lon="3.831">
        <ele>85.7</ele>
        <time>2020-12-31T11:10:19Z</time>
      </trkpt>
      <trkpt lat="43.62768" lon="3.83099">
        <ele>85.6</ele>
        <time>2020-12-31T11:10:20Z</time>
      </trkpt>
      <trkpt lat="43.62771" lon="3.83098">
        <ele>85.6</ele>
        <time>2020-12-31T11:10:21Z</time>
      </trkpt>
      <trkpt lat="43.62773" lon="3.83097">
        <ele>85.6</ele>
        <time>2020-12-31T11:10:22Z</time>
      </trkpt>
      <trkpt lat="43.62776" lon="3.83097">
        <ele>85.5</ele>
        <time>2020-12-31T11:10:23Z</time>
      </trkpt>
      <trkpt lat="43.6278" lon="3.83097">
        <ele>85.4</ele>
        <time>2020-12-31T11:10:24Z</time>
      </trkpt>
      <trkpt lat="43.62787" lon="3.83096">
        <ele>89</ele>
        <time>2020-12-31T11:10:25Z</time>
      </trkpt>
      <trkpt lat="43.62791" lon="3.83096">
        <ele>85</ele>
        <time>2020-12-31T11:10:26Z</time>
      </trkpt>
      <trkpt lat="43.62795" lon="3.83095">
        <ele>84.9</ele>
        <time>2020-12-31T11:10:27Z</time>
      </trkpt>
      <trkpt lat="43.62799" lon="3.83093">
        <ele>84.7</ele>
        <time>2020-12-31T11:10:28Z</time>
      </trkpt>
      <trkpt lat="43.62802" lon="3.83092">
        <ele>84.5</ele>
        <time>2020-12-31T11:10:29Z</time>
      </trkpt>
      <trkpt lat="43.62806" lon="3.8309">
        <ele>84.2</ele>
        <time>2020-12-31T11:10:30Z</time>
      </trkpt>
      <trkpt lat="43.62811" lon="3.83089">
        <ele>84.2</ele>
        <time>2020-12-31T11:10:31Z</time>
      </trkpt>
      <trkpt lat="43.62815" lon="3.83088">
        <ele>84.2</ele>
        <time>2020-12-31T11:10:32Z</time>
      </trkpt>
      <trkpt lat="43.62819" lon="3.83087">
        <ele>84.1</ele>
        <time>2020-12-31T11:10:33Z</time>
      </trkpt>
      <trkpt lat="43.62823" lon="3.83086">
        <ele>84.1</ele>
        <time>2020-12-31T11:10:34Z</time>
      </trkpt>
      <trkpt lat="43.62827" lon="3.83086">
        <ele>87</ele>
        <time>2020-12-31T11:10:35Z</time>
      </trkpt>
      <trkpt lat="43.62831" lon="3.83086">
        <ele>84.1</ele>
        <time>2020-12-31T11:10:36Z</time>
      </trkpt>
      <trkpt lat="43.62835" lon="3.83086">
        <ele>84</ele>
        <time>2020-12-31T11:10:37Z</time>
      </trkpt>
      <trkpt lat="43.62839" lon="3.83084">
        <ele>83.8</ele>
        <time>2020-12-31T11:10:38Z</time>
      </trkpt>
      <trkpt lat="43.62842" lon="3.83081">
        <ele>83.4</ele>
        <time>2020-12-31T11:10:39Z</time>
      </trkpt>
      <trkpt lat="43.62843" lon="3.83077">
        <ele>82.8</ele>
        <time>2020-12-31T11:10:40Z</time>
      </trkpt>
      <trkpt lat="43.62845" lon="3.83072">
        <ele>82.1</ele>
        <time>2020-12-31T11:10:41Z</time>
      </trkpt>
      <trkpt lat="43.62847" lon="3.83067">
        <ele>81.4</ele>
        <time>2020-12-31T11:10:42Z</time>
      </trkpt>
      <trkpt lat="43.62846" lon="3.8306">
        <ele>80.6</ele>
        <time>2020-12-31T11:10:43Z</time>
      </trkpt>
      <trkpt lat="43.62844" lon="3.83052">
        <ele>79.7</ele>
        <time>2020-12-31T11:10:44Z</time>
      </trkpt>
      <trkpt lat="43.62841" lon="3.83043">
        <ele>85</ele>
        <time>2020-12-31T11:10:45Z</time>
      </trkpt>
      <trkpt lat="43.62838" lon="3.83033">
        <ele>78.4</ele>
        <time>2020-12-31T11:10:46Z</time>
      </trkpt>
      <trkpt lat="43.62836" lon="3.83022">
        <ele>77.6</ele>
        <time>2020-12-31T11:10:47Z</time>
      </trkpt>
      <trkpt lat="43.62835" lon="3.8301">
        <ele>76.8</ele>
        <time>2020-12-31T11:10:48Z</time>
      </trkpt>
      <trkpt lat="43.62835" lon="3.82999">
        <ele>76</ele>
        <time>2020-12-31T11:10:49Z</time>
      </trkpt>
      <trkpt lat="43.62835" lon="3.82989">
        <ele>75.7</ele>
        <time>2020-12-31T11:10:50Z</time>
      </trkpt>
      <trkpt lat="43.62835" lon="3.82979">
        <ele>75.3</ele>
        <time>2020-12-31T11:10:51Z</time>
      </trkpt>
      <trkpt lat="43.62833" lon="3.82971">
        <ele>74.9</ele>
        <time>2020-12-31T11:10:52Z</time>
      </trkpt>
      <trkpt lat="43.62831" lon="3.82964">
        <ele>74.1</ele>
        <time>2020-12-31T11:10:53Z</time>
      </trkpt>
      <trkpt lat="43.62831" lon="3.82959">
        <ele>73.6</ele>
        <time>2020-12-31T11:10:54Z</time>
      </trkpt>
      <trkpt lat="43.62831" lon="3.82953">
        <ele>79</ele>
        <time>2020-12-31T11:10:55Z</time>
      </trkpt>
      <trkpt lat="43.62831" lon="3.82948">
        <ele>72.4</ele>
        <time>2020-12-31T11:10:56Z</time>
      </trkpt>
      <trkpt lat="43.62832" lon="3.82939">
        <ele>71.6</ele>
        <time>2020-12-31T11:10:58Z</time>
      </trkpt>
      <trkpt lat="43.62833" lon="3.82936">
        <ele>71.4</ele>
        <time>2020-12-31T11:11:00Z</time>
      </trkpt>
      <trkpt lat="43.62836" lon="3.82935">
        <ele>71.4</ele>
        <time>2020-12-31T11:11:01Z</time>
      </trkpt>
      <trkpt lat="43.62839" lon="3.82935">
        <ele>71.6</ele>
        <time>2020-12-31T11:11:02Z</time>
      </trkpt>
      <trkpt lat="43.62842" lon="3.82936">
        <ele>71.8</ele>
        <time>2020-12-31T11:11:03Z</time>
      </trkpt>
      <trkpt lat="43.62845" lon="3.82938">
        <ele>72.1</ele>
        <time>2020-12-31T11:11:04Z</time>
      </trkpt>
      <trkpt lat="43.62848" lon="3.8294">
        <ele>77</ele>
        <time>2020-12-31T11:11:05Z</time>
      </trkpt>
      <trkpt lat="43.62852" lon="3.82941">
        <ele>72.5</ele>
        <time>2020-12-31T11:11:06Z</time>
      </trkpt>
      <trkpt lat="43.62858" lon="3.82943">
        <ele>72.8</ele>
        <time>2020-12-31T11:11:07Z</time>
      </trkpt>
      <trkpt lat="43.62861" lon="3.82943">
        <ele>72.9</ele>
        <time>2020-12-31T11:11:08Z</time>
      </trkpt>
      <trkpt lat="43.62865" lon="3.82944">
        <ele>73</ele>
        <time>2020-12-31T11:11:09Z</time>
      </trkpt>
      <trkpt lat="43.62868" lon="3.82944">
        <ele>73</ele>
        <time>2020-12-31T11:11:10Z</time>
      </trkpt>
      <trkpt lat="43.62872" lon="3.82945">
        <ele>73.1</ele>
        <time>2020-12-31T11:11:11Z</time>
      </trkpt>
      <trkpt lat="43.62876" lon="3.82945">
        <ele>73.1</ele>
        <time>2020-12-31T11:11:12Z</time>
      </trkpt>
      <trkpt lat="43.6288" lon="3.82945">
        <ele>73.1</ele>
        <time>2020-12-31T11:11:13Z</time>
      </trkpt>
      <trkpt lat="43.62884" lon="3.82946">
        <ele>73.2</ele>
        <time>2020-12-31T11:11:14Z</time>
      </trkpt>
      <trkpt lat="43.62888" lon="3.82947">
        <ele>77</ele>
        <time>2020-12-31T11:11:15Z</time>
      </trkpt>
      <trkpt lat="43.62891" lon="3.82947">
        <ele>73.4</ele>
        <time>2020-12-31T11:11:16Z</time>
      </trkpt>
      <trkpt lat="43.62895" lon="3.82949">
        <ele>73.7</ele>
        <time>2020-12-31T11:11:17Z</time>
      </trkpt>
      <trkpt lat="43.62898" lon="3.8295">
        <ele>73.9</ele>
        <time>2020-12-31T11:11:18Z</time>
      </trkpt>
      <trkpt lat="43.62901" lon="3.82952">
        <ele>74.3</ele>
        <time>2020-12-31T11:11:19Z</time>
      </trkpt>
      <trkpt lat="43.62905" lon="3.82953">
        <ele>74.5</ele>
        <time>2020-12-31T11:11:20Z</time>
      </trkpt>
      <trkpt lat="43.62908" lon="3.82955">
        <ele>74.8</ele>
        <time>2020-12-31T11:11:21Z</time>
      </trkpt>
      <trkpt lat="43.62911" lon="3.82956">
        <ele>75</ele>
        <time>2020-12-31T11:11:22Z</time>
      </trkpt>
      <trkpt lat="43.62915" lon="3.82958">
        <ele>75.4</ele>
        <time>2020-12-31T11:11:23Z</time>
      </trkpt>
      <trkpt lat="43.62918" lon="3.8296">
        <ele>77</ele>
        <time>2020-12-31T11:11:25Z</time>
      </trkpt>
      <trkpt lat="43.62921" lon="3.82961">
        <ele>75.8</ele>
        <time>2020-12-31T11:11:26Z</time>
      </trkpt>
      <trkpt lat="43.62924" lon="3.82963">
        <ele>76</ele>
        <time>2020-12-31T11:11:27Z</time>
      </trkpt>
      <trkpt lat="43.62927" lon="3.82964">
        <ele>76.1</ele>
        <time>2020-12-31T11:11:28Z</time>
      </trkpt>
      <trkpt lat="43.6293" lon="3.82965">
        <ele>76.2</ele>
        <time>2020-12-31T11:11:29Z</time>
      </trkpt>
      <trkpt lat="43.62933" lon="3.82966">
        <ele>76.3</ele>
        <time>2020-12-31T11:11:30Z</time>
      </trkpt>
      <trkpt lat="43.62936" lon="3.82966">
        <ele>76.3</ele>
        <time>2020-12-31T11:11:31Z</time>
      </trkpt>
      <trkpt lat="43.6294" lon="3.82967">
        <ele>76.4</ele>
        <time>2020-12-31T11:11:32Z</time>
      </trkpt>
      <trkpt lat="43.62943" lon="3.8297">
        <ele>76.8</ele>
        <time>2020-12-31T11:11:33Z</time>
      </trkpt>
      <trkpt lat="43.62945" lon="3.82972">
        <ele>77</ele>
        <time>2020-12-31T11:11:34Z</time>
      </trkpt>
      <trkpt lat="43.62948" lon="3.82973">
        <ele>78</ele>
        <time>2020-12-31T11:11:35Z</time>
      </trkpt>
      <trkpt lat="43.62951" lon="3.82974">
        <ele>77.3</ele>
        <time>2020-12-31T11:11:36Z</time>
      </trkpt>
      <trkpt lat="43.62954" lon="3.82975">
        <ele>77.5</ele>
        <time>2020-12-31T11:11:37Z</time>
      </trkpt>
      <trkpt lat="43.62956" lon="3.82976">
        <ele>77.6</ele>
        <time>2020-12-31T11:11:38Z</time>
      </trkpt>
      <trkpt lat="43.62959" lon="3.82977">
        <ele>77.8</ele>
        <time>2020-12-31T11:11:39Z</time>
      </trkpt>
      <trkpt lat="43.62963" lon="3.82978">
        <ele>77.9</ele>
        <time>2020-12-31T11:11:40Z</time>
      </trkpt>
      <trkpt lat="43.62966" lon="3.82978">
        <ele>78</ele>
        <time>2020-12-31T11:11:41Z</time>
      </trkpt>
      <trkpt lat="43.62969" lon="3.82976">
        <ele>78</ele>
        <time>2020-12-31T11:11:42Z</time>
      </trkpt>
      <trkpt lat="43.62972" lon="3.82975">
        <ele>78.1</ele>
        <time>2020-12-31T11:11:43Z</time>
      </trkpt>
      <trkpt lat="43.62979" lon="3.82972">
        <ele>78.2</ele>
        <time>2020-12-31T11:11:44Z</time>
      </trkpt>
      <trkpt lat="43.62983" lon="3.82971">
        <ele>79</ele>
        <time>2020-12-31T11:11:45Z</time>
      </trkpt>
      <trkpt lat="43.62986" lon="3.82969">
        <ele>78.2</ele>
        <time>2020-12-31T11:11:46Z</time>
      </trkpt>
      <trkpt lat="43.6299" lon="3.82967">
        <ele>78.2</ele>
        <time>2020-12-31T11:11:48Z</time>
      </trkpt>
      <trkpt lat="43.62997" lon="3.82964">
        <ele>78.3</ele>
        <time>2020-12-31T11:11:49Z</time>
      </trkpt>
      <trkpt lat="43.63" lon="3.82962">
        <ele>78.3</ele>
        <time>2020-12-31T11:11:50Z</time>
      </trkpt>
      <trkpt lat="43.63003" lon="3.8296">
        <ele>78.2</ele>
        <time>2020-12-31T11:11:51Z</time>
      </trkpt>
      <trkpt lat="43.63007" lon="3.82958">
        <ele>78.2</ele>
        <time>2020-12-31T11:11:52Z</time>
      </trkpt>
      <trkpt lat="43.6301" lon="3.82957">
        <ele>78.3</ele>
        <time>2020-12-31T11:11:53Z</time>
      </trkpt>
      <trkpt lat="43.63013" lon="3.82955">
        <ele>79</ele>
        <time>2020-12-31T11:11:55Z</time>
      </trkpt>
      <trkpt lat="43.63017" lon="3.82953">
        <ele>78.2</ele>
        <time>2020-12-31T11:11:56Z</time>
      </trkpt>
      <trkpt lat="43.6302" lon="3.82951">
        <ele>78.2</ele>
        <time>2020-12-31T11:11:57Z</time>
      </trkpt>
      <trkpt lat="43.63027" lon="3.82951">
        <ele>78.4</ele>
        <time>2020-12-31T11:11:58Z</time>
      </trkpt>
      <trkpt lat="43.6303" lon="3.82954">
        <ele>78.8</ele>
        <time>2020-12-31T11:11:59Z</time>
      </trkpt>
      <trkpt lat="43.63032" lon="3.82956">
        <ele>79</ele>
        <time>2020-12-31T11:12:00Z</time>
      </trkpt>
      <trkpt lat="43.63035" lon="3.82959">
        <ele>79.3</ele>
        <time>2020-12-31T11:12:01Z</time>
      </trkpt>
      <trkpt lat="43.63037" lon="3.82962">
        <ele>79.6</ele>
        <time>2020-12-31T11:12:02Z</time>
      </trkpt>
      <trkpt lat="43.63039" lon="3.82964">
        <ele>79.8</ele>
        <time>2020-12-31T11:12:03Z</time>
      </trkpt>
      <trkpt lat="43.63041" lon="3.82967">
        <ele>80</ele>
        <time>2020-12-31T11:12:05Z</time>
      </trkpt>
      <trkpt lat="43.63044" lon="3.82969">
        <ele>80.4</ele>
        <time>2020-12-31T11:12:06Z</time>
      </trkpt>
      <trkpt lat="43.63046" lon="3.82972">
        <ele>80.6</ele>
        <time>2020-12-31T11:12:07Z</time>
      </trkpt>
      <trkpt lat="43.63048" lon="3.82974">
        <ele>80.7</ele>
        <time>2020-12-31T11:12:08Z</time>
      </trkpt>
      <trkpt lat="43.6305" lon="3.82977">
        <ele>80.8</ele>
        <time>2020-12-31T11:12:09Z</time>
      </trkpt>
      <trkpt lat="43.63054" lon="3.82981">
        <ele>81</ele>
        <time>2020-12-31T11:12:10Z</time>
      </trkpt>
      <trkpt lat="43.63056" lon="3.82984">
        <ele>81</ele>
        <time>2020-12-31T11:12:11Z</time>
      </trkpt>
      <trkpt lat="43.63058" lon="3.82986">
        <ele>80.8</ele>
        <time>2020-12-31T11:12:12Z</time>
      </trkpt>
      <trkpt lat="43.6306" lon="3.82989">
        <ele>80.7</ele>
        <time>2020-12-31T11:12:14Z</time>
      </trkpt>
      <trkpt lat="43.63062" lon="3.82992">
        <ele>81</ele>
        <time>2020-12-31T11:12:15Z</time>
      </trkpt>
      <trkpt lat="43.63065" lon="3.82994">
        <ele>80.3</ele>
        <time>2020-12-31T11:12:16Z</time>
      </trkpt>
      <trkpt lat="43.63067" lon="3.82993">
        <ele>80.2</ele>
        <time>2020-12-31T11:12:18Z</time>
      </trkpt>
      <trkpt lat="43.63069" lon="3.82992">
        <ele>80</ele>
        <time>2020-12-31T11:12:19Z</time>
      </trkpt>
      <trkpt lat="43.63071" lon="3.8299">
        <ele>79.9</ele>
        <time>2020-12-31T11:12:20Z</time>
      </trkpt>
      <trkpt lat="43.63072" lon="3.82988">
        <ele>79.8</ele>
        <time>2020-12-31T11:12:21Z</time>
      </trkpt>
      <trkpt lat="43.63074" lon="3.82985">
        <ele>79.7</ele>
        <time>2020-12-31T11:12:22Z</time>
      </trkpt>
      <trkpt lat="43.63076" lon="3.82982">
        <ele>79.5</ele>
        <time>2020-12-31T11:12:23Z</time>
      </trkpt>
      <trkpt lat="43.63079" lon="3.82979">
        <ele>79.3</ele>
        <time>2020-12-31T11:12:24Z</time>
      </trkpt>
      <trkpt lat="43.63081" lon="3.82975">
        <ele>81</ele>
        <time>2020-12-31T11:12:25Z</time>
      </trkpt>
      <trkpt lat="43.63084" lon="3.82973">
        <ele>79</ele>
        <time>2020-12-31T11:12:26Z</time>
      </trkpt>
      <trkpt lat="43.63087" lon="3.82972">
        <ele>78.9</ele>
        <time>2020-12-31T11:12:27Z</time>
      </trkpt>
      <trkpt lat="43.6309" lon="3.82972">
        <ele>78.8</ele>
        <time>2020-12-31T11:12:28Z</time>
      </trkpt>
      <trkpt lat="43.63095" lon="3.82972">
        <ele>78.6</ele>
        <time>2020-12-31T11:12:29Z</time>
      </trkpt>
      <trkpt lat="43.63098" lon="3.82972">
        <ele>78.5</ele>
        <time>2020-12-31T11:12:30Z</time>
      </trkpt>
      <trkpt lat="43.63101" lon="3.82972">
        <ele>78.4</ele>
        <time>2020-12-31T11:12:31Z</time>
      </trkpt>
      <trkpt lat="43.63104" lon="3.82972">
        <ele>78.2</ele>
        <time>2020-12-31T11:12:32Z</time>
      </trkpt>
      <trkpt lat="43.63106" lon="3.82972">
        <ele>78.2</ele>
        <time>2020-12-31T11:12:33Z</time>
      </trkpt>
      <trkpt lat="43.63109" lon="3.82973">
        <ele>78.1</ele>
        <time>2020-12-31T11:12:34Z</time>
      </trkpt>
      <trkpt lat="43.63111" lon="3.82974">
        <ele>77.9</ele>
        <time>2020-12-31T11:12:36Z</time>
      </trkpt>
      <trkpt lat="43.63114" lon="3.82974">
        <ele>77.5</ele>
        <time>2020-12-31T11:12:37Z</time>
      </trkpt>
      <trkpt lat="43.6312" lon="3.82974">
        <ele>76.7</ele>
        <time>2020-12-31T11:12:38Z</time>
      </trkpt>
      <trkpt lat="43.63123" lon="3.82973">
        <ele>76.3</ele>
        <time>2020-12-31T11:12:40Z</time>
      </trkpt>
      <trkpt lat="43.63127" lon="3.82972">
        <ele>75.7</ele>
        <time>2020-12-31T11:12:41Z</time>
      </trkpt>
      <trkpt lat="43.63132" lon="3.82972">
        <ele>75</ele>
        <time>2020-12-31T11:12:42Z</time>
      </trkpt>
      <trkpt lat="43.63136" lon="3.82971">
        <ele>74.4</ele>
        <time>2020-12-31T11:12:43Z</time>
      </trkpt>
      <trkpt lat="43.63141" lon="3.82972">
        <ele>74.1</ele>
        <time>2020-12-31T11:12:44Z</time>
      </trkpt>
      <trkpt lat="43.63146" lon="3.82972">
        <ele>78</ele>
        <time>2020-12-31T11:12:45Z</time>
      </trkpt>
      <trkpt lat="43.63151" lon="3.82972">
        <ele>74.4</ele>
        <time>2020-12-31T11:12:46Z</time>
      </trkpt>
      <trkpt lat="43.63155" lon="3.82972">
        <ele>74.6</ele>
        <time>2020-12-31T11:12:47Z</time>
      </trkpt>
      <trkpt lat="43.63159" lon="3.82973">
        <ele>74.8</ele>
        <time>2020-12-31T11:12:48Z</time>
      </trkpt>
      <trkpt lat="43.63167" lon="3.82972">
        <ele>75</ele>
        <time>2020-12-31T11:12:49Z</time>
      </trkpt>
      <trkpt lat="43.63171" lon="3.82972">
        <ele>75.2</ele>
        <time>2020-12-31T11:12:50Z</time>
      </trkpt>
      <trkpt lat="43.63174" lon="3.82973">
        <ele>75.3</ele>
        <time>2020-12-31T11:12:51Z</time>
      </trkpt>
      <trkpt lat="43.63176" lon="3.82973">
        <ele>75.4</ele>
        <time>2020-12-31T11:12:52Z</time>
      </trkpt>
      <trkpt lat="43.63178" lon="3.82973">
        <ele>78</ele>
        <time>2020-12-31T11:12:55Z</time>
      </trkpt>
      <trkpt lat="43.63181" lon="3.82971">
        <ele>75.5</ele>
        <time>2020-12-31T11:12:57Z</time>
      </trkpt>
      <trkpt lat="43.63183" lon="3.82969">
        <ele>75.6</ele>
        <time>2020-12-31T11:12:58Z</time>
      </trkpt>
      <trkpt lat="43.63186" lon="3.82967">
        <ele>75.7</ele>
        <time>2020-12-31T11:12:59Z</time>
      </trkpt>
      <trkpt lat="43.63189" lon="3.82964">
        <ele>75.8</ele>
        <time>2020-12-31T11:13:00Z</time>
      </trkpt>
      <trkpt lat="43.63193" lon="3.82962">
        <ele>75.9</ele>
        <time>2020-12-31T11:13:01Z</time>
      </trkpt>
      <trkpt lat="43.632" lon="3.82957">
        <ele>76.4</ele>
        <time>2020-12-31T11:13:02Z</time>
      </trkpt>
      <trkpt lat="43.63204" lon="3.82954">
        <ele>76.7</ele>
        <time>2020-12-31T11:13:03Z</time>
      </trkpt>
      <trkpt lat="43.63208" lon="3.82951">
        <ele>77</ele>
        <time>2020-12-31T11:13:04Z</time>
      </trkpt>
      <trkpt lat="43.6321" lon="3.82947">
        <ele>77.1</ele>
        <time>2020-12-31T11:13:06Z</time>
      </trkpt>
      <trkpt lat="43.6321" lon="3.82937">
        <ele>77.4</ele>
        <time>2020-12-31T11:13:07Z</time>
      </trkpt>
      <trkpt lat="43.63208" lon="3.82932">
        <ele>77.4</ele>
        <time>2020-12-31T11:13:08Z</time>
      </trkpt>
      <trkpt lat="43.63207" lon="3.82928">
        <ele>77.5</ele>
        <time>2020-12-31T11:13:09Z</time>
      </trkpt>
      <trkpt lat="43.63204" lon="3.8292">
        <ele>77.6</ele>
        <time>2020-12-31T11:13:11Z</time>
      </trkpt>
      <trkpt lat="43.63203" lon="3.82916">
        <ele>77.7</ele>
        <time>2020-12-31T11:13:12Z</time>
      </trkpt>
      <trkpt lat="43.63201" lon="3.82912">
        <ele>77.8</ele>
        <time>2020-12-31T11:13:13Z</time>
      </trkpt>
      <trkpt lat="43.63199" lon="3.82902">
        <ele>79</ele>
        <time>2020-12-31T11:13:15Z</time>
      </trkpt>
      <trkpt lat="43.63197" lon="3.82897">
        <ele>78.5</ele>
        <time>2020-12-31T11:13:16Z</time>
      </trkpt>
      <trkpt lat="43.63195" lon="3.82893">
        <ele>78.7</ele>
        <time>2020-12-31T11:13:17Z</time>
      </trkpt>
      <trkpt lat="43.63194" lon="3.82888">
        <ele>79</ele>
        <time>2020-12-31T11:13:19Z</time>
      </trkpt>
      <trkpt lat="43.63193" lon="3.82883">
        <ele>79.1</ele>
        <time>2020-12-31T11:13:20Z</time>
      </trkpt>
      <trkpt lat="43.63193" lon="3.82878">
        <ele>79.3</ele>
        <time>2020-12-31T11:13:21Z</time>
      </trkpt>
      <trkpt lat="43.63192" lon="3.82873">
        <ele>79.4</ele>
        <time>2020-12-31T11:13:22Z</time>
      </trkpt>
      <trkpt lat="43.63191" lon="3.82869">
        <ele>79.4</ele>
        <time>2020-12-31T11:13:23Z</time>
      </trkpt>
      <trkpt lat="43.6319" lon="3.82864">
        <ele>79.6</ele>
        <time>2020-12-31T11:13:24Z</time>
      </trkpt>
      <trkpt lat="43.63189" lon="3.8286">
        <ele>81</ele>
        <time>2020-12-31T11:13:25Z</time>
      </trkpt>
      <trkpt lat="43.63188" lon="3.82855">
        <ele>79.9</ele>
        <time>2020-12-31T11:13:26Z</time>
      </trkpt>
      <trkpt lat="43.63186" lon="3.82846">
        <ele>80.3</ele>
        <time>2020-12-31T11:13:27Z</time>
      </trkpt>
      <trkpt lat="43.63185" lon="3.82842">
        <ele>80.5</ele>
        <time>2020-12-31T11:13:28Z</time>
      </trkpt>
      <trkpt lat="43.63184" lon="3.82837">
        <ele>80.7</ele>
        <time>2020-12-31T11:13:29Z</time>
      </trkpt>
      <trkpt lat="43.63184" lon="3.82832">
        <ele>80.9</ele>
        <time>2020-12-31T11:13:30Z</time>
      </trkpt>
      <trkpt lat="43.63184" lon="3.82828">
        <ele>81.1</ele>
        <time>2020-12-31T11:13:31Z</time>
      </trkpt>
      <trkpt lat="43.63183" lon="3.82824">
        <ele>81.2</ele>
        <time>2020-12-31T11:13:32Z</time>
      </trkpt>
      <trkpt lat="43.63181" lon="3.8282">
        <ele>81.3</ele>
        <time>2020-12-31T11:13:33Z</time>
      </trkpt>
      <trkpt lat="43.6318" lon="3.82815">
        <ele>81.4</ele>
        <time>2020-12-31T11:13:34Z</time>
      </trkpt>
      <trkpt lat="43.63179" lon="3.82811">
        <ele>82</ele>
        <time>2020-12-31T11:13:35Z</time>
      </trkpt>
      <trkpt lat="43.63178" lon="3.82807">
        <ele>81.7</ele>
        <time>2020-12-31T11:13:36Z</time>
      </trkpt>
      <trkpt lat="43.63177" lon="3.82803">
        <ele>81.6</ele>
        <time>2020-12-31T11:13:37Z</time>
      </trkpt>
      <trkpt lat="43.63176" lon="3.828">
        <ele>81.3</ele>
        <time>2020-12-31T11:13:38Z</time>
      </trkpt>
      <trkpt lat="43.63175" lon="3.82796">
        <ele>80.9</ele>
        <time>2020-12-31T11:13:39Z</time>
      </trkpt>
      <trkpt lat="43.63175" lon="3.82792">
        <ele>80.6</ele>
        <time>2020-12-31T11:13:40Z</time>
      </trkpt>
      <trkpt lat="43.63175" lon="3.82788">
        <ele>80.3</ele>
        <time>2020-12-31T11:13:41Z</time>
      </trkpt>
      <trkpt lat="43.63176" lon="3.82785">
        <ele>80.2</ele>
        <time>2020-12-31T11:13:42Z</time>
      </trkpt>
      <trkpt lat="43.63178" lon="3.82782">
        <ele>80.3</ele>
        <time>2020-12-31T11:13:43Z</time>
      </trkpt>
      <trkpt lat="43.6318" lon="3.82779">
        <ele>80.5</ele>
        <time>2020-12-31T11:13:44Z</time>
      </trkpt>
      <trkpt lat="43.63182" lon="3.82776">
        <ele>83</ele>
        <time>2020-12-31T11:13:45Z</time>
      </trkpt>
      <trkpt lat="43.63184" lon="3.82773">
        <ele>80.9</ele>
        <time>2020-12-31T11:13:46Z</time>
      </trkpt>
      <trkpt lat="43.63185" lon="3.8277">
        <ele>81</ele>
        <time>2020-12-31T11:13:47Z</time>
      </trkpt>
      <trkpt lat="43.63187" lon="3.82768">
        <ele>81.4</ele>
        <time>2020-12-31T11:13:48Z</time>
      </trkpt>
      <trkpt lat="43.63189" lon="3.82764">
        <ele>81.7</ele>
        <time>2020-12-31T11:13:49Z</time>
      </trkpt>
      <trkpt lat="43.6319" lon="3.82761">
        <ele>81.9</ele>
        <time>2020-12-31T11:13:50Z</time>
      </trkpt>
      <trkpt lat="43.63192" lon="3.82758">
        <ele>82.4</ele>
        <time>2020-12-31T11:13:51Z</time>
      </trkpt>
      <trkpt lat="43.63193" lon="3.82754">
        <ele>82.6</ele>
        <time>2020-12-31T11:13:52Z</time>
      </trkpt>
      <trkpt lat="43.63194" lon="3.82751">
        <ele>82.9</ele>
        <time>2020-12-31T11:13:53Z</time>
      </trkpt>
      <trkpt lat="43.63196" lon="3.82748">
        <ele>82.8</ele>
        <time>2020-12-31T11:13:54Z</time>
      </trkpt>
      <trkpt lat="43.63198" lon="3.82744">
        <ele>84</ele>
        <time>2020-12-31T11:13:55Z</time>
      </trkpt>
      <trkpt lat="43.63199" lon="3.82741">
        <ele>82.1</ele>
        <time>2020-12-31T11:13:56Z</time>
      </trkpt>
      <trkpt lat="43.63201" lon="3.82738">
        <ele>81.9</ele>
        <time>2020-12-31T11:13:57Z</time>
      </trkpt>
      <trkpt lat="43.63203" lon="3.82735">
        <ele>81.8</ele>
        <time>2020-12-31T11:13:58Z</time>
      </trkpt>
      <trkpt lat="43.63205" lon="3.82732">
        <ele>81.8</ele>
        <time>2020-12-31T11:13:59Z</time>
      </trkpt>
      <trkpt lat="43.63207" lon="3.82729">
        <ele>81.8</ele>
        <time>2020-12-31T11:14:01Z</time>
      </trkpt>
      <trkpt lat="43.63209" lon="3.82726">
        <ele>81.9</ele>
        <time>2020-12-31T11:14:02Z</time>
      </trkpt>
      <trkpt lat="43.6321" lon="3.82723">
        <ele>81.8</ele>
        <time>2020-12-31T11:14:03Z</time>
      </trkpt>
      <trkpt lat="43.63215" lon="3.82717">
        <ele>82.4</ele>
        <time>2020-12-31T11:14:04Z</time>
      </trkpt>
      <trkpt lat="43.63217" lon="3.82714">
        <ele>85</ele>
        <time>2020-12-31T11:14:05Z</time>
      </trkpt>
      <trkpt lat="43.6322" lon="3.82711">
        <ele>83.1</ele>
        <time>2020-12-31T11:14:06Z</time>
      </trkpt>
      <trkpt lat="43.63222" lon="3.82707">
        <ele>83.4</ele>
        <time>2020-12-31T11:14:07Z</time>
      </trkpt>
      <trkpt lat="43.63224" lon="3.82703">
        <ele>83.4</ele>
        <time>2020-12-31T11:14:09Z</time>
      </trkpt>
      <trkpt lat="43.63226" lon="3.82699">
        <ele>83.3</ele>
        <time>2020-12-31T11:14:10Z</time>
      </trkpt>
      <trkpt lat="43.63228" lon="3.82695">
        <ele>83.2</ele>
        <time>2020-12-31T11:14:11Z</time>
      </trkpt>
      <trkpt lat="43.6323" lon="3.82691">
        <ele>82.8</ele>
        <time>2020-12-31T11:14:12Z</time>
      </trkpt>
      <trkpt lat="43.63231" lon="3.82687">
        <ele>82.3</ele>
        <time>2020-12-31T11:14:13Z</time>
      </trkpt>
      <trkpt lat="43.63233" lon="3.82683">
        <ele>82</ele>
        <time>2020-12-31T11:14:14Z</time>
      </trkpt>
      <trkpt lat="43.63235" lon="3.8268">
        <ele>86</ele>
        <time>2020-12-31T11:14:15Z</time>
      </trkpt>
      <trkpt lat="43.63237" lon="3.82676">
        <ele>81.6</ele>
        <time>2020-12-31T11:14:16Z</time>
      </trkpt>
      <trkpt lat="43.63242" lon="3.82669">
        <ele>81.7</ele>
        <time>2020-12-31T11:14:17Z</time>
      </trkpt>
      <trkpt lat="43.63245" lon="3.82666">
        <ele>82</ele>
        <time>2020-12-31T11:14:18Z</time>
      </trkpt>
      <trkpt lat="43.63248" lon="3.82662">
        <ele>82.1</ele>
        <time>2020-12-31T11:14:19Z</time>
      </trkpt>
      <trkpt lat="43.63251" lon="3.82659">
        <ele>82.2</ele>
        <time>2020-12-31T11:14:21Z</time>
      </trkpt>
      <trkpt lat="43.63254" lon="3.82655">
        <ele>81.9</ele>
        <time>2020-12-31T11:14:22Z</time>
      </trkpt>
      <trkpt lat="43.63261" lon="3.82647">
        <ele>81.4</ele>
        <time>2020-12-31T11:14:23Z</time>
      </trkpt>
      <trkpt lat="43.63265" lon="3.82643">
        <ele>81.4</ele>
        <time>2020-12-31T11:14:24Z</time>
      </trkpt>
      <trkpt lat="43.63269" lon="3.82639">
        <ele>85</ele>
        <time>2020-12-31T11:14:25Z</time>
      </trkpt>
      <trkpt lat="43.63272" lon="3.82635">
        <ele>81.1</ele>
        <time>2020-12-31T11:14:26Z</time>
      </trkpt>
      <trkpt lat="43.63276" lon="3.82631">
        <ele>81</ele>
        <time>2020-12-31T11:14:27Z</time>
      </trkpt>
      <trkpt lat="43.63279" lon="3.82628">
        <ele>80.9</ele>
        <time>2020-12-31T11:14:28Z</time>
      </trkpt>
      <trkpt lat="43.63283" lon="3.82624">
        <ele>80.6</ele>
        <time>2020-12-31T11:14:29Z</time>
      </trkpt>
      <trkpt lat="43.63287" lon="3.8262">
        <ele>80.4</ele>
        <time>2020-12-31T11:14:30Z</time>
      </trkpt>
      <trkpt lat="43.63291" lon="3.82617">
        <ele>80.4</ele>
        <time>2020-12-31T11:14:31Z</time>
      </trkpt>
      <trkpt lat="43.63299" lon="3.82611">
        <ele>80.5</ele>
        <time>2020-12-31T11:14:33Z</time>
      </trkpt>
      <trkpt lat="43.63303" lon="3.82608">
        <ele>85</ele>
        <time>2020-12-31T11:14:35Z</time>
      </trkpt>
      <trkpt lat="43.63311" lon="3.826">
        <ele>79.8</ele>
        <time>2020-12-31T11:14:36Z</time>
      </trkpt>
      <trkpt lat="43.63315" lon="3.82597">
        <ele>79.7</ele>
        <time>2020-12-31T11:14:38Z</time>
      </trkpt>
      <trkpt lat="43.63319" lon="3.82593">
        <ele>79.5</ele>
        <time>2020-12-31T11:14:39Z</time>
      </trkpt>
      <trkpt lat="43.63323" lon="3.8259">
        <ele>79.5</ele>
        <time>2020-12-31T11:14:40Z</time>
      </trkpt>
      <trkpt lat="43.6333" lon="3.82584">
        <ele>79.7</ele>
        <time>2020-12-31T11:14:41Z</time>
      </trkpt>
      <trkpt lat="43.63334" lon="3.82582">
        <ele>79.7</ele>
        <time>2020-12-31T11:14:43Z</time>
      </trkpt>
      <trkpt lat="43.63339" lon="3.82579">
        <ele>79.3</ele>
        <time>2020-12-31T11:14:44Z</time>
      </trkpt>
      <trkpt lat="43.63343" lon="3.82577">
        <ele>84</ele>
        <time>2020-12-31T11:14:45Z</time>
      </trkpt>
      <trkpt lat="43.63347" lon="3.82575">
        <ele>79.1</ele>
        <time>2020-12-31T11:14:46Z</time>
      </trkpt>
      <trkpt lat="43.63352" lon="3.82572">
        <ele>79.2</ele>
        <time>2020-12-31T11:14:47Z</time>
      </trkpt>
      <trkpt lat="43.63356" lon="3.8257">
        <ele>79.4</ele>
        <time>2020-12-31T11:14:48Z</time>
      </trkpt>
      <trkpt lat="43.63359" lon="3.82568">
        <ele>79.6</ele>
        <time>2020-12-31T11:14:49Z</time>
      </trkpt>
      <trkpt lat="43.63363" lon="3.82566">
        <ele>79.9</ele>
        <time>2020-12-31T11:14:50Z</time>
      </trkpt>
      <trkpt lat="43.63366" lon="3.82563">
        <ele>79.8</ele>
        <time>2020-12-31T11:14:51Z</time>
      </trkpt>
      <trkpt lat="43.6337" lon="3.82562">
        <ele>80</ele>
        <time>2020-12-31T11:14:52Z</time>
      </trkpt>
      <trkpt lat="43.63374" lon="3.8256">
        <ele>80.2</ele>
        <time>2020-12-31T11:14:53Z</time>
      </trkpt>
      <trkpt lat="43.63381" lon="3.82558">
        <ele>80.5</ele>
        <time>2020-12-31T11:14:54Z</time>
      </trkpt>
      <trkpt lat="43.63385" lon="3.82557">
        <ele>84</ele>
        <time>2020-12-31T11:14:55Z</time>
      </trkpt>
      <trkpt lat="43.63389" lon="3.82556">
        <ele>81</ele>
        <time>2020-12-31T11:14:56Z</time>
      </trkpt>
      <trkpt lat="43.63396" lon="3.82555">
        <ele>81.2</ele>
        <time>2020-12-31T11:14:58Z</time>
      </trkpt>
      <trkpt lat="43.63399" lon="3.82554">
        <ele>81.2</ele>
        <time>2020-12-31T11:14:59Z</time>
      </trkpt>
      <trkpt lat="43.63402" lon="3.82554">
        <ele>81.4</ele>
        <time>2020-12-31T11:15:00Z</time>
      </trkpt>
      <trkpt lat="43.63409" lon="3.82553">
        <ele>81.6</ele>
        <time>2020-12-31T11:15:02Z</time>
      </trkpt>
      <trkpt lat="43.63412" lon="3.82552">
        <ele>81.7</ele>
        <time>2020-12-31T11:15:03Z</time>
      </trkpt>
      <trkpt lat="43.63415" lon="3.82551">
        <ele>81.8</ele>
        <time>2020-12-31T11:15:04Z</time>
      </trkpt>
      <trkpt lat="43.63418" lon="3.82551">
        <ele>85</ele>
        <time>2020-12-31T11:15:05Z</time>
      </trkpt>
      <trkpt lat="43.63421" lon="3.8255">
        <ele>82.3</ele>
        <time>2020-12-31T11:15:07Z</time>
      </trkpt>
      <trkpt lat="43.63424" lon="3.8255">
        <ele>82.6</ele>
        <time>2020-12-31T11:15:08Z</time>
      </trkpt>
      <trkpt lat="43.63431" lon="3.82549">
        <ele>83.3</ele>
        <time>2020-12-31T11:15:09Z</time>
      </trkpt>
      <trkpt lat="43.63434" lon="3.82549">
        <ele>83.6</ele>
        <time>2020-12-31T11:15:10Z</time>
      </trkpt>
      <trkpt lat="43.63437" lon="3.82548">
        <ele>83.9</ele>
        <time>2020-12-31T11:15:11Z</time>
      </trkpt>
      <trkpt lat="43.6344" lon="3.82548">
        <ele>84.2</ele>
        <time>2020-12-31T11:15:12Z</time>
      </trkpt>
      <trkpt lat="43.63443" lon="3.82548">
        <ele>84.6</ele>
        <time>2020-12-31T11:15:13Z</time>
      </trkpt>
      <trkpt lat="43.63446" lon="3.82547">
        <ele>86</ele>
        <time>2020-12-31T11:15:15Z</time>
      </trkpt>
      <trkpt lat="43.63448" lon="3.82547">
        <ele>84.9</ele>
        <time>2020-12-31T11:15:16Z</time>
      </trkpt>
      <trkpt lat="43.63451" lon="3.82547">
        <ele>85.2</ele>
        <time>2020-12-31T11:15:17Z</time>
      </trkpt>
      <trkpt lat="43.63454" lon="3.82546">
        <ele>85.3</ele>
        <time>2020-12-31T11:15:18Z</time>
      </trkpt>
      <trkpt lat="43.63457" lon="3.82546">
        <ele>85.6</ele>
        <time>2020-12-31T11:15:19Z</time>
      </trkpt>
      <trkpt lat="43.6346" lon="3.82546">
        <ele>85.8</ele>
        <time>2020-12-31T11:15:20Z</time>
      </trkpt>
      <trkpt lat="43.63465" lon="3.82545">
        <ele>86.1</ele>
        <time>2020-12-31T11:15:21Z</time>
      </trkpt>
      <trkpt lat="43.63471" lon="3.82545">
        <ele>86.5</ele>
        <time>2020-12-31T11:15:23Z</time>
      </trkpt>
      <trkpt lat="43.63474" lon="3.82544">
        <ele>86.7</ele>
        <time>2020-12-31T11:15:24Z</time>
      </trkpt>
      <trkpt lat="43.63477" lon="3.82544">
        <ele>88</ele>
        <time>2020-12-31T11:15:25Z</time>
      </trkpt>
      <trkpt lat="43.6348" lon="3.82543">
        <ele>87</ele>
        <time>2020-12-31T11:15:26Z</time>
      </trkpt>
      <trkpt lat="43.63482" lon="3.82543">
        <ele>87.1</ele>
        <time>2020-12-31T11:15:27Z</time>
      </trkpt>
      <trkpt lat="43.63485" lon="3.82543">
        <ele>87.2</ele>
        <time>2020-12-31T11:15:28Z</time>
      </trkpt>
      <trkpt lat="43.63488" lon="3.82543">
        <ele>87.4</ele>
        <time>2020-12-31T11:15:29Z</time>
      </trkpt>
      <trkpt lat="43.63493" lon="3.82543">
        <ele>87.6</ele>
        <time>2020-12-31T11:15:31Z</time>
      </trkpt>
      <trkpt lat="43.63497" lon="3.82542">
        <ele>87.8</ele>
        <time>2020-12-31T11:15:32Z</time>
      </trkpt>
      <trkpt lat="43.635" lon="3.82542">
        <ele>88</ele>
        <time>2020-12-31T11:15:33Z</time>
      </trkpt>
      <trkpt lat="43.63502" lon="3.82542">
        <ele>88.1</ele>
        <time>2020-12-31T11:15:34Z</time>
      </trkpt>
      <trkpt lat="43.63505" lon="3.82541">
        <ele>89</ele>
        <time>2020-12-31T11:15:35Z</time>
      </trkpt>
      <trkpt lat="43.63508" lon="3.82541">
        <ele>88.3</ele>
        <time>2020-12-31T11:15:36Z</time>
      </trkpt>
      <trkpt lat="43.63511" lon="3.82541">
        <ele>88.4</ele>
        <time>2020-12-31T11:15:37Z</time>
      </trkpt>
      <trkpt lat="43.63513" lon="3.8254">
        <ele>88.5</ele>
        <time>2020-12-31T11:15:38Z</time>
      </trkpt>
      <trkpt lat="43.63516" lon="3.82539">
        <ele>88.6</ele>
        <time>2020-12-31T11:15:39Z</time>
      </trkpt>
      <trkpt lat="43.63519" lon="3.82539">
        <ele>88.7</ele>
        <time>2020-12-31T11:15:41Z</time>
      </trkpt>
      <trkpt lat="43.63522" lon="3.82538">
        <ele>88.8</ele>
        <time>2020-12-31T11:15:42Z</time>
      </trkpt>
      <trkpt lat="43.63525" lon="3.82538">
        <ele>88.9</ele>
        <time>2020-12-31T11:15:43Z</time>
      </trkpt>
      <trkpt lat="43.6353" lon="3.82537">
        <ele>89.1</ele>
        <time>2020-12-31T11:15:44Z</time>
      </trkpt>
      <trkpt lat="43.63533" lon="3.82536">
        <ele>89.1</ele>
        <time>2020-12-31T11:15:46Z</time>
      </trkpt>
      <trkpt lat="43.63536" lon="3.82535">
        <ele>89.2</ele>
        <time>2020-12-31T11:15:47Z</time>
      </trkpt>
      <trkpt lat="43.63539" lon="3.82535">
        <ele>89.3</ele>
        <time>2020-12-31T11:15:48Z</time>
      </trkpt>
      <trkpt lat="43.63543" lon="3.82534">
        <ele>89.4</ele>
        <time>2020-12-31T11:15:49Z</time>
      </trkpt>
      <trkpt lat="43.63546" lon="3.82534">
        <ele>89.5</ele>
        <time>2020-12-31T11:15:50Z</time>
      </trkpt>
      <trkpt lat="43.6355" lon="3.82532">
        <ele>89.7</ele>
        <time>2020-12-31T11:15:51Z</time>
      </trkpt>
      <trkpt lat="43.63553" lon="3.8253">
        <ele>89.8</ele>
        <time>2020-12-31T11:15:52Z</time>
      </trkpt>
      <trkpt lat="43.63557" lon="3.82528">
        <ele>90</ele>
        <time>2020-12-31T11:15:53Z</time>
      </trkpt>
      <trkpt lat="43.6356" lon="3.82525">
        <ele>90.1</ele>
        <time>2020-12-31T11:15:54Z</time>
      </trkpt>
      <trkpt lat="43.63562" lon="3.82522">
        <ele>91</ele>
        <time>2020-12-31T11:15:55Z</time>
      </trkpt>
      <trkpt lat="43.63565" lon="3.8252">
        <ele>90.2</ele>
        <time>2020-12-31T11:15:56Z</time>
      </trkpt>
      <trkpt lat="43.63567" lon="3.82518">
        <ele>90.2</ele>
        <time>2020-12-31T11:15:57Z</time>
      </trkpt>
      <trkpt lat="43.63572" lon="3.82517">
        <ele>90.4</ele>
        <time>2020-12-31T11:15:58Z</time>
      </trkpt>
      <trkpt lat="43.63574" lon="3.82519">
        <ele>90.6</ele>
        <time>2020-12-31T11:15:59Z</time>
      </trkpt>
      <trkpt lat="43.63575" lon="3.82523">
        <ele>90.6</ele>
        <time>2020-12-31T11:16:00Z</time>
      </trkpt>
      <trkpt lat="43.63575" lon="3.82527">
        <ele>90.7</ele>
        <time>2020-12-31T11:16:02Z</time>
      </trkpt>
      <trkpt lat="43.63576" lon="3.82531">
        <ele>90.5</ele>
        <time>2020-12-31T11:16:03Z</time>
      </trkpt>
      <trkpt lat="43.63577" lon="3.8254">
        <ele>90</ele>
        <time>2020-12-31T11:16:04Z</time>
      </trkpt>
      <trkpt lat="43.63578" lon="3.82545">
        <ele>89.7</ele>
        <time>2020-12-31T11:16:06Z</time>
      </trkpt>
      <trkpt lat="43.6358" lon="3.82554">
        <ele>89.1</ele>
        <time>2020-12-31T11:16:07Z</time>
      </trkpt>
      <trkpt lat="43.6358" lon="3.82558">
        <ele>89</ele>
        <time>2020-12-31T11:16:09Z</time>
      </trkpt>
      <trkpt lat="43.63582" lon="3.82566">
        <ele>89</ele>
        <time>2020-12-31T11:16:10Z</time>
      </trkpt>
      <trkpt lat="43.63582" lon="3.8257">
        <ele>89</ele>
        <time>2020-12-31T11:16:11Z</time>
      </trkpt>
      <trkpt lat="43.63583" lon="3.82573">
        <ele>89</ele>
        <time>2020-12-31T11:16:12Z</time>
      </trkpt>
      <trkpt lat="43.63584" lon="3.82577">
        <ele>89</ele>
        <time>2020-12-31T11:16:13Z</time>
      </trkpt>
      <trkpt lat="43.63585" lon="3.82581">
        <ele>89</ele>
        <time>2020-12-31T11:16:14Z</time>
      </trkpt>
      <trkpt lat="43.63586" lon="3.82585">
        <ele>92</ele>
        <time>2020-12-31T11:16:15Z</time>
      </trkpt>
      <trkpt lat="43.63587" lon="3.82589">
        <ele>89</ele>
        <time>2020-12-31T11:16:16Z</time>
      </trkpt>
      <trkpt lat="43.63588" lon="3.82593">
        <ele>88.9</ele>
        <time>2020-12-31T11:16:17Z</time>
      </trkpt>
      <trkpt lat="43.63589" lon="3.82597">
        <ele>88.9</ele>
        <time>2020-12-31T11:16:18Z</time>
      </trkpt>
      <trkpt lat="43.6359" lon="3.82601">
        <ele>88.8</ele>
        <time>2020-12-31T11:16:20Z</time>
      </trkpt>
      <trkpt lat="43.6359" lon="3.82604">
        <ele>88.8</ele>
        <time>2020-12-31T11:16:21Z</time>
      </trkpt>
      <trkpt lat="43.63591" lon="3.82608">
        <ele>88.8</ele>
        <time>2020-12-31T11:16:22Z</time>
      </trkpt>
      <trkpt lat="43.63592" lon="3.82612">
        <ele>88.7</ele>
        <time>2020-12-31T11:16:23Z</time>
      </trkpt>
      <trkpt lat="43.63592" lon="3.82618">
        <ele>88.4</ele>
        <time>2020-12-31T11:16:24Z</time>
      </trkpt>
      <trkpt lat="43.63595" lon="3.82623">
        <ele>92</ele>
        <time>2020-12-31T11:16:25Z</time>
      </trkpt>
      <trkpt lat="43.63599" lon="3.82626">
        <ele>87.9</ele>
        <time>2020-12-31T11:16:26Z</time>
      </trkpt>
      <trkpt lat="43.63604" lon="3.82629">
        <ele>87.6</ele>
        <time>2020-12-31T11:16:27Z</time>
      </trkpt>
      <trkpt lat="43.63608" lon="3.82633">
        <ele>87.3</ele>
        <time>2020-12-31T11:16:28Z</time>
      </trkpt>
      <trkpt lat="43.6361" lon="3.82639">
        <ele>87</ele>
        <time>2020-12-31T11:16:29Z</time>
      </trkpt>
      <trkpt lat="43.63613" lon="3.82646">
        <ele>86.7</ele>
        <time>2020-12-31T11:16:30Z</time>
      </trkpt>
      <trkpt lat="43.63616" lon="3.82653">
        <ele>86.3</ele>
        <time>2020-12-31T11:16:31Z</time>
      </trkpt>
      <trkpt lat="43.63618" lon="3.82659">
        <ele>86</ele>
        <time>2020-12-31T11:16:32Z</time>
      </trkpt>
      <trkpt lat="43.63621" lon="3.82667">
        <ele>85.6</ele>
        <time>2020-12-31T11:16:33Z</time>
      </trkpt>
      <trkpt lat="43.63624" lon="3.82674">
        <ele>85.1</ele>
        <time>2020-12-31T11:16:34Z</time>
      </trkpt>
      <trkpt lat="43.63628" lon="3.82679">
        <ele>90</ele>
        <time>2020-12-31T11:16:35Z</time>
      </trkpt>
      <trkpt lat="43.63633" lon="3.82692">
        <ele>83.6</ele>
        <time>2020-12-31T11:16:36Z</time>
      </trkpt>
      <trkpt lat="43.63633" lon="3.82702">
        <ele>82.8</ele>
        <time>2020-12-31T11:16:37Z</time>
      </trkpt>
      <trkpt lat="43.63632" lon="3.82712">
        <ele>82.1</ele>
        <time>2020-12-31T11:16:38Z</time>
      </trkpt>
      <trkpt lat="43.63631" lon="3.82722">
        <ele>81.3</ele>
        <time>2020-12-31T11:16:40Z</time>
      </trkpt>
      <trkpt lat="43.63632" lon="3.82732">
        <ele>80.5</ele>
        <time>2020-12-31T11:16:41Z</time>
      </trkpt>
      <trkpt lat="43.63632" lon="3.82743">
        <ele>79.8</ele>
        <time>2020-12-31T11:16:42Z</time>
      </trkpt>
      <trkpt lat="43.63631" lon="3.82752">
        <ele>79.2</ele>
        <time>2020-12-31T11:16:43Z</time>
      </trkpt>
      <trkpt lat="43.63632" lon="3.82758">
        <ele>79</ele>
        <time>2020-12-31T11:16:44Z</time>
      </trkpt>
      <trkpt lat="43.63634" lon="3.82764">
        <ele>85</ele>
        <time>2020-12-31T11:16:45Z</time>
      </trkpt>
      <trkpt lat="43.6364" lon="3.82766">
        <ele>78.4</ele>
        <time>2020-12-31T11:16:48Z</time>
      </trkpt>
      <trkpt lat="43.63642" lon="3.82767">
        <ele>78.4</ele>
        <time>2020-12-31T11:16:49Z</time>
      </trkpt>
      <trkpt lat="43.63645" lon="3.82768">
        <ele>78.4</ele>
        <time>2020-12-31T11:16:50Z</time>
      </trkpt>
      <trkpt lat="43.63648" lon="3.82771">
        <ele>78.3</ele>
        <time>2020-12-31T11:16:51Z</time>
      </trkpt>
      <trkpt lat="43.63655" lon="3.82773">
        <ele>78.3</ele>
        <time>2020-12-31T11:16:53Z</time>
      </trkpt>
      <trkpt lat="43.6366" lon="3.82772">
        <ele>78.4</ele>
        <time>2020-12-31T11:16:54Z</time>
      </trkpt>
      <trkpt lat="43.63664" lon="3.82771">
        <ele>84</ele>
        <time>2020-12-31T11:16:55Z</time>
      </trkpt>
      <trkpt lat="43.63669" lon="3.8277">
        <ele>78.6</ele>
        <time>2020-12-31T11:16:56Z</time>
      </trkpt>
      <trkpt lat="43.63674" lon="3.82769">
        <ele>78.6</ele>
        <time>2020-12-31T11:16:57Z</time>
      </trkpt>
      <trkpt lat="43.63678" lon="3.82767">
        <ele>78.8</ele>
        <time>2020-12-31T11:16:58Z</time>
      </trkpt>
      <trkpt lat="43.63683" lon="3.82766">
        <ele>78.8</ele>
        <time>2020-12-31T11:16:59Z</time>
      </trkpt>
      <trkpt lat="43.63687" lon="3.82765">
        <ele>78.9</ele>
        <time>2020-12-31T11:17:00Z</time>
      </trkpt>
      <trkpt lat="43.63691" lon="3.82764">
        <ele>79</ele>
        <time>2020-12-31T11:17:01Z</time>
      </trkpt>
      <trkpt lat="43.63696" lon="3.82762">
        <ele>79.1</ele>
        <time>2020-12-31T11:17:02Z</time>
      </trkpt>
      <trkpt lat="43.637" lon="3.82761">
        <ele>79.1</ele>
        <time>2020-12-31T11:17:03Z</time>
      </trkpt>
      <trkpt lat="43.63704" lon="3.8276">
        <ele>79.1</ele>
        <time>2020-12-31T11:17:04Z</time>
      </trkpt>
      <trkpt lat="43.63708" lon="3.8276">
        <ele>84</ele>
        <time>2020-12-31T11:17:05Z</time>
      </trkpt>
      <trkpt lat="43.63712" lon="3.82759">
        <ele>78.9</ele>
        <time>2020-12-31T11:17:06Z</time>
      </trkpt>
      <trkpt lat="43.63717" lon="3.82757">
        <ele>78.9</ele>
        <time>2020-12-31T11:17:07Z</time>
      </trkpt>
      <trkpt lat="43.63721" lon="3.82756">
        <ele>78.8</ele>
        <time>2020-12-31T11:17:08Z</time>
      </trkpt>
      <trkpt lat="43.63725" lon="3.82755">
        <ele>78.7</ele>
        <time>2020-12-31T11:17:10Z</time>
      </trkpt>
      <trkpt lat="43.63729" lon="3.82755">
        <ele>78.6</ele>
        <time>2020-12-31T11:17:11Z</time>
      </trkpt>
      <trkpt lat="43.63738" lon="3.82755">
        <ele>78.3</ele>
        <time>2020-12-31T11:17:12Z</time>
      </trkpt>
      <trkpt lat="43.63741" lon="3.82757">
        <ele>78.1</ele>
        <time>2020-12-31T11:17:13Z</time>
      </trkpt>
      <trkpt lat="43.63745" lon="3.82757">
        <ele>77.9</ele>
        <time>2020-12-31T11:17:14Z</time>
      </trkpt>
      <trkpt lat="43.63749" lon="3.82757">
        <ele>84</ele>
        <time>2020-12-31T11:17:15Z</time>
      </trkpt>
      <trkpt lat="43.63753" lon="3.82756">
        <ele>77.9</ele>
        <time>2020-12-31T11:17:16Z</time>
      </trkpt>
      <trkpt lat="43.63758" lon="3.82755">
        <ele>78.1</ele>
        <time>2020-12-31T11:17:18Z</time>
      </trkpt>
      <trkpt lat="43.63767" lon="3.82753">
        <ele>78.5</ele>
        <time>2020-12-31T11:17:19Z</time>
      </trkpt>
      <trkpt lat="43.63771" lon="3.82752">
        <ele>78.7</ele>
        <time>2020-12-31T11:17:20Z</time>
      </trkpt>
      <trkpt lat="43.63776" lon="3.82751">
        <ele>78.9</ele>
        <time>2020-12-31T11:17:21Z</time>
      </trkpt>
      <trkpt lat="43.63784" lon="3.82748">
        <ele>79</ele>
        <time>2020-12-31T11:17:23Z</time>
      </trkpt>
      <trkpt lat="43.63788" lon="3.82747">
        <ele>84</ele>
        <time>2020-12-31T11:17:25Z</time>
      </trkpt>
      <trkpt lat="43.63796" lon="3.82744">
        <ele>78.9</ele>
        <time>2020-12-31T11:17:26Z</time>
      </trkpt>
      <trkpt lat="43.638" lon="3.82742">
        <ele>78.8</ele>
        <time>2020-12-31T11:17:27Z</time>
      </trkpt>
      <trkpt lat="43.63804" lon="3.82739">
        <ele>78.9</ele>
        <time>2020-12-31T11:17:28Z</time>
      </trkpt>
      <trkpt lat="43.63809" lon="3.82736">
        <ele>79.1</ele>
        <time>2020-12-31T11:17:29Z</time>
      </trkpt>
      <trkpt lat="43.63813" lon="3.82734">
        <ele>79.4</ele>
        <time>2020-12-31T11:17:30Z</time>
      </trkpt>
      <trkpt lat="43.63817" lon="3.82731">
        <ele>79.8</ele>
        <time>2020-12-31T11:17:31Z</time>
      </trkpt>
      <trkpt lat="43.63822" lon="3.82729">
        <ele>80.1</ele>
        <time>2020-12-31T11:17:32Z</time>
      </trkpt>
      <trkpt lat="43.6383" lon="3.82727">
        <ele>80.5</ele>
        <time>2020-12-31T11:17:34Z</time>
      </trkpt>
      <trkpt lat="43.63834" lon="3.82726">
        <ele>84</ele>
        <time>2020-12-31T11:17:35Z</time>
      </trkpt>
      <trkpt lat="43.63838" lon="3.82725">
        <ele>80.8</ele>
        <time>2020-12-31T11:17:37Z</time>
      </trkpt>
      <trkpt lat="43.63841" lon="3.82724">
        <ele>80.9</ele>
        <time>2020-12-31T11:17:38Z</time>
      </trkpt>
      <trkpt lat="43.63845" lon="3.82722">
        <ele>81</ele>
        <time>2020-12-31T11:17:39Z</time>
      </trkpt>
      <trkpt lat="43.63848" lon="3.82722">
        <ele>81</ele>
        <time>2020-12-31T11:17:40Z</time>
      </trkpt>
      <trkpt lat="43.63851" lon="3.82721">
        <ele>81.1</ele>
        <time>2020-12-31T11:17:41Z</time>
      </trkpt>
      <trkpt lat="43.63855" lon="3.8272">
        <ele>81.2</ele>
        <time>2020-12-31T11:17:42Z</time>
      </trkpt>
      <trkpt lat="43.63857" lon="3.82719">
        <ele>81.3</ele>
        <time>2020-12-31T11:17:43Z</time>
      </trkpt>
      <trkpt lat="43.63863" lon="3.82718">
        <ele>81.5</ele>
        <time>2020-12-31T11:17:44Z</time>
      </trkpt>
      <trkpt lat="43.63865" lon="3.82718">
        <ele>81.6</ele>
        <time>2020-12-31T11:17:46Z</time>
      </trkpt>
      <trkpt lat="43.63868" lon="3.82718">
        <ele>81.7</ele>
        <time>2020-12-31T11:17:47Z</time>
      </trkpt>
      <trkpt lat="43.6387" lon="3.82719">
        <ele>81.6</ele>
        <time>2020-12-31T11:17:48Z</time>
      </trkpt>
      <trkpt lat="43.63873" lon="3.82722">
        <ele>81.4</ele>
        <time>2020-12-31T11:17:49Z</time>
      </trkpt>
      <trkpt lat="43.63874" lon="3.82725">
        <ele>81.3</ele>
        <time>2020-12-31T11:17:50Z</time>
      </trkpt>
      <trkpt lat="43.63876" lon="3.82732">
        <ele>81</ele>
        <time>2020-12-31T11:17:51Z</time>
      </trkpt>
      <trkpt lat="43.63877" lon="3.82736">
        <ele>80.9</ele>
        <time>2020-12-31T11:17:52Z</time>
      </trkpt>
      <trkpt lat="43.63878" lon="3.82739">
        <ele>80.8</ele>
        <time>2020-12-31T11:17:53Z</time>
      </trkpt>
      <trkpt lat="43.6388" lon="3.82743">
        <ele>80.7</ele>
        <time>2020-12-31T11:17:54Z</time>
      </trkpt>
      <trkpt lat="43.63882" lon="3.82745">
        <ele>85</ele>
        <time>2020-12-31T11:17:55Z</time>
      </trkpt>
      <trkpt lat="43.63884" lon="3.82746">
        <ele>80.8</ele>
        <time>2020-12-31T11:17:56Z</time>
      </trkpt>
      <trkpt lat="43.63886" lon="3.82746">
        <ele>81</ele>
        <time>2020-12-31T11:17:57Z</time>
      </trkpt>
      <trkpt lat="43.63888" lon="3.82745">
        <ele>81.1</ele>
        <time>2020-12-31T11:17:58Z</time>
      </trkpt>
      <trkpt lat="43.6389" lon="3.82745">
        <ele>81.1</ele>
        <time>2020-12-31T11:17:59Z</time>
      </trkpt>
      <trkpt lat="43.63892" lon="3.82746">
        <ele>81</ele>
        <time>2020-12-31T11:18:01Z</time>
      </trkpt>
      <trkpt lat="43.63894" lon="3.82748">
        <ele>80.9</ele>
        <time>2020-12-31T11:18:02Z</time>
      </trkpt>
      <trkpt lat="43.63895" lon="3.82751">
        <ele>80.8</ele>
        <time>2020-12-31T11:18:03Z</time>
      </trkpt>
      <trkpt lat="43.63896" lon="3.82755">
        <ele>80.6</ele>
        <time>2020-12-31T11:18:04Z</time>
      </trkpt>
      <trkpt lat="43.63897" lon="3.82759">
        <ele>84</ele>
        <time>2020-12-31T11:18:05Z</time>
      </trkpt>
      <trkpt lat="43.63899" lon="3.82763">
        <ele>80.3</ele>
        <time>2020-12-31T11:18:06Z</time>
      </trkpt>
      <trkpt lat="43.63902" lon="3.82772">
        <ele>80.1</ele>
        <time>2020-12-31T11:18:07Z</time>
      </trkpt>
      <trkpt lat="43.63906" lon="3.82782">
        <ele>79.8</ele>
        <time>2020-12-31T11:18:09Z</time>
      </trkpt>
      <trkpt lat="43.6391" lon="3.82792">
        <ele>79.5</ele>
        <time>2020-12-31T11:18:11Z</time>
      </trkpt>
      <trkpt lat="43.63912" lon="3.82796">
        <ele>79.3</ele>
        <time>2020-12-31T11:18:13Z</time>
      </trkpt>
      <trkpt lat="43.63917" lon="3.82801">
        <ele>79.2</ele>
        <time>2020-12-31T11:18:14Z</time>
      </trkpt>
      <trkpt lat="43.63919" lon="3.82804">
        <ele>79.1</ele>
        <time>2020-12-31T11:18:16Z</time>
      </trkpt>
      <trkpt lat="43.63921" lon="3.82809">
        <ele>78.9</ele>
        <time>2020-12-31T11:18:17Z</time>
      </trkpt>
      <trkpt lat="43.63922" lon="3.82814">
        <ele>78.8</ele>
        <time>2020-12-31T11:18:18Z</time>
      </trkpt>
      <trkpt lat="43.63923" lon="3.82819">
        <ele>78.6</ele>
        <time>2020-12-31T11:18:19Z</time>
      </trkpt>
      <trkpt lat="43.63925" lon="3.82823">
        <ele>78.6</ele>
        <time>2020-12-31T11:18:20Z</time>
      </trkpt>
      <trkpt lat="43.63927" lon="3.82825">
        <ele>78.6</ele>
        <time>2020-12-31T11:18:21Z</time>
      </trkpt>
      <trkpt lat="43.63931" lon="3.82825">
        <ele>78.7</ele>
        <time>2020-12-31T11:18:22Z</time>
      </trkpt>
      <trkpt lat="43.63935" lon="3.82824">
        <ele>78.8</ele>
        <time>2020-12-31T11:18:23Z</time>
      </trkpt>
      <trkpt lat="43.63943" lon="3.82821">
        <ele>79</ele>
        <time>2020-12-31T11:18:24Z</time>
      </trkpt>
      <trkpt lat="43.63948" lon="3.82819">
        <ele>83</ele>
        <time>2020-12-31T11:18:25Z</time>
      </trkpt>
      <trkpt lat="43.63952" lon="3.82817">
        <ele>79.3</ele>
        <time>2020-12-31T11:18:26Z</time>
      </trkpt>
      <trkpt lat="43.63956" lon="3.82815">
        <ele>79.4</ele>
        <time>2020-12-31T11:18:27Z</time>
      </trkpt>
      <trkpt lat="43.6396" lon="3.82812">
        <ele>79.6</ele>
        <time>2020-12-31T11:18:28Z</time>
      </trkpt>
      <trkpt lat="43.63963" lon="3.82809">
        <ele>79.7</ele>
        <time>2020-12-31T11:18:29Z</time>
      </trkpt>
      <trkpt lat="43.63966" lon="3.82807">
        <ele>79.8</ele>
        <time>2020-12-31T11:18:30Z</time>
      </trkpt>
      <trkpt lat="43.63969" lon="3.82805">
        <ele>79.9</ele>
        <time>2020-12-31T11:18:31Z</time>
      </trkpt>
      <trkpt lat="43.63972" lon="3.82803">
        <ele>80.1</ele>
        <time>2020-12-31T11:18:32Z</time>
      </trkpt>
      <trkpt lat="43.63976" lon="3.82801">
        <ele>80.3</ele>
        <time>2020-12-31T11:18:33Z</time>
      </trkpt>
      <trkpt lat="43.6398" lon="3.828">
        <ele>80.6</ele>
        <time>2020-12-31T11:18:34Z</time>
      </trkpt>
      <trkpt lat="43.63984" lon="3.82799">
        <ele>85</ele>
        <time>2020-12-31T11:18:35Z</time>
      </trkpt>
      <trkpt lat="43.63987" lon="3.82799">
        <ele>81</ele>
        <time>2020-12-31T11:18:36Z</time>
      </trkpt>
      <trkpt lat="43.63992" lon="3.82799">
        <ele>81.3</ele>
        <time>2020-12-31T11:18:38Z</time>
      </trkpt>
      <trkpt lat="43.63996" lon="3.82798">
        <ele>81.6</ele>
        <time>2020-12-31T11:18:39Z</time>
      </trkpt>
      <trkpt lat="43.63999" lon="3.82797">
        <ele>81.9</ele>
        <time>2020-12-31T11:18:40Z</time>
      </trkpt>
      <trkpt lat="43.64002" lon="3.82797">
        <ele>82</ele>
        <time>2020-12-31T11:18:41Z</time>
      </trkpt>
      <trkpt lat="43.64009" lon="3.82795">
        <ele>82.2</ele>
        <time>2020-12-31T11:18:42Z</time>
      </trkpt>
      <trkpt lat="43.64012" lon="3.82793">
        <ele>82.4</ele>
        <time>2020-12-31T11:18:44Z</time>
      </trkpt>
      <trkpt lat="43.64016" lon="3.82785">
        <ele>88</ele>
        <time>2020-12-31T11:18:45Z</time>
      </trkpt>
      <trkpt lat="43.64017" lon="3.8278">
        <ele>83.2</ele>
        <time>2020-12-31T11:18:47Z</time>
      </trkpt>
      <trkpt lat="43.64022" lon="3.82771">
        <ele>83.6</ele>
        <time>2020-12-31T11:18:48Z</time>
      </trkpt>
      <trkpt lat="43.64026" lon="3.82763">
        <ele>84.1</ele>
        <time>2020-12-31T11:18:50Z</time>
      </trkpt>
      <trkpt lat="43.64029" lon="3.82759">
        <ele>84.4</ele>
        <time>2020-12-31T11:18:51Z</time>
      </trkpt>
      <trkpt lat="43.64031" lon="3.82754">
        <ele>84.7</ele>
        <time>2020-12-31T11:18:52Z</time>
      </trkpt>
      <trkpt lat="43.64033" lon="3.82749">
        <ele>85</ele>
        <time>2020-12-31T11:18:53Z</time>
      </trkpt>
      <trkpt lat="43.64034" lon="3.82744">
        <ele>85.2</ele>
        <time>2020-12-31T11:18:54Z</time>
      </trkpt>
      <trkpt lat="43.64036" lon="3.82739">
        <ele>89</ele>
        <time>2020-12-31T11:18:55Z</time>
      </trkpt>
      <trkpt lat="43.64038" lon="3.82735">
        <ele>85.5</ele>
        <time>2020-12-31T11:18:56Z</time>
      </trkpt>
      <trkpt lat="43.64041" lon="3.82732">
        <ele>85.6</ele>
        <time>2020-12-31T11:18:57Z</time>
      </trkpt>
      <trkpt lat="43.64043" lon="3.82728">
        <ele>85.8</ele>
        <time>2020-12-31T11:18:58Z</time>
      </trkpt>
      <trkpt lat="43.64045" lon="3.82724">
        <ele>85.9</ele>
        <time>2020-12-31T11:18:59Z</time>
      </trkpt>
      <trkpt lat="43.64047" lon="3.8272">
        <ele>86.1</ele>
        <time>2020-12-31T11:19:00Z</time>
      </trkpt>
      <trkpt lat="43.64049" lon="3.82717">
        <ele>86.3</ele>
        <time>2020-12-31T11:19:01Z</time>
      </trkpt>
      <trkpt lat="43.6405" lon="3.82713">
        <ele>86.6</ele>
        <time>2020-12-31T11:19:02Z</time>
      </trkpt>
      <trkpt lat="43.64052" lon="3.8271">
        <ele>86.8</ele>
        <time>2020-12-31T11:19:04Z</time>
      </trkpt>
      <trkpt lat="43.64054" lon="3.82707">
        <ele>90</ele>
        <time>2020-12-31T11:19:05Z</time>
      </trkpt>
      <trkpt lat="43.64056" lon="3.82704">
        <ele>87.3</ele>
        <time>2020-12-31T11:19:06Z</time>
      </trkpt>
      <trkpt lat="43.64057" lon="3.82701">
        <ele>87.5</ele>
        <time>2020-12-31T11:19:07Z</time>
      </trkpt>
      <trkpt lat="43.64059" lon="3.82697">
        <ele>87.8</ele>
        <time>2020-12-31T11:19:08Z</time>
      </trkpt>
      <trkpt lat="43.64059" lon="3.82694">
        <ele>88</ele>
        <time>2020-12-31T11:19:09Z</time>
      </trkpt>
      <trkpt lat="43.6406" lon="3.8269">
        <ele>88.2</ele>
        <time>2020-12-31T11:19:10Z</time>
      </trkpt>
      <trkpt lat="43.64061" lon="3.82686">
        <ele>88.4</ele>
        <time>2020-12-31T11:19:11Z</time>
      </trkpt>
      <trkpt lat="43.64062" lon="3.82682">
        <ele>88.6</ele>
        <time>2020-12-31T11:19:12Z</time>
      </trkpt>
      <trkpt lat="43.64063" lon="3.82678">
        <ele>88.8</ele>
        <time>2020-12-31T11:19:13Z</time>
      </trkpt>
      <trkpt lat="43.64064" lon="3.82675">
        <ele>88.9</ele>
        <time>2020-12-31T11:19:14Z</time>
      </trkpt>
      <trkpt lat="43.64067" lon="3.82669">
        <ele>92</ele>
        <time>2020-12-31T11:19:15Z</time>
      </trkpt>
      <trkpt lat="43.64069" lon="3.82666">
        <ele>89.5</ele>
        <time>2020-12-31T11:19:17Z</time>
      </trkpt>
      <trkpt lat="43.6407" lon="3.82663">
        <ele>89.7</ele>
        <time>2020-12-31T11:19:18Z</time>
      </trkpt>
      <trkpt lat="43.64072" lon="3.82659">
        <ele>90</ele>
        <time>2020-12-31T11:19:19Z</time>
      </trkpt>
      <trkpt lat="43.64073" lon="3.82656">
        <ele>90.2</ele>
        <time>2020-12-31T11:19:20Z</time>
      </trkpt>
      <trkpt lat="43.64076" lon="3.82651">
        <ele>90.4</ele>
        <time>2020-12-31T11:19:21Z</time>
      </trkpt>
      <trkpt lat="43.64077" lon="3.82648">
        <ele>90.6</ele>
        <time>2020-12-31T11:19:22Z</time>
      </trkpt>
      <trkpt lat="43.64079" lon="3.82645">
        <ele>90.7</ele>
        <time>2020-12-31T11:19:23Z</time>
      </trkpt>
      <trkpt lat="43.64079" lon="3.82641">
        <ele>90.9</ele>
        <time>2020-12-31T11:19:24Z</time>
      </trkpt>
      <trkpt lat="43.6408" lon="3.82638">
        <ele>94</ele>
        <time>2020-12-31T11:19:25Z</time>
      </trkpt>
      <trkpt lat="43.64081" lon="3.82635">
        <ele>91.3</ele>
        <time>2020-12-31T11:19:26Z</time>
      </trkpt>
      <trkpt lat="43.64081" lon="3.82631">
        <ele>91.5</ele>
        <time>2020-12-31T11:19:27Z</time>
      </trkpt>
      <trkpt lat="43.64081" lon="3.82628">
        <ele>91.7</ele>
        <time>2020-12-31T11:19:28Z</time>
      </trkpt>
      <trkpt lat="43.64082" lon="3.82625">
        <ele>92</ele>
        <time>2020-12-31T11:19:29Z</time>
      </trkpt>
      <trkpt lat="43.64082" lon="3.82622">
        <ele>92.2</ele>
        <time>2020-12-31T11:19:30Z</time>
      </trkpt>
      <trkpt lat="43.64083" lon="3.82618">
        <ele>92.5</ele>
        <time>2020-12-31T11:19:31Z</time>
      </trkpt>
      <trkpt lat="43.64083" lon="3.82615">
        <ele>92.7</ele>
        <time>2020-12-31T11:19:32Z</time>
      </trkpt>
      <trkpt lat="43.64084" lon="3.82611">
        <ele>93</ele>
        <time>2020-12-31T11:19:33Z</time>
      </trkpt>
      <trkpt lat="43.64084" lon="3.82608">
        <ele>93.1</ele>
        <time>2020-12-31T11:19:34Z</time>
      </trkpt>
      <trkpt lat="43.64085" lon="3.82604">
        <ele>95</ele>
        <time>2020-12-31T11:19:35Z</time>
      </trkpt>
      <trkpt lat="43.64086" lon="3.82601">
        <ele>93.4</ele>
        <time>2020-12-31T11:19:36Z</time>
      </trkpt>
      <trkpt lat="43.64087" lon="3.82598">
        <ele>93.5</ele>
        <time>2020-12-31T11:19:37Z</time>
      </trkpt>
      <trkpt lat="43.64089" lon="3.82595">
        <ele>93.6</ele>
        <time>2020-12-31T11:19:38Z</time>
      </trkpt>
      <trkpt lat="43.6409" lon="3.82591">
        <ele>93.7</ele>
        <time>2020-12-31T11:19:40Z</time>
      </trkpt>
      <trkpt lat="43.64092" lon="3.82584">
        <ele>94</ele>
        <time>2020-12-31T11:19:41Z</time>
      </trkpt>
      <trkpt lat="43.64093" lon="3.82581">
        <ele>94</ele>
        <time>2020-12-31T11:19:42Z</time>
      </trkpt>
      <trkpt lat="43.64095" lon="3.82578">
        <ele>94.1</ele>
        <time>2020-12-31T11:19:43Z</time>
      </trkpt>
      <trkpt lat="43.64097" lon="3.82575">
        <ele>94.1</ele>
        <time>2020-12-31T11:19:44Z</time>
      </trkpt>
      <trkpt lat="43.64098" lon="3.82572">
        <ele>96</ele>
        <time>2020-12-31T11:19:45Z</time>
      </trkpt>
      <trkpt lat="43.64101" lon="3.82565">
        <ele>94.4</ele>
        <time>2020-12-31T11:19:47Z</time>
      </trkpt>
      <trkpt lat="43.64102" lon="3.82562">
        <ele>94.5</ele>
        <time>2020-12-31T11:19:48Z</time>
      </trkpt>
      <trkpt lat="43.64104" lon="3.82559">
        <ele>94.7</ele>
        <time>2020-12-31T11:19:49Z</time>
      </trkpt>
      <trkpt lat="43.64105" lon="3.82556">
        <ele>94.8</ele>
        <time>2020-12-31T11:19:50Z</time>
      </trkpt>
      <trkpt lat="43.64106" lon="3.82553">
        <ele>94.9</ele>
        <time>2020-12-31T11:19:51Z</time>
      </trkpt>
      <trkpt lat="43.64107" lon="3.8255">
        <ele>95.1</ele>
        <time>2020-12-31T11:19:52Z</time>
      </trkpt>
      <trkpt lat="43.64107" lon="3.82547">
        <ele>95.2</ele>
        <time>2020-12-31T11:19:53Z</time>
      </trkpt>
      <trkpt lat="43.64108" lon="3.82544">
        <ele>95.3</ele>
        <time>2020-12-31T11:19:54Z</time>
      </trkpt>
      <trkpt lat="43.6411" lon="3.82537">
        <ele>95.6</ele>
        <time>2020-12-31T11:19:56Z</time>
      </trkpt>
      <trkpt lat="43.64111" lon="3.82534">
        <ele>95.8</ele>
        <time>2020-12-31T11:19:58Z</time>
      </trkpt>
      <trkpt lat="43.64113" lon="3.82529">
        <ele>96</ele>
        <time>2020-12-31T11:19:59Z</time>
      </trkpt>
      <trkpt lat="43.64115" lon="3.82526">
        <ele>96.1</ele>
        <time>2020-12-31T11:20:01Z</time>
      </trkpt>
      <trkpt lat="43.64116" lon="3.82523">
        <ele>96.2</ele>
        <time>2020-12-31T11:20:02Z</time>
      </trkpt>
      <trkpt lat="43.64117" lon="3.8252">
        <ele>96.3</ele>
        <time>2020-12-31T11:20:03Z</time>
      </trkpt>
      <trkpt lat="43.64118" lon="3.82517">
        <ele>96.4</ele>
        <time>2020-12-31T11:20:04Z</time>
      </trkpt>
      <trkpt lat="43.64121" lon="3.82511">
        <ele>100</ele>
        <time>2020-12-31T11:20:05Z</time>
      </trkpt>
      <trkpt lat="43.64123" lon="3.82508">
        <ele>96.7</ele>
        <time>2020-12-31T11:20:06Z</time>
      </trkpt>
      <trkpt lat="43.64125" lon="3.82505">
        <ele>96.8</ele>
        <time>2020-12-31T11:20:07Z</time>
      </trkpt>
      <trkpt lat="43.64127" lon="3.82502">
        <ele>96.9</ele>
        <time>2020-12-31T11:20:08Z</time>
      </trkpt>
      <trkpt lat="43.64129" lon="3.82499">
        <ele>97</ele>
        <time>2020-12-31T11:20:09Z</time>
      </trkpt>
      <trkpt lat="43.64131" lon="3.82496">
        <ele>97.2</ele>
        <time>2020-12-31T11:20:10Z</time>
      </trkpt>
      <trkpt lat="43.64133" lon="3.82493">
        <ele>97.4</ele>
        <time>2020-12-31T11:20:11Z</time>
      </trkpt>
      <trkpt lat="43.64134" lon="3.82489">
        <ele>97.7</ele>
        <time>2020-12-31T11:20:12Z</time>
      </trkpt>
      <trkpt lat="43.64135" lon="3.82486">
        <ele>97.9</ele>
        <time>2020-12-31T11:20:13Z</time>
      </trkpt>
      <trkpt lat="43.64135" lon="3.82482">
        <ele>98.1</ele>
        <time>2020-12-31T11:20:14Z</time>
      </trkpt>
      <trkpt lat="43.64136" lon="3.82479">
        <ele>98.4</ele>
        <time>2020-12-31T11:20:16Z</time>
      </trkpt>
      <trkpt lat="43.64137" lon="3.82476">
        <ele>98.6</ele>
        <time>2020-12-31T11:20:17Z</time>
      </trkpt>
      <trkpt lat="43.64138" lon="3.8247">
        <ele>98.9</ele>
        <time>2020-12-31T11:20:18Z</time>
      </trkpt>
      <trkpt lat="43.6414" lon="3.82466">
        <ele>99</ele>
        <time>2020-12-31T11:20:19Z</time>
      </trkpt>
      <trkpt lat="43.64141" lon="3.82463">
        <ele>99</ele>
        <time>2020-12-31T11:20:20Z</time>
      </trkpt>
      <trkpt lat="43.64143" lon="3.82459">
        <ele>99.1</ele>
        <time>2020-12-31T11:20:21Z</time>
      </trkpt>
      <trkpt lat="43.64144" lon="3.82455">
        <ele>99.1</ele>
        <time>2020-12-31T11:20:22Z</time>
      </trkpt>
      <trkpt lat="43.64145" lon="3.82451">
        <ele>99.2</ele>
        <time>2020-12-31T11:20:23Z</time>
      </trkpt>
      <trkpt lat="43.64145" lon="3.82446">
        <ele>101</ele>
        <time>2020-12-31T11:20:25Z</time>
      </trkpt>
      <trkpt lat="43.64145" lon="3.82438">
        <ele>99.5</ele>
        <time>2020-12-31T11:20:26Z</time>
      </trkpt>
      <trkpt lat="43.64147" lon="3.82435">
        <ele>99.6</ele>
        <time>2020-12-31T11:20:27Z</time>
      </trkpt>
      <trkpt lat="43.64149" lon="3.82431">
        <ele>99.8</ele>
        <time>2020-12-31T11:20:28Z</time>
      </trkpt>
      <trkpt lat="43.64149" lon="3.82428">
        <ele>100</ele>
        <time>2020-12-31T11:20:30Z</time>
      </trkpt>
      <trkpt lat="43.64149" lon="3.82424">
        <ele>100.1</ele>
        <time>2020-12-31T11:20:31Z</time>
      </trkpt>
      <trkpt lat="43.64148" lon="3.8242">
        <ele>100.2</ele>
        <time>2020-12-31T11:20:32Z</time>
      </trkpt>
      <trkpt lat="43.64149" lon="3.82416">
        <ele>100.4</ele>
        <time>2020-12-31T11:20:33Z</time>
      </trkpt>
      <trkpt lat="43.64151" lon="3.82412">
        <ele>100.5</ele>
        <time>2020-12-31T11:20:34Z</time>
      </trkpt>
      <trkpt lat="43.64154" lon="3.82405">
        <ele>103</ele>
        <time>2020-12-31T11:20:35Z</time>
      </trkpt>
      <trkpt lat="43.64156" lon="3.82402">
        <ele>100.9</ele>
        <time>2020-12-31T11:20:37Z</time>
      </trkpt>
      <trkpt lat="43.64157" lon="3.82398">
        <ele>101.1</ele>
        <time>2020-12-31T11:20:38Z</time>
      </trkpt>
      <trkpt lat="43.64159" lon="3.82395">
        <ele>101.3</ele>
        <time>2020-12-31T11:20:39Z</time>
      </trkpt>
      <trkpt lat="43.6416" lon="3.82392">
        <ele>101.4</ele>
        <time>2020-12-31T11:20:40Z</time>
      </trkpt>
      <trkpt lat="43.64161" lon="3.82388">
        <ele>101.6</ele>
        <time>2020-12-31T11:20:41Z</time>
      </trkpt>
      <trkpt lat="43.64162" lon="3.82385">
        <ele>101.8</ele>
        <time>2020-12-31T11:20:42Z</time>
      </trkpt>
      <trkpt lat="43.64165" lon="3.82378">
        <ele>102.3</ele>
        <time>2020-12-31T11:20:43Z</time>
      </trkpt>
      <trkpt lat="43.64167" lon="3.82375">
        <ele>104</ele>
        <time>2020-12-31T11:20:45Z</time>
      </trkpt>
      <trkpt lat="43.64169" lon="3.82373">
        <ele>102.6</ele>
        <time>2020-12-31T11:20:46Z</time>
      </trkpt>
      <trkpt lat="43.64171" lon="3.82372">
        <ele>102.6</ele>
        <time>2020-12-31T11:20:47Z</time>
      </trkpt>
      <trkpt lat="43.64173" lon="3.82372">
        <ele>102.6</ele>
        <time>2020-12-31T11:20:48Z</time>
      </trkpt>
      <trkpt lat="43.64175" lon="3.82368">
        <ele>102.8</ele>
        <time>2020-12-31T11:20:50Z</time>
      </trkpt>
      <trkpt lat="43.64176" lon="3.82365">
        <ele>102.9</ele>
        <time>2020-12-31T11:20:51Z</time>
      </trkpt>
      <trkpt lat="43.64177" lon="3.82362">
        <ele>103</ele>
        <time>2020-12-31T11:20:52Z</time>
      </trkpt>
      <trkpt lat="43.64179" lon="3.82355">
        <ele>102.9</ele>
        <time>2020-12-31T11:20:53Z</time>
      </trkpt>
      <trkpt lat="43.6418" lon="3.82352">
        <ele>105</ele>
        <time>2020-12-31T11:20:55Z</time>
      </trkpt>
      <trkpt lat="43.6418" lon="3.82347">
        <ele>102.7</ele>
        <time>2020-12-31T11:20:56Z</time>
      </trkpt>
      <trkpt lat="43.64181" lon="3.82343">
        <ele>102.7</ele>
        <time>2020-12-31T11:20:57Z</time>
      </trkpt>
      <trkpt lat="43.64182" lon="3.82338">
        <ele>102.6</ele>
        <time>2020-12-31T11:20:58Z</time>
      </trkpt>
      <trkpt lat="43.64183" lon="3.82334">
        <ele>102.6</ele>
        <time>2020-12-31T11:20:59Z</time>
      </trkpt>
      <trkpt lat="43.64185" lon="3.8233">
        <ele>102.6</ele>
        <time>2020-12-31T11:21:00Z</time>
      </trkpt>
      <trkpt lat="43.6419" lon="3.82322">
        <ele>102.5</ele>
        <time>2020-12-31T11:21:01Z</time>
      </trkpt>
      <trkpt lat="43.64194" lon="3.82318">
        <ele>102.4</ele>
        <time>2020-12-31T11:21:02Z</time>
      </trkpt>
      <trkpt lat="43.64198" lon="3.82315">
        <ele>102.3</ele>
        <time>2020-12-31T11:21:03Z</time>
      </trkpt>
      <trkpt lat="43.64202" lon="3.82312">
        <ele>102.1</ele>
        <time>2020-12-31T11:21:04Z</time>
      </trkpt>
      <trkpt lat="43.64206" lon="3.82309">
        <ele>106</ele>
        <time>2020-12-31T11:21:05Z</time>
      </trkpt>
      <trkpt lat="43.64211" lon="3.82307">
        <ele>102</ele>
        <time>2020-12-31T11:21:06Z</time>
      </trkpt>
      <trkpt lat="43.64215" lon="3.82305">
        <ele>102</ele>
        <time>2020-12-31T11:21:07Z</time>
      </trkpt>
      <trkpt lat="43.64218" lon="3.82304">
        <ele>102</ele>
        <time>2020-12-31T11:21:08Z</time>
      </trkpt>
      <trkpt lat="43.64222" lon="3.82304">
        <ele>102.1</ele>
        <time>2020-12-31T11:21:10Z</time>
      </trkpt>
      <trkpt lat="43.64226" lon="3.82304">
        <ele>101.8</ele>
        <time>2020-12-31T11:21:11Z</time>
      </trkpt>
      <trkpt lat="43.6423" lon="3.82304">
        <ele>101.5</ele>
        <time>2020-12-31T11:21:12Z</time>
      </trkpt>
      <trkpt lat="43.64235" lon="3.82304">
        <ele>101.2</ele>
        <time>2020-12-31T11:21:13Z</time>
      </trkpt>
      <trkpt lat="43.64239" lon="3.82305">
        <ele>100.8</ele>
        <time>2020-12-31T11:21:14Z</time>
      </trkpt>
      <trkpt lat="43.64242" lon="3.82305">
        <ele>107</ele>
        <time>2020-12-31T11:21:15Z</time>
      </trkpt>
      <trkpt lat="43.64245" lon="3.82305">
        <ele>100.4</ele>
        <time>2020-12-31T11:21:16Z</time>
      </trkpt>
      <trkpt lat="43.64248" lon="3.82305">
        <ele>100.2</ele>
        <time>2020-12-31T11:21:17Z</time>
      </trkpt>
      <trkpt lat="43.64252" lon="3.82305">
        <ele>100</ele>
        <time>2020-12-31T11:21:18Z</time>
      </trkpt>
      <trkpt lat="43.64256" lon="3.82306">
        <ele>99.8</ele>
        <time>2020-12-31T11:21:19Z</time>
      </trkpt>
      <trkpt lat="43.64261" lon="3.82308">
        <ele>99.6</ele>
        <time>2020-12-31T11:21:20Z</time>
      </trkpt>
      <trkpt lat="43.64266" lon="3.82311">
        <ele>99.3</ele>
        <time>2020-12-31T11:21:21Z</time>
      </trkpt>
      <trkpt lat="43.6427" lon="3.82314">
        <ele>99.1</ele>
        <time>2020-12-31T11:21:22Z</time>
      </trkpt>
      <trkpt lat="43.64275" lon="3.82315">
        <ele>98.8</ele>
        <time>2020-12-31T11:21:23Z</time>
      </trkpt>
      <trkpt lat="43.6428" lon="3.82314">
        <ele>98.6</ele>
        <time>2020-12-31T11:21:24Z</time>
      </trkpt>
      <trkpt lat="43.64285" lon="3.82311">
        <ele>107</ele>
        <time>2020-12-31T11:21:25Z</time>
      </trkpt>
      <trkpt lat="43.64293" lon="3.82302">
        <ele>98.8</ele>
        <time>2020-12-31T11:21:26Z</time>
      </trkpt>
      <trkpt lat="43.64297" lon="3.82298">
        <ele>98.9</ele>
        <time>2020-12-31T11:21:27Z</time>
      </trkpt>
      <trkpt lat="43.64301" lon="3.82298">
        <ele>98.8</ele>
        <time>2020-12-31T11:21:28Z</time>
      </trkpt>
      <trkpt lat="43.64306" lon="3.82299">
        <ele>98.5</ele>
        <time>2020-12-31T11:21:29Z</time>
      </trkpt>
      <trkpt lat="43.64312" lon="3.82299">
        <ele>98.4</ele>
        <time>2020-12-31T11:21:30Z</time>
      </trkpt>
      <trkpt lat="43.64317" lon="3.82297">
        <ele>98.5</ele>
        <time>2020-12-31T11:21:31Z</time>
      </trkpt>
      <trkpt lat="43.64322" lon="3.82295">
        <ele>98.5</ele>
        <time>2020-12-31T11:21:32Z</time>
      </trkpt>
      <trkpt lat="43.64327" lon="3.82294">
        <ele>98.5</ele>
        <time>2020-12-31T11:21:33Z</time>
      </trkpt>
      <trkpt lat="43.64331" lon="3.82293">
        <ele>105</ele>
        <time>2020-12-31T11:21:35Z</time>
      </trkpt>
      <trkpt lat="43.64336" lon="3.82291">
        <ele>98.4</ele>
        <time>2020-12-31T11:21:36Z</time>
      </trkpt>
      <trkpt lat="43.6434" lon="3.82289">
        <ele>98.4</ele>
        <time>2020-12-31T11:21:37Z</time>
      </trkpt>
      <trkpt lat="43.64342" lon="3.82288">
        <ele>98.3</ele>
        <time>2020-12-31T11:21:38Z</time>
      </trkpt>
      <trkpt lat="43.64345" lon="3.82286">
        <ele>98.3</ele>
        <time>2020-12-31T11:21:39Z</time>
      </trkpt>
      <trkpt lat="43.64348" lon="3.82282">
        <ele>98.3</ele>
        <time>2020-12-31T11:21:40Z</time>
      </trkpt>
      <trkpt lat="43.64347" lon="3.82279">
        <ele>98.5</ele>
        <time>2020-12-31T11:21:44Z</time>
      </trkpt>
      <trkpt lat="43.64346" lon="3.82277">
        <ele>104</ele>
        <time>2020-12-31T11:22:07Z</time>
      </trkpt>
      <trkpt lat="43.64346" lon="3.82277">
        <ele>104</ele>
        <time>2020-12-31T11:22:11Z</time>
      </trkpt>
      <trkpt lat="43.64348" lon="3.8227">
        <ele>104</ele>
        <time>2020-12-31T11:23:21Z</time>
      </trkpt>
      <trkpt lat="43.6435" lon="3.82267">
        <ele>98.6</ele>
        <time>2020-12-31T11:23:22Z</time>
      </trkpt>
      <trkpt lat="43.64353" lon="3.82264">
        <ele>98.4</ele>
        <time>2020-12-31T11:23:23Z</time>
      </trkpt>
      <trkpt lat="43.64356" lon="3.82263">
        <ele>98.3</ele>
        <time>2020-12-31T11:23:24Z</time>
      </trkpt>
      <trkpt lat="43.64365" lon="3.82264">
        <ele>98</ele>
        <time>2020-12-31T11:23:25Z</time>
      </trkpt>
      <trkpt lat="43.64368" lon="3.82263">
        <ele>98</ele>
        <time>2020-12-31T11:23:26Z</time>
      </trkpt>
      <trkpt lat="43.64371" lon="3.82259">
        <ele>98</ele>
        <time>2020-12-31T11:23:27Z</time>
      </trkpt>
      <trkpt lat="43.64374" lon="3.82256">
        <ele>98</ele>
        <time>2020-12-31T11:23:28Z</time>
      </trkpt>
      <trkpt lat="43.64378" lon="3.82256">
        <ele>98</ele>
        <time>2020-12-31T11:23:29Z</time>
      </trkpt>
      <trkpt lat="43.64382" lon="3.82256">
        <ele>98</ele>
        <time>2020-12-31T11:23:30Z</time>
      </trkpt>
      <trkpt lat="43.64386" lon="3.82256">
        <ele>103</ele>
        <time>2020-12-31T11:23:31Z</time>
      </trkpt>
      <trkpt lat="43.6439" lon="3.82254">
        <ele>98</ele>
        <time>2020-12-31T11:23:32Z</time>
      </trkpt>
      <trkpt lat="43.64394" lon="3.82252">
        <ele>98</ele>
        <time>2020-12-31T11:23:33Z</time>
      </trkpt>
      <trkpt lat="43.64398" lon="3.8225">
        <ele>98</ele>
        <time>2020-12-31T11:23:34Z</time>
      </trkpt>
      <trkpt lat="43.64402" lon="3.82248">
        <ele>98</ele>
        <time>2020-12-31T11:23:35Z</time>
      </trkpt>
      <trkpt lat="43.64406" lon="3.82246">
        <ele>98</ele>
        <time>2020-12-31T11:23:36Z</time>
      </trkpt>
      <trkpt lat="43.64409" lon="3.82243">
        <ele>98</ele>
        <time>2020-12-31T11:23:37Z</time>
      </trkpt>
      <trkpt lat="43.64413" lon="3.82239">
        <ele>98</ele>
        <time>2020-12-31T11:23:38Z</time>
      </trkpt>
      <trkpt lat="43.64416" lon="3.82235">
        <ele>98</ele>
        <time>2020-12-31T11:23:39Z</time>
      </trkpt>
      <trkpt lat="43.64421" lon="3.82234">
        <ele>98</ele>
        <time>2020-12-31T11:23:40Z</time>
      </trkpt>
      <trkpt lat="43.64424" lon="3.82237">
        <ele>103</ele>
        <time>2020-12-31T11:23:41Z</time>
      </trkpt>
      <trkpt lat="43.64427" lon="3.82241">
        <ele>98</ele>
        <time>2020-12-31T11:23:42Z</time>
      </trkpt>
      <trkpt lat="43.64429" lon="3.82245">
        <ele>98</ele>
        <time>2020-12-31T11:23:43Z</time>
      </trkpt>
      <trkpt lat="43.64432" lon="3.82249">
        <ele>98</ele>
        <time>2020-12-31T11:23:44Z</time>
      </trkpt>
      <trkpt lat="43.64435" lon="3.82253">
        <ele>98.1</ele>
        <time>2020-12-31T11:23:45Z</time>
      </trkpt>
      <trkpt lat="43.64439" lon="3.82256">
        <ele>98.1</ele>
        <time>2020-12-31T11:23:46Z</time>
      </trkpt>
      <trkpt lat="43.64442" lon="3.82259">
        <ele>98.1</ele>
        <time>2020-12-31T11:23:47Z</time>
      </trkpt>
      <trkpt lat="43.64446" lon="3.82262">
        <ele>98</ele>
        <time>2020-12-31T11:23:48Z</time>
      </trkpt>
      <trkpt lat="43.6445" lon="3.82266">
        <ele>98</ele>
        <time>2020-12-31T11:23:49Z</time>
      </trkpt>
      <trkpt lat="43.64453" lon="3.82269">
        <ele>98</ele>
        <time>2020-12-31T11:23:50Z</time>
      </trkpt>
      <trkpt lat="43.64457" lon="3.82271">
        <ele>102</ele>
        <time>2020-12-31T11:23:51Z</time>
      </trkpt>
      <trkpt lat="43.64462" lon="3.82273">
        <ele>98</ele>
        <time>2020-12-31T11:23:52Z</time>
      </trkpt>
      <trkpt lat="43.64467" lon="3.82275">
        <ele>98</ele>
        <time>2020-12-31T11:23:53Z</time>
      </trkpt>
      <trkpt lat="43.64471" lon="3.82277">
        <ele>98</ele>
        <time>2020-12-31T11:23:55Z</time>
      </trkpt>
      <trkpt lat="43.6448" lon="3.82281">
        <ele>98.1</ele>
        <time>2020-12-31T11:23:56Z</time>
      </trkpt>
      <trkpt lat="43.64484" lon="3.82283">
        <ele>98.2</ele>
        <time>2020-12-31T11:23:58Z</time>
      </trkpt>
      <trkpt lat="43.64492" lon="3.82287">
        <ele>98.5</ele>
        <time>2020-12-31T11:23:59Z</time>
      </trkpt>
      <trkpt lat="43.64496" lon="3.8229">
        <ele>98.8</ele>
        <time>2020-12-31T11:24:00Z</time>
      </trkpt>
      <trkpt lat="43.645" lon="3.82293">
        <ele>99.1</ele>
        <time>2020-12-31T11:24:02Z</time>
      </trkpt>
      <trkpt lat="43.64502" lon="3.82296">
        <ele>99.5</ele>
        <time>2020-12-31T11:24:03Z</time>
      </trkpt>
      <trkpt lat="43.64505" lon="3.82299">
        <ele>99.9</ele>
        <time>2020-12-31T11:24:04Z</time>
      </trkpt>
      <trkpt lat="43.64508" lon="3.823">
        <ele>100.1</ele>
        <time>2020-12-31T11:24:05Z</time>
      </trkpt>
      <trkpt lat="43.6451" lon="3.82302">
        <ele>100.3</ele>
        <time>2020-12-31T11:24:06Z</time>
      </trkpt>
      <trkpt lat="43.64514" lon="3.82303">
        <ele>100.5</ele>
        <time>2020-12-31T11:24:07Z</time>
      </trkpt>
      <trkpt lat="43.64517" lon="3.82304">
        <ele>100.6</ele>
        <time>2020-12-31T11:24:08Z</time>
      </trkpt>
      <trkpt lat="43.6452" lon="3.82304">
        <ele>100.8</ele>
        <time>2020-12-31T11:24:09Z</time>
      </trkpt>
      <trkpt lat="43.64524" lon="3.82305">
        <ele>100.9</ele>
        <time>2020-12-31T11:24:10Z</time>
      </trkpt>
      <trkpt lat="43.64527" lon="3.82306">
        <ele>102</ele>
        <time>2020-12-31T11:24:11Z</time>
      </trkpt>
      <trkpt lat="43.64534" lon="3.82307">
        <ele>101.2</ele>
        <time>2020-12-31T11:24:12Z</time>
      </trkpt>
      <trkpt lat="43.64538" lon="3.82308">
        <ele>101.2</ele>
        <time>2020-12-31T11:24:13Z</time>
      </trkpt>
      <trkpt lat="43.64541" lon="3.82308">
        <ele>101.3</ele>
        <time>2020-12-31T11:24:14Z</time>
      </trkpt>
      <trkpt lat="43.64545" lon="3.82309">
        <ele>101.4</ele>
        <time>2020-12-31T11:24:15Z</time>
      </trkpt>
      <trkpt lat="43.64549" lon="3.8231">
        <ele>101.5</ele>
        <time>2020-12-31T11:24:16Z</time>
      </trkpt>
      <trkpt lat="43.64553" lon="3.82311">
        <ele>101.5</ele>
        <time>2020-12-31T11:24:17Z</time>
      </trkpt>
      <trkpt lat="43.64557" lon="3.82312">
        <ele>101.5</ele>
        <time>2020-12-31T11:24:18Z</time>
      </trkpt>
      <trkpt lat="43.64562" lon="3.82313">
        <ele>101.5</ele>
        <time>2020-12-31T11:24:19Z</time>
      </trkpt>
      <trkpt lat="43.64566" lon="3.82315">
        <ele>101.3</ele>
        <time>2020-12-31T11:24:20Z</time>
      </trkpt>
      <trkpt lat="43.64571" lon="3.82317">
        <ele>102</ele>
        <time>2020-12-31T11:24:21Z</time>
      </trkpt>
      <trkpt lat="43.64575" lon="3.8232">
        <ele>101</ele>
        <time>2020-12-31T11:24:22Z</time>
      </trkpt>
      <trkpt lat="43.64579" lon="3.82324">
        <ele>100.7</ele>
        <time>2020-12-31T11:24:23Z</time>
      </trkpt>
      <trkpt lat="43.64584" lon="3.82327">
        <ele>100.5</ele>
        <time>2020-12-31T11:24:24Z</time>
      </trkpt>
      <trkpt lat="43.64587" lon="3.82331">
        <ele>100.2</ele>
        <time>2020-12-31T11:24:25Z</time>
      </trkpt>
      <trkpt lat="43.64595" lon="3.82338">
        <ele>100</ele>
        <time>2020-12-31T11:24:27Z</time>
      </trkpt>
      <trkpt lat="43.64599" lon="3.82341">
        <ele>100</ele>
        <time>2020-12-31T11:24:29Z</time>
      </trkpt>
      <trkpt lat="43.64603" lon="3.82345">
        <ele>100</ele>
        <time>2020-12-31T11:24:30Z</time>
      </trkpt>
      <trkpt lat="43.64606" lon="3.82348">
        <ele>102</ele>
        <time>2020-12-31T11:24:31Z</time>
      </trkpt>
      <trkpt lat="43.6461" lon="3.8235">
        <ele>100</ele>
        <time>2020-12-31T11:24:32Z</time>
      </trkpt>
      <trkpt lat="43.64614" lon="3.82353">
        <ele>99.9</ele>
        <time>2020-12-31T11:24:33Z</time>
      </trkpt>
      <trkpt lat="43.64618" lon="3.82355">
        <ele>99.9</ele>
        <time>2020-12-31T11:24:34Z</time>
      </trkpt>
      <trkpt lat="43.64622" lon="3.82358">
        <ele>99.9</ele>
        <time>2020-12-31T11:24:35Z</time>
      </trkpt>
      <trkpt lat="43.64626" lon="3.82361">
        <ele>100</ele>
        <time>2020-12-31T11:24:36Z</time>
      </trkpt>
      <trkpt lat="43.64635" lon="3.82367">
        <ele>100</ele>
        <time>2020-12-31T11:24:37Z</time>
      </trkpt>
      <trkpt lat="43.64639" lon="3.82371">
        <ele>100</ele>
        <time>2020-12-31T11:24:38Z</time>
      </trkpt>
      <trkpt lat="43.64644" lon="3.82374">
        <ele>100</ele>
        <time>2020-12-31T11:24:39Z</time>
      </trkpt>
      <trkpt lat="43.64648" lon="3.82377">
        <ele>100</ele>
        <time>2020-12-31T11:24:40Z</time>
      </trkpt>
      <trkpt lat="43.64652" lon="3.8238">
        <ele>102</ele>
        <time>2020-12-31T11:24:41Z</time>
      </trkpt>
      <trkpt lat="43.64656" lon="3.82384">
        <ele>100</ele>
        <time>2020-12-31T11:24:42Z</time>
      </trkpt>
      <trkpt lat="43.64661" lon="3.82387">
        <ele>100</ele>
        <time>2020-12-31T11:24:43Z</time>
      </trkpt>
      <trkpt lat="43.64665" lon="3.82391">
        <ele>100.1</ele>
        <time>2020-12-31T11:24:44Z</time>
      </trkpt>
      <trkpt lat="43.64669" lon="3.82394">
        <ele>100.3</ele>
        <time>2020-12-31T11:24:45Z</time>
      </trkpt>
      <trkpt lat="43.64673" lon="3.82397">
        <ele>100.5</ele>
        <time>2020-12-31T11:24:46Z</time>
      </trkpt>
      <trkpt lat="43.64678" lon="3.824">
        <ele>100.6</ele>
        <time>2020-12-31T11:24:47Z</time>
      </trkpt>
      <trkpt lat="43.64682" lon="3.82403">
        <ele>100.8</ele>
        <time>2020-12-31T11:24:48Z</time>
      </trkpt>
      <trkpt lat="43.64686" lon="3.82405">
        <ele>100.9</ele>
        <time>2020-12-31T11:24:49Z</time>
      </trkpt>
      <trkpt lat="43.64691" lon="3.82408">
        <ele>101</ele>
        <time>2020-12-31T11:24:50Z</time>
      </trkpt>
      <trkpt lat="43.64695" lon="3.82411">
        <ele>102</ele>
        <time>2020-12-31T11:24:51Z</time>
      </trkpt>
      <trkpt lat="43.64699" lon="3.82414">
        <ele>101</ele>
        <time>2020-12-31T11:24:52Z</time>
      </trkpt>
      <trkpt lat="43.64708" lon="3.82419">
        <ele>101</ele>
        <time>2020-12-31T11:24:54Z</time>
      </trkpt>
      <trkpt lat="43.64712" lon="3.82421">
        <ele>101.1</ele>
        <time>2020-12-31T11:24:55Z</time>
      </trkpt>
      <trkpt lat="43.64716" lon="3.82423">
        <ele>101.2</ele>
        <time>2020-12-31T11:24:56Z</time>
      </trkpt>
      <trkpt lat="43.64721" lon="3.82425">
        <ele>101.3</ele>
        <time>2020-12-31T11:24:57Z</time>
      </trkpt>
      <trkpt lat="43.64725" lon="3.82428">
        <ele>101.5</ele>
        <time>2020-12-31T11:24:59Z</time>
      </trkpt>
      <trkpt lat="43.64729" lon="3.8243">
        <ele>101.7</ele>
        <time>2020-12-31T11:25:00Z</time>
      </trkpt>
      <trkpt lat="43.64734" lon="3.82431">
        <ele>102</ele>
        <time>2020-12-31T11:25:01Z</time>
      </trkpt>
      <trkpt lat="43.64743" lon="3.82432">
        <ele>102.3</ele>
        <time>2020-12-31T11:25:02Z</time>
      </trkpt>
      <trkpt lat="43.64747" lon="3.82432">
        <ele>102.4</ele>
        <time>2020-12-31T11:25:03Z</time>
      </trkpt>
      <trkpt lat="43.64751" lon="3.82432">
        <ele>102.6</ele>
        <time>2020-12-31T11:25:04Z</time>
      </trkpt>
      <trkpt lat="43.64755" lon="3.82432">
        <ele>102.7</ele>
        <time>2020-12-31T11:25:05Z</time>
      </trkpt>
      <trkpt lat="43.64759" lon="3.82432">
        <ele>102.9</ele>
        <time>2020-12-31T11:25:06Z</time>
      </trkpt>
      <trkpt lat="43.64763" lon="3.82431">
        <ele>103</ele>
        <time>2020-12-31T11:25:07Z</time>
      </trkpt>
      <trkpt lat="43.64768" lon="3.8243">
        <ele>103.1</ele>
        <time>2020-12-31T11:25:08Z</time>
      </trkpt>
      <trkpt lat="43.64772" lon="3.82429">
        <ele>103.2</ele>
        <time>2020-12-31T11:25:10Z</time>
      </trkpt>
      <trkpt lat="43.64779" lon="3.82427">
        <ele>103</ele>
        <time>2020-12-31T11:25:11Z</time>
      </trkpt>
      <trkpt lat="43.64783" lon="3.82426">
        <ele>103.6</ele>
        <time>2020-12-31T11:25:13Z</time>
      </trkpt>
      <trkpt lat="43.64791" lon="3.82425">
        <ele>104.1</ele>
        <time>2020-12-31T11:25:14Z</time>
      </trkpt>
      <trkpt lat="43.64794" lon="3.82424">
        <ele>104.3</ele>
        <time>2020-12-31T11:25:16Z</time>
      </trkpt>
      <trkpt lat="43.64799" lon="3.82423">
        <ele>104.6</ele>
        <time>2020-12-31T11:25:17Z</time>
      </trkpt>
      <trkpt lat="43.64802" lon="3.82423">
        <ele>104.8</ele>
        <time>2020-12-31T11:25:19Z</time>
      </trkpt>
      <trkpt lat="43.64805" lon="3.82422">
        <ele>105</ele>
        <time>2020-12-31T11:25:20Z</time>
      </trkpt>
      <trkpt lat="43.64807" lon="3.82422">
        <ele>105</ele>
        <time>2020-12-31T11:25:21Z</time>
      </trkpt>
      <trkpt lat="43.6481" lon="3.82421">
        <ele>105</ele>
        <time>2020-12-31T11:25:22Z</time>
      </trkpt>
      <trkpt lat="43.64813" lon="3.82421">
        <ele>105</ele>
        <time>2020-12-31T11:25:23Z</time>
      </trkpt>
      <trkpt lat="43.64816" lon="3.8242">
        <ele>105</ele>
        <time>2020-12-31T11:25:24Z</time>
      </trkpt>
      <trkpt lat="43.64818" lon="3.8242">
        <ele>105.1</ele>
        <time>2020-12-31T11:25:25Z</time>
      </trkpt>
      <trkpt lat="43.64821" lon="3.82419">
        <ele>105</ele>
        <time>2020-12-31T11:25:26Z</time>
      </trkpt>
      <trkpt lat="43.64824" lon="3.82419">
        <ele>105.1</ele>
        <time>2020-12-31T11:25:27Z</time>
      </trkpt>
      <trkpt lat="43.64827" lon="3.82419">
        <ele>105.1</ele>
        <time>2020-12-31T11:25:28Z</time>
      </trkpt>
      <trkpt lat="43.6483" lon="3.82418">
        <ele>105</ele>
        <time>2020-12-31T11:25:29Z</time>
      </trkpt>
      <trkpt lat="43.64832" lon="3.82418">
        <ele>105</ele>
        <time>2020-12-31T11:25:30Z</time>
      </trkpt>
      <trkpt lat="43.64835" lon="3.82417">
        <ele>107</ele>
        <time>2020-12-31T11:25:31Z</time>
      </trkpt>
      <trkpt lat="43.64838" lon="3.82416">
        <ele>105.4</ele>
        <time>2020-12-31T11:25:32Z</time>
      </trkpt>
      <trkpt lat="43.64841" lon="3.82416">
        <ele>105.6</ele>
        <time>2020-12-31T11:25:33Z</time>
      </trkpt>
      <trkpt lat="43.64844" lon="3.82415">
        <ele>105.8</ele>
        <time>2020-12-31T11:25:34Z</time>
      </trkpt>
      <trkpt lat="43.64846" lon="3.82415">
        <ele>105.9</ele>
        <time>2020-12-31T11:25:35Z</time>
      </trkpt>
      <trkpt lat="43.64849" lon="3.82414">
        <ele>106.1</ele>
        <time>2020-12-31T11:25:36Z</time>
      </trkpt>
      <trkpt lat="43.64852" lon="3.82414">
        <ele>106.3</ele>
        <time>2020-12-31T11:25:37Z</time>
      </trkpt>
      <trkpt lat="43.64854" lon="3.82413">
        <ele>106.4</ele>
        <time>2020-12-31T11:25:38Z</time>
      </trkpt>
      <trkpt lat="43.64857" lon="3.82413">
        <ele>106.6</ele>
        <time>2020-12-31T11:25:39Z</time>
      </trkpt>
      <trkpt lat="43.64863" lon="3.82413">
        <ele>106.9</ele>
        <time>2020-12-31T11:25:40Z</time>
      </trkpt>
      <trkpt lat="43.64866" lon="3.82413">
        <ele>108</ele>
        <time>2020-12-31T11:25:41Z</time>
      </trkpt>
      <trkpt lat="43.64869" lon="3.82414">
        <ele>106.9</ele>
        <time>2020-12-31T11:25:42Z</time>
      </trkpt>
      <trkpt lat="43.64872" lon="3.82416">
        <ele>107</ele>
        <time>2020-12-31T11:25:43Z</time>
      </trkpt>
      <trkpt lat="43.64874" lon="3.82418">
        <ele>107.1</ele>
        <time>2020-12-31T11:25:44Z</time>
      </trkpt>
      <trkpt lat="43.64877" lon="3.8242">
        <ele>107.2</ele>
        <time>2020-12-31T11:25:45Z</time>
      </trkpt>
      <trkpt lat="43.64879" lon="3.82423">
        <ele>107.4</ele>
        <time>2020-12-31T11:25:46Z</time>
      </trkpt>
      <trkpt lat="43.64882" lon="3.82425">
        <ele>107.5</ele>
        <time>2020-12-31T11:25:47Z</time>
      </trkpt>
      <trkpt lat="43.64883" lon="3.82427">
        <ele>107.7</ele>
        <time>2020-12-31T11:25:48Z</time>
      </trkpt>
      <trkpt lat="43.64884" lon="3.8243">
        <ele>107.9</ele>
        <time>2020-12-31T11:25:49Z</time>
      </trkpt>
      <trkpt lat="43.64885" lon="3.82433">
        <ele>108.1</ele>
        <time>2020-12-31T11:25:50Z</time>
      </trkpt>
      <trkpt lat="43.64889" lon="3.82439">
        <ele>108.6</ele>
        <time>2020-12-31T11:25:52Z</time>
      </trkpt>
      <trkpt lat="43.64891" lon="3.82442">
        <ele>108.8</ele>
        <time>2020-12-31T11:25:53Z</time>
      </trkpt>
      <trkpt lat="43.64893" lon="3.82444">
        <ele>109</ele>
        <time>2020-12-31T11:25:54Z</time>
      </trkpt>
      <trkpt lat="43.64895" lon="3.82446">
        <ele>109.1</ele>
        <time>2020-12-31T11:25:55Z</time>
      </trkpt>
      <trkpt lat="43.64897" lon="3.82449">
        <ele>109.2</ele>
        <time>2020-12-31T11:25:56Z</time>
      </trkpt>
      <trkpt lat="43.649" lon="3.82451">
        <ele>109.2</ele>
        <time>2020-12-31T11:25:57Z</time>
      </trkpt>
      <trkpt lat="43.64902" lon="3.82454">
        <ele>109.3</ele>
        <time>2020-12-31T11:25:58Z</time>
      </trkpt>
      <trkpt lat="43.64906" lon="3.82459">
        <ele>109.5</ele>
        <time>2020-12-31T11:26:00Z</time>
      </trkpt>
      <trkpt lat="43.64908" lon="3.8246">
        <ele>110</ele>
        <time>2020-12-31T11:26:01Z</time>
      </trkpt>
      <trkpt lat="43.64911" lon="3.82461">
        <ele>109.6</ele>
        <time>2020-12-31T11:26:02Z</time>
      </trkpt>
      <trkpt lat="43.64914" lon="3.82462">
        <ele>109.6</ele>
        <time>2020-12-31T11:26:03Z</time>
      </trkpt>
      <trkpt lat="43.64917" lon="3.82462">
        <ele>109.6</ele>
        <time>2020-12-31T11:26:04Z</time>
      </trkpt>
      <trkpt lat="43.64919" lon="3.82463">
        <ele>109.8</ele>
        <time>2020-12-31T11:26:05Z</time>
      </trkpt>
      <trkpt lat="43.64922" lon="3.82462">
        <ele>109.8</ele>
        <time>2020-12-31T11:26:06Z</time>
      </trkpt>
      <trkpt lat="43.64924" lon="3.82461">
        <ele>109.9</ele>
        <time>2020-12-31T11:26:07Z</time>
      </trkpt>
      <trkpt lat="43.64927" lon="3.82458">
        <ele>109.9</ele>
        <time>2020-12-31T11:26:09Z</time>
      </trkpt>
      <trkpt lat="43.64929" lon="3.82456">
        <ele>109.9</ele>
        <time>2020-12-31T11:26:10Z</time>
      </trkpt>
      <trkpt lat="43.64932" lon="3.82453">
        <ele>110</ele>
        <time>2020-12-31T11:26:11Z</time>
      </trkpt>
      <trkpt lat="43.64935" lon="3.8245">
        <ele>109.9</ele>
        <time>2020-12-31T11:26:12Z</time>
      </trkpt>
      <trkpt lat="43.64942" lon="3.82446">
        <ele>110</ele>
        <time>2020-12-31T11:26:13Z</time>
      </trkpt>
      <trkpt lat="43.64945" lon="3.82445">
        <ele>110.1</ele>
        <time>2020-12-31T11:26:14Z</time>
      </trkpt>
      <trkpt lat="43.64949" lon="3.82443">
        <ele>110.4</ele>
        <time>2020-12-31T11:26:15Z</time>
      </trkpt>
      <trkpt lat="43.64952" lon="3.82442">
        <ele>110.6</ele>
        <time>2020-12-31T11:26:17Z</time>
      </trkpt>
      <trkpt lat="43.64956" lon="3.8244">
        <ele>110.9</ele>
        <time>2020-12-31T11:26:18Z</time>
      </trkpt>
      <trkpt lat="43.64958" lon="3.82437">
        <ele>110.9</ele>
        <time>2020-12-31T11:26:19Z</time>
      </trkpt>
      <trkpt lat="43.64961" lon="3.82435">
        <ele>111.2</ele>
        <time>2020-12-31T11:26:20Z</time>
      </trkpt>
      <trkpt lat="43.64964" lon="3.82432">
        <ele>112</ele>
        <time>2020-12-31T11:26:21Z</time>
      </trkpt>
      <trkpt lat="43.64966" lon="3.8243">
        <ele>111.6</ele>
        <time>2020-12-31T11:26:22Z</time>
      </trkpt>
      <trkpt lat="43.64969" lon="3.82428">
        <ele>111.9</ele>
        <time>2020-12-31T11:26:23Z</time>
      </trkpt>
      <trkpt lat="43.64972" lon="3.82427">
        <ele>112.3</ele>
        <time>2020-12-31T11:26:24Z</time>
      </trkpt>
      <trkpt lat="43.64974" lon="3.82427">
        <ele>112.6</ele>
        <time>2020-12-31T11:26:25Z</time>
      </trkpt>
      <trkpt lat="43.64977" lon="3.82427">
        <ele>112.9</ele>
        <time>2020-12-31T11:26:26Z</time>
      </trkpt>
      <trkpt lat="43.64979" lon="3.82427">
        <ele>113.1</ele>
        <time>2020-12-31T11:26:27Z</time>
      </trkpt>
      <trkpt lat="43.64981" lon="3.82427">
        <ele>113.3</ele>
        <time>2020-12-31T11:26:28Z</time>
      </trkpt>
      <trkpt lat="43.64983" lon="3.82426">
        <ele>113.5</ele>
        <time>2020-12-31T11:26:29Z</time>
      </trkpt>
      <trkpt lat="43.64985" lon="3.82425">
        <ele>113.7</ele>
        <time>2020-12-31T11:26:30Z</time>
      </trkpt>
      <trkpt lat="43.64987" lon="3.82424">
        <ele>114</ele>
        <time>2020-12-31T11:26:31Z</time>
      </trkpt>
      <trkpt lat="43.64989" lon="3.82423">
        <ele>114</ele>
        <time>2020-12-31T11:26:32Z</time>
      </trkpt>
      <trkpt lat="43.64991" lon="3.82421">
        <ele>114.2</ele>
        <time>2020-12-31T11:26:33Z</time>
      </trkpt>
      <trkpt lat="43.64993" lon="3.82419">
        <ele>114.3</ele>
        <time>2020-12-31T11:26:34Z</time>
      </trkpt>
      <trkpt lat="43.64996" lon="3.82418">
        <ele>114.6</ele>
        <time>2020-12-31T11:26:35Z</time>
      </trkpt>
      <trkpt lat="43.64998" lon="3.82418">
        <ele>114.8</ele>
        <time>2020-12-31T11:26:36Z</time>
      </trkpt>
      <trkpt lat="43.65" lon="3.82417">
        <ele>115</ele>
        <time>2020-12-31T11:26:37Z</time>
      </trkpt>
      <trkpt lat="43.65002" lon="3.82416">
        <ele>115.1</ele>
        <time>2020-12-31T11:26:38Z</time>
      </trkpt>
      <trkpt lat="43.65005" lon="3.82416">
        <ele>115.4</ele>
        <time>2020-12-31T11:26:39Z</time>
      </trkpt>
      <trkpt lat="43.65007" lon="3.82415">
        <ele>115.5</ele>
        <time>2020-12-31T11:26:40Z</time>
      </trkpt>
      <trkpt lat="43.65009" lon="3.82416">
        <ele>116</ele>
        <time>2020-12-31T11:26:41Z</time>
      </trkpt>
      <trkpt lat="43.65013" lon="3.82416">
        <ele>116.3</ele>
        <time>2020-12-31T11:26:42Z</time>
      </trkpt>
      <trkpt lat="43.65015" lon="3.82415">
        <ele>116.4</ele>
        <time>2020-12-31T11:26:44Z</time>
      </trkpt>
      <trkpt lat="43.65019" lon="3.82413">
        <ele>116.5</ele>
        <time>2020-12-31T11:26:45Z</time>
      </trkpt>
      <trkpt lat="43.65021" lon="3.82413">
        <ele>116.7</ele>
        <time>2020-12-31T11:26:47Z</time>
      </trkpt>
      <trkpt lat="43.65026" lon="3.82412">
        <ele>117.1</ele>
        <time>2020-12-31T11:26:48Z</time>
      </trkpt>
      <trkpt lat="43.65028" lon="3.82411">
        <ele>117.2</ele>
        <time>2020-12-31T11:26:50Z</time>
      </trkpt>
      <trkpt lat="43.65033" lon="3.8241">
        <ele>117</ele>
        <time>2020-12-31T11:26:51Z</time>
      </trkpt>
      <trkpt lat="43.65035" lon="3.82409">
        <ele>117.3</ele>
        <time>2020-12-31T11:26:52Z</time>
      </trkpt>
      <trkpt lat="43.65038" lon="3.82408">
        <ele>117.3</ele>
        <time>2020-12-31T11:26:53Z</time>
      </trkpt>
      <trkpt lat="43.6504" lon="3.82408">
        <ele>117.5</ele>
        <time>2020-12-31T11:26:54Z</time>
      </trkpt>
      <trkpt lat="43.65043" lon="3.82407">
        <ele>117.5</ele>
        <time>2020-12-31T11:26:55Z</time>
      </trkpt>
      <trkpt lat="43.65046" lon="3.82406">
        <ele>117.6</ele>
        <time>2020-12-31T11:26:56Z</time>
      </trkpt>
      <trkpt lat="43.65049" lon="3.82406">
        <ele>117.8</ele>
        <time>2020-12-31T11:26:57Z</time>
      </trkpt>
      <trkpt lat="43.65051" lon="3.82406">
        <ele>117.9</ele>
        <time>2020-12-31T11:26:58Z</time>
      </trkpt>
      <trkpt lat="43.65054" lon="3.82405">
        <ele>118.1</ele>
        <time>2020-12-31T11:26:59Z</time>
      </trkpt>
      <trkpt lat="43.65056" lon="3.82404">
        <ele>118.1</ele>
        <time>2020-12-31T11:27:00Z</time>
      </trkpt>
      <trkpt lat="43.65058" lon="3.82404">
        <ele>118</ele>
        <time>2020-12-31T11:27:01Z</time>
      </trkpt>
      <trkpt lat="43.6506" lon="3.82404">
        <ele>118.6</ele>
        <time>2020-12-31T11:27:02Z</time>
      </trkpt>
      <trkpt lat="43.65062" lon="3.82404">
        <ele>118.9</ele>
        <time>2020-12-31T11:27:03Z</time>
      </trkpt>
      <trkpt lat="43.65064" lon="3.82403">
        <ele>119.1</ele>
        <time>2020-12-31T11:27:04Z</time>
      </trkpt>
      <trkpt lat="43.65065" lon="3.824">
        <ele>119</ele>
        <time>2020-12-31T11:27:05Z</time>
      </trkpt>
      <trkpt lat="43.65066" lon="3.82397">
        <ele>119</ele>
        <time>2020-12-31T11:27:06Z</time>
      </trkpt>
      <trkpt lat="43.65067" lon="3.82393">
        <ele>118.9</ele>
        <time>2020-12-31T11:27:07Z</time>
      </trkpt>
      <trkpt lat="43.65068" lon="3.82389">
        <ele>118.8</ele>
        <time>2020-12-31T11:27:08Z</time>
      </trkpt>
      <trkpt lat="43.65068" lon="3.82385">
        <ele>118.5</ele>
        <time>2020-12-31T11:27:09Z</time>
      </trkpt>
      <trkpt lat="43.65069" lon="3.82381">
        <ele>118.4</ele>
        <time>2020-12-31T11:27:10Z</time>
      </trkpt>
      <trkpt lat="43.6507" lon="3.82376">
        <ele>120</ele>
        <time>2020-12-31T11:27:11Z</time>
      </trkpt>
      <trkpt lat="43.65072" lon="3.82372">
        <ele>118.2</ele>
        <time>2020-12-31T11:27:12Z</time>
      </trkpt>
      <trkpt lat="43.65073" lon="3.82368">
        <ele>118</ele>
        <time>2020-12-31T11:27:13Z</time>
      </trkpt>
      <trkpt lat="43.65076" lon="3.82364">
        <ele>118.2</ele>
        <time>2020-12-31T11:27:15Z</time>
      </trkpt>
      <trkpt lat="43.65079" lon="3.8236">
        <ele>118.2</ele>
        <time>2020-12-31T11:27:16Z</time>
      </trkpt>
      <trkpt lat="43.65083" lon="3.82357">
        <ele>118.4</ele>
        <time>2020-12-31T11:27:17Z</time>
      </trkpt>
      <trkpt lat="43.65086" lon="3.82354">
        <ele>118.1</ele>
        <time>2020-12-31T11:27:18Z</time>
      </trkpt>
      <trkpt lat="43.6509" lon="3.82352">
        <ele>117.9</ele>
        <time>2020-12-31T11:27:19Z</time>
      </trkpt>
      <trkpt lat="43.65094" lon="3.82351">
        <ele>117.9</ele>
        <time>2020-12-31T11:27:20Z</time>
      </trkpt>
      <trkpt lat="43.65098" lon="3.82351">
        <ele>121</ele>
        <time>2020-12-31T11:27:21Z</time>
      </trkpt>
      <trkpt lat="43.65102" lon="3.82352">
        <ele>118.4</ele>
        <time>2020-12-31T11:27:22Z</time>
      </trkpt>
      <trkpt lat="43.65106" lon="3.82353">
        <ele>118.6</ele>
        <time>2020-12-31T11:27:23Z</time>
      </trkpt>
      <trkpt lat="43.6511" lon="3.82354">
        <ele>118.9</ele>
        <time>2020-12-31T11:27:24Z</time>
      </trkpt>
      <trkpt lat="43.65113" lon="3.82356">
        <ele>119.1</ele>
        <time>2020-12-31T11:27:25Z</time>
      </trkpt>
      <trkpt lat="43.65117" lon="3.82358">
        <ele>119.1</ele>
        <time>2020-12-31T11:27:26Z</time>
      </trkpt>
      <trkpt lat="43.6512" lon="3.82361">
        <ele>119.3</ele>
        <time>2020-12-31T11:27:27Z</time>
      </trkpt>
      <trkpt lat="43.65123" lon="3.82363">
        <ele>119.3</ele>
        <time>2020-12-31T11:27:28Z</time>
      </trkpt>
      <trkpt lat="43.65126" lon="3.82365">
        <ele>119.2</ele>
        <time>2020-12-31T11:27:29Z</time>
      </trkpt>
      <trkpt lat="43.6513" lon="3.82368">
        <ele>119.2</ele>
        <time>2020-12-31T11:27:30Z</time>
      </trkpt>
      <trkpt lat="43.65135" lon="3.82375">
        <ele>122</ele>
        <time>2020-12-31T11:27:31Z</time>
      </trkpt>
      <trkpt lat="43.65138" lon="3.82379">
        <ele>120</ele>
        <time>2020-12-31T11:27:32Z</time>
      </trkpt>
      <trkpt lat="43.6514" lon="3.82384">
        <ele>120.3</ele>
        <time>2020-12-31T11:27:33Z</time>
      </trkpt>
      <trkpt lat="43.65141" lon="3.82388">
        <ele>120.6</ele>
        <time>2020-12-31T11:27:34Z</time>
      </trkpt>
      <trkpt lat="43.65143" lon="3.82393">
        <ele>120.4</ele>
        <time>2020-12-31T11:27:35Z</time>
      </trkpt>
      <trkpt lat="43.65145" lon="3.82397">
        <ele>120.2</ele>
        <time>2020-12-31T11:27:36Z</time>
      </trkpt>
      <trkpt lat="43.65148" lon="3.82402">
        <ele>119.8</ele>
        <time>2020-12-31T11:27:37Z</time>
      </trkpt>
      <trkpt lat="43.6515" lon="3.82407">
        <ele>119.7</ele>
        <time>2020-12-31T11:27:38Z</time>
      </trkpt>
      <trkpt lat="43.65153" lon="3.82412">
        <ele>119.4</ele>
        <time>2020-12-31T11:27:39Z</time>
      </trkpt>
      <trkpt lat="43.65156" lon="3.82418">
        <ele>119.1</ele>
        <time>2020-12-31T11:27:40Z</time>
      </trkpt>
      <trkpt lat="43.65158" lon="3.82425">
        <ele>122</ele>
        <time>2020-12-31T11:27:41Z</time>
      </trkpt>
      <trkpt lat="43.6516" lon="3.82433">
        <ele>118.6</ele>
        <time>2020-12-31T11:27:42Z</time>
      </trkpt>
      <trkpt lat="43.65161" lon="3.82442">
        <ele>118.4</ele>
        <time>2020-12-31T11:27:43Z</time>
      </trkpt>
      <trkpt lat="43.65162" lon="3.82451">
        <ele>118.1</ele>
        <time>2020-12-31T11:27:44Z</time>
      </trkpt>
      <trkpt lat="43.65162" lon="3.82461">
        <ele>117.7</ele>
        <time>2020-12-31T11:27:45Z</time>
      </trkpt>
      <trkpt lat="43.6516" lon="3.8247">
        <ele>117.6</ele>
        <time>2020-12-31T11:27:46Z</time>
      </trkpt>
      <trkpt lat="43.65154" lon="3.82485">
        <ele>117.9</ele>
        <time>2020-12-31T11:27:48Z</time>
      </trkpt>
      <trkpt lat="43.65151" lon="3.82491">
        <ele>118.1</ele>
        <time>2020-12-31T11:27:50Z</time>
      </trkpt>
      <trkpt lat="43.65148" lon="3.82497">
        <ele>121</ele>
        <time>2020-12-31T11:27:51Z</time>
      </trkpt>
      <trkpt lat="43.65145" lon="3.82503">
        <ele>118.6</ele>
        <time>2020-12-31T11:27:52Z</time>
      </trkpt>
      <trkpt lat="43.65142" lon="3.82508">
        <ele>118.8</ele>
        <time>2020-12-31T11:27:53Z</time>
      </trkpt>
      <trkpt lat="43.65138" lon="3.82513">
        <ele>119</ele>
        <time>2020-12-31T11:27:54Z</time>
      </trkpt>
      <trkpt lat="43.65135" lon="3.82517">
        <ele>119.1</ele>
        <time>2020-12-31T11:27:55Z</time>
      </trkpt>
      <trkpt lat="43.65132" lon="3.82521">
        <ele>119.1</ele>
        <time>2020-12-31T11:27:56Z</time>
      </trkpt>
      <trkpt lat="43.65126" lon="3.82529">
        <ele>119</ele>
        <time>2020-12-31T11:27:57Z</time>
      </trkpt>
      <trkpt lat="43.65123" lon="3.82533">
        <ele>119.1</ele>
        <time>2020-12-31T11:27:59Z</time>
      </trkpt>
      <trkpt lat="43.6512" lon="3.82536">
        <ele>119.2</ele>
        <time>2020-12-31T11:28:00Z</time>
      </trkpt>
      <trkpt lat="43.65117" lon="3.82538">
        <ele>120</ele>
        <time>2020-12-31T11:28:01Z</time>
      </trkpt>
      <trkpt lat="43.65116" lon="3.82541">
        <ele>119.4</ele>
        <time>2020-12-31T11:28:03Z</time>
      </trkpt>
      <trkpt lat="43.6512" lon="3.82538">
        <ele>119.3</ele>
        <time>2020-12-31T11:28:05Z</time>
      </trkpt>
      <trkpt lat="43.65121" lon="3.82536">
        <ele>119.2</ele>
        <time>2020-12-31T11:28:06Z</time>
      </trkpt>
      <trkpt lat="43.65122" lon="3.82534">
        <ele>119.1</ele>
        <time>2020-12-31T11:28:07Z</time>
      </trkpt>
      <trkpt lat="43.65123" lon="3.82531">
        <ele>119.1</ele>
        <time>2020-12-31T11:28:08Z</time>
      </trkpt>
      <trkpt lat="43.65125" lon="3.82527">
        <ele>119</ele>
        <time>2020-12-31T11:28:09Z</time>
      </trkpt>
      <trkpt lat="43.65127" lon="3.82524">
        <ele>119.1</ele>
        <time>2020-12-31T11:28:10Z</time>
      </trkpt>
      <trkpt lat="43.6513" lon="3.82521">
        <ele>120</ele>
        <time>2020-12-31T11:28:11Z</time>
      </trkpt>
      <trkpt lat="43.65133" lon="3.82518">
        <ele>119.1</ele>
        <time>2020-12-31T11:28:12Z</time>
      </trkpt>
      <trkpt lat="43.65135" lon="3.82514">
        <ele>119.1</ele>
        <time>2020-12-31T11:28:14Z</time>
      </trkpt>
      <trkpt lat="43.6514" lon="3.82506">
        <ele>118.9</ele>
        <time>2020-12-31T11:28:15Z</time>
      </trkpt>
      <trkpt lat="43.65142" lon="3.82503">
        <ele>118.8</ele>
        <time>2020-12-31T11:28:16Z</time>
      </trkpt>
      <trkpt lat="43.65144" lon="3.82499">
        <ele>118.6</ele>
        <time>2020-12-31T11:28:17Z</time>
      </trkpt>
      <trkpt lat="43.65146" lon="3.82497">
        <ele>118.5</ele>
        <time>2020-12-31T11:28:18Z</time>
      </trkpt>
      <trkpt lat="43.65148" lon="3.82497">
        <ele>118.3</ele>
        <time>2020-12-31T11:28:19Z</time>
      </trkpt>
      <trkpt lat="43.65151" lon="3.82499">
        <ele>120</ele>
        <time>2020-12-31T11:28:21Z</time>
      </trkpt>
      <trkpt lat="43.65154" lon="3.82502">
        <ele>118</ele>
        <time>2020-12-31T11:28:22Z</time>
      </trkpt>
      <trkpt lat="43.65157" lon="3.82506">
        <ele>117.8</ele>
        <time>2020-12-31T11:28:23Z</time>
      </trkpt>
      <trkpt lat="43.6516" lon="3.82509">
        <ele>117.7</ele>
        <time>2020-12-31T11:28:24Z</time>
      </trkpt>
      <trkpt lat="43.65164" lon="3.82513">
        <ele>117.6</ele>
        <time>2020-12-31T11:28:25Z</time>
      </trkpt>
      <trkpt lat="43.65167" lon="3.82517">
        <ele>117.6</ele>
        <time>2020-12-31T11:28:26Z</time>
      </trkpt>
      <trkpt lat="43.65173" lon="3.82525">
        <ele>117</ele>
        <time>2020-12-31T11:28:27Z</time>
      </trkpt>
      <trkpt lat="43.65179" lon="3.82535">
        <ele>116.7</ele>
        <time>2020-12-31T11:28:29Z</time>
      </trkpt>
      <trkpt lat="43.65183" lon="3.8254">
        <ele>116.6</ele>
        <time>2020-12-31T11:28:30Z</time>
      </trkpt>
      <trkpt lat="43.65187" lon="3.82545">
        <ele>119</ele>
        <time>2020-12-31T11:28:31Z</time>
      </trkpt>
      <trkpt lat="43.6519" lon="3.82551">
        <ele>116.9</ele>
        <time>2020-12-31T11:28:32Z</time>
      </trkpt>
      <trkpt lat="43.65194" lon="3.82556">
        <ele>117.1</ele>
        <time>2020-12-31T11:28:33Z</time>
      </trkpt>
      <trkpt lat="43.65197" lon="3.82562">
        <ele>117.2</ele>
        <time>2020-12-31T11:28:34Z</time>
      </trkpt>
      <trkpt lat="43.652" lon="3.82568">
        <ele>117.4</ele>
        <time>2020-12-31T11:28:35Z</time>
      </trkpt>
      <trkpt lat="43.65205" lon="3.82578">
        <ele>117.8</ele>
        <time>2020-12-31T11:28:37Z</time>
      </trkpt>
      <trkpt lat="43.65208" lon="3.82582">
        <ele>117.9</ele>
        <time>2020-12-31T11:28:38Z</time>
      </trkpt>
      <trkpt lat="43.65212" lon="3.82587">
        <ele>118.1</ele>
        <time>2020-12-31T11:28:39Z</time>
      </trkpt>
      <trkpt lat="43.65215" lon="3.82591">
        <ele>118.3</ele>
        <time>2020-12-31T11:28:40Z</time>
      </trkpt>
      <trkpt lat="43.65219" lon="3.82594">
        <ele>119</ele>
        <time>2020-12-31T11:28:41Z</time>
      </trkpt>
      <trkpt lat="43.65223" lon="3.82597">
        <ele>118.4</ele>
        <time>2020-12-31T11:28:42Z</time>
      </trkpt>
      <trkpt lat="43.65227" lon="3.82599">
        <ele>118.5</ele>
        <time>2020-12-31T11:28:43Z</time>
      </trkpt>
      <trkpt lat="43.65231" lon="3.82602">
        <ele>118.8</ele>
        <time>2020-12-31T11:28:45Z</time>
      </trkpt>
      <trkpt lat="43.65238" lon="3.8261">
        <ele>119.8</ele>
        <time>2020-12-31T11:28:46Z</time>
      </trkpt>
      <trkpt lat="43.6524" lon="3.82613">
        <ele>120.2</ele>
        <time>2020-12-31T11:28:47Z</time>
      </trkpt>
      <trkpt lat="43.65243" lon="3.82616">
        <ele>120.5</ele>
        <time>2020-12-31T11:28:48Z</time>
      </trkpt>
      <trkpt lat="43.65245" lon="3.82619">
        <ele>120.8</ele>
        <time>2020-12-31T11:28:49Z</time>
      </trkpt>
      <trkpt lat="43.65248" lon="3.82621">
        <ele>121</ele>
        <time>2020-12-31T11:28:50Z</time>
      </trkpt>
      <trkpt lat="43.6525" lon="3.82624">
        <ele>120</ele>
        <time>2020-12-31T11:28:52Z</time>
      </trkpt>
      <trkpt lat="43.65252" lon="3.82626">
        <ele>121.5</ele>
        <time>2020-12-31T11:28:53Z</time>
      </trkpt>
      <trkpt lat="43.65256" lon="3.82631">
        <ele>121.7</ele>
        <time>2020-12-31T11:28:54Z</time>
      </trkpt>
      <trkpt lat="43.65258" lon="3.82633">
        <ele>121.8</ele>
        <time>2020-12-31T11:28:55Z</time>
      </trkpt>
      <trkpt lat="43.65261" lon="3.82636">
        <ele>121.9</ele>
        <time>2020-12-31T11:28:56Z</time>
      </trkpt>
      <trkpt lat="43.65263" lon="3.82639">
        <ele>122.1</ele>
        <time>2020-12-31T11:28:57Z</time>
      </trkpt>
      <trkpt lat="43.65265" lon="3.82642">
        <ele>122.2</ele>
        <time>2020-12-31T11:28:58Z</time>
      </trkpt>
      <trkpt lat="43.65266" lon="3.82645">
        <ele>122.3</ele>
        <time>2020-12-31T11:28:59Z</time>
      </trkpt>
      <trkpt lat="43.65267" lon="3.82648">
        <ele>122.5</ele>
        <time>2020-12-31T11:29:00Z</time>
      </trkpt>
      <trkpt lat="43.65268" lon="3.82651">
        <ele>121</ele>
        <time>2020-12-31T11:29:01Z</time>
      </trkpt>
      <trkpt lat="43.6527" lon="3.82653">
        <ele>122.8</ele>
        <time>2020-12-31T11:29:02Z</time>
      </trkpt>
      <trkpt lat="43.65272" lon="3.82655">
        <ele>122.9</ele>
        <time>2020-12-31T11:29:03Z</time>
      </trkpt>
      <trkpt lat="43.65275" lon="3.82657">
        <ele>123</ele>
        <time>2020-12-31T11:29:04Z</time>
      </trkpt>
      <trkpt lat="43.65277" lon="3.82659">
        <ele>123.2</ele>
        <time>2020-12-31T11:29:05Z</time>
      </trkpt>
      <trkpt lat="43.6528" lon="3.82661">
        <ele>123.3</ele>
        <time>2020-12-31T11:29:06Z</time>
      </trkpt>
      <trkpt lat="43.65282" lon="3.82663">
        <ele>123.4</ele>
        <time>2020-12-31T11:29:08Z</time>
      </trkpt>
      <trkpt lat="43.65288" lon="3.82667">
        <ele>123.6</ele>
        <time>2020-12-31T11:29:09Z</time>
      </trkpt>
      <trkpt lat="43.65295" lon="3.82672">
        <ele>122</ele>
        <time>2020-12-31T11:29:11Z</time>
      </trkpt>
      <trkpt lat="43.65298" lon="3.82674">
        <ele>123.5</ele>
        <time>2020-12-31T11:29:12Z</time>
      </trkpt>
      <trkpt lat="43.65301" lon="3.82676">
        <ele>123.4</ele>
        <time>2020-12-31T11:29:13Z</time>
      </trkpt>
      <trkpt lat="43.65304" lon="3.82679">
        <ele>123.5</ele>
        <time>2020-12-31T11:29:14Z</time>
      </trkpt>
      <trkpt lat="43.65307" lon="3.82682">
        <ele>123.5</ele>
        <time>2020-12-31T11:29:15Z</time>
      </trkpt>
      <trkpt lat="43.6531" lon="3.82684">
        <ele>123.4</ele>
        <time>2020-12-31T11:29:16Z</time>
      </trkpt>
      <trkpt lat="43.65313" lon="3.82687">
        <ele>123.5</ele>
        <time>2020-12-31T11:29:17Z</time>
      </trkpt>
      <trkpt lat="43.65316" lon="3.8269">
        <ele>123.7</ele>
        <time>2020-12-31T11:29:18Z</time>
      </trkpt>
      <trkpt lat="43.65318" lon="3.82692">
        <ele>123.8</ele>
        <time>2020-12-31T11:29:19Z</time>
      </trkpt>
      <trkpt lat="43.65321" lon="3.82694">
        <ele>124</ele>
        <time>2020-12-31T11:29:20Z</time>
      </trkpt>
      <trkpt lat="43.65323" lon="3.82696">
        <ele>123</ele>
        <time>2020-12-31T11:29:21Z</time>
      </trkpt>
      <trkpt lat="43.65326" lon="3.82697">
        <ele>124</ele>
        <time>2020-12-31T11:29:22Z</time>
      </trkpt>
      <trkpt lat="43.65329" lon="3.82699">
        <ele>124</ele>
        <time>2020-12-31T11:29:23Z</time>
      </trkpt>
      <trkpt lat="43.65331" lon="3.82701">
        <ele>124</ele>
        <time>2020-12-31T11:29:24Z</time>
      </trkpt>
      <trkpt lat="43.65335" lon="3.82703">
        <ele>123.9</ele>
        <time>2020-12-31T11:29:25Z</time>
      </trkpt>
      <trkpt lat="43.65338" lon="3.82705">
        <ele>123.9</ele>
        <time>2020-12-31T11:29:26Z</time>
      </trkpt>
      <trkpt lat="43.65341" lon="3.82706">
        <ele>123.8</ele>
        <time>2020-12-31T11:29:27Z</time>
      </trkpt>
      <trkpt lat="43.65345" lon="3.82707">
        <ele>123.7</ele>
        <time>2020-12-31T11:29:29Z</time>
      </trkpt>
      <trkpt lat="43.65349" lon="3.82709">
        <ele>123.8</ele>
        <time>2020-12-31T11:29:30Z</time>
      </trkpt>
      <trkpt lat="43.65352" lon="3.8271">
        <ele>124</ele>
        <time>2020-12-31T11:29:31Z</time>
      </trkpt>
      <trkpt lat="43.65355" lon="3.82713">
        <ele>124</ele>
        <time>2020-12-31T11:29:32Z</time>
      </trkpt>
      <trkpt lat="43.65358" lon="3.82716">
        <ele>124.3</ele>
        <time>2020-12-31T11:29:33Z</time>
      </trkpt>
      <trkpt lat="43.65361" lon="3.82718">
        <ele>124.5</ele>
        <time>2020-12-31T11:29:34Z</time>
      </trkpt>
      <trkpt lat="43.65364" lon="3.8272">
        <ele>124.9</ele>
        <time>2020-12-31T11:29:35Z</time>
      </trkpt>
      <trkpt lat="43.65368" lon="3.8272">
        <ele>125</ele>
        <time>2020-12-31T11:29:36Z</time>
      </trkpt>
      <trkpt lat="43.65372" lon="3.82721">
        <ele>125.2</ele>
        <time>2020-12-31T11:29:37Z</time>
      </trkpt>
      <trkpt lat="43.6538" lon="3.82724">
        <ele>125.6</ele>
        <time>2020-12-31T11:29:38Z</time>
      </trkpt>
      <trkpt lat="43.65383" lon="3.82725">
        <ele>125.7</ele>
        <time>2020-12-31T11:29:40Z</time>
      </trkpt>
      <trkpt lat="43.65387" lon="3.82727">
        <ele>124</ele>
        <time>2020-12-31T11:29:41Z</time>
      </trkpt>
      <trkpt lat="43.65394" lon="3.82731">
        <ele>125.6</ele>
        <time>2020-12-31T11:29:42Z</time>
      </trkpt>
      <trkpt lat="43.65397" lon="3.82734">
        <ele>125.4</ele>
        <time>2020-12-31T11:29:43Z</time>
      </trkpt>
      <trkpt lat="43.654" lon="3.82737">
        <ele>125.3</ele>
        <time>2020-12-31T11:29:45Z</time>
      </trkpt>
      <trkpt lat="43.65403" lon="3.82739">
        <ele>125.2</ele>
        <time>2020-12-31T11:29:46Z</time>
      </trkpt>
      <trkpt lat="43.65406" lon="3.82741">
        <ele>125.1</ele>
        <time>2020-12-31T11:29:47Z</time>
      </trkpt>
      <trkpt lat="43.6541" lon="3.82744">
        <ele>125.1</ele>
        <time>2020-12-31T11:29:48Z</time>
      </trkpt>
      <trkpt lat="43.65413" lon="3.82746">
        <ele>125</ele>
        <time>2020-12-31T11:29:49Z</time>
      </trkpt>
      <trkpt lat="43.65416" lon="3.82748">
        <ele>125</ele>
        <time>2020-12-31T11:29:50Z</time>
      </trkpt>
      <trkpt lat="43.65421" lon="3.82754">
        <ele>125</ele>
        <time>2020-12-31T11:29:51Z</time>
      </trkpt>
      <trkpt lat="43.65426" lon="3.8276">
        <ele>125.2</ele>
        <time>2020-12-31T11:29:53Z</time>
      </trkpt>
      <trkpt lat="43.65429" lon="3.82764">
        <ele>125.2</ele>
        <time>2020-12-31T11:29:54Z</time>
      </trkpt>
      <trkpt lat="43.65432" lon="3.82767">
        <ele>125.2</ele>
        <time>2020-12-31T11:29:55Z</time>
      </trkpt>
      <trkpt lat="43.65435" lon="3.82769">
        <ele>125.2</ele>
        <time>2020-12-31T11:29:56Z</time>
      </trkpt>
      <trkpt lat="43.65439" lon="3.82769">
        <ele>125.3</ele>
        <time>2020-12-31T11:29:57Z</time>
      </trkpt>
      <trkpt lat="43.65446" lon="3.82769">
        <ele>125.3</ele>
        <time>2020-12-31T11:29:59Z</time>
      </trkpt>
      <trkpt lat="43.65449" lon="3.8277">
        <ele>125.2</ele>
        <time>2020-12-31T11:30:00Z</time>
      </trkpt>
      <trkpt lat="43.65453" lon="3.8277">
        <ele>126</ele>
        <time>2020-12-31T11:30:01Z</time>
      </trkpt>
      <trkpt lat="43.65456" lon="3.82772">
        <ele>125</ele>
        <time>2020-12-31T11:30:02Z</time>
      </trkpt>
      <trkpt lat="43.6546" lon="3.82774">
        <ele>125</ele>
        <time>2020-12-31T11:30:03Z</time>
      </trkpt>
      <trkpt lat="43.65463" lon="3.82776">
        <ele>125</ele>
        <time>2020-12-31T11:30:04Z</time>
      </trkpt>
      <trkpt lat="43.65466" lon="3.82779">
        <ele>125</ele>
        <time>2020-12-31T11:30:05Z</time>
      </trkpt>
      <trkpt lat="43.65467" lon="3.82782">
        <ele>125</ele>
        <time>2020-12-31T11:30:06Z</time>
      </trkpt>
      <trkpt lat="43.65467" lon="3.82781">
        <ele>126</ele>
        <time>2020-12-31T11:30:14Z</time>
      </trkpt>
      <trkpt lat="43.65473" lon="3.8279">
        <ele>126</ele>
        <time>2020-12-31T11:30:22Z</time>
      </trkpt>
      <trkpt lat="43.65475" lon="3.82792">
        <ele>124.5</ele>
        <time>2020-12-31T11:30:23Z</time>
      </trkpt>
      <trkpt lat="43.65478" lon="3.82794">
        <ele>124</ele>
        <time>2020-12-31T11:30:24Z</time>
      </trkpt>
      <trkpt lat="43.6548" lon="3.82798">
        <ele>123.7</ele>
        <time>2020-12-31T11:30:25Z</time>
      </trkpt>
      <trkpt lat="43.65481" lon="3.828">
        <ele>123.6</ele>
        <time>2020-12-31T11:30:26Z</time>
      </trkpt>
      <trkpt lat="43.65483" lon="3.82802">
        <ele>123.3</ele>
        <time>2020-12-31T11:30:27Z</time>
      </trkpt>
      <trkpt lat="43.65485" lon="3.82804">
        <ele>123.1</ele>
        <time>2020-12-31T11:30:28Z</time>
      </trkpt>
      <trkpt lat="43.65488" lon="3.82805">
        <ele>122.7</ele>
        <time>2020-12-31T11:30:29Z</time>
      </trkpt>
      <trkpt lat="43.65491" lon="3.82807">
        <ele>122.4</ele>
        <time>2020-12-31T11:30:30Z</time>
      </trkpt>
      <trkpt lat="43.65494" lon="3.82809">
        <ele>122.2</ele>
        <time>2020-12-31T11:30:31Z</time>
      </trkpt>
      <trkpt lat="43.65495" lon="3.82813">
        <ele>122.4</ele>
        <time>2020-12-31T11:30:33Z</time>
      </trkpt>
      <trkpt lat="43.65497" lon="3.82816">
        <ele>122.4</ele>
        <time>2020-12-31T11:30:34Z</time>
      </trkpt>
      <trkpt lat="43.65499" lon="3.82832">
        <ele>123.9</ele>
        <time>2020-12-31T11:30:38Z</time>
      </trkpt>
      <trkpt lat="43.655" lon="3.82835">
        <ele>124.1</ele>
        <time>2020-12-31T11:30:39Z</time>
      </trkpt>
      <trkpt lat="43.65502" lon="3.82839">
        <ele>124.1</ele>
        <time>2020-12-31T11:30:41Z</time>
      </trkpt>
      <trkpt lat="43.65503" lon="3.8284">
        <ele>126</ele>
        <time>2020-12-31T11:30:50Z</time>
      </trkpt>
      <trkpt lat="43.65503" lon="3.82851">
        <ele>127</ele>
        <time>2020-12-31T11:31:15Z</time>
      </trkpt>
      <trkpt lat="43.655" lon="3.82856">
        <ele>125.6</ele>
        <time>2020-12-31T11:31:16Z</time>
      </trkpt>
      <trkpt lat="43.65499" lon="3.82858">
        <ele>125.8</ele>
        <time>2020-12-31T11:31:17Z</time>
      </trkpt>
      <trkpt lat="43.65497" lon="3.8286">
        <ele>125.9</ele>
        <time>2020-12-31T11:31:18Z</time>
      </trkpt>
      <trkpt lat="43.65494" lon="3.82861">
        <ele>126</ele>
        <time>2020-12-31T11:31:19Z</time>
      </trkpt>
      <trkpt lat="43.65492" lon="3.82864">
        <ele>126.2</ele>
        <time>2020-12-31T11:31:20Z</time>
      </trkpt>
      <trkpt lat="43.65489" lon="3.82867">
        <ele>126.3</ele>
        <time>2020-12-31T11:31:21Z</time>
      </trkpt>
      <trkpt lat="43.65487" lon="3.8287">
        <ele>126.5</ele>
        <time>2020-12-31T11:31:22Z</time>
      </trkpt>
      <trkpt lat="43.65484" lon="3.82873">
        <ele>126.6</ele>
        <time>2020-12-31T11:31:23Z</time>
      </trkpt>
      <trkpt lat="43.65482" lon="3.82877">
        <ele>127</ele>
        <time>2020-12-31T11:31:24Z</time>
      </trkpt>
      <trkpt lat="43.6548" lon="3.82882">
        <ele>127</ele>
        <time>2020-12-31T11:31:25Z</time>
      </trkpt>
      <trkpt lat="43.65478" lon="3.82886">
        <ele>127.1</ele>
        <time>2020-12-31T11:31:26Z</time>
      </trkpt>
      <trkpt lat="43.65476" lon="3.8289">
        <ele>127.1</ele>
        <time>2020-12-31T11:31:27Z</time>
      </trkpt>
      <trkpt lat="43.65474" lon="3.82894">
        <ele>127.1</ele>
        <time>2020-12-31T11:31:28Z</time>
      </trkpt>
      <trkpt lat="43.65471" lon="3.82897">
        <ele>126.9</ele>
        <time>2020-12-31T11:31:29Z</time>
      </trkpt>
      <trkpt lat="43.65469" lon="3.829">
        <ele>126.8</ele>
        <time>2020-12-31T11:31:30Z</time>
      </trkpt>
      <trkpt lat="43.65467" lon="3.82904">
        <ele>126.6</ele>
        <time>2020-12-31T11:31:32Z</time>
      </trkpt>
      <trkpt lat="43.65466" lon="3.82909">
        <ele>126.6</ele>
        <time>2020-12-31T11:31:33Z</time>
      </trkpt>
      <trkpt lat="43.65464" lon="3.82919">
        <ele>128</ele>
        <time>2020-12-31T11:31:34Z</time>
      </trkpt>
      <trkpt lat="43.65464" lon="3.82924">
        <ele>126.1</ele>
        <time>2020-12-31T11:31:35Z</time>
      </trkpt>
      <trkpt lat="43.65464" lon="3.8293">
        <ele>125.9</ele>
        <time>2020-12-31T11:31:36Z</time>
      </trkpt>
      <trkpt lat="43.65465" lon="3.82935">
        <ele>125.7</ele>
        <time>2020-12-31T11:31:37Z</time>
      </trkpt>
      <trkpt lat="43.65466" lon="3.8294">
        <ele>125.4</ele>
        <time>2020-12-31T11:31:38Z</time>
      </trkpt>
      <trkpt lat="43.65466" lon="3.82946">
        <ele>125.2</ele>
        <time>2020-12-31T11:31:39Z</time>
      </trkpt>
      <trkpt lat="43.65467" lon="3.82951">
        <ele>125.1</ele>
        <time>2020-12-31T11:31:40Z</time>
      </trkpt>
      <trkpt lat="43.65466" lon="3.82957">
        <ele>125.1</ele>
        <time>2020-12-31T11:31:41Z</time>
      </trkpt>
      <trkpt lat="43.65465" lon="3.82963">
        <ele>125.1</ele>
        <time>2020-12-31T11:31:42Z</time>
      </trkpt>
      <trkpt lat="43.65462" lon="3.82968">
        <ele>125.1</ele>
        <time>2020-12-31T11:31:43Z</time>
      </trkpt>
      <trkpt lat="43.65458" lon="3.82972">
        <ele>125</ele>
        <time>2020-12-31T11:31:45Z</time>
      </trkpt>
      <trkpt lat="43.65456" lon="3.82975">
        <ele>125</ele>
        <time>2020-12-31T11:31:46Z</time>
      </trkpt>
      <trkpt lat="43.65454" lon="3.82984">
        <ele>124.9</ele>
        <time>2020-12-31T11:31:47Z</time>
      </trkpt>
      <trkpt lat="43.65456" lon="3.82987">
        <ele>124.8</ele>
        <time>2020-12-31T11:31:48Z</time>
      </trkpt>
      <trkpt lat="43.65459" lon="3.8299">
        <ele>124.7</ele>
        <time>2020-12-31T11:31:49Z</time>
      </trkpt>
      <trkpt lat="43.65461" lon="3.82992">
        <ele>124.6</ele>
        <time>2020-12-31T11:31:50Z</time>
      </trkpt>
      <trkpt lat="43.65465" lon="3.82995">
        <ele>124.4</ele>
        <time>2020-12-31T11:31:51Z</time>
      </trkpt>
      <trkpt lat="43.65468" lon="3.82998">
        <ele>124.2</ele>
        <time>2020-12-31T11:31:52Z</time>
      </trkpt>
      <trkpt lat="43.65472" lon="3.83002">
        <ele>123.7</ele>
        <time>2020-12-31T11:31:53Z</time>
      </trkpt>
      <trkpt lat="43.65475" lon="3.83007">
        <ele>123</ele>
        <time>2020-12-31T11:31:55Z</time>
      </trkpt>
      <trkpt lat="43.65478" lon="3.8301">
        <ele>122.7</ele>
        <time>2020-12-31T11:31:56Z</time>
      </trkpt>
      <trkpt lat="43.65482" lon="3.83013">
        <ele>122.5</ele>
        <time>2020-12-31T11:31:57Z</time>
      </trkpt>
      <trkpt lat="43.65487" lon="3.83016">
        <ele>122.3</ele>
        <time>2020-12-31T11:31:58Z</time>
      </trkpt>
      <trkpt lat="43.65492" lon="3.83019">
        <ele>122.2</ele>
        <time>2020-12-31T11:31:59Z</time>
      </trkpt>
      <trkpt lat="43.65496" lon="3.83024">
        <ele>122</ele>
        <time>2020-12-31T11:32:00Z</time>
      </trkpt>
      <trkpt lat="43.655" lon="3.83029">
        <ele>121.7</ele>
        <time>2020-12-31T11:32:01Z</time>
      </trkpt>
      <trkpt lat="43.65504" lon="3.83033">
        <ele>121.1</ele>
        <time>2020-12-31T11:32:02Z</time>
      </trkpt>
      <trkpt lat="43.65507" lon="3.83036">
        <ele>120.6</ele>
        <time>2020-12-31T11:32:03Z</time>
      </trkpt>
      <trkpt lat="43.6551" lon="3.83039">
        <ele>128</ele>
        <time>2020-12-31T11:32:04Z</time>
      </trkpt>
      <trkpt lat="43.65516" lon="3.83046">
        <ele>119.4</ele>
        <time>2020-12-31T11:32:05Z</time>
      </trkpt>
      <trkpt lat="43.65519" lon="3.83049">
        <ele>119.1</ele>
        <time>2020-12-31T11:32:06Z</time>
      </trkpt>
      <trkpt lat="43.65523" lon="3.83053">
        <ele>118.9</ele>
        <time>2020-12-31T11:32:07Z</time>
      </trkpt>
      <trkpt lat="43.65527" lon="3.83057">
        <ele>118.7</ele>
        <time>2020-12-31T11:32:08Z</time>
      </trkpt>
      <trkpt lat="43.6553" lon="3.83062">
        <ele>117.7</ele>
        <time>2020-12-31T11:32:09Z</time>
      </trkpt>
      <trkpt lat="43.65534" lon="3.83066">
        <ele>116.6</ele>
        <time>2020-12-31T11:32:10Z</time>
      </trkpt>
      <trkpt lat="43.65538" lon="3.83068">
        <ele>115.9</ele>
        <time>2020-12-31T11:32:11Z</time>
      </trkpt>
      <trkpt lat="43.65543" lon="3.83069">
        <ele>115.1</ele>
        <time>2020-12-31T11:32:12Z</time>
      </trkpt>
      <trkpt lat="43.65553" lon="3.83064">
        <ele>127</ele>
        <time>2020-12-31T11:32:14Z</time>
      </trkpt>
      <trkpt lat="43.65563" lon="3.83054">
        <ele>112.5</ele>
        <time>2020-12-31T11:32:16Z</time>
      </trkpt>
      <trkpt lat="43.65574" lon="3.83042">
        <ele>111.8</ele>
        <time>2020-12-31T11:32:18Z</time>
      </trkpt>
      <trkpt lat="43.65581" lon="3.83028">
        <ele>111.8</ele>
        <time>2020-12-31T11:32:20Z</time>
      </trkpt>
      <trkpt lat="43.65585" lon="3.83022">
        <ele>112.1</ele>
        <time>2020-12-31T11:32:21Z</time>
      </trkpt>
      <trkpt lat="43.65589" lon="3.83016">
        <ele>113</ele>
        <time>2020-12-31T11:32:22Z</time>
      </trkpt>
      <trkpt lat="43.65592" lon="3.8301">
        <ele>113.8</ele>
        <time>2020-12-31T11:32:23Z</time>
      </trkpt>
      <trkpt lat="43.65594" lon="3.83005">
        <ele>126</ele>
        <time>2020-12-31T11:32:24Z</time>
      </trkpt>
      <trkpt lat="43.65595" lon="3.82999">
        <ele>115.3</ele>
        <time>2020-12-31T11:32:26Z</time>
      </trkpt>
      <trkpt lat="43.65595" lon="3.82994">
        <ele>115.2</ele>
        <time>2020-12-31T11:32:27Z</time>
      </trkpt>
      <trkpt lat="43.65595" lon="3.82991">
        <ele>115.2</ele>
        <time>2020-12-31T11:32:28Z</time>
      </trkpt>
      <trkpt lat="43.65597" lon="3.8299">
        <ele>114.9</ele>
        <time>2020-12-31T11:32:29Z</time>
      </trkpt>
      <trkpt lat="43.65605" lon="3.82997">
        <ele>113.8</ele>
        <time>2020-12-31T11:32:30Z</time>
      </trkpt>
      <trkpt lat="43.65608" lon="3.83001">
        <ele>113.3</ele>
        <time>2020-12-31T11:32:31Z</time>
      </trkpt>
      <trkpt lat="43.65612" lon="3.83004">
        <ele>112.3</ele>
        <time>2020-12-31T11:32:32Z</time>
      </trkpt>
      <trkpt lat="43.65616" lon="3.83008">
        <ele>111.3</ele>
        <time>2020-12-31T11:32:33Z</time>
      </trkpt>
      <trkpt lat="43.65627" lon="3.83013">
        <ele>109.9</ele>
        <time>2020-12-31T11:32:35Z</time>
      </trkpt>
      <trkpt lat="43.65638" lon="3.83019">
        <ele>109.4</ele>
        <time>2020-12-31T11:32:37Z</time>
      </trkpt>
      <trkpt lat="43.65649" lon="3.83026">
        <ele>108.4</ele>
        <time>2020-12-31T11:32:39Z</time>
      </trkpt>
      <trkpt lat="43.6566" lon="3.83032">
        <ele>106.5</ele>
        <time>2020-12-31T11:32:42Z</time>
      </trkpt>
      <trkpt lat="43.65664" lon="3.83046">
        <ele>104.9</ele>
        <time>2020-12-31T11:32:46Z</time>
      </trkpt>
      <trkpt lat="43.65664" lon="3.83051">
        <ele>104.5</ele>
        <time>2020-12-31T11:32:47Z</time>
      </trkpt>
      <trkpt lat="43.65666" lon="3.83053">
        <ele>104.2</ele>
        <time>2020-12-31T11:32:49Z</time>
      </trkpt>
      <trkpt lat="43.65668" lon="3.83052">
        <ele>103.8</ele>
        <time>2020-12-31T11:32:50Z</time>
      </trkpt>
      <trkpt lat="43.6567" lon="3.83051">
        <ele>103.1</ele>
        <time>2020-12-31T11:32:52Z</time>
      </trkpt>
      <trkpt lat="43.65671" lon="3.83049">
        <ele>102.9</ele>
        <time>2020-12-31T11:32:53Z</time>
      </trkpt>
      <trkpt lat="43.65674" lon="3.83047">
        <ele>119</ele>
        <time>2020-12-31T11:32:54Z</time>
      </trkpt>
      <trkpt lat="43.65677" lon="3.83045">
        <ele>100.9</ele>
        <time>2020-12-31T11:32:55Z</time>
      </trkpt>
      <trkpt lat="43.65681" lon="3.83046">
        <ele>99.4</ele>
        <time>2020-12-31T11:32:56Z</time>
      </trkpt>
      <trkpt lat="43.65692" lon="3.83051">
        <ele>95.1</ele>
        <time>2020-12-31T11:32:57Z</time>
      </trkpt>
      <trkpt lat="43.65699" lon="3.83055">
        <ele>93.9</ele>
        <time>2020-12-31T11:32:59Z</time>
      </trkpt>
      <trkpt lat="43.65709" lon="3.83059">
        <ele>93.5</ele>
        <time>2020-12-31T11:33:03Z</time>
      </trkpt>
      <trkpt lat="43.65709" lon="3.83043">
        <ele>93.9</ele>
        <time>2020-12-31T11:33:07Z</time>
      </trkpt>
      <trkpt lat="43.65709" lon="3.83037">
        <ele>94.1</ele>
        <time>2020-12-31T11:33:08Z</time>
      </trkpt>
      <trkpt lat="43.65709" lon="3.83032">
        <ele>94.3</ele>
        <time>2020-12-31T11:33:09Z</time>
      </trkpt>
      <trkpt lat="43.6571" lon="3.83027">
        <ele>94.5</ele>
        <time>2020-12-31T11:33:10Z</time>
      </trkpt>
      <trkpt lat="43.65714" lon="3.83024">
        <ele>94.3</ele>
        <time>2020-12-31T11:33:11Z</time>
      </trkpt>
      <trkpt lat="43.65716" lon="3.83023">
        <ele>94.2</ele>
        <time>2020-12-31T11:33:12Z</time>
      </trkpt>
      <trkpt lat="43.65718" lon="3.83021">
        <ele>94.1</ele>
        <time>2020-12-31T11:33:13Z</time>
      </trkpt>
      <trkpt lat="43.65719" lon="3.83019">
        <ele>109</ele>
        <time>2020-12-31T11:33:14Z</time>
      </trkpt>
      <trkpt lat="43.65721" lon="3.83017">
        <ele>93.7</ele>
        <time>2020-12-31T11:33:15Z</time>
      </trkpt>
      <trkpt lat="43.65722" lon="3.83013">
        <ele>93.5</ele>
        <time>2020-12-31T11:33:16Z</time>
      </trkpt>
      <trkpt lat="43.65723" lon="3.83009">
        <ele>93.3</ele>
        <time>2020-12-31T11:33:17Z</time>
      </trkpt>
      <trkpt lat="43.65724" lon="3.83005">
        <ele>93.2</ele>
        <time>2020-12-31T11:33:18Z</time>
      </trkpt>
      <trkpt lat="43.65724" lon="3.83001">
        <ele>93</ele>
        <time>2020-12-31T11:33:20Z</time>
      </trkpt>
      <trkpt lat="43.65725" lon="3.82991">
        <ele>93.3</ele>
        <time>2020-12-31T11:33:21Z</time>
      </trkpt>
      <trkpt lat="43.65726" lon="3.82985">
        <ele>93.4</ele>
        <time>2020-12-31T11:33:22Z</time>
      </trkpt>
      <trkpt lat="43.65727" lon="3.8298">
        <ele>93.5</ele>
        <time>2020-12-31T11:33:23Z</time>
      </trkpt>
      <trkpt lat="43.65731" lon="3.82964">
        <ele>93.5</ele>
        <time>2020-12-31T11:33:27Z</time>
      </trkpt>
      <trkpt lat="43.65734" lon="3.82952">
        <ele>93.3</ele>
        <time>2020-12-31T11:33:28Z</time>
      </trkpt>
      <trkpt lat="43.65735" lon="3.82946">
        <ele>93.2</ele>
        <time>2020-12-31T11:33:29Z</time>
      </trkpt>
      <trkpt lat="43.65738" lon="3.8294">
        <ele>92.6</ele>
        <time>2020-12-31T11:33:30Z</time>
      </trkpt>
      <trkpt lat="43.65745" lon="3.82933">
        <ele>91.3</ele>
        <time>2020-12-31T11:33:32Z</time>
      </trkpt>
      <trkpt lat="43.65749" lon="3.82934">
        <ele>90.8</ele>
        <time>2020-12-31T11:33:33Z</time>
      </trkpt>
      <trkpt lat="43.65753" lon="3.82942">
        <ele>90.7</ele>
        <time>2020-12-31T11:33:35Z</time>
      </trkpt>
      <trkpt lat="43.65755" lon="3.82947">
        <ele>90.7</ele>
        <time>2020-12-31T11:33:36Z</time>
      </trkpt>
      <trkpt lat="43.65756" lon="3.82953">
        <ele>90.8</ele>
        <time>2020-12-31T11:33:37Z</time>
      </trkpt>
      <trkpt lat="43.65758" lon="3.82959">
        <ele>90.8</ele>
        <time>2020-12-31T11:33:38Z</time>
      </trkpt>
      <trkpt lat="43.65759" lon="3.82965">
        <ele>90.9</ele>
        <time>2020-12-31T11:33:39Z</time>
      </trkpt>
      <trkpt lat="43.65761" lon="3.8297">
        <ele>90.8</ele>
        <time>2020-12-31T11:33:40Z</time>
      </trkpt>
      <trkpt lat="43.65763" lon="3.82976">
        <ele>90.7</ele>
        <time>2020-12-31T11:33:41Z</time>
      </trkpt>
      <trkpt lat="43.65765" lon="3.82982">
        <ele>90.5</ele>
        <time>2020-12-31T11:33:42Z</time>
      </trkpt>
      <trkpt lat="43.65769" lon="3.82994">
        <ele>99</ele>
        <time>2020-12-31T11:33:44Z</time>
      </trkpt>
      <trkpt lat="43.65771" lon="3.82999">
        <ele>90</ele>
        <time>2020-12-31T11:33:45Z</time>
      </trkpt>
      <trkpt lat="43.65775" lon="3.8301">
        <ele>89.7</ele>
        <time>2020-12-31T11:33:47Z</time>
      </trkpt>
      <trkpt lat="43.65777" lon="3.83015">
        <ele>89.6</ele>
        <time>2020-12-31T11:33:48Z</time>
      </trkpt>
      <trkpt lat="43.65778" lon="3.83021">
        <ele>89.8</ele>
        <time>2020-12-31T11:33:49Z</time>
      </trkpt>
      <trkpt lat="43.6578" lon="3.83026">
        <ele>89.9</ele>
        <time>2020-12-31T11:33:50Z</time>
      </trkpt>
      <trkpt lat="43.65782" lon="3.83031">
        <ele>90</ele>
        <time>2020-12-31T11:33:51Z</time>
      </trkpt>
      <trkpt lat="43.65785" lon="3.83035">
        <ele>89.9</ele>
        <time>2020-12-31T11:33:52Z</time>
      </trkpt>
      <trkpt lat="43.65788" lon="3.83038">
        <ele>89.7</ele>
        <time>2020-12-31T11:33:53Z</time>
      </trkpt>
      <trkpt lat="43.65791" lon="3.83039">
        <ele>97</ele>
        <time>2020-12-31T11:33:54Z</time>
      </trkpt>
      <trkpt lat="43.65793" lon="3.83038">
        <ele>89.6</ele>
        <time>2020-12-31T11:33:55Z</time>
      </trkpt>
      <trkpt lat="43.65796" lon="3.83035">
        <ele>89.7</ele>
        <time>2020-12-31T11:33:56Z</time>
      </trkpt>
      <trkpt lat="43.658" lon="3.83033">
        <ele>89.7</ele>
        <time>2020-12-31T11:33:57Z</time>
      </trkpt>
      <trkpt lat="43.65803" lon="3.83031">
        <ele>89.8</ele>
        <time>2020-12-31T11:33:58Z</time>
      </trkpt>
      <trkpt lat="43.65812" lon="3.83029">
        <ele>90.1</ele>
        <time>2020-12-31T11:34:00Z</time>
      </trkpt>
      <trkpt lat="43.65816" lon="3.83027">
        <ele>90.4</ele>
        <time>2020-12-31T11:34:01Z</time>
      </trkpt>
      <trkpt lat="43.6582" lon="3.83026">
        <ele>90.5</ele>
        <time>2020-12-31T11:34:02Z</time>
      </trkpt>
      <trkpt lat="43.65825" lon="3.83026">
        <ele>90.7</ele>
        <time>2020-12-31T11:34:03Z</time>
      </trkpt>
      <trkpt lat="43.65829" lon="3.83025">
        <ele>97</ele>
        <time>2020-12-31T11:34:04Z</time>
      </trkpt>
      <trkpt lat="43.65833" lon="3.83023">
        <ele>91</ele>
        <time>2020-12-31T11:34:05Z</time>
      </trkpt>
      <trkpt lat="43.65837" lon="3.8302">
        <ele>90.8</ele>
        <time>2020-12-31T11:34:06Z</time>
      </trkpt>
      <trkpt lat="43.65841" lon="3.83018">
        <ele>90.7</ele>
        <time>2020-12-31T11:34:07Z</time>
      </trkpt>
      <trkpt lat="43.65849" lon="3.83014">
        <ele>90.7</ele>
        <time>2020-12-31T11:34:09Z</time>
      </trkpt>
      <trkpt lat="43.65853" lon="3.83012">
        <ele>90.8</ele>
        <time>2020-12-31T11:34:10Z</time>
      </trkpt>
      <trkpt lat="43.65857" lon="3.83011">
        <ele>90.8</ele>
        <time>2020-12-31T11:34:11Z</time>
      </trkpt>
      <trkpt lat="43.6586" lon="3.83009">
        <ele>91</ele>
        <time>2020-12-31T11:34:12Z</time>
      </trkpt>
      <trkpt lat="43.65864" lon="3.83008">
        <ele>91.2</ele>
        <time>2020-12-31T11:34:13Z</time>
      </trkpt>
      <trkpt lat="43.65867" lon="3.83007">
        <ele>96</ele>
        <time>2020-12-31T11:34:14Z</time>
      </trkpt>
      <trkpt lat="43.65871" lon="3.83007">
        <ele>91.5</ele>
        <time>2020-12-31T11:34:15Z</time>
      </trkpt>
      <trkpt lat="43.65878" lon="3.83006">
        <ele>91.8</ele>
        <time>2020-12-31T11:34:17Z</time>
      </trkpt>
      <trkpt lat="43.65881" lon="3.83006">
        <ele>91.9</ele>
        <time>2020-12-31T11:34:18Z</time>
      </trkpt>
      <trkpt lat="43.65885" lon="3.83005">
        <ele>92.2</ele>
        <time>2020-12-31T11:34:19Z</time>
      </trkpt>
      <trkpt lat="43.65889" lon="3.83005">
        <ele>92.3</ele>
        <time>2020-12-31T11:34:21Z</time>
      </trkpt>
      <trkpt lat="43.65892" lon="3.83004">
        <ele>92.5</ele>
        <time>2020-12-31T11:34:22Z</time>
      </trkpt>
      <trkpt lat="43.65895" lon="3.83003">
        <ele>92.8</ele>
        <time>2020-12-31T11:34:23Z</time>
      </trkpt>
      <trkpt lat="43.65898" lon="3.83002">
        <ele>97</ele>
        <time>2020-12-31T11:34:24Z</time>
      </trkpt>
      <trkpt lat="43.65904" lon="3.83001">
        <ele>93.4</ele>
        <time>2020-12-31T11:34:25Z</time>
      </trkpt>
      <trkpt lat="43.65908" lon="3.83">
        <ele>93.7</ele>
        <time>2020-12-31T11:34:27Z</time>
      </trkpt>
      <trkpt lat="43.65911" lon="3.83">
        <ele>93.8</ele>
        <time>2020-12-31T11:34:28Z</time>
      </trkpt>
      <trkpt lat="43.65914" lon="3.82999">
        <ele>93.9</ele>
        <time>2020-12-31T11:34:29Z</time>
      </trkpt>
      <trkpt lat="43.65918" lon="3.82999">
        <ele>94</ele>
        <time>2020-12-31T11:34:30Z</time>
      </trkpt>
      <trkpt lat="43.65921" lon="3.82999">
        <ele>94.1</ele>
        <time>2020-12-31T11:34:31Z</time>
      </trkpt>
      <trkpt lat="43.65924" lon="3.82998">
        <ele>94.2</ele>
        <time>2020-12-31T11:34:32Z</time>
      </trkpt>
      <trkpt lat="43.65928" lon="3.82998">
        <ele>94.3</ele>
        <time>2020-12-31T11:34:33Z</time>
      </trkpt>
      <trkpt lat="43.65934" lon="3.82997">
        <ele>97</ele>
        <time>2020-12-31T11:34:34Z</time>
      </trkpt>
      <trkpt lat="43.65937" lon="3.82996">
        <ele>94.6</ele>
        <time>2020-12-31T11:34:36Z</time>
      </trkpt>
      <trkpt lat="43.6594" lon="3.82996">
        <ele>94.7</ele>
        <time>2020-12-31T11:34:37Z</time>
      </trkpt>
      <trkpt lat="43.65943" lon="3.82996">
        <ele>94.8</ele>
        <time>2020-12-31T11:34:38Z</time>
      </trkpt>
      <trkpt lat="43.65947" lon="3.82995">
        <ele>94.8</ele>
        <time>2020-12-31T11:34:39Z</time>
      </trkpt>
      <trkpt lat="43.6595" lon="3.82994">
        <ele>94.8</ele>
        <time>2020-12-31T11:34:40Z</time>
      </trkpt>
      <trkpt lat="43.65953" lon="3.82993">
        <ele>94.8</ele>
        <time>2020-12-31T11:34:41Z</time>
      </trkpt>
      <trkpt lat="43.65959" lon="3.82992">
        <ele>94.8</ele>
        <time>2020-12-31T11:34:42Z</time>
      </trkpt>
      <trkpt lat="43.65965" lon="3.8299">
        <ele>98</ele>
        <time>2020-12-31T11:34:44Z</time>
      </trkpt>
      <trkpt lat="43.65968" lon="3.8299">
        <ele>95</ele>
        <time>2020-12-31T11:34:45Z</time>
      </trkpt>
      <trkpt lat="43.65971" lon="3.82989">
        <ele>95.2</ele>
        <time>2020-12-31T11:34:46Z</time>
      </trkpt>
      <trkpt lat="43.65974" lon="3.82987">
        <ele>95.4</ele>
        <time>2020-12-31T11:34:47Z</time>
      </trkpt>
      <trkpt lat="43.65976" lon="3.82984">
        <ele>95.8</ele>
        <time>2020-12-31T11:34:48Z</time>
      </trkpt>
      <trkpt lat="43.65982" lon="3.8298">
        <ele>96.4</ele>
        <time>2020-12-31T11:34:50Z</time>
      </trkpt>
      <trkpt lat="43.65984" lon="3.82977">
        <ele>96.8</ele>
        <time>2020-12-31T11:34:51Z</time>
      </trkpt>
      <trkpt lat="43.65987" lon="3.82974">
        <ele>97.3</ele>
        <time>2020-12-31T11:34:52Z</time>
      </trkpt>
      <trkpt lat="43.6599" lon="3.82973">
        <ele>97.5</ele>
        <time>2020-12-31T11:34:53Z</time>
      </trkpt>
      <trkpt lat="43.65993" lon="3.82972">
        <ele>98</ele>
        <time>2020-12-31T11:34:54Z</time>
      </trkpt>
      <trkpt lat="43.66005" lon="3.82965">
        <ele>98.7</ele>
        <time>2020-12-31T11:34:59Z</time>
      </trkpt>
      <trkpt lat="43.6601" lon="3.82956">
        <ele>100</ele>
        <time>2020-12-31T11:35:02Z</time>
      </trkpt>
      <trkpt lat="43.66012" lon="3.82949">
        <ele>100</ele>
        <time>2020-12-31T11:35:04Z</time>
      </trkpt>
      <trkpt lat="43.66012" lon="3.82945">
        <ele>101.5</ele>
        <time>2020-12-31T11:35:05Z</time>
      </trkpt>
      <trkpt lat="43.66012" lon="3.82941">
        <ele>102</ele>
        <time>2020-12-31T11:35:06Z</time>
      </trkpt>
      <trkpt lat="43.66011" lon="3.82937">
        <ele>102.2</ele>
        <time>2020-12-31T11:35:07Z</time>
      </trkpt>
      <trkpt lat="43.6601" lon="3.82933">
        <ele>102.4</ele>
        <time>2020-12-31T11:35:08Z</time>
      </trkpt>
      <trkpt lat="43.66009" lon="3.8293">
        <ele>102.5</ele>
        <time>2020-12-31T11:35:09Z</time>
      </trkpt>
      <trkpt lat="43.66008" lon="3.82927">
        <ele>102.5</ele>
        <time>2020-12-31T11:35:10Z</time>
      </trkpt>
      <trkpt lat="43.66007" lon="3.82924">
        <ele>102.5</ele>
        <time>2020-12-31T11:35:11Z</time>
      </trkpt>
      <trkpt lat="43.66006" lon="3.82921">
        <ele>102.5</ele>
        <time>2020-12-31T11:35:12Z</time>
      </trkpt>
      <trkpt lat="43.66005" lon="3.82919">
        <ele>102.4</ele>
        <time>2020-12-31T11:35:13Z</time>
      </trkpt>
      <trkpt lat="43.66004" lon="3.82916">
        <ele>102</ele>
        <time>2020-12-31T11:35:14Z</time>
      </trkpt>
      <trkpt lat="43.66002" lon="3.82914">
        <ele>102</ele>
        <time>2020-12-31T11:35:15Z</time>
      </trkpt>
      <trkpt lat="43.66001" lon="3.82911">
        <ele>102</ele>
        <time>2020-12-31T11:35:16Z</time>
      </trkpt>
      <trkpt lat="43.66" lon="3.82908">
        <ele>101.9</ele>
        <time>2020-12-31T11:35:17Z</time>
      </trkpt>
      <trkpt lat="43.65999" lon="3.82905">
        <ele>102.2</ele>
        <time>2020-12-31T11:35:18Z</time>
      </trkpt>
      <trkpt lat="43.65997" lon="3.82902">
        <ele>102.3</ele>
        <time>2020-12-31T11:35:19Z</time>
      </trkpt>
      <trkpt lat="43.65995" lon="3.82899">
        <ele>102.4</ele>
        <time>2020-12-31T11:35:20Z</time>
      </trkpt>
      <trkpt lat="43.65994" lon="3.82896">
        <ele>102.6</ele>
        <time>2020-12-31T11:35:21Z</time>
      </trkpt>
      <trkpt lat="43.65992" lon="3.82893">
        <ele>102.7</ele>
        <time>2020-12-31T11:35:22Z</time>
      </trkpt>
      <trkpt lat="43.65991" lon="3.82889">
        <ele>103</ele>
        <time>2020-12-31T11:35:23Z</time>
      </trkpt>
      <trkpt lat="43.65989" lon="3.82886">
        <ele>103</ele>
        <time>2020-12-31T11:35:24Z</time>
      </trkpt>
      <trkpt lat="43.65988" lon="3.82882">
        <ele>103</ele>
        <time>2020-12-31T11:35:25Z</time>
      </trkpt>
      <trkpt lat="43.65986" lon="3.82879">
        <ele>102.8</ele>
        <time>2020-12-31T11:35:26Z</time>
      </trkpt>
      <trkpt lat="43.65985" lon="3.82875">
        <ele>102.8</ele>
        <time>2020-12-31T11:35:27Z</time>
      </trkpt>
      <trkpt lat="43.65984" lon="3.82872">
        <ele>102.8</ele>
        <time>2020-12-31T11:35:29Z</time>
      </trkpt>
      <trkpt lat="43.65981" lon="3.82865">
        <ele>102.5</ele>
        <time>2020-12-31T11:35:30Z</time>
      </trkpt>
      <trkpt lat="43.6598" lon="3.82862">
        <ele>102.4</ele>
        <time>2020-12-31T11:35:31Z</time>
      </trkpt>
      <trkpt lat="43.6598" lon="3.82859">
        <ele>102.3</ele>
        <time>2020-12-31T11:35:32Z</time>
      </trkpt>
      <trkpt lat="43.6598" lon="3.82856">
        <ele>102.2</ele>
        <time>2020-12-31T11:35:33Z</time>
      </trkpt>
      <trkpt lat="43.6598" lon="3.82851">
        <ele>103</ele>
        <time>2020-12-31T11:35:34Z</time>
      </trkpt>
      <trkpt lat="43.6598" lon="3.82847">
        <ele>101.9</ele>
        <time>2020-12-31T11:35:35Z</time>
      </trkpt>
      <trkpt lat="43.65981" lon="3.82843">
        <ele>101.9</ele>
        <time>2020-12-31T11:35:36Z</time>
      </trkpt>
      <trkpt lat="43.65983" lon="3.8284">
        <ele>102.2</ele>
        <time>2020-12-31T11:35:37Z</time>
      </trkpt>
      <trkpt lat="43.65985" lon="3.82837">
        <ele>102.4</ele>
        <time>2020-12-31T11:35:39Z</time>
      </trkpt>
      <trkpt lat="43.65987" lon="3.82834">
        <ele>102.7</ele>
        <time>2020-12-31T11:35:40Z</time>
      </trkpt>
      <trkpt lat="43.6599" lon="3.82827">
        <ele>102.5</ele>
        <time>2020-12-31T11:35:41Z</time>
      </trkpt>
      <trkpt lat="43.65992" lon="3.82825">
        <ele>102.5</ele>
        <time>2020-12-31T11:35:42Z</time>
      </trkpt>
      <trkpt lat="43.65994" lon="3.82823">
        <ele>102.6</ele>
        <time>2020-12-31T11:35:43Z</time>
      </trkpt>
      <trkpt lat="43.65996" lon="3.82821">
        <ele>104</ele>
        <time>2020-12-31T11:35:44Z</time>
      </trkpt>
      <trkpt lat="43.65998" lon="3.82819">
        <ele>102.7</ele>
        <time>2020-12-31T11:35:45Z</time>
      </trkpt>
      <trkpt lat="43.66001" lon="3.82815">
        <ele>102.6</ele>
        <time>2020-12-31T11:35:47Z</time>
      </trkpt>
      <trkpt lat="43.66003" lon="3.82813">
        <ele>102.7</ele>
        <time>2020-12-31T11:35:49Z</time>
      </trkpt>
      <trkpt lat="43.66005" lon="3.82812">
        <ele>103</ele>
        <time>2020-12-31T11:35:50Z</time>
      </trkpt>
      <trkpt lat="43.66006" lon="3.8281">
        <ele>102.8</ele>
        <time>2020-12-31T11:35:51Z</time>
      </trkpt>
      <trkpt lat="43.66008" lon="3.82808">
        <ele>102.9</ele>
        <time>2020-12-31T11:35:52Z</time>
      </trkpt>
      <trkpt lat="43.6601" lon="3.82806">
        <ele>102.9</ele>
        <time>2020-12-31T11:35:53Z</time>
      </trkpt>
      <trkpt lat="43.66014" lon="3.82803">
        <ele>106</ele>
        <time>2020-12-31T11:35:54Z</time>
      </trkpt>
      <trkpt lat="43.66017" lon="3.82801">
        <ele>103.4</ele>
        <time>2020-12-31T11:35:55Z</time>
      </trkpt>
      <trkpt lat="43.66019" lon="3.82799">
        <ele>103.5</ele>
        <time>2020-12-31T11:35:56Z</time>
      </trkpt>
      <trkpt lat="43.66021" lon="3.82797">
        <ele>103.5</ele>
        <time>2020-12-31T11:35:57Z</time>
      </trkpt>
      <trkpt lat="43.66024" lon="3.82795">
        <ele>103.6</ele>
        <time>2020-12-31T11:35:58Z</time>
      </trkpt>
      <trkpt lat="43.66027" lon="3.82793">
        <ele>103.6</ele>
        <time>2020-12-31T11:35:59Z</time>
      </trkpt>
      <trkpt lat="43.6603" lon="3.8279">
        <ele>103.6</ele>
        <time>2020-12-31T11:36:00Z</time>
      </trkpt>
      <trkpt lat="43.66033" lon="3.82788">
        <ele>103.7</ele>
        <time>2020-12-31T11:36:01Z</time>
      </trkpt>
      <trkpt lat="43.66035" lon="3.82786">
        <ele>103.7</ele>
        <time>2020-12-31T11:36:02Z</time>
      </trkpt>
      <trkpt lat="43.66038" lon="3.82783">
        <ele>103.6</ele>
        <time>2020-12-31T11:36:03Z</time>
      </trkpt>
      <trkpt lat="43.6604" lon="3.82781">
        <ele>103.4</ele>
        <time>2020-12-31T11:36:05Z</time>
      </trkpt>
      <trkpt lat="43.66042" lon="3.82779">
        <ele>103.3</ele>
        <time>2020-12-31T11:36:06Z</time>
      </trkpt>
      <trkpt lat="43.66045" lon="3.82776">
        <ele>103.2</ele>
        <time>2020-12-31T11:36:07Z</time>
      </trkpt>
      <trkpt lat="43.66049" lon="3.82772">
        <ele>103.3</ele>
        <time>2020-12-31T11:36:08Z</time>
      </trkpt>
      <trkpt lat="43.66051" lon="3.8277">
        <ele>103.3</ele>
        <time>2020-12-31T11:36:09Z</time>
      </trkpt>
      <trkpt lat="43.66053" lon="3.82767">
        <ele>103.1</ele>
        <time>2020-12-31T11:36:10Z</time>
      </trkpt>
      <trkpt lat="43.66055" lon="3.82764">
        <ele>102.9</ele>
        <time>2020-12-31T11:36:12Z</time>
      </trkpt>
      <trkpt lat="43.66057" lon="3.82761">
        <ele>102.8</ele>
        <time>2020-12-31T11:36:13Z</time>
      </trkpt>
      <trkpt lat="43.66059" lon="3.82758">
        <ele>106</ele>
        <time>2020-12-31T11:36:14Z</time>
      </trkpt>
      <trkpt lat="43.66061" lon="3.82755">
        <ele>102.3</ele>
        <time>2020-12-31T11:36:15Z</time>
      </trkpt>
      <trkpt lat="43.66063" lon="3.82752">
        <ele>101.9</ele>
        <time>2020-12-31T11:36:16Z</time>
      </trkpt>
      <trkpt lat="43.66065" lon="3.82748">
        <ele>101.4</ele>
        <time>2020-12-31T11:36:17Z</time>
      </trkpt>
      <trkpt lat="43.66068" lon="3.82744">
        <ele>101</ele>
        <time>2020-12-31T11:36:18Z</time>
      </trkpt>
      <trkpt lat="43.66071" lon="3.8274">
        <ele>100.7</ele>
        <time>2020-12-31T11:36:19Z</time>
      </trkpt>
      <trkpt lat="43.66077" lon="3.82727">
        <ele>99.2</ele>
        <time>2020-12-31T11:36:20Z</time>
      </trkpt>
      <trkpt lat="43.66081" lon="3.8272">
        <ele>98.5</ele>
        <time>2020-12-31T11:36:21Z</time>
      </trkpt>
      <trkpt lat="43.66085" lon="3.82712">
        <ele>97.6</ele>
        <time>2020-12-31T11:36:22Z</time>
      </trkpt>
      <trkpt lat="43.6609" lon="3.82705">
        <ele>96.9</ele>
        <time>2020-12-31T11:36:23Z</time>
      </trkpt>
      <trkpt lat="43.66095" lon="3.827">
        <ele>105</ele>
        <time>2020-12-31T11:36:24Z</time>
      </trkpt>
      <trkpt lat="43.661" lon="3.82696">
        <ele>96.9</ele>
        <time>2020-12-31T11:36:25Z</time>
      </trkpt>
      <trkpt lat="43.6611" lon="3.82688">
        <ele>97.6</ele>
        <time>2020-12-31T11:36:27Z</time>
      </trkpt>
      <trkpt lat="43.66115" lon="3.82686">
        <ele>97.9</ele>
        <time>2020-12-31T11:36:29Z</time>
      </trkpt>
      <trkpt lat="43.66119" lon="3.82685">
        <ele>98</ele>
        <time>2020-12-31T11:36:30Z</time>
      </trkpt>
      <trkpt lat="43.66123" lon="3.82684">
        <ele>98.2</ele>
        <time>2020-12-31T11:36:31Z</time>
      </trkpt>
      <trkpt lat="43.66126" lon="3.82684">
        <ele>98.4</ele>
        <time>2020-12-31T11:36:32Z</time>
      </trkpt>
      <trkpt lat="43.6613" lon="3.82684">
        <ele>98.6</ele>
        <time>2020-12-31T11:36:33Z</time>
      </trkpt>
      <trkpt lat="43.66133" lon="3.82685">
        <ele>105</ele>
        <time>2020-12-31T11:36:34Z</time>
      </trkpt>
      <trkpt lat="43.66136" lon="3.82685">
        <ele>98.9</ele>
        <time>2020-12-31T11:36:35Z</time>
      </trkpt>
      <trkpt lat="43.66142" lon="3.82687">
        <ele>99.4</ele>
        <time>2020-12-31T11:36:36Z</time>
      </trkpt>
      <trkpt lat="43.66144" lon="3.82688">
        <ele>99.6</ele>
        <time>2020-12-31T11:36:37Z</time>
      </trkpt>
      <trkpt lat="43.66147" lon="3.82689">
        <ele>100</ele>
        <time>2020-12-31T11:36:38Z</time>
      </trkpt>
      <trkpt lat="43.66149" lon="3.8269">
        <ele>100.3</ele>
        <time>2020-12-31T11:36:39Z</time>
      </trkpt>
      <trkpt lat="43.66151" lon="3.82691">
        <ele>100.6</ele>
        <time>2020-12-31T11:36:40Z</time>
      </trkpt>
      <trkpt lat="43.66153" lon="3.82692">
        <ele>100.9</ele>
        <time>2020-12-31T11:36:41Z</time>
      </trkpt>
      <trkpt lat="43.66155" lon="3.82693">
        <ele>101.2</ele>
        <time>2020-12-31T11:36:42Z</time>
      </trkpt>
      <trkpt lat="43.66156" lon="3.82694">
        <ele>101.4</ele>
        <time>2020-12-31T11:36:43Z</time>
      </trkpt>
      <trkpt lat="43.66158" lon="3.82696">
        <ele>105</ele>
        <time>2020-12-31T11:36:44Z</time>
      </trkpt>
      <trkpt lat="43.6616" lon="3.82697">
        <ele>102.2</ele>
        <time>2020-12-31T11:36:46Z</time>
      </trkpt>
      <trkpt lat="43.66161" lon="3.82699">
        <ele>102.5</ele>
        <time>2020-12-31T11:36:47Z</time>
      </trkpt>
      <trkpt lat="43.66163" lon="3.82701">
        <ele>103</ele>
        <time>2020-12-31T11:36:48Z</time>
      </trkpt>
      <trkpt lat="43.66165" lon="3.82703">
        <ele>103.4</ele>
        <time>2020-12-31T11:36:49Z</time>
      </trkpt>
      <trkpt lat="43.66168" lon="3.82706">
        <ele>103.9</ele>
        <time>2020-12-31T11:36:50Z</time>
      </trkpt>
      <trkpt lat="43.66169" lon="3.82708">
        <ele>104.1</ele>
        <time>2020-12-31T11:36:51Z</time>
      </trkpt>
      <trkpt lat="43.66171" lon="3.82709">
        <ele>104.2</ele>
        <time>2020-12-31T11:36:53Z</time>
      </trkpt>
      <trkpt lat="43.66172" lon="3.82711">
        <ele>106</ele>
        <time>2020-12-31T11:36:54Z</time>
      </trkpt>
      <trkpt lat="43.66176" lon="3.82713">
        <ele>104.7</ele>
        <time>2020-12-31T11:36:56Z</time>
      </trkpt>
      <trkpt lat="43.66181" lon="3.82713">
        <ele>104.9</ele>
        <time>2020-12-31T11:36:58Z</time>
      </trkpt>
      <trkpt lat="43.66183" lon="3.82713">
        <ele>104.9</ele>
        <time>2020-12-31T11:37:00Z</time>
      </trkpt>
      <trkpt lat="43.66185" lon="3.82713">
        <ele>105</ele>
        <time>2020-12-31T11:37:01Z</time>
      </trkpt>
      <trkpt lat="43.66187" lon="3.82713">
        <ele>105.1</ele>
        <time>2020-12-31T11:37:02Z</time>
      </trkpt>
      <trkpt lat="43.66189" lon="3.82712">
        <ele>105.1</ele>
        <time>2020-12-31T11:37:03Z</time>
      </trkpt>
      <trkpt lat="43.66191" lon="3.82711">
        <ele>106</ele>
        <time>2020-12-31T11:37:04Z</time>
      </trkpt>
      <trkpt lat="43.66193" lon="3.8271">
        <ele>105.1</ele>
        <time>2020-12-31T11:37:05Z</time>
      </trkpt>
      <trkpt lat="43.66195" lon="3.8271">
        <ele>105.2</ele>
        <time>2020-12-31T11:37:06Z</time>
      </trkpt>
      <trkpt lat="43.66197" lon="3.82709">
        <ele>105.2</ele>
        <time>2020-12-31T11:37:07Z</time>
      </trkpt>
      <trkpt lat="43.662" lon="3.82708">
        <ele>105.4</ele>
        <time>2020-12-31T11:37:08Z</time>
      </trkpt>
      <trkpt lat="43.66202" lon="3.82707">
        <ele>105.4</ele>
        <time>2020-12-31T11:37:09Z</time>
      </trkpt>
      <trkpt lat="43.66204" lon="3.82707">
        <ele>105.6</ele>
        <time>2020-12-31T11:37:10Z</time>
      </trkpt>
      <trkpt lat="43.66206" lon="3.82707">
        <ele>105.7</ele>
        <time>2020-12-31T11:37:11Z</time>
      </trkpt>
      <trkpt lat="43.66208" lon="3.82707">
        <ele>105.9</ele>
        <time>2020-12-31T11:37:12Z</time>
      </trkpt>
      <trkpt lat="43.66212" lon="3.82708">
        <ele>107</ele>
        <time>2020-12-31T11:37:14Z</time>
      </trkpt>
      <trkpt lat="43.66214" lon="3.82709">
        <ele>106.5</ele>
        <time>2020-12-31T11:37:15Z</time>
      </trkpt>
      <trkpt lat="43.66217" lon="3.8271">
        <ele>106.7</ele>
        <time>2020-12-31T11:37:18Z</time>
      </trkpt>
      <trkpt lat="43.66219" lon="3.82713">
        <ele>107.1</ele>
        <time>2020-12-31T11:37:19Z</time>
      </trkpt>
      <trkpt lat="43.66221" lon="3.82715">
        <ele>107.4</ele>
        <time>2020-12-31T11:37:21Z</time>
      </trkpt>
      <trkpt lat="43.66222" lon="3.82718">
        <ele>108</ele>
        <time>2020-12-31T11:37:24Z</time>
      </trkpt>
      <trkpt lat="43.66224" lon="3.82721">
        <ele>107.9</ele>
        <time>2020-12-31T11:37:26Z</time>
      </trkpt>
      <trkpt lat="43.66227" lon="3.82723">
        <ele>108.1</ele>
        <time>2020-12-31T11:37:28Z</time>
      </trkpt>
      <trkpt lat="43.66231" lon="3.82724">
        <ele>108.3</ele>
        <time>2020-12-31T11:37:29Z</time>
      </trkpt>
      <trkpt lat="43.66233" lon="3.82724">
        <ele>108.3</ele>
        <time>2020-12-31T11:37:32Z</time>
      </trkpt>
      <trkpt lat="43.66236" lon="3.82724">
        <ele>109</ele>
        <time>2020-12-31T11:37:34Z</time>
      </trkpt>
      <trkpt lat="43.6624" lon="3.82723">
        <ele>108.1</ele>
        <time>2020-12-31T11:37:35Z</time>
      </trkpt>
      <trkpt lat="43.66242" lon="3.82722">
        <ele>108</ele>
        <time>2020-12-31T11:37:36Z</time>
      </trkpt>
      <trkpt lat="43.66245" lon="3.82721">
        <ele>107.9</ele>
        <time>2020-12-31T11:37:37Z</time>
      </trkpt>
      <trkpt lat="43.66248" lon="3.82719">
        <ele>107.8</ele>
        <time>2020-12-31T11:37:38Z</time>
      </trkpt>
      <trkpt lat="43.66249" lon="3.82717">
        <ele>107.6</ele>
        <time>2020-12-31T11:37:39Z</time>
      </trkpt>
      <trkpt lat="43.6625" lon="3.82713">
        <ele>107.3</ele>
        <time>2020-12-31T11:37:40Z</time>
      </trkpt>
      <trkpt lat="43.66252" lon="3.82707">
        <ele>107.4</ele>
        <time>2020-12-31T11:37:42Z</time>
      </trkpt>
      <trkpt lat="43.66253" lon="3.82703">
        <ele>107.3</ele>
        <time>2020-12-31T11:37:43Z</time>
      </trkpt>
      <trkpt lat="43.66255" lon="3.827">
        <ele>111</ele>
        <time>2020-12-31T11:37:44Z</time>
      </trkpt>
      <trkpt lat="43.66256" lon="3.82697">
        <ele>107.5</ele>
        <time>2020-12-31T11:37:45Z</time>
      </trkpt>
      <trkpt lat="43.66258" lon="3.82695">
        <ele>107.8</ele>
        <time>2020-12-31T11:37:47Z</time>
      </trkpt>
      <trkpt lat="43.66259" lon="3.82693">
        <ele>107.8</ele>
        <time>2020-12-31T11:37:51Z</time>
      </trkpt>
      <trkpt lat="43.66259" lon="3.82689">
        <ele>111</ele>
        <time>2020-12-31T11:37:54Z</time>
      </trkpt>
      <trkpt lat="43.66258" lon="3.82687">
        <ele>107</ele>
        <time>2020-12-31T11:37:55Z</time>
      </trkpt>
      <trkpt lat="43.66256" lon="3.82683">
        <ele>106.3</ele>
        <time>2020-12-31T11:37:57Z</time>
      </trkpt>
      <trkpt lat="43.66255" lon="3.82679">
        <ele>105.8</ele>
        <time>2020-12-31T11:37:58Z</time>
      </trkpt>
      <trkpt lat="43.66256" lon="3.82676">
        <ele>105.7</ele>
        <time>2020-12-31T11:38:00Z</time>
      </trkpt>
      <trkpt lat="43.66257" lon="3.82674">
        <ele>105.7</ele>
        <time>2020-12-31T11:38:02Z</time>
      </trkpt>
      <trkpt lat="43.66258" lon="3.8267">
        <ele>111</ele>
        <time>2020-12-31T11:38:04Z</time>
      </trkpt>
      <trkpt lat="43.66258" lon="3.82666">
        <ele>105.1</ele>
        <time>2020-12-31T11:38:06Z</time>
      </trkpt>
      <trkpt lat="43.66258" lon="3.82662">
        <ele>104.9</ele>
        <time>2020-12-31T11:38:08Z</time>
      </trkpt>
      <trkpt lat="43.66258" lon="3.82658">
        <ele>104.7</ele>
        <time>2020-12-31T11:38:09Z</time>
      </trkpt>
      <trkpt lat="43.66258" lon="3.82654">
        <ele>104.4</ele>
        <time>2020-12-31T11:38:10Z</time>
      </trkpt>
      <trkpt lat="43.66258" lon="3.82651">
        <ele>104.3</ele>
        <time>2020-12-31T11:38:11Z</time>
      </trkpt>
      <trkpt lat="43.66258" lon="3.82648">
        <ele>104.1</ele>
        <time>2020-12-31T11:38:12Z</time>
      </trkpt>
      <trkpt lat="43.66257" lon="3.82644">
        <ele>103.8</ele>
        <time>2020-12-31T11:38:13Z</time>
      </trkpt>
      <trkpt lat="43.66256" lon="3.82641">
        <ele>112</ele>
        <time>2020-12-31T11:38:14Z</time>
      </trkpt>
      <trkpt lat="43.66255" lon="3.82638">
        <ele>103.4</ele>
        <time>2020-12-31T11:38:16Z</time>
      </trkpt>
      <trkpt lat="43.66255" lon="3.82633">
        <ele>103.4</ele>
        <time>2020-12-31T11:38:18Z</time>
      </trkpt>
      <trkpt lat="43.66256" lon="3.82631">
        <ele>103.6</ele>
        <time>2020-12-31T11:38:19Z</time>
      </trkpt>
      <trkpt lat="43.66257" lon="3.82629">
        <ele>103.7</ele>
        <time>2020-12-31T11:38:20Z</time>
      </trkpt>
      <trkpt lat="43.66259" lon="3.82628">
        <ele>103.9</ele>
        <time>2020-12-31T11:38:21Z</time>
      </trkpt>
      <trkpt lat="43.66261" lon="3.82627">
        <ele>104.1</ele>
        <time>2020-12-31T11:38:22Z</time>
      </trkpt>
      <trkpt lat="43.66263" lon="3.82627">
        <ele>104.3</ele>
        <time>2020-12-31T11:38:23Z</time>
      </trkpt>
      <trkpt lat="43.66267" lon="3.82627">
        <ele>112</ele>
        <time>2020-12-31T11:38:24Z</time>
      </trkpt>
      <trkpt lat="43.66269" lon="3.82627">
        <ele>105</ele>
        <time>2020-12-31T11:38:26Z</time>
      </trkpt>
      <trkpt lat="43.66271" lon="3.82626">
        <ele>105.2</ele>
        <time>2020-12-31T11:38:27Z</time>
      </trkpt>
      <trkpt lat="43.66274" lon="3.82625">
        <ele>105.6</ele>
        <time>2020-12-31T11:38:29Z</time>
      </trkpt>
      <trkpt lat="43.66277" lon="3.82625">
        <ele>105.9</ele>
        <time>2020-12-31T11:38:30Z</time>
      </trkpt>
      <trkpt lat="43.6628" lon="3.82625">
        <ele>106.4</ele>
        <time>2020-12-31T11:38:32Z</time>
      </trkpt>
      <trkpt lat="43.66282" lon="3.82624">
        <ele>112</ele>
        <time>2020-12-31T11:38:34Z</time>
      </trkpt>
      <trkpt lat="43.66285" lon="3.82623">
        <ele>107.6</ele>
        <time>2020-12-31T11:38:36Z</time>
      </trkpt>
      <trkpt lat="43.66287" lon="3.8262">
        <ele>108.1</ele>
        <time>2020-12-31T11:38:38Z</time>
      </trkpt>
      <trkpt lat="43.66288" lon="3.82617">
        <ele>108.5</ele>
        <time>2020-12-31T11:38:40Z</time>
      </trkpt>
      <trkpt lat="43.66289" lon="3.82615">
        <ele>108.8</ele>
        <time>2020-12-31T11:38:41Z</time>
      </trkpt>
      <trkpt lat="43.6629" lon="3.82611">
        <ele>109.2</ele>
        <time>2020-12-31T11:38:42Z</time>
      </trkpt>
      <trkpt lat="43.66292" lon="3.82608">
        <ele>109.4</ele>
        <time>2020-12-31T11:38:43Z</time>
      </trkpt>
      <trkpt lat="43.66293" lon="3.82605">
        <ele>113</ele>
        <time>2020-12-31T11:38:44Z</time>
      </trkpt>
      <trkpt lat="43.66295" lon="3.82602">
        <ele>109.6</ele>
        <time>2020-12-31T11:38:45Z</time>
      </trkpt>
      <trkpt lat="43.66296" lon="3.826">
        <ele>109.6</ele>
        <time>2020-12-31T11:38:46Z</time>
      </trkpt>
      <trkpt lat="43.66296" lon="3.82597">
        <ele>109.4</ele>
        <time>2020-12-31T11:38:47Z</time>
      </trkpt>
      <trkpt lat="43.66295" lon="3.82588">
        <ele>108.8</ele>
        <time>2020-12-31T11:38:48Z</time>
      </trkpt>
      <trkpt lat="43.66296" lon="3.82584">
        <ele>108.7</ele>
        <time>2020-12-31T11:38:49Z</time>
      </trkpt>
      <trkpt lat="43.66296" lon="3.82579">
        <ele>108.6</ele>
        <time>2020-12-31T11:38:50Z</time>
      </trkpt>
      <trkpt lat="43.66297" lon="3.82575">
        <ele>108.7</ele>
        <time>2020-12-31T11:38:51Z</time>
      </trkpt>
      <trkpt lat="43.66297" lon="3.82572">
        <ele>108.6</ele>
        <time>2020-12-31T11:38:52Z</time>
      </trkpt>
      <trkpt lat="43.66299" lon="3.82569">
        <ele>108.9</ele>
        <time>2020-12-31T11:38:53Z</time>
      </trkpt>
      <trkpt lat="43.66301" lon="3.82566">
        <ele>113</ele>
        <time>2020-12-31T11:38:54Z</time>
      </trkpt>
      <trkpt lat="43.66302" lon="3.82563">
        <ele>109.4</ele>
        <time>2020-12-31T11:38:55Z</time>
      </trkpt>
      <trkpt lat="43.66303" lon="3.8256">
        <ele>109.6</ele>
        <time>2020-12-31T11:38:57Z</time>
      </trkpt>
      <trkpt lat="43.66303" lon="3.82556">
        <ele>109.5</ele>
        <time>2020-12-31T11:38:58Z</time>
      </trkpt>
      <trkpt lat="43.66302" lon="3.82552">
        <ele>109.1</ele>
        <time>2020-12-31T11:38:59Z</time>
      </trkpt>
      <trkpt lat="43.66301" lon="3.82548">
        <ele>108.7</ele>
        <time>2020-12-31T11:39:00Z</time>
      </trkpt>
      <trkpt lat="43.66301" lon="3.82545">
        <ele>108.5</ele>
        <time>2020-12-31T11:39:01Z</time>
      </trkpt>
      <trkpt lat="43.66301" lon="3.82541">
        <ele>108.3</ele>
        <time>2020-12-31T11:39:02Z</time>
      </trkpt>
      <trkpt lat="43.663" lon="3.82538">
        <ele>108</ele>
        <time>2020-12-31T11:39:03Z</time>
      </trkpt>
      <trkpt lat="43.663" lon="3.8253">
        <ele>113</ele>
        <time>2020-12-31T11:39:04Z</time>
      </trkpt>
      <trkpt lat="43.663" lon="3.82526">
        <ele>107.3</ele>
        <time>2020-12-31T11:39:05Z</time>
      </trkpt>
      <trkpt lat="43.663" lon="3.82522">
        <ele>107.2</ele>
        <time>2020-12-31T11:39:06Z</time>
      </trkpt>
      <trkpt lat="43.66301" lon="3.82519">
        <ele>107.1</ele>
        <time>2020-12-31T11:39:07Z</time>
      </trkpt>
      <trkpt lat="43.66301" lon="3.82516">
        <ele>107</ele>
        <time>2020-12-31T11:39:08Z</time>
      </trkpt>
      <trkpt lat="43.66302" lon="3.82512">
        <ele>107</ele>
        <time>2020-12-31T11:39:09Z</time>
      </trkpt>
      <trkpt lat="43.66301" lon="3.82508">
        <ele>106.7</ele>
        <time>2020-12-31T11:39:10Z</time>
      </trkpt>
      <trkpt lat="43.66302" lon="3.82503">
        <ele>106.6</ele>
        <time>2020-12-31T11:39:11Z</time>
      </trkpt>
      <trkpt lat="43.66302" lon="3.82498">
        <ele>106.4</ele>
        <time>2020-12-31T11:39:12Z</time>
      </trkpt>
      <trkpt lat="43.66303" lon="3.82493">
        <ele>106.2</ele>
        <time>2020-12-31T11:39:13Z</time>
      </trkpt>
      <trkpt lat="43.66304" lon="3.82488">
        <ele>112</ele>
        <time>2020-12-31T11:39:14Z</time>
      </trkpt>
      <trkpt lat="43.66305" lon="3.82482">
        <ele>105.6</ele>
        <time>2020-12-31T11:39:15Z</time>
      </trkpt>
      <trkpt lat="43.66306" lon="3.82477">
        <ele>105.5</ele>
        <time>2020-12-31T11:39:16Z</time>
      </trkpt>
      <trkpt lat="43.66308" lon="3.82471">
        <ele>105.7</ele>
        <time>2020-12-31T11:39:17Z</time>
      </trkpt>
      <trkpt lat="43.66308" lon="3.82465">
        <ele>105.6</ele>
        <time>2020-12-31T11:39:19Z</time>
      </trkpt>
      <trkpt lat="43.66309" lon="3.82459">
        <ele>105.7</ele>
        <time>2020-12-31T11:39:20Z</time>
      </trkpt>
      <trkpt lat="43.6631" lon="3.82454">
        <ele>105.8</ele>
        <time>2020-12-31T11:39:21Z</time>
      </trkpt>
      <trkpt lat="43.66314" lon="3.82448">
        <ele>106.1</ele>
        <time>2020-12-31T11:39:22Z</time>
      </trkpt>
      <trkpt lat="43.66316" lon="3.82447">
        <ele>113</ele>
        <time>2020-12-31T11:39:24Z</time>
      </trkpt>
      <trkpt lat="43.66319" lon="3.82443">
        <ele>106.5</ele>
        <time>2020-12-31T11:39:25Z</time>
      </trkpt>
      <trkpt lat="43.66321" lon="3.82441">
        <ele>106.7</ele>
        <time>2020-12-31T11:39:27Z</time>
      </trkpt>
      <trkpt lat="43.66325" lon="3.82438">
        <ele>107.3</ele>
        <time>2020-12-31T11:39:28Z</time>
      </trkpt>
      <trkpt lat="43.66328" lon="3.82434">
        <ele>107.7</ele>
        <time>2020-12-31T11:39:30Z</time>
      </trkpt>
      <trkpt lat="43.6633" lon="3.82432">
        <ele>108</ele>
        <time>2020-12-31T11:39:31Z</time>
      </trkpt>
      <trkpt lat="43.66331" lon="3.82431">
        <ele>108.2</ele>
        <time>2020-12-31T11:39:32Z</time>
      </trkpt>
      <trkpt lat="43.66334" lon="3.82429">
        <ele>114</ele>
        <time>2020-12-31T11:39:34Z</time>
      </trkpt>
      <trkpt lat="43.66337" lon="3.82428">
        <ele>109.7</ele>
        <time>2020-12-31T11:39:36Z</time>
      </trkpt>
      <trkpt lat="43.66339" lon="3.82427">
        <ele>110.2</ele>
        <time>2020-12-31T11:39:39Z</time>
      </trkpt>
      <trkpt lat="43.66342" lon="3.82425">
        <ele>111</ele>
        <time>2020-12-31T11:39:41Z</time>
      </trkpt>
      <trkpt lat="43.66345" lon="3.82423">
        <ele>111.8</ele>
        <time>2020-12-31T11:39:43Z</time>
      </trkpt>
      <trkpt lat="43.66347" lon="3.82421">
        <ele>112.2</ele>
        <time>2020-12-31T11:39:45Z</time>
      </trkpt>
      <trkpt lat="43.66349" lon="3.82418">
        <ele>112.5</ele>
        <time>2020-12-31T11:39:46Z</time>
      </trkpt>
      <trkpt lat="43.66352" lon="3.82416">
        <ele>113</ele>
        <time>2020-12-31T11:39:49Z</time>
      </trkpt>
      <trkpt lat="43.66354" lon="3.82414">
        <ele>113.3</ele>
        <time>2020-12-31T11:39:51Z</time>
      </trkpt>
      <trkpt lat="43.66356" lon="3.82412">
        <ele>113.6</ele>
        <time>2020-12-31T11:39:53Z</time>
      </trkpt>
      <trkpt lat="43.66358" lon="3.82411">
        <ele>113.9</ele>
        <time>2020-12-31T11:39:55Z</time>
      </trkpt>
      <trkpt lat="43.6636" lon="3.82409">
        <ele>114.2</ele>
        <time>2020-12-31T11:39:57Z</time>
      </trkpt>
      <trkpt lat="43.66362" lon="3.82407">
        <ele>114.5</ele>
        <time>2020-12-31T11:40:03Z</time>
      </trkpt>
      <trkpt lat="43.66362" lon="3.82406">
        <ele>117</ele>
        <time>2020-12-31T11:40:04Z</time>
      </trkpt>
      <trkpt lat="43.66365" lon="3.82399">
        <ele>118</ele>
        <time>2020-12-31T11:40:08Z</time>
      </trkpt>
      <trkpt lat="43.66366" lon="3.82396">
        <ele>114.5</ele>
        <time>2020-12-31T11:40:09Z</time>
      </trkpt>
      <trkpt lat="43.66366" lon="3.82393">
        <ele>114.2</ele>
        <time>2020-12-31T11:40:10Z</time>
      </trkpt>
      <trkpt lat="43.66365" lon="3.8239">
        <ele>113.8</ele>
        <time>2020-12-31T11:40:12Z</time>
      </trkpt>
      <trkpt lat="43.66363" lon="3.82385">
        <ele>113.5</ele>
        <time>2020-12-31T11:40:13Z</time>
      </trkpt>
      <trkpt lat="43.66361" lon="3.82379">
        <ele>113.3</ele>
        <time>2020-12-31T11:40:14Z</time>
      </trkpt>
      <trkpt lat="43.66358" lon="3.82367">
        <ele>113.2</ele>
        <time>2020-12-31T11:40:15Z</time>
      </trkpt>
      <trkpt lat="43.66356" lon="3.82363">
        <ele>113</ele>
        <time>2020-12-31T11:40:17Z</time>
      </trkpt>
      <trkpt lat="43.6635" lon="3.82356">
        <ele>118</ele>
        <time>2020-12-31T11:40:18Z</time>
      </trkpt>
      <trkpt lat="43.66347" lon="3.82352">
        <ele>112.4</ele>
        <time>2020-12-31T11:40:19Z</time>
      </trkpt>
      <trkpt lat="43.66344" lon="3.82347">
        <ele>112.3</ele>
        <time>2020-12-31T11:40:20Z</time>
      </trkpt>
      <trkpt lat="43.66342" lon="3.82343">
        <ele>112.3</ele>
        <time>2020-12-31T11:40:21Z</time>
      </trkpt>
      <trkpt lat="43.66338" lon="3.82341">
        <ele>111.5</ele>
        <time>2020-12-31T11:40:22Z</time>
      </trkpt>
      <trkpt lat="43.66335" lon="3.82337">
        <ele>111.1</ele>
        <time>2020-12-31T11:40:23Z</time>
      </trkpt>
      <trkpt lat="43.66333" lon="3.82332">
        <ele>111</ele>
        <time>2020-12-31T11:40:24Z</time>
      </trkpt>
      <trkpt lat="43.66331" lon="3.82326">
        <ele>111.1</ele>
        <time>2020-12-31T11:40:25Z</time>
      </trkpt>
      <trkpt lat="43.66325" lon="3.82314">
        <ele>110.9</ele>
        <time>2020-12-31T11:40:27Z</time>
      </trkpt>
      <trkpt lat="43.66323" lon="3.82309">
        <ele>118</ele>
        <time>2020-12-31T11:40:28Z</time>
      </trkpt>
      <trkpt lat="43.66321" lon="3.82305">
        <ele>110.8</ele>
        <time>2020-12-31T11:40:29Z</time>
      </trkpt>
      <trkpt lat="43.6632" lon="3.82301">
        <ele>111</ele>
        <time>2020-12-31T11:40:30Z</time>
      </trkpt>
      <trkpt lat="43.66318" lon="3.82297">
        <ele>111</ele>
        <time>2020-12-31T11:40:31Z</time>
      </trkpt>
      <trkpt lat="43.66317" lon="3.82293">
        <ele>111.2</ele>
        <time>2020-12-31T11:40:32Z</time>
      </trkpt>
      <trkpt lat="43.66316" lon="3.82289">
        <ele>111.3</ele>
        <time>2020-12-31T11:40:33Z</time>
      </trkpt>
      <trkpt lat="43.66315" lon="3.82285">
        <ele>111.4</ele>
        <time>2020-12-31T11:40:34Z</time>
      </trkpt>
      <trkpt lat="43.66313" lon="3.82277">
        <ele>111.7</ele>
        <time>2020-12-31T11:40:36Z</time>
      </trkpt>
      <trkpt lat="43.66313" lon="3.82274">
        <ele>111.8</ele>
        <time>2020-12-31T11:40:37Z</time>
      </trkpt>
      <trkpt lat="43.66313" lon="3.8227">
        <ele>117</ele>
        <time>2020-12-31T11:40:38Z</time>
      </trkpt>
      <trkpt lat="43.66312" lon="3.82266">
        <ele>112</ele>
        <time>2020-12-31T11:40:39Z</time>
      </trkpt>
      <trkpt lat="43.66312" lon="3.82263">
        <ele>112.2</ele>
        <time>2020-12-31T11:40:40Z</time>
      </trkpt>
      <trkpt lat="43.66312" lon="3.82256">
        <ele>112.5</ele>
        <time>2020-12-31T11:40:42Z</time>
      </trkpt>
      <trkpt lat="43.66311" lon="3.82253">
        <ele>112.4</ele>
        <time>2020-12-31T11:40:44Z</time>
      </trkpt>
      <trkpt lat="43.66311" lon="3.82249">
        <ele>112.6</ele>
        <time>2020-12-31T11:40:45Z</time>
      </trkpt>
      <trkpt lat="43.66311" lon="3.82245">
        <ele>112.9</ele>
        <time>2020-12-31T11:40:46Z</time>
      </trkpt>
      <trkpt lat="43.6631" lon="3.82241">
        <ele>112.8</ele>
        <time>2020-12-31T11:40:47Z</time>
      </trkpt>
      <trkpt lat="43.6631" lon="3.82237">
        <ele>117</ele>
        <time>2020-12-31T11:40:48Z</time>
      </trkpt>
      <trkpt lat="43.66309" lon="3.82233">
        <ele>113.1</ele>
        <time>2020-12-31T11:40:49Z</time>
      </trkpt>
      <trkpt lat="43.66309" lon="3.82229">
        <ele>113.3</ele>
        <time>2020-12-31T11:40:50Z</time>
      </trkpt>
      <trkpt lat="43.66309" lon="3.82225">
        <ele>113.6</ele>
        <time>2020-12-31T11:40:51Z</time>
      </trkpt>
      <trkpt lat="43.66308" lon="3.82218">
        <ele>113.7</ele>
        <time>2020-12-31T11:40:52Z</time>
      </trkpt>
      <trkpt lat="43.66308" lon="3.82214">
        <ele>113.9</ele>
        <time>2020-12-31T11:40:53Z</time>
      </trkpt>
      <trkpt lat="43.66308" lon="3.8221">
        <ele>114</ele>
        <time>2020-12-31T11:40:54Z</time>
      </trkpt>
      <trkpt lat="43.66307" lon="3.82206">
        <ele>114</ele>
        <time>2020-12-31T11:40:55Z</time>
      </trkpt>
      <trkpt lat="43.66307" lon="3.82202">
        <ele>114.1</ele>
        <time>2020-12-31T11:40:56Z</time>
      </trkpt>
      <trkpt lat="43.66306" lon="3.82199">
        <ele>114</ele>
        <time>2020-12-31T11:40:57Z</time>
      </trkpt>
      <trkpt lat="43.66305" lon="3.82195">
        <ele>118</ele>
        <time>2020-12-31T11:40:58Z</time>
      </trkpt>
      <trkpt lat="43.66304" lon="3.8219">
        <ele>114.2</ele>
        <time>2020-12-31T11:40:59Z</time>
      </trkpt>
      <trkpt lat="43.66303" lon="3.82186">
        <ele>114.4</ele>
        <time>2020-12-31T11:41:00Z</time>
      </trkpt>
      <trkpt lat="43.66302" lon="3.82182">
        <ele>114.6</ele>
        <time>2020-12-31T11:41:01Z</time>
      </trkpt>
      <trkpt lat="43.66301" lon="3.82178">
        <ele>114.8</ele>
        <time>2020-12-31T11:41:02Z</time>
      </trkpt>
      <trkpt lat="43.66299" lon="3.82174">
        <ele>114.7</ele>
        <time>2020-12-31T11:41:03Z</time>
      </trkpt>
      <trkpt lat="43.66298" lon="3.82171">
        <ele>114.7</ele>
        <time>2020-12-31T11:41:04Z</time>
      </trkpt>
      <trkpt lat="43.66296" lon="3.82167">
        <ele>114.6</ele>
        <time>2020-12-31T11:41:05Z</time>
      </trkpt>
      <trkpt lat="43.66291" lon="3.82158">
        <ele>113.8</ele>
        <time>2020-12-31T11:41:07Z</time>
      </trkpt>
      <trkpt lat="43.66288" lon="3.82154">
        <ele>118</ele>
        <time>2020-12-31T11:41:08Z</time>
      </trkpt>
      <trkpt lat="43.66285" lon="3.82149">
        <ele>112.6</ele>
        <time>2020-12-31T11:41:09Z</time>
      </trkpt>
      <trkpt lat="43.66282" lon="3.82143">
        <ele>112</ele>
        <time>2020-12-31T11:41:10Z</time>
      </trkpt>
      <trkpt lat="43.66279" lon="3.82137">
        <ele>111.5</ele>
        <time>2020-12-31T11:41:11Z</time>
      </trkpt>
      <trkpt lat="43.66276" lon="3.8213">
        <ele>111.3</ele>
        <time>2020-12-31T11:41:12Z</time>
      </trkpt>
      <trkpt lat="43.66273" lon="3.82123">
        <ele>111.1</ele>
        <time>2020-12-31T11:41:13Z</time>
      </trkpt>
      <trkpt lat="43.66271" lon="3.82116">
        <ele>111.2</ele>
        <time>2020-12-31T11:41:14Z</time>
      </trkpt>
      <trkpt lat="43.66269" lon="3.82109">
        <ele>111.3</ele>
        <time>2020-12-31T11:41:15Z</time>
      </trkpt>
      <trkpt lat="43.66267" lon="3.82103">
        <ele>111.2</ele>
        <time>2020-12-31T11:41:16Z</time>
      </trkpt>
      <trkpt lat="43.66265" lon="3.82096">
        <ele>111.1</ele>
        <time>2020-12-31T11:41:17Z</time>
      </trkpt>
      <trkpt lat="43.66263" lon="3.82091">
        <ele>118</ele>
        <time>2020-12-31T11:41:18Z</time>
      </trkpt>
      <trkpt lat="43.66261" lon="3.82085">
        <ele>110.5</ele>
        <time>2020-12-31T11:41:19Z</time>
      </trkpt>
      <trkpt lat="43.66258" lon="3.82079">
        <ele>110</ele>
        <time>2020-12-31T11:41:20Z</time>
      </trkpt>
      <trkpt lat="43.66252" lon="3.82063">
        <ele>109.2</ele>
        <time>2020-12-31T11:41:22Z</time>
      </trkpt>
      <trkpt lat="43.66248" lon="3.82047">
        <ele>109.5</ele>
        <time>2020-12-31T11:41:24Z</time>
      </trkpt>
      <trkpt lat="43.66246" lon="3.82041">
        <ele>109.7</ele>
        <time>2020-12-31T11:41:25Z</time>
      </trkpt>
      <trkpt lat="43.66245" lon="3.82036">
        <ele>110</ele>
        <time>2020-12-31T11:41:26Z</time>
      </trkpt>
      <trkpt lat="43.66244" lon="3.82032">
        <ele>110.2</ele>
        <time>2020-12-31T11:41:27Z</time>
      </trkpt>
      <trkpt lat="43.66242" lon="3.82028">
        <ele>117</ele>
        <time>2020-12-31T11:41:28Z</time>
      </trkpt>
      <trkpt lat="43.6624" lon="3.82024">
        <ele>110.3</ele>
        <time>2020-12-31T11:41:29Z</time>
      </trkpt>
      <trkpt lat="43.66238" lon="3.82022">
        <ele>110.1</ele>
        <time>2020-12-31T11:41:30Z</time>
      </trkpt>
      <trkpt lat="43.66235" lon="3.82019">
        <ele>109.7</ele>
        <time>2020-12-31T11:41:31Z</time>
      </trkpt>
      <trkpt lat="43.66231" lon="3.82016">
        <ele>109</ele>
        <time>2020-12-31T11:41:32Z</time>
      </trkpt>
      <trkpt lat="43.66228" lon="3.82012">
        <ele>108.6</ele>
        <time>2020-12-31T11:41:33Z</time>
      </trkpt>
      <trkpt lat="43.66219" lon="3.82006">
        <ele>106.9</ele>
        <time>2020-12-31T11:41:35Z</time>
      </trkpt>
      <trkpt lat="43.66207" lon="3.82">
        <ele>116</ele>
        <time>2020-12-31T11:41:38Z</time>
      </trkpt>
      <trkpt lat="43.66202" lon="3.81989">
        <ele>104.4</ele>
        <time>2020-12-31T11:41:40Z</time>
      </trkpt>
      <trkpt lat="43.66203" lon="3.81981">
        <ele>105.2</ele>
        <time>2020-12-31T11:41:42Z</time>
      </trkpt>
      <trkpt lat="43.66204" lon="3.81977">
        <ele>105.7</ele>
        <time>2020-12-31T11:41:44Z</time>
      </trkpt>
      <trkpt lat="43.66207" lon="3.81972">
        <ele>106.7</ele>
        <time>2020-12-31T11:41:45Z</time>
      </trkpt>
      <trkpt lat="43.66208" lon="3.81967">
        <ele>114</ele>
        <time>2020-12-31T11:41:48Z</time>
      </trkpt>
      <trkpt lat="43.66209" lon="3.81965">
        <ele>107.4</ele>
        <time>2020-12-31T11:41:49Z</time>
      </trkpt>
      <trkpt lat="43.66209" lon="3.81961">
        <ele>107.5</ele>
        <time>2020-12-31T11:41:50Z</time>
      </trkpt>
      <trkpt lat="43.66209" lon="3.81958">
        <ele>107.7</ele>
        <time>2020-12-31T11:41:51Z</time>
      </trkpt>
      <trkpt lat="43.66209" lon="3.81953">
        <ele>107.8</ele>
        <time>2020-12-31T11:41:52Z</time>
      </trkpt>
      <trkpt lat="43.66209" lon="3.8195">
        <ele>107.9</ele>
        <time>2020-12-31T11:41:53Z</time>
      </trkpt>
      <trkpt lat="43.66209" lon="3.81947">
        <ele>108.1</ele>
        <time>2020-12-31T11:41:54Z</time>
      </trkpt>
      <trkpt lat="43.66209" lon="3.81943">
        <ele>108.1</ele>
        <time>2020-12-31T11:41:55Z</time>
      </trkpt>
      <trkpt lat="43.6621" lon="3.81939">
        <ele>108.4</ele>
        <time>2020-12-31T11:41:56Z</time>
      </trkpt>
      <trkpt lat="43.6621" lon="3.81936">
        <ele>108.4</ele>
        <time>2020-12-31T11:41:57Z</time>
      </trkpt>
      <trkpt lat="43.66211" lon="3.81932">
        <ele>114</ele>
        <time>2020-12-31T11:41:58Z</time>
      </trkpt>
      <trkpt lat="43.66212" lon="3.81928">
        <ele>108.8</ele>
        <time>2020-12-31T11:41:59Z</time>
      </trkpt>
      <trkpt lat="43.66212" lon="3.81924">
        <ele>108.8</ele>
        <time>2020-12-31T11:42:00Z</time>
      </trkpt>
      <trkpt lat="43.66213" lon="3.81921">
        <ele>109</ele>
        <time>2020-12-31T11:42:01Z</time>
      </trkpt>
      <trkpt lat="43.66214" lon="3.81917">
        <ele>109.2</ele>
        <time>2020-12-31T11:42:02Z</time>
      </trkpt>
      <trkpt lat="43.66215" lon="3.81914">
        <ele>109.3</ele>
        <time>2020-12-31T11:42:03Z</time>
      </trkpt>
      <trkpt lat="43.66215" lon="3.8191">
        <ele>109.2</ele>
        <time>2020-12-31T11:42:04Z</time>
      </trkpt>
      <trkpt lat="43.66216" lon="3.81907">
        <ele>109.3</ele>
        <time>2020-12-31T11:42:05Z</time>
      </trkpt>
      <trkpt lat="43.66217" lon="3.81903">
        <ele>109.4</ele>
        <time>2020-12-31T11:42:06Z</time>
      </trkpt>
      <trkpt lat="43.66217" lon="3.819">
        <ele>109.3</ele>
        <time>2020-12-31T11:42:07Z</time>
      </trkpt>
      <trkpt lat="43.66218" lon="3.81896">
        <ele>115</ele>
        <time>2020-12-31T11:42:08Z</time>
      </trkpt>
      <trkpt lat="43.66218" lon="3.81893">
        <ele>109.2</ele>
        <time>2020-12-31T11:42:09Z</time>
      </trkpt>
      <trkpt lat="43.66218" lon="3.81889">
        <ele>109.1</ele>
        <time>2020-12-31T11:42:10Z</time>
      </trkpt>
      <trkpt lat="43.66218" lon="3.81886">
        <ele>109.1</ele>
        <time>2020-12-31T11:42:11Z</time>
      </trkpt>
      <trkpt lat="43.66218" lon="3.81882">
        <ele>109.2</ele>
        <time>2020-12-31T11:42:12Z</time>
      </trkpt>
      <trkpt lat="43.66218" lon="3.81878">
        <ele>109.2</ele>
        <time>2020-12-31T11:42:13Z</time>
      </trkpt>
      <trkpt lat="43.66218" lon="3.81875">
        <ele>109.2</ele>
        <time>2020-12-31T11:42:14Z</time>
      </trkpt>
      <trkpt lat="43.66218" lon="3.81871">
        <ele>109.3</ele>
        <time>2020-12-31T11:42:15Z</time>
      </trkpt>
      <trkpt lat="43.66219" lon="3.81868">
        <ele>109.5</ele>
        <time>2020-12-31T11:42:16Z</time>
      </trkpt>
      <trkpt lat="43.6622" lon="3.81864">
        <ele>109.7</ele>
        <time>2020-12-31T11:42:17Z</time>
      </trkpt>
      <trkpt lat="43.66221" lon="3.8186">
        <ele>115</ele>
        <time>2020-12-31T11:42:18Z</time>
      </trkpt>
      <trkpt lat="43.66222" lon="3.81855">
        <ele>110</ele>
        <time>2020-12-31T11:42:19Z</time>
      </trkpt>
      <trkpt lat="43.66222" lon="3.81851">
        <ele>110</ele>
        <time>2020-12-31T11:42:20Z</time>
      </trkpt>
      <trkpt lat="43.66222" lon="3.81849">
        <ele>110</ele>
        <time>2020-12-31T11:42:21Z</time>
      </trkpt>
      <trkpt lat="43.66223" lon="3.81844">
        <ele>110.2</ele>
        <time>2020-12-31T11:42:23Z</time>
      </trkpt>
      <trkpt lat="43.66225" lon="3.81842">
        <ele>110.8</ele>
        <time>2020-12-31T11:42:24Z</time>
      </trkpt>
      <trkpt lat="43.66226" lon="3.8184">
        <ele>111.1</ele>
        <time>2020-12-31T11:42:25Z</time>
      </trkpt>
      <trkpt lat="43.66227" lon="3.81837">
        <ele>111.4</ele>
        <time>2020-12-31T11:42:26Z</time>
      </trkpt>
      <trkpt lat="43.66227" lon="3.81834">
        <ele>111.4</ele>
        <time>2020-12-31T11:42:27Z</time>
      </trkpt>
      <trkpt lat="43.66227" lon="3.81831">
        <ele>116</ele>
        <time>2020-12-31T11:42:28Z</time>
      </trkpt>
      <trkpt lat="43.66226" lon="3.81828">
        <ele>111.1</ele>
        <time>2020-12-31T11:42:29Z</time>
      </trkpt>
      <trkpt lat="43.66225" lon="3.81824">
        <ele>110.9</ele>
        <time>2020-12-31T11:42:30Z</time>
      </trkpt>
      <trkpt lat="43.66225" lon="3.8182">
        <ele>110.9</ele>
        <time>2020-12-31T11:42:31Z</time>
      </trkpt>
      <trkpt lat="43.66224" lon="3.81815">
        <ele>110.6</ele>
        <time>2020-12-31T11:42:32Z</time>
      </trkpt>
      <trkpt lat="43.66224" lon="3.8181">
        <ele>110.6</ele>
        <time>2020-12-31T11:42:33Z</time>
      </trkpt>
      <trkpt lat="43.66224" lon="3.81805">
        <ele>110.7</ele>
        <time>2020-12-31T11:42:34Z</time>
      </trkpt>
      <trkpt lat="43.66225" lon="3.81801">
        <ele>111.1</ele>
        <time>2020-12-31T11:42:35Z</time>
      </trkpt>
      <trkpt lat="43.66226" lon="3.81797">
        <ele>111.6</ele>
        <time>2020-12-31T11:42:36Z</time>
      </trkpt>
      <trkpt lat="43.66225" lon="3.81793">
        <ele>111.4</ele>
        <time>2020-12-31T11:42:37Z</time>
      </trkpt>
      <trkpt lat="43.66225" lon="3.8179">
        <ele>116</ele>
        <time>2020-12-31T11:42:38Z</time>
      </trkpt>
      <trkpt lat="43.66226" lon="3.81783">
        <ele>112.1</ele>
        <time>2020-12-31T11:42:39Z</time>
      </trkpt>
      <trkpt lat="43.66227" lon="3.8178">
        <ele>112.5</ele>
        <time>2020-12-31T11:42:40Z</time>
      </trkpt>
      <trkpt lat="43.66228" lon="3.81777">
        <ele>112.9</ele>
        <time>2020-12-31T11:42:42Z</time>
      </trkpt>
      <trkpt lat="43.66228" lon="3.81775">
        <ele>112.9</ele>
        <time>2020-12-31T11:42:43Z</time>
      </trkpt>
      <trkpt lat="43.66229" lon="3.81767">
        <ele>113.4</ele>
        <time>2020-12-31T11:42:45Z</time>
      </trkpt>
      <trkpt lat="43.66229" lon="3.81758">
        <ele>116</ele>
        <time>2020-12-31T11:42:48Z</time>
      </trkpt>
      <trkpt lat="43.66229" lon="3.81755">
        <ele>113.6</ele>
        <time>2020-12-31T11:42:49Z</time>
      </trkpt>
      <trkpt lat="43.66228" lon="3.81752">
        <ele>113.3</ele>
        <time>2020-12-31T11:42:50Z</time>
      </trkpt>
      <trkpt lat="43.66228" lon="3.81749">
        <ele>113.3</ele>
        <time>2020-12-31T11:42:51Z</time>
      </trkpt>
      <trkpt lat="43.66227" lon="3.81746">
        <ele>113.1</ele>
        <time>2020-12-31T11:42:52Z</time>
      </trkpt>
      <trkpt lat="43.66227" lon="3.81744">
        <ele>113.2</ele>
        <time>2020-12-31T11:42:53Z</time>
      </trkpt>
      <trkpt lat="43.66226" lon="3.8174">
        <ele>113.1</ele>
        <time>2020-12-31T11:42:54Z</time>
      </trkpt>
      <trkpt lat="43.66225" lon="3.81737">
        <ele>112.9</ele>
        <time>2020-12-31T11:42:55Z</time>
      </trkpt>
      <trkpt lat="43.66225" lon="3.81733">
        <ele>113.2</ele>
        <time>2020-12-31T11:42:57Z</time>
      </trkpt>
      <trkpt lat="43.66225" lon="3.81728">
        <ele>117</ele>
        <time>2020-12-31T11:42:58Z</time>
      </trkpt>
      <trkpt lat="43.66225" lon="3.81725">
        <ele>113.7</ele>
        <time>2020-12-31T11:42:59Z</time>
      </trkpt>
      <trkpt lat="43.66223" lon="3.81718">
        <ele>113.3</ele>
        <time>2020-12-31T11:43:00Z</time>
      </trkpt>
      <trkpt lat="43.66222" lon="3.81715">
        <ele>112.9</ele>
        <time>2020-12-31T11:43:01Z</time>
      </trkpt>
      <trkpt lat="43.66221" lon="3.81711">
        <ele>112.7</ele>
        <time>2020-12-31T11:43:02Z</time>
      </trkpt>
      <trkpt lat="43.66221" lon="3.81707">
        <ele>112.7</ele>
        <time>2020-12-31T11:43:03Z</time>
      </trkpt>
      <trkpt lat="43.6622" lon="3.81704">
        <ele>112.4</ele>
        <time>2020-12-31T11:43:04Z</time>
      </trkpt>
      <trkpt lat="43.6622" lon="3.817">
        <ele>112.4</ele>
        <time>2020-12-31T11:43:05Z</time>
      </trkpt>
      <trkpt lat="43.6622" lon="3.81696">
        <ele>112.4</ele>
        <time>2020-12-31T11:43:06Z</time>
      </trkpt>
      <trkpt lat="43.6622" lon="3.81693">
        <ele>112.5</ele>
        <time>2020-12-31T11:43:07Z</time>
      </trkpt>
      <trkpt lat="43.6622" lon="3.8169">
        <ele>118</ele>
        <time>2020-12-31T11:43:08Z</time>
      </trkpt>
      <trkpt lat="43.6622" lon="3.81686">
        <ele>112.7</ele>
        <time>2020-12-31T11:43:09Z</time>
      </trkpt>
      <trkpt lat="43.6622" lon="3.81683">
        <ele>112.8</ele>
        <time>2020-12-31T11:43:10Z</time>
      </trkpt>
      <trkpt lat="43.6622" lon="3.8168">
        <ele>112.9</ele>
        <time>2020-12-31T11:43:11Z</time>
      </trkpt>
      <trkpt lat="43.66219" lon="3.81676">
        <ele>112.7</ele>
        <time>2020-12-31T11:43:13Z</time>
      </trkpt>
      <trkpt lat="43.6622" lon="3.81673">
        <ele>113.1</ele>
        <time>2020-12-31T11:43:14Z</time>
      </trkpt>
      <trkpt lat="43.66221" lon="3.8167">
        <ele>113.5</ele>
        <time>2020-12-31T11:43:15Z</time>
      </trkpt>
      <trkpt lat="43.66221" lon="3.81666">
        <ele>113.6</ele>
        <time>2020-12-31T11:43:17Z</time>
      </trkpt>
      <trkpt lat="43.6622" lon="3.81664">
        <ele>118</ele>
        <time>2020-12-31T11:43:18Z</time>
      </trkpt>
      <trkpt lat="43.66219" lon="3.8166">
        <ele>112.7</ele>
        <time>2020-12-31T11:43:19Z</time>
      </trkpt>
      <trkpt lat="43.66218" lon="3.81652">
        <ele>112.1</ele>
        <time>2020-12-31T11:43:20Z</time>
      </trkpt>
      <trkpt lat="43.66217" lon="3.81648">
        <ele>111.6</ele>
        <time>2020-12-31T11:43:22Z</time>
      </trkpt>
      <trkpt lat="43.66216" lon="3.81643">
        <ele>111.1</ele>
        <time>2020-12-31T11:43:23Z</time>
      </trkpt>
      <trkpt lat="43.66217" lon="3.81632">
        <ele>111.1</ele>
        <time>2020-12-31T11:43:24Z</time>
      </trkpt>
      <trkpt lat="43.66219" lon="3.81628">
        <ele>111.6</ele>
        <time>2020-12-31T11:43:25Z</time>
      </trkpt>
      <trkpt lat="43.6622" lon="3.81623">
        <ele>111.8</ele>
        <time>2020-12-31T11:43:26Z</time>
      </trkpt>
      <trkpt lat="43.6622" lon="3.8162">
        <ele>111.7</ele>
        <time>2020-12-31T11:43:27Z</time>
      </trkpt>
      <trkpt lat="43.66219" lon="3.81617">
        <ele>118</ele>
        <time>2020-12-31T11:43:28Z</time>
      </trkpt>
      <trkpt lat="43.66217" lon="3.81615">
        <ele>110.6</ele>
        <time>2020-12-31T11:43:30Z</time>
      </trkpt>
      <trkpt lat="43.66215" lon="3.81612">
        <ele>109.9</ele>
        <time>2020-12-31T11:43:31Z</time>
      </trkpt>
      <trkpt lat="43.66214" lon="3.81607">
        <ele>109.5</ele>
        <time>2020-12-31T11:43:32Z</time>
      </trkpt>
      <trkpt lat="43.66214" lon="3.81603">
        <ele>109.3</ele>
        <time>2020-12-31T11:43:33Z</time>
      </trkpt>
      <trkpt lat="43.66215" lon="3.81599">
        <ele>109.5</ele>
        <time>2020-12-31T11:43:34Z</time>
      </trkpt>
      <trkpt lat="43.66215" lon="3.81596">
        <ele>109.4</ele>
        <time>2020-12-31T11:43:35Z</time>
      </trkpt>
      <trkpt lat="43.66215" lon="3.81593">
        <ele>109.3</ele>
        <time>2020-12-31T11:43:36Z</time>
      </trkpt>
      <trkpt lat="43.66214" lon="3.81589">
        <ele>108.8</ele>
        <time>2020-12-31T11:43:37Z</time>
      </trkpt>
      <trkpt lat="43.66213" lon="3.81583">
        <ele>118</ele>
        <time>2020-12-31T11:43:38Z</time>
      </trkpt>
      <trkpt lat="43.66212" lon="3.81581">
        <ele>108.1</ele>
        <time>2020-12-31T11:43:39Z</time>
      </trkpt>
      <trkpt lat="43.66211" lon="3.81579">
        <ele>107.8</ele>
        <time>2020-12-31T11:43:40Z</time>
      </trkpt>
      <trkpt lat="43.66209" lon="3.81577">
        <ele>107.2</ele>
        <time>2020-12-31T11:43:41Z</time>
      </trkpt>
      <trkpt lat="43.66207" lon="3.81574">
        <ele>106.6</ele>
        <time>2020-12-31T11:43:42Z</time>
      </trkpt>
      <trkpt lat="43.66205" lon="3.81572">
        <ele>105.9</ele>
        <time>2020-12-31T11:43:43Z</time>
      </trkpt>
      <trkpt lat="43.66205" lon="3.81568">
        <ele>105.9</ele>
        <time>2020-12-31T11:43:44Z</time>
      </trkpt>
      <trkpt lat="43.66206" lon="3.81563">
        <ele>106.2</ele>
        <time>2020-12-31T11:43:45Z</time>
      </trkpt>
      <trkpt lat="43.66207" lon="3.81558">
        <ele>106.5</ele>
        <time>2020-12-31T11:43:46Z</time>
      </trkpt>
      <trkpt lat="43.66208" lon="3.81553">
        <ele>106.9</ele>
        <time>2020-12-31T11:43:47Z</time>
      </trkpt>
      <trkpt lat="43.66209" lon="3.81549">
        <ele>116</ele>
        <time>2020-12-31T11:43:48Z</time>
      </trkpt>
      <trkpt lat="43.66209" lon="3.81545">
        <ele>107.4</ele>
        <time>2020-12-31T11:43:49Z</time>
      </trkpt>
      <trkpt lat="43.66208" lon="3.81543">
        <ele>107.1</ele>
        <time>2020-12-31T11:43:50Z</time>
      </trkpt>
      <trkpt lat="43.66207" lon="3.8154">
        <ele>106.8</ele>
        <time>2020-12-31T11:43:51Z</time>
      </trkpt>
      <trkpt lat="43.66206" lon="3.81537">
        <ele>106.6</ele>
        <time>2020-12-31T11:43:52Z</time>
      </trkpt>
      <trkpt lat="43.66205" lon="3.81535">
        <ele>106.3</ele>
        <time>2020-12-31T11:43:53Z</time>
      </trkpt>
      <trkpt lat="43.66204" lon="3.81532">
        <ele>106</ele>
        <time>2020-12-31T11:43:55Z</time>
      </trkpt>
      <trkpt lat="43.66202" lon="3.8153">
        <ele>105.4</ele>
        <time>2020-12-31T11:43:56Z</time>
      </trkpt>
      <trkpt lat="43.66201" lon="3.81527">
        <ele>105.1</ele>
        <time>2020-12-31T11:43:57Z</time>
      </trkpt>
      <trkpt lat="43.662" lon="3.81525">
        <ele>116</ele>
        <time>2020-12-31T11:43:58Z</time>
      </trkpt>
      <trkpt lat="43.662" lon="3.81522">
        <ele>104.8</ele>
        <time>2020-12-31T11:43:59Z</time>
      </trkpt>
      <trkpt lat="43.66199" lon="3.81519">
        <ele>104.5</ele>
        <time>2020-12-31T11:44:00Z</time>
      </trkpt>
      <trkpt lat="43.66199" lon="3.81517">
        <ele>104.5</ele>
        <time>2020-12-31T11:44:01Z</time>
      </trkpt>
      <trkpt lat="43.66197" lon="3.81515">
        <ele>103.9</ele>
        <time>2020-12-31T11:44:02Z</time>
      </trkpt>
      <trkpt lat="43.66193" lon="3.81505">
        <ele>102.7</ele>
        <time>2020-12-31T11:44:03Z</time>
      </trkpt>
      <trkpt lat="43.66192" lon="3.815">
        <ele>102.5</ele>
        <time>2020-12-31T11:44:05Z</time>
      </trkpt>
      <trkpt lat="43.66191" lon="3.81496">
        <ele>102.2</ele>
        <time>2020-12-31T11:44:06Z</time>
      </trkpt>
      <trkpt lat="43.66191" lon="3.81493">
        <ele>102.2</ele>
        <time>2020-12-31T11:44:07Z</time>
      </trkpt>
      <trkpt lat="43.66191" lon="3.81489">
        <ele>113</ele>
        <time>2020-12-31T11:44:08Z</time>
      </trkpt>
      <trkpt lat="43.6619" lon="3.81485">
        <ele>102</ele>
        <time>2020-12-31T11:44:09Z</time>
      </trkpt>
      <trkpt lat="43.66188" lon="3.81482">
        <ele>101.5</ele>
        <time>2020-12-31T11:44:10Z</time>
      </trkpt>
      <trkpt lat="43.66187" lon="3.81479">
        <ele>101.2</ele>
        <time>2020-12-31T11:44:11Z</time>
      </trkpt>
      <trkpt lat="43.66185" lon="3.81478">
        <ele>100.7</ele>
        <time>2020-12-31T11:44:12Z</time>
      </trkpt>
      <trkpt lat="43.66182" lon="3.81476">
        <ele>99.9</ele>
        <time>2020-12-31T11:44:13Z</time>
      </trkpt>
      <trkpt lat="43.6618" lon="3.81474">
        <ele>99.4</ele>
        <time>2020-12-31T11:44:14Z</time>
      </trkpt>
      <trkpt lat="43.66179" lon="3.81471">
        <ele>99</ele>
        <time>2020-12-31T11:44:15Z</time>
      </trkpt>
      <trkpt lat="43.66177" lon="3.81467">
        <ele>98.3</ele>
        <time>2020-12-31T11:44:16Z</time>
      </trkpt>
      <trkpt lat="43.66174" lon="3.81464">
        <ele>97.5</ele>
        <time>2020-12-31T11:44:17Z</time>
      </trkpt>
      <trkpt lat="43.66172" lon="3.81461">
        <ele>111</ele>
        <time>2020-12-31T11:44:18Z</time>
      </trkpt>
      <trkpt lat="43.66169" lon="3.81457">
        <ele>96</ele>
        <time>2020-12-31T11:44:19Z</time>
      </trkpt>
      <trkpt lat="43.66167" lon="3.81454">
        <ele>95.4</ele>
        <time>2020-12-31T11:44:20Z</time>
      </trkpt>
      <trkpt lat="43.66166" lon="3.8145">
        <ele>95.1</ele>
        <time>2020-12-31T11:44:22Z</time>
      </trkpt>
      <trkpt lat="43.66166" lon="3.81446">
        <ele>95</ele>
        <time>2020-12-31T11:44:23Z</time>
      </trkpt>
      <trkpt lat="43.66167" lon="3.81443">
        <ele>95</ele>
        <time>2020-12-31T11:44:24Z</time>
      </trkpt>
      <trkpt lat="43.66167" lon="3.81438">
        <ele>94.6</ele>
        <time>2020-12-31T11:44:26Z</time>
      </trkpt>
      <trkpt lat="43.66167" lon="3.81435">
        <ele>94.4</ele>
        <time>2020-12-31T11:44:27Z</time>
      </trkpt>
      <trkpt lat="43.66168" lon="3.81432">
        <ele>108</ele>
        <time>2020-12-31T11:44:28Z</time>
      </trkpt>
      <trkpt lat="43.66169" lon="3.81429">
        <ele>94.4</ele>
        <time>2020-12-31T11:44:29Z</time>
      </trkpt>
      <trkpt lat="43.6617" lon="3.81427">
        <ele>94.5</ele>
        <time>2020-12-31T11:44:30Z</time>
      </trkpt>
      <trkpt lat="43.6617" lon="3.81424">
        <ele>94.3</ele>
        <time>2020-12-31T11:44:31Z</time>
      </trkpt>
      <trkpt lat="43.66168" lon="3.81421">
        <ele>93.6</ele>
        <time>2020-12-31T11:44:32Z</time>
      </trkpt>
      <trkpt lat="43.66167" lon="3.81417">
        <ele>93.1</ele>
        <time>2020-12-31T11:44:33Z</time>
      </trkpt>
      <trkpt lat="43.66166" lon="3.81413">
        <ele>92.8</ele>
        <time>2020-12-31T11:44:34Z</time>
      </trkpt>
      <trkpt lat="43.66165" lon="3.81407">
        <ele>92.4</ele>
        <time>2020-12-31T11:44:35Z</time>
      </trkpt>
      <trkpt lat="43.66164" lon="3.81402">
        <ele>92.1</ele>
        <time>2020-12-31T11:44:36Z</time>
      </trkpt>
      <trkpt lat="43.66161" lon="3.81396">
        <ele>91.4</ele>
        <time>2020-12-31T11:44:37Z</time>
      </trkpt>
      <trkpt lat="43.66156" lon="3.8138">
        <ele>106</ele>
        <time>2020-12-31T11:44:38Z</time>
      </trkpt>
      <trkpt lat="43.66155" lon="3.81372">
        <ele>89.4</ele>
        <time>2020-12-31T11:44:39Z</time>
      </trkpt>
      <trkpt lat="43.66153" lon="3.81364">
        <ele>88.7</ele>
        <time>2020-12-31T11:44:40Z</time>
      </trkpt>
      <trkpt lat="43.6615" lon="3.81356">
        <ele>88.1</ele>
        <time>2020-12-31T11:44:41Z</time>
      </trkpt>
      <trkpt lat="43.66148" lon="3.81348">
        <ele>87.7</ele>
        <time>2020-12-31T11:44:42Z</time>
      </trkpt>
      <trkpt lat="43.66147" lon="3.81341">
        <ele>87.4</ele>
        <time>2020-12-31T11:44:43Z</time>
      </trkpt>
      <trkpt lat="43.66145" lon="3.81334">
        <ele>86.9</ele>
        <time>2020-12-31T11:44:44Z</time>
      </trkpt>
      <trkpt lat="43.66144" lon="3.81328">
        <ele>86.7</ele>
        <time>2020-12-31T11:44:45Z</time>
      </trkpt>
      <trkpt lat="43.66144" lon="3.81324">
        <ele>86.6</ele>
        <time>2020-12-31T11:44:46Z</time>
      </trkpt>
      <trkpt lat="43.66147" lon="3.81323">
        <ele>101</ele>
        <time>2020-12-31T11:44:48Z</time>
      </trkpt>
      <trkpt lat="43.66149" lon="3.81321">
        <ele>87.1</ele>
        <time>2020-12-31T11:44:50Z</time>
      </trkpt>
      <trkpt lat="43.66153" lon="3.8132">
        <ele>87.5</ele>
        <time>2020-12-31T11:44:53Z</time>
      </trkpt>
      <trkpt lat="43.66156" lon="3.81317">
        <ele>87.7</ele>
        <time>2020-12-31T11:44:54Z</time>
      </trkpt>
      <trkpt lat="43.66158" lon="3.81316">
        <ele>87.9</ele>
        <time>2020-12-31T11:44:55Z</time>
      </trkpt>
      <trkpt lat="43.6616" lon="3.81315">
        <ele>88</ele>
        <time>2020-12-31T11:44:56Z</time>
      </trkpt>
      <trkpt lat="43.66161" lon="3.81314">
        <ele>88.1</ele>
        <time>2020-12-31T11:44:57Z</time>
      </trkpt>
      <trkpt lat="43.66165" lon="3.81311">
        <ele>88.2</ele>
        <time>2020-12-31T11:44:59Z</time>
      </trkpt>
      <trkpt lat="43.66167" lon="3.8131">
        <ele>88.4</ele>
        <time>2020-12-31T11:45:00Z</time>
      </trkpt>
      <trkpt lat="43.66169" lon="3.81309">
        <ele>88.5</ele>
        <time>2020-12-31T11:45:02Z</time>
      </trkpt>
      <trkpt lat="43.6617" lon="3.81308">
        <ele>88.5</ele>
        <time>2020-12-31T11:45:03Z</time>
      </trkpt>
      <trkpt lat="43.66172" lon="3.81307">
        <ele>88.7</ele>
        <time>2020-12-31T11:45:04Z</time>
      </trkpt>
      <trkpt lat="43.66174" lon="3.81305">
        <ele>88.8</ele>
        <time>2020-12-31T11:45:05Z</time>
      </trkpt>
      <trkpt lat="43.66176" lon="3.81304">
        <ele>88.9</ele>
        <time>2020-12-31T11:45:06Z</time>
      </trkpt>
      <trkpt lat="43.66177" lon="3.81303">
        <ele>89</ele>
        <time>2020-12-31T11:45:07Z</time>
      </trkpt>
      <trkpt lat="43.66179" lon="3.81301">
        <ele>95</ele>
        <time>2020-12-31T11:45:08Z</time>
      </trkpt>
      <trkpt lat="43.66181" lon="3.813">
        <ele>89.2</ele>
        <time>2020-12-31T11:45:09Z</time>
      </trkpt>
      <trkpt lat="43.66182" lon="3.81299">
        <ele>89.3</ele>
        <time>2020-12-31T11:45:10Z</time>
      </trkpt>
      <trkpt lat="43.66184" lon="3.81298">
        <ele>89.4</ele>
        <time>2020-12-31T11:45:11Z</time>
      </trkpt>
      <trkpt lat="43.66186" lon="3.81296">
        <ele>89.5</ele>
        <time>2020-12-31T11:45:12Z</time>
      </trkpt>
      <trkpt lat="43.66188" lon="3.81295">
        <ele>89.6</ele>
        <time>2020-12-31T11:45:13Z</time>
      </trkpt>
      <trkpt lat="43.6619" lon="3.81294">
        <ele>89.8</ele>
        <time>2020-12-31T11:45:14Z</time>
      </trkpt>
      <trkpt lat="43.66192" lon="3.81293">
        <ele>89.9</ele>
        <time>2020-12-31T11:45:15Z</time>
      </trkpt>
      <trkpt lat="43.66193" lon="3.81292">
        <ele>89.9</ele>
        <time>2020-12-31T11:45:16Z</time>
      </trkpt>
      <trkpt lat="43.66195" lon="3.81291">
        <ele>90</ele>
        <time>2020-12-31T11:45:17Z</time>
      </trkpt>
      <trkpt lat="43.66197" lon="3.8129">
        <ele>95</ele>
        <time>2020-12-31T11:45:18Z</time>
      </trkpt>
      <trkpt lat="43.66198" lon="3.81289">
        <ele>90.4</ele>
        <time>2020-12-31T11:45:19Z</time>
      </trkpt>
      <trkpt lat="43.662" lon="3.81288">
        <ele>90.6</ele>
        <time>2020-12-31T11:45:20Z</time>
      </trkpt>
      <trkpt lat="43.66202" lon="3.81287">
        <ele>90.8</ele>
        <time>2020-12-31T11:45:21Z</time>
      </trkpt>
      <trkpt lat="43.66203" lon="3.81286">
        <ele>90.9</ele>
        <time>2020-12-31T11:45:22Z</time>
      </trkpt>
      <trkpt lat="43.66207" lon="3.81284">
        <ele>91.4</ele>
        <time>2020-12-31T11:45:24Z</time>
      </trkpt>
      <trkpt lat="43.6621" lon="3.81282">
        <ele>91.6</ele>
        <time>2020-12-31T11:45:26Z</time>
      </trkpt>
      <trkpt lat="43.66213" lon="3.8128">
        <ele>91.9</ele>
        <time>2020-12-31T11:45:27Z</time>
      </trkpt>
      <trkpt lat="43.66216" lon="3.81279">
        <ele>92.2</ele>
        <time>2020-12-31T11:45:29Z</time>
      </trkpt>
      <trkpt lat="43.66219" lon="3.81278">
        <ele>92.6</ele>
        <time>2020-12-31T11:45:31Z</time>
      </trkpt>
      <trkpt lat="43.66222" lon="3.81276">
        <ele>92.8</ele>
        <time>2020-12-31T11:45:33Z</time>
      </trkpt>
      <trkpt lat="43.66225" lon="3.81275">
        <ele>93</ele>
        <time>2020-12-31T11:45:36Z</time>
      </trkpt>
      <trkpt lat="43.66228" lon="3.81275">
        <ele>95</ele>
        <time>2020-12-31T11:45:38Z</time>
      </trkpt>
      <trkpt lat="43.66231" lon="3.81275">
        <ele>93.6</ele>
        <time>2020-12-31T11:45:40Z</time>
      </trkpt>
      <trkpt lat="43.66234" lon="3.81273">
        <ele>93.7</ele>
        <time>2020-12-31T11:45:42Z</time>
      </trkpt>
      <trkpt lat="43.66237" lon="3.81272">
        <ele>93.9</ele>
        <time>2020-12-31T11:45:44Z</time>
      </trkpt>
      <trkpt lat="43.66241" lon="3.81272">
        <ele>94.3</ele>
        <time>2020-12-31T11:45:46Z</time>
      </trkpt>
      <trkpt lat="43.66244" lon="3.81271">
        <ele>96</ele>
        <time>2020-12-31T11:45:48Z</time>
      </trkpt>
      <trkpt lat="43.66246" lon="3.8127">
        <ele>94.5</ele>
        <time>2020-12-31T11:45:49Z</time>
      </trkpt>
      <trkpt lat="43.66248" lon="3.8127">
        <ele>94.7</ele>
        <time>2020-12-31T11:45:50Z</time>
      </trkpt>
      <trkpt lat="43.6625" lon="3.81269">
        <ele>94.7</ele>
        <time>2020-12-31T11:45:51Z</time>
      </trkpt>
      <trkpt lat="43.66252" lon="3.81268">
        <ele>95</ele>
        <time>2020-12-31T11:45:52Z</time>
      </trkpt>
      <trkpt lat="43.66253" lon="3.81267">
        <ele>95.1</ele>
        <time>2020-12-31T11:45:53Z</time>
      </trkpt>
      <trkpt lat="43.66255" lon="3.81267">
        <ele>95.6</ele>
        <time>2020-12-31T11:45:54Z</time>
      </trkpt>
      <trkpt lat="43.66259" lon="3.81267">
        <ele>96.5</ele>
        <time>2020-12-31T11:45:56Z</time>
      </trkpt>
      <trkpt lat="43.66262" lon="3.81265">
        <ele>97</ele>
        <time>2020-12-31T11:45:58Z</time>
      </trkpt>
      <trkpt lat="43.66265" lon="3.81264">
        <ele>97.3</ele>
        <time>2020-12-31T11:46:00Z</time>
      </trkpt>
      <trkpt lat="43.66268" lon="3.81262">
        <ele>97.5</ele>
        <time>2020-12-31T11:46:01Z</time>
      </trkpt>
      <trkpt lat="43.6627" lon="3.81261">
        <ele>97.8</ele>
        <time>2020-12-31T11:46:02Z</time>
      </trkpt>
      <trkpt lat="43.66273" lon="3.81259">
        <ele>98</ele>
        <time>2020-12-31T11:46:04Z</time>
      </trkpt>
      <trkpt lat="43.66276" lon="3.81257">
        <ele>98.2</ele>
        <time>2020-12-31T11:46:06Z</time>
      </trkpt>
      <trkpt lat="43.66279" lon="3.81255">
        <ele>99</ele>
        <time>2020-12-31T11:46:08Z</time>
      </trkpt>
      <trkpt lat="43.66281" lon="3.81252">
        <ele>98</ele>
        <time>2020-12-31T11:46:10Z</time>
      </trkpt>
      <trkpt lat="43.66284" lon="3.8125">
        <ele>98.1</ele>
        <time>2020-12-31T11:46:12Z</time>
      </trkpt>
      <trkpt lat="43.66287" lon="3.81248">
        <ele>98.4</ele>
        <time>2020-12-31T11:46:14Z</time>
      </trkpt>
      <trkpt lat="43.6629" lon="3.81246">
        <ele>98.7</ele>
        <time>2020-12-31T11:46:16Z</time>
      </trkpt>
      <trkpt lat="43.66292" lon="3.81245">
        <ele>100</ele>
        <time>2020-12-31T11:46:18Z</time>
      </trkpt>
      <trkpt lat="43.66295" lon="3.81243">
        <ele>99.2</ele>
        <time>2020-12-31T11:46:20Z</time>
      </trkpt>
      <trkpt lat="43.66298" lon="3.81242">
        <ele>99.6</ele>
        <time>2020-12-31T11:46:22Z</time>
      </trkpt>
      <trkpt lat="43.66301" lon="3.81241">
        <ele>99.9</ele>
        <time>2020-12-31T11:46:25Z</time>
      </trkpt>
      <trkpt lat="43.66304" lon="3.8124">
        <ele>100.3</ele>
        <time>2020-12-31T11:46:27Z</time>
      </trkpt>
      <trkpt lat="43.66306" lon="3.81241">
        <ele>100.8</ele>
        <time>2020-12-31T11:46:29Z</time>
      </trkpt>
      <trkpt lat="43.66309" lon="3.8124">
        <ele>101.2</ele>
        <time>2020-12-31T11:46:30Z</time>
      </trkpt>
      <trkpt lat="43.66311" lon="3.8124">
        <ele>101.5</ele>
        <time>2020-12-31T11:46:33Z</time>
      </trkpt>
      <trkpt lat="43.66314" lon="3.8124">
        <ele>102.1</ele>
        <time>2020-12-31T11:46:35Z</time>
      </trkpt>
      <trkpt lat="43.66316" lon="3.8124">
        <ele>102.4</ele>
        <time>2020-12-31T11:46:37Z</time>
      </trkpt>
      <trkpt lat="43.66319" lon="3.8124">
        <ele>102.9</ele>
        <time>2020-12-31T11:46:39Z</time>
      </trkpt>
      <trkpt lat="43.66321" lon="3.81239">
        <ele>103.1</ele>
        <time>2020-12-31T11:46:41Z</time>
      </trkpt>
      <trkpt lat="43.66324" lon="3.81239">
        <ele>103.6</ele>
        <time>2020-12-31T11:46:43Z</time>
      </trkpt>
      <trkpt lat="43.66327" lon="3.81239">
        <ele>104.1</ele>
        <time>2020-12-31T11:46:45Z</time>
      </trkpt>
      <trkpt lat="43.6633" lon="3.8124">
        <ele>104.9</ele>
        <time>2020-12-31T11:46:47Z</time>
      </trkpt>
      <trkpt lat="43.66332" lon="3.8124">
        <ele>104</ele>
        <time>2020-12-31T11:46:48Z</time>
      </trkpt>
      <trkpt lat="43.66335" lon="3.81239">
        <ele>105.4</ele>
        <time>2020-12-31T11:46:50Z</time>
      </trkpt>
      <trkpt lat="43.66337" lon="3.81238">
        <ele>105.4</ele>
        <time>2020-12-31T11:46:52Z</time>
      </trkpt>
      <trkpt lat="43.66339" lon="3.81238">
        <ele>105.7</ele>
        <time>2020-12-31T11:46:54Z</time>
      </trkpt>
      <trkpt lat="43.66341" lon="3.81238">
        <ele>106</ele>
        <time>2020-12-31T11:46:56Z</time>
      </trkpt>
      <trkpt lat="43.66343" lon="3.81238">
        <ele>106</ele>
        <time>2020-12-31T11:46:58Z</time>
      </trkpt>
      <trkpt lat="43.66345" lon="3.81237">
        <ele>106.2</ele>
        <time>2020-12-31T11:47:00Z</time>
      </trkpt>
      <trkpt lat="43.66347" lon="3.81236">
        <ele>106.2</ele>
        <time>2020-12-31T11:47:02Z</time>
      </trkpt>
      <trkpt lat="43.6635" lon="3.81236">
        <ele>106.6</ele>
        <time>2020-12-31T11:47:04Z</time>
      </trkpt>
      <trkpt lat="43.66352" lon="3.81237">
        <ele>107.1</ele>
        <time>2020-12-31T11:47:06Z</time>
      </trkpt>
      <trkpt lat="43.66355" lon="3.81238">
        <ele>108</ele>
        <time>2020-12-31T11:47:08Z</time>
      </trkpt>
      <trkpt lat="43.66357" lon="3.81239">
        <ele>108.3</ele>
        <time>2020-12-31T11:47:10Z</time>
      </trkpt>
      <trkpt lat="43.66359" lon="3.81239">
        <ele>108.6</ele>
        <time>2020-12-31T11:47:12Z</time>
      </trkpt>
      <trkpt lat="43.66362" lon="3.8124">
        <ele>109.2</ele>
        <time>2020-12-31T11:47:14Z</time>
      </trkpt>
      <trkpt lat="43.66365" lon="3.8124">
        <ele>109.3</ele>
        <time>2020-12-31T11:47:16Z</time>
      </trkpt>
      <trkpt lat="43.66368" lon="3.81241">
        <ele>109</ele>
        <time>2020-12-31T11:47:18Z</time>
      </trkpt>
      <trkpt lat="43.66371" lon="3.81242">
        <ele>110.1</ele>
        <time>2020-12-31T11:47:20Z</time>
      </trkpt>
      <trkpt lat="43.66374" lon="3.81242">
        <ele>110.2</ele>
        <time>2020-12-31T11:47:22Z</time>
      </trkpt>
      <trkpt lat="43.66377" lon="3.81242">
        <ele>110.4</ele>
        <time>2020-12-31T11:47:24Z</time>
      </trkpt>
      <trkpt lat="43.6638" lon="3.81242">
        <ele>110.5</ele>
        <time>2020-12-31T11:47:26Z</time>
      </trkpt>
      <trkpt lat="43.66384" lon="3.81242">
        <ele>110</ele>
        <time>2020-12-31T11:47:28Z</time>
      </trkpt>
      <trkpt lat="43.66387" lon="3.81242">
        <ele>110.8</ele>
        <time>2020-12-31T11:47:31Z</time>
      </trkpt>
      <trkpt lat="43.6639" lon="3.81242">
        <ele>110.9</ele>
        <time>2020-12-31T11:47:32Z</time>
      </trkpt>
      <trkpt lat="43.66393" lon="3.81242">
        <ele>111.1</ele>
        <time>2020-12-31T11:47:34Z</time>
      </trkpt>
      <trkpt lat="43.66396" lon="3.81242">
        <ele>111.4</ele>
        <time>2020-12-31T11:47:36Z</time>
      </trkpt>
      <trkpt lat="43.66399" lon="3.81243">
        <ele>112</ele>
        <time>2020-12-31T11:47:38Z</time>
      </trkpt>
      <trkpt lat="43.66403" lon="3.81243">
        <ele>112</ele>
        <time>2020-12-31T11:47:41Z</time>
      </trkpt>
      <trkpt lat="43.66406" lon="3.81243">
        <ele>112.2</ele>
        <time>2020-12-31T11:47:43Z</time>
      </trkpt>
      <trkpt lat="43.66409" lon="3.81243">
        <ele>112.4</ele>
        <time>2020-12-31T11:47:45Z</time>
      </trkpt>
      <trkpt lat="43.66412" lon="3.81243">
        <ele>112.7</ele>
        <time>2020-12-31T11:47:46Z</time>
      </trkpt>
      <trkpt lat="43.66414" lon="3.81243">
        <ele>114</ele>
        <time>2020-12-31T11:47:48Z</time>
      </trkpt>
      <trkpt lat="43.66417" lon="3.81243">
        <ele>113</ele>
        <time>2020-12-31T11:47:50Z</time>
      </trkpt>
      <trkpt lat="43.66419" lon="3.81242">
        <ele>113.2</ele>
        <time>2020-12-31T11:47:52Z</time>
      </trkpt>
      <trkpt lat="43.66422" lon="3.81242">
        <ele>113.6</ele>
        <time>2020-12-31T11:47:54Z</time>
      </trkpt>
      <trkpt lat="43.66426" lon="3.81242">
        <ele>114.2</ele>
        <time>2020-12-31T11:47:56Z</time>
      </trkpt>
      <trkpt lat="43.66428" lon="3.81241">
        <ele>116</ele>
        <time>2020-12-31T11:47:58Z</time>
      </trkpt>
      <trkpt lat="43.66431" lon="3.81241">
        <ele>114.8</ele>
        <time>2020-12-31T11:48:00Z</time>
      </trkpt>
      <trkpt lat="43.66434" lon="3.81241">
        <ele>115.2</ele>
        <time>2020-12-31T11:48:02Z</time>
      </trkpt>
      <trkpt lat="43.66436" lon="3.8124">
        <ele>115.3</ele>
        <time>2020-12-31T11:48:04Z</time>
      </trkpt>
      <trkpt lat="43.66439" lon="3.8124">
        <ele>115.8</ele>
        <time>2020-12-31T11:48:07Z</time>
      </trkpt>
      <trkpt lat="43.66442" lon="3.8124">
        <ele>116.2</ele>
        <time>2020-12-31T11:48:09Z</time>
      </trkpt>
      <trkpt lat="43.66445" lon="3.8124">
        <ele>116.6</ele>
        <time>2020-12-31T11:48:11Z</time>
      </trkpt>
      <trkpt lat="43.66448" lon="3.8124">
        <ele>116.9</ele>
        <time>2020-12-31T11:48:13Z</time>
      </trkpt>
      <trkpt lat="43.66451" lon="3.8124">
        <ele>117.2</ele>
        <time>2020-12-31T11:48:15Z</time>
      </trkpt>
      <trkpt lat="43.66454" lon="3.81241">
        <ele>117.6</ele>
        <time>2020-12-31T11:48:17Z</time>
      </trkpt>
      <trkpt lat="43.66456" lon="3.81241">
        <ele>117.8</ele>
        <time>2020-12-31T11:48:19Z</time>
      </trkpt>
      <trkpt lat="43.66459" lon="3.81242">
        <ele>118.3</ele>
        <time>2020-12-31T11:48:21Z</time>
      </trkpt>
      <trkpt lat="43.66462" lon="3.81242">
        <ele>118.6</ele>
        <time>2020-12-31T11:48:23Z</time>
      </trkpt>
      <trkpt lat="43.66465" lon="3.81242">
        <ele>118.9</ele>
        <time>2020-12-31T11:48:25Z</time>
      </trkpt>
      <trkpt lat="43.66468" lon="3.81242">
        <ele>119.1</ele>
        <time>2020-12-31T11:48:27Z</time>
      </trkpt>
      <trkpt lat="43.66471" lon="3.81243">
        <ele>119.6</ele>
        <time>2020-12-31T11:48:29Z</time>
      </trkpt>
      <trkpt lat="43.66474" lon="3.81243">
        <ele>120</ele>
        <time>2020-12-31T11:48:31Z</time>
      </trkpt>
      <trkpt lat="43.66477" lon="3.81243">
        <ele>120.4</ele>
        <time>2020-12-31T11:48:33Z</time>
      </trkpt>
      <trkpt lat="43.6648" lon="3.81243">
        <ele>120.9</ele>
        <time>2020-12-31T11:48:35Z</time>
      </trkpt>
      <trkpt lat="43.66483" lon="3.81243">
        <ele>121.3</ele>
        <time>2020-12-31T11:48:37Z</time>
      </trkpt>
      <trkpt lat="43.66486" lon="3.81243">
        <ele>123</ele>
        <time>2020-12-31T11:48:38Z</time>
      </trkpt>
      <trkpt lat="43.66489" lon="3.81243">
        <ele>122.2</ele>
        <time>2020-12-31T11:48:40Z</time>
      </trkpt>
      <trkpt lat="43.66492" lon="3.81243">
        <ele>122.6</ele>
        <time>2020-12-31T11:48:42Z</time>
      </trkpt>
      <trkpt lat="43.66495" lon="3.81244">
        <ele>123.2</ele>
        <time>2020-12-31T11:48:44Z</time>
      </trkpt>
      <trkpt lat="43.66497" lon="3.81244">
        <ele>123.5</ele>
        <time>2020-12-31T11:48:46Z</time>
      </trkpt>
      <trkpt lat="43.66501" lon="3.81244">
        <ele>124.1</ele>
        <time>2020-12-31T11:48:49Z</time>
      </trkpt>
      <trkpt lat="43.66502" lon="3.81244">
        <ele>124.2</ele>
        <time>2020-12-31T11:48:52Z</time>
      </trkpt>
      <trkpt lat="43.66504" lon="3.81242">
        <ele>124.2</ele>
        <time>2020-12-31T11:48:54Z</time>
      </trkpt>
      <trkpt lat="43.66506" lon="3.81241">
        <ele>124.3</ele>
        <time>2020-12-31T11:48:55Z</time>
      </trkpt>
      <trkpt lat="43.66508" lon="3.81241">
        <ele>124.6</ele>
        <time>2020-12-31T11:48:57Z</time>
      </trkpt>
      <trkpt lat="43.66511" lon="3.81241">
        <ele>125.1</ele>
        <time>2020-12-31T11:48:59Z</time>
      </trkpt>
      <trkpt lat="43.66513" lon="3.81241">
        <ele>125.4</ele>
        <time>2020-12-31T11:49:01Z</time>
      </trkpt>
      <trkpt lat="43.66515" lon="3.81241">
        <ele>125.7</ele>
        <time>2020-12-31T11:49:04Z</time>
      </trkpt>
      <trkpt lat="43.66518" lon="3.81241">
        <ele>126.2</ele>
        <time>2020-12-31T11:49:06Z</time>
      </trkpt>
      <trkpt lat="43.6652" lon="3.81241">
        <ele>127</ele>
        <time>2020-12-31T11:49:08Z</time>
      </trkpt>
      <trkpt lat="43.66522" lon="3.8124">
        <ele>126.7</ele>
        <time>2020-12-31T11:49:10Z</time>
      </trkpt>
      <trkpt lat="43.66525" lon="3.8124">
        <ele>127.1</ele>
        <time>2020-12-31T11:49:11Z</time>
      </trkpt>
      <trkpt lat="43.66527" lon="3.8124">
        <ele>127.4</ele>
        <time>2020-12-31T11:49:13Z</time>
      </trkpt>
      <trkpt lat="43.6653" lon="3.8124">
        <ele>128</ele>
        <time>2020-12-31T11:49:15Z</time>
      </trkpt>
      <trkpt lat="43.66532" lon="3.8124">
        <ele>128.3</ele>
        <time>2020-12-31T11:49:17Z</time>
      </trkpt>
      <trkpt lat="43.66534" lon="3.8124">
        <ele>128.7</ele>
        <time>2020-12-31T11:49:20Z</time>
      </trkpt>
      <trkpt lat="43.66537" lon="3.81241">
        <ele>129.4</ele>
        <time>2020-12-31T11:49:21Z</time>
      </trkpt>
      <trkpt lat="43.66539" lon="3.81241">
        <ele>129.7</ele>
        <time>2020-12-31T11:49:23Z</time>
      </trkpt>
      <trkpt lat="43.66542" lon="3.8124">
        <ele>130.1</ele>
        <time>2020-12-31T11:49:25Z</time>
      </trkpt>
      <trkpt lat="43.66544" lon="3.8124">
        <ele>130</ele>
        <time>2020-12-31T11:49:28Z</time>
      </trkpt>
      <trkpt lat="43.66546" lon="3.8124">
        <ele>130.8</ele>
        <time>2020-12-31T11:49:30Z</time>
      </trkpt>
      <trkpt lat="43.66549" lon="3.8124">
        <ele>131.4</ele>
        <time>2020-12-31T11:49:32Z</time>
      </trkpt>
      <trkpt lat="43.66551" lon="3.81239">
        <ele>131.6</ele>
        <time>2020-12-31T11:49:34Z</time>
      </trkpt>
      <trkpt lat="43.66554" lon="3.81239">
        <ele>132.1</ele>
        <time>2020-12-31T11:49:36Z</time>
      </trkpt>
      <trkpt lat="43.66556" lon="3.81238">
        <ele>132</ele>
        <time>2020-12-31T11:49:38Z</time>
      </trkpt>
      <trkpt lat="43.66559" lon="3.81238">
        <ele>132.9</ele>
        <time>2020-12-31T11:49:40Z</time>
      </trkpt>
      <trkpt lat="43.66561" lon="3.81237">
        <ele>133.2</ele>
        <time>2020-12-31T11:49:42Z</time>
      </trkpt>
      <trkpt lat="43.66563" lon="3.81237">
        <ele>133.6</ele>
        <time>2020-12-31T11:49:44Z</time>
      </trkpt>
      <trkpt lat="43.66566" lon="3.81237">
        <ele>134.1</ele>
        <time>2020-12-31T11:49:46Z</time>
      </trkpt>
      <trkpt lat="43.66568" lon="3.81238">
        <ele>134</ele>
        <time>2020-12-31T11:49:48Z</time>
      </trkpt>
      <trkpt lat="43.66571" lon="3.81238">
        <ele>135.1</ele>
        <time>2020-12-31T11:49:50Z</time>
      </trkpt>
      <trkpt lat="43.66573" lon="3.81239">
        <ele>135.5</ele>
        <time>2020-12-31T11:49:52Z</time>
      </trkpt>
      <trkpt lat="43.66576" lon="3.81239">
        <ele>136.1</ele>
        <time>2020-12-31T11:49:54Z</time>
      </trkpt>
      <trkpt lat="43.66578" lon="3.8124">
        <ele>136.4</ele>
        <time>2020-12-31T11:49:56Z</time>
      </trkpt>
      <trkpt lat="43.66581" lon="3.8124">
        <ele>136</ele>
        <time>2020-12-31T11:49:58Z</time>
      </trkpt>
      <trkpt lat="43.66583" lon="3.81241">
        <ele>137.3</ele>
        <time>2020-12-31T11:49:59Z</time>
      </trkpt>
      <trkpt lat="43.66586" lon="3.81242">
        <ele>137.4</ele>
        <time>2020-12-31T11:50:01Z</time>
      </trkpt>
      <trkpt lat="43.66589" lon="3.81242">
        <ele>137.5</ele>
        <time>2020-12-31T11:50:03Z</time>
      </trkpt>
      <trkpt lat="43.66592" lon="3.81242">
        <ele>137.6</ele>
        <time>2020-12-31T11:50:05Z</time>
      </trkpt>
      <trkpt lat="43.66594" lon="3.81242">
        <ele>137.7</ele>
        <time>2020-12-31T11:50:07Z</time>
      </trkpt>
      <trkpt lat="43.66597" lon="3.81242">
        <ele>137.8</ele>
        <time>2020-12-31T11:50:10Z</time>
      </trkpt>
      <trkpt lat="43.66599" lon="3.81241">
        <ele>137.9</ele>
        <time>2020-12-31T11:50:12Z</time>
      </trkpt>
      <trkpt lat="43.66602" lon="3.8124">
        <ele>138</ele>
        <time>2020-12-31T11:50:14Z</time>
      </trkpt>
      <trkpt lat="43.66605" lon="3.81238">
        <ele>138.2</ele>
        <time>2020-12-31T11:50:16Z</time>
      </trkpt>
      <trkpt lat="43.66607" lon="3.81237">
        <ele>138.3</ele>
        <time>2020-12-31T11:50:17Z</time>
      </trkpt>
      <trkpt lat="43.66611" lon="3.81235">
        <ele>138.5</ele>
        <time>2020-12-31T11:50:19Z</time>
      </trkpt>
      <trkpt lat="43.66612" lon="3.81234">
        <ele>138.6</ele>
        <time>2020-12-31T11:50:20Z</time>
      </trkpt>
      <trkpt lat="43.66614" lon="3.81233">
        <ele>138.6</ele>
        <time>2020-12-31T11:50:21Z</time>
      </trkpt>
      <trkpt lat="43.66616" lon="3.81232">
        <ele>138.6</ele>
        <time>2020-12-31T11:50:22Z</time>
      </trkpt>
      <trkpt lat="43.66618" lon="3.8123">
        <ele>138.7</ele>
        <time>2020-12-31T11:50:23Z</time>
      </trkpt>
      <trkpt lat="43.66623" lon="3.81229">
        <ele>138.7</ele>
        <time>2020-12-31T11:50:25Z</time>
      </trkpt>
      <trkpt lat="43.66626" lon="3.81228">
        <ele>138.7</ele>
        <time>2020-12-31T11:50:26Z</time>
      </trkpt>
      <trkpt lat="43.66628" lon="3.81228">
        <ele>138.7</ele>
        <time>2020-12-31T11:50:27Z</time>
      </trkpt>
      <trkpt lat="43.66631" lon="3.81227">
        <ele>139</ele>
        <time>2020-12-31T11:50:28Z</time>
      </trkpt>
      <trkpt lat="43.66633" lon="3.81227">
        <ele>138.7</ele>
        <time>2020-12-31T11:50:29Z</time>
      </trkpt>
      <trkpt lat="43.66636" lon="3.81227">
        <ele>138.7</ele>
        <time>2020-12-31T11:50:30Z</time>
      </trkpt>
      <trkpt lat="43.66638" lon="3.81226">
        <ele>138.7</ele>
        <time>2020-12-31T11:50:31Z</time>
      </trkpt>
      <trkpt lat="43.66641" lon="3.81226">
        <ele>138.7</ele>
        <time>2020-12-31T11:50:32Z</time>
      </trkpt>
      <trkpt lat="43.66643" lon="3.81225">
        <ele>138.8</ele>
        <time>2020-12-31T11:50:34Z</time>
      </trkpt>
      <trkpt lat="43.66646" lon="3.81225">
        <ele>138.8</ele>
        <time>2020-12-31T11:50:35Z</time>
      </trkpt>
      <trkpt lat="43.66651" lon="3.81225">
        <ele>138.8</ele>
        <time>2020-12-31T11:50:36Z</time>
      </trkpt>
      <trkpt lat="43.66654" lon="3.81224">
        <ele>138.9</ele>
        <time>2020-12-31T11:50:37Z</time>
      </trkpt>
      <trkpt lat="43.66656" lon="3.81223">
        <ele>140</ele>
        <time>2020-12-31T11:50:38Z</time>
      </trkpt>
      <trkpt lat="43.66658" lon="3.81221">
        <ele>139.1</ele>
        <time>2020-12-31T11:50:39Z</time>
      </trkpt>
      <trkpt lat="43.6666" lon="3.8122">
        <ele>139.2</ele>
        <time>2020-12-31T11:50:40Z</time>
      </trkpt>
      <trkpt lat="43.66662" lon="3.81219">
        <ele>139.2</ele>
        <time>2020-12-31T11:50:41Z</time>
      </trkpt>
      <trkpt lat="43.66664" lon="3.81219">
        <ele>139.2</ele>
        <time>2020-12-31T11:50:42Z</time>
      </trkpt>
      <trkpt lat="43.66666" lon="3.81218">
        <ele>139.3</ele>
        <time>2020-12-31T11:50:43Z</time>
      </trkpt>
      <trkpt lat="43.66668" lon="3.81218">
        <ele>139.3</ele>
        <time>2020-12-31T11:50:44Z</time>
      </trkpt>
      <trkpt lat="43.6667" lon="3.81217">
        <ele>139.4</ele>
        <time>2020-12-31T11:50:45Z</time>
      </trkpt>
      <trkpt lat="43.66672" lon="3.81217">
        <ele>139.4</ele>
        <time>2020-12-31T11:50:47Z</time>
      </trkpt>
      <trkpt lat="43.66671" lon="3.81217">
        <ele>140</ele>
        <time>2020-12-31T11:50:53Z</time>
      </trkpt>
      <trkpt lat="43.6668" lon="3.81215">
        <ele>140</ele>
        <time>2020-12-31T11:53:58Z</time>
      </trkpt>
      <trkpt lat="43.66683" lon="3.81215">
        <ele>139.5</ele>
        <time>2020-12-31T11:54:00Z</time>
      </trkpt>
      <trkpt lat="43.66688" lon="3.81216">
        <ele>139.4</ele>
        <time>2020-12-31T11:54:01Z</time>
      </trkpt>
      <trkpt lat="43.66691" lon="3.81216">
        <ele>139.4</ele>
        <time>2020-12-31T11:54:02Z</time>
      </trkpt>
      <trkpt lat="43.66694" lon="3.81216">
        <ele>139.4</ele>
        <time>2020-12-31T11:54:03Z</time>
      </trkpt>
      <trkpt lat="43.66697" lon="3.81217">
        <ele>139.3</ele>
        <time>2020-12-31T11:54:05Z</time>
      </trkpt>
      <trkpt lat="43.667" lon="3.81217">
        <ele>139.2</ele>
        <time>2020-12-31T11:54:06Z</time>
      </trkpt>
      <trkpt lat="43.66704" lon="3.81218">
        <ele>139</ele>
        <time>2020-12-31T11:54:07Z</time>
      </trkpt>
      <trkpt lat="43.66706" lon="3.81219">
        <ele>140</ele>
        <time>2020-12-31T11:54:08Z</time>
      </trkpt>
      <trkpt lat="43.66709" lon="3.81219">
        <ele>138.7</ele>
        <time>2020-12-31T11:54:09Z</time>
      </trkpt>
      <trkpt lat="43.66712" lon="3.81219">
        <ele>138.6</ele>
        <time>2020-12-31T11:54:10Z</time>
      </trkpt>
      <trkpt lat="43.66715" lon="3.81219">
        <ele>138.5</ele>
        <time>2020-12-31T11:54:11Z</time>
      </trkpt>
      <trkpt lat="43.66718" lon="3.81218">
        <ele>138.5</ele>
        <time>2020-12-31T11:54:12Z</time>
      </trkpt>
      <trkpt lat="43.66723" lon="3.81217">
        <ele>138.3</ele>
        <time>2020-12-31T11:54:13Z</time>
      </trkpt>
      <trkpt lat="43.66725" lon="3.81216">
        <ele>138.3</ele>
        <time>2020-12-31T11:54:14Z</time>
      </trkpt>
      <trkpt lat="43.66728" lon="3.81216">
        <ele>138.2</ele>
        <time>2020-12-31T11:54:15Z</time>
      </trkpt>
      <trkpt lat="43.6673" lon="3.81216">
        <ele>138.2</ele>
        <time>2020-12-31T11:54:16Z</time>
      </trkpt>
      <trkpt lat="43.66736" lon="3.81217">
        <ele>140</ele>
        <time>2020-12-31T11:54:18Z</time>
      </trkpt>
      <trkpt lat="43.66738" lon="3.81219">
        <ele>137.7</ele>
        <time>2020-12-31T11:54:19Z</time>
      </trkpt>
      <trkpt lat="43.6674" lon="3.8122">
        <ele>137.5</ele>
        <time>2020-12-31T11:54:20Z</time>
      </trkpt>
      <trkpt lat="43.66742" lon="3.81222">
        <ele>137.3</ele>
        <time>2020-12-31T11:54:22Z</time>
      </trkpt>
      <trkpt lat="43.66745" lon="3.81222">
        <ele>137.2</ele>
        <time>2020-12-31T11:54:24Z</time>
      </trkpt>
      <trkpt lat="43.66747" lon="3.81223">
        <ele>137</ele>
        <time>2020-12-31T11:54:25Z</time>
      </trkpt>
      <trkpt lat="43.6675" lon="3.81223">
        <ele>136.9</ele>
        <time>2020-12-31T11:54:26Z</time>
      </trkpt>
      <trkpt lat="43.66752" lon="3.81224">
        <ele>136.8</ele>
        <time>2020-12-31T11:54:27Z</time>
      </trkpt>
      <trkpt lat="43.66754" lon="3.81224">
        <ele>140</ele>
        <time>2020-12-31T11:54:28Z</time>
      </trkpt>
      <trkpt lat="43.66755" lon="3.81223">
        <ele>136.9</ele>
        <time>2020-12-31T11:54:29Z</time>
      </trkpt>
      <trkpt lat="43.66758" lon="3.81219">
        <ele>137.1</ele>
        <time>2020-12-31T11:54:31Z</time>
      </trkpt>
      <trkpt lat="43.66759" lon="3.81216">
        <ele>137.2</ele>
        <time>2020-12-31T11:54:33Z</time>
      </trkpt>
      <trkpt lat="43.6676" lon="3.81214">
        <ele>137.3</ele>
        <time>2020-12-31T11:54:34Z</time>
      </trkpt>
      <trkpt lat="43.66762" lon="3.81211">
        <ele>137.3</ele>
        <time>2020-12-31T11:54:35Z</time>
      </trkpt>
      <trkpt lat="43.66764" lon="3.8121">
        <ele>137.2</ele>
        <time>2020-12-31T11:54:36Z</time>
      </trkpt>
      <trkpt lat="43.66766" lon="3.81209">
        <ele>137.1</ele>
        <time>2020-12-31T11:54:37Z</time>
      </trkpt>
      <trkpt lat="43.66768" lon="3.81208">
        <ele>140</ele>
        <time>2020-12-31T11:54:38Z</time>
      </trkpt>
      <trkpt lat="43.66771" lon="3.81205">
        <ele>136.8</ele>
        <time>2020-12-31T11:54:39Z</time>
      </trkpt>
      <trkpt lat="43.66773" lon="3.81202">
        <ele>136.6</ele>
        <time>2020-12-31T11:54:40Z</time>
      </trkpt>
      <trkpt lat="43.66775" lon="3.81199">
        <ele>136.4</ele>
        <time>2020-12-31T11:54:41Z</time>
      </trkpt>
      <trkpt lat="43.66777" lon="3.81195">
        <ele>136.1</ele>
        <time>2020-12-31T11:54:42Z</time>
      </trkpt>
      <trkpt lat="43.66778" lon="3.81191">
        <ele>135.9</ele>
        <time>2020-12-31T11:54:43Z</time>
      </trkpt>
      <trkpt lat="43.66778" lon="3.81187">
        <ele>135.7</ele>
        <time>2020-12-31T11:54:44Z</time>
      </trkpt>
      <trkpt lat="43.66778" lon="3.81182">
        <ele>135.5</ele>
        <time>2020-12-31T11:54:45Z</time>
      </trkpt>
      <trkpt lat="43.66778" lon="3.81178">
        <ele>135.4</ele>
        <time>2020-12-31T11:54:46Z</time>
      </trkpt>
      <trkpt lat="43.66778" lon="3.81173">
        <ele>140</ele>
        <time>2020-12-31T11:54:48Z</time>
      </trkpt>
      <trkpt lat="43.66778" lon="3.81169">
        <ele>135.1</ele>
        <time>2020-12-31T11:54:49Z</time>
      </trkpt>
      <trkpt lat="43.6678" lon="3.81166">
        <ele>134.7</ele>
        <time>2020-12-31T11:54:50Z</time>
      </trkpt>
      <trkpt lat="43.66783" lon="3.81165">
        <ele>134.2</ele>
        <time>2020-12-31T11:54:51Z</time>
      </trkpt>
      <trkpt lat="43.66787" lon="3.81165">
        <ele>133.6</ele>
        <time>2020-12-31T11:54:52Z</time>
      </trkpt>
      <trkpt lat="43.66791" lon="3.81166">
        <ele>133.1</ele>
        <time>2020-12-31T11:54:53Z</time>
      </trkpt>
      <trkpt lat="43.66794" lon="3.81168">
        <ele>132.8</ele>
        <time>2020-12-31T11:54:54Z</time>
      </trkpt>
      <trkpt lat="43.66801" lon="3.8117">
        <ele>132</ele>
        <time>2020-12-31T11:54:55Z</time>
      </trkpt>
      <trkpt lat="43.66807" lon="3.81169">
        <ele>131.2</ele>
        <time>2020-12-31T11:54:57Z</time>
      </trkpt>
      <trkpt lat="43.6681" lon="3.81166">
        <ele>139</ele>
        <time>2020-12-31T11:54:58Z</time>
      </trkpt>
      <trkpt lat="43.66813" lon="3.81163">
        <ele>130.4</ele>
        <time>2020-12-31T11:54:59Z</time>
      </trkpt>
      <trkpt lat="43.66813" lon="3.8116">
        <ele>130.1</ele>
        <time>2020-12-31T11:55:00Z</time>
      </trkpt>
      <trkpt lat="43.66814" lon="3.81156">
        <ele>129.7</ele>
        <time>2020-12-31T11:55:01Z</time>
      </trkpt>
      <trkpt lat="43.66814" lon="3.81153">
        <ele>129.4</ele>
        <time>2020-12-31T11:55:02Z</time>
      </trkpt>
      <trkpt lat="43.66814" lon="3.81149">
        <ele>129</ele>
        <time>2020-12-31T11:55:04Z</time>
      </trkpt>
      <trkpt lat="43.66814" lon="3.81146">
        <ele>128.8</ele>
        <time>2020-12-31T11:55:05Z</time>
      </trkpt>
      <trkpt lat="43.66814" lon="3.81142">
        <ele>128.4</ele>
        <time>2020-12-31T11:55:06Z</time>
      </trkpt>
      <trkpt lat="43.66815" lon="3.81137">
        <ele>127.9</ele>
        <time>2020-12-31T11:55:07Z</time>
      </trkpt>
      <trkpt lat="43.66816" lon="3.81133">
        <ele>137</ele>
        <time>2020-12-31T11:55:08Z</time>
      </trkpt>
      <trkpt lat="43.66818" lon="3.8113">
        <ele>127</ele>
        <time>2020-12-31T11:55:09Z</time>
      </trkpt>
      <trkpt lat="43.6682" lon="3.81125">
        <ele>126.4</ele>
        <time>2020-12-31T11:55:10Z</time>
      </trkpt>
      <trkpt lat="43.66823" lon="3.81119">
        <ele>125.5</ele>
        <time>2020-12-31T11:55:11Z</time>
      </trkpt>
      <trkpt lat="43.66826" lon="3.81113">
        <ele>124.5</ele>
        <time>2020-12-31T11:55:12Z</time>
      </trkpt>
      <trkpt lat="43.6683" lon="3.81105">
        <ele>123.6</ele>
        <time>2020-12-31T11:55:13Z</time>
      </trkpt>
      <trkpt lat="43.66833" lon="3.81099">
        <ele>123.1</ele>
        <time>2020-12-31T11:55:14Z</time>
      </trkpt>
      <trkpt lat="43.66836" lon="3.81094">
        <ele>122.9</ele>
        <time>2020-12-31T11:55:15Z</time>
      </trkpt>
      <trkpt lat="43.66839" lon="3.81092">
        <ele>122.7</ele>
        <time>2020-12-31T11:55:16Z</time>
      </trkpt>
      <trkpt lat="43.66842" lon="3.81091">
        <ele>122.6</ele>
        <time>2020-12-31T11:55:17Z</time>
      </trkpt>
      <trkpt lat="43.66846" lon="3.81091">
        <ele>133</ele>
        <time>2020-12-31T11:55:18Z</time>
      </trkpt>
      <trkpt lat="43.66854" lon="3.8109">
        <ele>122.1</ele>
        <time>2020-12-31T11:55:19Z</time>
      </trkpt>
      <trkpt lat="43.66858" lon="3.8109">
        <ele>121.9</ele>
        <time>2020-12-31T11:55:20Z</time>
      </trkpt>
      <trkpt lat="43.66863" lon="3.8109">
        <ele>121.6</ele>
        <time>2020-12-31T11:55:21Z</time>
      </trkpt>
      <trkpt lat="43.66866" lon="3.81089">
        <ele>121.3</ele>
        <time>2020-12-31T11:55:22Z</time>
      </trkpt>
      <trkpt lat="43.6687" lon="3.81089">
        <ele>120.8</ele>
        <time>2020-12-31T11:55:23Z</time>
      </trkpt>
      <trkpt lat="43.66874" lon="3.81089">
        <ele>120.4</ele>
        <time>2020-12-31T11:55:24Z</time>
      </trkpt>
      <trkpt lat="43.66877" lon="3.81089">
        <ele>120.1</ele>
        <time>2020-12-31T11:55:25Z</time>
      </trkpt>
      <trkpt lat="43.6688" lon="3.81088">
        <ele>119.8</ele>
        <time>2020-12-31T11:55:26Z</time>
      </trkpt>
      <trkpt lat="43.66883" lon="3.81087">
        <ele>119.5</ele>
        <time>2020-12-31T11:55:27Z</time>
      </trkpt>
      <trkpt lat="43.66886" lon="3.81087">
        <ele>119.2</ele>
        <time>2020-12-31T11:55:29Z</time>
      </trkpt>
      <trkpt lat="43.66889" lon="3.81086">
        <ele>118.9</ele>
        <time>2020-12-31T11:55:30Z</time>
      </trkpt>
      <trkpt lat="43.66893" lon="3.81086">
        <ele>118.5</ele>
        <time>2020-12-31T11:55:31Z</time>
      </trkpt>
      <trkpt lat="43.66896" lon="3.81086">
        <ele>118.1</ele>
        <time>2020-12-31T11:55:32Z</time>
      </trkpt>
      <trkpt lat="43.66899" lon="3.81087">
        <ele>117.8</ele>
        <time>2020-12-31T11:55:33Z</time>
      </trkpt>
      <trkpt lat="43.66905" lon="3.81087">
        <ele>117.1</ele>
        <time>2020-12-31T11:55:34Z</time>
      </trkpt>
      <trkpt lat="43.66907" lon="3.81086">
        <ele>116.9</ele>
        <time>2020-12-31T11:55:37Z</time>
      </trkpt>
      <trkpt lat="43.66909" lon="3.81085">
        <ele>116.8</ele>
        <time>2020-12-31T11:55:39Z</time>
      </trkpt>
      <trkpt lat="43.6691" lon="3.81082">
        <ele>116.8</ele>
        <time>2020-12-31T11:55:40Z</time>
      </trkpt>
      <trkpt lat="43.66912" lon="3.81079">
        <ele>116.7</ele>
        <time>2020-12-31T11:55:41Z</time>
      </trkpt>
      <trkpt lat="43.66915" lon="3.81075">
        <ele>116.5</ele>
        <time>2020-12-31T11:55:42Z</time>
      </trkpt>
      <trkpt lat="43.66918" lon="3.81073">
        <ele>116.3</ele>
        <time>2020-12-31T11:55:43Z</time>
      </trkpt>
      <trkpt lat="43.66926" lon="3.8107">
        <ele>116</ele>
        <time>2020-12-31T11:55:45Z</time>
      </trkpt>
      <trkpt lat="43.6693" lon="3.81066">
        <ele>116</ele>
        <time>2020-12-31T11:55:46Z</time>
      </trkpt>
      <trkpt lat="43.66933" lon="3.81063">
        <ele>116</ele>
        <time>2020-12-31T11:55:47Z</time>
      </trkpt>
      <trkpt lat="43.66937" lon="3.8106">
        <ele>124</ele>
        <time>2020-12-31T11:55:48Z</time>
      </trkpt>
      <trkpt lat="43.6694" lon="3.81057">
        <ele>116.1</ele>
        <time>2020-12-31T11:55:49Z</time>
      </trkpt>
      <trkpt lat="43.66943" lon="3.81055">
        <ele>116.1</ele>
        <time>2020-12-31T11:55:50Z</time>
      </trkpt>
      <trkpt lat="43.66947" lon="3.81054">
        <ele>116.1</ele>
        <time>2020-12-31T11:55:51Z</time>
      </trkpt>
      <trkpt lat="43.66949" lon="3.81052">
        <ele>116.2</ele>
        <time>2020-12-31T11:55:52Z</time>
      </trkpt>
      <trkpt lat="43.66952" lon="3.81051">
        <ele>116.3</ele>
        <time>2020-12-31T11:55:53Z</time>
      </trkpt>
      <trkpt lat="43.66954" lon="3.81049">
        <ele>116.4</ele>
        <time>2020-12-31T11:55:54Z</time>
      </trkpt>
      <trkpt lat="43.66957" lon="3.81048">
        <ele>116.5</ele>
        <time>2020-12-31T11:55:55Z</time>
      </trkpt>
      <trkpt lat="43.66959" lon="3.81047">
        <ele>116.6</ele>
        <time>2020-12-31T11:55:57Z</time>
      </trkpt>
      <trkpt lat="43.66961" lon="3.81047">
        <ele>123</ele>
        <time>2020-12-31T11:55:58Z</time>
      </trkpt>
      <trkpt lat="43.66964" lon="3.81046">
        <ele>116.8</ele>
        <time>2020-12-31T11:55:59Z</time>
      </trkpt>
      <trkpt lat="43.66967" lon="3.81044">
        <ele>117.1</ele>
        <time>2020-12-31T11:56:00Z</time>
      </trkpt>
      <trkpt lat="43.66969" lon="3.81042">
        <ele>117.4</ele>
        <time>2020-12-31T11:56:01Z</time>
      </trkpt>
      <trkpt lat="43.66972" lon="3.8104">
        <ele>117.7</ele>
        <time>2020-12-31T11:56:02Z</time>
      </trkpt>
      <trkpt lat="43.66975" lon="3.81039">
        <ele>118</ele>
        <time>2020-12-31T11:56:03Z</time>
      </trkpt>
      <trkpt lat="43.66977" lon="3.81038">
        <ele>118.3</ele>
        <time>2020-12-31T11:56:04Z</time>
      </trkpt>
      <trkpt lat="43.6698" lon="3.81039">
        <ele>118.5</ele>
        <time>2020-12-31T11:56:05Z</time>
      </trkpt>
      <trkpt lat="43.66982" lon="3.8104">
        <ele>118.5</ele>
        <time>2020-12-31T11:56:06Z</time>
      </trkpt>
      <trkpt lat="43.66984" lon="3.81041">
        <ele>118.6</ele>
        <time>2020-12-31T11:56:07Z</time>
      </trkpt>
      <trkpt lat="43.66986" lon="3.81041">
        <ele>123</ele>
        <time>2020-12-31T11:56:08Z</time>
      </trkpt>
      <trkpt lat="43.66989" lon="3.81041">
        <ele>119.1</ele>
        <time>2020-12-31T11:56:09Z</time>
      </trkpt>
      <trkpt lat="43.66993" lon="3.81042">
        <ele>119.3</ele>
        <time>2020-12-31T11:56:10Z</time>
      </trkpt>
      <trkpt lat="43.66997" lon="3.81043">
        <ele>119.6</ele>
        <time>2020-12-31T11:56:12Z</time>
      </trkpt>
      <trkpt lat="43.67" lon="3.81046">
        <ele>119.7</ele>
        <time>2020-12-31T11:56:15Z</time>
      </trkpt>
      <trkpt lat="43.67002" lon="3.81048">
        <ele>119.5</ele>
        <time>2020-12-31T11:56:16Z</time>
      </trkpt>
      <trkpt lat="43.67013" lon="3.81052">
        <ele>118.9</ele>
        <time>2020-12-31T11:56:20Z</time>
      </trkpt>
      <trkpt lat="43.67017" lon="3.81052">
        <ele>118.8</ele>
        <time>2020-12-31T11:56:21Z</time>
      </trkpt>
      <trkpt lat="43.67026" lon="3.81055">
        <ele>118.1</ele>
        <time>2020-12-31T11:56:23Z</time>
      </trkpt>
      <trkpt lat="43.67029" lon="3.81057">
        <ele>117.9</ele>
        <time>2020-12-31T11:56:24Z</time>
      </trkpt>
      <trkpt lat="43.67031" lon="3.8106">
        <ele>117.6</ele>
        <time>2020-12-31T11:56:26Z</time>
      </trkpt>
      <trkpt lat="43.67033" lon="3.81061">
        <ele>117.6</ele>
        <time>2020-12-31T11:56:27Z</time>
      </trkpt>
      <trkpt lat="43.67037" lon="3.81061">
        <ele>117.7</ele>
        <time>2020-12-31T11:56:29Z</time>
      </trkpt>
      <trkpt lat="43.67039" lon="3.81062">
        <ele>117.6</ele>
        <time>2020-12-31T11:56:30Z</time>
      </trkpt>
      <trkpt lat="43.67042" lon="3.81063">
        <ele>117.6</ele>
        <time>2020-12-31T11:56:31Z</time>
      </trkpt>
      <trkpt lat="43.67045" lon="3.81063">
        <ele>117.6</ele>
        <time>2020-12-31T11:56:33Z</time>
      </trkpt>
      <trkpt lat="43.67048" lon="3.81064">
        <ele>117.6</ele>
        <time>2020-12-31T11:56:34Z</time>
      </trkpt>
      <trkpt lat="43.67054" lon="3.81066">
        <ele>117.5</ele>
        <time>2020-12-31T11:56:35Z</time>
      </trkpt>
      <trkpt lat="43.67056" lon="3.81067">
        <ele>117.4</ele>
        <time>2020-12-31T11:56:36Z</time>
      </trkpt>
      <trkpt lat="43.67062" lon="3.81067">
        <ele>123</ele>
        <time>2020-12-31T11:56:38Z</time>
      </trkpt>
      <trkpt lat="43.67064" lon="3.81067">
        <ele>117.7</ele>
        <time>2020-12-31T11:56:39Z</time>
      </trkpt>
      <trkpt lat="43.67066" lon="3.81068">
        <ele>117.6</ele>
        <time>2020-12-31T11:56:40Z</time>
      </trkpt>
      <trkpt lat="43.67068" lon="3.81068">
        <ele>117.7</ele>
        <time>2020-12-31T11:56:41Z</time>
      </trkpt>
      <trkpt lat="43.6707" lon="3.81068">
        <ele>117.7</ele>
        <time>2020-12-31T11:56:43Z</time>
      </trkpt>
      <trkpt lat="43.67073" lon="3.81067">
        <ele>118</ele>
        <time>2020-12-31T11:56:44Z</time>
      </trkpt>
      <trkpt lat="43.67075" lon="3.81067">
        <ele>118.1</ele>
        <time>2020-12-31T11:56:45Z</time>
      </trkpt>
      <trkpt lat="43.67078" lon="3.81067">
        <ele>118.2</ele>
        <time>2020-12-31T11:56:46Z</time>
      </trkpt>
      <trkpt lat="43.6708" lon="3.81068">
        <ele>118.1</ele>
        <time>2020-12-31T11:56:47Z</time>
      </trkpt>
      <trkpt lat="43.67082" lon="3.8107">
        <ele>122</ele>
        <time>2020-12-31T11:56:48Z</time>
      </trkpt>
      <trkpt lat="43.67084" lon="3.8107">
        <ele>117.9</ele>
        <time>2020-12-31T11:56:49Z</time>
      </trkpt>
      <trkpt lat="43.67088" lon="3.81069">
        <ele>118.2</ele>
        <time>2020-12-31T11:56:51Z</time>
      </trkpt>
      <trkpt lat="43.67089" lon="3.81069">
        <ele>118.3</ele>
        <time>2020-12-31T11:56:52Z</time>
      </trkpt>
      <trkpt lat="43.67091" lon="3.81068">
        <ele>118.5</ele>
        <time>2020-12-31T11:56:53Z</time>
      </trkpt>
      <trkpt lat="43.67093" lon="3.81069">
        <ele>118.4</ele>
        <time>2020-12-31T11:56:54Z</time>
      </trkpt>
      <trkpt lat="43.67096" lon="3.81069">
        <ele>118.5</ele>
        <time>2020-12-31T11:56:55Z</time>
      </trkpt>
      <trkpt lat="43.67098" lon="3.81069">
        <ele>118.6</ele>
        <time>2020-12-31T11:56:56Z</time>
      </trkpt>
      <trkpt lat="43.67103" lon="3.8107">
        <ele>118.7</ele>
        <time>2020-12-31T11:56:57Z</time>
      </trkpt>
      <trkpt lat="43.67106" lon="3.81071">
        <ele>118.7</ele>
        <time>2020-12-31T11:56:59Z</time>
      </trkpt>
      <trkpt lat="43.67108" lon="3.81072">
        <ele>118.7</ele>
        <time>2020-12-31T11:57:00Z</time>
      </trkpt>
      <trkpt lat="43.67111" lon="3.81073">
        <ele>118.7</ele>
        <time>2020-12-31T11:57:01Z</time>
      </trkpt>
      <trkpt lat="43.67114" lon="3.81074">
        <ele>118.8</ele>
        <time>2020-12-31T11:57:02Z</time>
      </trkpt>
      <trkpt lat="43.67116" lon="3.81075">
        <ele>118.9</ele>
        <time>2020-12-31T11:57:03Z</time>
      </trkpt>
      <trkpt lat="43.67119" lon="3.81076">
        <ele>119</ele>
        <time>2020-12-31T11:57:04Z</time>
      </trkpt>
      <trkpt lat="43.67121" lon="3.81077">
        <ele>119.1</ele>
        <time>2020-12-31T11:57:05Z</time>
      </trkpt>
      <trkpt lat="43.67124" lon="3.81078">
        <ele>119.2</ele>
        <time>2020-12-31T11:57:06Z</time>
      </trkpt>
      <trkpt lat="43.67128" lon="3.81082">
        <ele>119.3</ele>
        <time>2020-12-31T11:57:07Z</time>
      </trkpt>
      <trkpt lat="43.6713" lon="3.81083">
        <ele>122</ele>
        <time>2020-12-31T11:57:08Z</time>
      </trkpt>
      <trkpt lat="43.67133" lon="3.81084">
        <ele>119.6</ele>
        <time>2020-12-31T11:57:09Z</time>
      </trkpt>
      <trkpt lat="43.67135" lon="3.81084">
        <ele>119.7</ele>
        <time>2020-12-31T11:57:10Z</time>
      </trkpt>
      <trkpt lat="43.67137" lon="3.81084">
        <ele>119.9</ele>
        <time>2020-12-31T11:57:11Z</time>
      </trkpt>
      <trkpt lat="43.6714" lon="3.81084">
        <ele>120</ele>
        <time>2020-12-31T11:57:12Z</time>
      </trkpt>
      <trkpt lat="43.67142" lon="3.81083">
        <ele>120</ele>
        <time>2020-12-31T11:57:13Z</time>
      </trkpt>
      <trkpt lat="43.67145" lon="3.81082">
        <ele>120</ele>
        <time>2020-12-31T11:57:14Z</time>
      </trkpt>
      <trkpt lat="43.6715" lon="3.8108">
        <ele>120.1</ele>
        <time>2020-12-31T11:57:16Z</time>
      </trkpt>
      <trkpt lat="43.67152" lon="3.81078">
        <ele>120.2</ele>
        <time>2020-12-31T11:57:17Z</time>
      </trkpt>
      <trkpt lat="43.67154" lon="3.81075">
        <ele>122</ele>
        <time>2020-12-31T11:57:18Z</time>
      </trkpt>
      <trkpt lat="43.67157" lon="3.81073">
        <ele>120.4</ele>
        <time>2020-12-31T11:57:19Z</time>
      </trkpt>
      <trkpt lat="43.67159" lon="3.81071">
        <ele>120.4</ele>
        <time>2020-12-31T11:57:20Z</time>
      </trkpt>
      <trkpt lat="43.67161" lon="3.81069">
        <ele>120.5</ele>
        <time>2020-12-31T11:57:21Z</time>
      </trkpt>
      <trkpt lat="43.67164" lon="3.81067">
        <ele>120.6</ele>
        <time>2020-12-31T11:57:22Z</time>
      </trkpt>
      <trkpt lat="43.67166" lon="3.81065">
        <ele>120.7</ele>
        <time>2020-12-31T11:57:24Z</time>
      </trkpt>
      <trkpt lat="43.67168" lon="3.81062">
        <ele>120.7</ele>
        <time>2020-12-31T11:57:25Z</time>
      </trkpt>
      <trkpt lat="43.6717" lon="3.81059">
        <ele>120.7</ele>
        <time>2020-12-31T11:57:26Z</time>
      </trkpt>
      <trkpt lat="43.67173" lon="3.81056">
        <ele>120.5</ele>
        <time>2020-12-31T11:57:27Z</time>
      </trkpt>
      <trkpt lat="43.67178" lon="3.81051">
        <ele>122</ele>
        <time>2020-12-31T11:57:28Z</time>
      </trkpt>
      <trkpt lat="43.67181" lon="3.81049">
        <ele>120.2</ele>
        <time>2020-12-31T11:57:29Z</time>
      </trkpt>
      <trkpt lat="43.67184" lon="3.81047">
        <ele>120.1</ele>
        <time>2020-12-31T11:57:30Z</time>
      </trkpt>
      <trkpt lat="43.67187" lon="3.81046">
        <ele>119.9</ele>
        <time>2020-12-31T11:57:31Z</time>
      </trkpt>
      <trkpt lat="43.6719" lon="3.81043">
        <ele>119.8</ele>
        <time>2020-12-31T11:57:32Z</time>
      </trkpt>
      <trkpt lat="43.67193" lon="3.81041">
        <ele>119.6</ele>
        <time>2020-12-31T11:57:33Z</time>
      </trkpt>
      <trkpt lat="43.67196" lon="3.81038">
        <ele>119.6</ele>
        <time>2020-12-31T11:57:34Z</time>
      </trkpt>
      <trkpt lat="43.67199" lon="3.81036">
        <ele>119.5</ele>
        <time>2020-12-31T11:57:35Z</time>
      </trkpt>
      <trkpt lat="43.67202" lon="3.81033">
        <ele>119.5</ele>
        <time>2020-12-31T11:57:36Z</time>
      </trkpt>
      <trkpt lat="43.67205" lon="3.81031">
        <ele>119.5</ele>
        <time>2020-12-31T11:57:37Z</time>
      </trkpt>
      <trkpt lat="43.67208" lon="3.81029">
        <ele>122</ele>
        <time>2020-12-31T11:57:38Z</time>
      </trkpt>
      <trkpt lat="43.67213" lon="3.81026">
        <ele>119.4</ele>
        <time>2020-12-31T11:57:40Z</time>
      </trkpt>
      <trkpt lat="43.67216" lon="3.81025">
        <ele>119.3</ele>
        <time>2020-12-31T11:57:42Z</time>
      </trkpt>
      <trkpt lat="43.67219" lon="3.81025">
        <ele>119.2</ele>
        <time>2020-12-31T11:57:43Z</time>
      </trkpt>
      <trkpt lat="43.67222" lon="3.81024">
        <ele>119.1</ele>
        <time>2020-12-31T11:57:44Z</time>
      </trkpt>
      <trkpt lat="43.67225" lon="3.81023">
        <ele>119.1</ele>
        <time>2020-12-31T11:57:45Z</time>
      </trkpt>
      <trkpt lat="43.67227" lon="3.81021">
        <ele>119</ele>
        <time>2020-12-31T11:57:46Z</time>
      </trkpt>
      <trkpt lat="43.6723" lon="3.81017">
        <ele>119</ele>
        <time>2020-12-31T11:57:47Z</time>
      </trkpt>
      <trkpt lat="43.67233" lon="3.81014">
        <ele>122</ele>
        <time>2020-12-31T11:57:48Z</time>
      </trkpt>
      <trkpt lat="43.67235" lon="3.81013">
        <ele>118.8</ele>
        <time>2020-12-31T11:57:49Z</time>
      </trkpt>
      <trkpt lat="43.67238" lon="3.81012">
        <ele>118.7</ele>
        <time>2020-12-31T11:57:51Z</time>
      </trkpt>
      <trkpt lat="43.6724" lon="3.81011">
        <ele>118.6</ele>
        <time>2020-12-31T11:57:52Z</time>
      </trkpt>
      <trkpt lat="43.67242" lon="3.81009">
        <ele>118.5</ele>
        <time>2020-12-31T11:57:53Z</time>
      </trkpt>
      <trkpt lat="43.67243" lon="3.81007">
        <ele>118.4</ele>
        <time>2020-12-31T11:57:54Z</time>
      </trkpt>
      <trkpt lat="43.67243" lon="3.81004">
        <ele>118.5</ele>
        <time>2020-12-31T11:57:55Z</time>
      </trkpt>
      <trkpt lat="43.67244" lon="3.80997">
        <ele>118.4</ele>
        <time>2020-12-31T11:57:56Z</time>
      </trkpt>
      <trkpt lat="43.67244" lon="3.80993">
        <ele>118.4</ele>
        <time>2020-12-31T11:57:57Z</time>
      </trkpt>
      <trkpt lat="43.67243" lon="3.80989">
        <ele>122</ele>
        <time>2020-12-31T11:57:58Z</time>
      </trkpt>
      <trkpt lat="43.67243" lon="3.80985">
        <ele>118.5</ele>
        <time>2020-12-31T11:57:59Z</time>
      </trkpt>
      <trkpt lat="43.67242" lon="3.80982">
        <ele>118.6</ele>
        <time>2020-12-31T11:58:00Z</time>
      </trkpt>
      <trkpt lat="43.67242" lon="3.80979">
        <ele>118.6</ele>
        <time>2020-12-31T11:58:01Z</time>
      </trkpt>
      <trkpt lat="43.67241" lon="3.80975">
        <ele>118.6</ele>
        <time>2020-12-31T11:58:02Z</time>
      </trkpt>
      <trkpt lat="43.6724" lon="3.80972">
        <ele>118.7</ele>
        <time>2020-12-31T11:58:03Z</time>
      </trkpt>
      <trkpt lat="43.6724" lon="3.80969">
        <ele>118.6</ele>
        <time>2020-12-31T11:58:05Z</time>
      </trkpt>
      <trkpt lat="43.6724" lon="3.80966">
        <ele>118.6</ele>
        <time>2020-12-31T11:58:06Z</time>
      </trkpt>
      <trkpt lat="43.67242" lon="3.80964">
        <ele>118.4</ele>
        <time>2020-12-31T11:58:07Z</time>
      </trkpt>
      <trkpt lat="43.67243" lon="3.80962">
        <ele>122</ele>
        <time>2020-12-31T11:58:08Z</time>
      </trkpt>
      <trkpt lat="43.67244" lon="3.80959">
        <ele>118.1</ele>
        <time>2020-12-31T11:58:09Z</time>
      </trkpt>
      <trkpt lat="43.67246" lon="3.80955">
        <ele>117.8</ele>
        <time>2020-12-31T11:58:11Z</time>
      </trkpt>
      <trkpt lat="43.67247" lon="3.80953">
        <ele>117.6</ele>
        <time>2020-12-31T11:58:12Z</time>
      </trkpt>
      <trkpt lat="43.67249" lon="3.80948">
        <ele>117.2</ele>
        <time>2020-12-31T11:58:13Z</time>
      </trkpt>
      <trkpt lat="43.67251" lon="3.80945">
        <ele>117</ele>
        <time>2020-12-31T11:58:14Z</time>
      </trkpt>
      <trkpt lat="43.67252" lon="3.80941">
        <ele>116.8</ele>
        <time>2020-12-31T11:58:15Z</time>
      </trkpt>
      <trkpt lat="43.67253" lon="3.80936">
        <ele>116.6</ele>
        <time>2020-12-31T11:58:16Z</time>
      </trkpt>
      <trkpt lat="43.67254" lon="3.80932">
        <ele>116.3</ele>
        <time>2020-12-31T11:58:17Z</time>
      </trkpt>
      <trkpt lat="43.67255" lon="3.80928">
        <ele>122</ele>
        <time>2020-12-31T11:58:18Z</time>
      </trkpt>
      <trkpt lat="43.67255" lon="3.80924">
        <ele>116</ele>
        <time>2020-12-31T11:58:19Z</time>
      </trkpt>
      <trkpt lat="43.67255" lon="3.8092">
        <ele>115.8</ele>
        <time>2020-12-31T11:58:20Z</time>
      </trkpt>
      <trkpt lat="43.67256" lon="3.80918">
        <ele>115.6</ele>
        <time>2020-12-31T11:58:22Z</time>
      </trkpt>
      <trkpt lat="43.67256" lon="3.80915">
        <ele>115.5</ele>
        <time>2020-12-31T11:58:23Z</time>
      </trkpt>
      <trkpt lat="43.67257" lon="3.80912">
        <ele>115.3</ele>
        <time>2020-12-31T11:58:24Z</time>
      </trkpt>
      <trkpt lat="43.6726" lon="3.80904">
        <ele>114.8</ele>
        <time>2020-12-31T11:58:25Z</time>
      </trkpt>
      <trkpt lat="43.67262" lon="3.80899">
        <ele>114.5</ele>
        <time>2020-12-31T11:58:26Z</time>
      </trkpt>
      <trkpt lat="43.67264" lon="3.80894">
        <ele>114.2</ele>
        <time>2020-12-31T11:58:27Z</time>
      </trkpt>
      <trkpt lat="43.67267" lon="3.80889">
        <ele>122</ele>
        <time>2020-12-31T11:58:28Z</time>
      </trkpt>
      <trkpt lat="43.67272" lon="3.8088">
        <ele>113.3</ele>
        <time>2020-12-31T11:58:30Z</time>
      </trkpt>
      <trkpt lat="43.67275" lon="3.80876">
        <ele>112.9</ele>
        <time>2020-12-31T11:58:31Z</time>
      </trkpt>
      <trkpt lat="43.67277" lon="3.80873">
        <ele>112.5</ele>
        <time>2020-12-31T11:58:32Z</time>
      </trkpt>
      <trkpt lat="43.67281" lon="3.80869">
        <ele>112</ele>
        <time>2020-12-31T11:58:33Z</time>
      </trkpt>
      <trkpt lat="43.67283" lon="3.80866">
        <ele>111.7</ele>
        <time>2020-12-31T11:58:34Z</time>
      </trkpt>
      <trkpt lat="43.67285" lon="3.80862">
        <ele>111.3</ele>
        <time>2020-12-31T11:58:35Z</time>
      </trkpt>
      <trkpt lat="43.67288" lon="3.80859">
        <ele>111</ele>
        <time>2020-12-31T11:58:36Z</time>
      </trkpt>
      <trkpt lat="43.67292" lon="3.80853">
        <ele>120</ele>
        <time>2020-12-31T11:58:38Z</time>
      </trkpt>
      <trkpt lat="43.67294" lon="3.80849">
        <ele>110.6</ele>
        <time>2020-12-31T11:58:39Z</time>
      </trkpt>
      <trkpt lat="43.67295" lon="3.80845">
        <ele>110.6</ele>
        <time>2020-12-31T11:58:40Z</time>
      </trkpt>
      <trkpt lat="43.67297" lon="3.80842">
        <ele>110.3</ele>
        <time>2020-12-31T11:58:41Z</time>
      </trkpt>
      <trkpt lat="43.67299" lon="3.80839">
        <ele>110.1</ele>
        <time>2020-12-31T11:58:42Z</time>
      </trkpt>
      <trkpt lat="43.67302" lon="3.80836">
        <ele>109.6</ele>
        <time>2020-12-31T11:58:44Z</time>
      </trkpt>
      <trkpt lat="43.67305" lon="3.80834">
        <ele>109.1</ele>
        <time>2020-12-31T11:58:47Z</time>
      </trkpt>
      <trkpt lat="43.67306" lon="3.80832">
        <ele>118</ele>
        <time>2020-12-31T11:58:48Z</time>
      </trkpt>
      <trkpt lat="43.67308" lon="3.8083">
        <ele>109</ele>
        <time>2020-12-31T11:58:49Z</time>
      </trkpt>
      <trkpt lat="43.67309" lon="3.80828">
        <ele>109</ele>
        <time>2020-12-31T11:58:50Z</time>
      </trkpt>
      <trkpt lat="43.67313" lon="3.80825">
        <ele>108.7</ele>
        <time>2020-12-31T11:58:51Z</time>
      </trkpt>
      <trkpt lat="43.67315" lon="3.80824">
        <ele>108.5</ele>
        <time>2020-12-31T11:58:52Z</time>
      </trkpt>
      <trkpt lat="43.67317" lon="3.80822">
        <ele>108.3</ele>
        <time>2020-12-31T11:58:53Z</time>
      </trkpt>
      <trkpt lat="43.67318" lon="3.80818">
        <ele>108.2</ele>
        <time>2020-12-31T11:58:54Z</time>
      </trkpt>
      <trkpt lat="43.67319" lon="3.80815">
        <ele>108.1</ele>
        <time>2020-12-31T11:58:55Z</time>
      </trkpt>
      <trkpt lat="43.6732" lon="3.80811">
        <ele>107.9</ele>
        <time>2020-12-31T11:58:56Z</time>
      </trkpt>
      <trkpt lat="43.67321" lon="3.80808">
        <ele>107.7</ele>
        <time>2020-12-31T11:58:57Z</time>
      </trkpt>
      <trkpt lat="43.67322" lon="3.80805">
        <ele>116</ele>
        <time>2020-12-31T11:58:58Z</time>
      </trkpt>
      <trkpt lat="43.67322" lon="3.80802">
        <ele>107.4</ele>
        <time>2020-12-31T11:58:59Z</time>
      </trkpt>
      <trkpt lat="43.67323" lon="3.808">
        <ele>107.2</ele>
        <time>2020-12-31T11:59:00Z</time>
      </trkpt>
      <trkpt lat="43.67325" lon="3.80797">
        <ele>106.7</ele>
        <time>2020-12-31T11:59:01Z</time>
      </trkpt>
      <trkpt lat="43.67327" lon="3.80789">
        <ele>106.2</ele>
        <time>2020-12-31T11:59:03Z</time>
      </trkpt>
      <trkpt lat="43.67328" lon="3.80785">
        <ele>106</ele>
        <time>2020-12-31T11:59:04Z</time>
      </trkpt>
      <trkpt lat="43.67329" lon="3.80781">
        <ele>105.8</ele>
        <time>2020-12-31T11:59:05Z</time>
      </trkpt>
      <trkpt lat="43.67332" lon="3.80777">
        <ele>105.2</ele>
        <time>2020-12-31T11:59:06Z</time>
      </trkpt>
      <trkpt lat="43.67335" lon="3.80773">
        <ele>104.8</ele>
        <time>2020-12-31T11:59:07Z</time>
      </trkpt>
      <trkpt lat="43.67338" lon="3.8077">
        <ele>113</ele>
        <time>2020-12-31T11:59:08Z</time>
      </trkpt>
      <trkpt lat="43.67341" lon="3.80768">
        <ele>104.2</ele>
        <time>2020-12-31T11:59:09Z</time>
      </trkpt>
      <trkpt lat="43.67347" lon="3.80761">
        <ele>103.1</ele>
        <time>2020-12-31T11:59:11Z</time>
      </trkpt>
      <trkpt lat="43.67351" lon="3.80756">
        <ele>102.2</ele>
        <time>2020-12-31T11:59:12Z</time>
      </trkpt>
      <trkpt lat="43.67355" lon="3.80752">
        <ele>101.3</ele>
        <time>2020-12-31T11:59:13Z</time>
      </trkpt>
      <trkpt lat="43.67359" lon="3.80749">
        <ele>100.4</ele>
        <time>2020-12-31T11:59:14Z</time>
      </trkpt>
      <trkpt lat="43.67362" lon="3.80746">
        <ele>100</ele>
        <time>2020-12-31T11:59:15Z</time>
      </trkpt>
      <trkpt lat="43.67365" lon="3.80742">
        <ele>99.9</ele>
        <time>2020-12-31T11:59:16Z</time>
      </trkpt>
      <trkpt lat="43.67368" lon="3.80738">
        <ele>99.8</ele>
        <time>2020-12-31T11:59:17Z</time>
      </trkpt>
      <trkpt lat="43.67372" lon="3.80735">
        <ele>109</ele>
        <time>2020-12-31T11:59:18Z</time>
      </trkpt>
      <trkpt lat="43.67376" lon="3.80733">
        <ele>99.3</ele>
        <time>2020-12-31T11:59:20Z</time>
      </trkpt>
      <trkpt lat="43.67381" lon="3.80732">
        <ele>99.1</ele>
        <time>2020-12-31T11:59:21Z</time>
      </trkpt>
      <trkpt lat="43.6739" lon="3.80733">
        <ele>98.8</ele>
        <time>2020-12-31T11:59:22Z</time>
      </trkpt>
      <trkpt lat="43.67394" lon="3.80735">
        <ele>98.8</ele>
        <time>2020-12-31T11:59:23Z</time>
      </trkpt>
      <trkpt lat="43.67397" lon="3.80735">
        <ele>98.8</ele>
        <time>2020-12-31T11:59:24Z</time>
      </trkpt>
      <trkpt lat="43.674" lon="3.80735">
        <ele>98.7</ele>
        <time>2020-12-31T11:59:25Z</time>
      </trkpt>
      <trkpt lat="43.67404" lon="3.80734">
        <ele>98.5</ele>
        <time>2020-12-31T11:59:26Z</time>
      </trkpt>
      <trkpt lat="43.67408" lon="3.80734">
        <ele>106</ele>
        <time>2020-12-31T11:59:28Z</time>
      </trkpt>
      <trkpt lat="43.67412" lon="3.80734">
        <ele>98.4</ele>
        <time>2020-12-31T11:59:29Z</time>
      </trkpt>
      <trkpt lat="43.67416" lon="3.80734">
        <ele>98.3</ele>
        <time>2020-12-31T11:59:30Z</time>
      </trkpt>
      <trkpt lat="43.67419" lon="3.80734">
        <ele>98.1</ele>
        <time>2020-12-31T11:59:31Z</time>
      </trkpt>
      <trkpt lat="43.67423" lon="3.80734">
        <ele>97.7</ele>
        <time>2020-12-31T11:59:32Z</time>
      </trkpt>
      <trkpt lat="43.67427" lon="3.80734">
        <ele>97.4</ele>
        <time>2020-12-31T11:59:33Z</time>
      </trkpt>
      <trkpt lat="43.67431" lon="3.80735">
        <ele>97.1</ele>
        <time>2020-12-31T11:59:34Z</time>
      </trkpt>
      <trkpt lat="43.67438" lon="3.80736">
        <ele>96.6</ele>
        <time>2020-12-31T11:59:35Z</time>
      </trkpt>
      <trkpt lat="43.67441" lon="3.80737">
        <ele>96.4</ele>
        <time>2020-12-31T11:59:36Z</time>
      </trkpt>
      <trkpt lat="43.67444" lon="3.80738">
        <ele>96.2</ele>
        <time>2020-12-31T11:59:37Z</time>
      </trkpt>
      <trkpt lat="43.67446" lon="3.80738">
        <ele>105</ele>
        <time>2020-12-31T11:59:38Z</time>
      </trkpt>
      <trkpt lat="43.67449" lon="3.80738">
        <ele>96</ele>
        <time>2020-12-31T11:59:39Z</time>
      </trkpt>
      <trkpt lat="43.67451" lon="3.80739">
        <ele>96</ele>
        <time>2020-12-31T11:59:40Z</time>
      </trkpt>
      <trkpt lat="43.67454" lon="3.80739">
        <ele>95.9</ele>
        <time>2020-12-31T11:59:41Z</time>
      </trkpt>
      <trkpt lat="43.67458" lon="3.80739">
        <ele>95.7</ele>
        <time>2020-12-31T11:59:42Z</time>
      </trkpt>
      <trkpt lat="43.67461" lon="3.80739">
        <ele>95.6</ele>
        <time>2020-12-31T11:59:43Z</time>
      </trkpt>
      <trkpt lat="43.67464" lon="3.80739">
        <ele>95.5</ele>
        <time>2020-12-31T11:59:45Z</time>
      </trkpt>
      <trkpt lat="43.67467" lon="3.80739">
        <ele>95.4</ele>
        <time>2020-12-31T11:59:46Z</time>
      </trkpt>
      <trkpt lat="43.6747" lon="3.80738">
        <ele>95.2</ele>
        <time>2020-12-31T11:59:47Z</time>
      </trkpt>
      <trkpt lat="43.67473" lon="3.80738">
        <ele>103</ele>
        <time>2020-12-31T11:59:48Z</time>
      </trkpt>
      <trkpt lat="43.67476" lon="3.80738">
        <ele>94.8</ele>
        <time>2020-12-31T11:59:49Z</time>
      </trkpt>
      <trkpt lat="43.67479" lon="3.80738">
        <ele>94.5</ele>
        <time>2020-12-31T11:59:50Z</time>
      </trkpt>
      <trkpt lat="43.67482" lon="3.80738">
        <ele>94.2</ele>
        <time>2020-12-31T11:59:51Z</time>
      </trkpt>
      <trkpt lat="43.67488" lon="3.80737">
        <ele>93.6</ele>
        <time>2020-12-31T11:59:52Z</time>
      </trkpt>
      <trkpt lat="43.6749" lon="3.80736">
        <ele>93.4</ele>
        <time>2020-12-31T11:59:53Z</time>
      </trkpt>
      <trkpt lat="43.67492" lon="3.80735">
        <ele>93.2</ele>
        <time>2020-12-31T11:59:54Z</time>
      </trkpt>
      <trkpt lat="43.67495" lon="3.80735">
        <ele>92.9</ele>
        <time>2020-12-31T11:59:55Z</time>
      </trkpt>
      <trkpt lat="43.67497" lon="3.80735">
        <ele>92.7</ele>
        <time>2020-12-31T11:59:56Z</time>
      </trkpt>
      <trkpt lat="43.675" lon="3.80735">
        <ele>92.5</ele>
        <time>2020-12-31T11:59:57Z</time>
      </trkpt>
      <trkpt lat="43.67506" lon="3.80735">
        <ele>92</ele>
        <time>2020-12-31T11:59:59Z</time>
      </trkpt>
      <trkpt lat="43.67509" lon="3.80736">
        <ele>91.8</ele>
        <time>2020-12-31T12:00:01Z</time>
      </trkpt>
      <trkpt lat="43.67512" lon="3.80736">
        <ele>91.6</ele>
        <time>2020-12-31T12:00:02Z</time>
      </trkpt>
      <trkpt lat="43.67515" lon="3.80737">
        <ele>91.5</ele>
        <time>2020-12-31T12:00:03Z</time>
      </trkpt>
      <trkpt lat="43.67518" lon="3.80738">
        <ele>91.3</ele>
        <time>2020-12-31T12:00:04Z</time>
      </trkpt>
      <trkpt lat="43.67522" lon="3.80739">
        <ele>91</ele>
        <time>2020-12-31T12:00:05Z</time>
      </trkpt>
      <trkpt lat="43.67525" lon="3.80741">
        <ele>90.9</ele>
        <time>2020-12-31T12:00:06Z</time>
      </trkpt>
      <trkpt lat="43.67529" lon="3.80741">
        <ele>90.6</ele>
        <time>2020-12-31T12:00:07Z</time>
      </trkpt>
      <trkpt lat="43.67532" lon="3.80742">
        <ele>101</ele>
        <time>2020-12-31T12:00:08Z</time>
      </trkpt>
      <trkpt lat="43.67541" lon="3.80743">
        <ele>90.3</ele>
        <time>2020-12-31T12:00:09Z</time>
      </trkpt>
      <trkpt lat="43.67544" lon="3.80743">
        <ele>90.2</ele>
        <time>2020-12-31T12:00:10Z</time>
      </trkpt>
      <trkpt lat="43.67547" lon="3.80743">
        <ele>90.1</ele>
        <time>2020-12-31T12:00:11Z</time>
      </trkpt>
      <trkpt lat="43.6755" lon="3.80745">
        <ele>90</ele>
        <time>2020-12-31T12:00:12Z</time>
      </trkpt>
      <trkpt lat="43.67553" lon="3.80746">
        <ele>89.9</ele>
        <time>2020-12-31T12:00:13Z</time>
      </trkpt>
      <trkpt lat="43.67556" lon="3.80747">
        <ele>89.9</ele>
        <time>2020-12-31T12:00:14Z</time>
      </trkpt>
      <trkpt lat="43.67558" lon="3.80747">
        <ele>89.8</ele>
        <time>2020-12-31T12:00:15Z</time>
      </trkpt>
      <trkpt lat="43.67561" lon="3.80747">
        <ele>89.7</ele>
        <time>2020-12-31T12:00:17Z</time>
      </trkpt>
      <trkpt lat="43.67564" lon="3.80748">
        <ele>100</ele>
        <time>2020-12-31T12:00:18Z</time>
      </trkpt>
      <trkpt lat="43.67568" lon="3.80748">
        <ele>89.5</ele>
        <time>2020-12-31T12:00:19Z</time>
      </trkpt>
      <trkpt lat="43.67572" lon="3.80749">
        <ele>89.4</ele>
        <time>2020-12-31T12:00:20Z</time>
      </trkpt>
      <trkpt lat="43.67577" lon="3.8075">
        <ele>89.2</ele>
        <time>2020-12-31T12:00:21Z</time>
      </trkpt>
      <trkpt lat="43.6758" lon="3.80751">
        <ele>89.2</ele>
        <time>2020-12-31T12:00:22Z</time>
      </trkpt>
      <trkpt lat="43.67583" lon="3.80752">
        <ele>89.2</ele>
        <time>2020-12-31T12:00:23Z</time>
      </trkpt>
      <trkpt lat="43.67586" lon="3.80753">
        <ele>89.1</ele>
        <time>2020-12-31T12:00:24Z</time>
      </trkpt>
      <trkpt lat="43.67589" lon="3.80754">
        <ele>88.9</ele>
        <time>2020-12-31T12:00:25Z</time>
      </trkpt>
      <trkpt lat="43.67592" lon="3.80755">
        <ele>88.7</ele>
        <time>2020-12-31T12:00:26Z</time>
      </trkpt>
      <trkpt lat="43.67595" lon="3.80756">
        <ele>88.5</ele>
        <time>2020-12-31T12:00:27Z</time>
      </trkpt>
      <trkpt lat="43.67597" lon="3.80757">
        <ele>97</ele>
        <time>2020-12-31T12:00:28Z</time>
      </trkpt>
      <trkpt lat="43.676" lon="3.80758">
        <ele>88.1</ele>
        <time>2020-12-31T12:00:29Z</time>
      </trkpt>
      <trkpt lat="43.67603" lon="3.80758">
        <ele>87.8</ele>
        <time>2020-12-31T12:00:30Z</time>
      </trkpt>
      <trkpt lat="43.67605" lon="3.80757">
        <ele>87.6</ele>
        <time>2020-12-31T12:00:31Z</time>
      </trkpt>
      <trkpt lat="43.67607" lon="3.80757">
        <ele>87.4</ele>
        <time>2020-12-31T12:00:32Z</time>
      </trkpt>
      <trkpt lat="43.67612" lon="3.8076">
        <ele>87</ele>
        <time>2020-12-31T12:00:34Z</time>
      </trkpt>
      <trkpt lat="43.67614" lon="3.80762">
        <ele>87.1</ele>
        <time>2020-12-31T12:00:35Z</time>
      </trkpt>
      <trkpt lat="43.67616" lon="3.80764">
        <ele>87.2</ele>
        <time>2020-12-31T12:00:36Z</time>
      </trkpt>
      <trkpt lat="43.67619" lon="3.80767">
        <ele>87.4</ele>
        <time>2020-12-31T12:00:37Z</time>
      </trkpt>
      <trkpt lat="43.67621" lon="3.80769">
        <ele>95</ele>
        <time>2020-12-31T12:00:38Z</time>
      </trkpt>
      <trkpt lat="43.67622" lon="3.80773">
        <ele>87.9</ele>
        <time>2020-12-31T12:00:39Z</time>
      </trkpt>
      <trkpt lat="43.67621" lon="3.80777">
        <ele>88</ele>
        <time>2020-12-31T12:00:40Z</time>
      </trkpt>
      <trkpt lat="43.6762" lon="3.80781">
        <ele>88.2</ele>
        <time>2020-12-31T12:00:41Z</time>
      </trkpt>
      <trkpt lat="43.67619" lon="3.80785">
        <ele>88.3</ele>
        <time>2020-12-31T12:00:42Z</time>
      </trkpt>
      <trkpt lat="43.67617" lon="3.80789">
        <ele>88.3</ele>
        <time>2020-12-31T12:00:43Z</time>
      </trkpt>
      <trkpt lat="43.67616" lon="3.80793">
        <ele>88.4</ele>
        <time>2020-12-31T12:00:44Z</time>
      </trkpt>
      <trkpt lat="43.67615" lon="3.80797">
        <ele>88.4</ele>
        <time>2020-12-31T12:00:45Z</time>
      </trkpt>
      <trkpt lat="43.67614" lon="3.80801">
        <ele>88.4</ele>
        <time>2020-12-31T12:00:46Z</time>
      </trkpt>
      <trkpt lat="43.67613" lon="3.80804">
        <ele>88.3</ele>
        <time>2020-12-31T12:00:47Z</time>
      </trkpt>
      <trkpt lat="43.67613" lon="3.80808">
        <ele>95</ele>
        <time>2020-12-31T12:00:48Z</time>
      </trkpt>
      <trkpt lat="43.67612" lon="3.80811">
        <ele>88.6</ele>
        <time>2020-12-31T12:00:49Z</time>
      </trkpt>
      <trkpt lat="43.67611" lon="3.80814">
        <ele>88.6</ele>
        <time>2020-12-31T12:00:50Z</time>
      </trkpt>
      <trkpt lat="43.67611" lon="3.80818">
        <ele>88.9</ele>
        <time>2020-12-31T12:00:51Z</time>
      </trkpt>
      <trkpt lat="43.6761" lon="3.80821">
        <ele>89.3</ele>
        <time>2020-12-31T12:00:52Z</time>
      </trkpt>
      <trkpt lat="43.67609" lon="3.80824">
        <ele>89.7</ele>
        <time>2020-12-31T12:00:53Z</time>
      </trkpt>
      <trkpt lat="43.67608" lon="3.80827">
        <ele>90</ele>
        <time>2020-12-31T12:00:54Z</time>
      </trkpt>
      <trkpt lat="43.67607" lon="3.8083">
        <ele>90.4</ele>
        <time>2020-12-31T12:00:55Z</time>
      </trkpt>
      <trkpt lat="43.67606" lon="3.80833">
        <ele>90.7</ele>
        <time>2020-12-31T12:00:57Z</time>
      </trkpt>
      <trkpt lat="43.67605" lon="3.80839">
        <ele>95</ele>
        <time>2020-12-31T12:00:58Z</time>
      </trkpt>
      <trkpt lat="43.67604" lon="3.80842">
        <ele>91.2</ele>
        <time>2020-12-31T12:01:00Z</time>
      </trkpt>
      <trkpt lat="43.67603" lon="3.80846">
        <ele>91.4</ele>
        <time>2020-12-31T12:01:01Z</time>
      </trkpt>
      <trkpt lat="43.67603" lon="3.80848">
        <ele>91.5</ele>
        <time>2020-12-31T12:01:02Z</time>
      </trkpt>
      <trkpt lat="43.67602" lon="3.80851">
        <ele>91.5</ele>
        <time>2020-12-31T12:01:03Z</time>
      </trkpt>
      <trkpt lat="43.67602" lon="3.80854">
        <ele>91.6</ele>
        <time>2020-12-31T12:01:04Z</time>
      </trkpt>
      <trkpt lat="43.67601" lon="3.80857">
        <ele>91.6</ele>
        <time>2020-12-31T12:01:06Z</time>
      </trkpt>
      <trkpt lat="43.67602" lon="3.80859">
        <ele>91.6</ele>
        <time>2020-12-31T12:01:07Z</time>
      </trkpt>
      <trkpt lat="43.67604" lon="3.80862">
        <ele>91.8</ele>
        <time>2020-12-31T12:01:09Z</time>
      </trkpt>
      <trkpt lat="43.67606" lon="3.80865">
        <ele>92.1</ele>
        <time>2020-12-31T12:01:11Z</time>
      </trkpt>
      <trkpt lat="43.67607" lon="3.80868">
        <ele>92.4</ele>
        <time>2020-12-31T12:01:13Z</time>
      </trkpt>
      <trkpt lat="43.67609" lon="3.80869">
        <ele>92.7</ele>
        <time>2020-12-31T12:01:16Z</time>
      </trkpt>
      <trkpt lat="43.67609" lon="3.8087">
        <ele>96</ele>
        <time>2020-12-31T12:01:21Z</time>
      </trkpt>
      <trkpt lat="43.67636" lon="3.80876">
        <ele>102</ele>
        <time>2020-12-31T12:02:36Z</time>
      </trkpt>
      <trkpt lat="43.67638" lon="3.80878">
        <ele>100</ele>
        <time>2020-12-31T12:02:38Z</time>
      </trkpt>
      <trkpt lat="43.67641" lon="3.8088">
        <ele>100.6</ele>
        <time>2020-12-31T12:02:40Z</time>
      </trkpt>
      <trkpt lat="43.67644" lon="3.80882">
        <ele>102</ele>
        <time>2020-12-31T12:02:41Z</time>
      </trkpt>
      <trkpt lat="43.67646" lon="3.80885">
        <ele>101.5</ele>
        <time>2020-12-31T12:02:43Z</time>
      </trkpt>
      <trkpt lat="43.67649" lon="3.80886">
        <ele>101.9</ele>
        <time>2020-12-31T12:02:45Z</time>
      </trkpt>
      <trkpt lat="43.67652" lon="3.80887">
        <ele>102.3</ele>
        <time>2020-12-31T12:02:47Z</time>
      </trkpt>
      <trkpt lat="43.67654" lon="3.80888">
        <ele>102.6</ele>
        <time>2020-12-31T12:02:49Z</time>
      </trkpt>
      <trkpt lat="43.67657" lon="3.80889">
        <ele>103</ele>
        <time>2020-12-31T12:02:51Z</time>
      </trkpt>
      <trkpt lat="43.67659" lon="3.80891">
        <ele>103.3</ele>
        <time>2020-12-31T12:02:53Z</time>
      </trkpt>
      <trkpt lat="43.6766" lon="3.80892">
        <ele>103.5</ele>
        <time>2020-12-31T12:02:55Z</time>
      </trkpt>
      <trkpt lat="43.67663" lon="3.80893">
        <ele>104</ele>
        <time>2020-12-31T12:02:57Z</time>
      </trkpt>
      <trkpt lat="43.67664" lon="3.80893">
        <ele>104</ele>
        <time>2020-12-31T12:02:59Z</time>
      </trkpt>
      <trkpt lat="43.67667" lon="3.80893">
        <ele>104.3</ele>
        <time>2020-12-31T12:03:01Z</time>
      </trkpt>
      <trkpt lat="43.67669" lon="3.80894">
        <ele>104.3</ele>
        <time>2020-12-31T12:03:03Z</time>
      </trkpt>
      <trkpt lat="43.67671" lon="3.80895">
        <ele>105</ele>
        <time>2020-12-31T12:03:06Z</time>
      </trkpt>
      <trkpt lat="43.67672" lon="3.80898">
        <ele>104.5</ele>
        <time>2020-12-31T12:03:08Z</time>
      </trkpt>
      <trkpt lat="43.67672" lon="3.80898">
        <ele>106</ele>
        <time>2020-12-31T12:03:15Z</time>
      </trkpt>
      <trkpt lat="43.67676" lon="3.80903">
        <ele>107</ele>
        <time>2020-12-31T12:03:32Z</time>
      </trkpt>
      <trkpt lat="43.67678" lon="3.80906">
        <ele>104.8</ele>
        <time>2020-12-31T12:03:36Z</time>
      </trkpt>
      <trkpt lat="43.6768" lon="3.80908">
        <ele>104.9</ele>
        <time>2020-12-31T12:03:38Z</time>
      </trkpt>
      <trkpt lat="43.67681" lon="3.8091">
        <ele>105</ele>
        <time>2020-12-31T12:03:40Z</time>
      </trkpt>
      <trkpt lat="43.67683" lon="3.80913">
        <ele>108</ele>
        <time>2020-12-31T12:03:42Z</time>
      </trkpt>
      <trkpt lat="43.67682" lon="3.80916">
        <ele>105.4</ele>
        <time>2020-12-31T12:03:44Z</time>
      </trkpt>
      <trkpt lat="43.6768" lon="3.80918">
        <ele>105.6</ele>
        <time>2020-12-31T12:03:46Z</time>
      </trkpt>
      <trkpt lat="43.67678" lon="3.8092">
        <ele>105.9</ele>
        <time>2020-12-31T12:03:48Z</time>
      </trkpt>
      <trkpt lat="43.67678" lon="3.80923">
        <ele>106.1</ele>
        <time>2020-12-31T12:03:49Z</time>
      </trkpt>
      <trkpt lat="43.67677" lon="3.80927">
        <ele>109</ele>
        <time>2020-12-31T12:03:52Z</time>
      </trkpt>
      <trkpt lat="43.67676" lon="3.8093">
        <ele>106.8</ele>
        <time>2020-12-31T12:03:53Z</time>
      </trkpt>
      <trkpt lat="43.67675" lon="3.80933">
        <ele>107.1</ele>
        <time>2020-12-31T12:03:55Z</time>
      </trkpt>
      <trkpt lat="43.67675" lon="3.80936">
        <ele>107.3</ele>
        <time>2020-12-31T12:03:57Z</time>
      </trkpt>
      <trkpt lat="43.67673" lon="3.8094">
        <ele>107.6</ele>
        <time>2020-12-31T12:03:59Z</time>
      </trkpt>
      <trkpt lat="43.67672" lon="3.80942">
        <ele>107.8</ele>
        <time>2020-12-31T12:04:01Z</time>
      </trkpt>
      <trkpt lat="43.67671" lon="3.80945">
        <ele>108.1</ele>
        <time>2020-12-31T12:04:03Z</time>
      </trkpt>
      <trkpt lat="43.6767" lon="3.8095">
        <ele>108.6</ele>
        <time>2020-12-31T12:04:06Z</time>
      </trkpt>
      <trkpt lat="43.67668" lon="3.80953">
        <ele>108.9</ele>
        <time>2020-12-31T12:04:07Z</time>
      </trkpt>
      <trkpt lat="43.67666" lon="3.80955">
        <ele>109.1</ele>
        <time>2020-12-31T12:04:08Z</time>
      </trkpt>
      <trkpt lat="43.67665" lon="3.80957">
        <ele>109.1</ele>
        <time>2020-12-31T12:04:09Z</time>
      </trkpt>
      <trkpt lat="43.67663" lon="3.80959">
        <ele>109.1</ele>
        <time>2020-12-31T12:04:11Z</time>
      </trkpt>
      <trkpt lat="43.67661" lon="3.80962">
        <ele>111</ele>
        <time>2020-12-31T12:04:12Z</time>
      </trkpt>
      <trkpt lat="43.67657" lon="3.80965">
        <ele>108.9</ele>
        <time>2020-12-31T12:04:14Z</time>
      </trkpt>
      <trkpt lat="43.67654" lon="3.80967">
        <ele>108.7</ele>
        <time>2020-12-31T12:04:15Z</time>
      </trkpt>
      <trkpt lat="43.67652" lon="3.8097">
        <ele>108.7</ele>
        <time>2020-12-31T12:04:16Z</time>
      </trkpt>
      <trkpt lat="43.67649" lon="3.80973">
        <ele>108.5</ele>
        <time>2020-12-31T12:04:17Z</time>
      </trkpt>
      <trkpt lat="43.67647" lon="3.80975">
        <ele>108.5</ele>
        <time>2020-12-31T12:04:18Z</time>
      </trkpt>
      <trkpt lat="43.67645" lon="3.80978">
        <ele>108.5</ele>
        <time>2020-12-31T12:04:19Z</time>
      </trkpt>
      <trkpt lat="43.67642" lon="3.80981">
        <ele>108.4</ele>
        <time>2020-12-31T12:04:20Z</time>
      </trkpt>
      <trkpt lat="43.6764" lon="3.80984">
        <ele>108.4</ele>
        <time>2020-12-31T12:04:21Z</time>
      </trkpt>
      <trkpt lat="43.67638" lon="3.80987">
        <ele>112</ele>
        <time>2020-12-31T12:04:22Z</time>
      </trkpt>
      <trkpt lat="43.67636" lon="3.8099">
        <ele>108.4</ele>
        <time>2020-12-31T12:04:23Z</time>
      </trkpt>
      <trkpt lat="43.67634" lon="3.80993">
        <ele>108.4</ele>
        <time>2020-12-31T12:04:24Z</time>
      </trkpt>
      <trkpt lat="43.67632" lon="3.80996">
        <ele>108.3</ele>
        <time>2020-12-31T12:04:25Z</time>
      </trkpt>
      <trkpt lat="43.67631" lon="3.80999">
        <ele>108.5</ele>
        <time>2020-12-31T12:04:26Z</time>
      </trkpt>
      <trkpt lat="43.67631" lon="3.81002">
        <ele>108.7</ele>
        <time>2020-12-31T12:04:27Z</time>
      </trkpt>
      <trkpt lat="43.67631" lon="3.81005">
        <ele>109</ele>
        <time>2020-12-31T12:04:28Z</time>
      </trkpt>
      <trkpt lat="43.67632" lon="3.81008">
        <ele>109.4</ele>
        <time>2020-12-31T12:04:30Z</time>
      </trkpt>
      <trkpt lat="43.67634" lon="3.8101">
        <ele>109.9</ele>
        <time>2020-12-31T12:04:33Z</time>
      </trkpt>
      <trkpt lat="43.67637" lon="3.81012">
        <ele>110.6</ele>
        <time>2020-12-31T12:04:35Z</time>
      </trkpt>
      <trkpt lat="43.6764" lon="3.81012">
        <ele>111</ele>
        <time>2020-12-31T12:04:37Z</time>
      </trkpt>
      <trkpt lat="43.67643" lon="3.81013">
        <ele>111.6</ele>
        <time>2020-12-31T12:04:38Z</time>
      </trkpt>
      <trkpt lat="43.67645" lon="3.81015">
        <ele>112.1</ele>
        <time>2020-12-31T12:04:41Z</time>
      </trkpt>
      <trkpt lat="43.67647" lon="3.81016">
        <ele>112.5</ele>
        <time>2020-12-31T12:04:44Z</time>
      </trkpt>
      <trkpt lat="43.67653" lon="3.81016">
        <ele>118</ele>
        <time>2020-12-31T12:05:05Z</time>
      </trkpt>
      <trkpt lat="43.67655" lon="3.81016">
        <ele>113.8</ele>
        <time>2020-12-31T12:05:07Z</time>
      </trkpt>
      <trkpt lat="43.67655" lon="3.81016">
        <ele>119</ele>
        <time>2020-12-31T12:05:11Z</time>
      </trkpt>
      <trkpt lat="43.67657" lon="3.81021">
        <ele>119</ele>
        <time>2020-12-31T12:05:18Z</time>
      </trkpt>
      <trkpt lat="43.6766" lon="3.81023">
        <ele>115.3</ele>
        <time>2020-12-31T12:05:20Z</time>
      </trkpt>
      <trkpt lat="43.67662" lon="3.81025">
        <ele>115.9</ele>
        <time>2020-12-31T12:05:21Z</time>
      </trkpt>
      <trkpt lat="43.67664" lon="3.81026">
        <ele>116.3</ele>
        <time>2020-12-31T12:05:22Z</time>
      </trkpt>
      <trkpt lat="43.67666" lon="3.81028">
        <ele>116.9</ele>
        <time>2020-12-31T12:05:25Z</time>
      </trkpt>
      <trkpt lat="43.67668" lon="3.8103">
        <ele>117.3</ele>
        <time>2020-12-31T12:05:27Z</time>
      </trkpt>
      <trkpt lat="43.6767" lon="3.81032">
        <ele>117.6</ele>
        <time>2020-12-31T12:05:29Z</time>
      </trkpt>
      <trkpt lat="43.67672" lon="3.81035">
        <ele>118</ele>
        <time>2020-12-31T12:05:30Z</time>
      </trkpt>
      <trkpt lat="43.67674" lon="3.81037">
        <ele>118.3</ele>
        <time>2020-12-31T12:05:33Z</time>
      </trkpt>
      <trkpt lat="43.67675" lon="3.8104">
        <ele>118.6</ele>
        <time>2020-12-31T12:05:35Z</time>
      </trkpt>
      <trkpt lat="43.67677" lon="3.81042">
        <ele>119</ele>
        <time>2020-12-31T12:05:37Z</time>
      </trkpt>
      <trkpt lat="43.67679" lon="3.81044">
        <ele>119.3</ele>
        <time>2020-12-31T12:05:39Z</time>
      </trkpt>
      <trkpt lat="43.67681" lon="3.81046">
        <ele>119.7</ele>
        <time>2020-12-31T12:05:40Z</time>
      </trkpt>
      <trkpt lat="43.67683" lon="3.81048">
        <ele>120.1</ele>
        <time>2020-12-31T12:05:42Z</time>
      </trkpt>
      <trkpt lat="43.67685" lon="3.8105">
        <ele>120.4</ele>
        <time>2020-12-31T12:05:44Z</time>
      </trkpt>
      <trkpt lat="43.67686" lon="3.81053">
        <ele>120.8</ele>
        <time>2020-12-31T12:05:46Z</time>
      </trkpt>
      <trkpt lat="43.67686" lon="3.81056">
        <ele>123</ele>
        <time>2020-12-31T12:05:48Z</time>
      </trkpt>
      <trkpt lat="43.67688" lon="3.81058">
        <ele>121.4</ele>
        <time>2020-12-31T12:05:50Z</time>
      </trkpt>
      <trkpt lat="43.6769" lon="3.81061">
        <ele>121.7</ele>
        <time>2020-12-31T12:05:52Z</time>
      </trkpt>
      <trkpt lat="43.67692" lon="3.81063">
        <ele>122</ele>
        <time>2020-12-31T12:05:54Z</time>
      </trkpt>
      <trkpt lat="43.67693" lon="3.81065">
        <ele>122.2</ele>
        <time>2020-12-31T12:05:56Z</time>
      </trkpt>
      <trkpt lat="43.67695" lon="3.81066">
        <ele>125</ele>
        <time>2020-12-31T12:05:58Z</time>
      </trkpt>
      <trkpt lat="43.67696" lon="3.81068">
        <ele>122.5</ele>
        <time>2020-12-31T12:06:00Z</time>
      </trkpt>
      <trkpt lat="43.67697" lon="3.81069">
        <ele>126</ele>
        <time>2020-12-31T12:06:07Z</time>
      </trkpt>
      <trkpt lat="43.67707" lon="3.81072">
        <ele>129</ele>
        <time>2020-12-31T12:06:55Z</time>
      </trkpt>
      <trkpt lat="43.6771" lon="3.81073">
        <ele>123</ele>
        <time>2020-12-31T12:06:56Z</time>
      </trkpt>
      <trkpt lat="43.67712" lon="3.81073">
        <ele>123</ele>
        <time>2020-12-31T12:06:58Z</time>
      </trkpt>
      <trkpt lat="43.67714" lon="3.81074">
        <ele>123.1</ele>
        <time>2020-12-31T12:06:59Z</time>
      </trkpt>
      <trkpt lat="43.67719" lon="3.81076">
        <ele>123.4</ele>
        <time>2020-12-31T12:07:01Z</time>
      </trkpt>
      <trkpt lat="43.67721" lon="3.81077">
        <ele>123.5</ele>
        <time>2020-12-31T12:07:03Z</time>
      </trkpt>
      <trkpt lat="43.67723" lon="3.81078">
        <ele>130</ele>
        <time>2020-12-31T12:07:04Z</time>
      </trkpt>
      <trkpt lat="43.67725" lon="3.8108">
        <ele>123.9</ele>
        <time>2020-12-31T12:07:05Z</time>
      </trkpt>
      <trkpt lat="43.67727" lon="3.81081">
        <ele>124</ele>
        <time>2020-12-31T12:07:06Z</time>
      </trkpt>
      <trkpt lat="43.6773" lon="3.81083">
        <ele>124.3</ele>
        <time>2020-12-31T12:07:07Z</time>
      </trkpt>
      <trkpt lat="43.67733" lon="3.81084">
        <ele>124.4</ele>
        <time>2020-12-31T12:07:08Z</time>
      </trkpt>
      <trkpt lat="43.67736" lon="3.81085">
        <ele>124.5</ele>
        <time>2020-12-31T12:07:09Z</time>
      </trkpt>
      <trkpt lat="43.67738" lon="3.81086">
        <ele>124.6</ele>
        <time>2020-12-31T12:07:10Z</time>
      </trkpt>
      <trkpt lat="43.67741" lon="3.81087">
        <ele>124.7</ele>
        <time>2020-12-31T12:07:11Z</time>
      </trkpt>
      <trkpt lat="43.67744" lon="3.81089">
        <ele>124.8</ele>
        <time>2020-12-31T12:07:12Z</time>
      </trkpt>
      <trkpt lat="43.67746" lon="3.81091">
        <ele>124.9</ele>
        <time>2020-12-31T12:07:13Z</time>
      </trkpt>
      <trkpt lat="43.67751" lon="3.81095">
        <ele>130</ele>
        <time>2020-12-31T12:07:14Z</time>
      </trkpt>
      <trkpt lat="43.67753" lon="3.81097">
        <ele>124.9</ele>
        <time>2020-12-31T12:07:15Z</time>
      </trkpt>
      <trkpt lat="43.67754" lon="3.81099">
        <ele>124.9</ele>
        <time>2020-12-31T12:07:16Z</time>
      </trkpt>
      <trkpt lat="43.67758" lon="3.811">
        <ele>124.9</ele>
        <time>2020-12-31T12:07:18Z</time>
      </trkpt>
      <trkpt lat="43.6776" lon="3.81101">
        <ele>124.9</ele>
        <time>2020-12-31T12:07:19Z</time>
      </trkpt>
      <trkpt lat="43.67762" lon="3.81102">
        <ele>124.9</ele>
        <time>2020-12-31T12:07:20Z</time>
      </trkpt>
      <trkpt lat="43.67763" lon="3.81103">
        <ele>124.9</ele>
        <time>2020-12-31T12:07:21Z</time>
      </trkpt>
      <trkpt lat="43.67765" lon="3.81105">
        <ele>124.9</ele>
        <time>2020-12-31T12:07:22Z</time>
      </trkpt>
      <trkpt lat="43.67766" lon="3.81106">
        <ele>124.9</ele>
        <time>2020-12-31T12:07:23Z</time>
      </trkpt>
      <trkpt lat="43.67768" lon="3.81108">
        <ele>131</ele>
        <time>2020-12-31T12:07:24Z</time>
      </trkpt>
      <trkpt lat="43.67771" lon="3.8111">
        <ele>125</ele>
        <time>2020-12-31T12:07:25Z</time>
      </trkpt>
      <trkpt lat="43.67773" lon="3.81112">
        <ele>125.1</ele>
        <time>2020-12-31T12:07:26Z</time>
      </trkpt>
      <trkpt lat="43.67779" lon="3.81115">
        <ele>125.2</ele>
        <time>2020-12-31T12:07:28Z</time>
      </trkpt>
      <trkpt lat="43.67782" lon="3.81117">
        <ele>125.1</ele>
        <time>2020-12-31T12:07:29Z</time>
      </trkpt>
      <trkpt lat="43.67786" lon="3.81118">
        <ele>124.9</ele>
        <time>2020-12-31T12:07:30Z</time>
      </trkpt>
      <trkpt lat="43.67789" lon="3.81119">
        <ele>124.8</ele>
        <time>2020-12-31T12:07:31Z</time>
      </trkpt>
      <trkpt lat="43.67792" lon="3.8112">
        <ele>124.6</ele>
        <time>2020-12-31T12:07:32Z</time>
      </trkpt>
      <trkpt lat="43.678" lon="3.81121">
        <ele>131</ele>
        <time>2020-12-31T12:07:34Z</time>
      </trkpt>
      <trkpt lat="43.67808" lon="3.81122">
        <ele>123.7</ele>
        <time>2020-12-31T12:07:36Z</time>
      </trkpt>
      <trkpt lat="43.67812" lon="3.81122">
        <ele>123.6</ele>
        <time>2020-12-31T12:07:37Z</time>
      </trkpt>
      <trkpt lat="43.67816" lon="3.81122">
        <ele>123.4</ele>
        <time>2020-12-31T12:07:38Z</time>
      </trkpt>
      <trkpt lat="43.6782" lon="3.81121">
        <ele>123.2</ele>
        <time>2020-12-31T12:07:39Z</time>
      </trkpt>
      <trkpt lat="43.67825" lon="3.8112">
        <ele>122.9</ele>
        <time>2020-12-31T12:07:40Z</time>
      </trkpt>
      <trkpt lat="43.67829" lon="3.81119">
        <ele>122.7</ele>
        <time>2020-12-31T12:07:41Z</time>
      </trkpt>
      <trkpt lat="43.67834" lon="3.81117">
        <ele>122.4</ele>
        <time>2020-12-31T12:07:42Z</time>
      </trkpt>
      <trkpt lat="43.67838" lon="3.81116">
        <ele>122.2</ele>
        <time>2020-12-31T12:07:43Z</time>
      </trkpt>
      <trkpt lat="43.67842" lon="3.81115">
        <ele>131</ele>
        <time>2020-12-31T12:07:44Z</time>
      </trkpt>
      <trkpt lat="43.67846" lon="3.81113">
        <ele>121.7</ele>
        <time>2020-12-31T12:07:45Z</time>
      </trkpt>
      <trkpt lat="43.6785" lon="3.81112">
        <ele>121.5</ele>
        <time>2020-12-31T12:07:46Z</time>
      </trkpt>
      <trkpt lat="43.67853" lon="3.81111">
        <ele>121.3</ele>
        <time>2020-12-31T12:07:47Z</time>
      </trkpt>
      <trkpt lat="43.67856" lon="3.8111">
        <ele>121.1</ele>
        <time>2020-12-31T12:07:48Z</time>
      </trkpt>
      <trkpt lat="43.6786" lon="3.81108">
        <ele>120.8</ele>
        <time>2020-12-31T12:07:49Z</time>
      </trkpt>
      <trkpt lat="43.67864" lon="3.81107">
        <ele>120.7</ele>
        <time>2020-12-31T12:07:50Z</time>
      </trkpt>
      <trkpt lat="43.67868" lon="3.81105">
        <ele>120.6</ele>
        <time>2020-12-31T12:07:51Z</time>
      </trkpt>
      <trkpt lat="43.67873" lon="3.81103">
        <ele>120.4</ele>
        <time>2020-12-31T12:07:52Z</time>
      </trkpt>
      <trkpt lat="43.67877" lon="3.81102">
        <ele>120.3</ele>
        <time>2020-12-31T12:07:53Z</time>
      </trkpt>
      <trkpt lat="43.67882" lon="3.811">
        <ele>120.2</ele>
        <time>2020-12-31T12:07:55Z</time>
      </trkpt>
      <trkpt lat="43.67886" lon="3.81098">
        <ele>120.1</ele>
        <time>2020-12-31T12:07:56Z</time>
      </trkpt>
      <trkpt lat="43.6789" lon="3.81096">
        <ele>119.9</ele>
        <time>2020-12-31T12:07:57Z</time>
      </trkpt>
      <trkpt lat="43.67894" lon="3.81094">
        <ele>119.5</ele>
        <time>2020-12-31T12:07:58Z</time>
      </trkpt>
      <trkpt lat="43.67898" lon="3.81093">
        <ele>119.2</ele>
        <time>2020-12-31T12:07:59Z</time>
      </trkpt>
      <trkpt lat="43.67903" lon="3.81092">
        <ele>118.8</ele>
        <time>2020-12-31T12:08:00Z</time>
      </trkpt>
      <trkpt lat="43.67908" lon="3.81091">
        <ele>118.4</ele>
        <time>2020-12-31T12:08:01Z</time>
      </trkpt>
      <trkpt lat="43.67918" lon="3.81088">
        <ele>117.3</ele>
        <time>2020-12-31T12:08:03Z</time>
      </trkpt>
      <trkpt lat="43.67929" lon="3.81083">
        <ele>130</ele>
        <time>2020-12-31T12:08:04Z</time>
      </trkpt>
      <trkpt lat="43.67938" lon="3.81081">
        <ele>113.7</ele>
        <time>2020-12-31T12:08:07Z</time>
      </trkpt>
      <trkpt lat="43.67942" lon="3.81082">
        <ele>113.3</ele>
        <time>2020-12-31T12:08:08Z</time>
      </trkpt>
      <trkpt lat="43.67947" lon="3.81084">
        <ele>112.7</ele>
        <time>2020-12-31T12:08:09Z</time>
      </trkpt>
      <trkpt lat="43.67953" lon="3.81086">
        <ele>112</ele>
        <time>2020-12-31T12:08:10Z</time>
      </trkpt>
      <trkpt lat="43.67959" lon="3.81087">
        <ele>111.2</ele>
        <time>2020-12-31T12:08:11Z</time>
      </trkpt>
      <trkpt lat="43.67966" lon="3.81088">
        <ele>110.3</ele>
        <time>2020-12-31T12:08:12Z</time>
      </trkpt>
      <trkpt lat="43.67972" lon="3.8109">
        <ele>109.5</ele>
        <time>2020-12-31T12:08:13Z</time>
      </trkpt>
      <trkpt lat="43.67978" lon="3.81092">
        <ele>127</ele>
        <time>2020-12-31T12:08:14Z</time>
      </trkpt>
      <trkpt lat="43.67984" lon="3.81094">
        <ele>107.9</ele>
        <time>2020-12-31T12:08:15Z</time>
      </trkpt>
      <trkpt lat="43.67988" lon="3.81096">
        <ele>107.4</ele>
        <time>2020-12-31T12:08:16Z</time>
      </trkpt>
      <trkpt lat="43.67992" lon="3.81097">
        <ele>106.8</ele>
        <time>2020-12-31T12:08:17Z</time>
      </trkpt>
      <trkpt lat="43.67996" lon="3.81098">
        <ele>106.2</ele>
        <time>2020-12-31T12:08:18Z</time>
      </trkpt>
      <trkpt lat="43.67998" lon="3.81098">
        <ele>105.9</ele>
        <time>2020-12-31T12:08:19Z</time>
      </trkpt>
      <trkpt lat="43.68" lon="3.81097">
        <ele>105.5</ele>
        <time>2020-12-31T12:08:20Z</time>
      </trkpt>
      <trkpt lat="43.68002" lon="3.81096">
        <ele>105.2</ele>
        <time>2020-12-31T12:08:21Z</time>
      </trkpt>
      <trkpt lat="43.68003" lon="3.81093">
        <ele>105</ele>
        <time>2020-12-31T12:08:22Z</time>
      </trkpt>
      <trkpt lat="43.68005" lon="3.81091">
        <ele>104.6</ele>
        <time>2020-12-31T12:08:23Z</time>
      </trkpt>
      <trkpt lat="43.68006" lon="3.81088">
        <ele>120</ele>
        <time>2020-12-31T12:08:24Z</time>
      </trkpt>
      <trkpt lat="43.68006" lon="3.81085">
        <ele>104.2</ele>
        <time>2020-12-31T12:08:25Z</time>
      </trkpt>
      <trkpt lat="43.68008" lon="3.81082">
        <ele>103.7</ele>
        <time>2020-12-31T12:08:27Z</time>
      </trkpt>
      <trkpt lat="43.6801" lon="3.81083">
        <ele>103.5</ele>
        <time>2020-12-31T12:08:29Z</time>
      </trkpt>
      <trkpt lat="43.68013" lon="3.81081">
        <ele>102.9</ele>
        <time>2020-12-31T12:08:33Z</time>
      </trkpt>
      <trkpt lat="43.68015" lon="3.8108">
        <ele>102.5</ele>
        <time>2020-12-31T12:08:35Z</time>
      </trkpt>
      <trkpt lat="43.68017" lon="3.81081">
        <ele>102.4</ele>
        <time>2020-12-31T12:08:37Z</time>
      </trkpt>
      <trkpt lat="43.68019" lon="3.81083">
        <ele>102.2</ele>
        <time>2020-12-31T12:08:38Z</time>
      </trkpt>
      <trkpt lat="43.68021" lon="3.81084">
        <ele>102</ele>
        <time>2020-12-31T12:08:39Z</time>
      </trkpt>
      <trkpt lat="43.68023" lon="3.81085">
        <ele>101.8</ele>
        <time>2020-12-31T12:08:41Z</time>
      </trkpt>
      <trkpt lat="43.68023" lon="3.81086">
        <ele>120</ele>
        <time>2020-12-31T12:08:46Z</time>
      </trkpt>
      <trkpt lat="43.68027" lon="3.81076">
        <ele>115</ele>
        <time>2020-12-31T12:09:07Z</time>
      </trkpt>
      <trkpt lat="43.68028" lon="3.81072">
        <ele>100.2</ele>
        <time>2020-12-31T12:09:08Z</time>
      </trkpt>
      <trkpt lat="43.68029" lon="3.81068">
        <ele>99.9</ele>
        <time>2020-12-31T12:09:09Z</time>
      </trkpt>
      <trkpt lat="43.6803" lon="3.81063">
        <ele>99.6</ele>
        <time>2020-12-31T12:09:10Z</time>
      </trkpt>
      <trkpt lat="43.68031" lon="3.81057">
        <ele>99.1</ele>
        <time>2020-12-31T12:09:11Z</time>
      </trkpt>
      <trkpt lat="43.68033" lon="3.81051">
        <ele>98.7</ele>
        <time>2020-12-31T12:09:12Z</time>
      </trkpt>
      <trkpt lat="43.68035" lon="3.81043">
        <ele>98.1</ele>
        <time>2020-12-31T12:09:13Z</time>
      </trkpt>
      <trkpt lat="43.68036" lon="3.81035">
        <ele>97.5</ele>
        <time>2020-12-31T12:09:14Z</time>
      </trkpt>
      <trkpt lat="43.68038" lon="3.81028">
        <ele>97</ele>
        <time>2020-12-31T12:09:15Z</time>
      </trkpt>
      <trkpt lat="43.68039" lon="3.8102">
        <ele>97</ele>
        <time>2020-12-31T12:09:16Z</time>
      </trkpt>
      <trkpt lat="43.6804" lon="3.81012">
        <ele>112</ele>
        <time>2020-12-31T12:09:17Z</time>
      </trkpt>
      <trkpt lat="43.68041" lon="3.81006">
        <ele>97</ele>
        <time>2020-12-31T12:09:18Z</time>
      </trkpt>
      <trkpt lat="43.68041" lon="3.81">
        <ele>97</ele>
        <time>2020-12-31T12:09:19Z</time>
      </trkpt>
      <trkpt lat="43.6804" lon="3.80994">
        <ele>96.9</ele>
        <time>2020-12-31T12:09:20Z</time>
      </trkpt>
      <trkpt lat="43.68039" lon="3.80989">
        <ele>96.7</ele>
        <time>2020-12-31T12:09:21Z</time>
      </trkpt>
      <trkpt lat="43.68038" lon="3.80984">
        <ele>96.5</ele>
        <time>2020-12-31T12:09:22Z</time>
      </trkpt>
      <trkpt lat="43.68037" lon="3.8098">
        <ele>96.3</ele>
        <time>2020-12-31T12:09:23Z</time>
      </trkpt>
      <trkpt lat="43.68036" lon="3.80976">
        <ele>96</ele>
        <time>2020-12-31T12:09:24Z</time>
      </trkpt>
      <trkpt lat="43.68034" lon="3.80973">
        <ele>95.7</ele>
        <time>2020-12-31T12:09:25Z</time>
      </trkpt>
      <trkpt lat="43.68031" lon="3.80969">
        <ele>95.3</ele>
        <time>2020-12-31T12:09:26Z</time>
      </trkpt>
      <trkpt lat="43.68025" lon="3.80964">
        <ele>108</ele>
        <time>2020-12-31T12:09:27Z</time>
      </trkpt>
      <trkpt lat="43.68022" lon="3.80961">
        <ele>95.3</ele>
        <time>2020-12-31T12:09:28Z</time>
      </trkpt>
      <trkpt lat="43.6802" lon="3.80958">
        <ele>95.4</ele>
        <time>2020-12-31T12:09:29Z</time>
      </trkpt>
      <trkpt lat="43.68019" lon="3.80954">
        <ele>95.4</ele>
        <time>2020-12-31T12:09:30Z</time>
      </trkpt>
      <trkpt lat="43.68018" lon="3.80951">
        <ele>95.4</ele>
        <time>2020-12-31T12:09:31Z</time>
      </trkpt>
      <trkpt lat="43.68016" lon="3.80948">
        <ele>95.5</ele>
        <time>2020-12-31T12:09:32Z</time>
      </trkpt>
      <trkpt lat="43.68014" lon="3.80946">
        <ele>95.5</ele>
        <time>2020-12-31T12:09:33Z</time>
      </trkpt>
      <trkpt lat="43.68014" lon="3.80943">
        <ele>95.5</ele>
        <time>2020-12-31T12:09:34Z</time>
      </trkpt>
      <trkpt lat="43.68013" lon="3.8094">
        <ele>95.6</ele>
        <time>2020-12-31T12:09:36Z</time>
      </trkpt>
      <trkpt lat="43.68013" lon="3.80942">
        <ele>95.6</ele>
        <time>2020-12-31T12:09:44Z</time>
      </trkpt>
      <trkpt lat="43.68015" lon="3.80947">
        <ele>95.5</ele>
        <time>2020-12-31T12:09:46Z</time>
      </trkpt>
      <trkpt lat="43.68016" lon="3.8095">
        <ele>102</ele>
        <time>2020-12-31T12:09:47Z</time>
      </trkpt>
      <trkpt lat="43.68018" lon="3.80953">
        <ele>95.5</ele>
        <time>2020-12-31T12:09:48Z</time>
      </trkpt>
      <trkpt lat="43.6802" lon="3.80957">
        <ele>95.4</ele>
        <time>2020-12-31T12:09:49Z</time>
      </trkpt>
      <trkpt lat="43.68021" lon="3.8096">
        <ele>95.4</ele>
        <time>2020-12-31T12:09:50Z</time>
      </trkpt>
      <trkpt lat="43.68023" lon="3.80964">
        <ele>95.3</ele>
        <time>2020-12-31T12:09:51Z</time>
      </trkpt>
      <trkpt lat="43.68025" lon="3.80968">
        <ele>95.2</ele>
        <time>2020-12-31T12:09:52Z</time>
      </trkpt>
      <trkpt lat="43.68028" lon="3.80971">
        <ele>95</ele>
        <time>2020-12-31T12:09:53Z</time>
      </trkpt>
      <trkpt lat="43.6803" lon="3.80974">
        <ele>95.4</ele>
        <time>2020-12-31T12:09:54Z</time>
      </trkpt>
      <trkpt lat="43.68033" lon="3.80977">
        <ele>95.8</ele>
        <time>2020-12-31T12:09:55Z</time>
      </trkpt>
      <trkpt lat="43.68035" lon="3.80981">
        <ele>96.2</ele>
        <time>2020-12-31T12:09:56Z</time>
      </trkpt>
      <trkpt lat="43.68037" lon="3.80985">
        <ele>99</ele>
        <time>2020-12-31T12:09:57Z</time>
      </trkpt>
      <trkpt lat="43.68038" lon="3.80989">
        <ele>96.6</ele>
        <time>2020-12-31T12:09:58Z</time>
      </trkpt>
      <trkpt lat="43.68039" lon="3.80993">
        <ele>96.8</ele>
        <time>2020-12-31T12:09:59Z</time>
      </trkpt>
      <trkpt lat="43.6804" lon="3.80998">
        <ele>97</ele>
        <time>2020-12-31T12:10:00Z</time>
      </trkpt>
      <trkpt lat="43.6804" lon="3.81002">
        <ele>97</ele>
        <time>2020-12-31T12:10:01Z</time>
      </trkpt>
      <trkpt lat="43.6804" lon="3.81006">
        <ele>97</ele>
        <time>2020-12-31T12:10:02Z</time>
      </trkpt>
      <trkpt lat="43.6804" lon="3.8101">
        <ele>97</ele>
        <time>2020-12-31T12:10:03Z</time>
      </trkpt>
      <trkpt lat="43.6804" lon="3.81014">
        <ele>97</ele>
        <time>2020-12-31T12:10:04Z</time>
      </trkpt>
      <trkpt lat="43.68039" lon="3.81018">
        <ele>97</ele>
        <time>2020-12-31T12:10:05Z</time>
      </trkpt>
      <trkpt lat="43.68039" lon="3.81021">
        <ele>97</ele>
        <time>2020-12-31T12:10:06Z</time>
      </trkpt>
      <trkpt lat="43.68038" lon="3.81025">
        <ele>100</ele>
        <time>2020-12-31T12:10:07Z</time>
      </trkpt>
      <trkpt lat="43.68037" lon="3.81029">
        <ele>97.1</ele>
        <time>2020-12-31T12:10:08Z</time>
      </trkpt>
      <trkpt lat="43.68036" lon="3.81032">
        <ele>97.3</ele>
        <time>2020-12-31T12:10:09Z</time>
      </trkpt>
      <trkpt lat="43.68035" lon="3.81036">
        <ele>97.6</ele>
        <time>2020-12-31T12:10:10Z</time>
      </trkpt>
      <trkpt lat="43.68033" lon="3.81039">
        <ele>97.8</ele>
        <time>2020-12-31T12:10:11Z</time>
      </trkpt>
      <trkpt lat="43.68033" lon="3.81043">
        <ele>98.1</ele>
        <time>2020-12-31T12:10:12Z</time>
      </trkpt>
      <trkpt lat="43.68032" lon="3.81047">
        <ele>98.4</ele>
        <time>2020-12-31T12:10:13Z</time>
      </trkpt>
      <trkpt lat="43.68031" lon="3.8105">
        <ele>98.6</ele>
        <time>2020-12-31T12:10:14Z</time>
      </trkpt>
      <trkpt lat="43.68031" lon="3.81054">
        <ele>98.9</ele>
        <time>2020-12-31T12:10:15Z</time>
      </trkpt>
      <trkpt lat="43.6803" lon="3.81058">
        <ele>99.2</ele>
        <time>2020-12-31T12:10:16Z</time>
      </trkpt>
      <trkpt lat="43.68029" lon="3.81062">
        <ele>101</ele>
        <time>2020-12-31T12:10:17Z</time>
      </trkpt>
      <trkpt lat="43.68028" lon="3.81065">
        <ele>99.7</ele>
        <time>2020-12-31T12:10:18Z</time>
      </trkpt>
      <trkpt lat="43.68027" lon="3.81068">
        <ele>100</ele>
        <time>2020-12-31T12:10:19Z</time>
      </trkpt>
      <trkpt lat="43.68026" lon="3.81071">
        <ele>100.3</ele>
        <time>2020-12-31T12:10:20Z</time>
      </trkpt>
      <trkpt lat="43.68025" lon="3.81074">
        <ele>100.7</ele>
        <time>2020-12-31T12:10:21Z</time>
      </trkpt>
      <trkpt lat="43.68024" lon="3.81077">
        <ele>101.1</ele>
        <time>2020-12-31T12:10:22Z</time>
      </trkpt>
      <trkpt lat="43.68024" lon="3.8108">
        <ele>101.3</ele>
        <time>2020-12-31T12:10:23Z</time>
      </trkpt>
      <trkpt lat="43.68022" lon="3.81085">
        <ele>101.9</ele>
        <time>2020-12-31T12:10:24Z</time>
      </trkpt>
      <trkpt lat="43.68022" lon="3.81088">
        <ele>102.1</ele>
        <time>2020-12-31T12:10:25Z</time>
      </trkpt>
      <trkpt lat="43.68021" lon="3.81091">
        <ele>102</ele>
        <time>2020-12-31T12:10:27Z</time>
      </trkpt>
      <trkpt lat="43.68019" lon="3.81095">
        <ele>103</ele>
        <time>2020-12-31T12:10:29Z</time>
      </trkpt>
      <trkpt lat="43.68019" lon="3.81096">
        <ele>102</ele>
        <time>2020-12-31T12:10:35Z</time>
      </trkpt>
      <trkpt lat="43.68021" lon="3.81088">
        <ele>102</ele>
        <time>2020-12-31T12:10:43Z</time>
      </trkpt>
      <trkpt lat="43.68019" lon="3.81086">
        <ele>102.4</ele>
        <time>2020-12-31T12:10:44Z</time>
      </trkpt>
      <trkpt lat="43.68016" lon="3.81085">
        <ele>102.8</ele>
        <time>2020-12-31T12:10:46Z</time>
      </trkpt>
      <trkpt lat="43.68014" lon="3.81085">
        <ele>103.1</ele>
        <time>2020-12-31T12:10:48Z</time>
      </trkpt>
      <trkpt lat="43.68012" lon="3.81088">
        <ele>103.5</ele>
        <time>2020-12-31T12:10:50Z</time>
      </trkpt>
      <trkpt lat="43.68011" lon="3.81089">
        <ele>105</ele>
        <time>2020-12-31T12:10:52Z</time>
      </trkpt>
      <trkpt lat="43.68009" lon="3.81088">
        <ele>103.9</ele>
        <time>2020-12-31T12:10:56Z</time>
      </trkpt>
      <trkpt lat="43.68006" lon="3.81086">
        <ele>104.3</ele>
        <time>2020-12-31T12:10:58Z</time>
      </trkpt>
      <trkpt lat="43.68003" lon="3.81085">
        <ele>104.6</ele>
        <time>2020-12-31T12:11:00Z</time>
      </trkpt>
      <trkpt lat="43.68" lon="3.81085">
        <ele>105.1</ele>
        <time>2020-12-31T12:11:02Z</time>
      </trkpt>
      <trkpt lat="43.67997" lon="3.81085">
        <ele>105.5</ele>
        <time>2020-12-31T12:11:04Z</time>
      </trkpt>
      <trkpt lat="43.67995" lon="3.81084">
        <ele>105.7</ele>
        <time>2020-12-31T12:11:05Z</time>
      </trkpt>
      <trkpt lat="43.67991" lon="3.81084">
        <ele>106.3</ele>
        <time>2020-12-31T12:11:07Z</time>
      </trkpt>
      <trkpt lat="43.67989" lon="3.81086">
        <ele>106.7</ele>
        <time>2020-12-31T12:11:08Z</time>
      </trkpt>
      <trkpt lat="43.67987" lon="3.81088">
        <ele>107.1</ele>
        <time>2020-12-31T12:11:11Z</time>
      </trkpt>
      <trkpt lat="43.67985" lon="3.81091">
        <ele>107.6</ele>
        <time>2020-12-31T12:11:13Z</time>
      </trkpt>
      <trkpt lat="43.67983" lon="3.81093">
        <ele>108</ele>
        <time>2020-12-31T12:11:15Z</time>
      </trkpt>
      <trkpt lat="43.67981" lon="3.81094">
        <ele>108.4</ele>
        <time>2020-12-31T12:11:17Z</time>
      </trkpt>
      <trkpt lat="43.67978" lon="3.81095">
        <ele>108.9</ele>
        <time>2020-12-31T12:11:19Z</time>
      </trkpt>
      <trkpt lat="43.67976" lon="3.81094">
        <ele>109.2</ele>
        <time>2020-12-31T12:11:21Z</time>
      </trkpt>
      <trkpt lat="43.67973" lon="3.81094">
        <ele>111</ele>
        <time>2020-12-31T12:11:22Z</time>
      </trkpt>
      <trkpt lat="43.6797" lon="3.81093">
        <ele>110</ele>
        <time>2020-12-31T12:11:24Z</time>
      </trkpt>
      <trkpt lat="43.67968" lon="3.81093">
        <ele>110.4</ele>
        <time>2020-12-31T12:11:26Z</time>
      </trkpt>
      <trkpt lat="43.67965" lon="3.81092">
        <ele>110.7</ele>
        <time>2020-12-31T12:11:28Z</time>
      </trkpt>
      <trkpt lat="43.67963" lon="3.81091">
        <ele>111</ele>
        <time>2020-12-31T12:11:30Z</time>
      </trkpt>
      <trkpt lat="43.6796" lon="3.8109">
        <ele>111.3</ele>
        <time>2020-12-31T12:11:33Z</time>
      </trkpt>
      <trkpt lat="43.67958" lon="3.81088">
        <ele>111.5</ele>
        <time>2020-12-31T12:11:35Z</time>
      </trkpt>
      <trkpt lat="43.67955" lon="3.81087">
        <ele>111.8</ele>
        <time>2020-12-31T12:11:37Z</time>
      </trkpt>
      <trkpt lat="43.67953" lon="3.81087">
        <ele>112.1</ele>
        <time>2020-12-31T12:11:39Z</time>
      </trkpt>
      <trkpt lat="43.6795" lon="3.81087">
        <ele>112.6</ele>
        <time>2020-12-31T12:11:41Z</time>
      </trkpt>
      <trkpt lat="43.67948" lon="3.81086">
        <ele>112.8</ele>
        <time>2020-12-31T12:11:43Z</time>
      </trkpt>
      <trkpt lat="43.67945" lon="3.81084">
        <ele>113</ele>
        <time>2020-12-31T12:11:45Z</time>
      </trkpt>
      <trkpt lat="43.67942" lon="3.81084">
        <ele>113.4</ele>
        <time>2020-12-31T12:11:47Z</time>
      </trkpt>
      <trkpt lat="43.6794" lon="3.81084">
        <ele>113.7</ele>
        <time>2020-12-31T12:11:49Z</time>
      </trkpt>
      <trkpt lat="43.67938" lon="3.81083">
        <ele>113.9</ele>
        <time>2020-12-31T12:11:50Z</time>
      </trkpt>
      <trkpt lat="43.67935" lon="3.81082">
        <ele>114.2</ele>
        <time>2020-12-31T12:11:53Z</time>
      </trkpt>
      <trkpt lat="43.67932" lon="3.81081">
        <ele>114.6</ele>
        <time>2020-12-31T12:11:55Z</time>
      </trkpt>
      <trkpt lat="43.6793" lon="3.81081">
        <ele>114.9</ele>
        <time>2020-12-31T12:11:57Z</time>
      </trkpt>
      <trkpt lat="43.67928" lon="3.81083">
        <ele>115.3</ele>
        <time>2020-12-31T12:11:59Z</time>
      </trkpt>
      <trkpt lat="43.67927" lon="3.81085">
        <ele>115.7</ele>
        <time>2020-12-31T12:12:01Z</time>
      </trkpt>
      <trkpt lat="43.67925" lon="3.81088">
        <ele>116.3</ele>
        <time>2020-12-31T12:12:03Z</time>
      </trkpt>
      <trkpt lat="43.67924" lon="3.81089">
        <ele>116.6</ele>
        <time>2020-12-31T12:12:05Z</time>
      </trkpt>
      <trkpt lat="43.67922" lon="3.81091">
        <ele>117.1</ele>
        <time>2020-12-31T12:12:07Z</time>
      </trkpt>
      <trkpt lat="43.6792" lon="3.81092">
        <ele>117.5</ele>
        <time>2020-12-31T12:12:09Z</time>
      </trkpt>
      <trkpt lat="43.67917" lon="3.81092">
        <ele>117.9</ele>
        <time>2020-12-31T12:12:11Z</time>
      </trkpt>
      <trkpt lat="43.67915" lon="3.81092">
        <ele>118</ele>
        <time>2020-12-31T12:12:13Z</time>
      </trkpt>
      <trkpt lat="43.67912" lon="3.81092">
        <ele>118.2</ele>
        <time>2020-12-31T12:12:15Z</time>
      </trkpt>
      <trkpt lat="43.6791" lon="3.81093">
        <ele>118.4</ele>
        <time>2020-12-31T12:12:17Z</time>
      </trkpt>
      <trkpt lat="43.67907" lon="3.81094">
        <ele>118.7</ele>
        <time>2020-12-31T12:12:19Z</time>
      </trkpt>
      <trkpt lat="43.67905" lon="3.81095">
        <ele>118.9</ele>
        <time>2020-12-31T12:12:21Z</time>
      </trkpt>
      <trkpt lat="43.67902" lon="3.81096">
        <ele>119.2</ele>
        <time>2020-12-31T12:12:23Z</time>
      </trkpt>
      <trkpt lat="43.679" lon="3.81096">
        <ele>119.3</ele>
        <time>2020-12-31T12:12:25Z</time>
      </trkpt>
      <trkpt lat="43.67897" lon="3.81097">
        <ele>119.5</ele>
        <time>2020-12-31T12:12:27Z</time>
      </trkpt>
      <trkpt lat="43.67894" lon="3.81098">
        <ele>119.8</ele>
        <time>2020-12-31T12:12:29Z</time>
      </trkpt>
      <trkpt lat="43.67892" lon="3.81098">
        <ele>119.9</ele>
        <time>2020-12-31T12:12:31Z</time>
      </trkpt>
      <trkpt lat="43.67889" lon="3.81099">
        <ele>122</ele>
        <time>2020-12-31T12:12:32Z</time>
      </trkpt>
      <trkpt lat="43.67887" lon="3.81101">
        <ele>120.3</ele>
        <time>2020-12-31T12:12:34Z</time>
      </trkpt>
      <trkpt lat="43.67884" lon="3.81102">
        <ele>120.3</ele>
        <time>2020-12-31T12:12:36Z</time>
      </trkpt>
      <trkpt lat="43.67882" lon="3.81102">
        <ele>120.3</ele>
        <time>2020-12-31T12:12:38Z</time>
      </trkpt>
      <trkpt lat="43.67879" lon="3.81103">
        <ele>120.4</ele>
        <time>2020-12-31T12:12:40Z</time>
      </trkpt>
      <trkpt lat="43.67877" lon="3.81103">
        <ele>120.4</ele>
        <time>2020-12-31T12:12:43Z</time>
      </trkpt>
      <trkpt lat="43.67875" lon="3.81104">
        <ele>120.5</ele>
        <time>2020-12-31T12:12:45Z</time>
      </trkpt>
      <trkpt lat="43.67872" lon="3.81105">
        <ele>120.6</ele>
        <time>2020-12-31T12:12:47Z</time>
      </trkpt>
      <trkpt lat="43.6787" lon="3.81106">
        <ele>120.6</ele>
        <time>2020-12-31T12:12:49Z</time>
      </trkpt>
      <trkpt lat="43.67866" lon="3.81108">
        <ele>120.8</ele>
        <time>2020-12-31T12:12:51Z</time>
      </trkpt>
      <trkpt lat="43.67865" lon="3.81109">
        <ele>124</ele>
        <time>2020-12-31T12:12:52Z</time>
      </trkpt>
      <trkpt lat="43.67863" lon="3.8111">
        <ele>120.9</ele>
        <time>2020-12-31T12:12:53Z</time>
      </trkpt>
      <trkpt lat="43.67861" lon="3.81111">
        <ele>121</ele>
        <time>2020-12-31T12:12:54Z</time>
      </trkpt>
      <trkpt lat="43.67859" lon="3.81112">
        <ele>121.2</ele>
        <time>2020-12-31T12:12:55Z</time>
      </trkpt>
      <trkpt lat="43.67856" lon="3.81113">
        <ele>121.4</ele>
        <time>2020-12-31T12:12:56Z</time>
      </trkpt>
      <trkpt lat="43.67855" lon="3.81113">
        <ele>121.4</ele>
        <time>2020-12-31T12:12:57Z</time>
      </trkpt>
      <trkpt lat="43.67853" lon="3.81114">
        <ele>121.6</ele>
        <time>2020-12-31T12:12:58Z</time>
      </trkpt>
      <trkpt lat="43.67851" lon="3.81115">
        <ele>121.7</ele>
        <time>2020-12-31T12:12:59Z</time>
      </trkpt>
      <trkpt lat="43.67848" lon="3.81116">
        <ele>121.9</ele>
        <time>2020-12-31T12:13:01Z</time>
      </trkpt>
      <trkpt lat="43.67846" lon="3.81119">
        <ele>122.2</ele>
        <time>2020-12-31T12:13:03Z</time>
      </trkpt>
      <trkpt lat="43.67846" lon="3.81122">
        <ele>122.5</ele>
        <time>2020-12-31T12:13:04Z</time>
      </trkpt>
      <trkpt lat="43.67846" lon="3.81125">
        <ele>122.8</ele>
        <time>2020-12-31T12:13:05Z</time>
      </trkpt>
      <trkpt lat="43.67845" lon="3.81128">
        <ele>123.1</ele>
        <time>2020-12-31T12:13:06Z</time>
      </trkpt>
      <trkpt lat="43.67844" lon="3.8113">
        <ele>123.2</ele>
        <time>2020-12-31T12:13:07Z</time>
      </trkpt>
      <trkpt lat="43.67844" lon="3.81133">
        <ele>123.5</ele>
        <time>2020-12-31T12:13:08Z</time>
      </trkpt>
      <trkpt lat="43.67843" lon="3.81135">
        <ele>123.7</ele>
        <time>2020-12-31T12:13:09Z</time>
      </trkpt>
      <trkpt lat="43.67842" lon="3.81138">
        <ele>123.9</ele>
        <time>2020-12-31T12:13:10Z</time>
      </trkpt>
      <trkpt lat="43.67842" lon="3.81141">
        <ele>124.1</ele>
        <time>2020-12-31T12:13:11Z</time>
      </trkpt>
      <trkpt lat="43.67841" lon="3.81143">
        <ele>127</ele>
        <time>2020-12-31T12:13:12Z</time>
      </trkpt>
      <trkpt lat="43.67841" lon="3.81146">
        <ele>124.4</ele>
        <time>2020-12-31T12:13:13Z</time>
      </trkpt>
      <trkpt lat="43.67841" lon="3.81149">
        <ele>124.6</ele>
        <time>2020-12-31T12:13:14Z</time>
      </trkpt>
      <trkpt lat="43.67841" lon="3.81153">
        <ele>124.9</ele>
        <time>2020-12-31T12:13:16Z</time>
      </trkpt>
      <trkpt lat="43.6784" lon="3.81158">
        <ele>125.2</ele>
        <time>2020-12-31T12:13:18Z</time>
      </trkpt>
      <trkpt lat="43.67839" lon="3.81162">
        <ele>125.5</ele>
        <time>2020-12-31T12:13:20Z</time>
      </trkpt>
      <trkpt lat="43.67838" lon="3.81167">
        <ele>128</ele>
        <time>2020-12-31T12:13:22Z</time>
      </trkpt>
      <trkpt lat="43.67837" lon="3.81169">
        <ele>125.9</ele>
        <time>2020-12-31T12:13:23Z</time>
      </trkpt>
      <trkpt lat="43.67835" lon="3.81174">
        <ele>125.9</ele>
        <time>2020-12-31T12:13:25Z</time>
      </trkpt>
      <trkpt lat="43.67834" lon="3.81176">
        <ele>126</ele>
        <time>2020-12-31T12:13:26Z</time>
      </trkpt>
      <trkpt lat="43.67834" lon="3.81179">
        <ele>126</ele>
        <time>2020-12-31T12:13:27Z</time>
      </trkpt>
      <trkpt lat="43.67833" lon="3.81181">
        <ele>126</ele>
        <time>2020-12-31T12:13:28Z</time>
      </trkpt>
      <trkpt lat="43.67832" lon="3.81184">
        <ele>126.1</ele>
        <time>2020-12-31T12:13:29Z</time>
      </trkpt>
      <trkpt lat="43.67831" lon="3.81186">
        <ele>126.2</ele>
        <time>2020-12-31T12:13:30Z</time>
      </trkpt>
      <trkpt lat="43.6783" lon="3.81189">
        <ele>126.3</ele>
        <time>2020-12-31T12:13:31Z</time>
      </trkpt>
      <trkpt lat="43.6783" lon="3.81192">
        <ele>130</ele>
        <time>2020-12-31T12:13:32Z</time>
      </trkpt>
      <trkpt lat="43.67829" lon="3.81195">
        <ele>126.5</ele>
        <time>2020-12-31T12:13:33Z</time>
      </trkpt>
      <trkpt lat="43.67828" lon="3.81198">
        <ele>126.7</ele>
        <time>2020-12-31T12:13:34Z</time>
      </trkpt>
      <trkpt lat="43.67828" lon="3.81201">
        <ele>126.8</ele>
        <time>2020-12-31T12:13:35Z</time>
      </trkpt>
      <trkpt lat="43.67827" lon="3.81204">
        <ele>126.9</ele>
        <time>2020-12-31T12:13:36Z</time>
      </trkpt>
      <trkpt lat="43.67827" lon="3.81207">
        <ele>127</ele>
        <time>2020-12-31T12:13:37Z</time>
      </trkpt>
      <trkpt lat="43.67827" lon="3.8121">
        <ele>127.1</ele>
        <time>2020-12-31T12:13:38Z</time>
      </trkpt>
      <trkpt lat="43.67826" lon="3.81213">
        <ele>127.3</ele>
        <time>2020-12-31T12:13:39Z</time>
      </trkpt>
      <trkpt lat="43.67826" lon="3.81216">
        <ele>127.4</ele>
        <time>2020-12-31T12:13:40Z</time>
      </trkpt>
      <trkpt lat="43.67825" lon="3.81218">
        <ele>127.5</ele>
        <time>2020-12-31T12:13:41Z</time>
      </trkpt>
      <trkpt lat="43.67825" lon="3.81221">
        <ele>130</ele>
        <time>2020-12-31T12:13:42Z</time>
      </trkpt>
      <trkpt lat="43.67824" lon="3.81223">
        <ele>127.7</ele>
        <time>2020-12-31T12:13:43Z</time>
      </trkpt>
      <trkpt lat="43.67823" lon="3.81226">
        <ele>127.7</ele>
        <time>2020-12-31T12:13:44Z</time>
      </trkpt>
      <trkpt lat="43.67821" lon="3.8123">
        <ele>127.9</ele>
        <time>2020-12-31T12:13:46Z</time>
      </trkpt>
      <trkpt lat="43.67821" lon="3.81233">
        <ele>127.9</ele>
        <time>2020-12-31T12:13:47Z</time>
      </trkpt>
      <trkpt lat="43.67819" lon="3.81237">
        <ele>128</ele>
        <time>2020-12-31T12:13:49Z</time>
      </trkpt>
      <trkpt lat="43.67817" lon="3.8124">
        <ele>128.2</ele>
        <time>2020-12-31T12:13:51Z</time>
      </trkpt>
      <trkpt lat="43.67815" lon="3.81243">
        <ele>131</ele>
        <time>2020-12-31T12:13:52Z</time>
      </trkpt>
      <trkpt lat="43.67814" lon="3.81247">
        <ele>128.4</ele>
        <time>2020-12-31T12:13:54Z</time>
      </trkpt>
      <trkpt lat="43.67812" lon="3.8125">
        <ele>128.5</ele>
        <time>2020-12-31T12:13:56Z</time>
      </trkpt>
      <trkpt lat="43.6781" lon="3.81252">
        <ele>128.5</ele>
        <time>2020-12-31T12:13:58Z</time>
      </trkpt>
      <trkpt lat="43.67808" lon="3.81253">
        <ele>128.6</ele>
        <time>2020-12-31T12:14:01Z</time>
      </trkpt>
      <trkpt lat="43.67805" lon="3.81253">
        <ele>128.8</ele>
        <time>2020-12-31T12:14:06Z</time>
      </trkpt>
      <trkpt lat="43.67803" lon="3.81253">
        <ele>128.8</ele>
        <time>2020-12-31T12:14:07Z</time>
      </trkpt>
      <trkpt lat="43.67801" lon="3.81252">
        <ele>128.9</ele>
        <time>2020-12-31T12:14:08Z</time>
      </trkpt>
      <trkpt lat="43.678" lon="3.81251">
        <ele>128.9</ele>
        <time>2020-12-31T12:14:09Z</time>
      </trkpt>
      <trkpt lat="43.67798" lon="3.81249">
        <ele>129</ele>
        <time>2020-12-31T12:14:10Z</time>
      </trkpt>
      <trkpt lat="43.67796" lon="3.81248">
        <ele>129</ele>
        <time>2020-12-31T12:14:11Z</time>
      </trkpt>
      <trkpt lat="43.67793" lon="3.81247">
        <ele>132</ele>
        <time>2020-12-31T12:14:12Z</time>
      </trkpt>
      <trkpt lat="43.67791" lon="3.81247">
        <ele>129</ele>
        <time>2020-12-31T12:14:13Z</time>
      </trkpt>
      <trkpt lat="43.67787" lon="3.81247">
        <ele>129</ele>
        <time>2020-12-31T12:14:15Z</time>
      </trkpt>
      <trkpt lat="43.67786" lon="3.81248">
        <ele>129</ele>
        <time>2020-12-31T12:14:16Z</time>
      </trkpt>
      <trkpt lat="43.67782" lon="3.81249">
        <ele>129</ele>
        <time>2020-12-31T12:14:18Z</time>
      </trkpt>
      <trkpt lat="43.6778" lon="3.8125">
        <ele>129</ele>
        <time>2020-12-31T12:14:19Z</time>
      </trkpt>
      <trkpt lat="43.67777" lon="3.81251">
        <ele>129</ele>
        <time>2020-12-31T12:14:21Z</time>
      </trkpt>
      <trkpt lat="43.67773" lon="3.81249">
        <ele>129</ele>
        <time>2020-12-31T12:14:24Z</time>
      </trkpt>
      <trkpt lat="43.67772" lon="3.81248">
        <ele>129</ele>
        <time>2020-12-31T12:14:25Z</time>
      </trkpt>
      <trkpt lat="43.67768" lon="3.81246">
        <ele>129.1</ele>
        <time>2020-12-31T12:14:27Z</time>
      </trkpt>
      <trkpt lat="43.67765" lon="3.81245">
        <ele>129.1</ele>
        <time>2020-12-31T12:14:29Z</time>
      </trkpt>
      <trkpt lat="43.67763" lon="3.81243">
        <ele>129.1</ele>
        <time>2020-12-31T12:14:31Z</time>
      </trkpt>
      <trkpt lat="43.6776" lon="3.81241">
        <ele>133</ele>
        <time>2020-12-31T12:14:32Z</time>
      </trkpt>
      <trkpt lat="43.67758" lon="3.81238">
        <ele>129.3</ele>
        <time>2020-12-31T12:14:34Z</time>
      </trkpt>
      <trkpt lat="43.67756" lon="3.81236">
        <ele>129.4</ele>
        <time>2020-12-31T12:14:35Z</time>
      </trkpt>
      <trkpt lat="43.67755" lon="3.81234">
        <ele>129.5</ele>
        <time>2020-12-31T12:14:36Z</time>
      </trkpt>
      <trkpt lat="43.67752" lon="3.8123">
        <ele>129.7</ele>
        <time>2020-12-31T12:14:38Z</time>
      </trkpt>
      <trkpt lat="43.6775" lon="3.81228">
        <ele>129.8</ele>
        <time>2020-12-31T12:14:39Z</time>
      </trkpt>
      <trkpt lat="43.67748" lon="3.81226">
        <ele>129.5</ele>
        <time>2020-12-31T12:14:40Z</time>
      </trkpt>
      <trkpt lat="43.67746" lon="3.81224">
        <ele>129.2</ele>
        <time>2020-12-31T12:14:41Z</time>
      </trkpt>
      <trkpt lat="43.67745" lon="3.81222">
        <ele>129.1</ele>
        <time>2020-12-31T12:14:43Z</time>
      </trkpt>
      <trkpt lat="43.67743" lon="3.81219">
        <ele>128.7</ele>
        <time>2020-12-31T12:14:44Z</time>
      </trkpt>
      <trkpt lat="43.67742" lon="3.81216">
        <ele>128.5</ele>
        <time>2020-12-31T12:14:45Z</time>
      </trkpt>
      <trkpt lat="43.67741" lon="3.81214">
        <ele>128.4</ele>
        <time>2020-12-31T12:14:46Z</time>
      </trkpt>
      <trkpt lat="43.67739" lon="3.81211">
        <ele>128.1</ele>
        <time>2020-12-31T12:14:47Z</time>
      </trkpt>
      <trkpt lat="43.67738" lon="3.81209">
        <ele>128</ele>
        <time>2020-12-31T12:14:48Z</time>
      </trkpt>
      <trkpt lat="43.67736" lon="3.81206">
        <ele>127.8</ele>
        <time>2020-12-31T12:14:50Z</time>
      </trkpt>
      <trkpt lat="43.67735" lon="3.81204">
        <ele>135</ele>
        <time>2020-12-31T12:14:55Z</time>
      </trkpt>
      <trkpt lat="43.67734" lon="3.81204">
        <ele>136</ele>
        <time>2020-12-31T12:15:38Z</time>
      </trkpt>
      <trkpt lat="43.67735" lon="3.81204">
        <ele>127.7</ele>
        <time>2020-12-31T12:15:39Z</time>
      </trkpt>
      <trkpt lat="43.67734" lon="3.81209">
        <ele>136</ele>
        <time>2020-12-31T12:16:00Z</time>
      </trkpt>
      <trkpt lat="43.67731" lon="3.81212">
        <ele>127</ele>
        <time>2020-12-31T12:16:02Z</time>
      </trkpt>
      <trkpt lat="43.67729" lon="3.81213">
        <ele>126.6</ele>
        <time>2020-12-31T12:16:03Z</time>
      </trkpt>
      <trkpt lat="43.67726" lon="3.81214">
        <ele>126.2</ele>
        <time>2020-12-31T12:16:04Z</time>
      </trkpt>
      <trkpt lat="43.67723" lon="3.81212">
        <ele>125.8</ele>
        <time>2020-12-31T12:16:05Z</time>
      </trkpt>
      <trkpt lat="43.6772" lon="3.81211">
        <ele>125.6</ele>
        <time>2020-12-31T12:16:06Z</time>
      </trkpt>
      <trkpt lat="43.67716" lon="3.8121">
        <ele>125.1</ele>
        <time>2020-12-31T12:16:07Z</time>
      </trkpt>
      <trkpt lat="43.67712" lon="3.81209">
        <ele>124.7</ele>
        <time>2020-12-31T12:16:08Z</time>
      </trkpt>
      <trkpt lat="43.67708" lon="3.81208">
        <ele>124.2</ele>
        <time>2020-12-31T12:16:09Z</time>
      </trkpt>
      <trkpt lat="43.67702" lon="3.81208">
        <ele>136</ele>
        <time>2020-12-31T12:16:10Z</time>
      </trkpt>
      <trkpt lat="43.67698" lon="3.81208">
        <ele>122.9</ele>
        <time>2020-12-31T12:16:11Z</time>
      </trkpt>
      <trkpt lat="43.67693" lon="3.81209">
        <ele>122.4</ele>
        <time>2020-12-31T12:16:12Z</time>
      </trkpt>
      <trkpt lat="43.6769" lon="3.81211">
        <ele>122.4</ele>
        <time>2020-12-31T12:16:13Z</time>
      </trkpt>
      <trkpt lat="43.67687" lon="3.81213">
        <ele>122.3</ele>
        <time>2020-12-31T12:16:14Z</time>
      </trkpt>
      <trkpt lat="43.67685" lon="3.81214">
        <ele>122.3</ele>
        <time>2020-12-31T12:16:15Z</time>
      </trkpt>
      <trkpt lat="43.67683" lon="3.81214">
        <ele>122.2</ele>
        <time>2020-12-31T12:16:16Z</time>
      </trkpt>
      <trkpt lat="43.67681" lon="3.81214">
        <ele>122.1</ele>
        <time>2020-12-31T12:16:17Z</time>
      </trkpt>
      <trkpt lat="43.67678" lon="3.81214">
        <ele>121.9</ele>
        <time>2020-12-31T12:16:18Z</time>
      </trkpt>
      <trkpt lat="43.67674" lon="3.81213">
        <ele>121.7</ele>
        <time>2020-12-31T12:16:19Z</time>
      </trkpt>
      <trkpt lat="43.67668" lon="3.81214">
        <ele>134</ele>
        <time>2020-12-31T12:16:20Z</time>
      </trkpt>
      <trkpt lat="43.67665" lon="3.81216">
        <ele>121.5</ele>
        <time>2020-12-31T12:16:21Z</time>
      </trkpt>
      <trkpt lat="43.67663" lon="3.81219">
        <ele>121.6</ele>
        <time>2020-12-31T12:16:22Z</time>
      </trkpt>
      <trkpt lat="43.67661" lon="3.81222">
        <ele>121.8</ele>
        <time>2020-12-31T12:16:23Z</time>
      </trkpt>
      <trkpt lat="43.67659" lon="3.81225">
        <ele>121.9</ele>
        <time>2020-12-31T12:16:24Z</time>
      </trkpt>
      <trkpt lat="43.67657" lon="3.81229">
        <ele>122.1</ele>
        <time>2020-12-31T12:16:25Z</time>
      </trkpt>
      <trkpt lat="43.67654" lon="3.81231">
        <ele>122.2</ele>
        <time>2020-12-31T12:16:26Z</time>
      </trkpt>
      <trkpt lat="43.67652" lon="3.81233">
        <ele>122.2</ele>
        <time>2020-12-31T12:16:27Z</time>
      </trkpt>
      <trkpt lat="43.67649" lon="3.81234">
        <ele>122.2</ele>
        <time>2020-12-31T12:16:28Z</time>
      </trkpt>
      <trkpt lat="43.67646" lon="3.81235">
        <ele>122.2</ele>
        <time>2020-12-31T12:16:29Z</time>
      </trkpt>
      <trkpt lat="43.67644" lon="3.81235">
        <ele>122.1</ele>
        <time>2020-12-31T12:16:31Z</time>
      </trkpt>
      <trkpt lat="43.67641" lon="3.81235">
        <ele>122</ele>
        <time>2020-12-31T12:16:32Z</time>
      </trkpt>
      <trkpt lat="43.67638" lon="3.81234">
        <ele>121.8</ele>
        <time>2020-12-31T12:16:33Z</time>
      </trkpt>
      <trkpt lat="43.67636" lon="3.81233">
        <ele>121.8</ele>
        <time>2020-12-31T12:16:34Z</time>
      </trkpt>
      <trkpt lat="43.67632" lon="3.81233">
        <ele>121.8</ele>
        <time>2020-12-31T12:16:36Z</time>
      </trkpt>
      <trkpt lat="43.6763" lon="3.81233">
        <ele>121.8</ele>
        <time>2020-12-31T12:16:37Z</time>
      </trkpt>
      <trkpt lat="43.67627" lon="3.81233">
        <ele>121.8</ele>
        <time>2020-12-31T12:16:38Z</time>
      </trkpt>
      <trkpt lat="43.67625" lon="3.81233">
        <ele>121.8</ele>
        <time>2020-12-31T12:16:39Z</time>
      </trkpt>
      <trkpt lat="43.67622" lon="3.81233">
        <ele>130</ele>
        <time>2020-12-31T12:16:40Z</time>
      </trkpt>
      <trkpt lat="43.6762" lon="3.81234">
        <ele>121.8</ele>
        <time>2020-12-31T12:16:41Z</time>
      </trkpt>
      <trkpt lat="43.67617" lon="3.81235">
        <ele>121.9</ele>
        <time>2020-12-31T12:16:42Z</time>
      </trkpt>
      <trkpt lat="43.67615" lon="3.81235">
        <ele>121.9</ele>
        <time>2020-12-31T12:16:43Z</time>
      </trkpt>
      <trkpt lat="43.67613" lon="3.81236">
        <ele>122</ele>
        <time>2020-12-31T12:16:44Z</time>
      </trkpt>
      <trkpt lat="43.67611" lon="3.81236">
        <ele>122</ele>
        <time>2020-12-31T12:16:45Z</time>
      </trkpt>
      <trkpt lat="43.67608" lon="3.81237">
        <ele>121.9</ele>
        <time>2020-12-31T12:16:46Z</time>
      </trkpt>
      <trkpt lat="43.67605" lon="3.81238">
        <ele>121.8</ele>
        <time>2020-12-31T12:16:47Z</time>
      </trkpt>
      <trkpt lat="43.67602" lon="3.8124">
        <ele>121.8</ele>
        <time>2020-12-31T12:16:48Z</time>
      </trkpt>
      <trkpt lat="43.67599" lon="3.81242">
        <ele>121.9</ele>
        <time>2020-12-31T12:16:49Z</time>
      </trkpt>
      <trkpt lat="43.67593" lon="3.81245">
        <ele>129</ele>
        <time>2020-12-31T12:16:50Z</time>
      </trkpt>
      <trkpt lat="43.6759" lon="3.81246">
        <ele>121.8</ele>
        <time>2020-12-31T12:16:51Z</time>
      </trkpt>
      <trkpt lat="43.67587" lon="3.81247">
        <ele>121.8</ele>
        <time>2020-12-31T12:16:52Z</time>
      </trkpt>
      <trkpt lat="43.67584" lon="3.81248">
        <ele>121.8</ele>
        <time>2020-12-31T12:16:53Z</time>
      </trkpt>
      <trkpt lat="43.67581" lon="3.81249">
        <ele>121.8</ele>
        <time>2020-12-31T12:16:54Z</time>
      </trkpt>
      <trkpt lat="43.67578" lon="3.8125">
        <ele>121.8</ele>
        <time>2020-12-31T12:16:55Z</time>
      </trkpt>
      <trkpt lat="43.67575" lon="3.81251">
        <ele>121.8</ele>
        <time>2020-12-31T12:16:56Z</time>
      </trkpt>
      <trkpt lat="43.67573" lon="3.81252">
        <ele>121.8</ele>
        <time>2020-12-31T12:16:57Z</time>
      </trkpt>
      <trkpt lat="43.6757" lon="3.81252">
        <ele>121.7</ele>
        <time>2020-12-31T12:16:58Z</time>
      </trkpt>
      <trkpt lat="43.67567" lon="3.81253">
        <ele>121.7</ele>
        <time>2020-12-31T12:16:59Z</time>
      </trkpt>
      <trkpt lat="43.67564" lon="3.81253">
        <ele>121.6</ele>
        <time>2020-12-31T12:17:01Z</time>
      </trkpt>
      <trkpt lat="43.67562" lon="3.81253">
        <ele>121.5</ele>
        <time>2020-12-31T12:17:02Z</time>
      </trkpt>
      <trkpt lat="43.67559" lon="3.81252">
        <ele>121.3</ele>
        <time>2020-12-31T12:17:03Z</time>
      </trkpt>
      <trkpt lat="43.67556" lon="3.81252">
        <ele>121.2</ele>
        <time>2020-12-31T12:17:04Z</time>
      </trkpt>
      <trkpt lat="43.67553" lon="3.81252">
        <ele>120.9</ele>
        <time>2020-12-31T12:17:05Z</time>
      </trkpt>
      <trkpt lat="43.6755" lon="3.81252">
        <ele>120.6</ele>
        <time>2020-12-31T12:17:06Z</time>
      </trkpt>
      <trkpt lat="43.67547" lon="3.81252">
        <ele>120.3</ele>
        <time>2020-12-31T12:17:07Z</time>
      </trkpt>
      <trkpt lat="43.67543" lon="3.81252">
        <ele>119.9</ele>
        <time>2020-12-31T12:17:08Z</time>
      </trkpt>
      <trkpt lat="43.6754" lon="3.8125">
        <ele>119.3</ele>
        <time>2020-12-31T12:17:09Z</time>
      </trkpt>
      <trkpt lat="43.67538" lon="3.81246">
        <ele>125</ele>
        <time>2020-12-31T12:17:10Z</time>
      </trkpt>
      <trkpt lat="43.67536" lon="3.81241">
        <ele>118.5</ele>
        <time>2020-12-31T12:17:11Z</time>
      </trkpt>
      <trkpt lat="43.67533" lon="3.81238">
        <ele>118.1</ele>
        <time>2020-12-31T12:17:12Z</time>
      </trkpt>
      <trkpt lat="43.67531" lon="3.81236">
        <ele>117.8</ele>
        <time>2020-12-31T12:17:13Z</time>
      </trkpt>
      <trkpt lat="43.67528" lon="3.81236">
        <ele>117.5</ele>
        <time>2020-12-31T12:17:14Z</time>
      </trkpt>
      <trkpt lat="43.67525" lon="3.81236">
        <ele>117.1</ele>
        <time>2020-12-31T12:17:15Z</time>
      </trkpt>
      <trkpt lat="43.67522" lon="3.81238">
        <ele>116.8</ele>
        <time>2020-12-31T12:17:16Z</time>
      </trkpt>
      <trkpt lat="43.6752" lon="3.81239">
        <ele>116.5</ele>
        <time>2020-12-31T12:17:17Z</time>
      </trkpt>
      <trkpt lat="43.67517" lon="3.8124">
        <ele>116.2</ele>
        <time>2020-12-31T12:17:18Z</time>
      </trkpt>
      <trkpt lat="43.67514" lon="3.81241">
        <ele>115.9</ele>
        <time>2020-12-31T12:17:19Z</time>
      </trkpt>
      <trkpt lat="43.6751" lon="3.81242">
        <ele>123</ele>
        <time>2020-12-31T12:17:20Z</time>
      </trkpt>
      <trkpt lat="43.67506" lon="3.81243">
        <ele>115</ele>
        <time>2020-12-31T12:17:21Z</time>
      </trkpt>
      <trkpt lat="43.67503" lon="3.81242">
        <ele>114.5</ele>
        <time>2020-12-31T12:17:22Z</time>
      </trkpt>
      <trkpt lat="43.675" lon="3.81241">
        <ele>114</ele>
        <time>2020-12-31T12:17:23Z</time>
      </trkpt>
      <trkpt lat="43.67497" lon="3.81241">
        <ele>113.8</ele>
        <time>2020-12-31T12:17:24Z</time>
      </trkpt>
      <trkpt lat="43.67494" lon="3.81242">
        <ele>113.6</ele>
        <time>2020-12-31T12:17:25Z</time>
      </trkpt>
      <trkpt lat="43.67491" lon="3.81243">
        <ele>113.5</ele>
        <time>2020-12-31T12:17:26Z</time>
      </trkpt>
      <trkpt lat="43.67487" lon="3.81244">
        <ele>113.3</ele>
        <time>2020-12-31T12:17:27Z</time>
      </trkpt>
      <trkpt lat="43.67483" lon="3.81244">
        <ele>113</ele>
        <time>2020-12-31T12:17:28Z</time>
      </trkpt>
      <trkpt lat="43.67478" lon="3.81244">
        <ele>112.6</ele>
        <time>2020-12-31T12:17:29Z</time>
      </trkpt>
      <trkpt lat="43.67475" lon="3.81244">
        <ele>119</ele>
        <time>2020-12-31T12:17:30Z</time>
      </trkpt>
      <trkpt lat="43.67473" lon="3.81244">
        <ele>112.2</ele>
        <time>2020-12-31T12:17:31Z</time>
      </trkpt>
      <trkpt lat="43.6747" lon="3.81243">
        <ele>112.2</ele>
        <time>2020-12-31T12:17:32Z</time>
      </trkpt>
      <trkpt lat="43.67468" lon="3.81242">
        <ele>112.2</ele>
        <time>2020-12-31T12:17:33Z</time>
      </trkpt>
      <trkpt lat="43.67465" lon="3.81242">
        <ele>112.4</ele>
        <time>2020-12-31T12:17:34Z</time>
      </trkpt>
      <trkpt lat="43.67462" lon="3.81242">
        <ele>112.6</ele>
        <time>2020-12-31T12:17:35Z</time>
      </trkpt>
      <trkpt lat="43.67459" lon="3.81241">
        <ele>112.7</ele>
        <time>2020-12-31T12:17:36Z</time>
      </trkpt>
      <trkpt lat="43.67457" lon="3.81242">
        <ele>112.9</ele>
        <time>2020-12-31T12:17:37Z</time>
      </trkpt>
      <trkpt lat="43.67455" lon="3.81242">
        <ele>113.1</ele>
        <time>2020-12-31T12:17:38Z</time>
      </trkpt>
      <trkpt lat="43.67453" lon="3.81242">
        <ele>113.2</ele>
        <time>2020-12-31T12:17:39Z</time>
      </trkpt>
      <trkpt lat="43.67451" lon="3.81241">
        <ele>119</ele>
        <time>2020-12-31T12:17:40Z</time>
      </trkpt>
      <trkpt lat="43.67448" lon="3.8124">
        <ele>113.3</ele>
        <time>2020-12-31T12:17:41Z</time>
      </trkpt>
      <trkpt lat="43.67447" lon="3.8124">
        <ele>113.4</ele>
        <time>2020-12-31T12:17:42Z</time>
      </trkpt>
      <trkpt lat="43.67445" lon="3.8124">
        <ele>113.5</ele>
        <time>2020-12-31T12:17:43Z</time>
      </trkpt>
      <trkpt lat="43.67442" lon="3.8124">
        <ele>113.4</ele>
        <time>2020-12-31T12:17:45Z</time>
      </trkpt>
      <trkpt lat="43.67439" lon="3.81239">
        <ele>113</ele>
        <time>2020-12-31T12:17:47Z</time>
      </trkpt>
      <trkpt lat="43.67436" lon="3.81238">
        <ele>112.7</ele>
        <time>2020-12-31T12:17:49Z</time>
      </trkpt>
      <trkpt lat="43.67432" lon="3.81238">
        <ele>112.4</ele>
        <time>2020-12-31T12:17:51Z</time>
      </trkpt>
      <trkpt lat="43.6743" lon="3.81238">
        <ele>112.2</ele>
        <time>2020-12-31T12:17:52Z</time>
      </trkpt>
      <trkpt lat="43.67428" lon="3.81237">
        <ele>111.9</ele>
        <time>2020-12-31T12:17:53Z</time>
      </trkpt>
      <trkpt lat="43.67425" lon="3.81237">
        <ele>111.7</ele>
        <time>2020-12-31T12:17:54Z</time>
      </trkpt>
      <trkpt lat="43.67422" lon="3.81237">
        <ele>111.5</ele>
        <time>2020-12-31T12:17:55Z</time>
      </trkpt>
      <trkpt lat="43.6742" lon="3.81237">
        <ele>111.4</ele>
        <time>2020-12-31T12:17:56Z</time>
      </trkpt>
      <trkpt lat="43.67419" lon="3.81236">
        <ele>111.2</ele>
        <time>2020-12-31T12:17:57Z</time>
      </trkpt>
      <trkpt lat="43.67417" lon="3.81235">
        <ele>110.9</ele>
        <time>2020-12-31T12:17:58Z</time>
      </trkpt>
      <trkpt lat="43.67414" lon="3.81232">
        <ele>116</ele>
        <time>2020-12-31T12:18:00Z</time>
      </trkpt>
      <trkpt lat="43.67411" lon="3.8123">
        <ele>109.2</ele>
        <time>2020-12-31T12:18:02Z</time>
      </trkpt>
      <trkpt lat="43.67409" lon="3.8123">
        <ele>108.9</ele>
        <time>2020-12-31T12:18:03Z</time>
      </trkpt>
      <trkpt lat="43.67407" lon="3.81231">
        <ele>108.7</ele>
        <time>2020-12-31T12:18:04Z</time>
      </trkpt>
      <trkpt lat="43.67404" lon="3.81231">
        <ele>108.2</ele>
        <time>2020-12-31T12:18:05Z</time>
      </trkpt>
      <trkpt lat="43.67401" lon="3.81231">
        <ele>107.7</ele>
        <time>2020-12-31T12:18:06Z</time>
      </trkpt>
      <trkpt lat="43.67398" lon="3.81229">
        <ele>107</ele>
        <time>2020-12-31T12:18:07Z</time>
      </trkpt>
      <trkpt lat="43.67395" lon="3.81227">
        <ele>106.3</ele>
        <time>2020-12-31T12:18:08Z</time>
      </trkpt>
      <trkpt lat="43.67392" lon="3.81225">
        <ele>105.7</ele>
        <time>2020-12-31T12:18:09Z</time>
      </trkpt>
      <trkpt lat="43.67389" lon="3.81224">
        <ele>112</ele>
        <time>2020-12-31T12:18:10Z</time>
      </trkpt>
      <trkpt lat="43.67386" lon="3.81223">
        <ele>104.7</ele>
        <time>2020-12-31T12:18:11Z</time>
      </trkpt>
      <trkpt lat="43.67383" lon="3.81222">
        <ele>104.3</ele>
        <time>2020-12-31T12:18:12Z</time>
      </trkpt>
      <trkpt lat="43.6738" lon="3.8122">
        <ele>103.8</ele>
        <time>2020-12-31T12:18:13Z</time>
      </trkpt>
      <trkpt lat="43.67377" lon="3.81218">
        <ele>103.3</ele>
        <time>2020-12-31T12:18:14Z</time>
      </trkpt>
      <trkpt lat="43.67373" lon="3.81216">
        <ele>102.7</ele>
        <time>2020-12-31T12:18:15Z</time>
      </trkpt>
      <trkpt lat="43.67369" lon="3.81213">
        <ele>102.1</ele>
        <time>2020-12-31T12:18:16Z</time>
      </trkpt>
      <trkpt lat="43.67366" lon="3.81209">
        <ele>101.5</ele>
        <time>2020-12-31T12:18:17Z</time>
      </trkpt>
      <trkpt lat="43.67362" lon="3.81205">
        <ele>100.8</ele>
        <time>2020-12-31T12:18:18Z</time>
      </trkpt>
      <trkpt lat="43.67358" lon="3.81201">
        <ele>100.5</ele>
        <time>2020-12-31T12:18:19Z</time>
      </trkpt>
      <trkpt lat="43.67354" lon="3.81197">
        <ele>108</ele>
        <time>2020-12-31T12:18:20Z</time>
      </trkpt>
      <trkpt lat="43.67351" lon="3.81194">
        <ele>100</ele>
        <time>2020-12-31T12:18:21Z</time>
      </trkpt>
      <trkpt lat="43.67349" lon="3.81193">
        <ele>100</ele>
        <time>2020-12-31T12:18:22Z</time>
      </trkpt>
      <trkpt lat="43.67346" lon="3.81193">
        <ele>100</ele>
        <time>2020-12-31T12:18:23Z</time>
      </trkpt>
      <trkpt lat="43.67343" lon="3.81194">
        <ele>100</ele>
        <time>2020-12-31T12:18:24Z</time>
      </trkpt>
      <trkpt lat="43.6734" lon="3.81195">
        <ele>100.1</ele>
        <time>2020-12-31T12:18:25Z</time>
      </trkpt>
      <trkpt lat="43.67337" lon="3.81196">
        <ele>100.2</ele>
        <time>2020-12-31T12:18:26Z</time>
      </trkpt>
      <trkpt lat="43.67333" lon="3.81198">
        <ele>100.5</ele>
        <time>2020-12-31T12:18:27Z</time>
      </trkpt>
      <trkpt lat="43.6733" lon="3.81199">
        <ele>100.7</ele>
        <time>2020-12-31T12:18:28Z</time>
      </trkpt>
      <trkpt lat="43.67328" lon="3.812">
        <ele>100.9</ele>
        <time>2020-12-31T12:18:29Z</time>
      </trkpt>
      <trkpt lat="43.67326" lon="3.81201">
        <ele>108</ele>
        <time>2020-12-31T12:18:30Z</time>
      </trkpt>
      <trkpt lat="43.67324" lon="3.81202">
        <ele>101.1</ele>
        <time>2020-12-31T12:18:31Z</time>
      </trkpt>
      <trkpt lat="43.67321" lon="3.81203">
        <ele>101.3</ele>
        <time>2020-12-31T12:18:32Z</time>
      </trkpt>
      <trkpt lat="43.67319" lon="3.81204">
        <ele>101.4</ele>
        <time>2020-12-31T12:18:33Z</time>
      </trkpt>
      <trkpt lat="43.67317" lon="3.81205">
        <ele>101.4</ele>
        <time>2020-12-31T12:18:34Z</time>
      </trkpt>
      <trkpt lat="43.67315" lon="3.81206">
        <ele>101.5</ele>
        <time>2020-12-31T12:18:35Z</time>
      </trkpt>
      <trkpt lat="43.67313" lon="3.81208">
        <ele>101.6</ele>
        <time>2020-12-31T12:18:36Z</time>
      </trkpt>
      <trkpt lat="43.67311" lon="3.81211">
        <ele>101.8</ele>
        <time>2020-12-31T12:18:37Z</time>
      </trkpt>
      <trkpt lat="43.67309" lon="3.81213">
        <ele>101.8</ele>
        <time>2020-12-31T12:18:38Z</time>
      </trkpt>
      <trkpt lat="43.67308" lon="3.81215">
        <ele>101.8</ele>
        <time>2020-12-31T12:18:39Z</time>
      </trkpt>
      <trkpt lat="43.67306" lon="3.81217">
        <ele>107</ele>
        <time>2020-12-31T12:18:40Z</time>
      </trkpt>
      <trkpt lat="43.67304" lon="3.8122">
        <ele>101.9</ele>
        <time>2020-12-31T12:18:41Z</time>
      </trkpt>
      <trkpt lat="43.67303" lon="3.81222">
        <ele>101.9</ele>
        <time>2020-12-31T12:18:42Z</time>
      </trkpt>
      <trkpt lat="43.67301" lon="3.81225">
        <ele>102</ele>
        <time>2020-12-31T12:18:44Z</time>
      </trkpt>
      <trkpt lat="43.67299" lon="3.81227">
        <ele>102.1</ele>
        <time>2020-12-31T12:18:45Z</time>
      </trkpt>
      <trkpt lat="43.67298" lon="3.8123">
        <ele>102.2</ele>
        <time>2020-12-31T12:18:46Z</time>
      </trkpt>
      <trkpt lat="43.67298" lon="3.81232">
        <ele>102.3</ele>
        <time>2020-12-31T12:18:47Z</time>
      </trkpt>
      <trkpt lat="43.67296" lon="3.81235">
        <ele>102.4</ele>
        <time>2020-12-31T12:18:49Z</time>
      </trkpt>
      <trkpt lat="43.67294" lon="3.81238">
        <ele>102.5</ele>
        <time>2020-12-31T12:18:52Z</time>
      </trkpt>
      <trkpt lat="43.67292" lon="3.81241">
        <ele>102.5</ele>
        <time>2020-12-31T12:18:55Z</time>
      </trkpt>
      <trkpt lat="43.67291" lon="3.81243">
        <ele>102.6</ele>
        <time>2020-12-31T12:18:56Z</time>
      </trkpt>
      <trkpt lat="43.6729" lon="3.81246">
        <ele>102.7</ele>
        <time>2020-12-31T12:18:57Z</time>
      </trkpt>
      <trkpt lat="43.67289" lon="3.81249">
        <ele>102.8</ele>
        <time>2020-12-31T12:18:58Z</time>
      </trkpt>
      <trkpt lat="43.67288" lon="3.81252">
        <ele>107</ele>
        <time>2020-12-31T12:19:00Z</time>
      </trkpt>
      <trkpt lat="43.67291" lon="3.81243">
        <ele>107</ele>
        <time>2020-12-31T12:19:09Z</time>
      </trkpt>
      <trkpt lat="43.67293" lon="3.8124">
        <ele>102.5</ele>
        <time>2020-12-31T12:19:10Z</time>
      </trkpt>
      <trkpt lat="43.67294" lon="3.81238">
        <ele>102.5</ele>
        <time>2020-12-31T12:19:11Z</time>
      </trkpt>
      <trkpt lat="43.67296" lon="3.81235">
        <ele>102.4</ele>
        <time>2020-12-31T12:19:12Z</time>
      </trkpt>
      <trkpt lat="43.67297" lon="3.81233">
        <ele>102.3</ele>
        <time>2020-12-31T12:19:13Z</time>
      </trkpt>
      <trkpt lat="43.67299" lon="3.8123">
        <ele>102.3</ele>
        <time>2020-12-31T12:19:14Z</time>
      </trkpt>
      <trkpt lat="43.673" lon="3.81227">
        <ele>102.1</ele>
        <time>2020-12-31T12:19:15Z</time>
      </trkpt>
      <trkpt lat="43.67303" lon="3.81224">
        <ele>102</ele>
        <time>2020-12-31T12:19:16Z</time>
      </trkpt>
      <trkpt lat="43.67305" lon="3.81222">
        <ele>102</ele>
        <time>2020-12-31T12:19:17Z</time>
      </trkpt>
      <trkpt lat="43.67307" lon="3.8122">
        <ele>109</ele>
        <time>2020-12-31T12:19:18Z</time>
      </trkpt>
      <trkpt lat="43.6731" lon="3.81218">
        <ele>102.1</ele>
        <time>2020-12-31T12:19:19Z</time>
      </trkpt>
      <trkpt lat="43.67312" lon="3.81215">
        <ele>102</ele>
        <time>2020-12-31T12:19:20Z</time>
      </trkpt>
      <trkpt lat="43.67313" lon="3.81213">
        <ele>101.9</ele>
        <time>2020-12-31T12:19:21Z</time>
      </trkpt>
      <trkpt lat="43.67315" lon="3.8121">
        <ele>101.8</ele>
        <time>2020-12-31T12:19:22Z</time>
      </trkpt>
      <trkpt lat="43.67317" lon="3.81208">
        <ele>101.7</ele>
        <time>2020-12-31T12:19:23Z</time>
      </trkpt>
      <trkpt lat="43.67318" lon="3.81206">
        <ele>101.5</ele>
        <time>2020-12-31T12:19:24Z</time>
      </trkpt>
      <trkpt lat="43.6732" lon="3.81204">
        <ele>101.4</ele>
        <time>2020-12-31T12:19:25Z</time>
      </trkpt>
      <trkpt lat="43.67322" lon="3.81202">
        <ele>101.2</ele>
        <time>2020-12-31T12:19:26Z</time>
      </trkpt>
      <trkpt lat="43.67326" lon="3.81201">
        <ele>101</ele>
        <time>2020-12-31T12:19:27Z</time>
      </trkpt>
      <trkpt lat="43.67332" lon="3.81199">
        <ele>109</ele>
        <time>2020-12-31T12:19:28Z</time>
      </trkpt>
      <trkpt lat="43.67336" lon="3.81198">
        <ele>100.5</ele>
        <time>2020-12-31T12:19:29Z</time>
      </trkpt>
      <trkpt lat="43.67339" lon="3.81196">
        <ele>100.2</ele>
        <time>2020-12-31T12:19:30Z</time>
      </trkpt>
      <trkpt lat="43.67343" lon="3.81195">
        <ele>100.1</ele>
        <time>2020-12-31T12:19:31Z</time>
      </trkpt>
      <trkpt lat="43.67347" lon="3.81193">
        <ele>100</ele>
        <time>2020-12-31T12:19:32Z</time>
      </trkpt>
      <trkpt lat="43.67351" lon="3.81193">
        <ele>100</ele>
        <time>2020-12-31T12:19:33Z</time>
      </trkpt>
      <trkpt lat="43.67355" lon="3.81192">
        <ele>100</ele>
        <time>2020-12-31T12:19:34Z</time>
      </trkpt>
      <trkpt lat="43.67358" lon="3.8119">
        <ele>99.9</ele>
        <time>2020-12-31T12:19:35Z</time>
      </trkpt>
      <trkpt lat="43.67361" lon="3.81189">
        <ele>99.8</ele>
        <time>2020-12-31T12:19:36Z</time>
      </trkpt>
      <trkpt lat="43.67364" lon="3.81187">
        <ele>99.9</ele>
        <time>2020-12-31T12:19:37Z</time>
      </trkpt>
      <trkpt lat="43.67367" lon="3.81186">
        <ele>99.9</ele>
        <time>2020-12-31T12:19:39Z</time>
      </trkpt>
      <trkpt lat="43.6737" lon="3.81185">
        <ele>100</ele>
        <time>2020-12-31T12:19:40Z</time>
      </trkpt>
      <trkpt lat="43.67373" lon="3.81183">
        <ele>99.9</ele>
        <time>2020-12-31T12:19:41Z</time>
      </trkpt>
      <trkpt lat="43.67376" lon="3.81181">
        <ele>99.8</ele>
        <time>2020-12-31T12:19:42Z</time>
      </trkpt>
      <trkpt lat="43.67379" lon="3.8118">
        <ele>99.8</ele>
        <time>2020-12-31T12:19:43Z</time>
      </trkpt>
      <trkpt lat="43.67381" lon="3.81179">
        <ele>99.7</ele>
        <time>2020-12-31T12:19:44Z</time>
      </trkpt>
      <trkpt lat="43.67384" lon="3.81178">
        <ele>99.6</ele>
        <time>2020-12-31T12:19:45Z</time>
      </trkpt>
      <trkpt lat="43.67387" lon="3.81177">
        <ele>99.5</ele>
        <time>2020-12-31T12:19:46Z</time>
      </trkpt>
      <trkpt lat="43.67389" lon="3.81176">
        <ele>99.3</ele>
        <time>2020-12-31T12:19:47Z</time>
      </trkpt>
      <trkpt lat="43.67391" lon="3.81175">
        <ele>110</ele>
        <time>2020-12-31T12:19:48Z</time>
      </trkpt>
      <trkpt lat="43.67393" lon="3.81174">
        <ele>99.1</ele>
        <time>2020-12-31T12:19:49Z</time>
      </trkpt>
      <trkpt lat="43.67393" lon="3.81173">
        <ele>109</ele>
        <time>2020-12-31T12:19:55Z</time>
      </trkpt>
      <trkpt lat="43.67396" lon="3.81169">
        <ele>108</ele>
        <time>2020-12-31T12:20:30Z</time>
      </trkpt>
      <trkpt lat="43.67395" lon="3.81172">
        <ele>98.9</ele>
        <time>2020-12-31T12:20:33Z</time>
      </trkpt>
      <trkpt lat="43.67391" lon="3.81171">
        <ele>98.6</ele>
        <time>2020-12-31T12:20:35Z</time>
      </trkpt>
      <trkpt lat="43.67389" lon="3.81169">
        <ele>98.3</ele>
        <time>2020-12-31T12:20:37Z</time>
      </trkpt>
      <trkpt lat="43.67389" lon="3.81164">
        <ele>98.4</ele>
        <time>2020-12-31T12:20:39Z</time>
      </trkpt>
      <trkpt lat="43.67388" lon="3.81162">
        <ele>109</ele>
        <time>2020-12-31T12:20:40Z</time>
      </trkpt>
      <trkpt lat="43.67387" lon="3.81158">
        <ele>99.4</ele>
        <time>2020-12-31T12:20:42Z</time>
      </trkpt>
      <trkpt lat="43.67387" lon="3.81154">
        <ele>100</ele>
        <time>2020-12-31T12:20:44Z</time>
      </trkpt>
      <trkpt lat="43.67386" lon="3.81151">
        <ele>100.5</ele>
        <time>2020-12-31T12:20:46Z</time>
      </trkpt>
      <trkpt lat="43.67384" lon="3.81147">
        <ele>101.3</ele>
        <time>2020-12-31T12:20:49Z</time>
      </trkpt>
      <trkpt lat="43.67384" lon="3.81143">
        <ele>109</ele>
        <time>2020-12-31T12:20:50Z</time>
      </trkpt>
      <trkpt lat="43.67382" lon="3.81139">
        <ele>102.7</ele>
        <time>2020-12-31T12:20:52Z</time>
      </trkpt>
      <trkpt lat="43.67381" lon="3.81137">
        <ele>103.2</ele>
        <time>2020-12-31T12:20:53Z</time>
      </trkpt>
      <trkpt lat="43.67379" lon="3.81135">
        <ele>103.7</ele>
        <time>2020-12-31T12:20:54Z</time>
      </trkpt>
      <trkpt lat="43.67377" lon="3.81134">
        <ele>104</ele>
        <time>2020-12-31T12:20:55Z</time>
      </trkpt>
      <trkpt lat="43.67376" lon="3.81132">
        <ele>104.4</ele>
        <time>2020-12-31T12:20:56Z</time>
      </trkpt>
      <trkpt lat="43.67374" lon="3.8113">
        <ele>104.9</ele>
        <time>2020-12-31T12:20:57Z</time>
      </trkpt>
      <trkpt lat="43.67372" lon="3.81129">
        <ele>105.2</ele>
        <time>2020-12-31T12:20:58Z</time>
      </trkpt>
      <trkpt lat="43.6737" lon="3.81127">
        <ele>105.6</ele>
        <time>2020-12-31T12:20:59Z</time>
      </trkpt>
      <trkpt lat="43.67369" lon="3.81124">
        <ele>106.1</ele>
        <time>2020-12-31T12:21:01Z</time>
      </trkpt>
      <trkpt lat="43.67367" lon="3.81121">
        <ele>106.6</ele>
        <time>2020-12-31T12:21:03Z</time>
      </trkpt>
      <trkpt lat="43.67366" lon="3.81118">
        <ele>107</ele>
        <time>2020-12-31T12:21:05Z</time>
      </trkpt>
      <trkpt lat="43.67364" lon="3.81115">
        <ele>107.4</ele>
        <time>2020-12-31T12:21:07Z</time>
      </trkpt>
      <trkpt lat="43.67363" lon="3.81112">
        <ele>107.8</ele>
        <time>2020-12-31T12:21:09Z</time>
      </trkpt>
      <trkpt lat="43.67362" lon="3.81108">
        <ele>112</ele>
        <time>2020-12-31T12:21:10Z</time>
      </trkpt>
      <trkpt lat="43.67361" lon="3.81104">
        <ele>108.8</ele>
        <time>2020-12-31T12:21:12Z</time>
      </trkpt>
      <trkpt lat="43.6736" lon="3.811">
        <ele>109.3</ele>
        <time>2020-12-31T12:21:14Z</time>
      </trkpt>
      <trkpt lat="43.67358" lon="3.81097">
        <ele>109.7</ele>
        <time>2020-12-31T12:21:16Z</time>
      </trkpt>
      <trkpt lat="43.67356" lon="3.81094">
        <ele>110.2</ele>
        <time>2020-12-31T12:21:18Z</time>
      </trkpt>
      <trkpt lat="43.67354" lon="3.8109">
        <ele>110.8</ele>
        <time>2020-12-31T12:21:21Z</time>
      </trkpt>
      <trkpt lat="43.67351" lon="3.81088">
        <ele>111.2</ele>
        <time>2020-12-31T12:21:23Z</time>
      </trkpt>
      <trkpt lat="43.67349" lon="3.81085">
        <ele>111.7</ele>
        <time>2020-12-31T12:21:25Z</time>
      </trkpt>
      <trkpt lat="43.67347" lon="3.81083">
        <ele>112</ele>
        <time>2020-12-31T12:21:27Z</time>
      </trkpt>
      <trkpt lat="43.67344" lon="3.81081">
        <ele>112.4</ele>
        <time>2020-12-31T12:21:29Z</time>
      </trkpt>
      <trkpt lat="43.67343" lon="3.81079">
        <ele>115</ele>
        <time>2020-12-31T12:21:30Z</time>
      </trkpt>
      <trkpt lat="43.67341" lon="3.81076">
        <ele>112.9</ele>
        <time>2020-12-31T12:21:32Z</time>
      </trkpt>
      <trkpt lat="43.6734" lon="3.81074">
        <ele>113.1</ele>
        <time>2020-12-31T12:21:34Z</time>
      </trkpt>
      <trkpt lat="43.67338" lon="3.81071">
        <ele>113.3</ele>
        <time>2020-12-31T12:21:36Z</time>
      </trkpt>
      <trkpt lat="43.67337" lon="3.81068">
        <ele>113.5</ele>
        <time>2020-12-31T12:21:38Z</time>
      </trkpt>
      <trkpt lat="43.67336" lon="3.81066">
        <ele>113.6</ele>
        <time>2020-12-31T12:21:41Z</time>
      </trkpt>
      <trkpt lat="43.67336" lon="3.81063">
        <ele>113.8</ele>
        <time>2020-12-31T12:21:43Z</time>
      </trkpt>
      <trkpt lat="43.67334" lon="3.81059">
        <ele>113.9</ele>
        <time>2020-12-31T12:21:46Z</time>
      </trkpt>
      <trkpt lat="43.67332" lon="3.81058">
        <ele>113.9</ele>
        <time>2020-12-31T12:21:48Z</time>
      </trkpt>
      <trkpt lat="43.6733" lon="3.81056">
        <ele>118</ele>
        <time>2020-12-31T12:21:50Z</time>
      </trkpt>
      <trkpt lat="43.67328" lon="3.81055">
        <ele>114.1</ele>
        <time>2020-12-31T12:21:52Z</time>
      </trkpt>
      <trkpt lat="43.67322" lon="3.81061">
        <ele>120</ele>
        <time>2020-12-31T12:22:45Z</time>
      </trkpt>
      <trkpt lat="43.6732" lon="3.81063">
        <ele>113.7</ele>
        <time>2020-12-31T12:22:46Z</time>
      </trkpt>
      <trkpt lat="43.67318" lon="3.81064">
        <ele>113.7</ele>
        <time>2020-12-31T12:22:47Z</time>
      </trkpt>
      <trkpt lat="43.67316" lon="3.81064">
        <ele>113.7</ele>
        <time>2020-12-31T12:22:48Z</time>
      </trkpt>
      <trkpt lat="43.67313" lon="3.81065">
        <ele>113.7</ele>
        <time>2020-12-31T12:22:49Z</time>
      </trkpt>
      <trkpt lat="43.67311" lon="3.81065">
        <ele>113.7</ele>
        <time>2020-12-31T12:22:50Z</time>
      </trkpt>
      <trkpt lat="43.67308" lon="3.81065">
        <ele>113.7</ele>
        <time>2020-12-31T12:22:51Z</time>
      </trkpt>
      <trkpt lat="43.67305" lon="3.81065">
        <ele>113.6</ele>
        <time>2020-12-31T12:22:52Z</time>
      </trkpt>
      <trkpt lat="43.67303" lon="3.81064">
        <ele>113.6</ele>
        <time>2020-12-31T12:22:53Z</time>
      </trkpt>
      <trkpt lat="43.673" lon="3.81064">
        <ele>120</ele>
        <time>2020-12-31T12:22:54Z</time>
      </trkpt>
      <trkpt lat="43.67298" lon="3.81063">
        <ele>113.5</ele>
        <time>2020-12-31T12:22:55Z</time>
      </trkpt>
      <trkpt lat="43.67295" lon="3.81062">
        <ele>113.4</ele>
        <time>2020-12-31T12:22:56Z</time>
      </trkpt>
      <trkpt lat="43.67293" lon="3.81062">
        <ele>113.3</ele>
        <time>2020-12-31T12:22:57Z</time>
      </trkpt>
      <trkpt lat="43.67291" lon="3.81063">
        <ele>113.2</ele>
        <time>2020-12-31T12:22:58Z</time>
      </trkpt>
      <trkpt lat="43.67289" lon="3.81066">
        <ele>113</ele>
        <time>2020-12-31T12:22:59Z</time>
      </trkpt>
      <trkpt lat="43.67287" lon="3.81069">
        <ele>112.8</ele>
        <time>2020-12-31T12:23:00Z</time>
      </trkpt>
      <trkpt lat="43.67286" lon="3.81073">
        <ele>112.7</ele>
        <time>2020-12-31T12:23:01Z</time>
      </trkpt>
      <trkpt lat="43.67283" lon="3.81081">
        <ele>112.3</ele>
        <time>2020-12-31T12:23:02Z</time>
      </trkpt>
      <trkpt lat="43.67281" lon="3.81086">
        <ele>112</ele>
        <time>2020-12-31T12:23:03Z</time>
      </trkpt>
      <trkpt lat="43.67278" lon="3.8109">
        <ele>119</ele>
        <time>2020-12-31T12:23:04Z</time>
      </trkpt>
      <trkpt lat="43.67275" lon="3.81093">
        <ele>111.7</ele>
        <time>2020-12-31T12:23:05Z</time>
      </trkpt>
      <trkpt lat="43.67272" lon="3.81097">
        <ele>111.5</ele>
        <time>2020-12-31T12:23:06Z</time>
      </trkpt>
      <trkpt lat="43.67268" lon="3.81101">
        <ele>111.3</ele>
        <time>2020-12-31T12:23:07Z</time>
      </trkpt>
      <trkpt lat="43.67263" lon="3.81103">
        <ele>111.1</ele>
        <time>2020-12-31T12:23:08Z</time>
      </trkpt>
      <trkpt lat="43.67258" lon="3.81104">
        <ele>110.9</ele>
        <time>2020-12-31T12:23:09Z</time>
      </trkpt>
      <trkpt lat="43.67254" lon="3.81106">
        <ele>110.6</ele>
        <time>2020-12-31T12:23:10Z</time>
      </trkpt>
      <trkpt lat="43.6725" lon="3.81107">
        <ele>110.4</ele>
        <time>2020-12-31T12:23:11Z</time>
      </trkpt>
      <trkpt lat="43.67247" lon="3.81107">
        <ele>110.8</ele>
        <time>2020-12-31T12:23:12Z</time>
      </trkpt>
      <trkpt lat="43.67245" lon="3.81105">
        <ele>111.2</ele>
        <time>2020-12-31T12:23:13Z</time>
      </trkpt>
      <trkpt lat="43.67244" lon="3.81102">
        <ele>111.6</ele>
        <time>2020-12-31T12:23:15Z</time>
      </trkpt>
      <trkpt lat="43.67242" lon="3.811">
        <ele>111.9</ele>
        <time>2020-12-31T12:23:16Z</time>
      </trkpt>
      <trkpt lat="43.6724" lon="3.81097">
        <ele>112.4</ele>
        <time>2020-12-31T12:23:18Z</time>
      </trkpt>
      <trkpt lat="43.67237" lon="3.81095">
        <ele>112.9</ele>
        <time>2020-12-31T12:23:20Z</time>
      </trkpt>
      <trkpt lat="43.67234" lon="3.81092">
        <ele>113.4</ele>
        <time>2020-12-31T12:23:22Z</time>
      </trkpt>
      <trkpt lat="43.67233" lon="3.8109">
        <ele>113.7</ele>
        <time>2020-12-31T12:23:23Z</time>
      </trkpt>
      <trkpt lat="43.67232" lon="3.81086">
        <ele>120</ele>
        <time>2020-12-31T12:23:24Z</time>
      </trkpt>
      <trkpt lat="43.67232" lon="3.81082">
        <ele>114.4</ele>
        <time>2020-12-31T12:23:26Z</time>
      </trkpt>
      <trkpt lat="43.67232" lon="3.81077">
        <ele>114.9</ele>
        <time>2020-12-31T12:23:28Z</time>
      </trkpt>
      <trkpt lat="43.67233" lon="3.81074">
        <ele>115.1</ele>
        <time>2020-12-31T12:23:30Z</time>
      </trkpt>
      <trkpt lat="43.67232" lon="3.81069">
        <ele>115.7</ele>
        <time>2020-12-31T12:23:32Z</time>
      </trkpt>
      <trkpt lat="43.67232" lon="3.81065">
        <ele>116</ele>
        <time>2020-12-31T12:23:35Z</time>
      </trkpt>
      <trkpt lat="43.67233" lon="3.81061">
        <ele>116.3</ele>
        <time>2020-12-31T12:23:37Z</time>
      </trkpt>
      <trkpt lat="43.67233" lon="3.81057">
        <ele>116.7</ele>
        <time>2020-12-31T12:23:39Z</time>
      </trkpt>
      <trkpt lat="43.67233" lon="3.81053">
        <ele>117</ele>
        <time>2020-12-31T12:23:41Z</time>
      </trkpt>
      <trkpt lat="43.67232" lon="3.81049">
        <ele>117.3</ele>
        <time>2020-12-31T12:23:43Z</time>
      </trkpt>
      <trkpt lat="43.67231" lon="3.81046">
        <ele>125</ele>
        <time>2020-12-31T12:23:44Z</time>
      </trkpt>
      <trkpt lat="43.67229" lon="3.81045">
        <ele>117.8</ele>
        <time>2020-12-31T12:23:46Z</time>
      </trkpt>
      <trkpt lat="43.67227" lon="3.81046">
        <ele>117.9</ele>
        <time>2020-12-31T12:23:48Z</time>
      </trkpt>
      <trkpt lat="43.67225" lon="3.81047">
        <ele>118.1</ele>
        <time>2020-12-31T12:23:50Z</time>
      </trkpt>
      <trkpt lat="43.67225" lon="3.81047">
        <ele>125</ele>
        <time>2020-12-31T12:23:55Z</time>
      </trkpt>
      <trkpt lat="43.67216" lon="3.81046">
        <ele>127</ele>
        <time>2020-12-31T12:24:20Z</time>
      </trkpt>
      <trkpt lat="43.67214" lon="3.81047">
        <ele>118.6</ele>
        <time>2020-12-31T12:24:22Z</time>
      </trkpt>
      <trkpt lat="43.67212" lon="3.81047">
        <ele>118.7</ele>
        <time>2020-12-31T12:24:25Z</time>
      </trkpt>
      <trkpt lat="43.67211" lon="3.81049">
        <ele>118.6</ele>
        <time>2020-12-31T12:24:28Z</time>
      </trkpt>
      <trkpt lat="43.6721" lon="3.81049">
        <ele>127</ele>
        <time>2020-12-31T12:24:33Z</time>
      </trkpt>
      <trkpt lat="43.67206" lon="3.81048">
        <ele>127</ele>
        <time>2020-12-31T12:24:44Z</time>
      </trkpt>
      <trkpt lat="43.67204" lon="3.81046">
        <ele>119</ele>
        <time>2020-12-31T12:24:47Z</time>
      </trkpt>
      <trkpt lat="43.67202" lon="3.81044">
        <ele>119.1</ele>
        <time>2020-12-31T12:24:49Z</time>
      </trkpt>
      <trkpt lat="43.67201" lon="3.81043">
        <ele>119.2</ele>
        <time>2020-12-31T12:24:51Z</time>
      </trkpt>
      <trkpt lat="43.672" lon="3.8104">
        <ele>127</ele>
        <time>2020-12-31T12:24:54Z</time>
      </trkpt>
      <trkpt lat="43.672" lon="3.8104">
        <ele>127</ele>
        <time>2020-12-31T12:24:59Z</time>
      </trkpt>
      <trkpt lat="43.67192" lon="3.81044">
        <ele>127</ele>
        <time>2020-12-31T12:25:16Z</time>
      </trkpt>
      <trkpt lat="43.6719" lon="3.81046">
        <ele>119.7</ele>
        <time>2020-12-31T12:25:17Z</time>
      </trkpt>
      <trkpt lat="43.67189" lon="3.81048">
        <ele>119.7</ele>
        <time>2020-12-31T12:25:18Z</time>
      </trkpt>
      <trkpt lat="43.67187" lon="3.81049">
        <ele>119.8</ele>
        <time>2020-12-31T12:25:19Z</time>
      </trkpt>
      <trkpt lat="43.67185" lon="3.8105">
        <ele>119.9</ele>
        <time>2020-12-31T12:25:20Z</time>
      </trkpt>
      <trkpt lat="43.67182" lon="3.81051">
        <ele>120.1</ele>
        <time>2020-12-31T12:25:21Z</time>
      </trkpt>
      <trkpt lat="43.6718" lon="3.81053">
        <ele>120.1</ele>
        <time>2020-12-31T12:25:22Z</time>
      </trkpt>
      <trkpt lat="43.67177" lon="3.81055">
        <ele>120.3</ele>
        <time>2020-12-31T12:25:23Z</time>
      </trkpt>
      <trkpt lat="43.67175" lon="3.81057">
        <ele>120.4</ele>
        <time>2020-12-31T12:25:24Z</time>
      </trkpt>
      <trkpt lat="43.67172" lon="3.81059">
        <ele>120.5</ele>
        <time>2020-12-31T12:25:25Z</time>
      </trkpt>
      <trkpt lat="43.6717" lon="3.81061">
        <ele>127</ele>
        <time>2020-12-31T12:25:26Z</time>
      </trkpt>
      <trkpt lat="43.67167" lon="3.81064">
        <ele>120.7</ele>
        <time>2020-12-31T12:25:27Z</time>
      </trkpt>
      <trkpt lat="43.67165" lon="3.81067">
        <ele>120.6</ele>
        <time>2020-12-31T12:25:28Z</time>
      </trkpt>
      <trkpt lat="43.67163" lon="3.8107">
        <ele>120.5</ele>
        <time>2020-12-31T12:25:29Z</time>
      </trkpt>
      <trkpt lat="43.6716" lon="3.81073">
        <ele>120.4</ele>
        <time>2020-12-31T12:25:30Z</time>
      </trkpt>
      <trkpt lat="43.67157" lon="3.81075">
        <ele>120.3</ele>
        <time>2020-12-31T12:25:31Z</time>
      </trkpt>
      <trkpt lat="43.67154" lon="3.81078">
        <ele>120.2</ele>
        <time>2020-12-31T12:25:32Z</time>
      </trkpt>
      <trkpt lat="43.67151" lon="3.8108">
        <ele>120.1</ele>
        <time>2020-12-31T12:25:33Z</time>
      </trkpt>
      <trkpt lat="43.67149" lon="3.81083">
        <ele>120</ele>
        <time>2020-12-31T12:25:34Z</time>
      </trkpt>
      <trkpt lat="43.67145" lon="3.81084">
        <ele>120</ele>
        <time>2020-12-31T12:25:35Z</time>
      </trkpt>
      <trkpt lat="43.67139" lon="3.81086">
        <ele>126</ele>
        <time>2020-12-31T12:25:36Z</time>
      </trkpt>
      <trkpt lat="43.67136" lon="3.81087">
        <ele>119.8</ele>
        <time>2020-12-31T12:25:37Z</time>
      </trkpt>
      <trkpt lat="43.67132" lon="3.81087">
        <ele>119.4</ele>
        <time>2020-12-31T12:25:38Z</time>
      </trkpt>
      <trkpt lat="43.67129" lon="3.81087">
        <ele>119.2</ele>
        <time>2020-12-31T12:25:39Z</time>
      </trkpt>
      <trkpt lat="43.67125" lon="3.81085">
        <ele>118.9</ele>
        <time>2020-12-31T12:25:40Z</time>
      </trkpt>
      <trkpt lat="43.67122" lon="3.81082">
        <ele>118.9</ele>
        <time>2020-12-31T12:25:41Z</time>
      </trkpt>
      <trkpt lat="43.67119" lon="3.8108">
        <ele>118.8</ele>
        <time>2020-12-31T12:25:42Z</time>
      </trkpt>
      <trkpt lat="43.67115" lon="3.81078">
        <ele>118.6</ele>
        <time>2020-12-31T12:25:43Z</time>
      </trkpt>
      <trkpt lat="43.67112" lon="3.81076">
        <ele>118.6</ele>
        <time>2020-12-31T12:25:44Z</time>
      </trkpt>
      <trkpt lat="43.67108" lon="3.81075">
        <ele>118.4</ele>
        <time>2020-12-31T12:25:45Z</time>
      </trkpt>
      <trkpt lat="43.67104" lon="3.81074">
        <ele>118.3</ele>
        <time>2020-12-31T12:25:47Z</time>
      </trkpt>
      <trkpt lat="43.671" lon="3.81072">
        <ele>118.3</ele>
        <time>2020-12-31T12:25:48Z</time>
      </trkpt>
      <trkpt lat="43.67096" lon="3.81071">
        <ele>118.3</ele>
        <time>2020-12-31T12:25:49Z</time>
      </trkpt>
      <trkpt lat="43.67092" lon="3.81071">
        <ele>118.1</ele>
        <time>2020-12-31T12:25:50Z</time>
      </trkpt>
      <trkpt lat="43.67088" lon="3.81071">
        <ele>118</ele>
        <time>2020-12-31T12:25:51Z</time>
      </trkpt>
      <trkpt lat="43.67084" lon="3.81072">
        <ele>117.7</ele>
        <time>2020-12-31T12:25:52Z</time>
      </trkpt>
      <trkpt lat="43.67081" lon="3.81071">
        <ele>117.7</ele>
        <time>2020-12-31T12:25:53Z</time>
      </trkpt>
      <trkpt lat="43.67078" lon="3.8107">
        <ele>117.7</ele>
        <time>2020-12-31T12:25:54Z</time>
      </trkpt>
      <trkpt lat="43.67075" lon="3.81069">
        <ele>117.8</ele>
        <time>2020-12-31T12:25:55Z</time>
      </trkpt>
      <trkpt lat="43.67073" lon="3.81069">
        <ele>125</ele>
        <time>2020-12-31T12:25:56Z</time>
      </trkpt>
      <trkpt lat="43.6707" lon="3.8107">
        <ele>117.4</ele>
        <time>2020-12-31T12:25:57Z</time>
      </trkpt>
      <trkpt lat="43.67068" lon="3.8107">
        <ele>117.4</ele>
        <time>2020-12-31T12:25:58Z</time>
      </trkpt>
      <trkpt lat="43.67065" lon="3.8107">
        <ele>117.3</ele>
        <time>2020-12-31T12:25:59Z</time>
      </trkpt>
      <trkpt lat="43.67063" lon="3.81069">
        <ele>117.3</ele>
        <time>2020-12-31T12:26:00Z</time>
      </trkpt>
      <trkpt lat="43.67061" lon="3.81066">
        <ele>117.7</ele>
        <time>2020-12-31T12:26:01Z</time>
      </trkpt>
      <trkpt lat="43.67058" lon="3.81065">
        <ele>117.7</ele>
        <time>2020-12-31T12:26:03Z</time>
      </trkpt>
      <trkpt lat="43.67056" lon="3.81067">
        <ele>117.4</ele>
        <time>2020-12-31T12:26:05Z</time>
      </trkpt>
      <trkpt lat="43.67054" lon="3.81068">
        <ele>124</ele>
        <time>2020-12-31T12:26:06Z</time>
      </trkpt>
      <trkpt lat="43.67052" lon="3.81068">
        <ele>117.1</ele>
        <time>2020-12-31T12:26:07Z</time>
      </trkpt>
      <trkpt lat="43.6705" lon="3.81068">
        <ele>117.1</ele>
        <time>2020-12-31T12:26:08Z</time>
      </trkpt>
      <trkpt lat="43.67048" lon="3.81067">
        <ele>117.2</ele>
        <time>2020-12-31T12:26:09Z</time>
      </trkpt>
      <trkpt lat="43.67046" lon="3.81066">
        <ele>117.3</ele>
        <time>2020-12-31T12:26:10Z</time>
      </trkpt>
      <trkpt lat="43.67043" lon="3.81065">
        <ele>117.3</ele>
        <time>2020-12-31T12:26:11Z</time>
      </trkpt>
      <trkpt lat="43.67041" lon="3.81064">
        <ele>117.4</ele>
        <time>2020-12-31T12:26:12Z</time>
      </trkpt>
      <trkpt lat="43.67039" lon="3.81064">
        <ele>117.4</ele>
        <time>2020-12-31T12:26:13Z</time>
      </trkpt>
      <trkpt lat="43.67036" lon="3.81064">
        <ele>117.3</ele>
        <time>2020-12-31T12:26:14Z</time>
      </trkpt>
      <trkpt lat="43.67033" lon="3.81064">
        <ele>117.2</ele>
        <time>2020-12-31T12:26:15Z</time>
      </trkpt>
      <trkpt lat="43.6703" lon="3.81064">
        <ele>125</ele>
        <time>2020-12-31T12:26:16Z</time>
      </trkpt>
      <trkpt lat="43.67028" lon="3.81063">
        <ele>117.2</ele>
        <time>2020-12-31T12:26:17Z</time>
      </trkpt>
      <trkpt lat="43.67027" lon="3.8106">
        <ele>117.5</ele>
        <time>2020-12-31T12:26:18Z</time>
      </trkpt>
      <trkpt lat="43.67025" lon="3.81058">
        <ele>117.8</ele>
        <time>2020-12-31T12:26:19Z</time>
      </trkpt>
      <trkpt lat="43.67023" lon="3.81057">
        <ele>118</ele>
        <time>2020-12-31T12:26:20Z</time>
      </trkpt>
      <trkpt lat="43.6702" lon="3.81057">
        <ele>118.1</ele>
        <time>2020-12-31T12:26:22Z</time>
      </trkpt>
      <trkpt lat="43.67016" lon="3.81057">
        <ele>118.2</ele>
        <time>2020-12-31T12:26:24Z</time>
      </trkpt>
      <trkpt lat="43.67013" lon="3.81057">
        <ele>125</ele>
        <time>2020-12-31T12:26:26Z</time>
      </trkpt>
      <trkpt lat="43.67002" lon="3.81054">
        <ele>119</ele>
        <time>2020-12-31T12:26:30Z</time>
      </trkpt>
      <trkpt lat="43.66999" lon="3.81053">
        <ele>119.1</ele>
        <time>2020-12-31T12:26:31Z</time>
      </trkpt>
      <trkpt lat="43.66996" lon="3.81052">
        <ele>118.8</ele>
        <time>2020-12-31T12:26:32Z</time>
      </trkpt>
      <trkpt lat="43.66993" lon="3.81051">
        <ele>118.6</ele>
        <time>2020-12-31T12:26:33Z</time>
      </trkpt>
      <trkpt lat="43.6699" lon="3.81049">
        <ele>118.5</ele>
        <time>2020-12-31T12:26:34Z</time>
      </trkpt>
      <trkpt lat="43.66987" lon="3.81048">
        <ele>118.3</ele>
        <time>2020-12-31T12:26:35Z</time>
      </trkpt>
      <trkpt lat="43.66984" lon="3.81047">
        <ele>125</ele>
        <time>2020-12-31T12:26:36Z</time>
      </trkpt>
      <trkpt lat="43.6698" lon="3.81046">
        <ele>117.8</ele>
        <time>2020-12-31T12:26:37Z</time>
      </trkpt>
      <trkpt lat="43.66976" lon="3.81045">
        <ele>117.5</ele>
        <time>2020-12-31T12:26:38Z</time>
      </trkpt>
      <trkpt lat="43.66973" lon="3.81044">
        <ele>117.3</ele>
        <time>2020-12-31T12:26:39Z</time>
      </trkpt>
      <trkpt lat="43.6697" lon="3.81046">
        <ele>117</ele>
        <time>2020-12-31T12:26:40Z</time>
      </trkpt>
      <trkpt lat="43.66968" lon="3.81047">
        <ele>116.8</ele>
        <time>2020-12-31T12:26:41Z</time>
      </trkpt>
      <trkpt lat="43.6696" lon="3.81051">
        <ele>122</ele>
        <time>2020-12-31T12:27:04Z</time>
      </trkpt>
      <trkpt lat="43.66957" lon="3.81052">
        <ele>116.2</ele>
        <time>2020-12-31T12:27:05Z</time>
      </trkpt>
      <trkpt lat="43.66955" lon="3.81052">
        <ele>116.2</ele>
        <time>2020-12-31T12:27:06Z</time>
      </trkpt>
      <trkpt lat="43.66952" lon="3.81054">
        <ele>116.1</ele>
        <time>2020-12-31T12:27:08Z</time>
      </trkpt>
      <trkpt lat="43.66949" lon="3.81055">
        <ele>116</ele>
        <time>2020-12-31T12:27:10Z</time>
      </trkpt>
      <trkpt lat="43.66949" lon="3.81055">
        <ele>121</ele>
        <time>2020-12-31T12:27:15Z</time>
      </trkpt>
      <trkpt lat="43.66944" lon="3.81059">
        <ele>120</ele>
        <time>2020-12-31T12:28:02Z</time>
      </trkpt>
      <trkpt lat="43.66942" lon="3.8106">
        <ele>115.8</ele>
        <time>2020-12-31T12:28:03Z</time>
      </trkpt>
      <trkpt lat="43.66939" lon="3.81061">
        <ele>115.8</ele>
        <time>2020-12-31T12:28:04Z</time>
      </trkpt>
      <trkpt lat="43.66936" lon="3.81063">
        <ele>115.8</ele>
        <time>2020-12-31T12:28:05Z</time>
      </trkpt>
      <trkpt lat="43.66933" lon="3.81065">
        <ele>115.9</ele>
        <time>2020-12-31T12:28:06Z</time>
      </trkpt>
      <trkpt lat="43.6693" lon="3.81068">
        <ele>115.9</ele>
        <time>2020-12-31T12:28:07Z</time>
      </trkpt>
      <trkpt lat="43.66927" lon="3.81071">
        <ele>115.9</ele>
        <time>2020-12-31T12:28:08Z</time>
      </trkpt>
      <trkpt lat="43.66924" lon="3.81074">
        <ele>115.9</ele>
        <time>2020-12-31T12:28:09Z</time>
      </trkpt>
      <trkpt lat="43.66921" lon="3.81076">
        <ele>116</ele>
        <time>2020-12-31T12:28:10Z</time>
      </trkpt>
      <trkpt lat="43.66918" lon="3.81077">
        <ele>116.1</ele>
        <time>2020-12-31T12:28:11Z</time>
      </trkpt>
      <trkpt lat="43.66915" lon="3.81076">
        <ele>120</ele>
        <time>2020-12-31T12:28:12Z</time>
      </trkpt>
      <trkpt lat="43.66913" lon="3.81073">
        <ele>116.8</ele>
        <time>2020-12-31T12:28:13Z</time>
      </trkpt>
      <trkpt lat="43.66912" lon="3.8107">
        <ele>117.1</ele>
        <time>2020-12-31T12:28:14Z</time>
      </trkpt>
      <trkpt lat="43.66911" lon="3.81066">
        <ele>117.4</ele>
        <time>2020-12-31T12:28:15Z</time>
      </trkpt>
      <trkpt lat="43.6691" lon="3.81064">
        <ele>117.6</ele>
        <time>2020-12-31T12:28:16Z</time>
      </trkpt>
      <trkpt lat="43.66909" lon="3.81061">
        <ele>117.9</ele>
        <time>2020-12-31T12:28:17Z</time>
      </trkpt>
      <trkpt lat="43.66908" lon="3.81059">
        <ele>118.1</ele>
        <time>2020-12-31T12:28:18Z</time>
      </trkpt>
      <trkpt lat="43.66907" lon="3.81056">
        <ele>118.4</ele>
        <time>2020-12-31T12:28:19Z</time>
      </trkpt>
      <trkpt lat="43.66907" lon="3.81052">
        <ele>118.6</ele>
        <time>2020-12-31T12:28:21Z</time>
      </trkpt>
      <trkpt lat="43.66907" lon="3.81048">
        <ele>121</ele>
        <time>2020-12-31T12:28:22Z</time>
      </trkpt>
      <trkpt lat="43.66907" lon="3.81044">
        <ele>119.2</ele>
        <time>2020-12-31T12:28:24Z</time>
      </trkpt>
      <trkpt lat="43.66907" lon="3.8104">
        <ele>119.5</ele>
        <time>2020-12-31T12:28:26Z</time>
      </trkpt>
      <trkpt lat="43.66907" lon="3.81036">
        <ele>119.8</ele>
        <time>2020-12-31T12:28:28Z</time>
      </trkpt>
      <trkpt lat="43.66908" lon="3.81033">
        <ele>119.9</ele>
        <time>2020-12-31T12:28:29Z</time>
      </trkpt>
      <trkpt lat="43.66908" lon="3.8103">
        <ele>120.1</ele>
        <time>2020-12-31T12:28:30Z</time>
      </trkpt>
      <trkpt lat="43.66909" lon="3.81026">
        <ele>120.2</ele>
        <time>2020-12-31T12:28:33Z</time>
      </trkpt>
      <trkpt lat="43.66909" lon="3.81021">
        <ele>120.6</ele>
        <time>2020-12-31T12:28:35Z</time>
      </trkpt>
      <trkpt lat="43.66909" lon="3.81019">
        <ele>120.7</ele>
        <time>2020-12-31T12:28:36Z</time>
      </trkpt>
      <trkpt lat="43.6691" lon="3.81016">
        <ele>120.8</ele>
        <time>2020-12-31T12:28:37Z</time>
      </trkpt>
      <trkpt lat="43.6691" lon="3.81013">
        <ele>121</ele>
        <time>2020-12-31T12:28:38Z</time>
      </trkpt>
      <trkpt lat="43.6691" lon="3.8101">
        <ele>121.2</ele>
        <time>2020-12-31T12:28:39Z</time>
      </trkpt>
      <trkpt lat="43.66911" lon="3.81007">
        <ele>121.3</ele>
        <time>2020-12-31T12:28:40Z</time>
      </trkpt>
      <trkpt lat="43.66911" lon="3.81005">
        <ele>121.5</ele>
        <time>2020-12-31T12:28:41Z</time>
      </trkpt>
      <trkpt lat="43.66912" lon="3.81002">
        <ele>125</ele>
        <time>2020-12-31T12:28:42Z</time>
      </trkpt>
      <trkpt lat="43.66912" lon="3.81">
        <ele>121.7</ele>
        <time>2020-12-31T12:28:43Z</time>
      </trkpt>
      <trkpt lat="43.66912" lon="3.80995">
        <ele>122.1</ele>
        <time>2020-12-31T12:28:45Z</time>
      </trkpt>
      <trkpt lat="43.66912" lon="3.8099">
        <ele>122.5</ele>
        <time>2020-12-31T12:28:47Z</time>
      </trkpt>
      <trkpt lat="43.66912" lon="3.80987">
        <ele>122.7</ele>
        <time>2020-12-31T12:28:49Z</time>
      </trkpt>
      <trkpt lat="43.66911" lon="3.80983">
        <ele>123.2</ele>
        <time>2020-12-31T12:28:51Z</time>
      </trkpt>
      <trkpt lat="43.66911" lon="3.8098">
        <ele>127</ele>
        <time>2020-12-31T12:28:52Z</time>
      </trkpt>
      <trkpt lat="43.66912" lon="3.80976">
        <ele>123.5</ele>
        <time>2020-12-31T12:28:54Z</time>
      </trkpt>
      <trkpt lat="43.66913" lon="3.80973">
        <ele>123.6</ele>
        <time>2020-12-31T12:28:56Z</time>
      </trkpt>
      <trkpt lat="43.66914" lon="3.80969">
        <ele>123.8</ele>
        <time>2020-12-31T12:28:58Z</time>
      </trkpt>
      <trkpt lat="43.66916" lon="3.80966">
        <ele>123.8</ele>
        <time>2020-12-31T12:29:00Z</time>
      </trkpt>
      <trkpt lat="43.66917" lon="3.80964">
        <ele>129</ele>
        <time>2020-12-31T12:29:02Z</time>
      </trkpt>
      <trkpt lat="43.66919" lon="3.80961">
        <ele>124.1</ele>
        <time>2020-12-31T12:29:04Z</time>
      </trkpt>
      <trkpt lat="43.6692" lon="3.80958">
        <ele>124.4</ele>
        <time>2020-12-31T12:29:06Z</time>
      </trkpt>
      <trkpt lat="43.6692" lon="3.80954">
        <ele>124.8</ele>
        <time>2020-12-31T12:29:08Z</time>
      </trkpt>
      <trkpt lat="43.66921" lon="3.8095">
        <ele>125.1</ele>
        <time>2020-12-31T12:29:10Z</time>
      </trkpt>
      <trkpt lat="43.66921" lon="3.80948">
        <ele>125.3</ele>
        <time>2020-12-31T12:29:11Z</time>
      </trkpt>
      <trkpt lat="43.66921" lon="3.80945">
        <ele>125.6</ele>
        <time>2020-12-31T12:29:13Z</time>
      </trkpt>
      <trkpt lat="43.66923" lon="3.8094">
        <ele>126</ele>
        <time>2020-12-31T12:29:15Z</time>
      </trkpt>
      <trkpt lat="43.66923" lon="3.80937">
        <ele>126.3</ele>
        <time>2020-12-31T12:29:16Z</time>
      </trkpt>
      <trkpt lat="43.66924" lon="3.80934">
        <ele>126.6</ele>
        <time>2020-12-31T12:29:17Z</time>
      </trkpt>
      <trkpt lat="43.66924" lon="3.80931">
        <ele>126.9</ele>
        <time>2020-12-31T12:29:18Z</time>
      </trkpt>
      <trkpt lat="43.66924" lon="3.80929">
        <ele>127.1</ele>
        <time>2020-12-31T12:29:19Z</time>
      </trkpt>
      <trkpt lat="43.66925" lon="3.80925">
        <ele>127.5</ele>
        <time>2020-12-31T12:29:21Z</time>
      </trkpt>
      <trkpt lat="43.66925" lon="3.80921">
        <ele>127.9</ele>
        <time>2020-12-31T12:29:23Z</time>
      </trkpt>
      <trkpt lat="43.66926" lon="3.80917">
        <ele>128.3</ele>
        <time>2020-12-31T12:29:25Z</time>
      </trkpt>
      <trkpt lat="43.66927" lon="3.80913">
        <ele>128.5</ele>
        <time>2020-12-31T12:29:27Z</time>
      </trkpt>
      <trkpt lat="43.66927" lon="3.80909">
        <ele>128.8</ele>
        <time>2020-12-31T12:29:29Z</time>
      </trkpt>
      <trkpt lat="43.66928" lon="3.80905">
        <ele>129</ele>
        <time>2020-12-31T12:29:31Z</time>
      </trkpt>
      <trkpt lat="43.66928" lon="3.80901">
        <ele>129.3</ele>
        <time>2020-12-31T12:29:33Z</time>
      </trkpt>
      <trkpt lat="43.66929" lon="3.80897">
        <ele>129.5</ele>
        <time>2020-12-31T12:29:35Z</time>
      </trkpt>
      <trkpt lat="43.66929" lon="3.80894">
        <ele>129.7</ele>
        <time>2020-12-31T12:29:37Z</time>
      </trkpt>
      <trkpt lat="43.66929" lon="3.8089">
        <ele>130</ele>
        <time>2020-12-31T12:29:39Z</time>
      </trkpt>
      <trkpt lat="43.66929" lon="3.80886">
        <ele>130.3</ele>
        <time>2020-12-31T12:29:40Z</time>
      </trkpt>
      <trkpt lat="43.66928" lon="3.80883">
        <ele>130.6</ele>
        <time>2020-12-31T12:29:43Z</time>
      </trkpt>
      <trkpt lat="43.66926" lon="3.80881">
        <ele>130.9</ele>
        <time>2020-12-31T12:29:45Z</time>
      </trkpt>
      <trkpt lat="43.66923" lon="3.8088">
        <ele>131.2</ele>
        <time>2020-12-31T12:29:47Z</time>
      </trkpt>
      <trkpt lat="43.6692" lon="3.8088">
        <ele>131.4</ele>
        <time>2020-12-31T12:29:49Z</time>
      </trkpt>
      <trkpt lat="43.66917" lon="3.8088">
        <ele>131.6</ele>
        <time>2020-12-31T12:29:51Z</time>
      </trkpt>
      <trkpt lat="43.66914" lon="3.80882">
        <ele>137</ele>
        <time>2020-12-31T12:29:52Z</time>
      </trkpt>
      <trkpt lat="43.66913" lon="3.80884">
        <ele>131.9</ele>
        <time>2020-12-31T12:29:54Z</time>
      </trkpt>
      <trkpt lat="43.66911" lon="3.80887">
        <ele>131.9</ele>
        <time>2020-12-31T12:29:56Z</time>
      </trkpt>
      <trkpt lat="43.66909" lon="3.80891">
        <ele>132</ele>
        <time>2020-12-31T12:29:58Z</time>
      </trkpt>
      <trkpt lat="43.66908" lon="3.80893">
        <ele>132</ele>
        <time>2020-12-31T12:29:59Z</time>
      </trkpt>
      <trkpt lat="43.66908" lon="3.80896">
        <ele>131.7</ele>
        <time>2020-12-31T12:30:00Z</time>
      </trkpt>
      <trkpt lat="43.66908" lon="3.80898">
        <ele>131.6</ele>
        <time>2020-12-31T12:30:01Z</time>
      </trkpt>
      <trkpt lat="43.66908" lon="3.80901">
        <ele>131.4</ele>
        <time>2020-12-31T12:30:03Z</time>
      </trkpt>
      <trkpt lat="43.66907" lon="3.80904">
        <ele>131.3</ele>
        <time>2020-12-31T12:30:04Z</time>
      </trkpt>
      <trkpt lat="43.66906" lon="3.80907">
        <ele>131.2</ele>
        <time>2020-12-31T12:30:05Z</time>
      </trkpt>
      <trkpt lat="43.66905" lon="3.8091">
        <ele>131.2</ele>
        <time>2020-12-31T12:30:06Z</time>
      </trkpt>
      <trkpt lat="43.66903" lon="3.80912">
        <ele>131.3</ele>
        <time>2020-12-31T12:30:07Z</time>
      </trkpt>
      <trkpt lat="43.66902" lon="3.80915">
        <ele>131.2</ele>
        <time>2020-12-31T12:30:08Z</time>
      </trkpt>
      <trkpt lat="43.669" lon="3.80917">
        <ele>131.4</ele>
        <time>2020-12-31T12:30:09Z</time>
      </trkpt>
      <trkpt lat="43.66898" lon="3.80919">
        <ele>131.4</ele>
        <time>2020-12-31T12:30:10Z</time>
      </trkpt>
      <trkpt lat="43.66896" lon="3.80921">
        <ele>131.5</ele>
        <time>2020-12-31T12:30:11Z</time>
      </trkpt>
      <trkpt lat="43.66893" lon="3.80924">
        <ele>138</ele>
        <time>2020-12-31T12:30:12Z</time>
      </trkpt>
      <trkpt lat="43.66891" lon="3.80926">
        <ele>131.7</ele>
        <time>2020-12-31T12:30:13Z</time>
      </trkpt>
      <trkpt lat="43.66889" lon="3.80929">
        <ele>131.7</ele>
        <time>2020-12-31T12:30:14Z</time>
      </trkpt>
      <trkpt lat="43.66887" lon="3.80931">
        <ele>131.7</ele>
        <time>2020-12-31T12:30:15Z</time>
      </trkpt>
      <trkpt lat="43.66885" lon="3.80933">
        <ele>131.8</ele>
        <time>2020-12-31T12:30:16Z</time>
      </trkpt>
      <trkpt lat="43.66883" lon="3.80936">
        <ele>131.8</ele>
        <time>2020-12-31T12:30:17Z</time>
      </trkpt>
      <trkpt lat="43.66881" lon="3.80938">
        <ele>131.8</ele>
        <time>2020-12-31T12:30:18Z</time>
      </trkpt>
      <trkpt lat="43.66879" lon="3.8094">
        <ele>131.9</ele>
        <time>2020-12-31T12:30:19Z</time>
      </trkpt>
      <trkpt lat="43.66877" lon="3.80943">
        <ele>131.9</ele>
        <time>2020-12-31T12:30:20Z</time>
      </trkpt>
      <trkpt lat="43.66875" lon="3.80945">
        <ele>132</ele>
        <time>2020-12-31T12:30:21Z</time>
      </trkpt>
      <trkpt lat="43.66873" lon="3.80947">
        <ele>137</ele>
        <time>2020-12-31T12:30:22Z</time>
      </trkpt>
      <trkpt lat="43.66871" lon="3.80949">
        <ele>132.2</ele>
        <time>2020-12-31T12:30:23Z</time>
      </trkpt>
      <trkpt lat="43.66869" lon="3.80951">
        <ele>132.4</ele>
        <time>2020-12-31T12:30:24Z</time>
      </trkpt>
      <trkpt lat="43.66867" lon="3.80953">
        <ele>132.5</ele>
        <time>2020-12-31T12:30:25Z</time>
      </trkpt>
      <trkpt lat="43.66865" lon="3.80955">
        <ele>132.7</ele>
        <time>2020-12-31T12:30:26Z</time>
      </trkpt>
      <trkpt lat="43.66863" lon="3.80957">
        <ele>132.8</ele>
        <time>2020-12-31T12:30:27Z</time>
      </trkpt>
      <trkpt lat="43.66861" lon="3.8096">
        <ele>132.9</ele>
        <time>2020-12-31T12:30:28Z</time>
      </trkpt>
      <trkpt lat="43.66858" lon="3.80962">
        <ele>133.1</ele>
        <time>2020-12-31T12:30:29Z</time>
      </trkpt>
      <trkpt lat="43.66856" lon="3.80964">
        <ele>133.2</ele>
        <time>2020-12-31T12:30:30Z</time>
      </trkpt>
      <trkpt lat="43.66853" lon="3.80966">
        <ele>133.4</ele>
        <time>2020-12-31T12:30:31Z</time>
      </trkpt>
      <trkpt lat="43.66851" lon="3.80968">
        <ele>138</ele>
        <time>2020-12-31T12:30:32Z</time>
      </trkpt>
      <trkpt lat="43.66849" lon="3.80969">
        <ele>133.6</ele>
        <time>2020-12-31T12:30:33Z</time>
      </trkpt>
      <trkpt lat="43.66847" lon="3.80971">
        <ele>133.6</ele>
        <time>2020-12-31T12:30:34Z</time>
      </trkpt>
      <trkpt lat="43.66845" lon="3.80972">
        <ele>133.8</ele>
        <time>2020-12-31T12:30:35Z</time>
      </trkpt>
      <trkpt lat="43.66843" lon="3.80974">
        <ele>133.8</ele>
        <time>2020-12-31T12:30:36Z</time>
      </trkpt>
      <trkpt lat="43.66841" lon="3.80975">
        <ele>133.9</ele>
        <time>2020-12-31T12:30:37Z</time>
      </trkpt>
      <trkpt lat="43.66839" lon="3.80977">
        <ele>133.9</ele>
        <time>2020-12-31T12:30:38Z</time>
      </trkpt>
      <trkpt lat="43.66836" lon="3.80978">
        <ele>134.1</ele>
        <time>2020-12-31T12:30:39Z</time>
      </trkpt>
      <trkpt lat="43.66834" lon="3.8098">
        <ele>134.1</ele>
        <time>2020-12-31T12:30:40Z</time>
      </trkpt>
      <trkpt lat="43.66831" lon="3.80981">
        <ele>134.1</ele>
        <time>2020-12-31T12:30:41Z</time>
      </trkpt>
      <trkpt lat="43.66829" lon="3.80982">
        <ele>138</ele>
        <time>2020-12-31T12:30:42Z</time>
      </trkpt>
      <trkpt lat="43.66827" lon="3.80984">
        <ele>134</ele>
        <time>2020-12-31T12:30:43Z</time>
      </trkpt>
      <trkpt lat="43.66824" lon="3.80986">
        <ele>133.8</ele>
        <time>2020-12-31T12:30:44Z</time>
      </trkpt>
      <trkpt lat="43.66821" lon="3.80987">
        <ele>133.8</ele>
        <time>2020-12-31T12:30:45Z</time>
      </trkpt>
      <trkpt lat="43.66818" lon="3.80989">
        <ele>133.7</ele>
        <time>2020-12-31T12:30:46Z</time>
      </trkpt>
      <trkpt lat="43.66815" lon="3.80991">
        <ele>133.6</ele>
        <time>2020-12-31T12:30:47Z</time>
      </trkpt>
      <trkpt lat="43.66811" lon="3.80993">
        <ele>133.6</ele>
        <time>2020-12-31T12:30:48Z</time>
      </trkpt>
      <trkpt lat="43.66808" lon="3.80995">
        <ele>133.5</ele>
        <time>2020-12-31T12:30:49Z</time>
      </trkpt>
      <trkpt lat="43.66805" lon="3.80997">
        <ele>133.3</ele>
        <time>2020-12-31T12:30:50Z</time>
      </trkpt>
      <trkpt lat="43.66802" lon="3.80998">
        <ele>133.4</ele>
        <time>2020-12-31T12:30:51Z</time>
      </trkpt>
      <trkpt lat="43.66799" lon="3.81">
        <ele>138</ele>
        <time>2020-12-31T12:30:52Z</time>
      </trkpt>
      <trkpt lat="43.66796" lon="3.81001">
        <ele>133.2</ele>
        <time>2020-12-31T12:30:53Z</time>
      </trkpt>
      <trkpt lat="43.66794" lon="3.81002">
        <ele>133.2</ele>
        <time>2020-12-31T12:30:54Z</time>
      </trkpt>
      <trkpt lat="43.66791" lon="3.81003">
        <ele>133.2</ele>
        <time>2020-12-31T12:30:55Z</time>
      </trkpt>
      <trkpt lat="43.66788" lon="3.81005">
        <ele>133.1</ele>
        <time>2020-12-31T12:30:56Z</time>
      </trkpt>
      <trkpt lat="43.66785" lon="3.81007">
        <ele>133</ele>
        <time>2020-12-31T12:30:57Z</time>
      </trkpt>
      <trkpt lat="43.66782" lon="3.81008">
        <ele>133</ele>
        <time>2020-12-31T12:30:58Z</time>
      </trkpt>
      <trkpt lat="43.66778" lon="3.8101">
        <ele>132.9</ele>
        <time>2020-12-31T12:30:59Z</time>
      </trkpt>
      <trkpt lat="43.66775" lon="3.81012">
        <ele>133</ele>
        <time>2020-12-31T12:31:00Z</time>
      </trkpt>
      <trkpt lat="43.66772" lon="3.81014">
        <ele>133.2</ele>
        <time>2020-12-31T12:31:01Z</time>
      </trkpt>
      <trkpt lat="43.6677" lon="3.81018">
        <ele>138</ele>
        <time>2020-12-31T12:31:02Z</time>
      </trkpt>
      <trkpt lat="43.66768" lon="3.81022">
        <ele>133.2</ele>
        <time>2020-12-31T12:31:03Z</time>
      </trkpt>
      <trkpt lat="43.66767" lon="3.81027">
        <ele>133</ele>
        <time>2020-12-31T12:31:04Z</time>
      </trkpt>
      <trkpt lat="43.66766" lon="3.81032">
        <ele>133.4</ele>
        <time>2020-12-31T12:31:05Z</time>
      </trkpt>
      <trkpt lat="43.66766" lon="3.81037">
        <ele>133.8</ele>
        <time>2020-12-31T12:31:06Z</time>
      </trkpt>
      <trkpt lat="43.66766" lon="3.81042">
        <ele>134.1</ele>
        <time>2020-12-31T12:31:07Z</time>
      </trkpt>
      <trkpt lat="43.66765" lon="3.81046">
        <ele>134.6</ele>
        <time>2020-12-31T12:31:08Z</time>
      </trkpt>
      <trkpt lat="43.66765" lon="3.81051">
        <ele>135</ele>
        <time>2020-12-31T12:31:09Z</time>
      </trkpt>
      <trkpt lat="43.66765" lon="3.81056">
        <ele>135.3</ele>
        <time>2020-12-31T12:31:10Z</time>
      </trkpt>
      <trkpt lat="43.66765" lon="3.81061">
        <ele>135.4</ele>
        <time>2020-12-31T12:31:11Z</time>
      </trkpt>
      <trkpt lat="43.66765" lon="3.81066">
        <ele>138</ele>
        <time>2020-12-31T12:31:12Z</time>
      </trkpt>
      <trkpt lat="43.66765" lon="3.81071">
        <ele>135.6</ele>
        <time>2020-12-31T12:31:13Z</time>
      </trkpt>
      <trkpt lat="43.66765" lon="3.81076">
        <ele>135.6</ele>
        <time>2020-12-31T12:31:14Z</time>
      </trkpt>
      <trkpt lat="43.66765" lon="3.81081">
        <ele>135.7</ele>
        <time>2020-12-31T12:31:15Z</time>
      </trkpt>
      <trkpt lat="43.66765" lon="3.81087">
        <ele>135.8</ele>
        <time>2020-12-31T12:31:16Z</time>
      </trkpt>
      <trkpt lat="43.66765" lon="3.81091">
        <ele>135.9</ele>
        <time>2020-12-31T12:31:17Z</time>
      </trkpt>
      <trkpt lat="43.66764" lon="3.81096">
        <ele>136.2</ele>
        <time>2020-12-31T12:31:18Z</time>
      </trkpt>
      <trkpt lat="43.66764" lon="3.811">
        <ele>136.3</ele>
        <time>2020-12-31T12:31:19Z</time>
      </trkpt>
      <trkpt lat="43.66764" lon="3.81105">
        <ele>136.4</ele>
        <time>2020-12-31T12:31:20Z</time>
      </trkpt>
      <trkpt lat="43.66765" lon="3.8111">
        <ele>136.3</ele>
        <time>2020-12-31T12:31:21Z</time>
      </trkpt>
      <trkpt lat="43.66765" lon="3.81115">
        <ele>139</ele>
        <time>2020-12-31T12:31:22Z</time>
      </trkpt>
      <trkpt lat="43.66764" lon="3.81121">
        <ele>136.5</ele>
        <time>2020-12-31T12:31:23Z</time>
      </trkpt>
      <trkpt lat="43.66763" lon="3.81125">
        <ele>136.7</ele>
        <time>2020-12-31T12:31:24Z</time>
      </trkpt>
      <trkpt lat="43.66762" lon="3.81129">
        <ele>136.8</ele>
        <time>2020-12-31T12:31:25Z</time>
      </trkpt>
      <trkpt lat="43.66761" lon="3.81134">
        <ele>137</ele>
        <time>2020-12-31T12:31:26Z</time>
      </trkpt>
      <trkpt lat="43.66761" lon="3.81138">
        <ele>137</ele>
        <time>2020-12-31T12:31:27Z</time>
      </trkpt>
      <trkpt lat="43.66761" lon="3.81143">
        <ele>137.1</ele>
        <time>2020-12-31T12:31:28Z</time>
      </trkpt>
      <trkpt lat="43.66762" lon="3.81148">
        <ele>137</ele>
        <time>2020-12-31T12:31:29Z</time>
      </trkpt>
      <trkpt lat="43.66762" lon="3.81154">
        <ele>137.1</ele>
        <time>2020-12-31T12:31:30Z</time>
      </trkpt>
      <trkpt lat="43.66762" lon="3.81159">
        <ele>137.2</ele>
        <time>2020-12-31T12:31:31Z</time>
      </trkpt>
      <trkpt lat="43.66763" lon="3.81169">
        <ele>139</ele>
        <time>2020-12-31T12:31:32Z</time>
      </trkpt>
      <trkpt lat="43.66763" lon="3.81174">
        <ele>137.3</ele>
        <time>2020-12-31T12:31:33Z</time>
      </trkpt>
      <trkpt lat="43.66763" lon="3.81178">
        <ele>137.3</ele>
        <time>2020-12-31T12:31:34Z</time>
      </trkpt>
      <trkpt lat="43.66762" lon="3.81183">
        <ele>137.5</ele>
        <time>2020-12-31T12:31:35Z</time>
      </trkpt>
      <trkpt lat="43.66762" lon="3.81187">
        <ele>137.6</ele>
        <time>2020-12-31T12:31:36Z</time>
      </trkpt>
      <trkpt lat="43.66761" lon="3.81191">
        <ele>137.8</ele>
        <time>2020-12-31T12:31:37Z</time>
      </trkpt>
      <trkpt lat="43.66761" lon="3.81196">
        <ele>137.8</ele>
        <time>2020-12-31T12:31:38Z</time>
      </trkpt>
      <trkpt lat="43.6676" lon="3.812">
        <ele>137.7</ele>
        <time>2020-12-31T12:31:39Z</time>
      </trkpt>
      <trkpt lat="43.6676" lon="3.81205">
        <ele>137.6</ele>
        <time>2020-12-31T12:31:40Z</time>
      </trkpt>
      <trkpt lat="43.66759" lon="3.81209">
        <ele>137.5</ele>
        <time>2020-12-31T12:31:41Z</time>
      </trkpt>
      <trkpt lat="43.66759" lon="3.81214">
        <ele>140</ele>
        <time>2020-12-31T12:31:42Z</time>
      </trkpt>
      <trkpt lat="43.66758" lon="3.81219">
        <ele>137.1</ele>
        <time>2020-12-31T12:31:43Z</time>
      </trkpt>
      <trkpt lat="43.66756" lon="3.81223">
        <ele>136.9</ele>
        <time>2020-12-31T12:31:44Z</time>
      </trkpt>
      <trkpt lat="43.66753" lon="3.81225">
        <ele>136.7</ele>
        <time>2020-12-31T12:31:45Z</time>
      </trkpt>
      <trkpt lat="43.6675" lon="3.81226">
        <ele>136.6</ele>
        <time>2020-12-31T12:31:46Z</time>
      </trkpt>
      <trkpt lat="43.66747" lon="3.81226">
        <ele>136.7</ele>
        <time>2020-12-31T12:31:47Z</time>
      </trkpt>
      <trkpt lat="43.66744" lon="3.81225">
        <ele>136.9</ele>
        <time>2020-12-31T12:31:49Z</time>
      </trkpt>
      <trkpt lat="43.6674" lon="3.81224">
        <ele>137.2</ele>
        <time>2020-12-31T12:31:50Z</time>
      </trkpt>
      <trkpt lat="43.66737" lon="3.81223">
        <ele>137.4</ele>
        <time>2020-12-31T12:31:51Z</time>
      </trkpt>
      <trkpt lat="43.66734" lon="3.81221">
        <ele>139</ele>
        <time>2020-12-31T12:31:52Z</time>
      </trkpt>
      <trkpt lat="43.66732" lon="3.8122">
        <ele>137.8</ele>
        <time>2020-12-31T12:31:53Z</time>
      </trkpt>
      <trkpt lat="43.66729" lon="3.81219">
        <ele>138</ele>
        <time>2020-12-31T12:31:54Z</time>
      </trkpt>
      <trkpt lat="43.66727" lon="3.81219">
        <ele>138.1</ele>
        <time>2020-12-31T12:31:55Z</time>
      </trkpt>
      <trkpt lat="43.66725" lon="3.8122">
        <ele>138.1</ele>
        <time>2020-12-31T12:31:56Z</time>
      </trkpt>
      <trkpt lat="43.66722" lon="3.81221">
        <ele>138.1</ele>
        <time>2020-12-31T12:31:57Z</time>
      </trkpt>
      <trkpt lat="43.6672" lon="3.81221">
        <ele>138.2</ele>
        <time>2020-12-31T12:31:58Z</time>
      </trkpt>
      <trkpt lat="43.66717" lon="3.81222">
        <ele>138.2</ele>
        <time>2020-12-31T12:31:59Z</time>
      </trkpt>
      <trkpt lat="43.66714" lon="3.81223">
        <ele>138.2</ele>
        <time>2020-12-31T12:32:00Z</time>
      </trkpt>
      <trkpt lat="43.66711" lon="3.81224">
        <ele>138.3</ele>
        <time>2020-12-31T12:32:01Z</time>
      </trkpt>
      <trkpt lat="43.66708" lon="3.81224">
        <ele>140</ele>
        <time>2020-12-31T12:32:02Z</time>
      </trkpt>
      <trkpt lat="43.66705" lon="3.81223">
        <ele>138.6</ele>
        <time>2020-12-31T12:32:03Z</time>
      </trkpt>
      <trkpt lat="43.66702" lon="3.81223">
        <ele>138.7</ele>
        <time>2020-12-31T12:32:04Z</time>
      </trkpt>
      <trkpt lat="43.66699" lon="3.81222">
        <ele>138.9</ele>
        <time>2020-12-31T12:32:05Z</time>
      </trkpt>
      <trkpt lat="43.66696" lon="3.81222">
        <ele>139</ele>
        <time>2020-12-31T12:32:06Z</time>
      </trkpt>
      <trkpt lat="43.66693" lon="3.81221">
        <ele>139.1</ele>
        <time>2020-12-31T12:32:07Z</time>
      </trkpt>
      <trkpt lat="43.66691" lon="3.81221">
        <ele>139.1</ele>
        <time>2020-12-31T12:32:08Z</time>
      </trkpt>
      <trkpt lat="43.66688" lon="3.81221">
        <ele>139.1</ele>
        <time>2020-12-31T12:32:09Z</time>
      </trkpt>
      <trkpt lat="43.66685" lon="3.8122">
        <ele>139.2</ele>
        <time>2020-12-31T12:32:10Z</time>
      </trkpt>
      <trkpt lat="43.66683" lon="3.8122">
        <ele>139.2</ele>
        <time>2020-12-31T12:32:11Z</time>
      </trkpt>
      <trkpt lat="43.6668" lon="3.8122">
        <ele>141</ele>
        <time>2020-12-31T12:32:12Z</time>
      </trkpt>
      <trkpt lat="43.66678" lon="3.81219">
        <ele>139.2</ele>
        <time>2020-12-31T12:32:13Z</time>
      </trkpt>
      <trkpt lat="43.66675" lon="3.81219">
        <ele>139.2</ele>
        <time>2020-12-31T12:32:14Z</time>
      </trkpt>
      <trkpt lat="43.66672" lon="3.81219">
        <ele>139.2</ele>
        <time>2020-12-31T12:32:15Z</time>
      </trkpt>
      <trkpt lat="43.6667" lon="3.81219">
        <ele>139.2</ele>
        <time>2020-12-31T12:32:16Z</time>
      </trkpt>
      <trkpt lat="43.66667" lon="3.8122">
        <ele>139.2</ele>
        <time>2020-12-31T12:32:17Z</time>
      </trkpt>
      <trkpt lat="43.66665" lon="3.8122">
        <ele>139.2</ele>
        <time>2020-12-31T12:32:18Z</time>
      </trkpt>
      <trkpt lat="43.66663" lon="3.81219">
        <ele>139.2</ele>
        <time>2020-12-31T12:32:19Z</time>
      </trkpt>
      <trkpt lat="43.6666" lon="3.8122">
        <ele>139.2</ele>
        <time>2020-12-31T12:32:20Z</time>
      </trkpt>
      <trkpt lat="43.66658" lon="3.81223">
        <ele>138.9</ele>
        <time>2020-12-31T12:32:21Z</time>
      </trkpt>
      <trkpt lat="43.6665" lon="3.81228">
        <ele>140</ele>
        <time>2020-12-31T12:32:22Z</time>
      </trkpt>
      <trkpt lat="43.66646" lon="3.81229">
        <ele>138.5</ele>
        <time>2020-12-31T12:32:23Z</time>
      </trkpt>
      <trkpt lat="43.66642" lon="3.8123">
        <ele>138.4</ele>
        <time>2020-12-31T12:32:24Z</time>
      </trkpt>
      <trkpt lat="43.66638" lon="3.8123">
        <ele>138.4</ele>
        <time>2020-12-31T12:32:25Z</time>
      </trkpt>
      <trkpt lat="43.66635" lon="3.81231">
        <ele>138.4</ele>
        <time>2020-12-31T12:32:26Z</time>
      </trkpt>
      <trkpt lat="43.66631" lon="3.81231">
        <ele>138.5</ele>
        <time>2020-12-31T12:32:27Z</time>
      </trkpt>
      <trkpt lat="43.66628" lon="3.81232">
        <ele>138.4</ele>
        <time>2020-12-31T12:32:28Z</time>
      </trkpt>
      <trkpt lat="43.66625" lon="3.81233">
        <ele>138.4</ele>
        <time>2020-12-31T12:32:29Z</time>
      </trkpt>
      <trkpt lat="43.66622" lon="3.81234">
        <ele>138.4</ele>
        <time>2020-12-31T12:32:30Z</time>
      </trkpt>
      <trkpt lat="43.66619" lon="3.81235">
        <ele>138.4</ele>
        <time>2020-12-31T12:32:31Z</time>
      </trkpt>
      <trkpt lat="43.66616" lon="3.81237">
        <ele>138.4</ele>
        <time>2020-12-31T12:32:33Z</time>
      </trkpt>
      <trkpt lat="43.66613" lon="3.81238">
        <ele>138.4</ele>
        <time>2020-12-31T12:32:34Z</time>
      </trkpt>
      <trkpt lat="43.6661" lon="3.8124">
        <ele>138.3</ele>
        <time>2020-12-31T12:32:35Z</time>
      </trkpt>
      <trkpt lat="43.66607" lon="3.81242">
        <ele>138.1</ele>
        <time>2020-12-31T12:32:36Z</time>
      </trkpt>
      <trkpt lat="43.66604" lon="3.81243">
        <ele>138</ele>
        <time>2020-12-31T12:32:37Z</time>
      </trkpt>
      <trkpt lat="43.66601" lon="3.81245">
        <ele>137.8</ele>
        <time>2020-12-31T12:32:38Z</time>
      </trkpt>
      <trkpt lat="43.66598" lon="3.81246">
        <ele>137.7</ele>
        <time>2020-12-31T12:32:39Z</time>
      </trkpt>
      <trkpt lat="43.66595" lon="3.81246">
        <ele>137.6</ele>
        <time>2020-12-31T12:32:40Z</time>
      </trkpt>
      <trkpt lat="43.66592" lon="3.81247">
        <ele>137.4</ele>
        <time>2020-12-31T12:32:41Z</time>
      </trkpt>
      <trkpt lat="43.66589" lon="3.81247">
        <ele>141</ele>
        <time>2020-12-31T12:32:42Z</time>
      </trkpt>
      <trkpt lat="43.66587" lon="3.81246">
        <ele>137.3</ele>
        <time>2020-12-31T12:32:43Z</time>
      </trkpt>
      <trkpt lat="43.66584" lon="3.81245">
        <ele>137.2</ele>
        <time>2020-12-31T12:32:44Z</time>
      </trkpt>
      <trkpt lat="43.66582" lon="3.81244">
        <ele>137</ele>
        <time>2020-12-31T12:32:45Z</time>
      </trkpt>
      <trkpt lat="43.6658" lon="3.81243">
        <ele>136.7</ele>
        <time>2020-12-31T12:32:46Z</time>
      </trkpt>
      <trkpt lat="43.66577" lon="3.81243">
        <ele>136.3</ele>
        <time>2020-12-31T12:32:48Z</time>
      </trkpt>
      <trkpt lat="43.66573" lon="3.81243">
        <ele>135.7</ele>
        <time>2020-12-31T12:32:50Z</time>
      </trkpt>
      <trkpt lat="43.66571" lon="3.81244">
        <ele>140</ele>
        <time>2020-12-31T12:32:52Z</time>
      </trkpt>
      <trkpt lat="43.66562" lon="3.81241">
        <ele>140</ele>
        <time>2020-12-31T12:33:16Z</time>
      </trkpt>
      <trkpt lat="43.66559" lon="3.81241">
        <ele>133.3</ele>
        <time>2020-12-31T12:33:17Z</time>
      </trkpt>
      <trkpt lat="43.66556" lon="3.81242">
        <ele>132.9</ele>
        <time>2020-12-31T12:33:18Z</time>
      </trkpt>
      <trkpt lat="43.66552" lon="3.81243">
        <ele>132.4</ele>
        <time>2020-12-31T12:33:19Z</time>
      </trkpt>
      <trkpt lat="43.66548" lon="3.81243">
        <ele>131.6</ele>
        <time>2020-12-31T12:33:20Z</time>
      </trkpt>
      <trkpt lat="43.66544" lon="3.81243">
        <ele>130.9</ele>
        <time>2020-12-31T12:33:21Z</time>
      </trkpt>
      <trkpt lat="43.66539" lon="3.81243">
        <ele>130</ele>
        <time>2020-12-31T12:33:22Z</time>
      </trkpt>
      <trkpt lat="43.66533" lon="3.81243">
        <ele>128.9</ele>
        <time>2020-12-31T12:33:23Z</time>
      </trkpt>
      <trkpt lat="43.66527" lon="3.81243">
        <ele>127.9</ele>
        <time>2020-12-31T12:33:24Z</time>
      </trkpt>
      <trkpt lat="43.6652" lon="3.81242">
        <ele>126.6</ele>
        <time>2020-12-31T12:33:25Z</time>
      </trkpt>
      <trkpt lat="43.66506" lon="3.81239">
        <ele>139</ele>
        <time>2020-12-31T12:33:26Z</time>
      </trkpt>
      <trkpt lat="43.66499" lon="3.81238">
        <ele>122.7</ele>
        <time>2020-12-31T12:33:27Z</time>
      </trkpt>
      <trkpt lat="43.66492" lon="3.81238">
        <ele>121.7</ele>
        <time>2020-12-31T12:33:28Z</time>
      </trkpt>
      <trkpt lat="43.66486" lon="3.81238">
        <ele>120.8</ele>
        <time>2020-12-31T12:33:29Z</time>
      </trkpt>
      <trkpt lat="43.6648" lon="3.81237">
        <ele>119.8</ele>
        <time>2020-12-31T12:33:31Z</time>
      </trkpt>
      <trkpt lat="43.66473" lon="3.81237">
        <ele>118.8</ele>
        <time>2020-12-31T12:33:32Z</time>
      </trkpt>
      <trkpt lat="43.66466" lon="3.81238">
        <ele>118.3</ele>
        <time>2020-12-31T12:33:33Z</time>
      </trkpt>
      <trkpt lat="43.66458" lon="3.81239">
        <ele>117.7</ele>
        <time>2020-12-31T12:33:34Z</time>
      </trkpt>
      <trkpt lat="43.66451" lon="3.81238">
        <ele>116.9</ele>
        <time>2020-12-31T12:33:35Z</time>
      </trkpt>
      <trkpt lat="43.66435" lon="3.81237">
        <ele>136</ele>
        <time>2020-12-31T12:33:36Z</time>
      </trkpt>
      <trkpt lat="43.66427" lon="3.81238">
        <ele>113.8</ele>
        <time>2020-12-31T12:33:37Z</time>
      </trkpt>
      <trkpt lat="43.66419" lon="3.81238">
        <ele>112.6</ele>
        <time>2020-12-31T12:33:38Z</time>
      </trkpt>
      <trkpt lat="43.66411" lon="3.8124">
        <ele>112.2</ele>
        <time>2020-12-31T12:33:39Z</time>
      </trkpt>
      <trkpt lat="43.66403" lon="3.8124">
        <ele>111.6</ele>
        <time>2020-12-31T12:33:40Z</time>
      </trkpt>
      <trkpt lat="43.66394" lon="3.81241">
        <ele>111.1</ele>
        <time>2020-12-31T12:33:41Z</time>
      </trkpt>
      <trkpt lat="43.66386" lon="3.81242">
        <ele>110.7</ele>
        <time>2020-12-31T12:33:42Z</time>
      </trkpt>
      <trkpt lat="43.66377" lon="3.81242">
        <ele>110.4</ele>
        <time>2020-12-31T12:33:43Z</time>
      </trkpt>
      <trkpt lat="43.66369" lon="3.81241">
        <ele>109.8</ele>
        <time>2020-12-31T12:33:44Z</time>
      </trkpt>
      <trkpt lat="43.66361" lon="3.81239">
        <ele>108.8</ele>
        <time>2020-12-31T12:33:45Z</time>
      </trkpt>
      <trkpt lat="43.66354" lon="3.81238">
        <ele>107.6</ele>
        <time>2020-12-31T12:33:47Z</time>
      </trkpt>
      <trkpt lat="43.66347" lon="3.81236">
        <ele>106.2</ele>
        <time>2020-12-31T12:33:48Z</time>
      </trkpt>
      <trkpt lat="43.66334" lon="3.81236">
        <ele>104.6</ele>
        <time>2020-12-31T12:33:49Z</time>
      </trkpt>
      <trkpt lat="43.66326" lon="3.81236">
        <ele>103.3</ele>
        <time>2020-12-31T12:33:50Z</time>
      </trkpt>
      <trkpt lat="43.66312" lon="3.81236">
        <ele>101</ele>
        <time>2020-12-31T12:33:52Z</time>
      </trkpt>
      <trkpt lat="43.66304" lon="3.81237">
        <ele>99.9</ele>
        <time>2020-12-31T12:33:53Z</time>
      </trkpt>
      <trkpt lat="43.66296" lon="3.8124">
        <ele>99</ele>
        <time>2020-12-31T12:33:54Z</time>
      </trkpt>
      <trkpt lat="43.66288" lon="3.81244">
        <ele>123</ele>
        <time>2020-12-31T12:33:56Z</time>
      </trkpt>
      <trkpt lat="43.66279" lon="3.81249">
        <ele>97.1</ele>
        <time>2020-12-31T12:33:57Z</time>
      </trkpt>
      <trkpt lat="43.66271" lon="3.81255">
        <ele>96.8</ele>
        <time>2020-12-31T12:33:58Z</time>
      </trkpt>
      <trkpt lat="43.66263" lon="3.8126">
        <ele>96.1</ele>
        <time>2020-12-31T12:33:59Z</time>
      </trkpt>
      <trkpt lat="43.66254" lon="3.81265">
        <ele>95</ele>
        <time>2020-12-31T12:34:00Z</time>
      </trkpt>
      <trkpt lat="43.66246" lon="3.81268">
        <ele>94.2</ele>
        <time>2020-12-31T12:34:01Z</time>
      </trkpt>
      <trkpt lat="43.66238" lon="3.81271">
        <ele>93.8</ele>
        <time>2020-12-31T12:34:02Z</time>
      </trkpt>
      <trkpt lat="43.6623" lon="3.81273">
        <ele>93.3</ele>
        <time>2020-12-31T12:34:03Z</time>
      </trkpt>
      <trkpt lat="43.66222" lon="3.81275">
        <ele>92.7</ele>
        <time>2020-12-31T12:34:04Z</time>
      </trkpt>
      <trkpt lat="43.66214" lon="3.81279">
        <ele>91.9</ele>
        <time>2020-12-31T12:34:05Z</time>
      </trkpt>
      <trkpt lat="43.66206" lon="3.81283">
        <ele>114</ele>
        <time>2020-12-31T12:34:06Z</time>
      </trkpt>
      <trkpt lat="43.66197" lon="3.81287">
        <ele>90.1</ele>
        <time>2020-12-31T12:34:07Z</time>
      </trkpt>
      <trkpt lat="43.66188" lon="3.81292">
        <ele>89.4</ele>
        <time>2020-12-31T12:34:08Z</time>
      </trkpt>
      <trkpt lat="43.6618" lon="3.81297">
        <ele>89</ele>
        <time>2020-12-31T12:34:09Z</time>
      </trkpt>
      <trkpt lat="43.66172" lon="3.81303">
        <ele>88.5</ele>
        <time>2020-12-31T12:34:10Z</time>
      </trkpt>
      <trkpt lat="43.66164" lon="3.81309">
        <ele>88</ele>
        <time>2020-12-31T12:34:11Z</time>
      </trkpt>
      <trkpt lat="43.66157" lon="3.81315">
        <ele>87.7</ele>
        <time>2020-12-31T12:34:12Z</time>
      </trkpt>
      <trkpt lat="43.66149" lon="3.8132">
        <ele>87.1</ele>
        <time>2020-12-31T12:34:13Z</time>
      </trkpt>
      <trkpt lat="43.66142" lon="3.81326">
        <ele>86.4</ele>
        <time>2020-12-31T12:34:14Z</time>
      </trkpt>
      <trkpt lat="43.66135" lon="3.81332">
        <ele>85.9</ele>
        <time>2020-12-31T12:34:15Z</time>
      </trkpt>
      <trkpt lat="43.66128" lon="3.81337">
        <ele>99</ele>
        <time>2020-12-31T12:34:16Z</time>
      </trkpt>
      <trkpt lat="43.66121" lon="3.81341">
        <ele>85.6</ele>
        <time>2020-12-31T12:34:17Z</time>
      </trkpt>
      <trkpt lat="43.66113" lon="3.81345">
        <ele>85.5</ele>
        <time>2020-12-31T12:34:18Z</time>
      </trkpt>
      <trkpt lat="43.66106" lon="3.81348">
        <ele>85.2</ele>
        <time>2020-12-31T12:34:19Z</time>
      </trkpt>
      <trkpt lat="43.66099" lon="3.81351">
        <ele>84.8</ele>
        <time>2020-12-31T12:34:20Z</time>
      </trkpt>
      <trkpt lat="43.66086" lon="3.81358">
        <ele>84.1</ele>
        <time>2020-12-31T12:34:21Z</time>
      </trkpt>
      <trkpt lat="43.6608" lon="3.81361">
        <ele>83.9</ele>
        <time>2020-12-31T12:34:22Z</time>
      </trkpt>
      <trkpt lat="43.66073" lon="3.81364">
        <ele>83.7</ele>
        <time>2020-12-31T12:34:23Z</time>
      </trkpt>
      <trkpt lat="43.66067" lon="3.81367">
        <ele>83.6</ele>
        <time>2020-12-31T12:34:24Z</time>
      </trkpt>
      <trkpt lat="43.66061" lon="3.8137">
        <ele>83.5</ele>
        <time>2020-12-31T12:34:25Z</time>
      </trkpt>
      <trkpt lat="43.66055" lon="3.81373">
        <ele>94</ele>
        <time>2020-12-31T12:34:26Z</time>
      </trkpt>
      <trkpt lat="43.66049" lon="3.81376">
        <ele>83.4</ele>
        <time>2020-12-31T12:34:27Z</time>
      </trkpt>
      <trkpt lat="43.66042" lon="3.81379">
        <ele>83.3</ele>
        <time>2020-12-31T12:34:28Z</time>
      </trkpt>
      <trkpt lat="43.66036" lon="3.81381">
        <ele>83.2</ele>
        <time>2020-12-31T12:34:29Z</time>
      </trkpt>
      <trkpt lat="43.6603" lon="3.81384">
        <ele>83.1</ele>
        <time>2020-12-31T12:34:30Z</time>
      </trkpt>
      <trkpt lat="43.66024" lon="3.81387">
        <ele>83</ele>
        <time>2020-12-31T12:34:31Z</time>
      </trkpt>
      <trkpt lat="43.66018" lon="3.81389">
        <ele>83</ele>
        <time>2020-12-31T12:34:32Z</time>
      </trkpt>
      <trkpt lat="43.66013" lon="3.8139">
        <ele>83</ele>
        <time>2020-12-31T12:34:33Z</time>
      </trkpt>
      <trkpt lat="43.66007" lon="3.81391">
        <ele>83</ele>
        <time>2020-12-31T12:34:34Z</time>
      </trkpt>
      <trkpt lat="43.66002" lon="3.81393">
        <ele>83</ele>
        <time>2020-12-31T12:34:35Z</time>
      </trkpt>
      <trkpt lat="43.65998" lon="3.81394">
        <ele>82.9</ele>
        <time>2020-12-31T12:34:37Z</time>
      </trkpt>
      <trkpt lat="43.65993" lon="3.81396">
        <ele>82.6</ele>
        <time>2020-12-31T12:34:38Z</time>
      </trkpt>
      <trkpt lat="43.65988" lon="3.81399">
        <ele>82.5</ele>
        <time>2020-12-31T12:34:39Z</time>
      </trkpt>
      <trkpt lat="43.65984" lon="3.81401">
        <ele>82.4</ele>
        <time>2020-12-31T12:34:40Z</time>
      </trkpt>
      <trkpt lat="43.6598" lon="3.81403">
        <ele>82.3</ele>
        <time>2020-12-31T12:34:41Z</time>
      </trkpt>
      <trkpt lat="43.65976" lon="3.81405">
        <ele>82.3</ele>
        <time>2020-12-31T12:34:42Z</time>
      </trkpt>
      <trkpt lat="43.65973" lon="3.81408">
        <ele>82.4</ele>
        <time>2020-12-31T12:34:43Z</time>
      </trkpt>
      <trkpt lat="43.65968" lon="3.8141">
        <ele>82.3</ele>
        <time>2020-12-31T12:34:44Z</time>
      </trkpt>
      <trkpt lat="43.65964" lon="3.81412">
        <ele>82.2</ele>
        <time>2020-12-31T12:34:45Z</time>
      </trkpt>
      <trkpt lat="43.6596" lon="3.81414">
        <ele>88</ele>
        <time>2020-12-31T12:34:46Z</time>
      </trkpt>
      <trkpt lat="43.65955" lon="3.81417">
        <ele>81.8</ele>
        <time>2020-12-31T12:34:47Z</time>
      </trkpt>
      <trkpt lat="43.65951" lon="3.81418">
        <ele>81.5</ele>
        <time>2020-12-31T12:34:48Z</time>
      </trkpt>
      <trkpt lat="43.65946" lon="3.8142">
        <ele>81.3</ele>
        <time>2020-12-31T12:34:49Z</time>
      </trkpt>
      <trkpt lat="43.65941" lon="3.81423">
        <ele>81.4</ele>
        <time>2020-12-31T12:34:50Z</time>
      </trkpt>
      <trkpt lat="43.65937" lon="3.81426">
        <ele>81.5</ele>
        <time>2020-12-31T12:34:51Z</time>
      </trkpt>
      <trkpt lat="43.65933" lon="3.8143">
        <ele>81.7</ele>
        <time>2020-12-31T12:34:52Z</time>
      </trkpt>
      <trkpt lat="43.65929" lon="3.81433">
        <ele>81.9</ele>
        <time>2020-12-31T12:34:53Z</time>
      </trkpt>
      <trkpt lat="43.65925" lon="3.81437">
        <ele>82.3</ele>
        <time>2020-12-31T12:34:54Z</time>
      </trkpt>
      <trkpt lat="43.65921" lon="3.8144">
        <ele>82.5</ele>
        <time>2020-12-31T12:34:55Z</time>
      </trkpt>
      <trkpt lat="43.65917" lon="3.81443">
        <ele>87</ele>
        <time>2020-12-31T12:34:56Z</time>
      </trkpt>
      <trkpt lat="43.65914" lon="3.81446">
        <ele>82.9</ele>
        <time>2020-12-31T12:34:57Z</time>
      </trkpt>
      <trkpt lat="43.6591" lon="3.81449">
        <ele>82.9</ele>
        <time>2020-12-31T12:34:58Z</time>
      </trkpt>
      <trkpt lat="43.65907" lon="3.81452">
        <ele>82.9</ele>
        <time>2020-12-31T12:34:59Z</time>
      </trkpt>
      <trkpt lat="43.65904" lon="3.81455">
        <ele>83</ele>
        <time>2020-12-31T12:35:00Z</time>
      </trkpt>
      <trkpt lat="43.65901" lon="3.81458">
        <ele>83.1</ele>
        <time>2020-12-31T12:35:01Z</time>
      </trkpt>
      <trkpt lat="43.65898" lon="3.8146">
        <ele>83.2</ele>
        <time>2020-12-31T12:35:02Z</time>
      </trkpt>
      <trkpt lat="43.65895" lon="3.81464">
        <ele>83.4</ele>
        <time>2020-12-31T12:35:03Z</time>
      </trkpt>
      <trkpt lat="43.65892" lon="3.81467">
        <ele>83.6</ele>
        <time>2020-12-31T12:35:04Z</time>
      </trkpt>
      <trkpt lat="43.65889" lon="3.8147">
        <ele>83.8</ele>
        <time>2020-12-31T12:35:05Z</time>
      </trkpt>
      <trkpt lat="43.65886" lon="3.81474">
        <ele>86</ele>
        <time>2020-12-31T12:35:06Z</time>
      </trkpt>
      <trkpt lat="43.65883" lon="3.81478">
        <ele>84.3</ele>
        <time>2020-12-31T12:35:07Z</time>
      </trkpt>
      <trkpt lat="43.6588" lon="3.81481">
        <ele>84.4</ele>
        <time>2020-12-31T12:35:08Z</time>
      </trkpt>
      <trkpt lat="43.65877" lon="3.81485">
        <ele>84.6</ele>
        <time>2020-12-31T12:35:09Z</time>
      </trkpt>
      <trkpt lat="43.65874" lon="3.81488">
        <ele>84.6</ele>
        <time>2020-12-31T12:35:10Z</time>
      </trkpt>
      <trkpt lat="43.65871" lon="3.81491">
        <ele>84.5</ele>
        <time>2020-12-31T12:35:11Z</time>
      </trkpt>
      <trkpt lat="43.65868" lon="3.81494">
        <ele>84.5</ele>
        <time>2020-12-31T12:35:12Z</time>
      </trkpt>
      <trkpt lat="43.65864" lon="3.81498">
        <ele>84.3</ele>
        <time>2020-12-31T12:35:13Z</time>
      </trkpt>
      <trkpt lat="43.65861" lon="3.81501">
        <ele>84.2</ele>
        <time>2020-12-31T12:35:14Z</time>
      </trkpt>
      <trkpt lat="43.65858" lon="3.81505">
        <ele>84.7</ele>
        <time>2020-12-31T12:35:15Z</time>
      </trkpt>
      <trkpt lat="43.65855" lon="3.81508">
        <ele>85</ele>
        <time>2020-12-31T12:35:16Z</time>
      </trkpt>
      <trkpt lat="43.65851" lon="3.81511">
        <ele>85</ele>
        <time>2020-12-31T12:35:17Z</time>
      </trkpt>
      <trkpt lat="43.65848" lon="3.81515">
        <ele>85.3</ele>
        <time>2020-12-31T12:35:18Z</time>
      </trkpt>
      <trkpt lat="43.65845" lon="3.81518">
        <ele>85.4</ele>
        <time>2020-12-31T12:35:19Z</time>
      </trkpt>
      <trkpt lat="43.65842" lon="3.81522">
        <ele>85.6</ele>
        <time>2020-12-31T12:35:20Z</time>
      </trkpt>
      <trkpt lat="43.65839" lon="3.81525">
        <ele>85.6</ele>
        <time>2020-12-31T12:35:21Z</time>
      </trkpt>
      <trkpt lat="43.65836" lon="3.81528">
        <ele>85.5</ele>
        <time>2020-12-31T12:35:22Z</time>
      </trkpt>
      <trkpt lat="43.65834" lon="3.81531">
        <ele>85.5</ele>
        <time>2020-12-31T12:35:23Z</time>
      </trkpt>
      <trkpt lat="43.65831" lon="3.81534">
        <ele>85.4</ele>
        <time>2020-12-31T12:35:24Z</time>
      </trkpt>
      <trkpt lat="43.65828" lon="3.81537">
        <ele>85.4</ele>
        <time>2020-12-31T12:35:25Z</time>
      </trkpt>
      <trkpt lat="43.65825" lon="3.81541">
        <ele>85</ele>
        <time>2020-12-31T12:35:26Z</time>
      </trkpt>
      <trkpt lat="43.65822" lon="3.81544">
        <ele>85.3</ele>
        <time>2020-12-31T12:35:27Z</time>
      </trkpt>
      <trkpt lat="43.65819" lon="3.81547">
        <ele>85.2</ele>
        <time>2020-12-31T12:35:28Z</time>
      </trkpt>
      <trkpt lat="43.65816" lon="3.8155">
        <ele>85</ele>
        <time>2020-12-31T12:35:29Z</time>
      </trkpt>
      <trkpt lat="43.65813" lon="3.81553">
        <ele>84.9</ele>
        <time>2020-12-31T12:35:30Z</time>
      </trkpt>
      <trkpt lat="43.6581" lon="3.81556">
        <ele>84.7</ele>
        <time>2020-12-31T12:35:31Z</time>
      </trkpt>
      <trkpt lat="43.65807" lon="3.8156">
        <ele>84.7</ele>
        <time>2020-12-31T12:35:32Z</time>
      </trkpt>
      <trkpt lat="43.65804" lon="3.81563">
        <ele>84.6</ele>
        <time>2020-12-31T12:35:33Z</time>
      </trkpt>
      <trkpt lat="43.65801" lon="3.81566">
        <ele>84.6</ele>
        <time>2020-12-31T12:35:34Z</time>
      </trkpt>
      <trkpt lat="43.65798" lon="3.81569">
        <ele>84.6</ele>
        <time>2020-12-31T12:35:35Z</time>
      </trkpt>
      <trkpt lat="43.65795" lon="3.81572">
        <ele>85</ele>
        <time>2020-12-31T12:35:36Z</time>
      </trkpt>
      <trkpt lat="43.65792" lon="3.81576">
        <ele>84.7</ele>
        <time>2020-12-31T12:35:37Z</time>
      </trkpt>
      <trkpt lat="43.65789" lon="3.81579">
        <ele>84.7</ele>
        <time>2020-12-31T12:35:38Z</time>
      </trkpt>
      <trkpt lat="43.65786" lon="3.81582">
        <ele>84.7</ele>
        <time>2020-12-31T12:35:39Z</time>
      </trkpt>
      <trkpt lat="43.65783" lon="3.81586">
        <ele>84.8</ele>
        <time>2020-12-31T12:35:40Z</time>
      </trkpt>
      <trkpt lat="43.6578" lon="3.81589">
        <ele>84.6</ele>
        <time>2020-12-31T12:35:41Z</time>
      </trkpt>
      <trkpt lat="43.65777" lon="3.81592">
        <ele>84.6</ele>
        <time>2020-12-31T12:35:42Z</time>
      </trkpt>
      <trkpt lat="43.65774" lon="3.81595">
        <ele>84.7</ele>
        <time>2020-12-31T12:35:43Z</time>
      </trkpt>
      <trkpt lat="43.65771" lon="3.81598">
        <ele>84.8</ele>
        <time>2020-12-31T12:35:44Z</time>
      </trkpt>
      <trkpt lat="43.65768" lon="3.81602">
        <ele>85</ele>
        <time>2020-12-31T12:35:45Z</time>
      </trkpt>
      <trkpt lat="43.65765" lon="3.81605">
        <ele>85</ele>
        <time>2020-12-31T12:35:46Z</time>
      </trkpt>
      <trkpt lat="43.65763" lon="3.81608">
        <ele>85.2</ele>
        <time>2020-12-31T12:35:47Z</time>
      </trkpt>
      <trkpt lat="43.65759" lon="3.81611">
        <ele>85.3</ele>
        <time>2020-12-31T12:35:48Z</time>
      </trkpt>
      <trkpt lat="43.65757" lon="3.81613">
        <ele>85.3</ele>
        <time>2020-12-31T12:35:49Z</time>
      </trkpt>
      <trkpt lat="43.65754" lon="3.81615">
        <ele>85.3</ele>
        <time>2020-12-31T12:35:50Z</time>
      </trkpt>
      <trkpt lat="43.6575" lon="3.81617">
        <ele>85.2</ele>
        <time>2020-12-31T12:35:51Z</time>
      </trkpt>
      <trkpt lat="43.65747" lon="3.81619">
        <ele>85.1</ele>
        <time>2020-12-31T12:35:52Z</time>
      </trkpt>
      <trkpt lat="43.65744" lon="3.81621">
        <ele>85</ele>
        <time>2020-12-31T12:35:53Z</time>
      </trkpt>
      <trkpt lat="43.65741" lon="3.81623">
        <ele>84.9</ele>
        <time>2020-12-31T12:35:54Z</time>
      </trkpt>
      <trkpt lat="43.65738" lon="3.81625">
        <ele>84.9</ele>
        <time>2020-12-31T12:35:55Z</time>
      </trkpt>
      <trkpt lat="43.65736" lon="3.81626">
        <ele>85</ele>
        <time>2020-12-31T12:35:56Z</time>
      </trkpt>
      <trkpt lat="43.65734" lon="3.81628">
        <ele>84.8</ele>
        <time>2020-12-31T12:35:57Z</time>
      </trkpt>
      <trkpt lat="43.65731" lon="3.8163">
        <ele>84.8</ele>
        <time>2020-12-31T12:35:58Z</time>
      </trkpt>
      <trkpt lat="43.65729" lon="3.81632">
        <ele>84.8</ele>
        <time>2020-12-31T12:35:59Z</time>
      </trkpt>
      <trkpt lat="43.65727" lon="3.81635">
        <ele>84.9</ele>
        <time>2020-12-31T12:36:00Z</time>
      </trkpt>
      <trkpt lat="43.65724" lon="3.81638">
        <ele>85</ele>
        <time>2020-12-31T12:36:01Z</time>
      </trkpt>
      <trkpt lat="43.65722" lon="3.81641">
        <ele>85.1</ele>
        <time>2020-12-31T12:36:02Z</time>
      </trkpt>
      <trkpt lat="43.65719" lon="3.81644">
        <ele>84.8</ele>
        <time>2020-12-31T12:36:03Z</time>
      </trkpt>
      <trkpt lat="43.65717" lon="3.81648">
        <ele>84.7</ele>
        <time>2020-12-31T12:36:04Z</time>
      </trkpt>
      <trkpt lat="43.65715" lon="3.81651">
        <ele>84.5</ele>
        <time>2020-12-31T12:36:05Z</time>
      </trkpt>
      <trkpt lat="43.65712" lon="3.81655">
        <ele>85</ele>
        <time>2020-12-31T12:36:06Z</time>
      </trkpt>
      <trkpt lat="43.65709" lon="3.81658">
        <ele>83.9</ele>
        <time>2020-12-31T12:36:07Z</time>
      </trkpt>
      <trkpt lat="43.65706" lon="3.8166">
        <ele>83.6</ele>
        <time>2020-12-31T12:36:08Z</time>
      </trkpt>
      <trkpt lat="43.65704" lon="3.81662">
        <ele>83.3</ele>
        <time>2020-12-31T12:36:09Z</time>
      </trkpt>
      <trkpt lat="43.65701" lon="3.81664">
        <ele>82.9</ele>
        <time>2020-12-31T12:36:11Z</time>
      </trkpt>
      <trkpt lat="43.65699" lon="3.81665">
        <ele>82.6</ele>
        <time>2020-12-31T12:36:13Z</time>
      </trkpt>
      <trkpt lat="43.65697" lon="3.81665">
        <ele>85</ele>
        <time>2020-12-31T12:36:16Z</time>
      </trkpt>
      <trkpt lat="43.65694" lon="3.81665">
        <ele>82</ele>
        <time>2020-12-31T12:36:17Z</time>
      </trkpt>
      <trkpt lat="43.65691" lon="3.81666">
        <ele>82.1</ele>
        <time>2020-12-31T12:36:18Z</time>
      </trkpt>
      <trkpt lat="43.65688" lon="3.81667">
        <ele>82.3</ele>
        <time>2020-12-31T12:36:19Z</time>
      </trkpt>
      <trkpt lat="43.65684" lon="3.81668">
        <ele>82.5</ele>
        <time>2020-12-31T12:36:20Z</time>
      </trkpt>
      <trkpt lat="43.65677" lon="3.81669">
        <ele>82.8</ele>
        <time>2020-12-31T12:36:22Z</time>
      </trkpt>
      <trkpt lat="43.65674" lon="3.81669">
        <ele>82.9</ele>
        <time>2020-12-31T12:36:23Z</time>
      </trkpt>
      <trkpt lat="43.65671" lon="3.81669">
        <ele>83</ele>
        <time>2020-12-31T12:36:24Z</time>
      </trkpt>
      <trkpt lat="43.65667" lon="3.8167">
        <ele>85</ele>
        <time>2020-12-31T12:36:26Z</time>
      </trkpt>
      <trkpt lat="43.65663" lon="3.81671">
        <ele>83</ele>
        <time>2020-12-31T12:36:27Z</time>
      </trkpt>
      <trkpt lat="43.65659" lon="3.81671">
        <ele>82.6</ele>
        <time>2020-12-31T12:36:28Z</time>
      </trkpt>
      <trkpt lat="43.65655" lon="3.81672">
        <ele>82.3</ele>
        <time>2020-12-31T12:36:29Z</time>
      </trkpt>
      <trkpt lat="43.6565" lon="3.81673">
        <ele>81.9</ele>
        <time>2020-12-31T12:36:30Z</time>
      </trkpt>
      <trkpt lat="43.65645" lon="3.81675">
        <ele>81.7</ele>
        <time>2020-12-31T12:36:31Z</time>
      </trkpt>
      <trkpt lat="43.6564" lon="3.81677">
        <ele>81.6</ele>
        <time>2020-12-31T12:36:32Z</time>
      </trkpt>
      <trkpt lat="43.65635" lon="3.8168">
        <ele>81.6</ele>
        <time>2020-12-31T12:36:33Z</time>
      </trkpt>
      <trkpt lat="43.65629" lon="3.81684">
        <ele>81.6</ele>
        <time>2020-12-31T12:36:34Z</time>
      </trkpt>
      <trkpt lat="43.65624" lon="3.81686">
        <ele>81.3</ele>
        <time>2020-12-31T12:36:35Z</time>
      </trkpt>
      <trkpt lat="43.65618" lon="3.81688">
        <ele>84</ele>
        <time>2020-12-31T12:36:36Z</time>
      </trkpt>
      <trkpt lat="43.65612" lon="3.81691">
        <ele>80.7</ele>
        <time>2020-12-31T12:36:37Z</time>
      </trkpt>
      <trkpt lat="43.65606" lon="3.81693">
        <ele>80.1</ele>
        <time>2020-12-31T12:36:38Z</time>
      </trkpt>
      <trkpt lat="43.656" lon="3.81696">
        <ele>79.6</ele>
        <time>2020-12-31T12:36:39Z</time>
      </trkpt>
      <trkpt lat="43.65595" lon="3.81701">
        <ele>79.5</ele>
        <time>2020-12-31T12:36:40Z</time>
      </trkpt>
      <trkpt lat="43.65591" lon="3.81706">
        <ele>79.5</ele>
        <time>2020-12-31T12:36:41Z</time>
      </trkpt>
      <trkpt lat="43.65586" lon="3.81711">
        <ele>79.2</ele>
        <time>2020-12-31T12:36:42Z</time>
      </trkpt>
      <trkpt lat="43.65582" lon="3.81716">
        <ele>79.2</ele>
        <time>2020-12-31T12:36:43Z</time>
      </trkpt>
      <trkpt lat="43.65577" lon="3.81721">
        <ele>79</ele>
        <time>2020-12-31T12:36:44Z</time>
      </trkpt>
      <trkpt lat="43.65573" lon="3.81726">
        <ele>78.8</ele>
        <time>2020-12-31T12:36:45Z</time>
      </trkpt>
      <trkpt lat="43.65563" lon="3.81734">
        <ele>81</ele>
        <time>2020-12-31T12:36:46Z</time>
      </trkpt>
      <trkpt lat="43.65558" lon="3.81738">
        <ele>77</ele>
        <time>2020-12-31T12:36:47Z</time>
      </trkpt>
      <trkpt lat="43.65554" lon="3.81742">
        <ele>76.7</ele>
        <time>2020-12-31T12:36:48Z</time>
      </trkpt>
      <trkpt lat="43.65549" lon="3.81746">
        <ele>76.6</ele>
        <time>2020-12-31T12:36:49Z</time>
      </trkpt>
      <trkpt lat="43.65545" lon="3.8175">
        <ele>76.6</ele>
        <time>2020-12-31T12:36:50Z</time>
      </trkpt>
      <trkpt lat="43.6554" lon="3.81755">
        <ele>77</ele>
        <time>2020-12-31T12:36:51Z</time>
      </trkpt>
      <trkpt lat="43.65536" lon="3.81759">
        <ele>77.1</ele>
        <time>2020-12-31T12:36:52Z</time>
      </trkpt>
      <trkpt lat="43.65532" lon="3.81764">
        <ele>77.3</ele>
        <time>2020-12-31T12:36:53Z</time>
      </trkpt>
      <trkpt lat="43.65528" lon="3.81768">
        <ele>77.3</ele>
        <time>2020-12-31T12:36:54Z</time>
      </trkpt>
      <trkpt lat="43.65523" lon="3.81772">
        <ele>77.1</ele>
        <time>2020-12-31T12:36:55Z</time>
      </trkpt>
      <trkpt lat="43.65519" lon="3.81777">
        <ele>77</ele>
        <time>2020-12-31T12:36:57Z</time>
      </trkpt>
      <trkpt lat="43.65516" lon="3.81781">
        <ele>76.9</ele>
        <time>2020-12-31T12:36:58Z</time>
      </trkpt>
      <trkpt lat="43.65512" lon="3.81786">
        <ele>76.8</ele>
        <time>2020-12-31T12:36:59Z</time>
      </trkpt>
      <trkpt lat="43.65508" lon="3.8179">
        <ele>76.6</ele>
        <time>2020-12-31T12:37:00Z</time>
      </trkpt>
      <trkpt lat="43.65504" lon="3.81795">
        <ele>76.6</ele>
        <time>2020-12-31T12:37:01Z</time>
      </trkpt>
      <trkpt lat="43.655" lon="3.81799">
        <ele>76.5</ele>
        <time>2020-12-31T12:37:02Z</time>
      </trkpt>
      <trkpt lat="43.65496" lon="3.81804">
        <ele>76.6</ele>
        <time>2020-12-31T12:37:03Z</time>
      </trkpt>
      <trkpt lat="43.65491" lon="3.81808">
        <ele>76.5</ele>
        <time>2020-12-31T12:37:04Z</time>
      </trkpt>
      <trkpt lat="43.65487" lon="3.81812">
        <ele>76.4</ele>
        <time>2020-12-31T12:37:05Z</time>
      </trkpt>
      <trkpt lat="43.65482" lon="3.81816">
        <ele>78</ele>
        <time>2020-12-31T12:37:06Z</time>
      </trkpt>
      <trkpt lat="43.65477" lon="3.81819">
        <ele>76.2</ele>
        <time>2020-12-31T12:37:07Z</time>
      </trkpt>
      <trkpt lat="43.65471" lon="3.81822">
        <ele>76.1</ele>
        <time>2020-12-31T12:37:08Z</time>
      </trkpt>
      <trkpt lat="43.65465" lon="3.81825">
        <ele>76</ele>
        <time>2020-12-31T12:37:09Z</time>
      </trkpt>
      <trkpt lat="43.65459" lon="3.81827">
        <ele>75.8</ele>
        <time>2020-12-31T12:37:10Z</time>
      </trkpt>
      <trkpt lat="43.65453" lon="3.81829">
        <ele>75.5</ele>
        <time>2020-12-31T12:37:11Z</time>
      </trkpt>
      <trkpt lat="43.65447" lon="3.81832">
        <ele>75.2</ele>
        <time>2020-12-31T12:37:12Z</time>
      </trkpt>
      <trkpt lat="43.6544" lon="3.81835">
        <ele>75</ele>
        <time>2020-12-31T12:37:13Z</time>
      </trkpt>
      <trkpt lat="43.65434" lon="3.81838">
        <ele>75</ele>
        <time>2020-12-31T12:37:14Z</time>
      </trkpt>
      <trkpt lat="43.65427" lon="3.81841">
        <ele>75</ele>
        <time>2020-12-31T12:37:15Z</time>
      </trkpt>
      <trkpt lat="43.6542" lon="3.81845">
        <ele>78</ele>
        <time>2020-12-31T12:37:16Z</time>
      </trkpt>
      <trkpt lat="43.65413" lon="3.81848">
        <ele>75.4</ele>
        <time>2020-12-31T12:37:17Z</time>
      </trkpt>
      <trkpt lat="43.65406" lon="3.8185">
        <ele>76.2</ele>
        <time>2020-12-31T12:37:18Z</time>
      </trkpt>
      <trkpt lat="43.654" lon="3.81852">
        <ele>76.8</ele>
        <time>2020-12-31T12:37:19Z</time>
      </trkpt>
      <trkpt lat="43.65396" lon="3.81854">
        <ele>77.2</ele>
        <time>2020-12-31T12:37:20Z</time>
      </trkpt>
      <trkpt lat="43.65393" lon="3.81854">
        <ele>77.6</ele>
        <time>2020-12-31T12:37:21Z</time>
      </trkpt>
      <trkpt lat="43.65391" lon="3.81852">
        <ele>77.8</ele>
        <time>2020-12-31T12:37:22Z</time>
      </trkpt>
      <trkpt lat="43.65388" lon="3.81849">
        <ele>77.9</ele>
        <time>2020-12-31T12:37:23Z</time>
      </trkpt>
      <trkpt lat="43.65385" lon="3.81847">
        <ele>77.6</ele>
        <time>2020-12-31T12:37:24Z</time>
      </trkpt>
      <trkpt lat="43.65382" lon="3.81848">
        <ele>77.3</ele>
        <time>2020-12-31T12:37:25Z</time>
      </trkpt>
      <trkpt lat="43.65379" lon="3.81851">
        <ele>78</ele>
        <time>2020-12-31T12:37:26Z</time>
      </trkpt>
      <trkpt lat="43.65375" lon="3.81855">
        <ele>76.5</ele>
        <time>2020-12-31T12:37:27Z</time>
      </trkpt>
      <trkpt lat="43.65371" lon="3.8186">
        <ele>76.1</ele>
        <time>2020-12-31T12:37:28Z</time>
      </trkpt>
      <trkpt lat="43.65366" lon="3.81866">
        <ele>75.7</ele>
        <time>2020-12-31T12:37:29Z</time>
      </trkpt>
      <trkpt lat="43.65362" lon="3.81871">
        <ele>75.4</ele>
        <time>2020-12-31T12:37:30Z</time>
      </trkpt>
      <trkpt lat="43.65358" lon="3.81875">
        <ele>75.3</ele>
        <time>2020-12-31T12:37:31Z</time>
      </trkpt>
      <trkpt lat="43.65353" lon="3.8188">
        <ele>75.2</ele>
        <time>2020-12-31T12:37:32Z</time>
      </trkpt>
      <trkpt lat="43.65348" lon="3.81886">
        <ele>75</ele>
        <time>2020-12-31T12:37:33Z</time>
      </trkpt>
      <trkpt lat="43.65343" lon="3.81891">
        <ele>74.7</ele>
        <time>2020-12-31T12:37:34Z</time>
      </trkpt>
      <trkpt lat="43.65338" lon="3.81897">
        <ele>74.6</ele>
        <time>2020-12-31T12:37:35Z</time>
      </trkpt>
      <trkpt lat="43.65333" lon="3.81903">
        <ele>77</ele>
        <time>2020-12-31T12:37:36Z</time>
      </trkpt>
      <trkpt lat="43.65328" lon="3.81908">
        <ele>74.6</ele>
        <time>2020-12-31T12:37:37Z</time>
      </trkpt>
      <trkpt lat="43.65322" lon="3.81914">
        <ele>74.5</ele>
        <time>2020-12-31T12:37:38Z</time>
      </trkpt>
      <trkpt lat="43.65316" lon="3.81919">
        <ele>74.4</ele>
        <time>2020-12-31T12:37:39Z</time>
      </trkpt>
      <trkpt lat="43.65311" lon="3.81923">
        <ele>74.4</ele>
        <time>2020-12-31T12:37:40Z</time>
      </trkpt>
      <trkpt lat="43.65306" lon="3.81928">
        <ele>74.4</ele>
        <time>2020-12-31T12:37:41Z</time>
      </trkpt>
      <trkpt lat="43.65301" lon="3.81932">
        <ele>74.4</ele>
        <time>2020-12-31T12:37:42Z</time>
      </trkpt>
      <trkpt lat="43.65296" lon="3.81937">
        <ele>74.4</ele>
        <time>2020-12-31T12:37:43Z</time>
      </trkpt>
      <trkpt lat="43.65292" lon="3.81942">
        <ele>74.4</ele>
        <time>2020-12-31T12:37:44Z</time>
      </trkpt>
      <trkpt lat="43.65288" lon="3.81947">
        <ele>74.4</ele>
        <time>2020-12-31T12:37:45Z</time>
      </trkpt>
      <trkpt lat="43.65284" lon="3.81951">
        <ele>76</ele>
        <time>2020-12-31T12:37:46Z</time>
      </trkpt>
      <trkpt lat="43.6528" lon="3.81954">
        <ele>74.1</ele>
        <time>2020-12-31T12:37:47Z</time>
      </trkpt>
      <trkpt lat="43.65275" lon="3.81957">
        <ele>74</ele>
        <time>2020-12-31T12:37:48Z</time>
      </trkpt>
      <trkpt lat="43.65271" lon="3.8196">
        <ele>74.1</ele>
        <time>2020-12-31T12:37:49Z</time>
      </trkpt>
      <trkpt lat="43.65266" lon="3.81962">
        <ele>74.3</ele>
        <time>2020-12-31T12:37:50Z</time>
      </trkpt>
      <trkpt lat="43.65262" lon="3.81964">
        <ele>74.4</ele>
        <time>2020-12-31T12:37:51Z</time>
      </trkpt>
      <trkpt lat="43.65258" lon="3.81967">
        <ele>74.6</ele>
        <time>2020-12-31T12:37:52Z</time>
      </trkpt>
      <trkpt lat="43.65254" lon="3.81969">
        <ele>74.8</ele>
        <time>2020-12-31T12:37:53Z</time>
      </trkpt>
      <trkpt lat="43.6525" lon="3.81971">
        <ele>75</ele>
        <time>2020-12-31T12:37:54Z</time>
      </trkpt>
      <trkpt lat="43.65246" lon="3.81973">
        <ele>74.9</ele>
        <time>2020-12-31T12:37:55Z</time>
      </trkpt>
      <trkpt lat="43.65238" lon="3.81977">
        <ele>76</ele>
        <time>2020-12-31T12:37:56Z</time>
      </trkpt>
      <trkpt lat="43.65234" lon="3.81979">
        <ele>74.7</ele>
        <time>2020-12-31T12:37:57Z</time>
      </trkpt>
      <trkpt lat="43.65231" lon="3.81981">
        <ele>74.7</ele>
        <time>2020-12-31T12:37:58Z</time>
      </trkpt>
      <trkpt lat="43.65227" lon="3.81983">
        <ele>74.8</ele>
        <time>2020-12-31T12:37:59Z</time>
      </trkpt>
      <trkpt lat="43.65223" lon="3.81986">
        <ele>75</ele>
        <time>2020-12-31T12:38:00Z</time>
      </trkpt>
      <trkpt lat="43.6522" lon="3.81988">
        <ele>75.1</ele>
        <time>2020-12-31T12:38:01Z</time>
      </trkpt>
      <trkpt lat="43.65216" lon="3.81991">
        <ele>75.3</ele>
        <time>2020-12-31T12:38:02Z</time>
      </trkpt>
      <trkpt lat="43.65212" lon="3.81993">
        <ele>75.3</ele>
        <time>2020-12-31T12:38:03Z</time>
      </trkpt>
      <trkpt lat="43.65208" lon="3.81995">
        <ele>75.3</ele>
        <time>2020-12-31T12:38:04Z</time>
      </trkpt>
      <trkpt lat="43.65205" lon="3.81998">
        <ele>75.3</ele>
        <time>2020-12-31T12:38:05Z</time>
      </trkpt>
      <trkpt lat="43.65201" lon="3.82">
        <ele>75.2</ele>
        <time>2020-12-31T12:38:07Z</time>
      </trkpt>
      <trkpt lat="43.65197" lon="3.82003">
        <ele>75.3</ele>
        <time>2020-12-31T12:38:08Z</time>
      </trkpt>
      <trkpt lat="43.65193" lon="3.82005">
        <ele>75.4</ele>
        <time>2020-12-31T12:38:09Z</time>
      </trkpt>
      <trkpt lat="43.6519" lon="3.82007">
        <ele>75.6</ele>
        <time>2020-12-31T12:38:10Z</time>
      </trkpt>
      <trkpt lat="43.65186" lon="3.8201">
        <ele>75.9</ele>
        <time>2020-12-31T12:38:11Z</time>
      </trkpt>
      <trkpt lat="43.65182" lon="3.82012">
        <ele>76.1</ele>
        <time>2020-12-31T12:38:12Z</time>
      </trkpt>
      <trkpt lat="43.65179" lon="3.82014">
        <ele>76.3</ele>
        <time>2020-12-31T12:38:13Z</time>
      </trkpt>
      <trkpt lat="43.65175" lon="3.82016">
        <ele>76.4</ele>
        <time>2020-12-31T12:38:14Z</time>
      </trkpt>
      <trkpt lat="43.65171" lon="3.82018">
        <ele>76.6</ele>
        <time>2020-12-31T12:38:15Z</time>
      </trkpt>
      <trkpt lat="43.65168" lon="3.82019">
        <ele>77</ele>
        <time>2020-12-31T12:38:16Z</time>
      </trkpt>
      <trkpt lat="43.65164" lon="3.82021">
        <ele>76.8</ele>
        <time>2020-12-31T12:38:17Z</time>
      </trkpt>
      <trkpt lat="43.6516" lon="3.82022">
        <ele>76.8</ele>
        <time>2020-12-31T12:38:18Z</time>
      </trkpt>
      <trkpt lat="43.65157" lon="3.82023">
        <ele>76.9</ele>
        <time>2020-12-31T12:38:19Z</time>
      </trkpt>
      <trkpt lat="43.65153" lon="3.82024">
        <ele>76.9</ele>
        <time>2020-12-31T12:38:20Z</time>
      </trkpt>
      <trkpt lat="43.65149" lon="3.82025">
        <ele>77</ele>
        <time>2020-12-31T12:38:21Z</time>
      </trkpt>
      <trkpt lat="43.65146" lon="3.82027">
        <ele>77</ele>
        <time>2020-12-31T12:38:22Z</time>
      </trkpt>
      <trkpt lat="43.65143" lon="3.82028">
        <ele>77</ele>
        <time>2020-12-31T12:38:23Z</time>
      </trkpt>
      <trkpt lat="43.6514" lon="3.8203">
        <ele>77.2</ele>
        <time>2020-12-31T12:38:24Z</time>
      </trkpt>
      <trkpt lat="43.65137" lon="3.82032">
        <ele>77.4</ele>
        <time>2020-12-31T12:38:25Z</time>
      </trkpt>
      <trkpt lat="43.65134" lon="3.82033">
        <ele>78</ele>
        <time>2020-12-31T12:38:26Z</time>
      </trkpt>
      <trkpt lat="43.65131" lon="3.82035">
        <ele>77.7</ele>
        <time>2020-12-31T12:38:27Z</time>
      </trkpt>
      <trkpt lat="43.65128" lon="3.82037">
        <ele>77.9</ele>
        <time>2020-12-31T12:38:28Z</time>
      </trkpt>
      <trkpt lat="43.65125" lon="3.82038">
        <ele>78.1</ele>
        <time>2020-12-31T12:38:29Z</time>
      </trkpt>
      <trkpt lat="43.65123" lon="3.8204">
        <ele>78.2</ele>
        <time>2020-12-31T12:38:30Z</time>
      </trkpt>
      <trkpt lat="43.6512" lon="3.82041">
        <ele>78.3</ele>
        <time>2020-12-31T12:38:31Z</time>
      </trkpt>
      <trkpt lat="43.65118" lon="3.82043">
        <ele>78.4</ele>
        <time>2020-12-31T12:38:32Z</time>
      </trkpt>
      <trkpt lat="43.65115" lon="3.82044">
        <ele>78.5</ele>
        <time>2020-12-31T12:38:33Z</time>
      </trkpt>
      <trkpt lat="43.65113" lon="3.82045">
        <ele>78.6</ele>
        <time>2020-12-31T12:38:34Z</time>
      </trkpt>
      <trkpt lat="43.6511" lon="3.82046">
        <ele>78.7</ele>
        <time>2020-12-31T12:38:35Z</time>
      </trkpt>
      <trkpt lat="43.65107" lon="3.82047">
        <ele>79</ele>
        <time>2020-12-31T12:38:36Z</time>
      </trkpt>
      <trkpt lat="43.65105" lon="3.82048">
        <ele>78.9</ele>
        <time>2020-12-31T12:38:37Z</time>
      </trkpt>
      <trkpt lat="43.65102" lon="3.8205">
        <ele>79.1</ele>
        <time>2020-12-31T12:38:38Z</time>
      </trkpt>
      <trkpt lat="43.651" lon="3.82052">
        <ele>79.3</ele>
        <time>2020-12-31T12:38:39Z</time>
      </trkpt>
      <trkpt lat="43.65097" lon="3.82054">
        <ele>79.5</ele>
        <time>2020-12-31T12:38:40Z</time>
      </trkpt>
      <trkpt lat="43.65095" lon="3.82055">
        <ele>79.6</ele>
        <time>2020-12-31T12:38:41Z</time>
      </trkpt>
      <trkpt lat="43.65092" lon="3.82056">
        <ele>79.7</ele>
        <time>2020-12-31T12:38:42Z</time>
      </trkpt>
      <trkpt lat="43.65089" lon="3.82058">
        <ele>80</ele>
        <time>2020-12-31T12:38:43Z</time>
      </trkpt>
      <trkpt lat="43.65086" lon="3.82059">
        <ele>80.1</ele>
        <time>2020-12-31T12:38:44Z</time>
      </trkpt>
      <trkpt lat="43.65084" lon="3.8206">
        <ele>80.3</ele>
        <time>2020-12-31T12:38:45Z</time>
      </trkpt>
      <trkpt lat="43.65079" lon="3.82064">
        <ele>81</ele>
        <time>2020-12-31T12:38:46Z</time>
      </trkpt>
      <trkpt lat="43.65076" lon="3.82066">
        <ele>81.1</ele>
        <time>2020-12-31T12:38:47Z</time>
      </trkpt>
      <trkpt lat="43.65074" lon="3.82068">
        <ele>81.3</ele>
        <time>2020-12-31T12:38:48Z</time>
      </trkpt>
      <trkpt lat="43.65072" lon="3.82069">
        <ele>81.4</ele>
        <time>2020-12-31T12:38:49Z</time>
      </trkpt>
      <trkpt lat="43.6507" lon="3.82071">
        <ele>81.5</ele>
        <time>2020-12-31T12:38:50Z</time>
      </trkpt>
      <trkpt lat="43.65068" lon="3.82073">
        <ele>81.7</ele>
        <time>2020-12-31T12:38:51Z</time>
      </trkpt>
      <trkpt lat="43.65066" lon="3.82075">
        <ele>81.8</ele>
        <time>2020-12-31T12:38:52Z</time>
      </trkpt>
      <trkpt lat="43.65063" lon="3.82077">
        <ele>81.9</ele>
        <time>2020-12-31T12:38:53Z</time>
      </trkpt>
      <trkpt lat="43.65061" lon="3.82079">
        <ele>81.9</ele>
        <time>2020-12-31T12:38:54Z</time>
      </trkpt>
      <trkpt lat="43.65059" lon="3.8208">
        <ele>82</ele>
        <time>2020-12-31T12:38:55Z</time>
      </trkpt>
      <trkpt lat="43.65056" lon="3.82081">
        <ele>82</ele>
        <time>2020-12-31T12:38:57Z</time>
      </trkpt>
      <trkpt lat="43.65054" lon="3.82082">
        <ele>82.1</ele>
        <time>2020-12-31T12:38:58Z</time>
      </trkpt>
      <trkpt lat="43.65052" lon="3.82084">
        <ele>82.2</ele>
        <time>2020-12-31T12:38:59Z</time>
      </trkpt>
      <trkpt lat="43.65049" lon="3.82085">
        <ele>82.3</ele>
        <time>2020-12-31T12:39:00Z</time>
      </trkpt>
      <trkpt lat="43.65047" lon="3.82087">
        <ele>82.4</ele>
        <time>2020-12-31T12:39:01Z</time>
      </trkpt>
      <trkpt lat="43.65045" lon="3.82088">
        <ele>82.5</ele>
        <time>2020-12-31T12:39:02Z</time>
      </trkpt>
      <trkpt lat="43.65043" lon="3.8209">
        <ele>82.7</ele>
        <time>2020-12-31T12:39:03Z</time>
      </trkpt>
      <trkpt lat="43.65041" lon="3.82092">
        <ele>82.8</ele>
        <time>2020-12-31T12:39:04Z</time>
      </trkpt>
      <trkpt lat="43.6504" lon="3.82094">
        <ele>82.9</ele>
        <time>2020-12-31T12:39:05Z</time>
      </trkpt>
      <trkpt lat="43.65038" lon="3.82096">
        <ele>85</ele>
        <time>2020-12-31T12:39:06Z</time>
      </trkpt>
      <trkpt lat="43.65036" lon="3.82099">
        <ele>83.3</ele>
        <time>2020-12-31T12:39:07Z</time>
      </trkpt>
      <trkpt lat="43.65034" lon="3.82101">
        <ele>83.4</ele>
        <time>2020-12-31T12:39:08Z</time>
      </trkpt>
      <trkpt lat="43.65032" lon="3.82103">
        <ele>83.6</ele>
        <time>2020-12-31T12:39:09Z</time>
      </trkpt>
      <trkpt lat="43.65031" lon="3.82106">
        <ele>83.7</ele>
        <time>2020-12-31T12:39:10Z</time>
      </trkpt>
      <trkpt lat="43.65029" lon="3.82108">
        <ele>83.8</ele>
        <time>2020-12-31T12:39:11Z</time>
      </trkpt>
      <trkpt lat="43.65027" lon="3.82111">
        <ele>84</ele>
        <time>2020-12-31T12:39:12Z</time>
      </trkpt>
      <trkpt lat="43.65025" lon="3.82113">
        <ele>84.1</ele>
        <time>2020-12-31T12:39:13Z</time>
      </trkpt>
      <trkpt lat="43.65024" lon="3.82115">
        <ele>84.1</ele>
        <time>2020-12-31T12:39:14Z</time>
      </trkpt>
      <trkpt lat="43.65022" lon="3.82117">
        <ele>84.2</ele>
        <time>2020-12-31T12:39:15Z</time>
      </trkpt>
      <trkpt lat="43.6502" lon="3.8212">
        <ele>86</ele>
        <time>2020-12-31T12:39:16Z</time>
      </trkpt>
      <trkpt lat="43.65018" lon="3.82122">
        <ele>84.2</ele>
        <time>2020-12-31T12:39:17Z</time>
      </trkpt>
      <trkpt lat="43.65016" lon="3.82124">
        <ele>84.2</ele>
        <time>2020-12-31T12:39:18Z</time>
      </trkpt>
      <trkpt lat="43.65014" lon="3.82127">
        <ele>84.2</ele>
        <time>2020-12-31T12:39:19Z</time>
      </trkpt>
      <trkpt lat="43.65012" lon="3.82129">
        <ele>84.2</ele>
        <time>2020-12-31T12:39:20Z</time>
      </trkpt>
      <trkpt lat="43.6501" lon="3.82131">
        <ele>84.2</ele>
        <time>2020-12-31T12:39:21Z</time>
      </trkpt>
      <trkpt lat="43.65008" lon="3.82133">
        <ele>84.2</ele>
        <time>2020-12-31T12:39:22Z</time>
      </trkpt>
      <trkpt lat="43.65006" lon="3.82135">
        <ele>84.1</ele>
        <time>2020-12-31T12:39:23Z</time>
      </trkpt>
      <trkpt lat="43.65004" lon="3.82136">
        <ele>84.1</ele>
        <time>2020-12-31T12:39:24Z</time>
      </trkpt>
      <trkpt lat="43.65002" lon="3.82138">
        <ele>84</ele>
        <time>2020-12-31T12:39:25Z</time>
      </trkpt>
      <trkpt lat="43.65" lon="3.82139">
        <ele>87</ele>
        <time>2020-12-31T12:39:26Z</time>
      </trkpt>
      <trkpt lat="43.64998" lon="3.82141">
        <ele>84</ele>
        <time>2020-12-31T12:39:27Z</time>
      </trkpt>
      <trkpt lat="43.64996" lon="3.82144">
        <ele>84.1</ele>
        <time>2020-12-31T12:39:28Z</time>
      </trkpt>
      <trkpt lat="43.64993" lon="3.82146">
        <ele>84.1</ele>
        <time>2020-12-31T12:39:29Z</time>
      </trkpt>
      <trkpt lat="43.64991" lon="3.82149">
        <ele>84.2</ele>
        <time>2020-12-31T12:39:30Z</time>
      </trkpt>
      <trkpt lat="43.64989" lon="3.82152">
        <ele>84.3</ele>
        <time>2020-12-31T12:39:31Z</time>
      </trkpt>
      <trkpt lat="43.64987" lon="3.82156">
        <ele>84.4</ele>
        <time>2020-12-31T12:39:32Z</time>
      </trkpt>
      <trkpt lat="43.64984" lon="3.82159">
        <ele>84.6</ele>
        <time>2020-12-31T12:39:33Z</time>
      </trkpt>
      <trkpt lat="43.64982" lon="3.82161">
        <ele>84.7</ele>
        <time>2020-12-31T12:39:34Z</time>
      </trkpt>
      <trkpt lat="43.64979" lon="3.82164">
        <ele>84.8</ele>
        <time>2020-12-31T12:39:35Z</time>
      </trkpt>
      <trkpt lat="43.64977" lon="3.82166">
        <ele>88</ele>
        <time>2020-12-31T12:39:36Z</time>
      </trkpt>
      <trkpt lat="43.64975" lon="3.82168">
        <ele>85.1</ele>
        <time>2020-12-31T12:39:37Z</time>
      </trkpt>
      <trkpt lat="43.64972" lon="3.8217">
        <ele>85.1</ele>
        <time>2020-12-31T12:39:38Z</time>
      </trkpt>
      <trkpt lat="43.6497" lon="3.82172">
        <ele>85</ele>
        <time>2020-12-31T12:39:39Z</time>
      </trkpt>
      <trkpt lat="43.64967" lon="3.82175">
        <ele>85</ele>
        <time>2020-12-31T12:39:40Z</time>
      </trkpt>
      <trkpt lat="43.64964" lon="3.82177">
        <ele>84.9</ele>
        <time>2020-12-31T12:39:41Z</time>
      </trkpt>
      <trkpt lat="43.64961" lon="3.8218">
        <ele>84.9</ele>
        <time>2020-12-31T12:39:42Z</time>
      </trkpt>
      <trkpt lat="43.64959" lon="3.82182">
        <ele>84.9</ele>
        <time>2020-12-31T12:39:43Z</time>
      </trkpt>
      <trkpt lat="43.64956" lon="3.82184">
        <ele>84.8</ele>
        <time>2020-12-31T12:39:44Z</time>
      </trkpt>
      <trkpt lat="43.64953" lon="3.82187">
        <ele>84.9</ele>
        <time>2020-12-31T12:39:45Z</time>
      </trkpt>
      <trkpt lat="43.6495" lon="3.82189">
        <ele>88</ele>
        <time>2020-12-31T12:39:46Z</time>
      </trkpt>
      <trkpt lat="43.64947" lon="3.82191">
        <ele>84.9</ele>
        <time>2020-12-31T12:39:47Z</time>
      </trkpt>
      <trkpt lat="43.64944" lon="3.82193">
        <ele>84.9</ele>
        <time>2020-12-31T12:39:48Z</time>
      </trkpt>
      <trkpt lat="43.64941" lon="3.82195">
        <ele>84.8</ele>
        <time>2020-12-31T12:39:49Z</time>
      </trkpt>
      <trkpt lat="43.64938" lon="3.82196">
        <ele>84.6</ele>
        <time>2020-12-31T12:39:50Z</time>
      </trkpt>
      <trkpt lat="43.64935" lon="3.82198">
        <ele>84.5</ele>
        <time>2020-12-31T12:39:51Z</time>
      </trkpt>
      <trkpt lat="43.64932" lon="3.822">
        <ele>84.4</ele>
        <time>2020-12-31T12:39:52Z</time>
      </trkpt>
      <trkpt lat="43.64929" lon="3.82202">
        <ele>84.3</ele>
        <time>2020-12-31T12:39:53Z</time>
      </trkpt>
      <trkpt lat="43.64926" lon="3.82204">
        <ele>84.2</ele>
        <time>2020-12-31T12:39:54Z</time>
      </trkpt>
      <trkpt lat="43.64922" lon="3.82206">
        <ele>84.1</ele>
        <time>2020-12-31T12:39:55Z</time>
      </trkpt>
      <trkpt lat="43.64916" lon="3.8221">
        <ele>88</ele>
        <time>2020-12-31T12:39:56Z</time>
      </trkpt>
      <trkpt lat="43.64913" lon="3.82211">
        <ele>84.1</ele>
        <time>2020-12-31T12:39:57Z</time>
      </trkpt>
      <trkpt lat="43.6491" lon="3.82213">
        <ele>84.3</ele>
        <time>2020-12-31T12:39:58Z</time>
      </trkpt>
      <trkpt lat="43.64906" lon="3.82215">
        <ele>84.4</ele>
        <time>2020-12-31T12:39:59Z</time>
      </trkpt>
      <trkpt lat="43.64903" lon="3.82217">
        <ele>84.5</ele>
        <time>2020-12-31T12:40:00Z</time>
      </trkpt>
      <trkpt lat="43.649" lon="3.82219">
        <ele>84.7</ele>
        <time>2020-12-31T12:40:01Z</time>
      </trkpt>
      <trkpt lat="43.64897" lon="3.82221">
        <ele>84.9</ele>
        <time>2020-12-31T12:40:02Z</time>
      </trkpt>
      <trkpt lat="43.64894" lon="3.82223">
        <ele>85</ele>
        <time>2020-12-31T12:40:03Z</time>
      </trkpt>
      <trkpt lat="43.6489" lon="3.82225">
        <ele>85</ele>
        <time>2020-12-31T12:40:04Z</time>
      </trkpt>
      <trkpt lat="43.64887" lon="3.82227">
        <ele>84.9</ele>
        <time>2020-12-31T12:40:05Z</time>
      </trkpt>
      <trkpt lat="43.64884" lon="3.82229">
        <ele>84.7</ele>
        <time>2020-12-31T12:40:07Z</time>
      </trkpt>
      <trkpt lat="43.64881" lon="3.82231">
        <ele>84.6</ele>
        <time>2020-12-31T12:40:08Z</time>
      </trkpt>
      <trkpt lat="43.64878" lon="3.82233">
        <ele>84.5</ele>
        <time>2020-12-31T12:40:09Z</time>
      </trkpt>
      <trkpt lat="43.64874" lon="3.82236">
        <ele>84.5</ele>
        <time>2020-12-31T12:40:10Z</time>
      </trkpt>
      <trkpt lat="43.64871" lon="3.82238">
        <ele>84.4</ele>
        <time>2020-12-31T12:40:11Z</time>
      </trkpt>
      <trkpt lat="43.64868" lon="3.82241">
        <ele>84.5</ele>
        <time>2020-12-31T12:40:12Z</time>
      </trkpt>
      <trkpt lat="43.64865" lon="3.82244">
        <ele>84.6</ele>
        <time>2020-12-31T12:40:13Z</time>
      </trkpt>
      <trkpt lat="43.64862" lon="3.82246">
        <ele>84.7</ele>
        <time>2020-12-31T12:40:14Z</time>
      </trkpt>
      <trkpt lat="43.64859" lon="3.82249">
        <ele>84.9</ele>
        <time>2020-12-31T12:40:15Z</time>
      </trkpt>
      <trkpt lat="43.64857" lon="3.82252">
        <ele>88</ele>
        <time>2020-12-31T12:40:16Z</time>
      </trkpt>
      <trkpt lat="43.64854" lon="3.82255">
        <ele>84.9</ele>
        <time>2020-12-31T12:40:17Z</time>
      </trkpt>
      <trkpt lat="43.64851" lon="3.82257">
        <ele>84.9</ele>
        <time>2020-12-31T12:40:18Z</time>
      </trkpt>
      <trkpt lat="43.64848" lon="3.8226">
        <ele>84.9</ele>
        <time>2020-12-31T12:40:19Z</time>
      </trkpt>
      <trkpt lat="43.64845" lon="3.82263">
        <ele>84.9</ele>
        <time>2020-12-31T12:40:20Z</time>
      </trkpt>
      <trkpt lat="43.64842" lon="3.82265">
        <ele>84.9</ele>
        <time>2020-12-31T12:40:21Z</time>
      </trkpt>
      <trkpt lat="43.6484" lon="3.82268">
        <ele>84.9</ele>
        <time>2020-12-31T12:40:22Z</time>
      </trkpt>
      <trkpt lat="43.64837" lon="3.8227">
        <ele>84.9</ele>
        <time>2020-12-31T12:40:23Z</time>
      </trkpt>
      <trkpt lat="43.64834" lon="3.82273">
        <ele>84.9</ele>
        <time>2020-12-31T12:40:24Z</time>
      </trkpt>
      <trkpt lat="43.64831" lon="3.82275">
        <ele>84.9</ele>
        <time>2020-12-31T12:40:25Z</time>
      </trkpt>
      <trkpt lat="43.64829" lon="3.82277">
        <ele>89</ele>
        <time>2020-12-31T12:40:26Z</time>
      </trkpt>
      <trkpt lat="43.64826" lon="3.8228">
        <ele>85.2</ele>
        <time>2020-12-31T12:40:27Z</time>
      </trkpt>
      <trkpt lat="43.64823" lon="3.82282">
        <ele>85.3</ele>
        <time>2020-12-31T12:40:28Z</time>
      </trkpt>
      <trkpt lat="43.64821" lon="3.82285">
        <ele>85.5</ele>
        <time>2020-12-31T12:40:29Z</time>
      </trkpt>
      <trkpt lat="43.64819" lon="3.82287">
        <ele>85.7</ele>
        <time>2020-12-31T12:40:30Z</time>
      </trkpt>
      <trkpt lat="43.64816" lon="3.82289">
        <ele>85.8</ele>
        <time>2020-12-31T12:40:31Z</time>
      </trkpt>
      <trkpt lat="43.64814" lon="3.82292">
        <ele>86</ele>
        <time>2020-12-31T12:40:32Z</time>
      </trkpt>
      <trkpt lat="43.64811" lon="3.82294">
        <ele>86.2</ele>
        <time>2020-12-31T12:40:33Z</time>
      </trkpt>
      <trkpt lat="43.64809" lon="3.82296">
        <ele>86.3</ele>
        <time>2020-12-31T12:40:34Z</time>
      </trkpt>
      <trkpt lat="43.64806" lon="3.82298">
        <ele>86.5</ele>
        <time>2020-12-31T12:40:35Z</time>
      </trkpt>
      <trkpt lat="43.64804" lon="3.823">
        <ele>89</ele>
        <time>2020-12-31T12:40:36Z</time>
      </trkpt>
      <trkpt lat="43.64802" lon="3.82302">
        <ele>86.6</ele>
        <time>2020-12-31T12:40:37Z</time>
      </trkpt>
      <trkpt lat="43.64799" lon="3.82304">
        <ele>86.7</ele>
        <time>2020-12-31T12:40:38Z</time>
      </trkpt>
      <trkpt lat="43.64797" lon="3.82306">
        <ele>86.8</ele>
        <time>2020-12-31T12:40:39Z</time>
      </trkpt>
      <trkpt lat="43.64795" lon="3.82308">
        <ele>87.1</ele>
        <time>2020-12-31T12:40:40Z</time>
      </trkpt>
      <trkpt lat="43.64793" lon="3.82309">
        <ele>87.3</ele>
        <time>2020-12-31T12:40:41Z</time>
      </trkpt>
      <trkpt lat="43.6479" lon="3.8231">
        <ele>87.4</ele>
        <time>2020-12-31T12:40:42Z</time>
      </trkpt>
      <trkpt lat="43.64788" lon="3.82312">
        <ele>87.8</ele>
        <time>2020-12-31T12:40:43Z</time>
      </trkpt>
      <trkpt lat="43.64785" lon="3.82314">
        <ele>88.2</ele>
        <time>2020-12-31T12:40:44Z</time>
      </trkpt>
      <trkpt lat="43.64783" lon="3.82315">
        <ele>88.4</ele>
        <time>2020-12-31T12:40:45Z</time>
      </trkpt>
      <trkpt lat="43.6478" lon="3.82317">
        <ele>90</ele>
        <time>2020-12-31T12:40:46Z</time>
      </trkpt>
      <trkpt lat="43.64778" lon="3.82318">
        <ele>89.1</ele>
        <time>2020-12-31T12:40:47Z</time>
      </trkpt>
      <trkpt lat="43.64775" lon="3.82319">
        <ele>89.3</ele>
        <time>2020-12-31T12:40:48Z</time>
      </trkpt>
      <trkpt lat="43.64773" lon="3.8232">
        <ele>89.6</ele>
        <time>2020-12-31T12:40:49Z</time>
      </trkpt>
      <trkpt lat="43.64768" lon="3.82321">
        <ele>89.7</ele>
        <time>2020-12-31T12:40:50Z</time>
      </trkpt>
      <trkpt lat="43.64765" lon="3.82322">
        <ele>89.9</ele>
        <time>2020-12-31T12:40:52Z</time>
      </trkpt>
      <trkpt lat="43.64763" lon="3.82323">
        <ele>90.1</ele>
        <time>2020-12-31T12:40:53Z</time>
      </trkpt>
      <trkpt lat="43.6476" lon="3.82323">
        <ele>90</ele>
        <time>2020-12-31T12:40:54Z</time>
      </trkpt>
      <trkpt lat="43.64758" lon="3.82324">
        <ele>90.2</ele>
        <time>2020-12-31T12:40:55Z</time>
      </trkpt>
      <trkpt lat="43.64755" lon="3.82325">
        <ele>89</ele>
        <time>2020-12-31T12:40:56Z</time>
      </trkpt>
      <trkpt lat="43.64753" lon="3.82325">
        <ele>90.3</ele>
        <time>2020-12-31T12:40:57Z</time>
      </trkpt>
      <trkpt lat="43.64751" lon="3.82326">
        <ele>90.4</ele>
        <time>2020-12-31T12:40:58Z</time>
      </trkpt>
      <trkpt lat="43.64748" lon="3.82327">
        <ele>90.6</ele>
        <time>2020-12-31T12:40:59Z</time>
      </trkpt>
      <trkpt lat="43.64746" lon="3.82327">
        <ele>90.6</ele>
        <time>2020-12-31T12:41:00Z</time>
      </trkpt>
      <trkpt lat="43.64743" lon="3.82328">
        <ele>90.7</ele>
        <time>2020-12-31T12:41:01Z</time>
      </trkpt>
      <trkpt lat="43.64741" lon="3.82328">
        <ele>90.7</ele>
        <time>2020-12-31T12:41:02Z</time>
      </trkpt>
      <trkpt lat="43.64738" lon="3.82329">
        <ele>90.8</ele>
        <time>2020-12-31T12:41:03Z</time>
      </trkpt>
      <trkpt lat="43.64736" lon="3.82329">
        <ele>90.8</ele>
        <time>2020-12-31T12:41:04Z</time>
      </trkpt>
      <trkpt lat="43.64733" lon="3.8233">
        <ele>90.9</ele>
        <time>2020-12-31T12:41:05Z</time>
      </trkpt>
      <trkpt lat="43.64731" lon="3.8233">
        <ele>90</ele>
        <time>2020-12-31T12:41:06Z</time>
      </trkpt>
      <trkpt lat="43.64729" lon="3.82331">
        <ele>90.9</ele>
        <time>2020-12-31T12:41:07Z</time>
      </trkpt>
      <trkpt lat="43.64727" lon="3.82331">
        <ele>90.9</ele>
        <time>2020-12-31T12:41:08Z</time>
      </trkpt>
      <trkpt lat="43.64725" lon="3.82332">
        <ele>90.9</ele>
        <time>2020-12-31T12:41:09Z</time>
      </trkpt>
      <trkpt lat="43.64722" lon="3.82332">
        <ele>90.9</ele>
        <time>2020-12-31T12:41:10Z</time>
      </trkpt>
      <trkpt lat="43.6472" lon="3.82333">
        <ele>91.1</ele>
        <time>2020-12-31T12:41:11Z</time>
      </trkpt>
      <trkpt lat="43.64718" lon="3.82333">
        <ele>91.3</ele>
        <time>2020-12-31T12:41:12Z</time>
      </trkpt>
      <trkpt lat="43.64716" lon="3.82334">
        <ele>91.7</ele>
        <time>2020-12-31T12:41:13Z</time>
      </trkpt>
      <trkpt lat="43.64713" lon="3.82334">
        <ele>91.9</ele>
        <time>2020-12-31T12:41:14Z</time>
      </trkpt>
      <trkpt lat="43.6471" lon="3.82334">
        <ele>92.1</ele>
        <time>2020-12-31T12:41:15Z</time>
      </trkpt>
      <trkpt lat="43.64707" lon="3.82335">
        <ele>90</ele>
        <time>2020-12-31T12:41:16Z</time>
      </trkpt>
      <trkpt lat="43.64704" lon="3.82334">
        <ele>92.5</ele>
        <time>2020-12-31T12:41:17Z</time>
      </trkpt>
      <trkpt lat="43.64701" lon="3.82333">
        <ele>92.5</ele>
        <time>2020-12-31T12:41:18Z</time>
      </trkpt>
      <trkpt lat="43.64698" lon="3.82332">
        <ele>92.6</ele>
        <time>2020-12-31T12:41:19Z</time>
      </trkpt>
      <trkpt lat="43.64695" lon="3.82331">
        <ele>92.7</ele>
        <time>2020-12-31T12:41:20Z</time>
      </trkpt>
      <trkpt lat="43.64692" lon="3.82329">
        <ele>92.9</ele>
        <time>2020-12-31T12:41:21Z</time>
      </trkpt>
      <trkpt lat="43.64689" lon="3.82327">
        <ele>93.1</ele>
        <time>2020-12-31T12:41:22Z</time>
      </trkpt>
      <trkpt lat="43.64687" lon="3.82325">
        <ele>93.3</ele>
        <time>2020-12-31T12:41:23Z</time>
      </trkpt>
      <trkpt lat="43.64684" lon="3.82322">
        <ele>93.4</ele>
        <time>2020-12-31T12:41:24Z</time>
      </trkpt>
      <trkpt lat="43.64682" lon="3.82321">
        <ele>93.7</ele>
        <time>2020-12-31T12:41:25Z</time>
      </trkpt>
      <trkpt lat="43.64679" lon="3.82319">
        <ele>91</ele>
        <time>2020-12-31T12:41:26Z</time>
      </trkpt>
      <trkpt lat="43.64676" lon="3.82318">
        <ele>94.4</ele>
        <time>2020-12-31T12:41:27Z</time>
      </trkpt>
      <trkpt lat="43.64674" lon="3.82318">
        <ele>94.7</ele>
        <time>2020-12-31T12:41:28Z</time>
      </trkpt>
      <trkpt lat="43.64671" lon="3.82319">
        <ele>95.3</ele>
        <time>2020-12-31T12:41:29Z</time>
      </trkpt>
      <trkpt lat="43.64668" lon="3.82319">
        <ele>95.8</ele>
        <time>2020-12-31T12:41:30Z</time>
      </trkpt>
      <trkpt lat="43.64665" lon="3.8232">
        <ele>96.2</ele>
        <time>2020-12-31T12:41:31Z</time>
      </trkpt>
      <trkpt lat="43.64663" lon="3.8232">
        <ele>96.4</ele>
        <time>2020-12-31T12:41:32Z</time>
      </trkpt>
      <trkpt lat="43.6466" lon="3.82321">
        <ele>96.7</ele>
        <time>2020-12-31T12:41:33Z</time>
      </trkpt>
      <trkpt lat="43.64658" lon="3.82323">
        <ele>96.9</ele>
        <time>2020-12-31T12:41:34Z</time>
      </trkpt>
      <trkpt lat="43.64656" lon="3.82324">
        <ele>97.1</ele>
        <time>2020-12-31T12:41:35Z</time>
      </trkpt>
      <trkpt lat="43.64654" lon="3.82326">
        <ele>93</ele>
        <time>2020-12-31T12:41:36Z</time>
      </trkpt>
      <trkpt lat="43.64652" lon="3.82327">
        <ele>97.4</ele>
        <time>2020-12-31T12:41:37Z</time>
      </trkpt>
      <trkpt lat="43.6465" lon="3.82328">
        <ele>97.6</ele>
        <time>2020-12-31T12:41:38Z</time>
      </trkpt>
      <trkpt lat="43.64648" lon="3.82328">
        <ele>97.7</ele>
        <time>2020-12-31T12:41:39Z</time>
      </trkpt>
      <trkpt lat="43.64645" lon="3.82328">
        <ele>97.8</ele>
        <time>2020-12-31T12:41:40Z</time>
      </trkpt>
      <trkpt lat="43.64643" lon="3.82328">
        <ele>98</ele>
        <time>2020-12-31T12:41:41Z</time>
      </trkpt>
      <trkpt lat="43.64641" lon="3.82328">
        <ele>98.1</ele>
        <time>2020-12-31T12:41:42Z</time>
      </trkpt>
      <trkpt lat="43.64639" lon="3.82329">
        <ele>98.2</ele>
        <time>2020-12-31T12:41:43Z</time>
      </trkpt>
      <trkpt lat="43.64637" lon="3.82329">
        <ele>98.3</ele>
        <time>2020-12-31T12:41:44Z</time>
      </trkpt>
      <trkpt lat="43.64634" lon="3.8233">
        <ele>98.5</ele>
        <time>2020-12-31T12:41:45Z</time>
      </trkpt>
      <trkpt lat="43.64632" lon="3.8233">
        <ele>96</ele>
        <time>2020-12-31T12:41:46Z</time>
      </trkpt>
      <trkpt lat="43.6463" lon="3.8233">
        <ele>98.8</ele>
        <time>2020-12-31T12:41:47Z</time>
      </trkpt>
      <trkpt lat="43.64628" lon="3.82331">
        <ele>98.9</ele>
        <time>2020-12-31T12:41:48Z</time>
      </trkpt>
      <trkpt lat="43.64626" lon="3.82331">
        <ele>99</ele>
        <time>2020-12-31T12:41:49Z</time>
      </trkpt>
      <trkpt lat="43.64624" lon="3.82331">
        <ele>99.2</ele>
        <time>2020-12-31T12:41:50Z</time>
      </trkpt>
      <trkpt lat="43.64622" lon="3.82331">
        <ele>99.3</ele>
        <time>2020-12-31T12:41:51Z</time>
      </trkpt>
      <trkpt lat="43.6462" lon="3.82331">
        <ele>99.4</ele>
        <time>2020-12-31T12:41:52Z</time>
      </trkpt>
      <trkpt lat="43.64618" lon="3.82331">
        <ele>99.6</ele>
        <time>2020-12-31T12:41:53Z</time>
      </trkpt>
      <trkpt lat="43.64616" lon="3.82331">
        <ele>99.7</ele>
        <time>2020-12-31T12:41:54Z</time>
      </trkpt>
      <trkpt lat="43.64614" lon="3.82331">
        <ele>99.9</ele>
        <time>2020-12-31T12:41:55Z</time>
      </trkpt>
      <trkpt lat="43.64613" lon="3.8233">
        <ele>98</ele>
        <time>2020-12-31T12:41:56Z</time>
      </trkpt>
      <trkpt lat="43.64611" lon="3.82329">
        <ele>100.2</ele>
        <time>2020-12-31T12:41:57Z</time>
      </trkpt>
      <trkpt lat="43.64607" lon="3.82328">
        <ele>100.2</ele>
        <time>2020-12-31T12:41:59Z</time>
      </trkpt>
      <trkpt lat="43.64605" lon="3.82328">
        <ele>100.2</ele>
        <time>2020-12-31T12:42:00Z</time>
      </trkpt>
      <trkpt lat="43.64603" lon="3.82328">
        <ele>100.2</ele>
        <time>2020-12-31T12:42:01Z</time>
      </trkpt>
      <trkpt lat="43.64601" lon="3.82328">
        <ele>100.3</ele>
        <time>2020-12-31T12:42:02Z</time>
      </trkpt>
      <trkpt lat="43.64599" lon="3.82327">
        <ele>100.3</ele>
        <time>2020-12-31T12:42:03Z</time>
      </trkpt>
      <trkpt lat="43.64597" lon="3.82327">
        <ele>100.3</ele>
        <time>2020-12-31T12:42:04Z</time>
      </trkpt>
      <trkpt lat="43.64595" lon="3.82327">
        <ele>100.4</ele>
        <time>2020-12-31T12:42:05Z</time>
      </trkpt>
      <trkpt lat="43.64593" lon="3.82326">
        <ele>99</ele>
        <time>2020-12-31T12:42:06Z</time>
      </trkpt>
      <trkpt lat="43.64591" lon="3.82326">
        <ele>100.5</ele>
        <time>2020-12-31T12:42:07Z</time>
      </trkpt>
      <trkpt lat="43.64589" lon="3.82326">
        <ele>100.5</ele>
        <time>2020-12-31T12:42:08Z</time>
      </trkpt>
      <trkpt lat="43.64586" lon="3.82326">
        <ele>100.5</ele>
        <time>2020-12-31T12:42:09Z</time>
      </trkpt>
      <trkpt lat="43.64584" lon="3.82326">
        <ele>100.5</ele>
        <time>2020-12-31T12:42:10Z</time>
      </trkpt>
      <trkpt lat="43.64582" lon="3.82326">
        <ele>100.5</ele>
        <time>2020-12-31T12:42:11Z</time>
      </trkpt>
      <trkpt lat="43.6458" lon="3.82325">
        <ele>100.6</ele>
        <time>2020-12-31T12:42:12Z</time>
      </trkpt>
      <trkpt lat="43.64578" lon="3.82324">
        <ele>100.7</ele>
        <time>2020-12-31T12:42:13Z</time>
      </trkpt>
      <trkpt lat="43.64576" lon="3.82323">
        <ele>100.7</ele>
        <time>2020-12-31T12:42:14Z</time>
      </trkpt>
      <trkpt lat="43.64574" lon="3.82323">
        <ele>100.7</ele>
        <time>2020-12-31T12:42:15Z</time>
      </trkpt>
      <trkpt lat="43.64572" lon="3.82322">
        <ele>100</ele>
        <time>2020-12-31T12:42:16Z</time>
      </trkpt>
      <trkpt lat="43.6457" lon="3.82321">
        <ele>100.9</ele>
        <time>2020-12-31T12:42:17Z</time>
      </trkpt>
      <trkpt lat="43.64568" lon="3.82321">
        <ele>100.9</ele>
        <time>2020-12-31T12:42:18Z</time>
      </trkpt>
      <trkpt lat="43.64566" lon="3.8232">
        <ele>101</ele>
        <time>2020-12-31T12:42:19Z</time>
      </trkpt>
      <trkpt lat="43.64564" lon="3.82319">
        <ele>101</ele>
        <time>2020-12-31T12:42:20Z</time>
      </trkpt>
      <trkpt lat="43.64563" lon="3.82318">
        <ele>101.1</ele>
        <time>2020-12-31T12:42:21Z</time>
      </trkpt>
      <trkpt lat="43.6456" lon="3.82316">
        <ele>101.2</ele>
        <time>2020-12-31T12:42:23Z</time>
      </trkpt>
      <trkpt lat="43.64556" lon="3.82315">
        <ele>101.3</ele>
        <time>2020-12-31T12:42:25Z</time>
      </trkpt>
      <trkpt lat="43.64554" lon="3.82315">
        <ele>102</ele>
        <time>2020-12-31T12:42:26Z</time>
      </trkpt>
      <trkpt lat="43.64552" lon="3.82314">
        <ele>101.3</ele>
        <time>2020-12-31T12:42:27Z</time>
      </trkpt>
      <trkpt lat="43.64551" lon="3.82314">
        <ele>101.3</ele>
        <time>2020-12-31T12:42:28Z</time>
      </trkpt>
      <trkpt lat="43.64549" lon="3.82313">
        <ele>101.3</ele>
        <time>2020-12-31T12:42:29Z</time>
      </trkpt>
      <trkpt lat="43.64546" lon="3.82312">
        <ele>101.3</ele>
        <time>2020-12-31T12:42:31Z</time>
      </trkpt>
      <trkpt lat="43.64543" lon="3.82312">
        <ele>101.2</ele>
        <time>2020-12-31T12:42:33Z</time>
      </trkpt>
      <trkpt lat="43.6454" lon="3.82312">
        <ele>101.1</ele>
        <time>2020-12-31T12:42:35Z</time>
      </trkpt>
      <trkpt lat="43.64537" lon="3.82311">
        <ele>101.1</ele>
        <time>2020-12-31T12:42:37Z</time>
      </trkpt>
      <trkpt lat="43.64534" lon="3.8231">
        <ele>101</ele>
        <time>2020-12-31T12:42:39Z</time>
      </trkpt>
      <trkpt lat="43.64531" lon="3.8231">
        <ele>100.9</ele>
        <time>2020-12-31T12:42:41Z</time>
      </trkpt>
      <trkpt lat="43.64528" lon="3.82309">
        <ele>100.9</ele>
        <time>2020-12-31T12:42:43Z</time>
      </trkpt>
      <trkpt lat="43.64525" lon="3.82308">
        <ele>100.8</ele>
        <time>2020-12-31T12:42:45Z</time>
      </trkpt>
      <trkpt lat="43.64522" lon="3.82307">
        <ele>100.8</ele>
        <time>2020-12-31T12:42:47Z</time>
      </trkpt>
      <trkpt lat="43.64518" lon="3.82306">
        <ele>100.6</ele>
        <time>2020-12-31T12:42:49Z</time>
      </trkpt>
      <trkpt lat="43.64516" lon="3.82305">
        <ele>100.6</ele>
        <time>2020-12-31T12:42:50Z</time>
      </trkpt>
      <trkpt lat="43.64514" lon="3.82305">
        <ele>100.5</ele>
        <time>2020-12-31T12:42:51Z</time>
      </trkpt>
      <trkpt lat="43.64512" lon="3.82304">
        <ele>100.4</ele>
        <time>2020-12-31T12:42:52Z</time>
      </trkpt>
      <trkpt lat="43.6451" lon="3.82303">
        <ele>100.3</ele>
        <time>2020-12-31T12:42:53Z</time>
      </trkpt>
      <trkpt lat="43.64508" lon="3.82303">
        <ele>100.2</ele>
        <time>2020-12-31T12:42:54Z</time>
      </trkpt>
      <trkpt lat="43.64506" lon="3.82301">
        <ele>100</ele>
        <time>2020-12-31T12:42:55Z</time>
      </trkpt>
      <trkpt lat="43.64502" lon="3.82299">
        <ele>102</ele>
        <time>2020-12-31T12:42:56Z</time>
      </trkpt>
      <trkpt lat="43.64499" lon="3.82296">
        <ele>99.3</ele>
        <time>2020-12-31T12:42:57Z</time>
      </trkpt>
      <trkpt lat="43.64495" lon="3.82292">
        <ele>98.8</ele>
        <time>2020-12-31T12:42:58Z</time>
      </trkpt>
      <trkpt lat="43.64492" lon="3.82289">
        <ele>98.6</ele>
        <time>2020-12-31T12:42:59Z</time>
      </trkpt>
      <trkpt lat="43.64488" lon="3.82287">
        <ele>98.4</ele>
        <time>2020-12-31T12:43:00Z</time>
      </trkpt>
      <trkpt lat="43.64485" lon="3.82286">
        <ele>98.3</ele>
        <time>2020-12-31T12:43:01Z</time>
      </trkpt>
      <trkpt lat="43.64482" lon="3.82285">
        <ele>98.2</ele>
        <time>2020-12-31T12:43:02Z</time>
      </trkpt>
      <trkpt lat="43.6448" lon="3.82285">
        <ele>98.1</ele>
        <time>2020-12-31T12:43:03Z</time>
      </trkpt>
      <trkpt lat="43.64477" lon="3.82286">
        <ele>98.1</ele>
        <time>2020-12-31T12:43:05Z</time>
      </trkpt>
      <trkpt lat="43.64475" lon="3.82288">
        <ele>101</ele>
        <time>2020-12-31T12:43:06Z</time>
      </trkpt>
      <trkpt lat="43.64472" lon="3.82289">
        <ele>98</ele>
        <time>2020-12-31T12:43:07Z</time>
      </trkpt>
      <trkpt lat="43.6447" lon="3.82289">
        <ele>98</ele>
        <time>2020-12-31T12:43:08Z</time>
      </trkpt>
      <trkpt lat="43.64467" lon="3.82287">
        <ele>98.1</ele>
        <time>2020-12-31T12:43:09Z</time>
      </trkpt>
      <trkpt lat="43.64465" lon="3.82284">
        <ele>98.1</ele>
        <time>2020-12-31T12:43:10Z</time>
      </trkpt>
      <trkpt lat="43.64463" lon="3.82279">
        <ele>98</ele>
        <time>2020-12-31T12:43:11Z</time>
      </trkpt>
      <trkpt lat="43.64461" lon="3.82276">
        <ele>98</ele>
        <time>2020-12-31T12:43:12Z</time>
      </trkpt>
      <trkpt lat="43.64458" lon="3.82274">
        <ele>98</ele>
        <time>2020-12-31T12:43:13Z</time>
      </trkpt>
      <trkpt lat="43.64454" lon="3.82273">
        <ele>98</ele>
        <time>2020-12-31T12:43:14Z</time>
      </trkpt>
      <trkpt lat="43.64451" lon="3.82271">
        <ele>98</ele>
        <time>2020-12-31T12:43:15Z</time>
      </trkpt>
      <trkpt lat="43.64448" lon="3.82269">
        <ele>98</ele>
        <time>2020-12-31T12:43:17Z</time>
      </trkpt>
      <trkpt lat="43.64445" lon="3.82266">
        <ele>98</ele>
        <time>2020-12-31T12:43:18Z</time>
      </trkpt>
      <trkpt lat="43.64442" lon="3.82263">
        <ele>98.1</ele>
        <time>2020-12-31T12:43:19Z</time>
      </trkpt>
      <trkpt lat="43.64439" lon="3.82261">
        <ele>98.2</ele>
        <time>2020-12-31T12:43:20Z</time>
      </trkpt>
      <trkpt lat="43.64436" lon="3.82258">
        <ele>98.2</ele>
        <time>2020-12-31T12:43:21Z</time>
      </trkpt>
      <trkpt lat="43.64433" lon="3.82255">
        <ele>98.1</ele>
        <time>2020-12-31T12:43:22Z</time>
      </trkpt>
      <trkpt lat="43.64431" lon="3.82253">
        <ele>98.1</ele>
        <time>2020-12-31T12:43:23Z</time>
      </trkpt>
      <trkpt lat="43.64428" lon="3.8225">
        <ele>98</ele>
        <time>2020-12-31T12:43:24Z</time>
      </trkpt>
      <trkpt lat="43.64425" lon="3.82246">
        <ele>98</ele>
        <time>2020-12-31T12:43:25Z</time>
      </trkpt>
      <trkpt lat="43.64423" lon="3.82241">
        <ele>101</ele>
        <time>2020-12-31T12:43:26Z</time>
      </trkpt>
      <trkpt lat="43.64421" lon="3.82237">
        <ele>98</ele>
        <time>2020-12-31T12:43:27Z</time>
      </trkpt>
      <trkpt lat="43.64417" lon="3.82237">
        <ele>98</ele>
        <time>2020-12-31T12:43:28Z</time>
      </trkpt>
      <trkpt lat="43.64413" lon="3.82239">
        <ele>98</ele>
        <time>2020-12-31T12:43:29Z</time>
      </trkpt>
      <trkpt lat="43.6441" lon="3.82242">
        <ele>98</ele>
        <time>2020-12-31T12:43:30Z</time>
      </trkpt>
      <trkpt lat="43.64407" lon="3.82246">
        <ele>98</ele>
        <time>2020-12-31T12:43:31Z</time>
      </trkpt>
      <trkpt lat="43.64403" lon="3.82249">
        <ele>98</ele>
        <time>2020-12-31T12:43:32Z</time>
      </trkpt>
      <trkpt lat="43.64399" lon="3.82252">
        <ele>98.1</ele>
        <time>2020-12-31T12:43:33Z</time>
      </trkpt>
      <trkpt lat="43.64395" lon="3.82254">
        <ele>98.1</ele>
        <time>2020-12-31T12:43:34Z</time>
      </trkpt>
      <trkpt lat="43.64391" lon="3.82256">
        <ele>98</ele>
        <time>2020-12-31T12:43:35Z</time>
      </trkpt>
      <trkpt lat="43.64387" lon="3.82258">
        <ele>100</ele>
        <time>2020-12-31T12:43:36Z</time>
      </trkpt>
      <trkpt lat="43.64382" lon="3.82259">
        <ele>98</ele>
        <time>2020-12-31T12:43:37Z</time>
      </trkpt>
      <trkpt lat="43.64378" lon="3.8226">
        <ele>98</ele>
        <time>2020-12-31T12:43:38Z</time>
      </trkpt>
      <trkpt lat="43.64373" lon="3.8226">
        <ele>98</ele>
        <time>2020-12-31T12:43:39Z</time>
      </trkpt>
      <trkpt lat="43.6437" lon="3.82263">
        <ele>98</ele>
        <time>2020-12-31T12:43:40Z</time>
      </trkpt>
      <trkpt lat="43.64367" lon="3.82267">
        <ele>98</ele>
        <time>2020-12-31T12:43:41Z</time>
      </trkpt>
      <trkpt lat="43.64364" lon="3.82271">
        <ele>98</ele>
        <time>2020-12-31T12:43:42Z</time>
      </trkpt>
      <trkpt lat="43.64361" lon="3.82272">
        <ele>98</ele>
        <time>2020-12-31T12:43:43Z</time>
      </trkpt>
      <trkpt lat="43.64357" lon="3.82271">
        <ele>98.2</ele>
        <time>2020-12-31T12:43:44Z</time>
      </trkpt>
      <trkpt lat="43.64354" lon="3.82272">
        <ele>98.3</ele>
        <time>2020-12-31T12:43:45Z</time>
      </trkpt>
      <trkpt lat="43.64351" lon="3.82274">
        <ele>101</ele>
        <time>2020-12-31T12:43:46Z</time>
      </trkpt>
      <trkpt lat="43.64348" lon="3.82277">
        <ele>98.5</ele>
        <time>2020-12-31T12:43:47Z</time>
      </trkpt>
      <trkpt lat="43.64346" lon="3.8228">
        <ele>98.5</ele>
        <time>2020-12-31T12:43:48Z</time>
      </trkpt>
      <trkpt lat="43.64343" lon="3.82284">
        <ele>98.4</ele>
        <time>2020-12-31T12:43:49Z</time>
      </trkpt>
      <trkpt lat="43.6434" lon="3.82289">
        <ele>98.4</ele>
        <time>2020-12-31T12:43:50Z</time>
      </trkpt>
      <trkpt lat="43.64338" lon="3.82293">
        <ele>98.3</ele>
        <time>2020-12-31T12:43:51Z</time>
      </trkpt>
      <trkpt lat="43.64337" lon="3.82299">
        <ele>98.1</ele>
        <time>2020-12-31T12:43:52Z</time>
      </trkpt>
      <trkpt lat="43.64335" lon="3.82304">
        <ele>98</ele>
        <time>2020-12-31T12:43:53Z</time>
      </trkpt>
      <trkpt lat="43.64333" lon="3.82309">
        <ele>98</ele>
        <time>2020-12-31T12:43:54Z</time>
      </trkpt>
      <trkpt lat="43.64332" lon="3.82314">
        <ele>98</ele>
        <time>2020-12-31T12:43:55Z</time>
      </trkpt>
      <trkpt lat="43.64331" lon="3.82319">
        <ele>101</ele>
        <time>2020-12-31T12:43:56Z</time>
      </trkpt>
      <trkpt lat="43.64329" lon="3.82324">
        <ele>97.9</ele>
        <time>2020-12-31T12:43:57Z</time>
      </trkpt>
      <trkpt lat="43.64327" lon="3.82329">
        <ele>97.8</ele>
        <time>2020-12-31T12:43:58Z</time>
      </trkpt>
      <trkpt lat="43.64326" lon="3.82334">
        <ele>97.7</ele>
        <time>2020-12-31T12:43:59Z</time>
      </trkpt>
      <trkpt lat="43.64324" lon="3.8234">
        <ele>97.3</ele>
        <time>2020-12-31T12:44:00Z</time>
      </trkpt>
      <trkpt lat="43.64323" lon="3.82345">
        <ele>97.1</ele>
        <time>2020-12-31T12:44:01Z</time>
      </trkpt>
      <trkpt lat="43.64321" lon="3.8235">
        <ele>96.9</ele>
        <time>2020-12-31T12:44:02Z</time>
      </trkpt>
      <trkpt lat="43.64318" lon="3.82354">
        <ele>96.8</ele>
        <time>2020-12-31T12:44:03Z</time>
      </trkpt>
      <trkpt lat="43.64315" lon="3.82359">
        <ele>96.7</ele>
        <time>2020-12-31T12:44:04Z</time>
      </trkpt>
      <trkpt lat="43.64312" lon="3.82362">
        <ele>96.7</ele>
        <time>2020-12-31T12:44:05Z</time>
      </trkpt>
      <trkpt lat="43.64309" lon="3.82366">
        <ele>102</ele>
        <time>2020-12-31T12:44:06Z</time>
      </trkpt>
      <trkpt lat="43.64308" lon="3.82372">
        <ele>96.6</ele>
        <time>2020-12-31T12:44:07Z</time>
      </trkpt>
      <trkpt lat="43.64307" lon="3.82379">
        <ele>96.3</ele>
        <time>2020-12-31T12:44:08Z</time>
      </trkpt>
      <trkpt lat="43.64306" lon="3.82385">
        <ele>96.1</ele>
        <time>2020-12-31T12:44:09Z</time>
      </trkpt>
      <trkpt lat="43.64304" lon="3.82389">
        <ele>96.1</ele>
        <time>2020-12-31T12:44:10Z</time>
      </trkpt>
      <trkpt lat="43.64301" lon="3.82391">
        <ele>96.2</ele>
        <time>2020-12-31T12:44:11Z</time>
      </trkpt>
      <trkpt lat="43.64299" lon="3.82392">
        <ele>96.3</ele>
        <time>2020-12-31T12:44:12Z</time>
      </trkpt>
      <trkpt lat="43.64297" lon="3.82392">
        <ele>96.5</ele>
        <time>2020-12-31T12:44:13Z</time>
      </trkpt>
      <trkpt lat="43.64294" lon="3.82394">
        <ele>96.6</ele>
        <time>2020-12-31T12:44:14Z</time>
      </trkpt>
      <trkpt lat="43.64291" lon="3.82397">
        <ele>96.6</ele>
        <time>2020-12-31T12:44:15Z</time>
      </trkpt>
      <trkpt lat="43.64288" lon="3.82401">
        <ele>101</ele>
        <time>2020-12-31T12:44:16Z</time>
      </trkpt>
      <trkpt lat="43.64285" lon="3.82405">
        <ele>96.5</ele>
        <time>2020-12-31T12:44:17Z</time>
      </trkpt>
      <trkpt lat="43.64282" lon="3.8241">
        <ele>96.3</ele>
        <time>2020-12-31T12:44:18Z</time>
      </trkpt>
      <trkpt lat="43.6428" lon="3.82415">
        <ele>96</ele>
        <time>2020-12-31T12:44:19Z</time>
      </trkpt>
      <trkpt lat="43.64278" lon="3.8242">
        <ele>95.8</ele>
        <time>2020-12-31T12:44:20Z</time>
      </trkpt>
      <trkpt lat="43.64275" lon="3.82425">
        <ele>95.6</ele>
        <time>2020-12-31T12:44:21Z</time>
      </trkpt>
      <trkpt lat="43.64273" lon="3.8243">
        <ele>95.5</ele>
        <time>2020-12-31T12:44:22Z</time>
      </trkpt>
      <trkpt lat="43.64271" lon="3.82435">
        <ele>95.3</ele>
        <time>2020-12-31T12:44:23Z</time>
      </trkpt>
      <trkpt lat="43.64269" lon="3.8244">
        <ele>95.2</ele>
        <time>2020-12-31T12:44:24Z</time>
      </trkpt>
      <trkpt lat="43.64267" lon="3.82446">
        <ele>95.1</ele>
        <time>2020-12-31T12:44:25Z</time>
      </trkpt>
      <trkpt lat="43.64265" lon="3.82452">
        <ele>100</ele>
        <time>2020-12-31T12:44:26Z</time>
      </trkpt>
      <trkpt lat="43.64262" lon="3.82458">
        <ele>95.4</ele>
        <time>2020-12-31T12:44:27Z</time>
      </trkpt>
      <trkpt lat="43.64259" lon="3.82465">
        <ele>95.5</ele>
        <time>2020-12-31T12:44:28Z</time>
      </trkpt>
      <trkpt lat="43.64257" lon="3.82471">
        <ele>95.5</ele>
        <time>2020-12-31T12:44:29Z</time>
      </trkpt>
      <trkpt lat="43.64254" lon="3.82478">
        <ele>95.2</ele>
        <time>2020-12-31T12:44:30Z</time>
      </trkpt>
      <trkpt lat="43.64252" lon="3.82485">
        <ele>94.6</ele>
        <time>2020-12-31T12:44:31Z</time>
      </trkpt>
      <trkpt lat="43.64249" lon="3.82491">
        <ele>94.1</ele>
        <time>2020-12-31T12:44:32Z</time>
      </trkpt>
      <trkpt lat="43.64247" lon="3.82498">
        <ele>93.5</ele>
        <time>2020-12-31T12:44:33Z</time>
      </trkpt>
      <trkpt lat="43.64244" lon="3.82504">
        <ele>93.5</ele>
        <time>2020-12-31T12:44:34Z</time>
      </trkpt>
      <trkpt lat="43.64241" lon="3.8251">
        <ele>93.6</ele>
        <time>2020-12-31T12:44:35Z</time>
      </trkpt>
      <trkpt lat="43.64238" lon="3.82515">
        <ele>99</ele>
        <time>2020-12-31T12:44:36Z</time>
      </trkpt>
      <trkpt lat="43.64235" lon="3.82521">
        <ele>93.9</ele>
        <time>2020-12-31T12:44:37Z</time>
      </trkpt>
      <trkpt lat="43.64233" lon="3.82526">
        <ele>93.9</ele>
        <time>2020-12-31T12:44:38Z</time>
      </trkpt>
      <trkpt lat="43.6423" lon="3.82531">
        <ele>94</ele>
        <time>2020-12-31T12:44:39Z</time>
      </trkpt>
      <trkpt lat="43.64228" lon="3.82535">
        <ele>94</ele>
        <time>2020-12-31T12:44:40Z</time>
      </trkpt>
      <trkpt lat="43.64226" lon="3.8254">
        <ele>93.8</ele>
        <time>2020-12-31T12:44:41Z</time>
      </trkpt>
      <trkpt lat="43.64223" lon="3.82545">
        <ele>93.7</ele>
        <time>2020-12-31T12:44:42Z</time>
      </trkpt>
      <trkpt lat="43.64221" lon="3.82551">
        <ele>93.4</ele>
        <time>2020-12-31T12:44:43Z</time>
      </trkpt>
      <trkpt lat="43.64218" lon="3.82557">
        <ele>93.2</ele>
        <time>2020-12-31T12:44:44Z</time>
      </trkpt>
      <trkpt lat="43.64215" lon="3.82563">
        <ele>93</ele>
        <time>2020-12-31T12:44:45Z</time>
      </trkpt>
      <trkpt lat="43.64212" lon="3.82569">
        <ele>98</ele>
        <time>2020-12-31T12:44:46Z</time>
      </trkpt>
      <trkpt lat="43.64208" lon="3.82575">
        <ele>92.6</ele>
        <time>2020-12-31T12:44:47Z</time>
      </trkpt>
      <trkpt lat="43.64204" lon="3.82581">
        <ele>92.5</ele>
        <time>2020-12-31T12:44:48Z</time>
      </trkpt>
      <trkpt lat="43.642" lon="3.82587">
        <ele>92.3</ele>
        <time>2020-12-31T12:44:49Z</time>
      </trkpt>
      <trkpt lat="43.64196" lon="3.82594">
        <ele>91.8</ele>
        <time>2020-12-31T12:44:50Z</time>
      </trkpt>
      <trkpt lat="43.64192" lon="3.82601">
        <ele>91.3</ele>
        <time>2020-12-31T12:44:51Z</time>
      </trkpt>
      <trkpt lat="43.64187" lon="3.82607">
        <ele>91.2</ele>
        <time>2020-12-31T12:44:52Z</time>
      </trkpt>
      <trkpt lat="43.64182" lon="3.82613">
        <ele>91.3</ele>
        <time>2020-12-31T12:44:53Z</time>
      </trkpt>
      <trkpt lat="43.64177" lon="3.82619">
        <ele>91.3</ele>
        <time>2020-12-31T12:44:54Z</time>
      </trkpt>
      <trkpt lat="43.64172" lon="3.82625">
        <ele>91.2</ele>
        <time>2020-12-31T12:44:55Z</time>
      </trkpt>
      <trkpt lat="43.64168" lon="3.82632">
        <ele>97</ele>
        <time>2020-12-31T12:44:56Z</time>
      </trkpt>
      <trkpt lat="43.64163" lon="3.82639">
        <ele>90.1</ele>
        <time>2020-12-31T12:44:57Z</time>
      </trkpt>
      <trkpt lat="43.64157" lon="3.82647">
        <ele>89.8</ele>
        <time>2020-12-31T12:44:58Z</time>
      </trkpt>
      <trkpt lat="43.64152" lon="3.82654">
        <ele>89.4</ele>
        <time>2020-12-31T12:44:59Z</time>
      </trkpt>
      <trkpt lat="43.64146" lon="3.8266">
        <ele>89.2</ele>
        <time>2020-12-31T12:45:00Z</time>
      </trkpt>
      <trkpt lat="43.64141" lon="3.82667">
        <ele>88.9</ele>
        <time>2020-12-31T12:45:01Z</time>
      </trkpt>
      <trkpt lat="43.64135" lon="3.82673">
        <ele>88.7</ele>
        <time>2020-12-31T12:45:02Z</time>
      </trkpt>
      <trkpt lat="43.64129" lon="3.8268">
        <ele>88.4</ele>
        <time>2020-12-31T12:45:03Z</time>
      </trkpt>
      <trkpt lat="43.64123" lon="3.82687">
        <ele>88.1</ele>
        <time>2020-12-31T12:45:04Z</time>
      </trkpt>
      <trkpt lat="43.64116" lon="3.82693">
        <ele>87.9</ele>
        <time>2020-12-31T12:45:05Z</time>
      </trkpt>
      <trkpt lat="43.6411" lon="3.827">
        <ele>94</ele>
        <time>2020-12-31T12:45:06Z</time>
      </trkpt>
      <trkpt lat="43.64104" lon="3.82707">
        <ele>87.1</ele>
        <time>2020-12-31T12:45:07Z</time>
      </trkpt>
      <trkpt lat="43.64098" lon="3.82714">
        <ele>86.6</ele>
        <time>2020-12-31T12:45:08Z</time>
      </trkpt>
      <trkpt lat="43.64092" lon="3.82721">
        <ele>86.1</ele>
        <time>2020-12-31T12:45:09Z</time>
      </trkpt>
      <trkpt lat="43.64085" lon="3.82726">
        <ele>85.8</ele>
        <time>2020-12-31T12:45:10Z</time>
      </trkpt>
      <trkpt lat="43.64078" lon="3.8273">
        <ele>85.7</ele>
        <time>2020-12-31T12:45:11Z</time>
      </trkpt>
      <trkpt lat="43.64071" lon="3.82735">
        <ele>85.5</ele>
        <time>2020-12-31T12:45:12Z</time>
      </trkpt>
      <trkpt lat="43.64065" lon="3.82741">
        <ele>85.3</ele>
        <time>2020-12-31T12:45:13Z</time>
      </trkpt>
      <trkpt lat="43.64059" lon="3.82747">
        <ele>85.1</ele>
        <time>2020-12-31T12:45:14Z</time>
      </trkpt>
      <trkpt lat="43.64053" lon="3.82753">
        <ele>84.9</ele>
        <time>2020-12-31T12:45:15Z</time>
      </trkpt>
      <trkpt lat="43.64047" lon="3.82758">
        <ele>91</ele>
        <time>2020-12-31T12:45:16Z</time>
      </trkpt>
      <trkpt lat="43.64041" lon="3.82764">
        <ele>84.2</ele>
        <time>2020-12-31T12:45:17Z</time>
      </trkpt>
      <trkpt lat="43.64034" lon="3.82769">
        <ele>83.8</ele>
        <time>2020-12-31T12:45:18Z</time>
      </trkpt>
      <trkpt lat="43.64028" lon="3.82773">
        <ele>83.4</ele>
        <time>2020-12-31T12:45:19Z</time>
      </trkpt>
      <trkpt lat="43.64022" lon="3.82775">
        <ele>83.4</ele>
        <time>2020-12-31T12:45:20Z</time>
      </trkpt>
      <trkpt lat="43.64018" lon="3.82779">
        <ele>83.3</ele>
        <time>2020-12-31T12:45:21Z</time>
      </trkpt>
      <trkpt lat="43.64015" lon="3.82784">
        <ele>83</ele>
        <time>2020-12-31T12:45:22Z</time>
      </trkpt>
      <trkpt lat="43.64013" lon="3.8279">
        <ele>82.6</ele>
        <time>2020-12-31T12:45:23Z</time>
      </trkpt>
      <trkpt lat="43.64009" lon="3.82795">
        <ele>82.2</ele>
        <time>2020-12-31T12:45:24Z</time>
      </trkpt>
      <trkpt lat="43.64004" lon="3.82797">
        <ele>82</ele>
        <time>2020-12-31T12:45:25Z</time>
      </trkpt>
      <trkpt lat="43.63999" lon="3.82798">
        <ele>89</ele>
        <time>2020-12-31T12:45:26Z</time>
      </trkpt>
      <trkpt lat="43.63993" lon="3.82799">
        <ele>81.3</ele>
        <time>2020-12-31T12:45:27Z</time>
      </trkpt>
      <trkpt lat="43.63987" lon="3.828">
        <ele>80.9</ele>
        <time>2020-12-31T12:45:28Z</time>
      </trkpt>
      <trkpt lat="43.63982" lon="3.82801">
        <ele>80.6</ele>
        <time>2020-12-31T12:45:29Z</time>
      </trkpt>
      <trkpt lat="43.63976" lon="3.82802">
        <ele>80.3</ele>
        <time>2020-12-31T12:45:30Z</time>
      </trkpt>
      <trkpt lat="43.63971" lon="3.82803">
        <ele>80</ele>
        <time>2020-12-31T12:45:31Z</time>
      </trkpt>
      <trkpt lat="43.63967" lon="3.82805">
        <ele>79.8</ele>
        <time>2020-12-31T12:45:32Z</time>
      </trkpt>
      <trkpt lat="43.63959" lon="3.8281">
        <ele>79.5</ele>
        <time>2020-12-31T12:45:33Z</time>
      </trkpt>
      <trkpt lat="43.63956" lon="3.82813">
        <ele>79.4</ele>
        <time>2020-12-31T12:45:35Z</time>
      </trkpt>
      <trkpt lat="43.63952" lon="3.82816">
        <ele>87</ele>
        <time>2020-12-31T12:45:36Z</time>
      </trkpt>
      <trkpt lat="43.63948" lon="3.82818">
        <ele>79.1</ele>
        <time>2020-12-31T12:45:37Z</time>
      </trkpt>
      <trkpt lat="43.63946" lon="3.82819">
        <ele>79.1</ele>
        <time>2020-12-31T12:45:38Z</time>
      </trkpt>
      <trkpt lat="43.63944" lon="3.82821">
        <ele>79</ele>
        <time>2020-12-31T12:45:40Z</time>
      </trkpt>
      <trkpt lat="43.63941" lon="3.82821">
        <ele>78.9</ele>
        <time>2020-12-31T12:45:43Z</time>
      </trkpt>
      <trkpt lat="43.63939" lon="3.82821">
        <ele>78.9</ele>
        <time>2020-12-31T12:45:45Z</time>
      </trkpt>
      <trkpt lat="43.63935" lon="3.82821">
        <ele>78.8</ele>
        <time>2020-12-31T12:45:48Z</time>
      </trkpt>
      <trkpt lat="43.63929" lon="3.82825">
        <ele>78.6</ele>
        <time>2020-12-31T12:45:50Z</time>
      </trkpt>
      <trkpt lat="43.63925" lon="3.82828">
        <ele>78.4</ele>
        <time>2020-12-31T12:45:51Z</time>
      </trkpt>
      <trkpt lat="43.63922" lon="3.82829">
        <ele>78.3</ele>
        <time>2020-12-31T12:45:52Z</time>
      </trkpt>
      <trkpt lat="43.63918" lon="3.82831">
        <ele>78.1</ele>
        <time>2020-12-31T12:45:53Z</time>
      </trkpt>
      <trkpt lat="43.63915" lon="3.82833">
        <ele>78</ele>
        <time>2020-12-31T12:45:54Z</time>
      </trkpt>
      <trkpt lat="43.63913" lon="3.82837">
        <ele>77.9</ele>
        <time>2020-12-31T12:45:55Z</time>
      </trkpt>
      <trkpt lat="43.63911" lon="3.82841">
        <ele>77.8</ele>
        <time>2020-12-31T12:45:57Z</time>
      </trkpt>
      <trkpt lat="43.6391" lon="3.82846">
        <ele>77.7</ele>
        <time>2020-12-31T12:45:58Z</time>
      </trkpt>
      <trkpt lat="43.6391" lon="3.8285">
        <ele>77.5</ele>
        <time>2020-12-31T12:45:59Z</time>
      </trkpt>
      <trkpt lat="43.6391" lon="3.82855">
        <ele>77.4</ele>
        <time>2020-12-31T12:46:00Z</time>
      </trkpt>
      <trkpt lat="43.63909" lon="3.82861">
        <ele>77.3</ele>
        <time>2020-12-31T12:46:01Z</time>
      </trkpt>
      <trkpt lat="43.63907" lon="3.82867">
        <ele>77.3</ele>
        <time>2020-12-31T12:46:02Z</time>
      </trkpt>
      <trkpt lat="43.63905" lon="3.82874">
        <ele>77.2</ele>
        <time>2020-12-31T12:46:03Z</time>
      </trkpt>
      <trkpt lat="43.63903" lon="3.8288">
        <ele>77.2</ele>
        <time>2020-12-31T12:46:04Z</time>
      </trkpt>
      <trkpt lat="43.639" lon="3.82887">
        <ele>77</ele>
        <time>2020-12-31T12:46:05Z</time>
      </trkpt>
      <trkpt lat="43.63898" lon="3.82893">
        <ele>84</ele>
        <time>2020-12-31T12:46:06Z</time>
      </trkpt>
      <trkpt lat="43.63896" lon="3.829">
        <ele>76.7</ele>
        <time>2020-12-31T12:46:07Z</time>
      </trkpt>
      <trkpt lat="43.63893" lon="3.82907">
        <ele>76.4</ele>
        <time>2020-12-31T12:46:08Z</time>
      </trkpt>
      <trkpt lat="43.6389" lon="3.82913">
        <ele>76.2</ele>
        <time>2020-12-31T12:46:09Z</time>
      </trkpt>
      <trkpt lat="43.63887" lon="3.82919">
        <ele>76</ele>
        <time>2020-12-31T12:46:10Z</time>
      </trkpt>
      <trkpt lat="43.63883" lon="3.82926">
        <ele>75.9</ele>
        <time>2020-12-31T12:46:11Z</time>
      </trkpt>
      <trkpt lat="43.6388" lon="3.82932">
        <ele>75.8</ele>
        <time>2020-12-31T12:46:12Z</time>
      </trkpt>
      <trkpt lat="43.63876" lon="3.82938">
        <ele>75.6</ele>
        <time>2020-12-31T12:46:13Z</time>
      </trkpt>
      <trkpt lat="43.63872" lon="3.82944">
        <ele>75.4</ele>
        <time>2020-12-31T12:46:14Z</time>
      </trkpt>
      <trkpt lat="43.63868" lon="3.82949">
        <ele>75.3</ele>
        <time>2020-12-31T12:46:15Z</time>
      </trkpt>
      <trkpt lat="43.63861" lon="3.8296">
        <ele>82</ele>
        <time>2020-12-31T12:46:16Z</time>
      </trkpt>
      <trkpt lat="43.63857" lon="3.82965">
        <ele>74.9</ele>
        <time>2020-12-31T12:46:17Z</time>
      </trkpt>
      <trkpt lat="43.63853" lon="3.8297">
        <ele>74.7</ele>
        <time>2020-12-31T12:46:18Z</time>
      </trkpt>
      <trkpt lat="43.63849" lon="3.82975">
        <ele>74.6</ele>
        <time>2020-12-31T12:46:19Z</time>
      </trkpt>
      <trkpt lat="43.63844" lon="3.8298">
        <ele>74.4</ele>
        <time>2020-12-31T12:46:20Z</time>
      </trkpt>
      <trkpt lat="43.63841" lon="3.82985">
        <ele>74.3</ele>
        <time>2020-12-31T12:46:21Z</time>
      </trkpt>
      <trkpt lat="43.63837" lon="3.82989">
        <ele>74.1</ele>
        <time>2020-12-31T12:46:22Z</time>
      </trkpt>
      <trkpt lat="43.63833" lon="3.82994">
        <ele>74</ele>
        <time>2020-12-31T12:46:24Z</time>
      </trkpt>
      <trkpt lat="43.6383" lon="3.82998">
        <ele>73.9</ele>
        <time>2020-12-31T12:46:25Z</time>
      </trkpt>
      <trkpt lat="43.63826" lon="3.83003">
        <ele>81</ele>
        <time>2020-12-31T12:46:26Z</time>
      </trkpt>
      <trkpt lat="43.63822" lon="3.83007">
        <ele>73.7</ele>
        <time>2020-12-31T12:46:27Z</time>
      </trkpt>
      <trkpt lat="43.63819" lon="3.83011">
        <ele>73.7</ele>
        <time>2020-12-31T12:46:28Z</time>
      </trkpt>
      <trkpt lat="43.63815" lon="3.83015">
        <ele>73.7</ele>
        <time>2020-12-31T12:46:29Z</time>
      </trkpt>
      <trkpt lat="43.63811" lon="3.8302">
        <ele>73.8</ele>
        <time>2020-12-31T12:46:30Z</time>
      </trkpt>
      <trkpt lat="43.63807" lon="3.83024">
        <ele>73.9</ele>
        <time>2020-12-31T12:46:31Z</time>
      </trkpt>
      <trkpt lat="43.63803" lon="3.83028">
        <ele>73.9</ele>
        <time>2020-12-31T12:46:32Z</time>
      </trkpt>
      <trkpt lat="43.63799" lon="3.83032">
        <ele>73.6</ele>
        <time>2020-12-31T12:46:33Z</time>
      </trkpt>
      <trkpt lat="43.63795" lon="3.83036">
        <ele>73.4</ele>
        <time>2020-12-31T12:46:34Z</time>
      </trkpt>
      <trkpt lat="43.63791" lon="3.8304">
        <ele>73.3</ele>
        <time>2020-12-31T12:46:35Z</time>
      </trkpt>
      <trkpt lat="43.63787" lon="3.83044">
        <ele>79</ele>
        <time>2020-12-31T12:46:36Z</time>
      </trkpt>
      <trkpt lat="43.63783" lon="3.83049">
        <ele>73</ele>
        <time>2020-12-31T12:46:37Z</time>
      </trkpt>
      <trkpt lat="43.63779" lon="3.83053">
        <ele>73</ele>
        <time>2020-12-31T12:46:38Z</time>
      </trkpt>
      <trkpt lat="43.63774" lon="3.83056">
        <ele>72.7</ele>
        <time>2020-12-31T12:46:39Z</time>
      </trkpt>
      <trkpt lat="43.6377" lon="3.8306">
        <ele>72.5</ele>
        <time>2020-12-31T12:46:40Z</time>
      </trkpt>
      <trkpt lat="43.63766" lon="3.83064">
        <ele>72.4</ele>
        <time>2020-12-31T12:46:41Z</time>
      </trkpt>
      <trkpt lat="43.63761" lon="3.83068">
        <ele>72.3</ele>
        <time>2020-12-31T12:46:42Z</time>
      </trkpt>
      <trkpt lat="43.63757" lon="3.83072">
        <ele>72.4</ele>
        <time>2020-12-31T12:46:43Z</time>
      </trkpt>
      <trkpt lat="43.63753" lon="3.83076">
        <ele>72.5</ele>
        <time>2020-12-31T12:46:44Z</time>
      </trkpt>
      <trkpt lat="43.63749" lon="3.8308">
        <ele>72.8</ele>
        <time>2020-12-31T12:46:45Z</time>
      </trkpt>
      <trkpt lat="43.63744" lon="3.83083">
        <ele>76</ele>
        <time>2020-12-31T12:46:46Z</time>
      </trkpt>
      <trkpt lat="43.6374" lon="3.83086">
        <ele>73.1</ele>
        <time>2020-12-31T12:46:47Z</time>
      </trkpt>
      <trkpt lat="43.63736" lon="3.83088">
        <ele>73.2</ele>
        <time>2020-12-31T12:46:48Z</time>
      </trkpt>
      <trkpt lat="43.63733" lon="3.8309">
        <ele>73.2</ele>
        <time>2020-12-31T12:46:49Z</time>
      </trkpt>
      <trkpt lat="43.6373" lon="3.83093">
        <ele>73.3</ele>
        <time>2020-12-31T12:46:50Z</time>
      </trkpt>
      <trkpt lat="43.63727" lon="3.83097">
        <ele>73.5</ele>
        <time>2020-12-31T12:46:51Z</time>
      </trkpt>
      <trkpt lat="43.63724" lon="3.83099">
        <ele>73.6</ele>
        <time>2020-12-31T12:46:52Z</time>
      </trkpt>
      <trkpt lat="43.63721" lon="3.83101">
        <ele>73.6</ele>
        <time>2020-12-31T12:46:53Z</time>
      </trkpt>
      <trkpt lat="43.63718" lon="3.83102">
        <ele>73.5</ele>
        <time>2020-12-31T12:46:54Z</time>
      </trkpt>
      <trkpt lat="43.63715" lon="3.83103">
        <ele>73.4</ele>
        <time>2020-12-31T12:46:55Z</time>
      </trkpt>
      <trkpt lat="43.63711" lon="3.83104">
        <ele>76</ele>
        <time>2020-12-31T12:46:56Z</time>
      </trkpt>
      <trkpt lat="43.63708" lon="3.83106">
        <ele>73.3</ele>
        <time>2020-12-31T12:46:57Z</time>
      </trkpt>
      <trkpt lat="43.63705" lon="3.83107">
        <ele>73.2</ele>
        <time>2020-12-31T12:46:58Z</time>
      </trkpt>
      <trkpt lat="43.63701" lon="3.83109">
        <ele>73.2</ele>
        <time>2020-12-31T12:46:59Z</time>
      </trkpt>
      <trkpt lat="43.63698" lon="3.8311">
        <ele>73.1</ele>
        <time>2020-12-31T12:47:00Z</time>
      </trkpt>
      <trkpt lat="43.63694" lon="3.83112">
        <ele>73</ele>
        <time>2020-12-31T12:47:01Z</time>
      </trkpt>
      <trkpt lat="43.6369" lon="3.83113">
        <ele>72.9</ele>
        <time>2020-12-31T12:47:02Z</time>
      </trkpt>
      <trkpt lat="43.63686" lon="3.83115">
        <ele>72.8</ele>
        <time>2020-12-31T12:47:03Z</time>
      </trkpt>
      <trkpt lat="43.63681" lon="3.83116">
        <ele>72.6</ele>
        <time>2020-12-31T12:47:04Z</time>
      </trkpt>
      <trkpt lat="43.63677" lon="3.83118">
        <ele>72.5</ele>
        <time>2020-12-31T12:47:05Z</time>
      </trkpt>
      <trkpt lat="43.63672" lon="3.83119">
        <ele>76</ele>
        <time>2020-12-31T12:47:06Z</time>
      </trkpt>
      <trkpt lat="43.63668" lon="3.83121">
        <ele>72.1</ele>
        <time>2020-12-31T12:47:07Z</time>
      </trkpt>
      <trkpt lat="43.63663" lon="3.83124">
        <ele>71.8</ele>
        <time>2020-12-31T12:47:08Z</time>
      </trkpt>
      <trkpt lat="43.63659" lon="3.83127">
        <ele>71.6</ele>
        <time>2020-12-31T12:47:09Z</time>
      </trkpt>
      <trkpt lat="43.63655" lon="3.8313">
        <ele>71.4</ele>
        <time>2020-12-31T12:47:10Z</time>
      </trkpt>
      <trkpt lat="43.6365" lon="3.83133">
        <ele>71.3</ele>
        <time>2020-12-31T12:47:11Z</time>
      </trkpt>
      <trkpt lat="43.63645" lon="3.83136">
        <ele>71.1</ele>
        <time>2020-12-31T12:47:12Z</time>
      </trkpt>
      <trkpt lat="43.63639" lon="3.83139">
        <ele>71</ele>
        <time>2020-12-31T12:47:13Z</time>
      </trkpt>
      <trkpt lat="43.63634" lon="3.8314">
        <ele>71</ele>
        <time>2020-12-31T12:47:14Z</time>
      </trkpt>
      <trkpt lat="43.63629" lon="3.83142">
        <ele>71.1</ele>
        <time>2020-12-31T12:47:15Z</time>
      </trkpt>
      <trkpt lat="43.63624" lon="3.83144">
        <ele>75</ele>
        <time>2020-12-31T12:47:16Z</time>
      </trkpt>
      <trkpt lat="43.6362" lon="3.83146">
        <ele>71.3</ele>
        <time>2020-12-31T12:47:17Z</time>
      </trkpt>
      <trkpt lat="43.63616" lon="3.83148">
        <ele>71.3</ele>
        <time>2020-12-31T12:47:18Z</time>
      </trkpt>
      <trkpt lat="43.63612" lon="3.83151">
        <ele>71.4</ele>
        <time>2020-12-31T12:47:19Z</time>
      </trkpt>
      <trkpt lat="43.63609" lon="3.83153">
        <ele>71.4</ele>
        <time>2020-12-31T12:47:20Z</time>
      </trkpt>
      <trkpt lat="43.63606" lon="3.83156">
        <ele>71.4</ele>
        <time>2020-12-31T12:47:21Z</time>
      </trkpt>
      <trkpt lat="43.63603" lon="3.83158">
        <ele>71.4</ele>
        <time>2020-12-31T12:47:22Z</time>
      </trkpt>
      <trkpt lat="43.63599" lon="3.83161">
        <ele>71.4</ele>
        <time>2020-12-31T12:47:23Z</time>
      </trkpt>
      <trkpt lat="43.63596" lon="3.83164">
        <ele>71.4</ele>
        <time>2020-12-31T12:47:24Z</time>
      </trkpt>
      <trkpt lat="43.63592" lon="3.83168">
        <ele>71.3</ele>
        <time>2020-12-31T12:47:25Z</time>
      </trkpt>
      <trkpt lat="43.63588" lon="3.83171">
        <ele>75</ele>
        <time>2020-12-31T12:47:26Z</time>
      </trkpt>
      <trkpt lat="43.63585" lon="3.83174">
        <ele>71.1</ele>
        <time>2020-12-31T12:47:27Z</time>
      </trkpt>
      <trkpt lat="43.63581" lon="3.83178">
        <ele>70.8</ele>
        <time>2020-12-31T12:47:28Z</time>
      </trkpt>
      <trkpt lat="43.63577" lon="3.83182">
        <ele>70.6</ele>
        <time>2020-12-31T12:47:29Z</time>
      </trkpt>
      <trkpt lat="43.63573" lon="3.83186">
        <ele>70.4</ele>
        <time>2020-12-31T12:47:30Z</time>
      </trkpt>
      <trkpt lat="43.63569" lon="3.8319">
        <ele>70.3</ele>
        <time>2020-12-31T12:47:31Z</time>
      </trkpt>
      <trkpt lat="43.63566" lon="3.83194">
        <ele>70.4</ele>
        <time>2020-12-31T12:47:32Z</time>
      </trkpt>
      <trkpt lat="43.63562" lon="3.83198">
        <ele>70.3</ele>
        <time>2020-12-31T12:47:33Z</time>
      </trkpt>
      <trkpt lat="43.63557" lon="3.83202">
        <ele>70.3</ele>
        <time>2020-12-31T12:47:34Z</time>
      </trkpt>
      <trkpt lat="43.63553" lon="3.83207">
        <ele>70.4</ele>
        <time>2020-12-31T12:47:35Z</time>
      </trkpt>
      <trkpt lat="43.63549" lon="3.83211">
        <ele>75</ele>
        <time>2020-12-31T12:47:36Z</time>
      </trkpt>
      <trkpt lat="43.63545" lon="3.83215">
        <ele>70.4</ele>
        <time>2020-12-31T12:47:37Z</time>
      </trkpt>
      <trkpt lat="43.63541" lon="3.83219">
        <ele>70.4</ele>
        <time>2020-12-31T12:47:38Z</time>
      </trkpt>
      <trkpt lat="43.63536" lon="3.83223">
        <ele>70.3</ele>
        <time>2020-12-31T12:47:39Z</time>
      </trkpt>
      <trkpt lat="43.63532" lon="3.83228">
        <ele>70.2</ele>
        <time>2020-12-31T12:47:40Z</time>
      </trkpt>
      <trkpt lat="43.63527" lon="3.83232">
        <ele>69.9</ele>
        <time>2020-12-31T12:47:41Z</time>
      </trkpt>
      <trkpt lat="43.63523" lon="3.83237">
        <ele>69.7</ele>
        <time>2020-12-31T12:47:42Z</time>
      </trkpt>
      <trkpt lat="43.63519" lon="3.83241">
        <ele>69.4</ele>
        <time>2020-12-31T12:47:43Z</time>
      </trkpt>
      <trkpt lat="43.63515" lon="3.83246">
        <ele>69.1</ele>
        <time>2020-12-31T12:47:44Z</time>
      </trkpt>
      <trkpt lat="43.63511" lon="3.8325">
        <ele>68.8</ele>
        <time>2020-12-31T12:47:45Z</time>
      </trkpt>
      <trkpt lat="43.63508" lon="3.83255">
        <ele>74</ele>
        <time>2020-12-31T12:47:46Z</time>
      </trkpt>
      <trkpt lat="43.63504" lon="3.83259">
        <ele>68.6</ele>
        <time>2020-12-31T12:47:47Z</time>
      </trkpt>
      <trkpt lat="43.635" lon="3.83264">
        <ele>68.5</ele>
        <time>2020-12-31T12:47:48Z</time>
      </trkpt>
      <trkpt lat="43.63496" lon="3.83269">
        <ele>68.7</ele>
        <time>2020-12-31T12:47:49Z</time>
      </trkpt>
      <trkpt lat="43.63491" lon="3.83274">
        <ele>68.9</ele>
        <time>2020-12-31T12:47:50Z</time>
      </trkpt>
      <trkpt lat="43.63487" lon="3.83279">
        <ele>69</ele>
        <time>2020-12-31T12:47:51Z</time>
      </trkpt>
      <trkpt lat="43.63483" lon="3.83284">
        <ele>69.1</ele>
        <time>2020-12-31T12:47:52Z</time>
      </trkpt>
      <trkpt lat="43.6348" lon="3.8329">
        <ele>69.1</ele>
        <time>2020-12-31T12:47:53Z</time>
      </trkpt>
      <trkpt lat="43.63477" lon="3.83297">
        <ele>69.1</ele>
        <time>2020-12-31T12:47:54Z</time>
      </trkpt>
      <trkpt lat="43.63473" lon="3.83303">
        <ele>69</ele>
        <time>2020-12-31T12:47:55Z</time>
      </trkpt>
      <trkpt lat="43.63471" lon="3.8331">
        <ele>73</ele>
        <time>2020-12-31T12:47:56Z</time>
      </trkpt>
      <trkpt lat="43.63468" lon="3.83317">
        <ele>68.8</ele>
        <time>2020-12-31T12:47:57Z</time>
      </trkpt>
      <trkpt lat="43.63464" lon="3.83323">
        <ele>68.7</ele>
        <time>2020-12-31T12:47:58Z</time>
      </trkpt>
      <trkpt lat="43.6346" lon="3.83329">
        <ele>68.6</ele>
        <time>2020-12-31T12:47:59Z</time>
      </trkpt>
      <trkpt lat="43.63456" lon="3.83335">
        <ele>68.4</ele>
        <time>2020-12-31T12:48:00Z</time>
      </trkpt>
      <trkpt lat="43.63451" lon="3.8334">
        <ele>68.2</ele>
        <time>2020-12-31T12:48:01Z</time>
      </trkpt>
      <trkpt lat="43.63447" lon="3.83345">
        <ele>68.1</ele>
        <time>2020-12-31T12:48:02Z</time>
      </trkpt>
      <trkpt lat="43.63442" lon="3.8335">
        <ele>68</ele>
        <time>2020-12-31T12:48:03Z</time>
      </trkpt>
      <trkpt lat="43.63437" lon="3.83354">
        <ele>68</ele>
        <time>2020-12-31T12:48:04Z</time>
      </trkpt>
      <trkpt lat="43.63433" lon="3.83358">
        <ele>68</ele>
        <time>2020-12-31T12:48:05Z</time>
      </trkpt>
      <trkpt lat="43.63429" lon="3.83363">
        <ele>72</ele>
        <time>2020-12-31T12:48:06Z</time>
      </trkpt>
      <trkpt lat="43.63425" lon="3.83367">
        <ele>68</ele>
        <time>2020-12-31T12:48:07Z</time>
      </trkpt>
      <trkpt lat="43.63421" lon="3.83372">
        <ele>68</ele>
        <time>2020-12-31T12:48:08Z</time>
      </trkpt>
      <trkpt lat="43.63418" lon="3.83378">
        <ele>68</ele>
        <time>2020-12-31T12:48:09Z</time>
      </trkpt>
      <trkpt lat="43.63415" lon="3.83384">
        <ele>68</ele>
        <time>2020-12-31T12:48:10Z</time>
      </trkpt>
      <trkpt lat="43.63412" lon="3.83388">
        <ele>68</ele>
        <time>2020-12-31T12:48:11Z</time>
      </trkpt>
      <trkpt lat="43.63409" lon="3.83393">
        <ele>67.8</ele>
        <time>2020-12-31T12:48:12Z</time>
      </trkpt>
      <trkpt lat="43.63407" lon="3.83399">
        <ele>67.5</ele>
        <time>2020-12-31T12:48:13Z</time>
      </trkpt>
      <trkpt lat="43.63406" lon="3.83405">
        <ele>67.2</ele>
        <time>2020-12-31T12:48:14Z</time>
      </trkpt>
      <trkpt lat="43.63403" lon="3.83411">
        <ele>66.8</ele>
        <time>2020-12-31T12:48:15Z</time>
      </trkpt>
      <trkpt lat="43.634" lon="3.83417">
        <ele>72</ele>
        <time>2020-12-31T12:48:16Z</time>
      </trkpt>
      <trkpt lat="43.63398" lon="3.83423">
        <ele>66.1</ele>
        <time>2020-12-31T12:48:17Z</time>
      </trkpt>
      <trkpt lat="43.63397" lon="3.83429">
        <ele>65.8</ele>
        <time>2020-12-31T12:48:18Z</time>
      </trkpt>
      <trkpt lat="43.63395" lon="3.83436">
        <ele>65.5</ele>
        <time>2020-12-31T12:48:19Z</time>
      </trkpt>
      <trkpt lat="43.63392" lon="3.83443">
        <ele>65.2</ele>
        <time>2020-12-31T12:48:20Z</time>
      </trkpt>
      <trkpt lat="43.6339" lon="3.8345">
        <ele>65</ele>
        <time>2020-12-31T12:48:21Z</time>
      </trkpt>
      <trkpt lat="43.63387" lon="3.83458">
        <ele>64.8</ele>
        <time>2020-12-31T12:48:22Z</time>
      </trkpt>
      <trkpt lat="43.63383" lon="3.83466">
        <ele>64.2</ele>
        <time>2020-12-31T12:48:23Z</time>
      </trkpt>
      <trkpt lat="43.63379" lon="3.83473">
        <ele>63.6</ele>
        <time>2020-12-31T12:48:24Z</time>
      </trkpt>
      <trkpt lat="43.63375" lon="3.8348">
        <ele>63.1</ele>
        <time>2020-12-31T12:48:25Z</time>
      </trkpt>
      <trkpt lat="43.63369" lon="3.83494">
        <ele>71</ele>
        <time>2020-12-31T12:48:26Z</time>
      </trkpt>
      <trkpt lat="43.63366" lon="3.83502">
        <ele>63.2</ele>
        <time>2020-12-31T12:48:27Z</time>
      </trkpt>
      <trkpt lat="43.63363" lon="3.8351">
        <ele>63.4</ele>
        <time>2020-12-31T12:48:28Z</time>
      </trkpt>
      <trkpt lat="43.6336" lon="3.83517">
        <ele>63.6</ele>
        <time>2020-12-31T12:48:29Z</time>
      </trkpt>
      <trkpt lat="43.63356" lon="3.83524">
        <ele>63.7</ele>
        <time>2020-12-31T12:48:30Z</time>
      </trkpt>
      <trkpt lat="43.63352" lon="3.8353">
        <ele>63.6</ele>
        <time>2020-12-31T12:48:31Z</time>
      </trkpt>
      <trkpt lat="43.63346" lon="3.83533">
        <ele>63.2</ele>
        <time>2020-12-31T12:48:32Z</time>
      </trkpt>
      <trkpt lat="43.63341" lon="3.83533">
        <ele>63</ele>
        <time>2020-12-31T12:48:33Z</time>
      </trkpt>
      <trkpt lat="43.63335" lon="3.83531">
        <ele>62.8</ele>
        <time>2020-12-31T12:48:34Z</time>
      </trkpt>
      <trkpt lat="43.63329" lon="3.83529">
        <ele>69</ele>
        <time>2020-12-31T12:48:36Z</time>
      </trkpt>
      <trkpt lat="43.63324" lon="3.83527">
        <ele>62.6</ele>
        <time>2020-12-31T12:48:37Z</time>
      </trkpt>
      <trkpt lat="43.63319" lon="3.83525">
        <ele>62.4</ele>
        <time>2020-12-31T12:48:38Z</time>
      </trkpt>
      <trkpt lat="43.63314" lon="3.83523">
        <ele>62.3</ele>
        <time>2020-12-31T12:48:39Z</time>
      </trkpt>
      <trkpt lat="43.6331" lon="3.83522">
        <ele>62.3</ele>
        <time>2020-12-31T12:48:40Z</time>
      </trkpt>
      <trkpt lat="43.63307" lon="3.83523">
        <ele>62.2</ele>
        <time>2020-12-31T12:48:41Z</time>
      </trkpt>
      <trkpt lat="43.63304" lon="3.83526">
        <ele>62.1</ele>
        <time>2020-12-31T12:48:42Z</time>
      </trkpt>
      <trkpt lat="43.63303" lon="3.83531">
        <ele>61.9</ele>
        <time>2020-12-31T12:48:43Z</time>
      </trkpt>
      <trkpt lat="43.63302" lon="3.83537">
        <ele>61.7</ele>
        <time>2020-12-31T12:48:44Z</time>
      </trkpt>
      <trkpt lat="43.63301" lon="3.83543">
        <ele>61.5</ele>
        <time>2020-12-31T12:48:45Z</time>
      </trkpt>
      <trkpt lat="43.633" lon="3.8355">
        <ele>68</ele>
        <time>2020-12-31T12:48:46Z</time>
      </trkpt>
      <trkpt lat="43.63297" lon="3.83557">
        <ele>61.3</ele>
        <time>2020-12-31T12:48:47Z</time>
      </trkpt>
      <trkpt lat="43.63294" lon="3.83564">
        <ele>61.4</ele>
        <time>2020-12-31T12:48:48Z</time>
      </trkpt>
      <trkpt lat="43.6329" lon="3.83569">
        <ele>61.6</ele>
        <time>2020-12-31T12:48:49Z</time>
      </trkpt>
      <trkpt lat="43.63286" lon="3.83575">
        <ele>61.7</ele>
        <time>2020-12-31T12:48:50Z</time>
      </trkpt>
      <trkpt lat="43.63283" lon="3.83582">
        <ele>61.8</ele>
        <time>2020-12-31T12:48:51Z</time>
      </trkpt>
      <trkpt lat="43.63279" lon="3.8359">
        <ele>61.7</ele>
        <time>2020-12-31T12:48:52Z</time>
      </trkpt>
      <trkpt lat="43.63275" lon="3.83598">
        <ele>61.6</ele>
        <time>2020-12-31T12:48:53Z</time>
      </trkpt>
      <trkpt lat="43.63271" lon="3.83605">
        <ele>61.5</ele>
        <time>2020-12-31T12:48:54Z</time>
      </trkpt>
      <trkpt lat="43.63266" lon="3.83614">
        <ele>61.3</ele>
        <time>2020-12-31T12:48:55Z</time>
      </trkpt>
      <trkpt lat="43.63263" lon="3.83621">
        <ele>66</ele>
        <time>2020-12-31T12:48:56Z</time>
      </trkpt>
      <trkpt lat="43.63258" lon="3.83628">
        <ele>60.9</ele>
        <time>2020-12-31T12:48:57Z</time>
      </trkpt>
      <trkpt lat="43.63255" lon="3.83634">
        <ele>60.8</ele>
        <time>2020-12-31T12:48:58Z</time>
      </trkpt>
      <trkpt lat="43.63251" lon="3.8364">
        <ele>60.8</ele>
        <time>2020-12-31T12:48:59Z</time>
      </trkpt>
      <trkpt lat="43.63249" lon="3.83647">
        <ele>60.3</ele>
        <time>2020-12-31T12:49:00Z</time>
      </trkpt>
      <trkpt lat="43.63246" lon="3.83655">
        <ele>59.8</ele>
        <time>2020-12-31T12:49:01Z</time>
      </trkpt>
      <trkpt lat="43.63244" lon="3.83663">
        <ele>59.3</ele>
        <time>2020-12-31T12:49:02Z</time>
      </trkpt>
      <trkpt lat="43.6324" lon="3.83672">
        <ele>59.7</ele>
        <time>2020-12-31T12:49:03Z</time>
      </trkpt>
      <trkpt lat="43.63237" lon="3.83681">
        <ele>60.4</ele>
        <time>2020-12-31T12:49:04Z</time>
      </trkpt>
      <trkpt lat="43.63234" lon="3.83689">
        <ele>61</ele>
        <time>2020-12-31T12:49:05Z</time>
      </trkpt>
      <trkpt lat="43.63231" lon="3.83697">
        <ele>66</ele>
        <time>2020-12-31T12:49:06Z</time>
      </trkpt>
      <trkpt lat="43.63228" lon="3.83704">
        <ele>61.2</ele>
        <time>2020-12-31T12:49:07Z</time>
      </trkpt>
      <trkpt lat="43.63226" lon="3.83711">
        <ele>61.1</ele>
        <time>2020-12-31T12:49:08Z</time>
      </trkpt>
      <trkpt lat="43.63224" lon="3.83717">
        <ele>61.1</ele>
        <time>2020-12-31T12:49:09Z</time>
      </trkpt>
      <trkpt lat="43.63222" lon="3.83723">
        <ele>61</ele>
        <time>2020-12-31T12:49:10Z</time>
      </trkpt>
      <trkpt lat="43.63219" lon="3.83729">
        <ele>60.8</ele>
        <time>2020-12-31T12:49:11Z</time>
      </trkpt>
      <trkpt lat="43.63215" lon="3.83734">
        <ele>60.8</ele>
        <time>2020-12-31T12:49:12Z</time>
      </trkpt>
      <trkpt lat="43.63211" lon="3.83737">
        <ele>61</ele>
        <time>2020-12-31T12:49:13Z</time>
      </trkpt>
      <trkpt lat="43.63208" lon="3.83742">
        <ele>61</ele>
        <time>2020-12-31T12:49:14Z</time>
      </trkpt>
      <trkpt lat="43.63205" lon="3.83747">
        <ele>61</ele>
        <time>2020-12-31T12:49:15Z</time>
      </trkpt>
      <trkpt lat="43.63202" lon="3.83751">
        <ele>66</ele>
        <time>2020-12-31T12:49:16Z</time>
      </trkpt>
      <trkpt lat="43.63199" lon="3.83755">
        <ele>61.2</ele>
        <time>2020-12-31T12:49:17Z</time>
      </trkpt>
      <trkpt lat="43.63196" lon="3.83759">
        <ele>61.2</ele>
        <time>2020-12-31T12:49:18Z</time>
      </trkpt>
      <trkpt lat="43.63193" lon="3.83763">
        <ele>61.2</ele>
        <time>2020-12-31T12:49:19Z</time>
      </trkpt>
      <trkpt lat="43.63191" lon="3.83768">
        <ele>61</ele>
        <time>2020-12-31T12:49:20Z</time>
      </trkpt>
      <trkpt lat="43.63189" lon="3.83772">
        <ele>61</ele>
        <time>2020-12-31T12:49:21Z</time>
      </trkpt>
      <trkpt lat="43.63186" lon="3.83776">
        <ele>61</ele>
        <time>2020-12-31T12:49:22Z</time>
      </trkpt>
      <trkpt lat="43.63184" lon="3.83779">
        <ele>61</ele>
        <time>2020-12-31T12:49:23Z</time>
      </trkpt>
      <trkpt lat="43.63181" lon="3.83783">
        <ele>61</ele>
        <time>2020-12-31T12:49:24Z</time>
      </trkpt>
      <trkpt lat="43.6318" lon="3.83787">
        <ele>60.7</ele>
        <time>2020-12-31T12:49:25Z</time>
      </trkpt>
      <trkpt lat="43.63177" lon="3.8379">
        <ele>60.6</ele>
        <time>2020-12-31T12:49:26Z</time>
      </trkpt>
      <trkpt lat="43.63171" lon="3.83795">
        <ele>66</ele>
        <time>2020-12-31T12:49:27Z</time>
      </trkpt>
      <trkpt lat="43.63167" lon="3.838">
        <ele>59.8</ele>
        <time>2020-12-31T12:49:28Z</time>
      </trkpt>
      <trkpt lat="43.63164" lon="3.83808">
        <ele>59.1</ele>
        <time>2020-12-31T12:49:29Z</time>
      </trkpt>
      <trkpt lat="43.6316" lon="3.83815">
        <ele>59.2</ele>
        <time>2020-12-31T12:49:30Z</time>
      </trkpt>
      <trkpt lat="43.63155" lon="3.83822">
        <ele>59.2</ele>
        <time>2020-12-31T12:49:31Z</time>
      </trkpt>
      <trkpt lat="43.63152" lon="3.83828">
        <ele>59.1</ele>
        <time>2020-12-31T12:49:32Z</time>
      </trkpt>
      <trkpt lat="43.63149" lon="3.83835">
        <ele>58.9</ele>
        <time>2020-12-31T12:49:33Z</time>
      </trkpt>
      <trkpt lat="43.63146" lon="3.83843">
        <ele>58.7</ele>
        <time>2020-12-31T12:49:34Z</time>
      </trkpt>
      <trkpt lat="43.63144" lon="3.83852">
        <ele>58.3</ele>
        <time>2020-12-31T12:49:35Z</time>
      </trkpt>
      <trkpt lat="43.63142" lon="3.8386">
        <ele>58</ele>
        <time>2020-12-31T12:49:37Z</time>
      </trkpt>
      <trkpt lat="43.63139" lon="3.83869">
        <ele>58</ele>
        <time>2020-12-31T12:49:38Z</time>
      </trkpt>
      <trkpt lat="43.63136" lon="3.83877">
        <ele>58</ele>
        <time>2020-12-31T12:49:39Z</time>
      </trkpt>
      <trkpt lat="43.63133" lon="3.83885">
        <ele>58</ele>
        <time>2020-12-31T12:49:40Z</time>
      </trkpt>
      <trkpt lat="43.6313" lon="3.83894">
        <ele>57.8</ele>
        <time>2020-12-31T12:49:41Z</time>
      </trkpt>
      <trkpt lat="43.63128" lon="3.83902">
        <ele>57.5</ele>
        <time>2020-12-31T12:49:42Z</time>
      </trkpt>
      <trkpt lat="43.63125" lon="3.8391">
        <ele>57.2</ele>
        <time>2020-12-31T12:49:43Z</time>
      </trkpt>
      <trkpt lat="43.63121" lon="3.83918">
        <ele>57</ele>
        <time>2020-12-31T12:49:44Z</time>
      </trkpt>
      <trkpt lat="43.63118" lon="3.83926">
        <ele>56.9</ele>
        <time>2020-12-31T12:49:45Z</time>
      </trkpt>
      <trkpt lat="43.63115" lon="3.83934">
        <ele>66</ele>
        <time>2020-12-31T12:49:46Z</time>
      </trkpt>
      <trkpt lat="43.63113" lon="3.83941">
        <ele>56.9</ele>
        <time>2020-12-31T12:49:47Z</time>
      </trkpt>
      <trkpt lat="43.63111" lon="3.83949">
        <ele>56.8</ele>
        <time>2020-12-31T12:49:48Z</time>
      </trkpt>
      <trkpt lat="43.63108" lon="3.83956">
        <ele>56.6</ele>
        <time>2020-12-31T12:49:49Z</time>
      </trkpt>
      <trkpt lat="43.63106" lon="3.83964">
        <ele>56.4</ele>
        <time>2020-12-31T12:49:50Z</time>
      </trkpt>
      <trkpt lat="43.63102" lon="3.83972">
        <ele>56.3</ele>
        <time>2020-12-31T12:49:51Z</time>
      </trkpt>
      <trkpt lat="43.631" lon="3.83981">
        <ele>56.4</ele>
        <time>2020-12-31T12:49:52Z</time>
      </trkpt>
      <trkpt lat="43.63096" lon="3.8399">
        <ele>56.5</ele>
        <time>2020-12-31T12:49:53Z</time>
      </trkpt>
      <trkpt lat="43.63093" lon="3.83998">
        <ele>56.7</ele>
        <time>2020-12-31T12:49:54Z</time>
      </trkpt>
      <trkpt lat="43.63091" lon="3.84006">
        <ele>56.7</ele>
        <time>2020-12-31T12:49:55Z</time>
      </trkpt>
      <trkpt lat="43.6309" lon="3.84014">
        <ele>65</ele>
        <time>2020-12-31T12:49:56Z</time>
      </trkpt>
      <trkpt lat="43.63089" lon="3.84023">
        <ele>56.8</ele>
        <time>2020-12-31T12:49:57Z</time>
      </trkpt>
      <trkpt lat="43.63088" lon="3.84031">
        <ele>56.8</ele>
        <time>2020-12-31T12:49:58Z</time>
      </trkpt>
      <trkpt lat="43.63087" lon="3.84039">
        <ele>56.9</ele>
        <time>2020-12-31T12:49:59Z</time>
      </trkpt>
      <trkpt lat="43.63084" lon="3.84046">
        <ele>57</ele>
        <time>2020-12-31T12:50:00Z</time>
      </trkpt>
      <trkpt lat="43.63081" lon="3.84053">
        <ele>57</ele>
        <time>2020-12-31T12:50:01Z</time>
      </trkpt>
      <trkpt lat="43.63078" lon="3.84061">
        <ele>56.8</ele>
        <time>2020-12-31T12:50:02Z</time>
      </trkpt>
      <trkpt lat="43.63076" lon="3.84068">
        <ele>56.7</ele>
        <time>2020-12-31T12:50:03Z</time>
      </trkpt>
      <trkpt lat="43.63074" lon="3.84076">
        <ele>56.5</ele>
        <time>2020-12-31T12:50:04Z</time>
      </trkpt>
      <trkpt lat="43.63072" lon="3.84084">
        <ele>56.4</ele>
        <time>2020-12-31T12:50:05Z</time>
      </trkpt>
      <trkpt lat="43.63072" lon="3.84092">
        <ele>65</ele>
        <time>2020-12-31T12:50:06Z</time>
      </trkpt>
      <trkpt lat="43.63074" lon="3.84099">
        <ele>55.8</ele>
        <time>2020-12-31T12:50:07Z</time>
      </trkpt>
      <trkpt lat="43.63074" lon="3.84108">
        <ele>55.4</ele>
        <time>2020-12-31T12:50:08Z</time>
      </trkpt>
      <trkpt lat="43.63068" lon="3.84124">
        <ele>55.3</ele>
        <time>2020-12-31T12:50:09Z</time>
      </trkpt>
      <trkpt lat="43.63064" lon="3.8413">
        <ele>55.2</ele>
        <time>2020-12-31T12:50:10Z</time>
      </trkpt>
      <trkpt lat="43.63061" lon="3.84136">
        <ele>55.1</ele>
        <time>2020-12-31T12:50:11Z</time>
      </trkpt>
      <trkpt lat="43.63058" lon="3.84142">
        <ele>54.9</ele>
        <time>2020-12-31T12:50:12Z</time>
      </trkpt>
      <trkpt lat="43.63055" lon="3.84148">
        <ele>54.7</ele>
        <time>2020-12-31T12:50:13Z</time>
      </trkpt>
      <trkpt lat="43.63053" lon="3.84154">
        <ele>54.5</ele>
        <time>2020-12-31T12:50:14Z</time>
      </trkpt>
      <trkpt lat="43.63051" lon="3.84159">
        <ele>62</ele>
        <time>2020-12-31T12:50:16Z</time>
      </trkpt>
      <trkpt lat="43.63051" lon="3.84164">
        <ele>54.1</ele>
        <time>2020-12-31T12:50:17Z</time>
      </trkpt>
      <trkpt lat="43.63051" lon="3.84167">
        <ele>54</ele>
        <time>2020-12-31T12:50:18Z</time>
      </trkpt>
      <trkpt lat="43.6305" lon="3.8417">
        <ele>54.1</ele>
        <time>2020-12-31T12:50:20Z</time>
      </trkpt>
      <trkpt lat="43.63041" lon="3.8417">
        <ele>61</ele>
        <time>2020-12-31T12:51:31Z</time>
      </trkpt>
      <trkpt lat="43.63039" lon="3.84169">
        <ele>54</ele>
        <time>2020-12-31T12:51:32Z</time>
      </trkpt>
      <trkpt lat="43.63036" lon="3.84168">
        <ele>54</ele>
        <time>2020-12-31T12:51:33Z</time>
      </trkpt>
      <trkpt lat="43.63032" lon="3.84167">
        <ele>54</ele>
        <time>2020-12-31T12:51:34Z</time>
      </trkpt>
      <trkpt lat="43.63029" lon="3.84166">
        <ele>54</ele>
        <time>2020-12-31T12:51:35Z</time>
      </trkpt>
      <trkpt lat="43.63025" lon="3.84165">
        <ele>54.1</ele>
        <time>2020-12-31T12:51:36Z</time>
      </trkpt>
      <trkpt lat="43.63021" lon="3.84165">
        <ele>54.1</ele>
        <time>2020-12-31T12:51:37Z</time>
      </trkpt>
      <trkpt lat="43.63017" lon="3.84165">
        <ele>54.1</ele>
        <time>2020-12-31T12:51:38Z</time>
      </trkpt>
      <trkpt lat="43.63013" lon="3.84166">
        <ele>54</ele>
        <time>2020-12-31T12:51:39Z</time>
      </trkpt>
      <trkpt lat="43.63009" lon="3.84166">
        <ele>54</ele>
        <time>2020-12-31T12:51:40Z</time>
      </trkpt>
      <trkpt lat="43.63006" lon="3.84165">
        <ele>60</ele>
        <time>2020-12-31T12:51:41Z</time>
      </trkpt>
      <trkpt lat="43.63002" lon="3.84165">
        <ele>54.1</ele>
        <time>2020-12-31T12:51:42Z</time>
      </trkpt>
      <trkpt lat="43.62999" lon="3.84164">
        <ele>54.1</ele>
        <time>2020-12-31T12:51:43Z</time>
      </trkpt>
      <trkpt lat="43.62997" lon="3.84164">
        <ele>54.2</ele>
        <time>2020-12-31T12:51:44Z</time>
      </trkpt>
      <trkpt lat="43.62994" lon="3.84164">
        <ele>54.3</ele>
        <time>2020-12-31T12:51:46Z</time>
      </trkpt>
      <trkpt lat="43.62992" lon="3.84163">
        <ele>54.4</ele>
        <time>2020-12-31T12:51:47Z</time>
      </trkpt>
      <trkpt lat="43.6299" lon="3.84163">
        <ele>54.4</ele>
        <time>2020-12-31T12:51:48Z</time>
      </trkpt>
      <trkpt lat="43.62987" lon="3.84163">
        <ele>54.5</ele>
        <time>2020-12-31T12:51:49Z</time>
      </trkpt>
      <trkpt lat="43.62984" lon="3.84163">
        <ele>54.6</ele>
        <time>2020-12-31T12:51:50Z</time>
      </trkpt>
      <trkpt lat="43.62978" lon="3.84161">
        <ele>60</ele>
        <time>2020-12-31T12:51:51Z</time>
      </trkpt>
      <trkpt lat="43.62975" lon="3.8416">
        <ele>54.9</ele>
        <time>2020-12-31T12:51:52Z</time>
      </trkpt>
      <trkpt lat="43.62971" lon="3.84159">
        <ele>55</ele>
        <time>2020-12-31T12:51:53Z</time>
      </trkpt>
      <trkpt lat="43.62968" lon="3.84158">
        <ele>55</ele>
        <time>2020-12-31T12:51:54Z</time>
      </trkpt>
      <trkpt lat="43.62965" lon="3.84157">
        <ele>55</ele>
        <time>2020-12-31T12:51:55Z</time>
      </trkpt>
      <trkpt lat="43.62961" lon="3.84156">
        <ele>55</ele>
        <time>2020-12-31T12:51:56Z</time>
      </trkpt>
      <trkpt lat="43.62958" lon="3.84155">
        <ele>55</ele>
        <time>2020-12-31T12:51:57Z</time>
      </trkpt>
      <trkpt lat="43.62954" lon="3.84154">
        <ele>55</ele>
        <time>2020-12-31T12:51:58Z</time>
      </trkpt>
      <trkpt lat="43.6295" lon="3.84153">
        <ele>55</ele>
        <time>2020-12-31T12:51:59Z</time>
      </trkpt>
      <trkpt lat="43.62947" lon="3.84152">
        <ele>55</ele>
        <time>2020-12-31T12:52:00Z</time>
      </trkpt>
      <trkpt lat="43.62943" lon="3.8415">
        <ele>55</ele>
        <time>2020-12-31T12:52:02Z</time>
      </trkpt>
      <trkpt lat="43.6294" lon="3.84149">
        <ele>55</ele>
        <time>2020-12-31T12:52:03Z</time>
      </trkpt>
      <trkpt lat="43.62936" lon="3.84148">
        <ele>55</ele>
        <time>2020-12-31T12:52:04Z</time>
      </trkpt>
      <trkpt lat="43.62933" lon="3.84146">
        <ele>55</ele>
        <time>2020-12-31T12:52:05Z</time>
      </trkpt>
      <trkpt lat="43.6293" lon="3.84144">
        <ele>55</ele>
        <time>2020-12-31T12:52:06Z</time>
      </trkpt>
      <trkpt lat="43.62926" lon="3.84142">
        <ele>55</ele>
        <time>2020-12-31T12:52:07Z</time>
      </trkpt>
      <trkpt lat="43.62923" lon="3.84141">
        <ele>55</ele>
        <time>2020-12-31T12:52:08Z</time>
      </trkpt>
      <trkpt lat="43.62919" lon="3.84139">
        <ele>55</ele>
        <time>2020-12-31T12:52:09Z</time>
      </trkpt>
      <trkpt lat="43.62916" lon="3.84137">
        <ele>55.1</ele>
        <time>2020-12-31T12:52:10Z</time>
      </trkpt>
      <trkpt lat="43.62913" lon="3.84135">
        <ele>59</ele>
        <time>2020-12-31T12:52:11Z</time>
      </trkpt>
      <trkpt lat="43.6291" lon="3.84133">
        <ele>55.2</ele>
        <time>2020-12-31T12:52:12Z</time>
      </trkpt>
      <trkpt lat="43.62906" lon="3.84131">
        <ele>55.3</ele>
        <time>2020-12-31T12:52:13Z</time>
      </trkpt>
      <trkpt lat="43.62903" lon="3.84128">
        <ele>55.4</ele>
        <time>2020-12-31T12:52:14Z</time>
      </trkpt>
      <trkpt lat="43.62899" lon="3.84126">
        <ele>55.5</ele>
        <time>2020-12-31T12:52:15Z</time>
      </trkpt>
      <trkpt lat="43.62896" lon="3.84123">
        <ele>55.6</ele>
        <time>2020-12-31T12:52:16Z</time>
      </trkpt>
      <trkpt lat="43.62893" lon="3.84121">
        <ele>55.6</ele>
        <time>2020-12-31T12:52:17Z</time>
      </trkpt>
      <trkpt lat="43.6289" lon="3.84118">
        <ele>55.8</ele>
        <time>2020-12-31T12:52:18Z</time>
      </trkpt>
      <trkpt lat="43.62887" lon="3.84116">
        <ele>55.8</ele>
        <time>2020-12-31T12:52:19Z</time>
      </trkpt>
      <trkpt lat="43.62884" lon="3.84113">
        <ele>55.9</ele>
        <time>2020-12-31T12:52:20Z</time>
      </trkpt>
      <trkpt lat="43.62881" lon="3.84111">
        <ele>59</ele>
        <time>2020-12-31T12:52:21Z</time>
      </trkpt>
      <trkpt lat="43.62878" lon="3.84108">
        <ele>56.1</ele>
        <time>2020-12-31T12:52:22Z</time>
      </trkpt>
      <trkpt lat="43.62875" lon="3.84105">
        <ele>56.2</ele>
        <time>2020-12-31T12:52:23Z</time>
      </trkpt>
      <trkpt lat="43.62871" lon="3.84103">
        <ele>56.3</ele>
        <time>2020-12-31T12:52:24Z</time>
      </trkpt>
      <trkpt lat="43.62869" lon="3.841">
        <ele>56.4</ele>
        <time>2020-12-31T12:52:25Z</time>
      </trkpt>
      <trkpt lat="43.62866" lon="3.84097">
        <ele>56.5</ele>
        <time>2020-12-31T12:52:26Z</time>
      </trkpt>
      <trkpt lat="43.62863" lon="3.84094">
        <ele>56.6</ele>
        <time>2020-12-31T12:52:27Z</time>
      </trkpt>
      <trkpt lat="43.6286" lon="3.84091">
        <ele>56.7</ele>
        <time>2020-12-31T12:52:28Z</time>
      </trkpt>
      <trkpt lat="43.62857" lon="3.84089">
        <ele>56.8</ele>
        <time>2020-12-31T12:52:29Z</time>
      </trkpt>
      <trkpt lat="43.62854" lon="3.84086">
        <ele>56.9</ele>
        <time>2020-12-31T12:52:30Z</time>
      </trkpt>
      <trkpt lat="43.62851" lon="3.84083">
        <ele>60</ele>
        <time>2020-12-31T12:52:31Z</time>
      </trkpt>
      <trkpt lat="43.62848" lon="3.8408">
        <ele>57</ele>
        <time>2020-12-31T12:52:32Z</time>
      </trkpt>
      <trkpt lat="43.62845" lon="3.84078">
        <ele>57</ele>
        <time>2020-12-31T12:52:33Z</time>
      </trkpt>
      <trkpt lat="43.62842" lon="3.84075">
        <ele>57</ele>
        <time>2020-12-31T12:52:34Z</time>
      </trkpt>
      <trkpt lat="43.62839" lon="3.84072">
        <ele>57</ele>
        <time>2020-12-31T12:52:35Z</time>
      </trkpt>
      <trkpt lat="43.62836" lon="3.84069">
        <ele>57</ele>
        <time>2020-12-31T12:52:36Z</time>
      </trkpt>
      <trkpt lat="43.62833" lon="3.84066">
        <ele>57</ele>
        <time>2020-12-31T12:52:37Z</time>
      </trkpt>
      <trkpt lat="43.6283" lon="3.84063">
        <ele>57.1</ele>
        <time>2020-12-31T12:52:38Z</time>
      </trkpt>
      <trkpt lat="43.62827" lon="3.8406">
        <ele>57.2</ele>
        <time>2020-12-31T12:52:39Z</time>
      </trkpt>
      <trkpt lat="43.62824" lon="3.84057">
        <ele>57.3</ele>
        <time>2020-12-31T12:52:40Z</time>
      </trkpt>
      <trkpt lat="43.62821" lon="3.84054">
        <ele>60</ele>
        <time>2020-12-31T12:52:41Z</time>
      </trkpt>
      <trkpt lat="43.62818" lon="3.84051">
        <ele>57.8</ele>
        <time>2020-12-31T12:52:42Z</time>
      </trkpt>
      <trkpt lat="43.62815" lon="3.84048">
        <ele>58</ele>
        <time>2020-12-31T12:52:43Z</time>
      </trkpt>
      <trkpt lat="43.62812" lon="3.84044">
        <ele>58.3</ele>
        <time>2020-12-31T12:52:44Z</time>
      </trkpt>
      <trkpt lat="43.62809" lon="3.84041">
        <ele>58.5</ele>
        <time>2020-12-31T12:52:45Z</time>
      </trkpt>
      <trkpt lat="43.62806" lon="3.84038">
        <ele>58.6</ele>
        <time>2020-12-31T12:52:46Z</time>
      </trkpt>
      <trkpt lat="43.62803" lon="3.84035">
        <ele>58.7</ele>
        <time>2020-12-31T12:52:47Z</time>
      </trkpt>
      <trkpt lat="43.62801" lon="3.84032">
        <ele>58.8</ele>
        <time>2020-12-31T12:52:48Z</time>
      </trkpt>
      <trkpt lat="43.62798" lon="3.84029">
        <ele>58.9</ele>
        <time>2020-12-31T12:52:49Z</time>
      </trkpt>
      <trkpt lat="43.62795" lon="3.84026">
        <ele>59.1</ele>
        <time>2020-12-31T12:52:50Z</time>
      </trkpt>
      <trkpt lat="43.62792" lon="3.84023">
        <ele>61</ele>
        <time>2020-12-31T12:52:51Z</time>
      </trkpt>
      <trkpt lat="43.62789" lon="3.8402">
        <ele>59.3</ele>
        <time>2020-12-31T12:52:52Z</time>
      </trkpt>
      <trkpt lat="43.62787" lon="3.84017">
        <ele>59.4</ele>
        <time>2020-12-31T12:52:53Z</time>
      </trkpt>
      <trkpt lat="43.62784" lon="3.84013">
        <ele>59.4</ele>
        <time>2020-12-31T12:52:54Z</time>
      </trkpt>
      <trkpt lat="43.62781" lon="3.8401">
        <ele>59.2</ele>
        <time>2020-12-31T12:52:55Z</time>
      </trkpt>
      <trkpt lat="43.62779" lon="3.84007">
        <ele>59.1</ele>
        <time>2020-12-31T12:52:56Z</time>
      </trkpt>
      <trkpt lat="43.62776" lon="3.84003">
        <ele>59.1</ele>
        <time>2020-12-31T12:52:57Z</time>
      </trkpt>
      <trkpt lat="43.62773" lon="3.84">
        <ele>59.2</ele>
        <time>2020-12-31T12:52:58Z</time>
      </trkpt>
      <trkpt lat="43.62771" lon="3.83997">
        <ele>59.5</ele>
        <time>2020-12-31T12:52:59Z</time>
      </trkpt>
      <trkpt lat="43.62769" lon="3.83993">
        <ele>59.8</ele>
        <time>2020-12-31T12:53:00Z</time>
      </trkpt>
      <trkpt lat="43.6277" lon="3.83989">
        <ele>62</ele>
        <time>2020-12-31T12:53:01Z</time>
      </trkpt>
      <trkpt lat="43.62772" lon="3.83987">
        <ele>60.3</ele>
        <time>2020-12-31T12:53:02Z</time>
      </trkpt>
      <trkpt lat="43.62774" lon="3.83987">
        <ele>60.3</ele>
        <time>2020-12-31T12:53:03Z</time>
      </trkpt>
      <trkpt lat="43.62777" lon="3.83989">
        <ele>60.2</ele>
        <time>2020-12-31T12:53:04Z</time>
      </trkpt>
      <trkpt lat="43.62779" lon="3.83992">
        <ele>60</ele>
        <time>2020-12-31T12:53:05Z</time>
      </trkpt>
      <trkpt lat="43.62781" lon="3.83994">
        <ele>59.9</ele>
        <time>2020-12-31T12:53:06Z</time>
      </trkpt>
      <trkpt lat="43.62783" lon="3.83997">
        <ele>59.8</ele>
        <time>2020-12-31T12:53:07Z</time>
      </trkpt>
      <trkpt lat="43.62785" lon="3.84">
        <ele>59.8</ele>
        <time>2020-12-31T12:53:08Z</time>
      </trkpt>
      <trkpt lat="43.62788" lon="3.84003">
        <ele>60</ele>
        <time>2020-12-31T12:53:09Z</time>
      </trkpt>
      <trkpt lat="43.62792" lon="3.84006">
        <ele>60.2</ele>
        <time>2020-12-31T12:53:10Z</time>
      </trkpt>
      <trkpt lat="43.62796" lon="3.84008">
        <ele>62</ele>
        <time>2020-12-31T12:53:11Z</time>
      </trkpt>
      <trkpt lat="43.628" lon="3.84009">
        <ele>60.6</ele>
        <time>2020-12-31T12:53:12Z</time>
      </trkpt>
      <trkpt lat="43.62804" lon="3.84009">
        <ele>60.9</ele>
        <time>2020-12-31T12:53:13Z</time>
      </trkpt>
      <trkpt lat="43.62808" lon="3.84009">
        <ele>61</ele>
        <time>2020-12-31T12:53:14Z</time>
      </trkpt>
      <trkpt lat="43.62812" lon="3.8401">
        <ele>60.9</ele>
        <time>2020-12-31T12:53:15Z</time>
      </trkpt>
      <trkpt lat="43.62816" lon="3.8401">
        <ele>60.9</ele>
        <time>2020-12-31T12:53:16Z</time>
      </trkpt>
      <trkpt lat="43.6282" lon="3.84011">
        <ele>60.8</ele>
        <time>2020-12-31T12:53:17Z</time>
      </trkpt>
      <trkpt lat="43.62824" lon="3.84011">
        <ele>60.8</ele>
        <time>2020-12-31T12:53:18Z</time>
      </trkpt>
      <trkpt lat="43.62828" lon="3.84012">
        <ele>60.7</ele>
        <time>2020-12-31T12:53:19Z</time>
      </trkpt>
      <trkpt lat="43.62832" lon="3.84013">
        <ele>60.6</ele>
        <time>2020-12-31T12:53:20Z</time>
      </trkpt>
      <trkpt lat="43.62837" lon="3.84014">
        <ele>63</ele>
        <time>2020-12-31T12:53:21Z</time>
      </trkpt>
      <trkpt lat="43.62841" lon="3.84015">
        <ele>60.1</ele>
        <time>2020-12-31T12:53:22Z</time>
      </trkpt>
      <trkpt lat="43.62845" lon="3.84016">
        <ele>59.9</ele>
        <time>2020-12-31T12:53:23Z</time>
      </trkpt>
      <trkpt lat="43.62849" lon="3.84017">
        <ele>59.6</ele>
        <time>2020-12-31T12:53:24Z</time>
      </trkpt>
      <trkpt lat="43.62853" lon="3.84017">
        <ele>59.5</ele>
        <time>2020-12-31T12:53:25Z</time>
      </trkpt>
      <trkpt lat="43.62858" lon="3.84017">
        <ele>59.3</ele>
        <time>2020-12-31T12:53:26Z</time>
      </trkpt>
      <trkpt lat="43.62861" lon="3.84015">
        <ele>59.4</ele>
        <time>2020-12-31T12:53:27Z</time>
      </trkpt>
      <trkpt lat="43.62865" lon="3.84014">
        <ele>59.5</ele>
        <time>2020-12-31T12:53:28Z</time>
      </trkpt>
      <trkpt lat="43.62868" lon="3.84012">
        <ele>59.7</ele>
        <time>2020-12-31T12:53:29Z</time>
      </trkpt>
      <trkpt lat="43.62872" lon="3.84011">
        <ele>59.8</ele>
        <time>2020-12-31T12:53:30Z</time>
      </trkpt>
      <trkpt lat="43.62876" lon="3.8401">
        <ele>62</ele>
        <time>2020-12-31T12:53:31Z</time>
      </trkpt>
      <trkpt lat="43.62879" lon="3.84009">
        <ele>60</ele>
        <time>2020-12-31T12:53:32Z</time>
      </trkpt>
      <trkpt lat="43.62883" lon="3.84007">
        <ele>60.2</ele>
        <time>2020-12-31T12:53:33Z</time>
      </trkpt>
      <trkpt lat="43.62886" lon="3.84006">
        <ele>60.4</ele>
        <time>2020-12-31T12:53:34Z</time>
      </trkpt>
      <trkpt lat="43.6289" lon="3.84005">
        <ele>60.4</ele>
        <time>2020-12-31T12:53:35Z</time>
      </trkpt>
      <trkpt lat="43.62894" lon="3.84004">
        <ele>60.4</ele>
        <time>2020-12-31T12:53:36Z</time>
      </trkpt>
      <trkpt lat="43.62899" lon="3.84003">
        <ele>60.4</ele>
        <time>2020-12-31T12:53:37Z</time>
      </trkpt>
      <trkpt lat="43.62903" lon="3.84002">
        <ele>60.3</ele>
        <time>2020-12-31T12:53:38Z</time>
      </trkpt>
      <trkpt lat="43.62907" lon="3.84001">
        <ele>60.3</ele>
        <time>2020-12-31T12:53:39Z</time>
      </trkpt>
      <trkpt lat="43.62911" lon="3.84">
        <ele>60.2</ele>
        <time>2020-12-31T12:53:40Z</time>
      </trkpt>
      <trkpt lat="43.62915" lon="3.83999">
        <ele>63</ele>
        <time>2020-12-31T12:53:41Z</time>
      </trkpt>
      <trkpt lat="43.62919" lon="3.83997">
        <ele>60.1</ele>
        <time>2020-12-31T12:53:42Z</time>
      </trkpt>
      <trkpt lat="43.62923" lon="3.83996">
        <ele>60.1</ele>
        <time>2020-12-31T12:53:43Z</time>
      </trkpt>
      <trkpt lat="43.62927" lon="3.83994">
        <ele>60.2</ele>
        <time>2020-12-31T12:53:44Z</time>
      </trkpt>
      <trkpt lat="43.6293" lon="3.83993">
        <ele>60.3</ele>
        <time>2020-12-31T12:53:45Z</time>
      </trkpt>
      <trkpt lat="43.62934" lon="3.83991">
        <ele>60.3</ele>
        <time>2020-12-31T12:53:46Z</time>
      </trkpt>
      <trkpt lat="43.62937" lon="3.83991">
        <ele>60.3</ele>
        <time>2020-12-31T12:53:47Z</time>
      </trkpt>
      <trkpt lat="43.6294" lon="3.8399">
        <ele>60.4</ele>
        <time>2020-12-31T12:53:48Z</time>
      </trkpt>
      <trkpt lat="43.62943" lon="3.83989">
        <ele>60.4</ele>
        <time>2020-12-31T12:53:49Z</time>
      </trkpt>
      <trkpt lat="43.62947" lon="3.83988">
        <ele>60.4</ele>
        <time>2020-12-31T12:53:50Z</time>
      </trkpt>
      <trkpt lat="43.6295" lon="3.83987">
        <ele>64</ele>
        <time>2020-12-31T12:53:51Z</time>
      </trkpt>
      <trkpt lat="43.62952" lon="3.83986">
        <ele>60.5</ele>
        <time>2020-12-31T12:53:52Z</time>
      </trkpt>
      <trkpt lat="43.62955" lon="3.83985">
        <ele>60.5</ele>
        <time>2020-12-31T12:53:53Z</time>
      </trkpt>
      <trkpt lat="43.62959" lon="3.83983">
        <ele>60.6</ele>
        <time>2020-12-31T12:53:54Z</time>
      </trkpt>
      <trkpt lat="43.62962" lon="3.83982">
        <ele>60.6</ele>
        <time>2020-12-31T12:53:55Z</time>
      </trkpt>
      <trkpt lat="43.62965" lon="3.8398">
        <ele>60.7</ele>
        <time>2020-12-31T12:53:56Z</time>
      </trkpt>
      <trkpt lat="43.62968" lon="3.83978">
        <ele>60.8</ele>
        <time>2020-12-31T12:53:57Z</time>
      </trkpt>
      <trkpt lat="43.62971" lon="3.83976">
        <ele>60.9</ele>
        <time>2020-12-31T12:53:58Z</time>
      </trkpt>
      <trkpt lat="43.62973" lon="3.83975">
        <ele>60.9</ele>
        <time>2020-12-31T12:53:59Z</time>
      </trkpt>
      <trkpt lat="43.62975" lon="3.83974">
        <ele>60.8</ele>
        <time>2020-12-31T12:54:00Z</time>
      </trkpt>
      <trkpt lat="43.62977" lon="3.83973">
        <ele>60.8</ele>
        <time>2020-12-31T12:54:03Z</time>
      </trkpt>
      <trkpt lat="43.62979" lon="3.83973">
        <ele>60.7</ele>
        <time>2020-12-31T12:54:07Z</time>
      </trkpt>
      <trkpt lat="43.62981" lon="3.8397">
        <ele>60.8</ele>
        <time>2020-12-31T12:54:14Z</time>
      </trkpt>
      <trkpt lat="43.62981" lon="3.8397">
        <ele>65</ele>
        <time>2020-12-31T12:54:15Z</time>
      </trkpt>
      <trkpt lat="43.62982" lon="3.83969">
        <ele>65</ele>
        <time>2020-12-31T12:54:17Z</time>
      </trkpt>
      <trkpt lat="43.62982" lon="3.83969">
        <ele>65</ele>
        <time>2020-12-31T12:54:21Z</time>
      </trkpt>
      <trkpt lat="43.62986" lon="3.83965">
        <ele>64</ele>
        <time>2020-12-31T12:54:30Z</time>
      </trkpt>
      <trkpt lat="43.62989" lon="3.83964">
        <ele>60.7</ele>
        <time>2020-12-31T12:54:32Z</time>
      </trkpt>
      <trkpt lat="43.62991" lon="3.83964">
        <ele>60.6</ele>
        <time>2020-12-31T12:54:33Z</time>
      </trkpt>
      <trkpt lat="43.62993" lon="3.83963">
        <ele>60.6</ele>
        <time>2020-12-31T12:54:34Z</time>
      </trkpt>
      <trkpt lat="43.62995" lon="3.83962">
        <ele>60.5</ele>
        <time>2020-12-31T12:54:35Z</time>
      </trkpt>
      <trkpt lat="43.62997" lon="3.83961">
        <ele>60.5</ele>
        <time>2020-12-31T12:54:36Z</time>
      </trkpt>
      <trkpt lat="43.63" lon="3.8396">
        <ele>60.4</ele>
        <time>2020-12-31T12:54:37Z</time>
      </trkpt>
      <trkpt lat="43.63002" lon="3.83959">
        <ele>60.4</ele>
        <time>2020-12-31T12:54:38Z</time>
      </trkpt>
      <trkpt lat="43.63004" lon="3.83958">
        <ele>64</ele>
        <time>2020-12-31T12:54:39Z</time>
      </trkpt>
      <trkpt lat="43.63007" lon="3.83957">
        <ele>60.3</ele>
        <time>2020-12-31T12:54:40Z</time>
      </trkpt>
      <trkpt lat="43.6301" lon="3.83956">
        <ele>60.2</ele>
        <time>2020-12-31T12:54:41Z</time>
      </trkpt>
      <trkpt lat="43.63013" lon="3.83954">
        <ele>60.2</ele>
        <time>2020-12-31T12:54:42Z</time>
      </trkpt>
      <trkpt lat="43.63016" lon="3.83953">
        <ele>60.1</ele>
        <time>2020-12-31T12:54:43Z</time>
      </trkpt>
      <trkpt lat="43.63019" lon="3.83951">
        <ele>60.1</ele>
        <time>2020-12-31T12:54:44Z</time>
      </trkpt>
      <trkpt lat="43.63022" lon="3.8395">
        <ele>60</ele>
        <time>2020-12-31T12:54:45Z</time>
      </trkpt>
      <trkpt lat="43.63025" lon="3.83948">
        <ele>60</ele>
        <time>2020-12-31T12:54:46Z</time>
      </trkpt>
      <trkpt lat="43.63028" lon="3.83946">
        <ele>59.9</ele>
        <time>2020-12-31T12:54:47Z</time>
      </trkpt>
      <trkpt lat="43.63031" lon="3.83945">
        <ele>59.7</ele>
        <time>2020-12-31T12:54:48Z</time>
      </trkpt>
      <trkpt lat="43.63034" lon="3.83943">
        <ele>59.7</ele>
        <time>2020-12-31T12:54:49Z</time>
      </trkpt>
      <trkpt lat="43.63037" lon="3.83942">
        <ele>64</ele>
        <time>2020-12-31T12:54:50Z</time>
      </trkpt>
      <trkpt lat="43.63041" lon="3.83939">
        <ele>59.5</ele>
        <time>2020-12-31T12:54:51Z</time>
      </trkpt>
      <trkpt lat="43.63044" lon="3.83937">
        <ele>59.5</ele>
        <time>2020-12-31T12:54:52Z</time>
      </trkpt>
      <trkpt lat="43.63049" lon="3.83933">
        <ele>59.6</ele>
        <time>2020-12-31T12:54:53Z</time>
      </trkpt>
      <trkpt lat="43.63052" lon="3.8393">
        <ele>59.7</ele>
        <time>2020-12-31T12:54:54Z</time>
      </trkpt>
      <trkpt lat="43.63054" lon="3.83927">
        <ele>60</ele>
        <time>2020-12-31T12:54:55Z</time>
      </trkpt>
      <trkpt lat="43.63055" lon="3.83924">
        <ele>60.2</ele>
        <time>2020-12-31T12:54:56Z</time>
      </trkpt>
      <trkpt lat="43.63057" lon="3.8392">
        <ele>60.5</ele>
        <time>2020-12-31T12:54:57Z</time>
      </trkpt>
      <trkpt lat="43.63058" lon="3.83917">
        <ele>60.7</ele>
        <time>2020-12-31T12:54:58Z</time>
      </trkpt>
      <trkpt lat="43.63059" lon="3.83913">
        <ele>61</ele>
        <time>2020-12-31T12:55:00Z</time>
      </trkpt>
      <trkpt lat="43.63061" lon="3.83909">
        <ele>61.1</ele>
        <time>2020-12-31T12:55:01Z</time>
      </trkpt>
      <trkpt lat="43.63063" lon="3.83906">
        <ele>61.1</ele>
        <time>2020-12-31T12:55:02Z</time>
      </trkpt>
      <trkpt lat="43.63065" lon="3.83904">
        <ele>61</ele>
        <time>2020-12-31T12:55:03Z</time>
      </trkpt>
      <trkpt lat="43.63067" lon="3.83901">
        <ele>61</ele>
        <time>2020-12-31T12:55:04Z</time>
      </trkpt>
      <trkpt lat="43.63069" lon="3.83898">
        <ele>60.9</ele>
        <time>2020-12-31T12:55:05Z</time>
      </trkpt>
      <trkpt lat="43.63071" lon="3.83896">
        <ele>60.7</ele>
        <time>2020-12-31T12:55:06Z</time>
      </trkpt>
      <trkpt lat="43.63073" lon="3.83892">
        <ele>60.7</ele>
        <time>2020-12-31T12:55:07Z</time>
      </trkpt>
      <trkpt lat="43.63075" lon="3.83888">
        <ele>60.6</ele>
        <time>2020-12-31T12:55:08Z</time>
      </trkpt>
      <trkpt lat="43.63078" lon="3.83884">
        <ele>66</ele>
        <time>2020-12-31T12:55:09Z</time>
      </trkpt>
      <trkpt lat="43.63079" lon="3.83879">
        <ele>60.7</ele>
        <time>2020-12-31T12:55:10Z</time>
      </trkpt>
      <trkpt lat="43.63081" lon="3.83875">
        <ele>60.8</ele>
        <time>2020-12-31T12:55:11Z</time>
      </trkpt>
      <trkpt lat="43.63084" lon="3.83871">
        <ele>60.9</ele>
        <time>2020-12-31T12:55:12Z</time>
      </trkpt>
      <trkpt lat="43.63087" lon="3.83867">
        <ele>61</ele>
        <time>2020-12-31T12:55:13Z</time>
      </trkpt>
      <trkpt lat="43.63089" lon="3.83863">
        <ele>61.2</ele>
        <time>2020-12-31T12:55:14Z</time>
      </trkpt>
      <trkpt lat="43.63091" lon="3.83859">
        <ele>61.3</ele>
        <time>2020-12-31T12:55:15Z</time>
      </trkpt>
      <trkpt lat="43.63094" lon="3.83855">
        <ele>61.2</ele>
        <time>2020-12-31T12:55:16Z</time>
      </trkpt>
      <trkpt lat="43.63096" lon="3.83851">
        <ele>61.2</ele>
        <time>2020-12-31T12:55:17Z</time>
      </trkpt>
      <trkpt lat="43.63099" lon="3.83847">
        <ele>61</ele>
        <time>2020-12-31T12:55:18Z</time>
      </trkpt>
      <trkpt lat="43.63101" lon="3.83843">
        <ele>67</ele>
        <time>2020-12-31T12:55:19Z</time>
      </trkpt>
      <trkpt lat="43.63104" lon="3.83839">
        <ele>60.8</ele>
        <time>2020-12-31T12:55:20Z</time>
      </trkpt>
      <trkpt lat="43.63106" lon="3.83835">
        <ele>60.7</ele>
        <time>2020-12-31T12:55:21Z</time>
      </trkpt>
      <trkpt lat="43.63109" lon="3.83832">
        <ele>60.4</ele>
        <time>2020-12-31T12:55:22Z</time>
      </trkpt>
      <trkpt lat="43.63112" lon="3.83828">
        <ele>60.5</ele>
        <time>2020-12-31T12:55:23Z</time>
      </trkpt>
      <trkpt lat="43.63114" lon="3.83824">
        <ele>60.8</ele>
        <time>2020-12-31T12:55:24Z</time>
      </trkpt>
      <trkpt lat="43.63117" lon="3.8382">
        <ele>61</ele>
        <time>2020-12-31T12:55:25Z</time>
      </trkpt>
      <trkpt lat="43.63123" lon="3.83811">
        <ele>61.3</ele>
        <time>2020-12-31T12:55:26Z</time>
      </trkpt>
      <trkpt lat="43.63128" lon="3.83806">
        <ele>61.1</ele>
        <time>2020-12-31T12:55:28Z</time>
      </trkpt>
      <trkpt lat="43.63131" lon="3.83804">
        <ele>61</ele>
        <time>2020-12-31T12:55:30Z</time>
      </trkpt>
      <trkpt lat="43.63132" lon="3.83802">
        <ele>61.1</ele>
        <time>2020-12-31T12:55:31Z</time>
      </trkpt>
      <trkpt lat="43.63134" lon="3.83801">
        <ele>61</ele>
        <time>2020-12-31T12:55:32Z</time>
      </trkpt>
      <trkpt lat="43.63136" lon="3.83799">
        <ele>61</ele>
        <time>2020-12-31T12:55:33Z</time>
      </trkpt>
      <trkpt lat="43.63137" lon="3.83796">
        <ele>61.2</ele>
        <time>2020-12-31T12:55:34Z</time>
      </trkpt>
      <trkpt lat="43.63138" lon="3.83793">
        <ele>61.4</ele>
        <time>2020-12-31T12:55:35Z</time>
      </trkpt>
      <trkpt lat="43.63137" lon="3.83789">
        <ele>62</ele>
        <time>2020-12-31T12:55:37Z</time>
      </trkpt>
      <trkpt lat="43.63137" lon="3.83787">
        <ele>71</ele>
        <time>2020-12-31T12:55:42Z</time>
      </trkpt>
      <trkpt lat="43.63134" lon="3.83779">
        <ele>71</ele>
        <time>2020-12-31T12:55:47Z</time>
      </trkpt>
      <trkpt lat="43.63132" lon="3.83774">
        <ele>63.6</ele>
        <time>2020-12-31T12:55:49Z</time>
      </trkpt>
      <trkpt lat="43.6313" lon="3.83771">
        <ele>63.7</ele>
        <time>2020-12-31T12:55:50Z</time>
      </trkpt>
      <trkpt lat="43.63129" lon="3.83768">
        <ele>63.8</ele>
        <time>2020-12-31T12:55:51Z</time>
      </trkpt>
      <trkpt lat="43.63127" lon="3.83765">
        <ele>63.9</ele>
        <time>2020-12-31T12:55:52Z</time>
      </trkpt>
      <trkpt lat="43.63126" lon="3.83761">
        <ele>64</ele>
        <time>2020-12-31T12:55:53Z</time>
      </trkpt>
      <trkpt lat="43.63125" lon="3.83757">
        <ele>64</ele>
        <time>2020-12-31T12:55:54Z</time>
      </trkpt>
      <trkpt lat="43.63126" lon="3.83752">
        <ele>64</ele>
        <time>2020-12-31T12:55:55Z</time>
      </trkpt>
      <trkpt lat="43.63128" lon="3.83748">
        <ele>64</ele>
        <time>2020-12-31T12:55:56Z</time>
      </trkpt>
      <trkpt lat="43.63131" lon="3.83744">
        <ele>70</ele>
        <time>2020-12-31T12:55:57Z</time>
      </trkpt>
      <trkpt lat="43.63134" lon="3.83741">
        <ele>64</ele>
        <time>2020-12-31T12:55:58Z</time>
      </trkpt>
      <trkpt lat="43.63137" lon="3.83737">
        <ele>64</ele>
        <time>2020-12-31T12:55:59Z</time>
      </trkpt>
      <trkpt lat="43.6314" lon="3.83734">
        <ele>64</ele>
        <time>2020-12-31T12:56:00Z</time>
      </trkpt>
      <trkpt lat="43.63143" lon="3.8373">
        <ele>64</ele>
        <time>2020-12-31T12:56:01Z</time>
      </trkpt>
      <trkpt lat="43.63145" lon="3.83727">
        <ele>64</ele>
        <time>2020-12-31T12:56:02Z</time>
      </trkpt>
      <trkpt lat="43.63148" lon="3.83724">
        <ele>64</ele>
        <time>2020-12-31T12:56:03Z</time>
      </trkpt>
      <trkpt lat="43.63149" lon="3.8372">
        <ele>64.1</ele>
        <time>2020-12-31T12:56:04Z</time>
      </trkpt>
      <trkpt lat="43.6315" lon="3.83717">
        <ele>64.1</ele>
        <time>2020-12-31T12:56:05Z</time>
      </trkpt>
      <trkpt lat="43.6315" lon="3.83714">
        <ele>64.2</ele>
        <time>2020-12-31T12:56:06Z</time>
      </trkpt>
      <trkpt lat="43.63147" lon="3.83709">
        <ele>70</ele>
        <time>2020-12-31T12:56:07Z</time>
      </trkpt>
      <trkpt lat="43.63145" lon="3.83706">
        <ele>64.5</ele>
        <time>2020-12-31T12:56:08Z</time>
      </trkpt>
      <trkpt lat="43.63142" lon="3.83703">
        <ele>64.6</ele>
        <time>2020-12-31T12:56:09Z</time>
      </trkpt>
      <trkpt lat="43.6314" lon="3.837">
        <ele>64.8</ele>
        <time>2020-12-31T12:56:10Z</time>
      </trkpt>
      <trkpt lat="43.63138" lon="3.83698">
        <ele>64.9</ele>
        <time>2020-12-31T12:56:11Z</time>
      </trkpt>
      <trkpt lat="43.63136" lon="3.83695">
        <ele>65.1</ele>
        <time>2020-12-31T12:56:12Z</time>
      </trkpt>
      <trkpt lat="43.63134" lon="3.83693">
        <ele>65.3</ele>
        <time>2020-12-31T12:56:13Z</time>
      </trkpt>
      <trkpt lat="43.63132" lon="3.8369">
        <ele>65.5</ele>
        <time>2020-12-31T12:56:14Z</time>
      </trkpt>
      <trkpt lat="43.6313" lon="3.83688">
        <ele>65.6</ele>
        <time>2020-12-31T12:56:15Z</time>
      </trkpt>
      <trkpt lat="43.63128" lon="3.83685">
        <ele>65.8</ele>
        <time>2020-12-31T12:56:16Z</time>
      </trkpt>
      <trkpt lat="43.63126" lon="3.83682">
        <ele>65.9</ele>
        <time>2020-12-31T12:56:18Z</time>
      </trkpt>
      <trkpt lat="43.63124" lon="3.8368">
        <ele>66</ele>
        <time>2020-12-31T12:56:19Z</time>
      </trkpt>
      <trkpt lat="43.63122" lon="3.83677">
        <ele>66.1</ele>
        <time>2020-12-31T12:56:20Z</time>
      </trkpt>
      <trkpt lat="43.63121" lon="3.83674">
        <ele>66.2</ele>
        <time>2020-12-31T12:56:21Z</time>
      </trkpt>
      <trkpt lat="43.63119" lon="3.8367">
        <ele>66.2</ele>
        <time>2020-12-31T12:56:22Z</time>
      </trkpt>
      <trkpt lat="43.63118" lon="3.83666">
        <ele>66.3</ele>
        <time>2020-12-31T12:56:23Z</time>
      </trkpt>
      <trkpt lat="43.63116" lon="3.83663">
        <ele>66.3</ele>
        <time>2020-12-31T12:56:24Z</time>
      </trkpt>
      <trkpt lat="43.63114" lon="3.83659">
        <ele>66.4</ele>
        <time>2020-12-31T12:56:25Z</time>
      </trkpt>
      <trkpt lat="43.63112" lon="3.83656">
        <ele>66.4</ele>
        <time>2020-12-31T12:56:26Z</time>
      </trkpt>
      <trkpt lat="43.63109" lon="3.83653">
        <ele>70</ele>
        <time>2020-12-31T12:56:27Z</time>
      </trkpt>
      <trkpt lat="43.63107" lon="3.83651">
        <ele>66.7</ele>
        <time>2020-12-31T12:56:28Z</time>
      </trkpt>
      <trkpt lat="43.63105" lon="3.83648">
        <ele>66.9</ele>
        <time>2020-12-31T12:56:29Z</time>
      </trkpt>
      <trkpt lat="43.63103" lon="3.83645">
        <ele>67.1</ele>
        <time>2020-12-31T12:56:30Z</time>
      </trkpt>
      <trkpt lat="43.63101" lon="3.83642">
        <ele>67.3</ele>
        <time>2020-12-31T12:56:31Z</time>
      </trkpt>
      <trkpt lat="43.63099" lon="3.8364">
        <ele>67.4</ele>
        <time>2020-12-31T12:56:32Z</time>
      </trkpt>
      <trkpt lat="43.63096" lon="3.83637">
        <ele>67.5</ele>
        <time>2020-12-31T12:56:33Z</time>
      </trkpt>
      <trkpt lat="43.63094" lon="3.83635">
        <ele>67.6</ele>
        <time>2020-12-31T12:56:34Z</time>
      </trkpt>
      <trkpt lat="43.63091" lon="3.83632">
        <ele>67.7</ele>
        <time>2020-12-31T12:56:35Z</time>
      </trkpt>
      <trkpt lat="43.63089" lon="3.8363">
        <ele>67.8</ele>
        <time>2020-12-31T12:56:36Z</time>
      </trkpt>
      <trkpt lat="43.63086" lon="3.83627">
        <ele>71</ele>
        <time>2020-12-31T12:56:37Z</time>
      </trkpt>
      <trkpt lat="43.63084" lon="3.83624">
        <ele>68</ele>
        <time>2020-12-31T12:56:38Z</time>
      </trkpt>
      <trkpt lat="43.63082" lon="3.83621">
        <ele>68.1</ele>
        <time>2020-12-31T12:56:39Z</time>
      </trkpt>
      <trkpt lat="43.6308" lon="3.83618">
        <ele>68.2</ele>
        <time>2020-12-31T12:56:40Z</time>
      </trkpt>
      <trkpt lat="43.63077" lon="3.83615">
        <ele>68.4</ele>
        <time>2020-12-31T12:56:41Z</time>
      </trkpt>
      <trkpt lat="43.63075" lon="3.83613">
        <ele>68.6</ele>
        <time>2020-12-31T12:56:42Z</time>
      </trkpt>
      <trkpt lat="43.63073" lon="3.8361">
        <ele>68.8</ele>
        <time>2020-12-31T12:56:43Z</time>
      </trkpt>
      <trkpt lat="43.6307" lon="3.83607">
        <ele>69</ele>
        <time>2020-12-31T12:56:44Z</time>
      </trkpt>
      <trkpt lat="43.63068" lon="3.83605">
        <ele>69.2</ele>
        <time>2020-12-31T12:56:45Z</time>
      </trkpt>
      <trkpt lat="43.63066" lon="3.83602">
        <ele>69.4</ele>
        <time>2020-12-31T12:56:46Z</time>
      </trkpt>
      <trkpt lat="43.63064" lon="3.836">
        <ele>72</ele>
        <time>2020-12-31T12:56:47Z</time>
      </trkpt>
      <trkpt lat="43.63062" lon="3.83597">
        <ele>69.7</ele>
        <time>2020-12-31T12:56:48Z</time>
      </trkpt>
      <trkpt lat="43.6306" lon="3.83595">
        <ele>69.8</ele>
        <time>2020-12-31T12:56:49Z</time>
      </trkpt>
      <trkpt lat="43.63057" lon="3.83592">
        <ele>69.9</ele>
        <time>2020-12-31T12:56:50Z</time>
      </trkpt>
      <trkpt lat="43.63055" lon="3.8359">
        <ele>70</ele>
        <time>2020-12-31T12:56:51Z</time>
      </trkpt>
      <trkpt lat="43.63053" lon="3.83588">
        <ele>70.2</ele>
        <time>2020-12-31T12:56:52Z</time>
      </trkpt>
      <trkpt lat="43.63051" lon="3.83585">
        <ele>70.3</ele>
        <time>2020-12-31T12:56:53Z</time>
      </trkpt>
      <trkpt lat="43.63048" lon="3.83582">
        <ele>70.6</ele>
        <time>2020-12-31T12:56:54Z</time>
      </trkpt>
      <trkpt lat="43.63046" lon="3.8358">
        <ele>70.8</ele>
        <time>2020-12-31T12:56:55Z</time>
      </trkpt>
      <trkpt lat="43.63044" lon="3.83577">
        <ele>71.1</ele>
        <time>2020-12-31T12:56:56Z</time>
      </trkpt>
      <trkpt lat="43.63042" lon="3.83574">
        <ele>74</ele>
        <time>2020-12-31T12:56:57Z</time>
      </trkpt>
      <trkpt lat="43.6304" lon="3.83572">
        <ele>71.5</ele>
        <time>2020-12-31T12:56:58Z</time>
      </trkpt>
      <trkpt lat="43.63037" lon="3.8357">
        <ele>71.8</ele>
        <time>2020-12-31T12:56:59Z</time>
      </trkpt>
      <trkpt lat="43.63035" lon="3.83567">
        <ele>72.1</ele>
        <time>2020-12-31T12:57:00Z</time>
      </trkpt>
      <trkpt lat="43.63033" lon="3.83564">
        <ele>72.3</ele>
        <time>2020-12-31T12:57:01Z</time>
      </trkpt>
      <trkpt lat="43.63031" lon="3.83562">
        <ele>72.5</ele>
        <time>2020-12-31T12:57:02Z</time>
      </trkpt>
      <trkpt lat="43.63029" lon="3.8356">
        <ele>72.8</ele>
        <time>2020-12-31T12:57:03Z</time>
      </trkpt>
      <trkpt lat="43.63027" lon="3.83558">
        <ele>72.9</ele>
        <time>2020-12-31T12:57:04Z</time>
      </trkpt>
      <trkpt lat="43.63025" lon="3.83556">
        <ele>73</ele>
        <time>2020-12-31T12:57:05Z</time>
      </trkpt>
      <trkpt lat="43.63023" lon="3.83554">
        <ele>73</ele>
        <time>2020-12-31T12:57:06Z</time>
      </trkpt>
      <trkpt lat="43.63021" lon="3.83551">
        <ele>75</ele>
        <time>2020-12-31T12:57:07Z</time>
      </trkpt>
      <trkpt lat="43.63021" lon="3.83546">
        <ele>72.9</ele>
        <time>2020-12-31T12:57:09Z</time>
      </trkpt>
      <trkpt lat="43.63021" lon="3.83543">
        <ele>72.9</ele>
        <time>2020-12-31T12:57:10Z</time>
      </trkpt>
      <trkpt lat="43.63022" lon="3.83539">
        <ele>72.9</ele>
        <time>2020-12-31T12:57:11Z</time>
      </trkpt>
      <trkpt lat="43.63023" lon="3.83535">
        <ele>72.9</ele>
        <time>2020-12-31T12:57:12Z</time>
      </trkpt>
      <trkpt lat="43.63025" lon="3.83532">
        <ele>72.9</ele>
        <time>2020-12-31T12:57:13Z</time>
      </trkpt>
      <trkpt lat="43.63026" lon="3.83529">
        <ele>72.9</ele>
        <time>2020-12-31T12:57:14Z</time>
      </trkpt>
      <trkpt lat="43.63026" lon="3.83525">
        <ele>73</ele>
        <time>2020-12-31T12:57:15Z</time>
      </trkpt>
      <trkpt lat="43.63027" lon="3.83522">
        <ele>73.2</ele>
        <time>2020-12-31T12:57:16Z</time>
      </trkpt>
      <trkpt lat="43.63028" lon="3.83518">
        <ele>73.3</ele>
        <time>2020-12-31T12:57:18Z</time>
      </trkpt>
      <trkpt lat="43.6303" lon="3.83514">
        <ele>73.4</ele>
        <time>2020-12-31T12:57:19Z</time>
      </trkpt>
      <trkpt lat="43.63032" lon="3.8351">
        <ele>73.5</ele>
        <time>2020-12-31T12:57:20Z</time>
      </trkpt>
      <trkpt lat="43.63034" lon="3.83506">
        <ele>73.6</ele>
        <time>2020-12-31T12:57:21Z</time>
      </trkpt>
      <trkpt lat="43.63036" lon="3.83502">
        <ele>73.6</ele>
        <time>2020-12-31T12:57:22Z</time>
      </trkpt>
      <trkpt lat="43.63038" lon="3.83498">
        <ele>73.7</ele>
        <time>2020-12-31T12:57:23Z</time>
      </trkpt>
      <trkpt lat="43.6304" lon="3.83494">
        <ele>73.7</ele>
        <time>2020-12-31T12:57:24Z</time>
      </trkpt>
      <trkpt lat="43.63043" lon="3.83491">
        <ele>73.6</ele>
        <time>2020-12-31T12:57:25Z</time>
      </trkpt>
      <trkpt lat="43.63045" lon="3.83487">
        <ele>73.6</ele>
        <time>2020-12-31T12:57:26Z</time>
      </trkpt>
      <trkpt lat="43.63047" lon="3.83483">
        <ele>75</ele>
        <time>2020-12-31T12:57:27Z</time>
      </trkpt>
      <trkpt lat="43.6305" lon="3.83479">
        <ele>73.4</ele>
        <time>2020-12-31T12:57:28Z</time>
      </trkpt>
      <trkpt lat="43.63053" lon="3.83476">
        <ele>73.2</ele>
        <time>2020-12-31T12:57:29Z</time>
      </trkpt>
      <trkpt lat="43.63056" lon="3.83472">
        <ele>73</ele>
        <time>2020-12-31T12:57:30Z</time>
      </trkpt>
      <trkpt lat="43.63059" lon="3.83469">
        <ele>73.2</ele>
        <time>2020-12-31T12:57:31Z</time>
      </trkpt>
      <trkpt lat="43.63062" lon="3.83466">
        <ele>73.3</ele>
        <time>2020-12-31T12:57:32Z</time>
      </trkpt>
      <trkpt lat="43.63064" lon="3.83463">
        <ele>73.5</ele>
        <time>2020-12-31T12:57:33Z</time>
      </trkpt>
      <trkpt lat="43.63068" lon="3.8346">
        <ele>73.5</ele>
        <time>2020-12-31T12:57:34Z</time>
      </trkpt>
      <trkpt lat="43.63071" lon="3.83457">
        <ele>73.5</ele>
        <time>2020-12-31T12:57:35Z</time>
      </trkpt>
      <trkpt lat="43.63075" lon="3.83455">
        <ele>73.4</ele>
        <time>2020-12-31T12:57:36Z</time>
      </trkpt>
      <trkpt lat="43.63078" lon="3.83452">
        <ele>76</ele>
        <time>2020-12-31T12:57:37Z</time>
      </trkpt>
      <trkpt lat="43.63081" lon="3.83449">
        <ele>73.1</ele>
        <time>2020-12-31T12:57:38Z</time>
      </trkpt>
      <trkpt lat="43.63085" lon="3.83447">
        <ele>73</ele>
        <time>2020-12-31T12:57:39Z</time>
      </trkpt>
      <trkpt lat="43.63088" lon="3.83445">
        <ele>73</ele>
        <time>2020-12-31T12:57:40Z</time>
      </trkpt>
      <trkpt lat="43.63092" lon="3.83443">
        <ele>73.1</ele>
        <time>2020-12-31T12:57:41Z</time>
      </trkpt>
      <trkpt lat="43.63095" lon="3.8344">
        <ele>73.2</ele>
        <time>2020-12-31T12:57:42Z</time>
      </trkpt>
      <trkpt lat="43.63098" lon="3.83438">
        <ele>73.2</ele>
        <time>2020-12-31T12:57:43Z</time>
      </trkpt>
      <trkpt lat="43.63101" lon="3.83436">
        <ele>73.3</ele>
        <time>2020-12-31T12:57:44Z</time>
      </trkpt>
      <trkpt lat="43.63104" lon="3.83434">
        <ele>73.4</ele>
        <time>2020-12-31T12:57:45Z</time>
      </trkpt>
      <trkpt lat="43.63105" lon="3.83432">
        <ele>73.4</ele>
        <time>2020-12-31T12:57:46Z</time>
      </trkpt>
      <trkpt lat="43.63105" lon="3.83428">
        <ele>73.6</ele>
        <time>2020-12-31T12:57:48Z</time>
      </trkpt>
      <trkpt lat="43.63105" lon="3.83426">
        <ele>73.7</ele>
        <time>2020-12-31T12:57:49Z</time>
      </trkpt>
      <trkpt lat="43.63104" lon="3.83423">
        <ele>73.8</ele>
        <time>2020-12-31T12:57:50Z</time>
      </trkpt>
      <trkpt lat="43.63102" lon="3.83419">
        <ele>73.9</ele>
        <time>2020-12-31T12:57:52Z</time>
      </trkpt>
      <trkpt lat="43.63101" lon="3.83417">
        <ele>74</ele>
        <time>2020-12-31T12:57:53Z</time>
      </trkpt>
      <trkpt lat="43.631" lon="3.83415">
        <ele>74.2</ele>
        <time>2020-12-31T12:57:54Z</time>
      </trkpt>
      <trkpt lat="43.63098" lon="3.8341">
        <ele>74.7</ele>
        <time>2020-12-31T12:57:56Z</time>
      </trkpt>
      <trkpt lat="43.63098" lon="3.83407">
        <ele>78</ele>
        <time>2020-12-31T12:57:57Z</time>
      </trkpt>
      <trkpt lat="43.63097" lon="3.83405">
        <ele>75.3</ele>
        <time>2020-12-31T12:57:58Z</time>
      </trkpt>
      <trkpt lat="43.63096" lon="3.83403">
        <ele>78</ele>
        <time>2020-12-31T12:58:04Z</time>
      </trkpt>
      <trkpt lat="43.63092" lon="3.83389">
        <ele>80</ele>
        <time>2020-12-31T12:58:19Z</time>
      </trkpt>
      <trkpt lat="43.63091" lon="3.83387">
        <ele>77.5</ele>
        <time>2020-12-31T12:58:20Z</time>
      </trkpt>
      <trkpt lat="43.6309" lon="3.83385">
        <ele>77.6</ele>
        <time>2020-12-31T12:58:22Z</time>
      </trkpt>
      <trkpt lat="43.63088" lon="3.83382">
        <ele>77.7</ele>
        <time>2020-12-31T12:58:24Z</time>
      </trkpt>
      <trkpt lat="43.63087" lon="3.83377">
        <ele>77.8</ele>
        <time>2020-12-31T12:58:26Z</time>
      </trkpt>
      <trkpt lat="43.63087" lon="3.83375">
        <ele>77.9</ele>
        <time>2020-12-31T12:58:27Z</time>
      </trkpt>
      <trkpt lat="43.63086" lon="3.83372">
        <ele>77.9</ele>
        <time>2020-12-31T12:58:28Z</time>
      </trkpt>
      <trkpt lat="43.63086" lon="3.8337">
        <ele>81</ele>
        <time>2020-12-31T12:58:29Z</time>
      </trkpt>
      <trkpt lat="43.63084" lon="3.83366">
        <ele>78</ele>
        <time>2020-12-31T12:58:31Z</time>
      </trkpt>
      <trkpt lat="43.63083" lon="3.83362">
        <ele>78</ele>
        <time>2020-12-31T12:58:33Z</time>
      </trkpt>
      <trkpt lat="43.63084" lon="3.83359">
        <ele>78</ele>
        <time>2020-12-31T12:58:34Z</time>
      </trkpt>
      <trkpt lat="43.63085" lon="3.83357">
        <ele>78</ele>
        <time>2020-12-31T12:58:35Z</time>
      </trkpt>
      <trkpt lat="43.63087" lon="3.83353">
        <ele>78</ele>
        <time>2020-12-31T12:58:37Z</time>
      </trkpt>
      <trkpt lat="43.63089" lon="3.83351">
        <ele>77.9</ele>
        <time>2020-12-31T12:58:38Z</time>
      </trkpt>
      <trkpt lat="43.63093" lon="3.83348">
        <ele>80</ele>
        <time>2020-12-31T12:58:39Z</time>
      </trkpt>
      <trkpt lat="43.63096" lon="3.83346">
        <ele>77.8</ele>
        <time>2020-12-31T12:58:40Z</time>
      </trkpt>
      <trkpt lat="43.63099" lon="3.83345">
        <ele>77.7</ele>
        <time>2020-12-31T12:58:41Z</time>
      </trkpt>
      <trkpt lat="43.63102" lon="3.83343">
        <ele>77.6</ele>
        <time>2020-12-31T12:58:42Z</time>
      </trkpt>
      <trkpt lat="43.63106" lon="3.83343">
        <ele>77.5</ele>
        <time>2020-12-31T12:58:43Z</time>
      </trkpt>
      <trkpt lat="43.63108" lon="3.83341">
        <ele>77.4</ele>
        <time>2020-12-31T12:58:44Z</time>
      </trkpt>
      <trkpt lat="43.6311" lon="3.83339">
        <ele>77.2</ele>
        <time>2020-12-31T12:58:45Z</time>
      </trkpt>
      <trkpt lat="43.6311" lon="3.83336">
        <ele>77.1</ele>
        <time>2020-12-31T12:58:46Z</time>
      </trkpt>
      <trkpt lat="43.63111" lon="3.83333">
        <ele>77</ele>
        <time>2020-12-31T12:58:47Z</time>
      </trkpt>
      <trkpt lat="43.63112" lon="3.8333">
        <ele>77.1</ele>
        <time>2020-12-31T12:58:48Z</time>
      </trkpt>
      <trkpt lat="43.63112" lon="3.83325">
        <ele>77.3</ele>
        <time>2020-12-31T12:58:50Z</time>
      </trkpt>
      <trkpt lat="43.63113" lon="3.83319">
        <ele>77.5</ele>
        <time>2020-12-31T12:58:51Z</time>
      </trkpt>
      <trkpt lat="43.63113" lon="3.83313">
        <ele>77.7</ele>
        <time>2020-12-31T12:58:52Z</time>
      </trkpt>
      <trkpt lat="43.63113" lon="3.83308">
        <ele>77.8</ele>
        <time>2020-12-31T12:58:53Z</time>
      </trkpt>
      <trkpt lat="43.63113" lon="3.83303">
        <ele>77.9</ele>
        <time>2020-12-31T12:58:54Z</time>
      </trkpt>
      <trkpt lat="43.63114" lon="3.83298">
        <ele>77.9</ele>
        <time>2020-12-31T12:58:55Z</time>
      </trkpt>
      <trkpt lat="43.63114" lon="3.83294">
        <ele>77.9</ele>
        <time>2020-12-31T12:58:56Z</time>
      </trkpt>
      <trkpt lat="43.63114" lon="3.83289">
        <ele>78</ele>
        <time>2020-12-31T12:58:57Z</time>
      </trkpt>
      <trkpt lat="43.63113" lon="3.83282">
        <ele>78</ele>
        <time>2020-12-31T12:58:58Z</time>
      </trkpt>
      <trkpt lat="43.63112" lon="3.83278">
        <ele>78</ele>
        <time>2020-12-31T12:59:00Z</time>
      </trkpt>
      <trkpt lat="43.63112" lon="3.83274">
        <ele>78.1</ele>
        <time>2020-12-31T12:59:01Z</time>
      </trkpt>
      <trkpt lat="43.63111" lon="3.8327">
        <ele>78.3</ele>
        <time>2020-12-31T12:59:02Z</time>
      </trkpt>
      <trkpt lat="43.6311" lon="3.83265">
        <ele>78.5</ele>
        <time>2020-12-31T12:59:03Z</time>
      </trkpt>
      <trkpt lat="43.6311" lon="3.83261">
        <ele>78.6</ele>
        <time>2020-12-31T12:59:04Z</time>
      </trkpt>
      <trkpt lat="43.63109" lon="3.83256">
        <ele>78.8</ele>
        <time>2020-12-31T12:59:05Z</time>
      </trkpt>
      <trkpt lat="43.63109" lon="3.83251">
        <ele>79</ele>
        <time>2020-12-31T12:59:06Z</time>
      </trkpt>
      <trkpt lat="43.63108" lon="3.83247">
        <ele>79</ele>
        <time>2020-12-31T12:59:07Z</time>
      </trkpt>
      <trkpt lat="43.63107" lon="3.83242">
        <ele>79</ele>
        <time>2020-12-31T12:59:08Z</time>
      </trkpt>
      <trkpt lat="43.63107" lon="3.83238">
        <ele>81</ele>
        <time>2020-12-31T12:59:09Z</time>
      </trkpt>
      <trkpt lat="43.63106" lon="3.83233">
        <ele>79.1</ele>
        <time>2020-12-31T12:59:10Z</time>
      </trkpt>
      <trkpt lat="43.63106" lon="3.83229">
        <ele>79.1</ele>
        <time>2020-12-31T12:59:11Z</time>
      </trkpt>
      <trkpt lat="43.63105" lon="3.83224">
        <ele>79.2</ele>
        <time>2020-12-31T12:59:12Z</time>
      </trkpt>
      <trkpt lat="43.63105" lon="3.8322">
        <ele>79.2</ele>
        <time>2020-12-31T12:59:13Z</time>
      </trkpt>
      <trkpt lat="43.63105" lon="3.83215">
        <ele>79.2</ele>
        <time>2020-12-31T12:59:14Z</time>
      </trkpt>
      <trkpt lat="43.63104" lon="3.83211">
        <ele>79.3</ele>
        <time>2020-12-31T12:59:15Z</time>
      </trkpt>
      <trkpt lat="43.63104" lon="3.83207">
        <ele>79.3</ele>
        <time>2020-12-31T12:59:16Z</time>
      </trkpt>
      <trkpt lat="43.63103" lon="3.83202">
        <ele>79.3</ele>
        <time>2020-12-31T12:59:17Z</time>
      </trkpt>
      <trkpt lat="43.63103" lon="3.83198">
        <ele>79.3</ele>
        <time>2020-12-31T12:59:18Z</time>
      </trkpt>
      <trkpt lat="43.63103" lon="3.83194">
        <ele>83</ele>
        <time>2020-12-31T12:59:19Z</time>
      </trkpt>
      <trkpt lat="43.63102" lon="3.83189">
        <ele>79.5</ele>
        <time>2020-12-31T12:59:20Z</time>
      </trkpt>
      <trkpt lat="43.63102" lon="3.83185">
        <ele>79.6</ele>
        <time>2020-12-31T12:59:21Z</time>
      </trkpt>
      <trkpt lat="43.63101" lon="3.83181">
        <ele>79.7</ele>
        <time>2020-12-31T12:59:22Z</time>
      </trkpt>
      <trkpt lat="43.631" lon="3.83178">
        <ele>79.8</ele>
        <time>2020-12-31T12:59:23Z</time>
      </trkpt>
      <trkpt lat="43.63099" lon="3.83174">
        <ele>79.9</ele>
        <time>2020-12-31T12:59:24Z</time>
      </trkpt>
      <trkpt lat="43.63098" lon="3.8317">
        <ele>79.9</ele>
        <time>2020-12-31T12:59:25Z</time>
      </trkpt>
      <trkpt lat="43.63096" lon="3.83166">
        <ele>80</ele>
        <time>2020-12-31T12:59:26Z</time>
      </trkpt>
      <trkpt lat="43.63095" lon="3.83162">
        <ele>80</ele>
        <time>2020-12-31T12:59:27Z</time>
      </trkpt>
      <trkpt lat="43.63095" lon="3.83157">
        <ele>80</ele>
        <time>2020-12-31T12:59:28Z</time>
      </trkpt>
      <trkpt lat="43.63094" lon="3.83153">
        <ele>83</ele>
        <time>2020-12-31T12:59:29Z</time>
      </trkpt>
      <trkpt lat="43.63093" lon="3.83148">
        <ele>80</ele>
        <time>2020-12-31T12:59:30Z</time>
      </trkpt>
      <trkpt lat="43.63093" lon="3.83144">
        <ele>80</ele>
        <time>2020-12-31T12:59:31Z</time>
      </trkpt>
      <trkpt lat="43.63092" lon="3.83139">
        <ele>80</ele>
        <time>2020-12-31T12:59:32Z</time>
      </trkpt>
      <trkpt lat="43.63091" lon="3.83135">
        <ele>80</ele>
        <time>2020-12-31T12:59:33Z</time>
      </trkpt>
      <trkpt lat="43.63091" lon="3.83131">
        <ele>80.1</ele>
        <time>2020-12-31T12:59:34Z</time>
      </trkpt>
      <trkpt lat="43.6309" lon="3.83127">
        <ele>80.1</ele>
        <time>2020-12-31T12:59:35Z</time>
      </trkpt>
      <trkpt lat="43.63088" lon="3.83123">
        <ele>80.1</ele>
        <time>2020-12-31T12:59:36Z</time>
      </trkpt>
      <trkpt lat="43.63086" lon="3.8312">
        <ele>80.1</ele>
        <time>2020-12-31T12:59:37Z</time>
      </trkpt>
      <trkpt lat="43.63085" lon="3.83116">
        <ele>80</ele>
        <time>2020-12-31T12:59:38Z</time>
      </trkpt>
      <trkpt lat="43.63085" lon="3.83113">
        <ele>83</ele>
        <time>2020-12-31T12:59:39Z</time>
      </trkpt>
      <trkpt lat="43.63085" lon="3.8311">
        <ele>80</ele>
        <time>2020-12-31T12:59:40Z</time>
      </trkpt>
      <trkpt lat="43.63084" lon="3.83105">
        <ele>79.8</ele>
        <time>2020-12-31T12:59:41Z</time>
      </trkpt>
      <trkpt lat="43.63083" lon="3.83101">
        <ele>79.7</ele>
        <time>2020-12-31T12:59:42Z</time>
      </trkpt>
      <trkpt lat="43.63082" lon="3.83096">
        <ele>79.5</ele>
        <time>2020-12-31T12:59:43Z</time>
      </trkpt>
      <trkpt lat="43.63081" lon="3.83092">
        <ele>79.5</ele>
        <time>2020-12-31T12:59:44Z</time>
      </trkpt>
      <trkpt lat="43.63081" lon="3.83087">
        <ele>79.3</ele>
        <time>2020-12-31T12:59:45Z</time>
      </trkpt>
      <trkpt lat="43.63082" lon="3.83083">
        <ele>79.1</ele>
        <time>2020-12-31T12:59:46Z</time>
      </trkpt>
      <trkpt lat="43.63084" lon="3.83079">
        <ele>79</ele>
        <time>2020-12-31T12:59:47Z</time>
      </trkpt>
      <trkpt lat="43.63085" lon="3.83074">
        <ele>78.9</ele>
        <time>2020-12-31T12:59:48Z</time>
      </trkpt>
      <trkpt lat="43.63085" lon="3.8307">
        <ele>82</ele>
        <time>2020-12-31T12:59:49Z</time>
      </trkpt>
      <trkpt lat="43.63084" lon="3.83066">
        <ele>79</ele>
        <time>2020-12-31T12:59:50Z</time>
      </trkpt>
      <trkpt lat="43.63082" lon="3.83064">
        <ele>79.1</ele>
        <time>2020-12-31T12:59:51Z</time>
      </trkpt>
      <trkpt lat="43.63079" lon="3.83062">
        <ele>79.3</ele>
        <time>2020-12-31T12:59:52Z</time>
      </trkpt>
      <trkpt lat="43.63076" lon="3.83061">
        <ele>79.5</ele>
        <time>2020-12-31T12:59:53Z</time>
      </trkpt>
      <trkpt lat="43.63073" lon="3.83061">
        <ele>79.7</ele>
        <time>2020-12-31T12:59:54Z</time>
      </trkpt>
      <trkpt lat="43.63069" lon="3.8306">
        <ele>80</ele>
        <time>2020-12-31T12:59:55Z</time>
      </trkpt>
      <trkpt lat="43.63065" lon="3.83059">
        <ele>80.3</ele>
        <time>2020-12-31T12:59:56Z</time>
      </trkpt>
      <trkpt lat="43.63062" lon="3.83058">
        <ele>80.5</ele>
        <time>2020-12-31T12:59:57Z</time>
      </trkpt>
      <trkpt lat="43.63058" lon="3.83056">
        <ele>80.8</ele>
        <time>2020-12-31T12:59:58Z</time>
      </trkpt>
      <trkpt lat="43.63055" lon="3.83055">
        <ele>82</ele>
        <time>2020-12-31T12:59:59Z</time>
      </trkpt>
      <trkpt lat="43.63051" lon="3.83054">
        <ele>81.2</ele>
        <time>2020-12-31T13:00:00Z</time>
      </trkpt>
      <trkpt lat="43.63048" lon="3.83053">
        <ele>81.3</ele>
        <time>2020-12-31T13:00:01Z</time>
      </trkpt>
      <trkpt lat="43.63045" lon="3.83052">
        <ele>81.4</ele>
        <time>2020-12-31T13:00:02Z</time>
      </trkpt>
      <trkpt lat="43.63041" lon="3.83051">
        <ele>81.5</ele>
        <time>2020-12-31T13:00:03Z</time>
      </trkpt>
      <trkpt lat="43.63038" lon="3.8305">
        <ele>81.6</ele>
        <time>2020-12-31T13:00:04Z</time>
      </trkpt>
      <trkpt lat="43.63035" lon="3.83049">
        <ele>81.7</ele>
        <time>2020-12-31T13:00:05Z</time>
      </trkpt>
      <trkpt lat="43.63032" lon="3.83048">
        <ele>81.8</ele>
        <time>2020-12-31T13:00:06Z</time>
      </trkpt>
      <trkpt lat="43.63029" lon="3.83047">
        <ele>82</ele>
        <time>2020-12-31T13:00:07Z</time>
      </trkpt>
      <trkpt lat="43.63026" lon="3.83046">
        <ele>82</ele>
        <time>2020-12-31T13:00:08Z</time>
      </trkpt>
      <trkpt lat="43.63022" lon="3.83045">
        <ele>83</ele>
        <time>2020-12-31T13:00:09Z</time>
      </trkpt>
      <trkpt lat="43.63019" lon="3.83044">
        <ele>81.9</ele>
        <time>2020-12-31T13:00:10Z</time>
      </trkpt>
      <trkpt lat="43.63015" lon="3.83043">
        <ele>81.8</ele>
        <time>2020-12-31T13:00:11Z</time>
      </trkpt>
      <trkpt lat="43.63012" lon="3.83042">
        <ele>81.7</ele>
        <time>2020-12-31T13:00:12Z</time>
      </trkpt>
      <trkpt lat="43.63008" lon="3.83041">
        <ele>81.6</ele>
        <time>2020-12-31T13:00:13Z</time>
      </trkpt>
      <trkpt lat="43.63005" lon="3.83041">
        <ele>81.6</ele>
        <time>2020-12-31T13:00:14Z</time>
      </trkpt>
      <trkpt lat="43.63002" lon="3.83041">
        <ele>81.5</ele>
        <time>2020-12-31T13:00:15Z</time>
      </trkpt>
      <trkpt lat="43.62999" lon="3.83041">
        <ele>81.5</ele>
        <time>2020-12-31T13:00:16Z</time>
      </trkpt>
      <trkpt lat="43.62996" lon="3.8304">
        <ele>81.4</ele>
        <time>2020-12-31T13:00:17Z</time>
      </trkpt>
      <trkpt lat="43.62992" lon="3.83039">
        <ele>81.4</ele>
        <time>2020-12-31T13:00:18Z</time>
      </trkpt>
      <trkpt lat="43.62988" lon="3.83038">
        <ele>84</ele>
        <time>2020-12-31T13:00:19Z</time>
      </trkpt>
      <trkpt lat="43.62984" lon="3.83037">
        <ele>81.3</ele>
        <time>2020-12-31T13:00:20Z</time>
      </trkpt>
      <trkpt lat="43.6298" lon="3.83036">
        <ele>81.3</ele>
        <time>2020-12-31T13:00:21Z</time>
      </trkpt>
      <trkpt lat="43.62976" lon="3.83035">
        <ele>81.3</ele>
        <time>2020-12-31T13:00:22Z</time>
      </trkpt>
      <trkpt lat="43.62973" lon="3.83034">
        <ele>81.2</ele>
        <time>2020-12-31T13:00:23Z</time>
      </trkpt>
      <trkpt lat="43.6297" lon="3.83032">
        <ele>81</ele>
        <time>2020-12-31T13:00:24Z</time>
      </trkpt>
      <trkpt lat="43.62966" lon="3.83031">
        <ele>80.7</ele>
        <time>2020-12-31T13:00:25Z</time>
      </trkpt>
      <trkpt lat="43.62962" lon="3.83029">
        <ele>80.3</ele>
        <time>2020-12-31T13:00:26Z</time>
      </trkpt>
      <trkpt lat="43.62957" lon="3.83028">
        <ele>79.9</ele>
        <time>2020-12-31T13:00:27Z</time>
      </trkpt>
      <trkpt lat="43.62953" lon="3.83027">
        <ele>79.6</ele>
        <time>2020-12-31T13:00:28Z</time>
      </trkpt>
      <trkpt lat="43.62949" lon="3.83026">
        <ele>83</ele>
        <time>2020-12-31T13:00:29Z</time>
      </trkpt>
      <trkpt lat="43.62944" lon="3.83026">
        <ele>79</ele>
        <time>2020-12-31T13:00:30Z</time>
      </trkpt>
      <trkpt lat="43.6294" lon="3.83027">
        <ele>79</ele>
        <time>2020-12-31T13:00:31Z</time>
      </trkpt>
      <trkpt lat="43.62936" lon="3.83028">
        <ele>79</ele>
        <time>2020-12-31T13:00:32Z</time>
      </trkpt>
      <trkpt lat="43.62932" lon="3.83031">
        <ele>83</ele>
        <time>2020-12-31T13:00:33Z</time>
      </trkpt>
      <trkpt lat="43.62924" lon="3.83035">
        <ele>79.3</ele>
        <time>2020-12-31T13:00:34Z</time>
      </trkpt>
      <trkpt lat="43.62921" lon="3.83038">
        <ele>79.4</ele>
        <time>2020-12-31T13:00:36Z</time>
      </trkpt>
      <trkpt lat="43.62917" lon="3.83041">
        <ele>79.5</ele>
        <time>2020-12-31T13:00:37Z</time>
      </trkpt>
      <trkpt lat="43.62914" lon="3.83045">
        <ele>79.6</ele>
        <time>2020-12-31T13:00:38Z</time>
      </trkpt>
      <trkpt lat="43.6291" lon="3.83048">
        <ele>83</ele>
        <time>2020-12-31T13:00:39Z</time>
      </trkpt>
      <trkpt lat="43.62907" lon="3.83051">
        <ele>79.8</ele>
        <time>2020-12-31T13:00:40Z</time>
      </trkpt>
      <trkpt lat="43.62904" lon="3.83052">
        <ele>79.8</ele>
        <time>2020-12-31T13:00:41Z</time>
      </trkpt>
      <trkpt lat="43.62901" lon="3.83055">
        <ele>80</ele>
        <time>2020-12-31T13:00:42Z</time>
      </trkpt>
      <trkpt lat="43.62899" lon="3.83058">
        <ele>80.2</ele>
        <time>2020-12-31T13:00:43Z</time>
      </trkpt>
      <trkpt lat="43.62898" lon="3.83062">
        <ele>80.6</ele>
        <time>2020-12-31T13:00:44Z</time>
      </trkpt>
      <trkpt lat="43.62898" lon="3.83066">
        <ele>81</ele>
        <time>2020-12-31T13:00:45Z</time>
      </trkpt>
      <trkpt lat="43.62898" lon="3.8307">
        <ele>81.4</ele>
        <time>2020-12-31T13:00:46Z</time>
      </trkpt>
      <trkpt lat="43.62899" lon="3.83074">
        <ele>81.8</ele>
        <time>2020-12-31T13:00:47Z</time>
      </trkpt>
      <trkpt lat="43.629" lon="3.83078">
        <ele>82.1</ele>
        <time>2020-12-31T13:00:48Z</time>
      </trkpt>
      <trkpt lat="43.629" lon="3.83082">
        <ele>84</ele>
        <time>2020-12-31T13:00:49Z</time>
      </trkpt>
      <trkpt lat="43.629" lon="3.83086">
        <ele>82.6</ele>
        <time>2020-12-31T13:00:50Z</time>
      </trkpt>
      <trkpt lat="43.62901" lon="3.83089">
        <ele>82.7</ele>
        <time>2020-12-31T13:00:51Z</time>
      </trkpt>
      <trkpt lat="43.629" lon="3.83092">
        <ele>82.7</ele>
        <time>2020-12-31T13:00:52Z</time>
      </trkpt>
      <trkpt lat="43.62898" lon="3.83093">
        <ele>82.8</ele>
        <time>2020-12-31T13:00:53Z</time>
      </trkpt>
      <trkpt lat="43.62896" lon="3.83092">
        <ele>82.8</ele>
        <time>2020-12-31T13:00:54Z</time>
      </trkpt>
      <trkpt lat="43.62893" lon="3.83091">
        <ele>82.9</ele>
        <time>2020-12-31T13:00:55Z</time>
      </trkpt>
      <trkpt lat="43.62891" lon="3.8309">
        <ele>82.9</ele>
        <time>2020-12-31T13:00:56Z</time>
      </trkpt>
      <trkpt lat="43.62888" lon="3.83089">
        <ele>83</ele>
        <time>2020-12-31T13:00:57Z</time>
      </trkpt>
      <trkpt lat="43.62886" lon="3.83088">
        <ele>83</ele>
        <time>2020-12-31T13:00:58Z</time>
      </trkpt>
      <trkpt lat="43.62883" lon="3.83087">
        <ele>84</ele>
        <time>2020-12-31T13:00:59Z</time>
      </trkpt>
      <trkpt lat="43.62879" lon="3.83086">
        <ele>83</ele>
        <time>2020-12-31T13:01:00Z</time>
      </trkpt>
      <trkpt lat="43.62876" lon="3.83086">
        <ele>83</ele>
        <time>2020-12-31T13:01:01Z</time>
      </trkpt>
      <trkpt lat="43.62873" lon="3.83086">
        <ele>83.1</ele>
        <time>2020-12-31T13:01:02Z</time>
      </trkpt>
      <trkpt lat="43.6287" lon="3.83087">
        <ele>83.1</ele>
        <time>2020-12-31T13:01:03Z</time>
      </trkpt>
      <trkpt lat="43.62866" lon="3.83086">
        <ele>83.1</ele>
        <time>2020-12-31T13:01:04Z</time>
      </trkpt>
      <trkpt lat="43.62863" lon="3.83084">
        <ele>83</ele>
        <time>2020-12-31T13:01:05Z</time>
      </trkpt>
      <trkpt lat="43.62859" lon="3.83084">
        <ele>83.1</ele>
        <time>2020-12-31T13:01:06Z</time>
      </trkpt>
      <trkpt lat="43.62856" lon="3.83084">
        <ele>83.2</ele>
        <time>2020-12-31T13:01:07Z</time>
      </trkpt>
      <trkpt lat="43.62853" lon="3.83084">
        <ele>83.3</ele>
        <time>2020-12-31T13:01:08Z</time>
      </trkpt>
      <trkpt lat="43.6285" lon="3.83085">
        <ele>85</ele>
        <time>2020-12-31T13:01:09Z</time>
      </trkpt>
      <trkpt lat="43.62847" lon="3.83086">
        <ele>83.6</ele>
        <time>2020-12-31T13:01:10Z</time>
      </trkpt>
      <trkpt lat="43.62844" lon="3.83087">
        <ele>83.7</ele>
        <time>2020-12-31T13:01:11Z</time>
      </trkpt>
      <trkpt lat="43.62841" lon="3.83088">
        <ele>83.9</ele>
        <time>2020-12-31T13:01:12Z</time>
      </trkpt>
      <trkpt lat="43.62837" lon="3.83088">
        <ele>84</ele>
        <time>2020-12-31T13:01:13Z</time>
      </trkpt>
      <trkpt lat="43.62834" lon="3.83088">
        <ele>84.1</ele>
        <time>2020-12-31T13:01:14Z</time>
      </trkpt>
      <trkpt lat="43.62831" lon="3.83088">
        <ele>84.2</ele>
        <time>2020-12-31T13:01:15Z</time>
      </trkpt>
      <trkpt lat="43.62828" lon="3.83089">
        <ele>84.2</ele>
        <time>2020-12-31T13:01:16Z</time>
      </trkpt>
      <trkpt lat="43.62825" lon="3.83089">
        <ele>84.2</ele>
        <time>2020-12-31T13:01:17Z</time>
      </trkpt>
      <trkpt lat="43.62822" lon="3.83089">
        <ele>84.2</ele>
        <time>2020-12-31T13:01:18Z</time>
      </trkpt>
      <trkpt lat="43.62819" lon="3.83089">
        <ele>86</ele>
        <time>2020-12-31T13:01:19Z</time>
      </trkpt>
      <trkpt lat="43.62816" lon="3.8309">
        <ele>84.2</ele>
        <time>2020-12-31T13:01:20Z</time>
      </trkpt>
      <trkpt lat="43.62813" lon="3.83091">
        <ele>84.3</ele>
        <time>2020-12-31T13:01:21Z</time>
      </trkpt>
      <trkpt lat="43.6281" lon="3.83092">
        <ele>84.3</ele>
        <time>2020-12-31T13:01:22Z</time>
      </trkpt>
      <trkpt lat="43.62807" lon="3.83093">
        <ele>84.3</ele>
        <time>2020-12-31T13:01:23Z</time>
      </trkpt>
      <trkpt lat="43.62804" lon="3.83094">
        <ele>84.5</ele>
        <time>2020-12-31T13:01:24Z</time>
      </trkpt>
      <trkpt lat="43.62798" lon="3.83096">
        <ele>84.8</ele>
        <time>2020-12-31T13:01:25Z</time>
      </trkpt>
      <trkpt lat="43.62796" lon="3.83097">
        <ele>84.8</ele>
        <time>2020-12-31T13:01:26Z</time>
      </trkpt>
      <trkpt lat="43.62793" lon="3.83098">
        <ele>85</ele>
        <time>2020-12-31T13:01:27Z</time>
      </trkpt>
      <trkpt lat="43.6279" lon="3.83098">
        <ele>85.1</ele>
        <time>2020-12-31T13:01:28Z</time>
      </trkpt>
      <trkpt lat="43.62788" lon="3.83099">
        <ele>85.1</ele>
        <time>2020-12-31T13:01:30Z</time>
      </trkpt>
      <trkpt lat="43.62785" lon="3.83099">
        <ele>85.2</ele>
        <time>2020-12-31T13:01:31Z</time>
      </trkpt>
      <trkpt lat="43.62782" lon="3.83099">
        <ele>85.3</ele>
        <time>2020-12-31T13:01:32Z</time>
      </trkpt>
      <trkpt lat="43.6278" lon="3.83099">
        <ele>85.4</ele>
        <time>2020-12-31T13:01:33Z</time>
      </trkpt>
      <trkpt lat="43.62777" lon="3.83099">
        <ele>85.5</ele>
        <time>2020-12-31T13:01:34Z</time>
      </trkpt>
      <trkpt lat="43.62775" lon="3.83099">
        <ele>85.5</ele>
        <time>2020-12-31T13:01:35Z</time>
      </trkpt>
      <trkpt lat="43.62773" lon="3.83099">
        <ele>85.5</ele>
        <time>2020-12-31T13:01:36Z</time>
      </trkpt>
      <trkpt lat="43.62771" lon="3.831">
        <ele>85.5</ele>
        <time>2020-12-31T13:01:37Z</time>
      </trkpt>
      <trkpt lat="43.62769" lon="3.831">
        <ele>85.6</ele>
        <time>2020-12-31T13:01:38Z</time>
      </trkpt>
      <trkpt lat="43.62767" lon="3.831">
        <ele>89</ele>
        <time>2020-12-31T13:01:39Z</time>
      </trkpt>
      <trkpt lat="43.62764" lon="3.83101">
        <ele>85.7</ele>
        <time>2020-12-31T13:01:40Z</time>
      </trkpt>
      <trkpt lat="43.62762" lon="3.83101">
        <ele>85.7</ele>
        <time>2020-12-31T13:01:41Z</time>
      </trkpt>
      <trkpt lat="43.62759" lon="3.83102">
        <ele>85.8</ele>
        <time>2020-12-31T13:01:42Z</time>
      </trkpt>
      <trkpt lat="43.62757" lon="3.83103">
        <ele>85.8</ele>
        <time>2020-12-31T13:01:43Z</time>
      </trkpt>
      <trkpt lat="43.62754" lon="3.83104">
        <ele>85.9</ele>
        <time>2020-12-31T13:01:44Z</time>
      </trkpt>
      <trkpt lat="43.62751" lon="3.83105">
        <ele>86</ele>
        <time>2020-12-31T13:01:45Z</time>
      </trkpt>
      <trkpt lat="43.62749" lon="3.83106">
        <ele>86</ele>
        <time>2020-12-31T13:01:46Z</time>
      </trkpt>
      <trkpt lat="43.62746" lon="3.83107">
        <ele>86</ele>
        <time>2020-12-31T13:01:47Z</time>
      </trkpt>
      <trkpt lat="43.62743" lon="3.83108">
        <ele>86</ele>
        <time>2020-12-31T13:01:48Z</time>
      </trkpt>
      <trkpt lat="43.6274" lon="3.83109">
        <ele>89</ele>
        <time>2020-12-31T13:01:49Z</time>
      </trkpt>
      <trkpt lat="43.62735" lon="3.83112">
        <ele>86</ele>
        <time>2020-12-31T13:01:50Z</time>
      </trkpt>
      <trkpt lat="43.6273" lon="3.83114">
        <ele>85.9</ele>
        <time>2020-12-31T13:01:52Z</time>
      </trkpt>
      <trkpt lat="43.62727" lon="3.83116">
        <ele>85.8</ele>
        <time>2020-12-31T13:01:53Z</time>
      </trkpt>
      <trkpt lat="43.62724" lon="3.83118">
        <ele>85.8</ele>
        <time>2020-12-31T13:01:54Z</time>
      </trkpt>
      <trkpt lat="43.62721" lon="3.8312">
        <ele>85.6</ele>
        <time>2020-12-31T13:01:55Z</time>
      </trkpt>
      <trkpt lat="43.62718" lon="3.83121">
        <ele>85.4</ele>
        <time>2020-12-31T13:01:56Z</time>
      </trkpt>
      <trkpt lat="43.62715" lon="3.83123">
        <ele>85.2</ele>
        <time>2020-12-31T13:01:57Z</time>
      </trkpt>
      <trkpt lat="43.62711" lon="3.83125">
        <ele>89</ele>
        <time>2020-12-31T13:01:59Z</time>
      </trkpt>
      <trkpt lat="43.62708" lon="3.83127">
        <ele>84.7</ele>
        <time>2020-12-31T13:02:00Z</time>
      </trkpt>
      <trkpt lat="43.62704" lon="3.8313">
        <ele>84.5</ele>
        <time>2020-12-31T13:02:01Z</time>
      </trkpt>
      <trkpt lat="43.62701" lon="3.83132">
        <ele>84.3</ele>
        <time>2020-12-31T13:02:02Z</time>
      </trkpt>
      <trkpt lat="43.62698" lon="3.83134">
        <ele>84.2</ele>
        <time>2020-12-31T13:02:03Z</time>
      </trkpt>
      <trkpt lat="43.62694" lon="3.83137">
        <ele>84</ele>
        <time>2020-12-31T13:02:04Z</time>
      </trkpt>
      <trkpt lat="43.6269" lon="3.83139">
        <ele>83.8</ele>
        <time>2020-12-31T13:02:05Z</time>
      </trkpt>
      <trkpt lat="43.62687" lon="3.83142">
        <ele>83.6</ele>
        <time>2020-12-31T13:02:06Z</time>
      </trkpt>
      <trkpt lat="43.62683" lon="3.83144">
        <ele>83.4</ele>
        <time>2020-12-31T13:02:07Z</time>
      </trkpt>
      <trkpt lat="43.6268" lon="3.83147">
        <ele>83.2</ele>
        <time>2020-12-31T13:02:08Z</time>
      </trkpt>
      <trkpt lat="43.62673" lon="3.83153">
        <ele>87</ele>
        <time>2020-12-31T13:02:09Z</time>
      </trkpt>
      <trkpt lat="43.62668" lon="3.83159">
        <ele>82.3</ele>
        <time>2020-12-31T13:02:11Z</time>
      </trkpt>
      <trkpt lat="43.62666" lon="3.83162">
        <ele>82.1</ele>
        <time>2020-12-31T13:02:12Z</time>
      </trkpt>
      <trkpt lat="43.62664" lon="3.83164">
        <ele>82</ele>
        <time>2020-12-31T13:02:13Z</time>
      </trkpt>
      <trkpt lat="43.62662" lon="3.83166">
        <ele>81.9</ele>
        <time>2020-12-31T13:02:15Z</time>
      </trkpt>
      <trkpt lat="43.6266" lon="3.83168">
        <ele>81.8</ele>
        <time>2020-12-31T13:02:16Z</time>
      </trkpt>
      <trkpt lat="43.62657" lon="3.8317">
        <ele>81.7</ele>
        <time>2020-12-31T13:02:17Z</time>
      </trkpt>
      <trkpt lat="43.62655" lon="3.83172">
        <ele>81.6</ele>
        <time>2020-12-31T13:02:18Z</time>
      </trkpt>
      <trkpt lat="43.62652" lon="3.83174">
        <ele>86</ele>
        <time>2020-12-31T13:02:19Z</time>
      </trkpt>
      <trkpt lat="43.62649" lon="3.83176">
        <ele>81.4</ele>
        <time>2020-12-31T13:02:20Z</time>
      </trkpt>
      <trkpt lat="43.62646" lon="3.83178">
        <ele>81.3</ele>
        <time>2020-12-31T13:02:21Z</time>
      </trkpt>
      <trkpt lat="43.62643" lon="3.8318">
        <ele>81.1</ele>
        <time>2020-12-31T13:02:22Z</time>
      </trkpt>
      <trkpt lat="43.62639" lon="3.83183">
        <ele>81</ele>
        <time>2020-12-31T13:02:23Z</time>
      </trkpt>
      <trkpt lat="43.62636" lon="3.83185">
        <ele>80.9</ele>
        <time>2020-12-31T13:02:24Z</time>
      </trkpt>
      <trkpt lat="43.62632" lon="3.83188">
        <ele>80.7</ele>
        <time>2020-12-31T13:02:25Z</time>
      </trkpt>
      <trkpt lat="43.62628" lon="3.83191">
        <ele>80.6</ele>
        <time>2020-12-31T13:02:26Z</time>
      </trkpt>
      <trkpt lat="43.62625" lon="3.83193">
        <ele>80.5</ele>
        <time>2020-12-31T13:02:27Z</time>
      </trkpt>
      <trkpt lat="43.62622" lon="3.83196">
        <ele>80.4</ele>
        <time>2020-12-31T13:02:28Z</time>
      </trkpt>
      <trkpt lat="43.62618" lon="3.83198">
        <ele>84</ele>
        <time>2020-12-31T13:02:29Z</time>
      </trkpt>
      <trkpt lat="43.62615" lon="3.83201">
        <ele>80.1</ele>
        <time>2020-12-31T13:02:30Z</time>
      </trkpt>
      <trkpt lat="43.62611" lon="3.83203">
        <ele>80</ele>
        <time>2020-12-31T13:02:31Z</time>
      </trkpt>
      <trkpt lat="43.62607" lon="3.83205">
        <ele>79.8</ele>
        <time>2020-12-31T13:02:32Z</time>
      </trkpt>
      <trkpt lat="43.62603" lon="3.83208">
        <ele>79.6</ele>
        <time>2020-12-31T13:02:33Z</time>
      </trkpt>
      <trkpt lat="43.62599" lon="3.8321">
        <ele>79.4</ele>
        <time>2020-12-31T13:02:34Z</time>
      </trkpt>
      <trkpt lat="43.62595" lon="3.83213">
        <ele>79.2</ele>
        <time>2020-12-31T13:02:35Z</time>
      </trkpt>
      <trkpt lat="43.62591" lon="3.83215">
        <ele>79.1</ele>
        <time>2020-12-31T13:02:36Z</time>
      </trkpt>
      <trkpt lat="43.62587" lon="3.83218">
        <ele>79</ele>
        <time>2020-12-31T13:02:37Z</time>
      </trkpt>
      <trkpt lat="43.62582" lon="3.83221">
        <ele>78.9</ele>
        <time>2020-12-31T13:02:38Z</time>
      </trkpt>
      <trkpt lat="43.62579" lon="3.83225">
        <ele>82</ele>
        <time>2020-12-31T13:02:39Z</time>
      </trkpt>
      <trkpt lat="43.62577" lon="3.83229">
        <ele>78.8</ele>
        <time>2020-12-31T13:02:40Z</time>
      </trkpt>
      <trkpt lat="43.62574" lon="3.83231">
        <ele>78.7</ele>
        <time>2020-12-31T13:02:41Z</time>
      </trkpt>
      <trkpt lat="43.62571" lon="3.83232">
        <ele>78.6</ele>
        <time>2020-12-31T13:02:42Z</time>
      </trkpt>
      <trkpt lat="43.62567" lon="3.83232">
        <ele>78.4</ele>
        <time>2020-12-31T13:02:43Z</time>
      </trkpt>
      <trkpt lat="43.62564" lon="3.83233">
        <ele>78.3</ele>
        <time>2020-12-31T13:02:44Z</time>
      </trkpt>
      <trkpt lat="43.6256" lon="3.83233">
        <ele>78.2</ele>
        <time>2020-12-31T13:02:45Z</time>
      </trkpt>
      <trkpt lat="43.62556" lon="3.83233">
        <ele>78</ele>
        <time>2020-12-31T13:02:46Z</time>
      </trkpt>
      <trkpt lat="43.62552" lon="3.83234">
        <ele>77.7</ele>
        <time>2020-12-31T13:02:47Z</time>
      </trkpt>
      <trkpt lat="43.6255" lon="3.83238">
        <ele>77.6</ele>
        <time>2020-12-31T13:02:48Z</time>
      </trkpt>
      <trkpt lat="43.62549" lon="3.83241">
        <ele>81</ele>
        <time>2020-12-31T13:02:49Z</time>
      </trkpt>
      <trkpt lat="43.62548" lon="3.83245">
        <ele>77.5</ele>
        <time>2020-12-31T13:02:50Z</time>
      </trkpt>
      <trkpt lat="43.62547" lon="3.83249">
        <ele>77.4</ele>
        <time>2020-12-31T13:02:51Z</time>
      </trkpt>
      <trkpt lat="43.62546" lon="3.83252">
        <ele>77.3</ele>
        <time>2020-12-31T13:02:52Z</time>
      </trkpt>
      <trkpt lat="43.62545" lon="3.83256">
        <ele>77.2</ele>
        <time>2020-12-31T13:02:53Z</time>
      </trkpt>
      <trkpt lat="43.62545" lon="3.83259">
        <ele>77.2</ele>
        <time>2020-12-31T13:02:54Z</time>
      </trkpt>
      <trkpt lat="43.62544" lon="3.83264">
        <ele>77.2</ele>
        <time>2020-12-31T13:02:56Z</time>
      </trkpt>
      <trkpt lat="43.62543" lon="3.83267">
        <ele>77.1</ele>
        <time>2020-12-31T13:02:57Z</time>
      </trkpt>
      <trkpt lat="43.62542" lon="3.83271">
        <ele>77</ele>
        <time>2020-12-31T13:03:00Z</time>
      </trkpt>
      <trkpt lat="43.6254" lon="3.83274">
        <ele>76.9</ele>
        <time>2020-12-31T13:03:01Z</time>
      </trkpt>
      <trkpt lat="43.62539" lon="3.83278">
        <ele>76.8</ele>
        <time>2020-12-31T13:03:02Z</time>
      </trkpt>
      <trkpt lat="43.62538" lon="3.83282">
        <ele>76.7</ele>
        <time>2020-12-31T13:03:03Z</time>
      </trkpt>
      <trkpt lat="43.62537" lon="3.83286">
        <ele>76.7</ele>
        <time>2020-12-31T13:03:04Z</time>
      </trkpt>
      <trkpt lat="43.62536" lon="3.8329">
        <ele>76.6</ele>
        <time>2020-12-31T13:03:05Z</time>
      </trkpt>
      <trkpt lat="43.62535" lon="3.83294">
        <ele>76.5</ele>
        <time>2020-12-31T13:03:06Z</time>
      </trkpt>
      <trkpt lat="43.62534" lon="3.83298">
        <ele>76.4</ele>
        <time>2020-12-31T13:03:07Z</time>
      </trkpt>
      <trkpt lat="43.62532" lon="3.83302">
        <ele>76.3</ele>
        <time>2020-12-31T13:03:08Z</time>
      </trkpt>
      <trkpt lat="43.62531" lon="3.83305">
        <ele>80</ele>
        <time>2020-12-31T13:03:09Z</time>
      </trkpt>
      <trkpt lat="43.62531" lon="3.83308">
        <ele>76.2</ele>
        <time>2020-12-31T13:03:10Z</time>
      </trkpt>
      <trkpt lat="43.6253" lon="3.83312">
        <ele>76.2</ele>
        <time>2020-12-31T13:03:11Z</time>
      </trkpt>
      <trkpt lat="43.62529" lon="3.83315">
        <ele>76.1</ele>
        <time>2020-12-31T13:03:12Z</time>
      </trkpt>
      <trkpt lat="43.62528" lon="3.83318">
        <ele>76</ele>
        <time>2020-12-31T13:03:13Z</time>
      </trkpt>
      <trkpt lat="43.62527" lon="3.83322">
        <ele>76</ele>
        <time>2020-12-31T13:03:14Z</time>
      </trkpt>
      <trkpt lat="43.62526" lon="3.83327">
        <ele>75.9</ele>
        <time>2020-12-31T13:03:15Z</time>
      </trkpt>
      <trkpt lat="43.62525" lon="3.83331">
        <ele>75.9</ele>
        <time>2020-12-31T13:03:16Z</time>
      </trkpt>
      <trkpt lat="43.62524" lon="3.83336">
        <ele>75.9</ele>
        <time>2020-12-31T13:03:17Z</time>
      </trkpt>
      <trkpt lat="43.62522" lon="3.83341">
        <ele>75.8</ele>
        <time>2020-12-31T13:03:18Z</time>
      </trkpt>
      <trkpt lat="43.62521" lon="3.83345">
        <ele>79</ele>
        <time>2020-12-31T13:03:19Z</time>
      </trkpt>
      <trkpt lat="43.62519" lon="3.8335">
        <ele>75.7</ele>
        <time>2020-12-31T13:03:20Z</time>
      </trkpt>
      <trkpt lat="43.62518" lon="3.83355">
        <ele>75.6</ele>
        <time>2020-12-31T13:03:21Z</time>
      </trkpt>
      <trkpt lat="43.62516" lon="3.83359">
        <ele>75.6</ele>
        <time>2020-12-31T13:03:22Z</time>
      </trkpt>
      <trkpt lat="43.62515" lon="3.83363">
        <ele>75.6</ele>
        <time>2020-12-31T13:03:23Z</time>
      </trkpt>
      <trkpt lat="43.62514" lon="3.83368">
        <ele>75.6</ele>
        <time>2020-12-31T13:03:24Z</time>
      </trkpt>
      <trkpt lat="43.62512" lon="3.83373">
        <ele>75.6</ele>
        <time>2020-12-31T13:03:25Z</time>
      </trkpt>
      <trkpt lat="43.6251" lon="3.83377">
        <ele>75.6</ele>
        <time>2020-12-31T13:03:26Z</time>
      </trkpt>
      <trkpt lat="43.62508" lon="3.83382">
        <ele>75.5</ele>
        <time>2020-12-31T13:03:27Z</time>
      </trkpt>
      <trkpt lat="43.62506" lon="3.83386">
        <ele>75.4</ele>
        <time>2020-12-31T13:03:28Z</time>
      </trkpt>
      <trkpt lat="43.62505" lon="3.83391">
        <ele>78</ele>
        <time>2020-12-31T13:03:29Z</time>
      </trkpt>
      <trkpt lat="43.62503" lon="3.83396">
        <ele>75</ele>
        <time>2020-12-31T13:03:30Z</time>
      </trkpt>
      <trkpt lat="43.62502" lon="3.83402">
        <ele>74.7</ele>
        <time>2020-12-31T13:03:31Z</time>
      </trkpt>
      <trkpt lat="43.625" lon="3.83407">
        <ele>74.3</ele>
        <time>2020-12-31T13:03:32Z</time>
      </trkpt>
      <trkpt lat="43.62498" lon="3.83412">
        <ele>74.2</ele>
        <time>2020-12-31T13:03:33Z</time>
      </trkpt>
      <trkpt lat="43.62496" lon="3.83417">
        <ele>74.1</ele>
        <time>2020-12-31T13:03:34Z</time>
      </trkpt>
      <trkpt lat="43.62495" lon="3.83421">
        <ele>74.1</ele>
        <time>2020-12-31T13:03:35Z</time>
      </trkpt>
      <trkpt lat="43.62494" lon="3.83425">
        <ele>74.1</ele>
        <time>2020-12-31T13:03:36Z</time>
      </trkpt>
      <trkpt lat="43.62492" lon="3.83429">
        <ele>74</ele>
        <time>2020-12-31T13:03:37Z</time>
      </trkpt>
      <trkpt lat="43.62489" lon="3.83431">
        <ele>74</ele>
        <time>2020-12-31T13:03:38Z</time>
      </trkpt>
      <trkpt lat="43.62485" lon="3.83431">
        <ele>78</ele>
        <time>2020-12-31T13:03:39Z</time>
      </trkpt>
      <trkpt lat="43.62482" lon="3.8343">
        <ele>74</ele>
        <time>2020-12-31T13:03:40Z</time>
      </trkpt>
      <trkpt lat="43.62479" lon="3.83428">
        <ele>74.1</ele>
        <time>2020-12-31T13:03:41Z</time>
      </trkpt>
      <trkpt lat="43.62476" lon="3.83427">
        <ele>74.2</ele>
        <time>2020-12-31T13:03:42Z</time>
      </trkpt>
      <trkpt lat="43.62472" lon="3.83425">
        <ele>74.4</ele>
        <time>2020-12-31T13:03:43Z</time>
      </trkpt>
      <trkpt lat="43.62469" lon="3.83423">
        <ele>74.4</ele>
        <time>2020-12-31T13:03:44Z</time>
      </trkpt>
      <trkpt lat="43.62466" lon="3.83421">
        <ele>74.4</ele>
        <time>2020-12-31T13:03:45Z</time>
      </trkpt>
      <trkpt lat="43.62463" lon="3.8342">
        <ele>74.4</ele>
        <time>2020-12-31T13:03:46Z</time>
      </trkpt>
      <trkpt lat="43.6246" lon="3.83418">
        <ele>74.4</ele>
        <time>2020-12-31T13:03:47Z</time>
      </trkpt>
      <trkpt lat="43.62457" lon="3.83417">
        <ele>74.4</ele>
        <time>2020-12-31T13:03:48Z</time>
      </trkpt>
      <trkpt lat="43.62454" lon="3.83416">
        <ele>78</ele>
        <time>2020-12-31T13:03:49Z</time>
      </trkpt>
      <trkpt lat="43.62451" lon="3.83416">
        <ele>74.2</ele>
        <time>2020-12-31T13:03:50Z</time>
      </trkpt>
      <trkpt lat="43.62447" lon="3.83418">
        <ele>74</ele>
        <time>2020-12-31T13:03:51Z</time>
      </trkpt>
      <trkpt lat="43.62444" lon="3.8342">
        <ele>73.6</ele>
        <time>2020-12-31T13:03:52Z</time>
      </trkpt>
      <trkpt lat="43.62441" lon="3.83423">
        <ele>73</ele>
        <time>2020-12-31T13:03:53Z</time>
      </trkpt>
      <trkpt lat="43.62439" lon="3.83426">
        <ele>72.5</ele>
        <time>2020-12-31T13:03:54Z</time>
      </trkpt>
      <trkpt lat="43.62436" lon="3.83429">
        <ele>72.1</ele>
        <time>2020-12-31T13:03:55Z</time>
      </trkpt>
      <trkpt lat="43.62434" lon="3.83433">
        <ele>71.8</ele>
        <time>2020-12-31T13:03:56Z</time>
      </trkpt>
      <trkpt lat="43.62432" lon="3.83436">
        <ele>71.7</ele>
        <time>2020-12-31T13:03:57Z</time>
      </trkpt>
      <trkpt lat="43.62429" lon="3.8344">
        <ele>71.6</ele>
        <time>2020-12-31T13:03:58Z</time>
      </trkpt>
      <trkpt lat="43.62427" lon="3.83444">
        <ele>79</ele>
        <time>2020-12-31T13:03:59Z</time>
      </trkpt>
      <trkpt lat="43.62424" lon="3.83448">
        <ele>72.1</ele>
        <time>2020-12-31T13:04:00Z</time>
      </trkpt>
      <trkpt lat="43.62422" lon="3.83452">
        <ele>72.5</ele>
        <time>2020-12-31T13:04:01Z</time>
      </trkpt>
      <trkpt lat="43.62419" lon="3.83455">
        <ele>73</ele>
        <time>2020-12-31T13:04:02Z</time>
      </trkpt>
      <trkpt lat="43.62416" lon="3.83457">
        <ele>73.4</ele>
        <time>2020-12-31T13:04:03Z</time>
      </trkpt>
      <trkpt lat="43.62412" lon="3.83457">
        <ele>73.7</ele>
        <time>2020-12-31T13:04:04Z</time>
      </trkpt>
      <trkpt lat="43.62409" lon="3.83456">
        <ele>73.9</ele>
        <time>2020-12-31T13:04:05Z</time>
      </trkpt>
      <trkpt lat="43.62405" lon="3.83454">
        <ele>74.1</ele>
        <time>2020-12-31T13:04:06Z</time>
      </trkpt>
      <trkpt lat="43.62402" lon="3.83453">
        <ele>74.4</ele>
        <time>2020-12-31T13:04:07Z</time>
      </trkpt>
      <trkpt lat="43.62398" lon="3.83451">
        <ele>74.8</ele>
        <time>2020-12-31T13:04:08Z</time>
      </trkpt>
      <trkpt lat="43.62394" lon="3.8345">
        <ele>78</ele>
        <time>2020-12-31T13:04:09Z</time>
      </trkpt>
      <trkpt lat="43.6239" lon="3.83448">
        <ele>75.7</ele>
        <time>2020-12-31T13:04:10Z</time>
      </trkpt>
      <trkpt lat="43.62387" lon="3.83447">
        <ele>75.9</ele>
        <time>2020-12-31T13:04:11Z</time>
      </trkpt>
      <trkpt lat="43.62383" lon="3.83445">
        <ele>76</ele>
        <time>2020-12-31T13:04:12Z</time>
      </trkpt>
      <trkpt lat="43.62379" lon="3.83443">
        <ele>75.7</ele>
        <time>2020-12-31T13:04:13Z</time>
      </trkpt>
      <trkpt lat="43.62375" lon="3.83442">
        <ele>75.6</ele>
        <time>2020-12-31T13:04:14Z</time>
      </trkpt>
      <trkpt lat="43.62371" lon="3.8344">
        <ele>75.3</ele>
        <time>2020-12-31T13:04:15Z</time>
      </trkpt>
      <trkpt lat="43.62367" lon="3.83439">
        <ele>75.3</ele>
        <time>2020-12-31T13:04:16Z</time>
      </trkpt>
      <trkpt lat="43.62363" lon="3.83438">
        <ele>75.3</ele>
        <time>2020-12-31T13:04:17Z</time>
      </trkpt>
      <trkpt lat="43.62359" lon="3.83438">
        <ele>75.3</ele>
        <time>2020-12-31T13:04:18Z</time>
      </trkpt>
      <trkpt lat="43.62355" lon="3.83437">
        <ele>78</ele>
        <time>2020-12-31T13:04:19Z</time>
      </trkpt>
      <trkpt lat="43.62348" lon="3.83438">
        <ele>75.2</ele>
        <time>2020-12-31T13:04:20Z</time>
      </trkpt>
      <trkpt lat="43.62344" lon="3.83439">
        <ele>75.3</ele>
        <time>2020-12-31T13:04:21Z</time>
      </trkpt>
      <trkpt lat="43.6234" lon="3.83439">
        <ele>75.3</ele>
        <time>2020-12-31T13:04:23Z</time>
      </trkpt>
      <trkpt lat="43.62336" lon="3.8344">
        <ele>75.4</ele>
        <time>2020-12-31T13:04:24Z</time>
      </trkpt>
      <trkpt lat="43.62333" lon="3.83442">
        <ele>75.6</ele>
        <time>2020-12-31T13:04:25Z</time>
      </trkpt>
      <trkpt lat="43.62329" lon="3.83444">
        <ele>75.9</ele>
        <time>2020-12-31T13:04:26Z</time>
      </trkpt>
      <trkpt lat="43.62325" lon="3.83446">
        <ele>76</ele>
        <time>2020-12-31T13:04:27Z</time>
      </trkpt>
      <trkpt lat="43.62319" lon="3.8345">
        <ele>76</ele>
        <time>2020-12-31T13:04:28Z</time>
      </trkpt>
      <trkpt lat="43.62316" lon="3.83453">
        <ele>76</ele>
        <time>2020-12-31T13:04:30Z</time>
      </trkpt>
      <trkpt lat="43.62312" lon="3.83456">
        <ele>76</ele>
        <time>2020-12-31T13:04:31Z</time>
      </trkpt>
      <trkpt lat="43.62309" lon="3.83459">
        <ele>76</ele>
        <time>2020-12-31T13:04:32Z</time>
      </trkpt>
      <trkpt lat="43.62307" lon="3.83462">
        <ele>76</ele>
        <time>2020-12-31T13:04:33Z</time>
      </trkpt>
      <trkpt lat="43.62304" lon="3.83466">
        <ele>75.9</ele>
        <time>2020-12-31T13:04:34Z</time>
      </trkpt>
      <trkpt lat="43.62301" lon="3.83469">
        <ele>75.7</ele>
        <time>2020-12-31T13:04:35Z</time>
      </trkpt>
      <trkpt lat="43.62299" lon="3.83474">
        <ele>75.6</ele>
        <time>2020-12-31T13:04:36Z</time>
      </trkpt>
      <trkpt lat="43.62296" lon="3.83478">
        <ele>75.5</ele>
        <time>2020-12-31T13:04:37Z</time>
      </trkpt>
      <trkpt lat="43.62294" lon="3.83482">
        <ele>75.6</ele>
        <time>2020-12-31T13:04:38Z</time>
      </trkpt>
      <trkpt lat="43.62292" lon="3.83486">
        <ele>79</ele>
        <time>2020-12-31T13:04:39Z</time>
      </trkpt>
      <trkpt lat="43.6229" lon="3.83491">
        <ele>76</ele>
        <time>2020-12-31T13:04:40Z</time>
      </trkpt>
      <trkpt lat="43.62289" lon="3.83496">
        <ele>76.3</ele>
        <time>2020-12-31T13:04:41Z</time>
      </trkpt>
      <trkpt lat="43.62287" lon="3.83501">
        <ele>76.6</ele>
        <time>2020-12-31T13:04:42Z</time>
      </trkpt>
      <trkpt lat="43.62286" lon="3.83505">
        <ele>76.6</ele>
        <time>2020-12-31T13:04:43Z</time>
      </trkpt>
      <trkpt lat="43.62284" lon="3.83509">
        <ele>76.5</ele>
        <time>2020-12-31T13:04:44Z</time>
      </trkpt>
      <trkpt lat="43.62282" lon="3.83513">
        <ele>76.5</ele>
        <time>2020-12-31T13:04:45Z</time>
      </trkpt>
      <trkpt lat="43.6228" lon="3.83516">
        <ele>76.4</ele>
        <time>2020-12-31T13:04:46Z</time>
      </trkpt>
      <trkpt lat="43.62278" lon="3.83519">
        <ele>76.3</ele>
        <time>2020-12-31T13:04:47Z</time>
      </trkpt>
      <trkpt lat="43.62275" lon="3.83521">
        <ele>76.2</ele>
        <time>2020-12-31T13:04:48Z</time>
      </trkpt>
      <trkpt lat="43.62273" lon="3.83524">
        <ele>79</ele>
        <time>2020-12-31T13:04:49Z</time>
      </trkpt>
      <trkpt lat="43.62271" lon="3.83526">
        <ele>76</ele>
        <time>2020-12-31T13:04:50Z</time>
      </trkpt>
      <trkpt lat="43.62269" lon="3.83528">
        <ele>76</ele>
        <time>2020-12-31T13:04:51Z</time>
      </trkpt>
      <trkpt lat="43.62267" lon="3.83527">
        <ele>76</ele>
        <time>2020-12-31T13:04:53Z</time>
      </trkpt>
      <trkpt lat="43.62266" lon="3.83524">
        <ele>76.1</ele>
        <time>2020-12-31T13:04:55Z</time>
      </trkpt>
      <trkpt lat="43.62265" lon="3.83522">
        <ele>76.1</ele>
        <time>2020-12-31T13:04:57Z</time>
      </trkpt>
      <trkpt lat="43.62262" lon="3.83519">
        <ele>79</ele>
        <time>2020-12-31T13:04:59Z</time>
      </trkpt>
      <trkpt lat="43.6226" lon="3.83518">
        <ele>76.1</ele>
        <time>2020-12-31T13:05:00Z</time>
      </trkpt>
      <trkpt lat="43.62258" lon="3.83516">
        <ele>76.1</ele>
        <time>2020-12-31T13:05:02Z</time>
      </trkpt>
      <trkpt lat="43.62257" lon="3.83515">
        <ele>79</ele>
        <time>2020-12-31T13:05:08Z</time>
      </trkpt>
      <trkpt lat="43.6225" lon="3.83509">
        <ele>79</ele>
        <time>2020-12-31T13:05:17Z</time>
      </trkpt>
      <trkpt lat="43.62247" lon="3.83508">
        <ele>76</ele>
        <time>2020-12-31T13:05:18Z</time>
      </trkpt>
      <trkpt lat="43.62245" lon="3.83508">
        <ele>76</ele>
        <time>2020-12-31T13:05:19Z</time>
      </trkpt>
      <trkpt lat="43.62242" lon="3.83508">
        <ele>76</ele>
        <time>2020-12-31T13:05:20Z</time>
      </trkpt>
      <trkpt lat="43.6224" lon="3.83509">
        <ele>76</ele>
        <time>2020-12-31T13:05:21Z</time>
      </trkpt>
      <trkpt lat="43.62237" lon="3.83511">
        <ele>76</ele>
        <time>2020-12-31T13:05:22Z</time>
      </trkpt>
      <trkpt lat="43.62234" lon="3.8351">
        <ele>76</ele>
        <time>2020-12-31T13:05:23Z</time>
      </trkpt>
      <trkpt lat="43.62231" lon="3.83508">
        <ele>76</ele>
        <time>2020-12-31T13:05:24Z</time>
      </trkpt>
      <trkpt lat="43.62229" lon="3.83505">
        <ele>76</ele>
        <time>2020-12-31T13:05:25Z</time>
      </trkpt>
      <trkpt lat="43.62226" lon="3.83502">
        <ele>76</ele>
        <time>2020-12-31T13:05:26Z</time>
      </trkpt>
      <trkpt lat="43.62224" lon="3.83499">
        <ele>78</ele>
        <time>2020-12-31T13:05:27Z</time>
      </trkpt>
      <trkpt lat="43.62221" lon="3.83496">
        <ele>76</ele>
        <time>2020-12-31T13:05:28Z</time>
      </trkpt>
      <trkpt lat="43.62218" lon="3.83493">
        <ele>76</ele>
        <time>2020-12-31T13:05:29Z</time>
      </trkpt>
      <trkpt lat="43.62216" lon="3.8349">
        <ele>76</ele>
        <time>2020-12-31T13:05:30Z</time>
      </trkpt>
      <trkpt lat="43.62213" lon="3.83487">
        <ele>76</ele>
        <time>2020-12-31T13:05:31Z</time>
      </trkpt>
      <trkpt lat="43.6221" lon="3.83484">
        <ele>76</ele>
        <time>2020-12-31T13:05:32Z</time>
      </trkpt>
      <trkpt lat="43.62207" lon="3.8348">
        <ele>76</ele>
        <time>2020-12-31T13:05:33Z</time>
      </trkpt>
      <trkpt lat="43.62204" lon="3.83476">
        <ele>76</ele>
        <time>2020-12-31T13:05:34Z</time>
      </trkpt>
      <trkpt lat="43.62201" lon="3.83473">
        <ele>76</ele>
        <time>2020-12-31T13:05:35Z</time>
      </trkpt>
      <trkpt lat="43.62198" lon="3.83469">
        <ele>75.9</ele>
        <time>2020-12-31T13:05:36Z</time>
      </trkpt>
      <trkpt lat="43.62192" lon="3.83462">
        <ele>78</ele>
        <time>2020-12-31T13:05:37Z</time>
      </trkpt>
      <trkpt lat="43.62189" lon="3.83458">
        <ele>75.5</ele>
        <time>2020-12-31T13:05:38Z</time>
      </trkpt>
      <trkpt lat="43.62186" lon="3.83454">
        <ele>75.3</ele>
        <time>2020-12-31T13:05:39Z</time>
      </trkpt>
      <trkpt lat="43.62183" lon="3.83451">
        <ele>75.2</ele>
        <time>2020-12-31T13:05:40Z</time>
      </trkpt>
      <trkpt lat="43.6218" lon="3.83448">
        <ele>75.1</ele>
        <time>2020-12-31T13:05:41Z</time>
      </trkpt>
      <trkpt lat="43.62177" lon="3.83445">
        <ele>75</ele>
        <time>2020-12-31T13:05:42Z</time>
      </trkpt>
      <trkpt lat="43.62173" lon="3.83443">
        <ele>75</ele>
        <time>2020-12-31T13:05:43Z</time>
      </trkpt>
      <trkpt lat="43.6217" lon="3.83441">
        <ele>75</ele>
        <time>2020-12-31T13:05:44Z</time>
      </trkpt>
      <trkpt lat="43.62168" lon="3.83439">
        <ele>75</ele>
        <time>2020-12-31T13:05:45Z</time>
      </trkpt>
      <trkpt lat="43.62166" lon="3.83438">
        <ele>75</ele>
        <time>2020-12-31T13:05:46Z</time>
      </trkpt>
      <trkpt lat="43.62162" lon="3.83436">
        <ele>75</ele>
        <time>2020-12-31T13:05:48Z</time>
      </trkpt>
      <trkpt lat="43.62159" lon="3.83434">
        <ele>75</ele>
        <time>2020-12-31T13:05:49Z</time>
      </trkpt>
      <trkpt lat="43.62155" lon="3.83433">
        <ele>75</ele>
        <time>2020-12-31T13:05:50Z</time>
      </trkpt>
      <trkpt lat="43.62151" lon="3.83431">
        <ele>75</ele>
        <time>2020-12-31T13:05:51Z</time>
      </trkpt>
      <trkpt lat="43.62148" lon="3.83429">
        <ele>75</ele>
        <time>2020-12-31T13:05:52Z</time>
      </trkpt>
      <trkpt lat="43.62144" lon="3.83426">
        <ele>75</ele>
        <time>2020-12-31T13:05:53Z</time>
      </trkpt>
      <trkpt lat="43.62141" lon="3.83423">
        <ele>75</ele>
        <time>2020-12-31T13:05:54Z</time>
      </trkpt>
      <trkpt lat="43.62137" lon="3.8342">
        <ele>75</ele>
        <time>2020-12-31T13:05:55Z</time>
      </trkpt>
      <trkpt lat="43.62133" lon="3.83416">
        <ele>75</ele>
        <time>2020-12-31T13:05:56Z</time>
      </trkpt>
      <trkpt lat="43.62129" lon="3.83413">
        <ele>78</ele>
        <time>2020-12-31T13:05:57Z</time>
      </trkpt>
      <trkpt lat="43.62125" lon="3.8341">
        <ele>75</ele>
        <time>2020-12-31T13:05:58Z</time>
      </trkpt>
      <trkpt lat="43.62121" lon="3.83407">
        <ele>75</ele>
        <time>2020-12-31T13:05:59Z</time>
      </trkpt>
      <trkpt lat="43.62118" lon="3.83403">
        <ele>75</ele>
        <time>2020-12-31T13:06:00Z</time>
      </trkpt>
      <trkpt lat="43.62114" lon="3.834">
        <ele>75</ele>
        <time>2020-12-31T13:06:01Z</time>
      </trkpt>
      <trkpt lat="43.62111" lon="3.83396">
        <ele>75</ele>
        <time>2020-12-31T13:06:02Z</time>
      </trkpt>
      <trkpt lat="43.62107" lon="3.83391">
        <ele>75</ele>
        <time>2020-12-31T13:06:03Z</time>
      </trkpt>
      <trkpt lat="43.62104" lon="3.83387">
        <ele>75</ele>
        <time>2020-12-31T13:06:04Z</time>
      </trkpt>
      <trkpt lat="43.62101" lon="3.83383">
        <ele>75</ele>
        <time>2020-12-31T13:06:05Z</time>
      </trkpt>
      <trkpt lat="43.62098" lon="3.83379">
        <ele>75</ele>
        <time>2020-12-31T13:06:06Z</time>
      </trkpt>
      <trkpt lat="43.62094" lon="3.83375">
        <ele>77</ele>
        <time>2020-12-31T13:06:07Z</time>
      </trkpt>
      <trkpt lat="43.62091" lon="3.83371">
        <ele>75</ele>
        <time>2020-12-31T13:06:08Z</time>
      </trkpt>
      <trkpt lat="43.62088" lon="3.83367">
        <ele>75</ele>
        <time>2020-12-31T13:06:09Z</time>
      </trkpt>
      <trkpt lat="43.62085" lon="3.83363">
        <ele>75</ele>
        <time>2020-12-31T13:06:10Z</time>
      </trkpt>
      <trkpt lat="43.62082" lon="3.83359">
        <ele>74.9</ele>
        <time>2020-12-31T13:06:11Z</time>
      </trkpt>
      <trkpt lat="43.62078" lon="3.83355">
        <ele>74.8</ele>
        <time>2020-12-31T13:06:12Z</time>
      </trkpt>
      <trkpt lat="43.62075" lon="3.83351">
        <ele>74.6</ele>
        <time>2020-12-31T13:06:13Z</time>
      </trkpt>
      <trkpt lat="43.62072" lon="3.83347">
        <ele>74.5</ele>
        <time>2020-12-31T13:06:14Z</time>
      </trkpt>
      <trkpt lat="43.62068" lon="3.83343">
        <ele>74.3</ele>
        <time>2020-12-31T13:06:15Z</time>
      </trkpt>
      <trkpt lat="43.62065" lon="3.83338">
        <ele>74.2</ele>
        <time>2020-12-31T13:06:16Z</time>
      </trkpt>
      <trkpt lat="43.62062" lon="3.83334">
        <ele>77</ele>
        <time>2020-12-31T13:06:17Z</time>
      </trkpt>
      <trkpt lat="43.62058" lon="3.83329">
        <ele>74</ele>
        <time>2020-12-31T13:06:18Z</time>
      </trkpt>
      <trkpt lat="43.62055" lon="3.83325">
        <ele>74</ele>
        <time>2020-12-31T13:06:19Z</time>
      </trkpt>
      <trkpt lat="43.62051" lon="3.8332">
        <ele>74.1</ele>
        <time>2020-12-31T13:06:20Z</time>
      </trkpt>
      <trkpt lat="43.62048" lon="3.83316">
        <ele>74.1</ele>
        <time>2020-12-31T13:06:21Z</time>
      </trkpt>
      <trkpt lat="43.62045" lon="3.83312">
        <ele>74.1</ele>
        <time>2020-12-31T13:06:22Z</time>
      </trkpt>
      <trkpt lat="43.62042" lon="3.83308">
        <ele>74</ele>
        <time>2020-12-31T13:06:23Z</time>
      </trkpt>
      <trkpt lat="43.62038" lon="3.83304">
        <ele>74</ele>
        <time>2020-12-31T13:06:24Z</time>
      </trkpt>
      <trkpt lat="43.62035" lon="3.833">
        <ele>74.1</ele>
        <time>2020-12-31T13:06:25Z</time>
      </trkpt>
      <trkpt lat="43.62032" lon="3.83296">
        <ele>74.1</ele>
        <time>2020-12-31T13:06:26Z</time>
      </trkpt>
      <trkpt lat="43.62028" lon="3.83292">
        <ele>77</ele>
        <time>2020-12-31T13:06:27Z</time>
      </trkpt>
      <trkpt lat="43.62025" lon="3.83288">
        <ele>74</ele>
        <time>2020-12-31T13:06:28Z</time>
      </trkpt>
      <trkpt lat="43.62022" lon="3.83284">
        <ele>74</ele>
        <time>2020-12-31T13:06:29Z</time>
      </trkpt>
      <trkpt lat="43.62019" lon="3.8328">
        <ele>74</ele>
        <time>2020-12-31T13:06:30Z</time>
      </trkpt>
      <trkpt lat="43.62017" lon="3.83276">
        <ele>74</ele>
        <time>2020-12-31T13:06:31Z</time>
      </trkpt>
      <trkpt lat="43.62014" lon="3.83272">
        <ele>74.1</ele>
        <time>2020-12-31T13:06:32Z</time>
      </trkpt>
      <trkpt lat="43.62011" lon="3.83269">
        <ele>74.1</ele>
        <time>2020-12-31T13:06:33Z</time>
      </trkpt>
      <trkpt lat="43.62009" lon="3.83265">
        <ele>74.1</ele>
        <time>2020-12-31T13:06:34Z</time>
      </trkpt>
      <trkpt lat="43.62007" lon="3.83261">
        <ele>74.2</ele>
        <time>2020-12-31T13:06:35Z</time>
      </trkpt>
      <trkpt lat="43.62006" lon="3.83257">
        <ele>74.2</ele>
        <time>2020-12-31T13:06:36Z</time>
      </trkpt>
      <trkpt lat="43.62005" lon="3.83253">
        <ele>76</ele>
        <time>2020-12-31T13:06:37Z</time>
      </trkpt>
      <trkpt lat="43.62005" lon="3.83249">
        <ele>74.2</ele>
        <time>2020-12-31T13:06:38Z</time>
      </trkpt>
      <trkpt lat="43.62003" lon="3.83245">
        <ele>74.2</ele>
        <time>2020-12-31T13:06:39Z</time>
      </trkpt>
      <trkpt lat="43.62002" lon="3.83242">
        <ele>74.3</ele>
        <time>2020-12-31T13:06:40Z</time>
      </trkpt>
      <trkpt lat="43.62" lon="3.8324">
        <ele>74.4</ele>
        <time>2020-12-31T13:06:41Z</time>
      </trkpt>
      <trkpt lat="43.61998" lon="3.83238">
        <ele>74.3</ele>
        <time>2020-12-31T13:06:42Z</time>
      </trkpt>
      <trkpt lat="43.61996" lon="3.83236">
        <ele>74.3</ele>
        <time>2020-12-31T13:06:43Z</time>
      </trkpt>
      <trkpt lat="43.61993" lon="3.83234">
        <ele>74.2</ele>
        <time>2020-12-31T13:06:44Z</time>
      </trkpt>
      <trkpt lat="43.61991" lon="3.83234">
        <ele>74.1</ele>
        <time>2020-12-31T13:06:45Z</time>
      </trkpt>
      <trkpt lat="43.61988" lon="3.83233">
        <ele>73.9</ele>
        <time>2020-12-31T13:06:46Z</time>
      </trkpt>
      <trkpt lat="43.61986" lon="3.83232">
        <ele>76</ele>
        <time>2020-12-31T13:06:47Z</time>
      </trkpt>
      <trkpt lat="43.61985" lon="3.8323">
        <ele>73.8</ele>
        <time>2020-12-31T13:06:48Z</time>
      </trkpt>
      <trkpt lat="43.61982" lon="3.83229">
        <ele>73.6</ele>
        <time>2020-12-31T13:06:50Z</time>
      </trkpt>
      <trkpt lat="43.6198" lon="3.83229">
        <ele>73.5</ele>
        <time>2020-12-31T13:06:51Z</time>
      </trkpt>
      <trkpt lat="43.61978" lon="3.83231">
        <ele>73.4</ele>
        <time>2020-12-31T13:06:52Z</time>
      </trkpt>
      <trkpt lat="43.61976" lon="3.83234">
        <ele>73.2</ele>
        <time>2020-12-31T13:06:53Z</time>
      </trkpt>
      <trkpt lat="43.61974" lon="3.83238">
        <ele>73.1</ele>
        <time>2020-12-31T13:06:54Z</time>
      </trkpt>
      <trkpt lat="43.61972" lon="3.8324">
        <ele>73</ele>
        <time>2020-12-31T13:06:55Z</time>
      </trkpt>
      <trkpt lat="43.61971" lon="3.83242">
        <ele>76</ele>
        <time>2020-12-31T13:06:57Z</time>
      </trkpt>
      <trkpt lat="43.61969" lon="3.83245">
        <ele>73</ele>
        <time>2020-12-31T13:06:59Z</time>
      </trkpt>
      <trkpt lat="43.61967" lon="3.83248">
        <ele>73</ele>
        <time>2020-12-31T13:07:00Z</time>
      </trkpt>
      <trkpt lat="43.61965" lon="3.83251">
        <ele>73</ele>
        <time>2020-12-31T13:07:01Z</time>
      </trkpt>
      <trkpt lat="43.61963" lon="3.83255">
        <ele>73.1</ele>
        <time>2020-12-31T13:07:02Z</time>
      </trkpt>
      <trkpt lat="43.6196" lon="3.83259">
        <ele>73.3</ele>
        <time>2020-12-31T13:07:03Z</time>
      </trkpt>
      <trkpt lat="43.61956" lon="3.8326">
        <ele>73.4</ele>
        <time>2020-12-31T13:07:04Z</time>
      </trkpt>
      <trkpt lat="43.61951" lon="3.83258">
        <ele>73.4</ele>
        <time>2020-12-31T13:07:05Z</time>
      </trkpt>
      <trkpt lat="43.61947" lon="3.83256">
        <ele>73.4</ele>
        <time>2020-12-31T13:07:06Z</time>
      </trkpt>
      <trkpt lat="43.61942" lon="3.83255">
        <ele>76</ele>
        <time>2020-12-31T13:07:07Z</time>
      </trkpt>
      <trkpt lat="43.61938" lon="3.83253">
        <ele>73</ele>
        <time>2020-12-31T13:07:08Z</time>
      </trkpt>
      <trkpt lat="43.61934" lon="3.8325">
        <ele>72.6</ele>
        <time>2020-12-31T13:07:09Z</time>
      </trkpt>
      <trkpt lat="43.6193" lon="3.83249">
        <ele>72.5</ele>
        <time>2020-12-31T13:07:10Z</time>
      </trkpt>
      <trkpt lat="43.61926" lon="3.83247">
        <ele>72.4</ele>
        <time>2020-12-31T13:07:11Z</time>
      </trkpt>
      <trkpt lat="43.61922" lon="3.83245">
        <ele>72.3</ele>
        <time>2020-12-31T13:07:12Z</time>
      </trkpt>
      <trkpt lat="43.61918" lon="3.83243">
        <ele>72.3</ele>
        <time>2020-12-31T13:07:13Z</time>
      </trkpt>
      <trkpt lat="43.61914" lon="3.83241">
        <ele>72.4</ele>
        <time>2020-12-31T13:07:14Z</time>
      </trkpt>
      <trkpt lat="43.61911" lon="3.83239">
        <ele>72.6</ele>
        <time>2020-12-31T13:07:15Z</time>
      </trkpt>
      <trkpt lat="43.61907" lon="3.83237">
        <ele>72.7</ele>
        <time>2020-12-31T13:07:16Z</time>
      </trkpt>
      <trkpt lat="43.61903" lon="3.83234">
        <ele>76</ele>
        <time>2020-12-31T13:07:17Z</time>
      </trkpt>
      <trkpt lat="43.61899" lon="3.83232">
        <ele>72.7</ele>
        <time>2020-12-31T13:07:18Z</time>
      </trkpt>
      <trkpt lat="43.61895" lon="3.8323">
        <ele>72.6</ele>
        <time>2020-12-31T13:07:19Z</time>
      </trkpt>
      <trkpt lat="43.6189" lon="3.83228">
        <ele>72.4</ele>
        <time>2020-12-31T13:07:20Z</time>
      </trkpt>
      <trkpt lat="43.61886" lon="3.83226">
        <ele>72.3</ele>
        <time>2020-12-31T13:07:21Z</time>
      </trkpt>
      <trkpt lat="43.61882" lon="3.83224">
        <ele>72.1</ele>
        <time>2020-12-31T13:07:22Z</time>
      </trkpt>
      <trkpt lat="43.61878" lon="3.83222">
        <ele>72</ele>
        <time>2020-12-31T13:07:23Z</time>
      </trkpt>
      <trkpt lat="43.61873" lon="3.83219">
        <ele>71.9</ele>
        <time>2020-12-31T13:07:24Z</time>
      </trkpt>
      <trkpt lat="43.61869" lon="3.83217">
        <ele>71.9</ele>
        <time>2020-12-31T13:07:25Z</time>
      </trkpt>
      <trkpt lat="43.61865" lon="3.83214">
        <ele>71.7</ele>
        <time>2020-12-31T13:07:26Z</time>
      </trkpt>
      <trkpt lat="43.61861" lon="3.83211">
        <ele>76</ele>
        <time>2020-12-31T13:07:27Z</time>
      </trkpt>
      <trkpt lat="43.61856" lon="3.83208">
        <ele>71.5</ele>
        <time>2020-12-31T13:07:28Z</time>
      </trkpt>
      <trkpt lat="43.61852" lon="3.83205">
        <ele>71.4</ele>
        <time>2020-12-31T13:07:29Z</time>
      </trkpt>
      <trkpt lat="43.61848" lon="3.83202">
        <ele>71.3</ele>
        <time>2020-12-31T13:07:30Z</time>
      </trkpt>
      <trkpt lat="43.61844" lon="3.83198">
        <ele>71.1</ele>
        <time>2020-12-31T13:07:31Z</time>
      </trkpt>
      <trkpt lat="43.61839" lon="3.83195">
        <ele>71</ele>
        <time>2020-12-31T13:07:32Z</time>
      </trkpt>
      <trkpt lat="43.61834" lon="3.83193">
        <ele>70.9</ele>
        <time>2020-12-31T13:07:33Z</time>
      </trkpt>
      <trkpt lat="43.6183" lon="3.83191">
        <ele>70.9</ele>
        <time>2020-12-31T13:07:34Z</time>
      </trkpt>
      <trkpt lat="43.61825" lon="3.83189">
        <ele>70.8</ele>
        <time>2020-12-31T13:07:35Z</time>
      </trkpt>
      <trkpt lat="43.61821" lon="3.83186">
        <ele>70.7</ele>
        <time>2020-12-31T13:07:36Z</time>
      </trkpt>
      <trkpt lat="43.61816" lon="3.83183">
        <ele>75</ele>
        <time>2020-12-31T13:07:37Z</time>
      </trkpt>
      <trkpt lat="43.61812" lon="3.83179">
        <ele>70.4</ele>
        <time>2020-12-31T13:07:38Z</time>
      </trkpt>
      <trkpt lat="43.61808" lon="3.83176">
        <ele>70.3</ele>
        <time>2020-12-31T13:07:39Z</time>
      </trkpt>
      <trkpt lat="43.61803" lon="3.83173">
        <ele>70.2</ele>
        <time>2020-12-31T13:07:40Z</time>
      </trkpt>
      <trkpt lat="43.61799" lon="3.8317">
        <ele>70.1</ele>
        <time>2020-12-31T13:07:41Z</time>
      </trkpt>
      <trkpt lat="43.61794" lon="3.83167">
        <ele>70</ele>
        <time>2020-12-31T13:07:42Z</time>
      </trkpt>
      <trkpt lat="43.6179" lon="3.83164">
        <ele>70</ele>
        <time>2020-12-31T13:07:43Z</time>
      </trkpt>
      <trkpt lat="43.61785" lon="3.8316">
        <ele>70</ele>
        <time>2020-12-31T13:07:44Z</time>
      </trkpt>
      <trkpt lat="43.6178" lon="3.83157">
        <ele>70</ele>
        <time>2020-12-31T13:07:45Z</time>
      </trkpt>
      <trkpt lat="43.61776" lon="3.83154">
        <ele>70</ele>
        <time>2020-12-31T13:07:46Z</time>
      </trkpt>
      <trkpt lat="43.61767" lon="3.83147">
        <ele>77</ele>
        <time>2020-12-31T13:07:47Z</time>
      </trkpt>
      <trkpt lat="43.61763" lon="3.83144">
        <ele>69.7</ele>
        <time>2020-12-31T13:07:48Z</time>
      </trkpt>
      <trkpt lat="43.61758" lon="3.83141">
        <ele>69.4</ele>
        <time>2020-12-31T13:07:49Z</time>
      </trkpt>
      <trkpt lat="43.61754" lon="3.83139">
        <ele>69.2</ele>
        <time>2020-12-31T13:07:50Z</time>
      </trkpt>
      <trkpt lat="43.61749" lon="3.83136">
        <ele>69</ele>
        <time>2020-12-31T13:07:51Z</time>
      </trkpt>
      <trkpt lat="43.61744" lon="3.83133">
        <ele>69.2</ele>
        <time>2020-12-31T13:07:52Z</time>
      </trkpt>
      <trkpt lat="43.61738" lon="3.8313">
        <ele>69.3</ele>
        <time>2020-12-31T13:07:53Z</time>
      </trkpt>
      <trkpt lat="43.61734" lon="3.83126">
        <ele>69.3</ele>
        <time>2020-12-31T13:07:54Z</time>
      </trkpt>
      <trkpt lat="43.61729" lon="3.83122">
        <ele>69.3</ele>
        <time>2020-12-31T13:07:55Z</time>
      </trkpt>
      <trkpt lat="43.61724" lon="3.83118">
        <ele>69.2</ele>
        <time>2020-12-31T13:07:56Z</time>
      </trkpt>
      <trkpt lat="43.6172" lon="3.83114">
        <ele>69.1</ele>
        <time>2020-12-31T13:07:58Z</time>
      </trkpt>
      <trkpt lat="43.61715" lon="3.8311">
        <ele>69</ele>
        <time>2020-12-31T13:07:59Z</time>
      </trkpt>
      <trkpt lat="43.6171" lon="3.83107">
        <ele>69.1</ele>
        <time>2020-12-31T13:08:00Z</time>
      </trkpt>
      <trkpt lat="43.61705" lon="3.83103">
        <ele>69.1</ele>
        <time>2020-12-31T13:08:01Z</time>
      </trkpt>
      <trkpt lat="43.61701" lon="3.83099">
        <ele>69.1</ele>
        <time>2020-12-31T13:08:02Z</time>
      </trkpt>
      <trkpt lat="43.61696" lon="3.83095">
        <ele>69</ele>
        <time>2020-12-31T13:08:03Z</time>
      </trkpt>
      <trkpt lat="43.61691" lon="3.83091">
        <ele>69</ele>
        <time>2020-12-31T13:08:04Z</time>
      </trkpt>
      <trkpt lat="43.61687" lon="3.83087">
        <ele>69</ele>
        <time>2020-12-31T13:08:05Z</time>
      </trkpt>
      <trkpt lat="43.61682" lon="3.83082">
        <ele>69</ele>
        <time>2020-12-31T13:08:06Z</time>
      </trkpt>
      <trkpt lat="43.61678" lon="3.83078">
        <ele>76</ele>
        <time>2020-12-31T13:08:07Z</time>
      </trkpt>
      <trkpt lat="43.61673" lon="3.83073">
        <ele>69.1</ele>
        <time>2020-12-31T13:08:08Z</time>
      </trkpt>
      <trkpt lat="43.61669" lon="3.83069">
        <ele>69</ele>
        <time>2020-12-31T13:08:09Z</time>
      </trkpt>
      <trkpt lat="43.61664" lon="3.83065">
        <ele>68.9</ele>
        <time>2020-12-31T13:08:10Z</time>
      </trkpt>
      <trkpt lat="43.61659" lon="3.83061">
        <ele>68.7</ele>
        <time>2020-12-31T13:08:11Z</time>
      </trkpt>
      <trkpt lat="43.61654" lon="3.83057">
        <ele>68.5</ele>
        <time>2020-12-31T13:08:12Z</time>
      </trkpt>
      <trkpt lat="43.6165" lon="3.83053">
        <ele>68.4</ele>
        <time>2020-12-31T13:08:13Z</time>
      </trkpt>
      <trkpt lat="43.61645" lon="3.83048">
        <ele>68.2</ele>
        <time>2020-12-31T13:08:14Z</time>
      </trkpt>
      <trkpt lat="43.6164" lon="3.83045">
        <ele>68</ele>
        <time>2020-12-31T13:08:15Z</time>
      </trkpt>
      <trkpt lat="43.61636" lon="3.83041">
        <ele>67.9</ele>
        <time>2020-12-31T13:08:16Z</time>
      </trkpt>
      <trkpt lat="43.61631" lon="3.83037">
        <ele>74</ele>
        <time>2020-12-31T13:08:17Z</time>
      </trkpt>
      <trkpt lat="43.61626" lon="3.83033">
        <ele>67.5</ele>
        <time>2020-12-31T13:08:18Z</time>
      </trkpt>
      <trkpt lat="43.61622" lon="3.83029">
        <ele>67.4</ele>
        <time>2020-12-31T13:08:19Z</time>
      </trkpt>
      <trkpt lat="43.61617" lon="3.83026">
        <ele>67.2</ele>
        <time>2020-12-31T13:08:20Z</time>
      </trkpt>
      <trkpt lat="43.61612" lon="3.83023">
        <ele>67</ele>
        <time>2020-12-31T13:08:21Z</time>
      </trkpt>
      <trkpt lat="43.61607" lon="3.83019">
        <ele>66.9</ele>
        <time>2020-12-31T13:08:22Z</time>
      </trkpt>
      <trkpt lat="43.61603" lon="3.83015">
        <ele>66.7</ele>
        <time>2020-12-31T13:08:23Z</time>
      </trkpt>
      <trkpt lat="43.61598" lon="3.83012">
        <ele>66.5</ele>
        <time>2020-12-31T13:08:24Z</time>
      </trkpt>
      <trkpt lat="43.61593" lon="3.83008">
        <ele>66.3</ele>
        <time>2020-12-31T13:08:25Z</time>
      </trkpt>
      <trkpt lat="43.61588" lon="3.83004">
        <ele>66.2</ele>
        <time>2020-12-31T13:08:26Z</time>
      </trkpt>
      <trkpt lat="43.61584" lon="3.83">
        <ele>72</ele>
        <time>2020-12-31T13:08:27Z</time>
      </trkpt>
      <trkpt lat="43.61579" lon="3.82996">
        <ele>66</ele>
        <time>2020-12-31T13:08:28Z</time>
      </trkpt>
      <trkpt lat="43.61574" lon="3.82993">
        <ele>65.9</ele>
        <time>2020-12-31T13:08:29Z</time>
      </trkpt>
      <trkpt lat="43.61569" lon="3.82989">
        <ele>65.8</ele>
        <time>2020-12-31T13:08:30Z</time>
      </trkpt>
      <trkpt lat="43.61564" lon="3.82985">
        <ele>65.6</ele>
        <time>2020-12-31T13:08:31Z</time>
      </trkpt>
      <trkpt lat="43.61559" lon="3.82981">
        <ele>65.4</ele>
        <time>2020-12-31T13:08:32Z</time>
      </trkpt>
      <trkpt lat="43.61554" lon="3.82978">
        <ele>65.2</ele>
        <time>2020-12-31T13:08:33Z</time>
      </trkpt>
      <trkpt lat="43.61549" lon="3.82974">
        <ele>65</ele>
        <time>2020-12-31T13:08:34Z</time>
      </trkpt>
      <trkpt lat="43.61544" lon="3.82971">
        <ele>65</ele>
        <time>2020-12-31T13:08:35Z</time>
      </trkpt>
      <trkpt lat="43.61539" lon="3.82967">
        <ele>65</ele>
        <time>2020-12-31T13:08:36Z</time>
      </trkpt>
      <trkpt lat="43.61534" lon="3.82963">
        <ele>70</ele>
        <time>2020-12-31T13:08:37Z</time>
      </trkpt>
      <trkpt lat="43.61529" lon="3.82959">
        <ele>64.6</ele>
        <time>2020-12-31T13:08:38Z</time>
      </trkpt>
      <trkpt lat="43.61525" lon="3.82955">
        <ele>64.3</ele>
        <time>2020-12-31T13:08:39Z</time>
      </trkpt>
      <trkpt lat="43.6152" lon="3.82952">
        <ele>64</ele>
        <time>2020-12-31T13:08:40Z</time>
      </trkpt>
      <trkpt lat="43.61515" lon="3.82949">
        <ele>63.7</ele>
        <time>2020-12-31T13:08:41Z</time>
      </trkpt>
      <trkpt lat="43.6151" lon="3.82945">
        <ele>63.4</ele>
        <time>2020-12-31T13:08:42Z</time>
      </trkpt>
      <trkpt lat="43.61506" lon="3.82941">
        <ele>63.3</ele>
        <time>2020-12-31T13:08:43Z</time>
      </trkpt>
      <trkpt lat="43.61502" lon="3.82937">
        <ele>63.3</ele>
        <time>2020-12-31T13:08:44Z</time>
      </trkpt>
      <trkpt lat="43.61497" lon="3.82934">
        <ele>63.3</ele>
        <time>2020-12-31T13:08:45Z</time>
      </trkpt>
      <trkpt lat="43.61492" lon="3.82931">
        <ele>63.2</ele>
        <time>2020-12-31T13:08:46Z</time>
      </trkpt>
      <trkpt lat="43.61483" lon="3.82925">
        <ele>68</ele>
        <time>2020-12-31T13:08:47Z</time>
      </trkpt>
      <trkpt lat="43.6148" lon="3.82921">
        <ele>62.6</ele>
        <time>2020-12-31T13:08:48Z</time>
      </trkpt>
      <trkpt lat="43.61476" lon="3.82919">
        <ele>62.3</ele>
        <time>2020-12-31T13:08:49Z</time>
      </trkpt>
      <trkpt lat="43.61472" lon="3.82916">
        <ele>62</ele>
        <time>2020-12-31T13:08:50Z</time>
      </trkpt>
      <trkpt lat="43.61468" lon="3.82915">
        <ele>62.1</ele>
        <time>2020-12-31T13:08:51Z</time>
      </trkpt>
      <trkpt lat="43.61466" lon="3.82914">
        <ele>62.1</ele>
        <time>2020-12-31T13:08:53Z</time>
      </trkpt>
      <trkpt lat="43.61464" lon="3.82912">
        <ele>62.1</ele>
        <time>2020-12-31T13:08:54Z</time>
      </trkpt>
      <trkpt lat="43.61465" lon="3.8292">
        <ele>62.1</ele>
        <time>2020-12-31T13:09:00Z</time>
      </trkpt>
      <trkpt lat="43.61466" lon="3.82926">
        <ele>62.3</ele>
        <time>2020-12-31T13:09:01Z</time>
      </trkpt>
      <trkpt lat="43.61467" lon="3.82932">
        <ele>62.4</ele>
        <time>2020-12-31T13:09:02Z</time>
      </trkpt>
      <trkpt lat="43.61468" lon="3.82939">
        <ele>62.7</ele>
        <time>2020-12-31T13:09:03Z</time>
      </trkpt>
      <trkpt lat="43.61469" lon="3.82946">
        <ele>62.9</ele>
        <time>2020-12-31T13:09:04Z</time>
      </trkpt>
      <trkpt lat="43.6147" lon="3.82952">
        <ele>62.9</ele>
        <time>2020-12-31T13:09:05Z</time>
      </trkpt>
      <trkpt lat="43.61471" lon="3.82958">
        <ele>63</ele>
        <time>2020-12-31T13:09:06Z</time>
      </trkpt>
      <trkpt lat="43.61472" lon="3.82963">
        <ele>69</ele>
        <time>2020-12-31T13:09:07Z</time>
      </trkpt>
      <trkpt lat="43.61473" lon="3.82969">
        <ele>63</ele>
        <time>2020-12-31T13:09:08Z</time>
      </trkpt>
      <trkpt lat="43.61474" lon="3.82975">
        <ele>63.1</ele>
        <time>2020-12-31T13:09:09Z</time>
      </trkpt>
      <trkpt lat="43.61476" lon="3.82981">
        <ele>63.1</ele>
        <time>2020-12-31T13:09:10Z</time>
      </trkpt>
      <trkpt lat="43.61478" lon="3.82986">
        <ele>63.2</ele>
        <time>2020-12-31T13:09:11Z</time>
      </trkpt>
      <trkpt lat="43.6148" lon="3.82992">
        <ele>63.3</ele>
        <time>2020-12-31T13:09:12Z</time>
      </trkpt>
      <trkpt lat="43.61481" lon="3.82998">
        <ele>63.3</ele>
        <time>2020-12-31T13:09:13Z</time>
      </trkpt>
      <trkpt lat="43.61481" lon="3.83004">
        <ele>63.3</ele>
        <time>2020-12-31T13:09:14Z</time>
      </trkpt>
      <trkpt lat="43.61482" lon="3.83009">
        <ele>63.4</ele>
        <time>2020-12-31T13:09:15Z</time>
      </trkpt>
      <trkpt lat="43.61482" lon="3.83015">
        <ele>63.4</ele>
        <time>2020-12-31T13:09:16Z</time>
      </trkpt>
      <trkpt lat="43.61483" lon="3.83021">
        <ele>70</ele>
        <time>2020-12-31T13:09:17Z</time>
      </trkpt>
      <trkpt lat="43.61483" lon="3.83026">
        <ele>63.4</ele>
        <time>2020-12-31T13:09:18Z</time>
      </trkpt>
      <trkpt lat="43.61483" lon="3.83032">
        <ele>63.5</ele>
        <time>2020-12-31T13:09:19Z</time>
      </trkpt>
      <trkpt lat="43.61483" lon="3.83037">
        <ele>63.7</ele>
        <time>2020-12-31T13:09:20Z</time>
      </trkpt>
      <trkpt lat="43.61483" lon="3.83043">
        <ele>63.9</ele>
        <time>2020-12-31T13:09:21Z</time>
      </trkpt>
      <trkpt lat="43.61484" lon="3.83048">
        <ele>64.2</ele>
        <time>2020-12-31T13:09:22Z</time>
      </trkpt>
      <trkpt lat="43.61484" lon="3.83053">
        <ele>64.3</ele>
        <time>2020-12-31T13:09:23Z</time>
      </trkpt>
      <trkpt lat="43.61484" lon="3.83059">
        <ele>64.4</ele>
        <time>2020-12-31T13:09:24Z</time>
      </trkpt>
      <trkpt lat="43.61485" lon="3.83064">
        <ele>64.5</ele>
        <time>2020-12-31T13:09:25Z</time>
      </trkpt>
      <trkpt lat="43.61485" lon="3.83069">
        <ele>64.5</ele>
        <time>2020-12-31T13:09:26Z</time>
      </trkpt>
      <trkpt lat="43.61485" lon="3.83075">
        <ele>70</ele>
        <time>2020-12-31T13:09:27Z</time>
      </trkpt>
      <trkpt lat="43.61484" lon="3.8308">
        <ele>64.4</ele>
        <time>2020-12-31T13:09:28Z</time>
      </trkpt>
      <trkpt lat="43.61482" lon="3.83085">
        <ele>64.4</ele>
        <time>2020-12-31T13:09:29Z</time>
      </trkpt>
      <trkpt lat="43.61482" lon="3.8309">
        <ele>64.4</ele>
        <time>2020-12-31T13:09:30Z</time>
      </trkpt>
      <trkpt lat="43.61482" lon="3.83095">
        <ele>64.4</ele>
        <time>2020-12-31T13:09:31Z</time>
      </trkpt>
      <trkpt lat="43.61482" lon="3.831">
        <ele>64.4</ele>
        <time>2020-12-31T13:09:32Z</time>
      </trkpt>
      <trkpt lat="43.61482" lon="3.83104">
        <ele>64.4</ele>
        <time>2020-12-31T13:09:33Z</time>
      </trkpt>
      <trkpt lat="43.61482" lon="3.83109">
        <ele>64.4</ele>
        <time>2020-12-31T13:09:34Z</time>
      </trkpt>
      <trkpt lat="43.61482" lon="3.83114">
        <ele>64.4</ele>
        <time>2020-12-31T13:09:35Z</time>
      </trkpt>
      <trkpt lat="43.61482" lon="3.8312">
        <ele>64.6</ele>
        <time>2020-12-31T13:09:36Z</time>
      </trkpt>
      <trkpt lat="43.61482" lon="3.83126">
        <ele>70</ele>
        <time>2020-12-31T13:09:37Z</time>
      </trkpt>
      <trkpt lat="43.61482" lon="3.83131">
        <ele>64.8</ele>
        <time>2020-12-31T13:09:38Z</time>
      </trkpt>
      <trkpt lat="43.61482" lon="3.83137">
        <ele>65</ele>
        <time>2020-12-31T13:09:39Z</time>
      </trkpt>
      <trkpt lat="43.61481" lon="3.83142">
        <ele>65</ele>
        <time>2020-12-31T13:09:40Z</time>
      </trkpt>
      <trkpt lat="43.6148" lon="3.83148">
        <ele>65.1</ele>
        <time>2020-12-31T13:09:41Z</time>
      </trkpt>
      <trkpt lat="43.6148" lon="3.83154">
        <ele>65.2</ele>
        <time>2020-12-31T13:09:42Z</time>
      </trkpt>
      <trkpt lat="43.6148" lon="3.83159">
        <ele>65.2</ele>
        <time>2020-12-31T13:09:43Z</time>
      </trkpt>
      <trkpt lat="43.61479" lon="3.83165">
        <ele>65.2</ele>
        <time>2020-12-31T13:09:44Z</time>
      </trkpt>
      <trkpt lat="43.61479" lon="3.8317">
        <ele>65.2</ele>
        <time>2020-12-31T13:09:45Z</time>
      </trkpt>
      <trkpt lat="43.61479" lon="3.83176">
        <ele>65.2</ele>
        <time>2020-12-31T13:09:46Z</time>
      </trkpt>
      <trkpt lat="43.61479" lon="3.83182">
        <ele>70</ele>
        <time>2020-12-31T13:09:47Z</time>
      </trkpt>
      <trkpt lat="43.61479" lon="3.83188">
        <ele>65.2</ele>
        <time>2020-12-31T13:09:48Z</time>
      </trkpt>
      <trkpt lat="43.61479" lon="3.83193">
        <ele>65.2</ele>
        <time>2020-12-31T13:09:49Z</time>
      </trkpt>
      <trkpt lat="43.61477" lon="3.83199">
        <ele>65.2</ele>
        <time>2020-12-31T13:09:50Z</time>
      </trkpt>
      <trkpt lat="43.61476" lon="3.83205">
        <ele>65.1</ele>
        <time>2020-12-31T13:09:51Z</time>
      </trkpt>
      <trkpt lat="43.61476" lon="3.83211">
        <ele>65.1</ele>
        <time>2020-12-31T13:09:52Z</time>
      </trkpt>
      <trkpt lat="43.61475" lon="3.83217">
        <ele>65.1</ele>
        <time>2020-12-31T13:09:53Z</time>
      </trkpt>
      <trkpt lat="43.61475" lon="3.83223">
        <ele>65.1</ele>
        <time>2020-12-31T13:09:54Z</time>
      </trkpt>
      <trkpt lat="43.61474" lon="3.83229">
        <ele>65.3</ele>
        <time>2020-12-31T13:09:55Z</time>
      </trkpt>
      <trkpt lat="43.61474" lon="3.83234">
        <ele>65.5</ele>
        <time>2020-12-31T13:09:56Z</time>
      </trkpt>
      <trkpt lat="43.61474" lon="3.83239">
        <ele>70</ele>
        <time>2020-12-31T13:09:57Z</time>
      </trkpt>
      <trkpt lat="43.61474" lon="3.83245">
        <ele>65.8</ele>
        <time>2020-12-31T13:09:58Z</time>
      </trkpt>
      <trkpt lat="43.61474" lon="3.8325">
        <ele>66</ele>
        <time>2020-12-31T13:09:59Z</time>
      </trkpt>
      <trkpt lat="43.61473" lon="3.83255">
        <ele>66</ele>
        <time>2020-12-31T13:10:00Z</time>
      </trkpt>
      <trkpt lat="43.61473" lon="3.83259">
        <ele>66</ele>
        <time>2020-12-31T13:10:01Z</time>
      </trkpt>
      <trkpt lat="43.61473" lon="3.83264">
        <ele>66</ele>
        <time>2020-12-31T13:10:02Z</time>
      </trkpt>
      <trkpt lat="43.61473" lon="3.83268">
        <ele>66</ele>
        <time>2020-12-31T13:10:03Z</time>
      </trkpt>
      <trkpt lat="43.61473" lon="3.83271">
        <ele>66</ele>
        <time>2020-12-31T13:10:04Z</time>
      </trkpt>
      <trkpt lat="43.61473" lon="3.83274">
        <ele>66</ele>
        <time>2020-12-31T13:10:05Z</time>
      </trkpt>
      <trkpt lat="43.61471" lon="3.83274">
        <ele>70</ele>
        <time>2020-12-31T13:10:12Z</time>
      </trkpt>
      <trkpt lat="43.61474" lon="3.83274">
        <ele>72</ele>
        <time>2020-12-31T13:11:27Z</time>
      </trkpt>
      <trkpt lat="43.61475" lon="3.83276">
        <ele>66</ele>
        <time>2020-12-31T13:11:34Z</time>
      </trkpt>
      <trkpt lat="43.61471" lon="3.83289">
        <ele>71</ele>
        <time>2020-12-31T13:17:49Z</time>
      </trkpt>
      <trkpt lat="43.61471" lon="3.83293">
        <ele>66</ele>
        <time>2020-12-31T13:17:50Z</time>
      </trkpt>
      <trkpt lat="43.61471" lon="3.83296">
        <ele>66</ele>
        <time>2020-12-31T13:17:51Z</time>
      </trkpt>
      <trkpt lat="43.61471" lon="3.83301">
        <ele>66</ele>
        <time>2020-12-31T13:17:52Z</time>
      </trkpt>
      <trkpt lat="43.61472" lon="3.83306">
        <ele>66</ele>
        <time>2020-12-31T13:17:53Z</time>
      </trkpt>
      <trkpt lat="43.61472" lon="3.8331">
        <ele>66</ele>
        <time>2020-12-31T13:17:54Z</time>
      </trkpt>
      <trkpt lat="43.61472" lon="3.83315">
        <ele>66</ele>
        <time>2020-12-31T13:17:55Z</time>
      </trkpt>
      <trkpt lat="43.61472" lon="3.8332">
        <ele>66</ele>
        <time>2020-12-31T13:17:56Z</time>
      </trkpt>
      <trkpt lat="43.61472" lon="3.83325">
        <ele>66</ele>
        <time>2020-12-31T13:17:57Z</time>
      </trkpt>
      <trkpt lat="43.61471" lon="3.83331">
        <ele>66</ele>
        <time>2020-12-31T13:17:58Z</time>
      </trkpt>
      <trkpt lat="43.61471" lon="3.83338">
        <ele>70</ele>
        <time>2020-12-31T13:17:59Z</time>
      </trkpt>
      <trkpt lat="43.61471" lon="3.83344">
        <ele>66</ele>
        <time>2020-12-31T13:18:00Z</time>
      </trkpt>
      <trkpt lat="43.6147" lon="3.83351">
        <ele>65.9</ele>
        <time>2020-12-31T13:18:01Z</time>
      </trkpt>
      <trkpt lat="43.6147" lon="3.83357">
        <ele>65.9</ele>
        <time>2020-12-31T13:18:02Z</time>
      </trkpt>
      <trkpt lat="43.6147" lon="3.83364">
        <ele>65.9</ele>
        <time>2020-12-31T13:18:03Z</time>
      </trkpt>
      <trkpt lat="43.6147" lon="3.83372">
        <ele>65.9</ele>
        <time>2020-12-31T13:18:04Z</time>
      </trkpt>
      <trkpt lat="43.6147" lon="3.83379">
        <ele>65.9</ele>
        <time>2020-12-31T13:18:05Z</time>
      </trkpt>
      <trkpt lat="43.61469" lon="3.83386">
        <ele>65.9</ele>
        <time>2020-12-31T13:18:06Z</time>
      </trkpt>
      <trkpt lat="43.61469" lon="3.83393">
        <ele>65.9</ele>
        <time>2020-12-31T13:18:07Z</time>
      </trkpt>
      <trkpt lat="43.61469" lon="3.834">
        <ele>65.9</ele>
        <time>2020-12-31T13:18:08Z</time>
      </trkpt>
      <trkpt lat="43.61468" lon="3.83414">
        <ele>70</ele>
        <time>2020-12-31T13:18:09Z</time>
      </trkpt>
      <trkpt lat="43.61467" lon="3.83421">
        <ele>65.8</ele>
        <time>2020-12-31T13:18:10Z</time>
      </trkpt>
      <trkpt lat="43.61467" lon="3.83436">
        <ele>65.8</ele>
        <time>2020-12-31T13:18:12Z</time>
      </trkpt>
      <trkpt lat="43.61467" lon="3.83443">
        <ele>65.8</ele>
        <time>2020-12-31T13:18:13Z</time>
      </trkpt>
      <trkpt lat="43.61466" lon="3.83451">
        <ele>65.8</ele>
        <time>2020-12-31T13:18:14Z</time>
      </trkpt>
      <trkpt lat="43.61466" lon="3.83458">
        <ele>65.9</ele>
        <time>2020-12-31T13:18:15Z</time>
      </trkpt>
      <trkpt lat="43.61465" lon="3.83465">
        <ele>65.9</ele>
        <time>2020-12-31T13:18:16Z</time>
      </trkpt>
      <trkpt lat="43.61465" lon="3.83472">
        <ele>66</ele>
        <time>2020-12-31T13:18:17Z</time>
      </trkpt>
      <trkpt lat="43.61464" lon="3.8348">
        <ele>66</ele>
        <time>2020-12-31T13:18:18Z</time>
      </trkpt>
      <trkpt lat="43.61464" lon="3.83487">
        <ele>66</ele>
        <time>2020-12-31T13:18:20Z</time>
      </trkpt>
      <trkpt lat="43.61463" lon="3.83494">
        <ele>66</ele>
        <time>2020-12-31T13:18:21Z</time>
      </trkpt>
      <trkpt lat="43.61462" lon="3.83501">
        <ele>66</ele>
        <time>2020-12-31T13:18:22Z</time>
      </trkpt>
      <trkpt lat="43.61461" lon="3.83508">
        <ele>66</ele>
        <time>2020-12-31T13:18:23Z</time>
      </trkpt>
      <trkpt lat="43.61461" lon="3.83515">
        <ele>66</ele>
        <time>2020-12-31T13:18:24Z</time>
      </trkpt>
      <trkpt lat="43.6146" lon="3.83522">
        <ele>66</ele>
        <time>2020-12-31T13:18:25Z</time>
      </trkpt>
      <trkpt lat="43.61459" lon="3.83529">
        <ele>66</ele>
        <time>2020-12-31T13:18:26Z</time>
      </trkpt>
      <trkpt lat="43.61458" lon="3.83537">
        <ele>66.2</ele>
        <time>2020-12-31T13:18:27Z</time>
      </trkpt>
      <trkpt lat="43.61457" lon="3.83544">
        <ele>66.3</ele>
        <time>2020-12-31T13:18:28Z</time>
      </trkpt>
      <trkpt lat="43.61456" lon="3.83551">
        <ele>70</ele>
        <time>2020-12-31T13:18:29Z</time>
      </trkpt>
      <trkpt lat="43.61455" lon="3.83558">
        <ele>66.4</ele>
        <time>2020-12-31T13:18:30Z</time>
      </trkpt>
      <trkpt lat="43.61454" lon="3.83565">
        <ele>66.6</ele>
        <time>2020-12-31T13:18:31Z</time>
      </trkpt>
      <trkpt lat="43.61452" lon="3.83572">
        <ele>66.7</ele>
        <time>2020-12-31T13:18:32Z</time>
      </trkpt>
      <trkpt lat="43.6145" lon="3.83579">
        <ele>66.9</ele>
        <time>2020-12-31T13:18:33Z</time>
      </trkpt>
      <trkpt lat="43.61449" lon="3.83585">
        <ele>67</ele>
        <time>2020-12-31T13:18:34Z</time>
      </trkpt>
      <trkpt lat="43.61448" lon="3.83592">
        <ele>67</ele>
        <time>2020-12-31T13:18:35Z</time>
      </trkpt>
      <trkpt lat="43.61446" lon="3.83599">
        <ele>67</ele>
        <time>2020-12-31T13:18:36Z</time>
      </trkpt>
      <trkpt lat="43.61445" lon="3.83607">
        <ele>67</ele>
        <time>2020-12-31T13:18:37Z</time>
      </trkpt>
      <trkpt lat="43.61443" lon="3.83614">
        <ele>67</ele>
        <time>2020-12-31T13:18:38Z</time>
      </trkpt>
      <trkpt lat="43.61442" lon="3.83621">
        <ele>71</ele>
        <time>2020-12-31T13:18:39Z</time>
      </trkpt>
      <trkpt lat="43.6144" lon="3.83628">
        <ele>67</ele>
        <time>2020-12-31T13:18:40Z</time>
      </trkpt>
      <trkpt lat="43.61439" lon="3.83635">
        <ele>67</ele>
        <time>2020-12-31T13:18:41Z</time>
      </trkpt>
      <trkpt lat="43.61437" lon="3.83642">
        <ele>67.1</ele>
        <time>2020-12-31T13:18:42Z</time>
      </trkpt>
      <trkpt lat="43.61436" lon="3.83649">
        <ele>67.3</ele>
        <time>2020-12-31T13:18:43Z</time>
      </trkpt>
      <trkpt lat="43.61434" lon="3.83656">
        <ele>67.4</ele>
        <time>2020-12-31T13:18:44Z</time>
      </trkpt>
      <trkpt lat="43.61432" lon="3.83663">
        <ele>67.5</ele>
        <time>2020-12-31T13:18:45Z</time>
      </trkpt>
      <trkpt lat="43.6143" lon="3.8367">
        <ele>67.5</ele>
        <time>2020-12-31T13:18:46Z</time>
      </trkpt>
      <trkpt lat="43.61429" lon="3.83677">
        <ele>67.6</ele>
        <time>2020-12-31T13:18:47Z</time>
      </trkpt>
      <trkpt lat="43.61427" lon="3.83685">
        <ele>67.6</ele>
        <time>2020-12-31T13:18:48Z</time>
      </trkpt>
      <trkpt lat="43.61426" lon="3.83692">
        <ele>72</ele>
        <time>2020-12-31T13:18:49Z</time>
      </trkpt>
      <trkpt lat="43.61424" lon="3.83699">
        <ele>67.6</ele>
        <time>2020-12-31T13:18:50Z</time>
      </trkpt>
      <trkpt lat="43.61422" lon="3.83706">
        <ele>67.7</ele>
        <time>2020-12-31T13:18:51Z</time>
      </trkpt>
      <trkpt lat="43.6142" lon="3.83713">
        <ele>67.8</ele>
        <time>2020-12-31T13:18:52Z</time>
      </trkpt>
      <trkpt lat="43.61419" lon="3.83721">
        <ele>68</ele>
        <time>2020-12-31T13:18:53Z</time>
      </trkpt>
      <trkpt lat="43.61417" lon="3.83728">
        <ele>68</ele>
        <time>2020-12-31T13:18:54Z</time>
      </trkpt>
      <trkpt lat="43.61416" lon="3.83736">
        <ele>68</ele>
        <time>2020-12-31T13:18:55Z</time>
      </trkpt>
      <trkpt lat="43.61414" lon="3.83743">
        <ele>67.9</ele>
        <time>2020-12-31T13:18:56Z</time>
      </trkpt>
      <trkpt lat="43.61413" lon="3.83751">
        <ele>67.9</ele>
        <time>2020-12-31T13:18:57Z</time>
      </trkpt>
      <trkpt lat="43.61411" lon="3.83758">
        <ele>67.9</ele>
        <time>2020-12-31T13:18:58Z</time>
      </trkpt>
      <trkpt lat="43.6141" lon="3.83766">
        <ele>72</ele>
        <time>2020-12-31T13:18:59Z</time>
      </trkpt>
      <trkpt lat="43.61408" lon="3.83773">
        <ele>67.9</ele>
        <time>2020-12-31T13:19:00Z</time>
      </trkpt>
      <trkpt lat="43.61407" lon="3.83781">
        <ele>68.1</ele>
        <time>2020-12-31T13:19:01Z</time>
      </trkpt>
      <trkpt lat="43.61405" lon="3.83788">
        <ele>68.2</ele>
        <time>2020-12-31T13:19:02Z</time>
      </trkpt>
      <trkpt lat="43.61403" lon="3.83795">
        <ele>68.3</ele>
        <time>2020-12-31T13:19:03Z</time>
      </trkpt>
      <trkpt lat="43.61401" lon="3.83802">
        <ele>68.4</ele>
        <time>2020-12-31T13:19:04Z</time>
      </trkpt>
      <trkpt lat="43.61399" lon="3.83809">
        <ele>68.4</ele>
        <time>2020-12-31T13:19:05Z</time>
      </trkpt>
      <trkpt lat="43.61397" lon="3.83816">
        <ele>68.3</ele>
        <time>2020-12-31T13:19:06Z</time>
      </trkpt>
      <trkpt lat="43.61394" lon="3.83822">
        <ele>68.2</ele>
        <time>2020-12-31T13:19:07Z</time>
      </trkpt>
      <trkpt lat="43.61392" lon="3.83828">
        <ele>68.1</ele>
        <time>2020-12-31T13:19:08Z</time>
      </trkpt>
      <trkpt lat="43.61391" lon="3.83835">
        <ele>73</ele>
        <time>2020-12-31T13:19:09Z</time>
      </trkpt>
      <trkpt lat="43.6139" lon="3.83843">
        <ele>68.1</ele>
        <time>2020-12-31T13:19:10Z</time>
      </trkpt>
      <trkpt lat="43.61388" lon="3.8385">
        <ele>68</ele>
        <time>2020-12-31T13:19:11Z</time>
      </trkpt>
      <trkpt lat="43.61386" lon="3.83857">
        <ele>67.9</ele>
        <time>2020-12-31T13:19:12Z</time>
      </trkpt>
      <trkpt lat="43.61384" lon="3.83864">
        <ele>67.9</ele>
        <time>2020-12-31T13:19:13Z</time>
      </trkpt>
      <trkpt lat="43.61383" lon="3.8387">
        <ele>68.1</ele>
        <time>2020-12-31T13:19:14Z</time>
      </trkpt>
      <trkpt lat="43.6138" lon="3.83876">
        <ele>68.2</ele>
        <time>2020-12-31T13:19:15Z</time>
      </trkpt>
      <trkpt lat="43.61377" lon="3.8388">
        <ele>68.3</ele>
        <time>2020-12-31T13:19:16Z</time>
      </trkpt>
      <trkpt lat="43.61373" lon="3.83884">
        <ele>68.3</ele>
        <time>2020-12-31T13:19:17Z</time>
      </trkpt>
      <trkpt lat="43.61371" lon="3.83886">
        <ele>68.3</ele>
        <time>2020-12-31T13:19:18Z</time>
      </trkpt>
      <trkpt lat="43.61369" lon="3.83889">
        <ele>68.3</ele>
        <time>2020-12-31T13:19:20Z</time>
      </trkpt>
      <trkpt lat="43.61368" lon="3.83892">
        <ele>68</ele>
        <time>2020-12-31T13:19:21Z</time>
      </trkpt>
      <trkpt lat="43.61365" lon="3.83894">
        <ele>67.9</ele>
        <time>2020-12-31T13:19:22Z</time>
      </trkpt>
      <trkpt lat="43.61363" lon="3.83896">
        <ele>67.7</ele>
        <time>2020-12-31T13:19:23Z</time>
      </trkpt>
      <trkpt lat="43.6136" lon="3.83899">
        <ele>67.6</ele>
        <time>2020-12-31T13:19:24Z</time>
      </trkpt>
      <trkpt lat="43.61358" lon="3.83903">
        <ele>67.4</ele>
        <time>2020-12-31T13:19:25Z</time>
      </trkpt>
      <trkpt lat="43.61356" lon="3.83907">
        <ele>67.3</ele>
        <time>2020-12-31T13:19:26Z</time>
      </trkpt>
      <trkpt lat="43.61354" lon="3.83912">
        <ele>67.1</ele>
        <time>2020-12-31T13:19:27Z</time>
      </trkpt>
      <trkpt lat="43.61352" lon="3.83918">
        <ele>67</ele>
        <time>2020-12-31T13:19:28Z</time>
      </trkpt>
      <trkpt lat="43.61351" lon="3.83924">
        <ele>73</ele>
        <time>2020-12-31T13:19:29Z</time>
      </trkpt>
      <trkpt lat="43.61349" lon="3.83929">
        <ele>67.1</ele>
        <time>2020-12-31T13:19:30Z</time>
      </trkpt>
      <trkpt lat="43.61346" lon="3.83935">
        <ele>66.9</ele>
        <time>2020-12-31T13:19:31Z</time>
      </trkpt>
      <trkpt lat="43.61345" lon="3.83941">
        <ele>66.9</ele>
        <time>2020-12-31T13:19:32Z</time>
      </trkpt>
      <trkpt lat="43.61345" lon="3.83947">
        <ele>66.8</ele>
        <time>2020-12-31T13:19:33Z</time>
      </trkpt>
      <trkpt lat="43.61345" lon="3.83954">
        <ele>66.8</ele>
        <time>2020-12-31T13:19:34Z</time>
      </trkpt>
      <trkpt lat="43.61345" lon="3.83961">
        <ele>66.8</ele>
        <time>2020-12-31T13:19:35Z</time>
      </trkpt>
      <trkpt lat="43.61345" lon="3.83968">
        <ele>66.8</ele>
        <time>2020-12-31T13:19:36Z</time>
      </trkpt>
      <trkpt lat="43.61345" lon="3.83975">
        <ele>66.8</ele>
        <time>2020-12-31T13:19:37Z</time>
      </trkpt>
      <trkpt lat="43.61345" lon="3.83983">
        <ele>66.8</ele>
        <time>2020-12-31T13:19:38Z</time>
      </trkpt>
      <trkpt lat="43.61346" lon="3.8399">
        <ele>73</ele>
        <time>2020-12-31T13:19:39Z</time>
      </trkpt>
      <trkpt lat="43.61346" lon="3.83997">
        <ele>66.9</ele>
        <time>2020-12-31T13:19:40Z</time>
      </trkpt>
      <trkpt lat="43.61345" lon="3.84005">
        <ele>66.8</ele>
        <time>2020-12-31T13:19:41Z</time>
      </trkpt>
      <trkpt lat="43.61346" lon="3.84012">
        <ele>66.7</ele>
        <time>2020-12-31T13:19:42Z</time>
      </trkpt>
      <trkpt lat="43.61347" lon="3.8402">
        <ele>66.6</ele>
        <time>2020-12-31T13:19:43Z</time>
      </trkpt>
      <trkpt lat="43.61347" lon="3.84027">
        <ele>66.5</ele>
        <time>2020-12-31T13:19:44Z</time>
      </trkpt>
      <trkpt lat="43.61346" lon="3.84035">
        <ele>66.5</ele>
        <time>2020-12-31T13:19:45Z</time>
      </trkpt>
      <trkpt lat="43.61345" lon="3.84043">
        <ele>66.4</ele>
        <time>2020-12-31T13:19:46Z</time>
      </trkpt>
      <trkpt lat="43.61344" lon="3.8405">
        <ele>66.4</ele>
        <time>2020-12-31T13:19:47Z</time>
      </trkpt>
      <trkpt lat="43.61343" lon="3.84058">
        <ele>66.4</ele>
        <time>2020-12-31T13:19:48Z</time>
      </trkpt>
      <trkpt lat="43.61342" lon="3.84066">
        <ele>72</ele>
        <time>2020-12-31T13:19:49Z</time>
      </trkpt>
      <trkpt lat="43.61341" lon="3.84074">
        <ele>66.9</ele>
        <time>2020-12-31T13:19:50Z</time>
      </trkpt>
      <trkpt lat="43.6134" lon="3.84082">
        <ele>67.2</ele>
        <time>2020-12-31T13:19:51Z</time>
      </trkpt>
      <trkpt lat="43.61339" lon="3.84089">
        <ele>67.2</ele>
        <time>2020-12-31T13:19:52Z</time>
      </trkpt>
      <trkpt lat="43.61337" lon="3.84097">
        <ele>67.1</ele>
        <time>2020-12-31T13:19:53Z</time>
      </trkpt>
      <trkpt lat="43.61336" lon="3.84105">
        <ele>67.1</ele>
        <time>2020-12-31T13:19:54Z</time>
      </trkpt>
      <trkpt lat="43.61335" lon="3.84113">
        <ele>67.1</ele>
        <time>2020-12-31T13:19:55Z</time>
      </trkpt>
      <trkpt lat="43.61333" lon="3.84121">
        <ele>67</ele>
        <time>2020-12-31T13:19:56Z</time>
      </trkpt>
      <trkpt lat="43.61332" lon="3.84129">
        <ele>66.9</ele>
        <time>2020-12-31T13:19:57Z</time>
      </trkpt>
      <trkpt lat="43.61331" lon="3.84137">
        <ele>66.8</ele>
        <time>2020-12-31T13:19:58Z</time>
      </trkpt>
      <trkpt lat="43.6133" lon="3.84144">
        <ele>72</ele>
        <time>2020-12-31T13:19:59Z</time>
      </trkpt>
      <trkpt lat="43.61329" lon="3.84152">
        <ele>66.7</ele>
        <time>2020-12-31T13:20:00Z</time>
      </trkpt>
      <trkpt lat="43.61327" lon="3.8416">
        <ele>66.5</ele>
        <time>2020-12-31T13:20:01Z</time>
      </trkpt>
      <trkpt lat="43.61326" lon="3.84168">
        <ele>66.5</ele>
        <time>2020-12-31T13:20:02Z</time>
      </trkpt>
      <trkpt lat="43.61325" lon="3.84176">
        <ele>66.5</ele>
        <time>2020-12-31T13:20:03Z</time>
      </trkpt>
      <trkpt lat="43.61324" lon="3.84184">
        <ele>66.5</ele>
        <time>2020-12-31T13:20:04Z</time>
      </trkpt>
      <trkpt lat="43.61323" lon="3.84192">
        <ele>66.6</ele>
        <time>2020-12-31T13:20:05Z</time>
      </trkpt>
      <trkpt lat="43.61322" lon="3.84199">
        <ele>66.6</ele>
        <time>2020-12-31T13:20:06Z</time>
      </trkpt>
      <trkpt lat="43.61321" lon="3.84207">
        <ele>66.6</ele>
        <time>2020-12-31T13:20:07Z</time>
      </trkpt>
      <trkpt lat="43.6132" lon="3.84215">
        <ele>66.5</ele>
        <time>2020-12-31T13:20:08Z</time>
      </trkpt>
      <trkpt lat="43.61318" lon="3.84223">
        <ele>71</ele>
        <time>2020-12-31T13:20:09Z</time>
      </trkpt>
      <trkpt lat="43.61317" lon="3.8423">
        <ele>66.4</ele>
        <time>2020-12-31T13:20:10Z</time>
      </trkpt>
      <trkpt lat="43.61316" lon="3.84238">
        <ele>66.4</ele>
        <time>2020-12-31T13:20:11Z</time>
      </trkpt>
      <trkpt lat="43.61314" lon="3.84246">
        <ele>66.3</ele>
        <time>2020-12-31T13:20:12Z</time>
      </trkpt>
      <trkpt lat="43.61313" lon="3.84253">
        <ele>66.3</ele>
        <time>2020-12-31T13:20:13Z</time>
      </trkpt>
      <trkpt lat="43.61312" lon="3.84261">
        <ele>66.2</ele>
        <time>2020-12-31T13:20:14Z</time>
      </trkpt>
      <trkpt lat="43.61311" lon="3.84269">
        <ele>66.2</ele>
        <time>2020-12-31T13:20:15Z</time>
      </trkpt>
      <trkpt lat="43.61309" lon="3.84276">
        <ele>66.1</ele>
        <time>2020-12-31T13:20:16Z</time>
      </trkpt>
      <trkpt lat="43.61308" lon="3.84284">
        <ele>66.3</ele>
        <time>2020-12-31T13:20:17Z</time>
      </trkpt>
      <trkpt lat="43.61307" lon="3.84292">
        <ele>66.6</ele>
        <time>2020-12-31T13:20:18Z</time>
      </trkpt>
      <trkpt lat="43.61305" lon="3.84299">
        <ele>71</ele>
        <time>2020-12-31T13:20:19Z</time>
      </trkpt>
      <trkpt lat="43.61303" lon="3.84307">
        <ele>66.8</ele>
        <time>2020-12-31T13:20:20Z</time>
      </trkpt>
      <trkpt lat="43.61301" lon="3.84314">
        <ele>66.7</ele>
        <time>2020-12-31T13:20:21Z</time>
      </trkpt>
      <trkpt lat="43.61299" lon="3.84322">
        <ele>66.7</ele>
        <time>2020-12-31T13:20:22Z</time>
      </trkpt>
      <trkpt lat="43.61297" lon="3.84329">
        <ele>66.6</ele>
        <time>2020-12-31T13:20:23Z</time>
      </trkpt>
      <trkpt lat="43.61296" lon="3.84336">
        <ele>66.7</ele>
        <time>2020-12-31T13:20:24Z</time>
      </trkpt>
      <trkpt lat="43.61294" lon="3.84343">
        <ele>66.8</ele>
        <time>2020-12-31T13:20:25Z</time>
      </trkpt>
      <trkpt lat="43.61292" lon="3.84351">
        <ele>66.8</ele>
        <time>2020-12-31T13:20:26Z</time>
      </trkpt>
      <trkpt lat="43.6129" lon="3.84358">
        <ele>66.8</ele>
        <time>2020-12-31T13:20:27Z</time>
      </trkpt>
      <trkpt lat="43.61288" lon="3.84365">
        <ele>66.9</ele>
        <time>2020-12-31T13:20:28Z</time>
      </trkpt>
      <trkpt lat="43.61286" lon="3.84371">
        <ele>71</ele>
        <time>2020-12-31T13:20:29Z</time>
      </trkpt>
      <trkpt lat="43.61284" lon="3.84378">
        <ele>67.1</ele>
        <time>2020-12-31T13:20:30Z</time>
      </trkpt>
      <trkpt lat="43.61282" lon="3.84385">
        <ele>67.2</ele>
        <time>2020-12-31T13:20:31Z</time>
      </trkpt>
      <trkpt lat="43.6128" lon="3.84392">
        <ele>67.2</ele>
        <time>2020-12-31T13:20:32Z</time>
      </trkpt>
      <trkpt lat="43.61278" lon="3.84398">
        <ele>67</ele>
        <time>2020-12-31T13:20:33Z</time>
      </trkpt>
      <trkpt lat="43.61276" lon="3.84405">
        <ele>67</ele>
        <time>2020-12-31T13:20:34Z</time>
      </trkpt>
      <trkpt lat="43.61274" lon="3.84412">
        <ele>67</ele>
        <time>2020-12-31T13:20:35Z</time>
      </trkpt>
      <trkpt lat="43.61273" lon="3.84418">
        <ele>67</ele>
        <time>2020-12-31T13:20:36Z</time>
      </trkpt>
      <trkpt lat="43.61271" lon="3.84425">
        <ele>67.2</ele>
        <time>2020-12-31T13:20:37Z</time>
      </trkpt>
      <trkpt lat="43.61269" lon="3.84431">
        <ele>67.4</ele>
        <time>2020-12-31T13:20:38Z</time>
      </trkpt>
      <trkpt lat="43.61267" lon="3.84437">
        <ele>72</ele>
        <time>2020-12-31T13:20:39Z</time>
      </trkpt>
      <trkpt lat="43.61265" lon="3.84444">
        <ele>67.5</ele>
        <time>2020-12-31T13:20:40Z</time>
      </trkpt>
      <trkpt lat="43.61263" lon="3.8445">
        <ele>67.6</ele>
        <time>2020-12-31T13:20:41Z</time>
      </trkpt>
      <trkpt lat="43.61261" lon="3.84456">
        <ele>67.6</ele>
        <time>2020-12-31T13:20:42Z</time>
      </trkpt>
      <trkpt lat="43.61258" lon="3.84462">
        <ele>67.7</ele>
        <time>2020-12-31T13:20:43Z</time>
      </trkpt>
      <trkpt lat="43.61256" lon="3.84468">
        <ele>67.9</ele>
        <time>2020-12-31T13:20:44Z</time>
      </trkpt>
      <trkpt lat="43.61254" lon="3.84474">
        <ele>68</ele>
        <time>2020-12-31T13:20:45Z</time>
      </trkpt>
      <trkpt lat="43.61251" lon="3.8448">
        <ele>68</ele>
        <time>2020-12-31T13:20:46Z</time>
      </trkpt>
      <trkpt lat="43.61248" lon="3.84485">
        <ele>68</ele>
        <time>2020-12-31T13:20:47Z</time>
      </trkpt>
      <trkpt lat="43.61246" lon="3.84491">
        <ele>68</ele>
        <time>2020-12-31T13:20:48Z</time>
      </trkpt>
      <trkpt lat="43.61243" lon="3.84497">
        <ele>72</ele>
        <time>2020-12-31T13:20:49Z</time>
      </trkpt>
      <trkpt lat="43.61241" lon="3.84502">
        <ele>68</ele>
        <time>2020-12-31T13:20:50Z</time>
      </trkpt>
      <trkpt lat="43.61238" lon="3.84508">
        <ele>68.2</ele>
        <time>2020-12-31T13:20:51Z</time>
      </trkpt>
      <trkpt lat="43.61236" lon="3.84513">
        <ele>68.2</ele>
        <time>2020-12-31T13:20:52Z</time>
      </trkpt>
      <trkpt lat="43.61233" lon="3.84519">
        <ele>68.3</ele>
        <time>2020-12-31T13:20:53Z</time>
      </trkpt>
      <trkpt lat="43.6123" lon="3.84525">
        <ele>68.3</ele>
        <time>2020-12-31T13:20:54Z</time>
      </trkpt>
      <trkpt lat="43.61228" lon="3.8453">
        <ele>68.3</ele>
        <time>2020-12-31T13:20:55Z</time>
      </trkpt>
      <trkpt lat="43.61225" lon="3.84536">
        <ele>68.4</ele>
        <time>2020-12-31T13:20:56Z</time>
      </trkpt>
      <trkpt lat="43.61222" lon="3.84541">
        <ele>68.5</ele>
        <time>2020-12-31T13:20:57Z</time>
      </trkpt>
      <trkpt lat="43.6122" lon="3.84547">
        <ele>68.6</ele>
        <time>2020-12-31T13:20:58Z</time>
      </trkpt>
      <trkpt lat="43.61217" lon="3.84553">
        <ele>72</ele>
        <time>2020-12-31T13:20:59Z</time>
      </trkpt>
      <trkpt lat="43.61214" lon="3.84558">
        <ele>68.7</ele>
        <time>2020-12-31T13:21:00Z</time>
      </trkpt>
      <trkpt lat="43.61211" lon="3.84563">
        <ele>68.7</ele>
        <time>2020-12-31T13:21:01Z</time>
      </trkpt>
      <trkpt lat="43.61209" lon="3.84569">
        <ele>68.8</ele>
        <time>2020-12-31T13:21:02Z</time>
      </trkpt>
      <trkpt lat="43.61206" lon="3.84574">
        <ele>68.8</ele>
        <time>2020-12-31T13:21:03Z</time>
      </trkpt>
      <trkpt lat="43.61204" lon="3.84578">
        <ele>68.9</ele>
        <time>2020-12-31T13:21:04Z</time>
      </trkpt>
      <trkpt lat="43.612" lon="3.84583">
        <ele>69</ele>
        <time>2020-12-31T13:21:05Z</time>
      </trkpt>
      <trkpt lat="43.61197" lon="3.84587">
        <ele>69</ele>
        <time>2020-12-31T13:21:06Z</time>
      </trkpt>
      <trkpt lat="43.61193" lon="3.84592">
        <ele>69</ele>
        <time>2020-12-31T13:21:07Z</time>
      </trkpt>
      <trkpt lat="43.6119" lon="3.84596">
        <ele>69.1</ele>
        <time>2020-12-31T13:21:08Z</time>
      </trkpt>
      <trkpt lat="43.61186" lon="3.846">
        <ele>73</ele>
        <time>2020-12-31T13:21:09Z</time>
      </trkpt>
      <trkpt lat="43.61183" lon="3.84605">
        <ele>69.1</ele>
        <time>2020-12-31T13:21:10Z</time>
      </trkpt>
      <trkpt lat="43.61179" lon="3.84609">
        <ele>69</ele>
        <time>2020-12-31T13:21:11Z</time>
      </trkpt>
      <trkpt lat="43.61176" lon="3.84613">
        <ele>69</ele>
        <time>2020-12-31T13:21:12Z</time>
      </trkpt>
      <trkpt lat="43.61172" lon="3.84617">
        <ele>69</ele>
        <time>2020-12-31T13:21:13Z</time>
      </trkpt>
      <trkpt lat="43.61169" lon="3.8462">
        <ele>69</ele>
        <time>2020-12-31T13:21:14Z</time>
      </trkpt>
      <trkpt lat="43.61166" lon="3.84622">
        <ele>69</ele>
        <time>2020-12-31T13:21:15Z</time>
      </trkpt>
      <trkpt lat="43.61164" lon="3.84624">
        <ele>69</ele>
        <time>2020-12-31T13:21:16Z</time>
      </trkpt>
      <trkpt lat="43.61163" lon="3.84627">
        <ele>69</ele>
        <time>2020-12-31T13:21:17Z</time>
      </trkpt>
      <trkpt lat="43.6116" lon="3.84631">
        <ele>69</ele>
        <time>2020-12-31T13:21:18Z</time>
      </trkpt>
      <trkpt lat="43.61155" lon="3.84637">
        <ele>72</ele>
        <time>2020-12-31T13:21:19Z</time>
      </trkpt>
      <trkpt lat="43.61153" lon="3.84641">
        <ele>69</ele>
        <time>2020-12-31T13:21:20Z</time>
      </trkpt>
      <trkpt lat="43.61151" lon="3.84645">
        <ele>69</ele>
        <time>2020-12-31T13:21:21Z</time>
      </trkpt>
      <trkpt lat="43.61148" lon="3.8465">
        <ele>69</ele>
        <time>2020-12-31T13:21:22Z</time>
      </trkpt>
      <trkpt lat="43.61146" lon="3.84654">
        <ele>69</ele>
        <time>2020-12-31T13:21:23Z</time>
      </trkpt>
      <trkpt lat="43.61143" lon="3.84659">
        <ele>69</ele>
        <time>2020-12-31T13:21:24Z</time>
      </trkpt>
      <trkpt lat="43.61141" lon="3.84664">
        <ele>69</ele>
        <time>2020-12-31T13:21:25Z</time>
      </trkpt>
      <trkpt lat="43.61138" lon="3.84669">
        <ele>68.9</ele>
        <time>2020-12-31T13:21:26Z</time>
      </trkpt>
      <trkpt lat="43.61135" lon="3.84674">
        <ele>68.7</ele>
        <time>2020-12-31T13:21:27Z</time>
      </trkpt>
      <trkpt lat="43.61132" lon="3.8468">
        <ele>68.5</ele>
        <time>2020-12-31T13:21:28Z</time>
      </trkpt>
      <trkpt lat="43.61129" lon="3.84685">
        <ele>68.3</ele>
        <time>2020-12-31T13:21:30Z</time>
      </trkpt>
      <trkpt lat="43.61126" lon="3.8469">
        <ele>68.2</ele>
        <time>2020-12-31T13:21:31Z</time>
      </trkpt>
      <trkpt lat="43.61123" lon="3.84696">
        <ele>68</ele>
        <time>2020-12-31T13:21:32Z</time>
      </trkpt>
      <trkpt lat="43.6112" lon="3.84702">
        <ele>68.1</ele>
        <time>2020-12-31T13:21:33Z</time>
      </trkpt>
      <trkpt lat="43.61117" lon="3.84708">
        <ele>68.1</ele>
        <time>2020-12-31T13:21:34Z</time>
      </trkpt>
      <trkpt lat="43.61115" lon="3.84715">
        <ele>68.1</ele>
        <time>2020-12-31T13:21:35Z</time>
      </trkpt>
      <trkpt lat="43.61112" lon="3.84721">
        <ele>68</ele>
        <time>2020-12-31T13:21:36Z</time>
      </trkpt>
      <trkpt lat="43.6111" lon="3.84728">
        <ele>67.8</ele>
        <time>2020-12-31T13:21:37Z</time>
      </trkpt>
      <trkpt lat="43.61108" lon="3.84735">
        <ele>67.7</ele>
        <time>2020-12-31T13:21:38Z</time>
      </trkpt>
      <trkpt lat="43.61106" lon="3.84742">
        <ele>73</ele>
        <time>2020-12-31T13:21:39Z</time>
      </trkpt>
      <trkpt lat="43.61105" lon="3.84749">
        <ele>67.3</ele>
        <time>2020-12-31T13:21:40Z</time>
      </trkpt>
      <trkpt lat="43.61103" lon="3.84757">
        <ele>67.4</ele>
        <time>2020-12-31T13:21:41Z</time>
      </trkpt>
      <trkpt lat="43.61101" lon="3.84764">
        <ele>67.5</ele>
        <time>2020-12-31T13:21:42Z</time>
      </trkpt>
      <trkpt lat="43.61099" lon="3.84772">
        <ele>67.5</ele>
        <time>2020-12-31T13:21:43Z</time>
      </trkpt>
      <trkpt lat="43.61097" lon="3.8478">
        <ele>67.5</ele>
        <time>2020-12-31T13:21:44Z</time>
      </trkpt>
      <trkpt lat="43.61095" lon="3.84788">
        <ele>67.4</ele>
        <time>2020-12-31T13:21:45Z</time>
      </trkpt>
      <trkpt lat="43.61093" lon="3.84796">
        <ele>67.3</ele>
        <time>2020-12-31T13:21:46Z</time>
      </trkpt>
      <trkpt lat="43.61091" lon="3.84804">
        <ele>67.3</ele>
        <time>2020-12-31T13:21:47Z</time>
      </trkpt>
      <trkpt lat="43.61089" lon="3.84812">
        <ele>67</ele>
        <time>2020-12-31T13:21:48Z</time>
      </trkpt>
      <trkpt lat="43.61087" lon="3.8482">
        <ele>72</ele>
        <time>2020-12-31T13:21:49Z</time>
      </trkpt>
      <trkpt lat="43.61085" lon="3.84828">
        <ele>66.3</ele>
        <time>2020-12-31T13:21:50Z</time>
      </trkpt>
      <trkpt lat="43.61083" lon="3.84835">
        <ele>66</ele>
        <time>2020-12-31T13:21:51Z</time>
      </trkpt>
      <trkpt lat="43.61081" lon="3.84843">
        <ele>66.1</ele>
        <time>2020-12-31T13:21:52Z</time>
      </trkpt>
      <trkpt lat="43.6108" lon="3.84851">
        <ele>66.2</ele>
        <time>2020-12-31T13:21:53Z</time>
      </trkpt>
      <trkpt lat="43.61078" lon="3.84859">
        <ele>66.2</ele>
        <time>2020-12-31T13:21:54Z</time>
      </trkpt>
      <trkpt lat="43.61076" lon="3.84867">
        <ele>66.2</ele>
        <time>2020-12-31T13:21:55Z</time>
      </trkpt>
      <trkpt lat="43.61074" lon="3.84875">
        <ele>66.2</ele>
        <time>2020-12-31T13:21:56Z</time>
      </trkpt>
      <trkpt lat="43.61072" lon="3.84883">
        <ele>66.1</ele>
        <time>2020-12-31T13:21:57Z</time>
      </trkpt>
      <trkpt lat="43.6107" lon="3.84891">
        <ele>66</ele>
        <time>2020-12-31T13:21:58Z</time>
      </trkpt>
      <trkpt lat="43.61069" lon="3.84899">
        <ele>72</ele>
        <time>2020-12-31T13:21:59Z</time>
      </trkpt>
      <trkpt lat="43.61067" lon="3.84906">
        <ele>66</ele>
        <time>2020-12-31T13:22:00Z</time>
      </trkpt>
      <trkpt lat="43.61065" lon="3.84914">
        <ele>66</ele>
        <time>2020-12-31T13:22:01Z</time>
      </trkpt>
      <trkpt lat="43.61063" lon="3.84921">
        <ele>66</ele>
        <time>2020-12-31T13:22:02Z</time>
      </trkpt>
      <trkpt lat="43.61061" lon="3.84929">
        <ele>66</ele>
        <time>2020-12-31T13:22:03Z</time>
      </trkpt>
      <trkpt lat="43.61059" lon="3.84936">
        <ele>66</ele>
        <time>2020-12-31T13:22:04Z</time>
      </trkpt>
      <trkpt lat="43.61058" lon="3.84944">
        <ele>66</ele>
        <time>2020-12-31T13:22:05Z</time>
      </trkpt>
      <trkpt lat="43.61056" lon="3.84951">
        <ele>66</ele>
        <time>2020-12-31T13:22:06Z</time>
      </trkpt>
      <trkpt lat="43.61054" lon="3.84959">
        <ele>66</ele>
        <time>2020-12-31T13:22:07Z</time>
      </trkpt>
      <trkpt lat="43.61052" lon="3.84966">
        <ele>66</ele>
        <time>2020-12-31T13:22:08Z</time>
      </trkpt>
      <trkpt lat="43.61051" lon="3.84974">
        <ele>71</ele>
        <time>2020-12-31T13:22:09Z</time>
      </trkpt>
      <trkpt lat="43.61049" lon="3.84981">
        <ele>65.8</ele>
        <time>2020-12-31T13:22:10Z</time>
      </trkpt>
      <trkpt lat="43.61047" lon="3.84988">
        <ele>65.8</ele>
        <time>2020-12-31T13:22:11Z</time>
      </trkpt>
      <trkpt lat="43.61045" lon="3.84996">
        <ele>65.8</ele>
        <time>2020-12-31T13:22:12Z</time>
      </trkpt>
      <trkpt lat="43.61043" lon="3.85004">
        <ele>65.8</ele>
        <time>2020-12-31T13:22:13Z</time>
      </trkpt>
      <trkpt lat="43.61042" lon="3.85012">
        <ele>65.8</ele>
        <time>2020-12-31T13:22:14Z</time>
      </trkpt>
      <trkpt lat="43.6104" lon="3.85019">
        <ele>65.7</ele>
        <time>2020-12-31T13:22:15Z</time>
      </trkpt>
      <trkpt lat="43.61039" lon="3.85027">
        <ele>65.6</ele>
        <time>2020-12-31T13:22:16Z</time>
      </trkpt>
      <trkpt lat="43.61037" lon="3.85036">
        <ele>65.7</ele>
        <time>2020-12-31T13:22:17Z</time>
      </trkpt>
      <trkpt lat="43.61037" lon="3.85044">
        <ele>65.7</ele>
        <time>2020-12-31T13:22:18Z</time>
      </trkpt>
      <trkpt lat="43.61036" lon="3.85051">
        <ele>70</ele>
        <time>2020-12-31T13:22:19Z</time>
      </trkpt>
      <trkpt lat="43.61035" lon="3.85059">
        <ele>65.7</ele>
        <time>2020-12-31T13:22:20Z</time>
      </trkpt>
      <trkpt lat="43.61034" lon="3.85066">
        <ele>65.6</ele>
        <time>2020-12-31T13:22:21Z</time>
      </trkpt>
      <trkpt lat="43.61034" lon="3.85073">
        <ele>65.4</ele>
        <time>2020-12-31T13:22:22Z</time>
      </trkpt>
      <trkpt lat="43.61032" lon="3.8508">
        <ele>65.2</ele>
        <time>2020-12-31T13:22:23Z</time>
      </trkpt>
      <trkpt lat="43.61031" lon="3.85086">
        <ele>65</ele>
        <time>2020-12-31T13:22:24Z</time>
      </trkpt>
      <trkpt lat="43.6103" lon="3.85093">
        <ele>64.7</ele>
        <time>2020-12-31T13:22:25Z</time>
      </trkpt>
      <trkpt lat="43.61029" lon="3.85098">
        <ele>64.5</ele>
        <time>2020-12-31T13:22:26Z</time>
      </trkpt>
      <trkpt lat="43.61029" lon="3.85101">
        <ele>64.4</ele>
        <time>2020-12-31T13:22:27Z</time>
      </trkpt>
      <trkpt lat="43.6103" lon="3.85104">
        <ele>64.3</ele>
        <time>2020-12-31T13:22:28Z</time>
      </trkpt>
      <trkpt lat="43.61029" lon="3.85108">
        <ele>71</ele>
        <time>2020-12-31T13:22:29Z</time>
      </trkpt>
      <trkpt lat="43.61028" lon="3.85113">
        <ele>64</ele>
        <time>2020-12-31T13:22:30Z</time>
      </trkpt>
      <trkpt lat="43.61027" lon="3.85119">
        <ele>64</ele>
        <time>2020-12-31T13:22:31Z</time>
      </trkpt>
      <trkpt lat="43.61026" lon="3.85125">
        <ele>64.1</ele>
        <time>2020-12-31T13:22:32Z</time>
      </trkpt>
      <trkpt lat="43.61025" lon="3.85131">
        <ele>64.1</ele>
        <time>2020-12-31T13:22:33Z</time>
      </trkpt>
      <trkpt lat="43.61025" lon="3.85138">
        <ele>64.1</ele>
        <time>2020-12-31T13:22:34Z</time>
      </trkpt>
      <trkpt lat="43.61024" lon="3.85144">
        <ele>64.2</ele>
        <time>2020-12-31T13:22:35Z</time>
      </trkpt>
      <trkpt lat="43.61024" lon="3.85151">
        <ele>64.2</ele>
        <time>2020-12-31T13:22:36Z</time>
      </trkpt>
      <trkpt lat="43.61023" lon="3.85157">
        <ele>64.3</ele>
        <time>2020-12-31T13:22:37Z</time>
      </trkpt>
      <trkpt lat="43.61023" lon="3.85164">
        <ele>64.3</ele>
        <time>2020-12-31T13:22:38Z</time>
      </trkpt>
      <trkpt lat="43.61023" lon="3.85171">
        <ele>72</ele>
        <time>2020-12-31T13:22:39Z</time>
      </trkpt>
      <trkpt lat="43.61023" lon="3.85178">
        <ele>64.3</ele>
        <time>2020-12-31T13:22:40Z</time>
      </trkpt>
      <trkpt lat="43.61023" lon="3.85185">
        <ele>64.3</ele>
        <time>2020-12-31T13:22:41Z</time>
      </trkpt>
      <trkpt lat="43.61022" lon="3.85193">
        <ele>64.4</ele>
        <time>2020-12-31T13:22:42Z</time>
      </trkpt>
      <trkpt lat="43.61022" lon="3.85201">
        <ele>64.3</ele>
        <time>2020-12-31T13:22:43Z</time>
      </trkpt>
      <trkpt lat="43.61021" lon="3.85209">
        <ele>64.2</ele>
        <time>2020-12-31T13:22:44Z</time>
      </trkpt>
      <trkpt lat="43.6102" lon="3.85218">
        <ele>64.1</ele>
        <time>2020-12-31T13:22:45Z</time>
      </trkpt>
      <trkpt lat="43.61019" lon="3.85226">
        <ele>63.9</ele>
        <time>2020-12-31T13:22:46Z</time>
      </trkpt>
      <trkpt lat="43.61019" lon="3.85234">
        <ele>63.8</ele>
        <time>2020-12-31T13:22:47Z</time>
      </trkpt>
      <trkpt lat="43.61019" lon="3.85243">
        <ele>63.7</ele>
        <time>2020-12-31T13:22:48Z</time>
      </trkpt>
      <trkpt lat="43.61018" lon="3.85251">
        <ele>71</ele>
        <time>2020-12-31T13:22:49Z</time>
      </trkpt>
      <trkpt lat="43.61018" lon="3.8526">
        <ele>63.5</ele>
        <time>2020-12-31T13:22:50Z</time>
      </trkpt>
      <trkpt lat="43.61017" lon="3.85268">
        <ele>63.4</ele>
        <time>2020-12-31T13:22:51Z</time>
      </trkpt>
      <trkpt lat="43.61017" lon="3.85277">
        <ele>63.2</ele>
        <time>2020-12-31T13:22:52Z</time>
      </trkpt>
      <trkpt lat="43.61017" lon="3.85285">
        <ele>63.2</ele>
        <time>2020-12-31T13:22:53Z</time>
      </trkpt>
      <trkpt lat="43.61017" lon="3.85294">
        <ele>63.2</ele>
        <time>2020-12-31T13:22:54Z</time>
      </trkpt>
      <trkpt lat="43.61017" lon="3.85302">
        <ele>63.2</ele>
        <time>2020-12-31T13:22:55Z</time>
      </trkpt>
      <trkpt lat="43.61017" lon="3.8531">
        <ele>63.1</ele>
        <time>2020-12-31T13:22:56Z</time>
      </trkpt>
      <trkpt lat="43.61016" lon="3.85319">
        <ele>63.1</ele>
        <time>2020-12-31T13:22:57Z</time>
      </trkpt>
      <trkpt lat="43.61016" lon="3.85328">
        <ele>62.9</ele>
        <time>2020-12-31T13:22:58Z</time>
      </trkpt>
      <trkpt lat="43.61014" lon="3.85336">
        <ele>70</ele>
        <time>2020-12-31T13:22:59Z</time>
      </trkpt>
      <trkpt lat="43.61014" lon="3.85345">
        <ele>62.8</ele>
        <time>2020-12-31T13:23:00Z</time>
      </trkpt>
      <trkpt lat="43.61013" lon="3.85354">
        <ele>62.7</ele>
        <time>2020-12-31T13:23:01Z</time>
      </trkpt>
      <trkpt lat="43.61013" lon="3.85363">
        <ele>62.6</ele>
        <time>2020-12-31T13:23:02Z</time>
      </trkpt>
      <trkpt lat="43.61013" lon="3.85372">
        <ele>62.7</ele>
        <time>2020-12-31T13:23:03Z</time>
      </trkpt>
      <trkpt lat="43.61013" lon="3.85381">
        <ele>62.9</ele>
        <time>2020-12-31T13:23:04Z</time>
      </trkpt>
      <trkpt lat="43.61013" lon="3.8539">
        <ele>63</ele>
        <time>2020-12-31T13:23:05Z</time>
      </trkpt>
      <trkpt lat="43.61013" lon="3.85399">
        <ele>62.9</ele>
        <time>2020-12-31T13:23:06Z</time>
      </trkpt>
      <trkpt lat="43.61014" lon="3.85408">
        <ele>62.6</ele>
        <time>2020-12-31T13:23:07Z</time>
      </trkpt>
      <trkpt lat="43.61014" lon="3.85417">
        <ele>62.5</ele>
        <time>2020-12-31T13:23:08Z</time>
      </trkpt>
      <trkpt lat="43.61015" lon="3.85426">
        <ele>69</ele>
        <time>2020-12-31T13:23:09Z</time>
      </trkpt>
      <trkpt lat="43.61016" lon="3.85435">
        <ele>62.3</ele>
        <time>2020-12-31T13:23:10Z</time>
      </trkpt>
      <trkpt lat="43.61017" lon="3.85444">
        <ele>62.2</ele>
        <time>2020-12-31T13:23:11Z</time>
      </trkpt>
      <trkpt lat="43.61018" lon="3.85453">
        <ele>62.1</ele>
        <time>2020-12-31T13:23:12Z</time>
      </trkpt>
      <trkpt lat="43.61019" lon="3.85462">
        <ele>61.9</ele>
        <time>2020-12-31T13:23:13Z</time>
      </trkpt>
      <trkpt lat="43.6102" lon="3.85471">
        <ele>61.8</ele>
        <time>2020-12-31T13:23:14Z</time>
      </trkpt>
      <trkpt lat="43.61022" lon="3.8548">
        <ele>61.4</ele>
        <time>2020-12-31T13:23:15Z</time>
      </trkpt>
      <trkpt lat="43.61023" lon="3.85489">
        <ele>61</ele>
        <time>2020-12-31T13:23:16Z</time>
      </trkpt>
      <trkpt lat="43.61024" lon="3.85498">
        <ele>60.6</ele>
        <time>2020-12-31T13:23:17Z</time>
      </trkpt>
      <trkpt lat="43.61025" lon="3.85507">
        <ele>60.4</ele>
        <time>2020-12-31T13:23:18Z</time>
      </trkpt>
      <trkpt lat="43.61026" lon="3.85515">
        <ele>69</ele>
        <time>2020-12-31T13:23:19Z</time>
      </trkpt>
      <trkpt lat="43.61027" lon="3.85524">
        <ele>60.1</ele>
        <time>2020-12-31T13:23:20Z</time>
      </trkpt>
      <trkpt lat="43.61029" lon="3.85533">
        <ele>59.8</ele>
        <time>2020-12-31T13:23:21Z</time>
      </trkpt>
      <trkpt lat="43.6103" lon="3.85542">
        <ele>59.6</ele>
        <time>2020-12-31T13:23:22Z</time>
      </trkpt>
      <trkpt lat="43.61031" lon="3.85551">
        <ele>59.5</ele>
        <time>2020-12-31T13:23:23Z</time>
      </trkpt>
      <trkpt lat="43.61032" lon="3.8556">
        <ele>59.4</ele>
        <time>2020-12-31T13:23:24Z</time>
      </trkpt>
      <trkpt lat="43.61033" lon="3.85569">
        <ele>59.4</ele>
        <time>2020-12-31T13:23:25Z</time>
      </trkpt>
      <trkpt lat="43.61034" lon="3.85578">
        <ele>59.5</ele>
        <time>2020-12-31T13:23:26Z</time>
      </trkpt>
      <trkpt lat="43.61035" lon="3.85587">
        <ele>59.5</ele>
        <time>2020-12-31T13:23:27Z</time>
      </trkpt>
      <trkpt lat="43.61036" lon="3.85596">
        <ele>59.4</ele>
        <time>2020-12-31T13:23:28Z</time>
      </trkpt>
      <trkpt lat="43.61038" lon="3.85604">
        <ele>69</ele>
        <time>2020-12-31T13:23:29Z</time>
      </trkpt>
      <trkpt lat="43.61039" lon="3.85613">
        <ele>59.3</ele>
        <time>2020-12-31T13:23:30Z</time>
      </trkpt>
      <trkpt lat="43.6104" lon="3.85622">
        <ele>59.6</ele>
        <time>2020-12-31T13:23:31Z</time>
      </trkpt>
      <trkpt lat="43.61041" lon="3.85631">
        <ele>59.8</ele>
        <time>2020-12-31T13:23:32Z</time>
      </trkpt>
      <trkpt lat="43.61042" lon="3.85639">
        <ele>60</ele>
        <time>2020-12-31T13:23:33Z</time>
      </trkpt>
      <trkpt lat="43.61043" lon="3.85648">
        <ele>60</ele>
        <time>2020-12-31T13:23:34Z</time>
      </trkpt>
      <trkpt lat="43.61044" lon="3.85657">
        <ele>60</ele>
        <time>2020-12-31T13:23:35Z</time>
      </trkpt>
      <trkpt lat="43.61045" lon="3.85665">
        <ele>60.1</ele>
        <time>2020-12-31T13:23:36Z</time>
      </trkpt>
      <trkpt lat="43.61046" lon="3.85673">
        <ele>60.4</ele>
        <time>2020-12-31T13:23:37Z</time>
      </trkpt>
      <trkpt lat="43.61047" lon="3.85681">
        <ele>60.8</ele>
        <time>2020-12-31T13:23:38Z</time>
      </trkpt>
      <trkpt lat="43.61047" lon="3.85689">
        <ele>69</ele>
        <time>2020-12-31T13:23:39Z</time>
      </trkpt>
      <trkpt lat="43.61048" lon="3.85696">
        <ele>61.6</ele>
        <time>2020-12-31T13:23:40Z</time>
      </trkpt>
      <trkpt lat="43.61048" lon="3.85704">
        <ele>61.2</ele>
        <time>2020-12-31T13:23:41Z</time>
      </trkpt>
      <trkpt lat="43.61049" lon="3.85711">
        <ele>60.9</ele>
        <time>2020-12-31T13:23:42Z</time>
      </trkpt>
      <trkpt lat="43.61049" lon="3.85718">
        <ele>60.5</ele>
        <time>2020-12-31T13:23:43Z</time>
      </trkpt>
      <trkpt lat="43.6105" lon="3.85725">
        <ele>60.2</ele>
        <time>2020-12-31T13:23:44Z</time>
      </trkpt>
      <trkpt lat="43.61051" lon="3.85732">
        <ele>60.2</ele>
        <time>2020-12-31T13:23:45Z</time>
      </trkpt>
      <trkpt lat="43.61053" lon="3.85739">
        <ele>60.1</ele>
        <time>2020-12-31T13:23:46Z</time>
      </trkpt>
      <trkpt lat="43.61054" lon="3.85745">
        <ele>60.1</ele>
        <time>2020-12-31T13:23:47Z</time>
      </trkpt>
      <trkpt lat="43.61055" lon="3.85752">
        <ele>60.1</ele>
        <time>2020-12-31T13:23:48Z</time>
      </trkpt>
      <trkpt lat="43.61056" lon="3.85759">
        <ele>70</ele>
        <time>2020-12-31T13:23:49Z</time>
      </trkpt>
      <trkpt lat="43.61057" lon="3.85766">
        <ele>60.5</ele>
        <time>2020-12-31T13:23:50Z</time>
      </trkpt>
      <trkpt lat="43.61058" lon="3.85773">
        <ele>60.7</ele>
        <time>2020-12-31T13:23:51Z</time>
      </trkpt>
      <trkpt lat="43.61058" lon="3.8578">
        <ele>60.9</ele>
        <time>2020-12-31T13:23:52Z</time>
      </trkpt>
      <trkpt lat="43.61059" lon="3.85787">
        <ele>60.9</ele>
        <time>2020-12-31T13:23:53Z</time>
      </trkpt>
      <trkpt lat="43.61058" lon="3.85794">
        <ele>60.9</ele>
        <time>2020-12-31T13:23:54Z</time>
      </trkpt>
      <trkpt lat="43.61058" lon="3.85802">
        <ele>60.9</ele>
        <time>2020-12-31T13:23:55Z</time>
      </trkpt>
      <trkpt lat="43.61057" lon="3.85809">
        <ele>60.8</ele>
        <time>2020-12-31T13:23:56Z</time>
      </trkpt>
      <trkpt lat="43.61056" lon="3.85817">
        <ele>60.6</ele>
        <time>2020-12-31T13:23:57Z</time>
      </trkpt>
      <trkpt lat="43.61055" lon="3.85824">
        <ele>60.3</ele>
        <time>2020-12-31T13:23:58Z</time>
      </trkpt>
      <trkpt lat="43.61054" lon="3.85831">
        <ele>70</ele>
        <time>2020-12-31T13:23:59Z</time>
      </trkpt>
      <trkpt lat="43.61052" lon="3.85838">
        <ele>59.8</ele>
        <time>2020-12-31T13:24:00Z</time>
      </trkpt>
      <trkpt lat="43.61049" lon="3.85846">
        <ele>59.5</ele>
        <time>2020-12-31T13:24:01Z</time>
      </trkpt>
      <trkpt lat="43.61047" lon="3.85854">
        <ele>59.3</ele>
        <time>2020-12-31T13:24:02Z</time>
      </trkpt>
      <trkpt lat="43.61045" lon="3.85862">
        <ele>59</ele>
        <time>2020-12-31T13:24:03Z</time>
      </trkpt>
      <trkpt lat="43.61044" lon="3.8587">
        <ele>59.2</ele>
        <time>2020-12-31T13:24:04Z</time>
      </trkpt>
      <trkpt lat="43.61042" lon="3.85879">
        <ele>59.3</ele>
        <time>2020-12-31T13:24:05Z</time>
      </trkpt>
      <trkpt lat="43.61041" lon="3.85887">
        <ele>59.4</ele>
        <time>2020-12-31T13:24:06Z</time>
      </trkpt>
      <trkpt lat="43.61039" lon="3.85896">
        <ele>59.1</ele>
        <time>2020-12-31T13:24:07Z</time>
      </trkpt>
      <trkpt lat="43.61037" lon="3.85905">
        <ele>58.6</ele>
        <time>2020-12-31T13:24:08Z</time>
      </trkpt>
      <trkpt lat="43.61035" lon="3.85915">
        <ele>67</ele>
        <time>2020-12-31T13:24:09Z</time>
      </trkpt>
      <trkpt lat="43.61033" lon="3.85924">
        <ele>57.6</ele>
        <time>2020-12-31T13:24:10Z</time>
      </trkpt>
      <trkpt lat="43.61031" lon="3.85933">
        <ele>57.3</ele>
        <time>2020-12-31T13:24:11Z</time>
      </trkpt>
      <trkpt lat="43.6103" lon="3.85942">
        <ele>57.2</ele>
        <time>2020-12-31T13:24:12Z</time>
      </trkpt>
      <trkpt lat="43.61028" lon="3.85952">
        <ele>57</ele>
        <time>2020-12-31T13:24:13Z</time>
      </trkpt>
      <trkpt lat="43.61026" lon="3.85961">
        <ele>57.1</ele>
        <time>2020-12-31T13:24:14Z</time>
      </trkpt>
      <trkpt lat="43.61025" lon="3.85971">
        <ele>57.1</ele>
        <time>2020-12-31T13:24:15Z</time>
      </trkpt>
      <trkpt lat="43.61023" lon="3.8598">
        <ele>57.2</ele>
        <time>2020-12-31T13:24:16Z</time>
      </trkpt>
      <trkpt lat="43.61021" lon="3.8599">
        <ele>57.2</ele>
        <time>2020-12-31T13:24:17Z</time>
      </trkpt>
      <trkpt lat="43.6102" lon="3.86">
        <ele>57.3</ele>
        <time>2020-12-31T13:24:18Z</time>
      </trkpt>
      <trkpt lat="43.61018" lon="3.86009">
        <ele>63</ele>
        <time>2020-12-31T13:24:19Z</time>
      </trkpt>
      <trkpt lat="43.61017" lon="3.86019">
        <ele>55.3</ele>
        <time>2020-12-31T13:24:20Z</time>
      </trkpt>
      <trkpt lat="43.61016" lon="3.86029">
        <ele>54.4</ele>
        <time>2020-12-31T13:24:21Z</time>
      </trkpt>
      <trkpt lat="43.61016" lon="3.86039">
        <ele>54.7</ele>
        <time>2020-12-31T13:24:22Z</time>
      </trkpt>
      <trkpt lat="43.61014" lon="3.86049">
        <ele>54.9</ele>
        <time>2020-12-31T13:24:23Z</time>
      </trkpt>
      <trkpt lat="43.61013" lon="3.8606">
        <ele>54.8</ele>
        <time>2020-12-31T13:24:24Z</time>
      </trkpt>
      <trkpt lat="43.61012" lon="3.8607">
        <ele>54.2</ele>
        <time>2020-12-31T13:24:25Z</time>
      </trkpt>
      <trkpt lat="43.61011" lon="3.8608">
        <ele>53.6</ele>
        <time>2020-12-31T13:24:26Z</time>
      </trkpt>
      <trkpt lat="43.6101" lon="3.8609">
        <ele>52.6</ele>
        <time>2020-12-31T13:24:27Z</time>
      </trkpt>
      <trkpt lat="43.61009" lon="3.86101">
        <ele>51.4</ele>
        <time>2020-12-31T13:24:28Z</time>
      </trkpt>
      <trkpt lat="43.61007" lon="3.86121">
        <ele>60</ele>
        <time>2020-12-31T13:24:29Z</time>
      </trkpt>
      <trkpt lat="43.61005" lon="3.86132">
        <ele>49.3</ele>
        <time>2020-12-31T13:24:30Z</time>
      </trkpt>
      <trkpt lat="43.61004" lon="3.86142">
        <ele>48.9</ele>
        <time>2020-12-31T13:24:31Z</time>
      </trkpt>
      <trkpt lat="43.61003" lon="3.86153">
        <ele>48.5</ele>
        <time>2020-12-31T13:24:32Z</time>
      </trkpt>
      <trkpt lat="43.61002" lon="3.86163">
        <ele>48.1</ele>
        <time>2020-12-31T13:24:33Z</time>
      </trkpt>
      <trkpt lat="43.61001" lon="3.86174">
        <ele>47.7</ele>
        <time>2020-12-31T13:24:34Z</time>
      </trkpt>
      <trkpt lat="43.61" lon="3.86185">
        <ele>47.3</ele>
        <time>2020-12-31T13:24:35Z</time>
      </trkpt>
      <trkpt lat="43.60999" lon="3.86196">
        <ele>47</ele>
        <time>2020-12-31T13:24:36Z</time>
      </trkpt>
      <trkpt lat="43.60998" lon="3.86207">
        <ele>46.6</ele>
        <time>2020-12-31T13:24:37Z</time>
      </trkpt>
      <trkpt lat="43.60997" lon="3.86218">
        <ele>46.2</ele>
        <time>2020-12-31T13:24:38Z</time>
      </trkpt>
      <trkpt lat="43.60996" lon="3.86229">
        <ele>45.6</ele>
        <time>2020-12-31T13:24:40Z</time>
      </trkpt>
      <trkpt lat="43.60994" lon="3.86239">
        <ele>45.1</ele>
        <time>2020-12-31T13:24:41Z</time>
      </trkpt>
      <trkpt lat="43.60993" lon="3.8625">
        <ele>44.5</ele>
        <time>2020-12-31T13:24:42Z</time>
      </trkpt>
      <trkpt lat="43.60991" lon="3.86261">
        <ele>44.7</ele>
        <time>2020-12-31T13:24:43Z</time>
      </trkpt>
      <trkpt lat="43.60989" lon="3.86271">
        <ele>44.6</ele>
        <time>2020-12-31T13:24:44Z</time>
      </trkpt>
      <trkpt lat="43.60988" lon="3.86282">
        <ele>44.3</ele>
        <time>2020-12-31T13:24:45Z</time>
      </trkpt>
      <trkpt lat="43.60986" lon="3.86292">
        <ele>43.7</ele>
        <time>2020-12-31T13:24:46Z</time>
      </trkpt>
      <trkpt lat="43.60985" lon="3.86303">
        <ele>43.1</ele>
        <time>2020-12-31T13:24:47Z</time>
      </trkpt>
      <trkpt lat="43.60983" lon="3.86313">
        <ele>42.5</ele>
        <time>2020-12-31T13:24:48Z</time>
      </trkpt>
      <trkpt lat="43.60982" lon="3.86324">
        <ele>52</ele>
        <time>2020-12-31T13:24:49Z</time>
      </trkpt>
      <trkpt lat="43.60981" lon="3.86335">
        <ele>40.9</ele>
        <time>2020-12-31T13:24:50Z</time>
      </trkpt>
      <trkpt lat="43.60979" lon="3.86345">
        <ele>40.6</ele>
        <time>2020-12-31T13:24:51Z</time>
      </trkpt>
      <trkpt lat="43.60977" lon="3.86356">
        <ele>40.2</ele>
        <time>2020-12-31T13:24:52Z</time>
      </trkpt>
      <trkpt lat="43.60976" lon="3.86366">
        <ele>40</ele>
        <time>2020-12-31T13:24:53Z</time>
      </trkpt>
      <trkpt lat="43.60974" lon="3.86377">
        <ele>40</ele>
        <time>2020-12-31T13:24:54Z</time>
      </trkpt>
      <trkpt lat="43.60972" lon="3.86387">
        <ele>40</ele>
        <time>2020-12-31T13:24:55Z</time>
      </trkpt>
      <trkpt lat="43.6097" lon="3.86397">
        <ele>39.6</ele>
        <time>2020-12-31T13:24:56Z</time>
      </trkpt>
      <trkpt lat="43.60968" lon="3.86407">
        <ele>39.1</ele>
        <time>2020-12-31T13:24:57Z</time>
      </trkpt>
      <trkpt lat="43.60966" lon="3.86417">
        <ele>38.8</ele>
        <time>2020-12-31T13:24:58Z</time>
      </trkpt>
      <trkpt lat="43.60964" lon="3.86427">
        <ele>50</ele>
        <time>2020-12-31T13:24:59Z</time>
      </trkpt>
      <trkpt lat="43.60962" lon="3.86437">
        <ele>37.9</ele>
        <time>2020-12-31T13:25:00Z</time>
      </trkpt>
      <trkpt lat="43.60961" lon="3.86447">
        <ele>37.6</ele>
        <time>2020-12-31T13:25:01Z</time>
      </trkpt>
      <trkpt lat="43.60959" lon="3.86457">
        <ele>37.5</ele>
        <time>2020-12-31T13:25:02Z</time>
      </trkpt>
      <trkpt lat="43.60957" lon="3.86466">
        <ele>37.5</ele>
        <time>2020-12-31T13:25:03Z</time>
      </trkpt>
      <trkpt lat="43.60956" lon="3.86476">
        <ele>37.4</ele>
        <time>2020-12-31T13:25:04Z</time>
      </trkpt>
      <trkpt lat="43.60954" lon="3.86485">
        <ele>37.2</ele>
        <time>2020-12-31T13:25:05Z</time>
      </trkpt>
      <trkpt lat="43.60952" lon="3.86495">
        <ele>37</ele>
        <time>2020-12-31T13:25:06Z</time>
      </trkpt>
      <trkpt lat="43.6095" lon="3.86504">
        <ele>36.9</ele>
        <time>2020-12-31T13:25:07Z</time>
      </trkpt>
      <trkpt lat="43.60948" lon="3.86514">
        <ele>36.6</ele>
        <time>2020-12-31T13:25:08Z</time>
      </trkpt>
      <trkpt lat="43.60946" lon="3.86523">
        <ele>48</ele>
        <time>2020-12-31T13:25:09Z</time>
      </trkpt>
      <trkpt lat="43.60944" lon="3.86532">
        <ele>36</ele>
        <time>2020-12-31T13:25:10Z</time>
      </trkpt>
      <trkpt lat="43.60942" lon="3.86541">
        <ele>36</ele>
        <time>2020-12-31T13:25:11Z</time>
      </trkpt>
      <trkpt lat="43.6094" lon="3.8655">
        <ele>36</ele>
        <time>2020-12-31T13:25:12Z</time>
      </trkpt>
      <trkpt lat="43.60939" lon="3.86558">
        <ele>35.9</ele>
        <time>2020-12-31T13:25:13Z</time>
      </trkpt>
      <trkpt lat="43.60937" lon="3.86567">
        <ele>35.6</ele>
        <time>2020-12-31T13:25:14Z</time>
      </trkpt>
      <trkpt lat="43.60935" lon="3.86575">
        <ele>35.3</ele>
        <time>2020-12-31T13:25:15Z</time>
      </trkpt>
      <trkpt lat="43.60934" lon="3.86583">
        <ele>35</ele>
        <time>2020-12-31T13:25:16Z</time>
      </trkpt>
      <trkpt lat="43.60933" lon="3.86591">
        <ele>35</ele>
        <time>2020-12-31T13:25:17Z</time>
      </trkpt>
      <trkpt lat="43.60931" lon="3.86599">
        <ele>35</ele>
        <time>2020-12-31T13:25:18Z</time>
      </trkpt>
      <trkpt lat="43.6093" lon="3.86606">
        <ele>45</ele>
        <time>2020-12-31T13:25:19Z</time>
      </trkpt>
      <trkpt lat="43.60929" lon="3.86614">
        <ele>34.9</ele>
        <time>2020-12-31T13:25:20Z</time>
      </trkpt>
      <trkpt lat="43.60928" lon="3.86621">
        <ele>34.8</ele>
        <time>2020-12-31T13:25:21Z</time>
      </trkpt>
      <trkpt lat="43.60926" lon="3.86628">
        <ele>34.6</ele>
        <time>2020-12-31T13:25:22Z</time>
      </trkpt>
      <trkpt lat="43.60925" lon="3.86635">
        <ele>34.4</ele>
        <time>2020-12-31T13:25:23Z</time>
      </trkpt>
      <trkpt lat="43.60923" lon="3.86641">
        <ele>34.2</ele>
        <time>2020-12-31T13:25:24Z</time>
      </trkpt>
      <trkpt lat="43.60922" lon="3.86648">
        <ele>34.1</ele>
        <time>2020-12-31T13:25:25Z</time>
      </trkpt>
      <trkpt lat="43.6092" lon="3.86655">
        <ele>34.1</ele>
        <time>2020-12-31T13:25:26Z</time>
      </trkpt>
      <trkpt lat="43.60919" lon="3.86662">
        <ele>34</ele>
        <time>2020-12-31T13:25:27Z</time>
      </trkpt>
      <trkpt lat="43.60918" lon="3.86669">
        <ele>34</ele>
        <time>2020-12-31T13:25:28Z</time>
      </trkpt>
      <trkpt lat="43.60916" lon="3.86675">
        <ele>42</ele>
        <time>2020-12-31T13:25:29Z</time>
      </trkpt>
      <trkpt lat="43.60915" lon="3.86682">
        <ele>34</ele>
        <time>2020-12-31T13:25:30Z</time>
      </trkpt>
      <trkpt lat="43.60914" lon="3.86687">
        <ele>33.9</ele>
        <time>2020-12-31T13:25:31Z</time>
      </trkpt>
      <trkpt lat="43.60913" lon="3.86691">
        <ele>33.9</ele>
        <time>2020-12-31T13:25:32Z</time>
      </trkpt>
      <trkpt lat="43.60911" lon="3.86693">
        <ele>33.8</ele>
        <time>2020-12-31T13:25:34Z</time>
      </trkpt>
      <trkpt lat="43.6091" lon="3.86696">
        <ele>33.7</ele>
        <time>2020-12-31T13:25:38Z</time>
      </trkpt>
      <trkpt lat="43.60908" lon="3.86704">
        <ele>33.5</ele>
        <time>2020-12-31T13:25:40Z</time>
      </trkpt>
      <trkpt lat="43.60908" lon="3.86708">
        <ele>33.4</ele>
        <time>2020-12-31T13:25:41Z</time>
      </trkpt>
      <trkpt lat="43.60908" lon="3.86712">
        <ele>33.3</ele>
        <time>2020-12-31T13:25:42Z</time>
      </trkpt>
      <trkpt lat="43.60907" lon="3.86717">
        <ele>33.1</ele>
        <time>2020-12-31T13:25:43Z</time>
      </trkpt>
      <trkpt lat="43.60906" lon="3.86721">
        <ele>33</ele>
        <time>2020-12-31T13:25:44Z</time>
      </trkpt>
      <trkpt lat="43.60904" lon="3.86726">
        <ele>33.1</ele>
        <time>2020-12-31T13:25:45Z</time>
      </trkpt>
      <trkpt lat="43.60901" lon="3.8673">
        <ele>33.1</ele>
        <time>2020-12-31T13:25:46Z</time>
      </trkpt>
      <trkpt lat="43.60899" lon="3.86735">
        <ele>33.2</ele>
        <time>2020-12-31T13:25:47Z</time>
      </trkpt>
      <trkpt lat="43.60896" lon="3.8674">
        <ele>33.2</ele>
        <time>2020-12-31T13:25:48Z</time>
      </trkpt>
      <trkpt lat="43.60894" lon="3.86745">
        <ele>33.2</ele>
        <time>2020-12-31T13:25:50Z</time>
      </trkpt>
      <trkpt lat="43.60892" lon="3.8675">
        <ele>33.1</ele>
        <time>2020-12-31T13:25:51Z</time>
      </trkpt>
      <trkpt lat="43.6089" lon="3.86756">
        <ele>33</ele>
        <time>2020-12-31T13:25:52Z</time>
      </trkpt>
      <trkpt lat="43.60888" lon="3.86761">
        <ele>33</ele>
        <time>2020-12-31T13:25:53Z</time>
      </trkpt>
      <trkpt lat="43.60886" lon="3.86766">
        <ele>33</ele>
        <time>2020-12-31T13:25:54Z</time>
      </trkpt>
      <trkpt lat="43.60884" lon="3.8677">
        <ele>33</ele>
        <time>2020-12-31T13:25:55Z</time>
      </trkpt>
      <trkpt lat="43.60883" lon="3.86774">
        <ele>33</ele>
        <time>2020-12-31T13:25:56Z</time>
      </trkpt>
      <trkpt lat="43.60881" lon="3.86777">
        <ele>33</ele>
        <time>2020-12-31T13:25:57Z</time>
      </trkpt>
      <trkpt lat="43.6088" lon="3.8678">
        <ele>33</ele>
        <time>2020-12-31T13:25:58Z</time>
      </trkpt>
      <trkpt lat="43.60878" lon="3.86784">
        <ele>42</ele>
        <time>2020-12-31T13:25:59Z</time>
      </trkpt>
      <trkpt lat="43.60876" lon="3.86788">
        <ele>33</ele>
        <time>2020-12-31T13:26:00Z</time>
      </trkpt>
      <trkpt lat="43.60874" lon="3.86793">
        <ele>33</ele>
        <time>2020-12-31T13:26:01Z</time>
      </trkpt>
      <trkpt lat="43.60872" lon="3.86798">
        <ele>33</ele>
        <time>2020-12-31T13:26:02Z</time>
      </trkpt>
      <trkpt lat="43.6087" lon="3.86804">
        <ele>33</ele>
        <time>2020-12-31T13:26:03Z</time>
      </trkpt>
      <trkpt lat="43.60869" lon="3.86809">
        <ele>33</ele>
        <time>2020-12-31T13:26:04Z</time>
      </trkpt>
      <trkpt lat="43.60868" lon="3.86816">
        <ele>33.1</ele>
        <time>2020-12-31T13:26:05Z</time>
      </trkpt>
      <trkpt lat="43.60867" lon="3.86822">
        <ele>33.1</ele>
        <time>2020-12-31T13:26:06Z</time>
      </trkpt>
      <trkpt lat="43.60866" lon="3.86828">
        <ele>33.1</ele>
        <time>2020-12-31T13:26:07Z</time>
      </trkpt>
      <trkpt lat="43.60866" lon="3.86834">
        <ele>33.2</ele>
        <time>2020-12-31T13:26:08Z</time>
      </trkpt>
      <trkpt lat="43.60865" lon="3.8684">
        <ele>43</ele>
        <time>2020-12-31T13:26:09Z</time>
      </trkpt>
      <trkpt lat="43.60864" lon="3.86846">
        <ele>32.7</ele>
        <time>2020-12-31T13:26:10Z</time>
      </trkpt>
      <trkpt lat="43.60864" lon="3.86852">
        <ele>32.5</ele>
        <time>2020-12-31T13:26:11Z</time>
      </trkpt>
      <trkpt lat="43.60863" lon="3.86859">
        <ele>32.2</ele>
        <time>2020-12-31T13:26:12Z</time>
      </trkpt>
      <trkpt lat="43.60862" lon="3.86865">
        <ele>32.1</ele>
        <time>2020-12-31T13:26:13Z</time>
      </trkpt>
      <trkpt lat="43.60861" lon="3.8687">
        <ele>32</ele>
        <time>2020-12-31T13:26:14Z</time>
      </trkpt>
      <trkpt lat="43.6086" lon="3.86876">
        <ele>32</ele>
        <time>2020-12-31T13:26:15Z</time>
      </trkpt>
      <trkpt lat="43.60859" lon="3.86882">
        <ele>32</ele>
        <time>2020-12-31T13:26:16Z</time>
      </trkpt>
      <trkpt lat="43.60857" lon="3.86887">
        <ele>32</ele>
        <time>2020-12-31T13:26:17Z</time>
      </trkpt>
      <trkpt lat="43.60856" lon="3.86891">
        <ele>32</ele>
        <time>2020-12-31T13:26:18Z</time>
      </trkpt>
      <trkpt lat="43.60856" lon="3.86893">
        <ele>43</ele>
        <time>2020-12-31T13:26:19Z</time>
      </trkpt>
      <trkpt lat="43.60857" lon="3.86896">
        <ele>32</ele>
        <time>2020-12-31T13:26:21Z</time>
      </trkpt>
      <trkpt lat="43.60857" lon="3.86899">
        <ele>32</ele>
        <time>2020-12-31T13:26:24Z</time>
      </trkpt>
      <trkpt lat="43.60857" lon="3.86902">
        <ele>32</ele>
        <time>2020-12-31T13:26:27Z</time>
      </trkpt>
      <trkpt lat="43.60857" lon="3.86904">
        <ele>32</ele>
        <time>2020-12-31T13:26:28Z</time>
      </trkpt>
      <trkpt lat="43.60857" lon="3.86908">
        <ele>42</ele>
        <time>2020-12-31T13:26:29Z</time>
      </trkpt>
      <trkpt lat="43.60857" lon="3.86911">
        <ele>32</ele>
        <time>2020-12-31T13:26:30Z</time>
      </trkpt>
      <trkpt lat="43.60856" lon="3.86916">
        <ele>32</ele>
        <time>2020-12-31T13:26:31Z</time>
      </trkpt>
      <trkpt lat="43.60855" lon="3.8692">
        <ele>32.1</ele>
        <time>2020-12-31T13:26:32Z</time>
      </trkpt>
      <trkpt lat="43.60855" lon="3.86924">
        <ele>32.2</ele>
        <time>2020-12-31T13:26:33Z</time>
      </trkpt>
      <trkpt lat="43.60854" lon="3.86929">
        <ele>32.3</ele>
        <time>2020-12-31T13:26:34Z</time>
      </trkpt>
      <trkpt lat="43.60853" lon="3.86933">
        <ele>32.4</ele>
        <time>2020-12-31T13:26:35Z</time>
      </trkpt>
      <trkpt lat="43.60852" lon="3.86938">
        <ele>32.5</ele>
        <time>2020-12-31T13:26:36Z</time>
      </trkpt>
      <trkpt lat="43.60852" lon="3.86943">
        <ele>32.6</ele>
        <time>2020-12-31T13:26:37Z</time>
      </trkpt>
      <trkpt lat="43.60851" lon="3.86947">
        <ele>32.7</ele>
        <time>2020-12-31T13:26:38Z</time>
      </trkpt>
      <trkpt lat="43.60851" lon="3.86952">
        <ele>44</ele>
        <time>2020-12-31T13:26:39Z</time>
      </trkpt>
      <trkpt lat="43.6085" lon="3.86957">
        <ele>32.8</ele>
        <time>2020-12-31T13:26:40Z</time>
      </trkpt>
      <trkpt lat="43.6085" lon="3.86962">
        <ele>32.9</ele>
        <time>2020-12-31T13:26:41Z</time>
      </trkpt>
      <trkpt lat="43.6085" lon="3.86967">
        <ele>32.9</ele>
        <time>2020-12-31T13:26:42Z</time>
      </trkpt>
      <trkpt lat="43.6085" lon="3.86972">
        <ele>33</ele>
        <time>2020-12-31T13:26:43Z</time>
      </trkpt>
      <trkpt lat="43.6085" lon="3.86977">
        <ele>33.1</ele>
        <time>2020-12-31T13:26:44Z</time>
      </trkpt>
      <trkpt lat="43.60849" lon="3.86981">
        <ele>33.2</ele>
        <time>2020-12-31T13:26:45Z</time>
      </trkpt>
      <trkpt lat="43.60849" lon="3.86985">
        <ele>33.3</ele>
        <time>2020-12-31T13:26:46Z</time>
      </trkpt>
      <trkpt lat="43.60848" lon="3.86988">
        <ele>33.3</ele>
        <time>2020-12-31T13:26:47Z</time>
      </trkpt>
      <trkpt lat="43.60848" lon="3.86991">
        <ele>33.4</ele>
        <time>2020-12-31T13:26:48Z</time>
      </trkpt>
      <trkpt lat="43.60848" lon="3.86996">
        <ele>44</ele>
        <time>2020-12-31T13:26:49Z</time>
      </trkpt>
      <trkpt lat="43.60848" lon="3.87001">
        <ele>33.5</ele>
        <time>2020-12-31T13:26:50Z</time>
      </trkpt>
      <trkpt lat="43.60848" lon="3.87007">
        <ele>33.4</ele>
        <time>2020-12-31T13:26:51Z</time>
      </trkpt>
      <trkpt lat="43.60848" lon="3.87013">
        <ele>33.3</ele>
        <time>2020-12-31T13:26:52Z</time>
      </trkpt>
      <trkpt lat="43.60846" lon="3.87019">
        <ele>33.1</ele>
        <time>2020-12-31T13:26:53Z</time>
      </trkpt>
      <trkpt lat="43.60845" lon="3.87026">
        <ele>32.9</ele>
        <time>2020-12-31T13:26:54Z</time>
      </trkpt>
      <trkpt lat="43.60843" lon="3.87033">
        <ele>32.7</ele>
        <time>2020-12-31T13:26:55Z</time>
      </trkpt>
      <trkpt lat="43.60842" lon="3.8704">
        <ele>32.6</ele>
        <time>2020-12-31T13:26:56Z</time>
      </trkpt>
      <trkpt lat="43.6084" lon="3.87047">
        <ele>32.5</ele>
        <time>2020-12-31T13:26:57Z</time>
      </trkpt>
      <trkpt lat="43.60839" lon="3.87055">
        <ele>32.4</ele>
        <time>2020-12-31T13:26:58Z</time>
      </trkpt>
      <trkpt lat="43.60838" lon="3.87063">
        <ele>44</ele>
        <time>2020-12-31T13:26:59Z</time>
      </trkpt>
      <trkpt lat="43.60836" lon="3.87071">
        <ele>32.1</ele>
        <time>2020-12-31T13:27:00Z</time>
      </trkpt>
      <trkpt lat="43.60835" lon="3.87078">
        <ele>32.1</ele>
        <time>2020-12-31T13:27:01Z</time>
      </trkpt>
      <trkpt lat="43.60834" lon="3.87086">
        <ele>32.1</ele>
        <time>2020-12-31T13:27:02Z</time>
      </trkpt>
      <trkpt lat="43.60833" lon="3.87093">
        <ele>32.3</ele>
        <time>2020-12-31T13:27:03Z</time>
      </trkpt>
      <trkpt lat="43.60833" lon="3.87101">
        <ele>32.6</ele>
        <time>2020-12-31T13:27:04Z</time>
      </trkpt>
      <trkpt lat="43.60832" lon="3.87109">
        <ele>32.9</ele>
        <time>2020-12-31T13:27:05Z</time>
      </trkpt>
      <trkpt lat="43.60831" lon="3.87116">
        <ele>32.9</ele>
        <time>2020-12-31T13:27:06Z</time>
      </trkpt>
      <trkpt lat="43.60831" lon="3.87125">
        <ele>33</ele>
        <time>2020-12-31T13:27:07Z</time>
      </trkpt>
      <trkpt lat="43.60832" lon="3.87133">
        <ele>33</ele>
        <time>2020-12-31T13:27:08Z</time>
      </trkpt>
      <trkpt lat="43.60831" lon="3.87141">
        <ele>46</ele>
        <time>2020-12-31T13:27:09Z</time>
      </trkpt>
      <trkpt lat="43.60831" lon="3.87149">
        <ele>33</ele>
        <time>2020-12-31T13:27:10Z</time>
      </trkpt>
      <trkpt lat="43.60831" lon="3.87157">
        <ele>33</ele>
        <time>2020-12-31T13:27:11Z</time>
      </trkpt>
      <trkpt lat="43.6083" lon="3.87165">
        <ele>33</ele>
        <time>2020-12-31T13:27:12Z</time>
      </trkpt>
      <trkpt lat="43.6083" lon="3.87173">
        <ele>33.2</ele>
        <time>2020-12-31T13:27:13Z</time>
      </trkpt>
      <trkpt lat="43.6083" lon="3.87181">
        <ele>33.5</ele>
        <time>2020-12-31T13:27:14Z</time>
      </trkpt>
      <trkpt lat="43.60831" lon="3.87189">
        <ele>33.8</ele>
        <time>2020-12-31T13:27:15Z</time>
      </trkpt>
      <trkpt lat="43.60831" lon="3.87197">
        <ele>34</ele>
        <time>2020-12-31T13:27:16Z</time>
      </trkpt>
      <trkpt lat="43.60833" lon="3.87205">
        <ele>34</ele>
        <time>2020-12-31T13:27:17Z</time>
      </trkpt>
      <trkpt lat="43.60835" lon="3.87213">
        <ele>34</ele>
        <time>2020-12-31T13:27:18Z</time>
      </trkpt>
      <trkpt lat="43.60838" lon="3.87221">
        <ele>45</ele>
        <time>2020-12-31T13:27:19Z</time>
      </trkpt>
      <trkpt lat="43.60841" lon="3.87229">
        <ele>34.1</ele>
        <time>2020-12-31T13:27:20Z</time>
      </trkpt>
      <trkpt lat="43.60844" lon="3.87237">
        <ele>34.2</ele>
        <time>2020-12-31T13:27:21Z</time>
      </trkpt>
      <trkpt lat="43.60847" lon="3.87245">
        <ele>34.4</ele>
        <time>2020-12-31T13:27:22Z</time>
      </trkpt>
      <trkpt lat="43.60849" lon="3.87253">
        <ele>34.5</ele>
        <time>2020-12-31T13:27:23Z</time>
      </trkpt>
      <trkpt lat="43.60851" lon="3.87262">
        <ele>34.2</ele>
        <time>2020-12-31T13:27:24Z</time>
      </trkpt>
      <trkpt lat="43.60853" lon="3.8727">
        <ele>34</ele>
        <time>2020-12-31T13:27:25Z</time>
      </trkpt>
      <trkpt lat="43.60854" lon="3.87277">
        <ele>33.8</ele>
        <time>2020-12-31T13:27:26Z</time>
      </trkpt>
      <trkpt lat="43.60856" lon="3.87284">
        <ele>33.6</ele>
        <time>2020-12-31T13:27:27Z</time>
      </trkpt>
      <trkpt lat="43.60858" lon="3.87292">
        <ele>33.4</ele>
        <time>2020-12-31T13:27:28Z</time>
      </trkpt>
      <trkpt lat="43.6086" lon="3.87297">
        <ele>44</ele>
        <time>2020-12-31T13:27:29Z</time>
      </trkpt>
      <trkpt lat="43.60863" lon="3.87301">
        <ele>33.2</ele>
        <time>2020-12-31T13:27:30Z</time>
      </trkpt>
      <trkpt lat="43.60864" lon="3.87306">
        <ele>33.1</ele>
        <time>2020-12-31T13:27:31Z</time>
      </trkpt>
      <trkpt lat="43.60866" lon="3.87312">
        <ele>33.2</ele>
        <time>2020-12-31T13:27:32Z</time>
      </trkpt>
      <trkpt lat="43.60868" lon="3.87317">
        <ele>33.4</ele>
        <time>2020-12-31T13:27:33Z</time>
      </trkpt>
      <trkpt lat="43.6087" lon="3.87321">
        <ele>33.5</ele>
        <time>2020-12-31T13:27:34Z</time>
      </trkpt>
      <trkpt lat="43.60872" lon="3.87326">
        <ele>33.7</ele>
        <time>2020-12-31T13:27:35Z</time>
      </trkpt>
      <trkpt lat="43.60874" lon="3.87331">
        <ele>33.9</ele>
        <time>2020-12-31T13:27:36Z</time>
      </trkpt>
      <trkpt lat="43.60875" lon="3.87334">
        <ele>34</ele>
        <time>2020-12-31T13:27:37Z</time>
      </trkpt>
      <trkpt lat="43.60876" lon="3.87337">
        <ele>34</ele>
        <time>2020-12-31T13:27:38Z</time>
      </trkpt>
      <trkpt lat="43.60877" lon="3.87339">
        <ele>46</ele>
        <time>2020-12-31T13:27:39Z</time>
      </trkpt>
      <trkpt lat="43.60879" lon="3.87342">
        <ele>34.1</ele>
        <time>2020-12-31T13:27:40Z</time>
      </trkpt>
      <trkpt lat="43.60881" lon="3.87345">
        <ele>34.1</ele>
        <time>2020-12-31T13:27:41Z</time>
      </trkpt>
      <trkpt lat="43.60883" lon="3.87347">
        <ele>34.2</ele>
        <time>2020-12-31T13:27:42Z</time>
      </trkpt>
      <trkpt lat="43.60886" lon="3.8735">
        <ele>34.3</ele>
        <time>2020-12-31T13:27:43Z</time>
      </trkpt>
      <trkpt lat="43.60888" lon="3.87352">
        <ele>34.3</ele>
        <time>2020-12-31T13:27:44Z</time>
      </trkpt>
      <trkpt lat="43.6089" lon="3.87355">
        <ele>34.3</ele>
        <time>2020-12-31T13:27:45Z</time>
      </trkpt>
      <trkpt lat="43.60891" lon="3.87358">
        <ele>34.2</ele>
        <time>2020-12-31T13:27:46Z</time>
      </trkpt>
      <trkpt lat="43.60892" lon="3.87361">
        <ele>34.2</ele>
        <time>2020-12-31T13:27:47Z</time>
      </trkpt>
      <trkpt lat="43.60894" lon="3.87363">
        <ele>34.4</ele>
        <time>2020-12-31T13:27:48Z</time>
      </trkpt>
      <trkpt lat="43.60895" lon="3.87365">
        <ele>47</ele>
        <time>2020-12-31T13:27:49Z</time>
      </trkpt>
      <trkpt lat="43.60897" lon="3.87368">
        <ele>34.6</ele>
        <time>2020-12-31T13:27:50Z</time>
      </trkpt>
      <trkpt lat="43.60898" lon="3.8737">
        <ele>34.7</ele>
        <time>2020-12-31T13:27:51Z</time>
      </trkpt>
      <trkpt lat="43.60899" lon="3.87373">
        <ele>34.7</ele>
        <time>2020-12-31T13:27:52Z</time>
      </trkpt>
      <trkpt lat="43.609" lon="3.87375">
        <ele>34.8</ele>
        <time>2020-12-31T13:27:53Z</time>
      </trkpt>
      <trkpt lat="43.60902" lon="3.87378">
        <ele>34.9</ele>
        <time>2020-12-31T13:27:54Z</time>
      </trkpt>
      <trkpt lat="43.60903" lon="3.87381">
        <ele>35</ele>
        <time>2020-12-31T13:27:55Z</time>
      </trkpt>
      <trkpt lat="43.60905" lon="3.87383">
        <ele>35.2</ele>
        <time>2020-12-31T13:27:56Z</time>
      </trkpt>
      <trkpt lat="43.60906" lon="3.87387">
        <ele>35.2</ele>
        <time>2020-12-31T13:27:57Z</time>
      </trkpt>
      <trkpt lat="43.60908" lon="3.8739">
        <ele>35.4</ele>
        <time>2020-12-31T13:27:58Z</time>
      </trkpt>
      <trkpt lat="43.60909" lon="3.87394">
        <ele>48</ele>
        <time>2020-12-31T13:27:59Z</time>
      </trkpt>
      <trkpt lat="43.60911" lon="3.87397">
        <ele>35.7</ele>
        <time>2020-12-31T13:28:00Z</time>
      </trkpt>
      <trkpt lat="43.60912" lon="3.87401">
        <ele>35.7</ele>
        <time>2020-12-31T13:28:01Z</time>
      </trkpt>
      <trkpt lat="43.60914" lon="3.87404">
        <ele>35.9</ele>
        <time>2020-12-31T13:28:02Z</time>
      </trkpt>
      <trkpt lat="43.60915" lon="3.87407">
        <ele>35.9</ele>
        <time>2020-12-31T13:28:03Z</time>
      </trkpt>
      <trkpt lat="43.60917" lon="3.87411">
        <ele>36</ele>
        <time>2020-12-31T13:28:04Z</time>
      </trkpt>
      <trkpt lat="43.60919" lon="3.87415">
        <ele>36.2</ele>
        <time>2020-12-31T13:28:05Z</time>
      </trkpt>
      <trkpt lat="43.6092" lon="3.87418">
        <ele>36.2</ele>
        <time>2020-12-31T13:28:06Z</time>
      </trkpt>
      <trkpt lat="43.60922" lon="3.87421">
        <ele>36.4</ele>
        <time>2020-12-31T13:28:07Z</time>
      </trkpt>
      <trkpt lat="43.60924" lon="3.87425">
        <ele>36.5</ele>
        <time>2020-12-31T13:28:08Z</time>
      </trkpt>
      <trkpt lat="43.60925" lon="3.87429">
        <ele>49</ele>
        <time>2020-12-31T13:28:09Z</time>
      </trkpt>
      <trkpt lat="43.60926" lon="3.87432">
        <ele>36.7</ele>
        <time>2020-12-31T13:28:10Z</time>
      </trkpt>
      <trkpt lat="43.60928" lon="3.87436">
        <ele>36.8</ele>
        <time>2020-12-31T13:28:11Z</time>
      </trkpt>
      <trkpt lat="43.60929" lon="3.8744">
        <ele>36.9</ele>
        <time>2020-12-31T13:28:12Z</time>
      </trkpt>
      <trkpt lat="43.6093" lon="3.87443">
        <ele>37</ele>
        <time>2020-12-31T13:28:13Z</time>
      </trkpt>
      <trkpt lat="43.60932" lon="3.87447">
        <ele>37.2</ele>
        <time>2020-12-31T13:28:14Z</time>
      </trkpt>
      <trkpt lat="43.60933" lon="3.87451">
        <ele>37.4</ele>
        <time>2020-12-31T13:28:15Z</time>
      </trkpt>
      <trkpt lat="43.60935" lon="3.87455">
        <ele>37.7</ele>
        <time>2020-12-31T13:28:16Z</time>
      </trkpt>
      <trkpt lat="43.60937" lon="3.87459">
        <ele>38</ele>
        <time>2020-12-31T13:28:17Z</time>
      </trkpt>
      <trkpt lat="43.60939" lon="3.87462">
        <ele>38.2</ele>
        <time>2020-12-31T13:28:18Z</time>
      </trkpt>
      <trkpt lat="43.60941" lon="3.87464">
        <ele>50</ele>
        <time>2020-12-31T13:28:19Z</time>
      </trkpt>
      <trkpt lat="43.60943" lon="3.87467">
        <ele>38.7</ele>
        <time>2020-12-31T13:28:20Z</time>
      </trkpt>
      <trkpt lat="43.60944" lon="3.87469">
        <ele>38.9</ele>
        <time>2020-12-31T13:28:21Z</time>
      </trkpt>
      <trkpt lat="43.60946" lon="3.87471">
        <ele>39.2</ele>
        <time>2020-12-31T13:28:22Z</time>
      </trkpt>
      <trkpt lat="43.60948" lon="3.87473">
        <ele>39.6</ele>
        <time>2020-12-31T13:28:23Z</time>
      </trkpt>
      <trkpt lat="43.60949" lon="3.87475">
        <ele>39.8</ele>
        <time>2020-12-31T13:28:24Z</time>
      </trkpt>
      <trkpt lat="43.60951" lon="3.87477">
        <ele>40.1</ele>
        <time>2020-12-31T13:28:25Z</time>
      </trkpt>
      <trkpt lat="43.60952" lon="3.87479">
        <ele>40.3</ele>
        <time>2020-12-31T13:28:26Z</time>
      </trkpt>
      <trkpt lat="43.60953" lon="3.87481">
        <ele>40.4</ele>
        <time>2020-12-31T13:28:27Z</time>
      </trkpt>
      <trkpt lat="43.60955" lon="3.87484">
        <ele>51</ele>
        <time>2020-12-31T13:28:29Z</time>
      </trkpt>
      <trkpt lat="43.60956" lon="3.87488">
        <ele>40.8</ele>
        <time>2020-12-31T13:28:31Z</time>
      </trkpt>
      <trkpt lat="43.60957" lon="3.87492">
        <ele>40.9</ele>
        <time>2020-12-31T13:28:33Z</time>
      </trkpt>
      <trkpt lat="43.60959" lon="3.87495">
        <ele>41.2</ele>
        <time>2020-12-31T13:28:35Z</time>
      </trkpt>
      <trkpt lat="43.60961" lon="3.87497">
        <ele>41.4</ele>
        <time>2020-12-31T13:28:36Z</time>
      </trkpt>
      <trkpt lat="43.60963" lon="3.87501">
        <ele>41.7</ele>
        <time>2020-12-31T13:28:38Z</time>
      </trkpt>
      <trkpt lat="43.60964" lon="3.87503">
        <ele>52</ele>
        <time>2020-12-31T13:28:39Z</time>
      </trkpt>
      <trkpt lat="43.60965" lon="3.87507">
        <ele>41.8</ele>
        <time>2020-12-31T13:28:40Z</time>
      </trkpt>
      <trkpt lat="43.60966" lon="3.87511">
        <ele>41.9</ele>
        <time>2020-12-31T13:28:41Z</time>
      </trkpt>
      <trkpt lat="43.60967" lon="3.87515">
        <ele>41.9</ele>
        <time>2020-12-31T13:28:42Z</time>
      </trkpt>
      <trkpt lat="43.60967" lon="3.87519">
        <ele>41.8</ele>
        <time>2020-12-31T13:28:43Z</time>
      </trkpt>
      <trkpt lat="43.60968" lon="3.87523">
        <ele>41.8</ele>
        <time>2020-12-31T13:28:44Z</time>
      </trkpt>
      <trkpt lat="43.6097" lon="3.87526">
        <ele>41.9</ele>
        <time>2020-12-31T13:28:45Z</time>
      </trkpt>
      <trkpt lat="43.60972" lon="3.87528">
        <ele>42</ele>
        <time>2020-12-31T13:28:46Z</time>
      </trkpt>
      <trkpt lat="43.60973" lon="3.87531">
        <ele>42.1</ele>
        <time>2020-12-31T13:28:47Z</time>
      </trkpt>
      <trkpt lat="43.60975" lon="3.87534">
        <ele>42.4</ele>
        <time>2020-12-31T13:28:48Z</time>
      </trkpt>
      <trkpt lat="43.60976" lon="3.87537">
        <ele>52</ele>
        <time>2020-12-31T13:28:49Z</time>
      </trkpt>
      <trkpt lat="43.60978" lon="3.87539">
        <ele>42.8</ele>
        <time>2020-12-31T13:28:50Z</time>
      </trkpt>
      <trkpt lat="43.60979" lon="3.87542">
        <ele>43</ele>
        <time>2020-12-31T13:28:51Z</time>
      </trkpt>
      <trkpt lat="43.60981" lon="3.87545">
        <ele>43.3</ele>
        <time>2020-12-31T13:28:52Z</time>
      </trkpt>
      <trkpt lat="43.60982" lon="3.87548">
        <ele>43.4</ele>
        <time>2020-12-31T13:28:53Z</time>
      </trkpt>
      <trkpt lat="43.60984" lon="3.87551">
        <ele>43.7</ele>
        <time>2020-12-31T13:28:54Z</time>
      </trkpt>
      <trkpt lat="43.60985" lon="3.87553">
        <ele>43.8</ele>
        <time>2020-12-31T13:28:55Z</time>
      </trkpt>
      <trkpt lat="43.60987" lon="3.87556">
        <ele>44.1</ele>
        <time>2020-12-31T13:28:56Z</time>
      </trkpt>
      <trkpt lat="43.60989" lon="3.87558">
        <ele>44.4</ele>
        <time>2020-12-31T13:28:57Z</time>
      </trkpt>
      <trkpt lat="43.60991" lon="3.8756">
        <ele>44.7</ele>
        <time>2020-12-31T13:28:58Z</time>
      </trkpt>
      <trkpt lat="43.60992" lon="3.87562">
        <ele>53</ele>
        <time>2020-12-31T13:28:59Z</time>
      </trkpt>
      <trkpt lat="43.60994" lon="3.87565">
        <ele>45</ele>
        <time>2020-12-31T13:29:00Z</time>
      </trkpt>
      <trkpt lat="43.60996" lon="3.87567">
        <ele>45.2</ele>
        <time>2020-12-31T13:29:01Z</time>
      </trkpt>
      <trkpt lat="43.60997" lon="3.8757">
        <ele>45.2</ele>
        <time>2020-12-31T13:29:02Z</time>
      </trkpt>
      <trkpt lat="43.60999" lon="3.87572">
        <ele>45.3</ele>
        <time>2020-12-31T13:29:03Z</time>
      </trkpt>
      <trkpt lat="43.61001" lon="3.87574">
        <ele>45.4</ele>
        <time>2020-12-31T13:29:04Z</time>
      </trkpt>
      <trkpt lat="43.61003" lon="3.87576">
        <ele>45.4</ele>
        <time>2020-12-31T13:29:05Z</time>
      </trkpt>
      <trkpt lat="43.61005" lon="3.87579">
        <ele>45.3</ele>
        <time>2020-12-31T13:29:06Z</time>
      </trkpt>
      <trkpt lat="43.61007" lon="3.87582">
        <ele>45.3</ele>
        <time>2020-12-31T13:29:07Z</time>
      </trkpt>
      <trkpt lat="43.61008" lon="3.87584">
        <ele>45.3</ele>
        <time>2020-12-31T13:29:08Z</time>
      </trkpt>
      <trkpt lat="43.61009" lon="3.87588">
        <ele>56</ele>
        <time>2020-12-31T13:29:09Z</time>
      </trkpt>
      <trkpt lat="43.61011" lon="3.87591">
        <ele>45.6</ele>
        <time>2020-12-31T13:29:10Z</time>
      </trkpt>
      <trkpt lat="43.61012" lon="3.87594">
        <ele>45.7</ele>
        <time>2020-12-31T13:29:11Z</time>
      </trkpt>
      <trkpt lat="43.61014" lon="3.87597">
        <ele>45.7</ele>
        <time>2020-12-31T13:29:12Z</time>
      </trkpt>
      <trkpt lat="43.61016" lon="3.87599">
        <ele>45.8</ele>
        <time>2020-12-31T13:29:13Z</time>
      </trkpt>
      <trkpt lat="43.61018" lon="3.87601">
        <ele>45.9</ele>
        <time>2020-12-31T13:29:14Z</time>
      </trkpt>
      <trkpt lat="43.6102" lon="3.87603">
        <ele>45.9</ele>
        <time>2020-12-31T13:29:15Z</time>
      </trkpt>
      <trkpt lat="43.61022" lon="3.87606">
        <ele>46</ele>
        <time>2020-12-31T13:29:16Z</time>
      </trkpt>
      <trkpt lat="43.61024" lon="3.87609">
        <ele>46</ele>
        <time>2020-12-31T13:29:17Z</time>
      </trkpt>
      <trkpt lat="43.61025" lon="3.87612">
        <ele>46</ele>
        <time>2020-12-31T13:29:18Z</time>
      </trkpt>
      <trkpt lat="43.61027" lon="3.87616">
        <ele>58</ele>
        <time>2020-12-31T13:29:19Z</time>
      </trkpt>
      <trkpt lat="43.61028" lon="3.87619">
        <ele>46</ele>
        <time>2020-12-31T13:29:20Z</time>
      </trkpt>
      <trkpt lat="43.6103" lon="3.87623">
        <ele>46.1</ele>
        <time>2020-12-31T13:29:21Z</time>
      </trkpt>
      <trkpt lat="43.61031" lon="3.87626">
        <ele>46.2</ele>
        <time>2020-12-31T13:29:22Z</time>
      </trkpt>
      <trkpt lat="43.61033" lon="3.8763">
        <ele>46.2</ele>
        <time>2020-12-31T13:29:23Z</time>
      </trkpt>
      <trkpt lat="43.61034" lon="3.87633">
        <ele>46.3</ele>
        <time>2020-12-31T13:29:24Z</time>
      </trkpt>
      <trkpt lat="43.61035" lon="3.87636">
        <ele>46.3</ele>
        <time>2020-12-31T13:29:25Z</time>
      </trkpt>
      <trkpt lat="43.61036" lon="3.87639">
        <ele>46.3</ele>
        <time>2020-12-31T13:29:27Z</time>
      </trkpt>
      <trkpt lat="43.61038" lon="3.8764">
        <ele>46.4</ele>
        <time>2020-12-31T13:29:28Z</time>
      </trkpt>
      <trkpt lat="43.6104" lon="3.87641">
        <ele>57</ele>
        <time>2020-12-31T13:29:29Z</time>
      </trkpt>
      <trkpt lat="43.61042" lon="3.87643">
        <ele>46.4</ele>
        <time>2020-12-31T13:29:30Z</time>
      </trkpt>
      <trkpt lat="43.61044" lon="3.87646">
        <ele>46.4</ele>
        <time>2020-12-31T13:29:31Z</time>
      </trkpt>
      <trkpt lat="43.61046" lon="3.87648">
        <ele>46.4</ele>
        <time>2020-12-31T13:29:32Z</time>
      </trkpt>
      <trkpt lat="43.61048" lon="3.87651">
        <ele>46.4</ele>
        <time>2020-12-31T13:29:33Z</time>
      </trkpt>
      <trkpt lat="43.61051" lon="3.87654">
        <ele>46.4</ele>
        <time>2020-12-31T13:29:34Z</time>
      </trkpt>
      <trkpt lat="43.61053" lon="3.87656">
        <ele>46.3</ele>
        <time>2020-12-31T13:29:35Z</time>
      </trkpt>
      <trkpt lat="43.61055" lon="3.87659">
        <ele>46.3</ele>
        <time>2020-12-31T13:29:36Z</time>
      </trkpt>
      <trkpt lat="43.61055" lon="3.87662">
        <ele>46.2</ele>
        <time>2020-12-31T13:29:37Z</time>
      </trkpt>
      <trkpt lat="43.61057" lon="3.87662">
        <ele>46.3</ele>
        <time>2020-12-31T13:29:38Z</time>
      </trkpt>
      <trkpt lat="43.61061" lon="3.87663">
        <ele>60</ele>
        <time>2020-12-31T13:29:39Z</time>
      </trkpt>
      <trkpt lat="43.61064" lon="3.87664">
        <ele>46.6</ele>
        <time>2020-12-31T13:29:40Z</time>
      </trkpt>
      <trkpt lat="43.61067" lon="3.87667">
        <ele>46.8</ele>
        <time>2020-12-31T13:29:41Z</time>
      </trkpt>
      <trkpt lat="43.6107" lon="3.8767">
        <ele>46.9</ele>
        <time>2020-12-31T13:29:42Z</time>
      </trkpt>
      <trkpt lat="43.61073" lon="3.87674">
        <ele>46.9</ele>
        <time>2020-12-31T13:29:43Z</time>
      </trkpt>
      <trkpt lat="43.61075" lon="3.87677">
        <ele>46.9</ele>
        <time>2020-12-31T13:29:44Z</time>
      </trkpt>
      <trkpt lat="43.61077" lon="3.87681">
        <ele>46.7</ele>
        <time>2020-12-31T13:29:45Z</time>
      </trkpt>
      <trkpt lat="43.6108" lon="3.87684">
        <ele>46.7</ele>
        <time>2020-12-31T13:29:46Z</time>
      </trkpt>
      <trkpt lat="43.61083" lon="3.87687">
        <ele>46.5</ele>
        <time>2020-12-31T13:29:47Z</time>
      </trkpt>
      <trkpt lat="43.61085" lon="3.87691">
        <ele>46.3</ele>
        <time>2020-12-31T13:29:48Z</time>
      </trkpt>
      <trkpt lat="43.61087" lon="3.87694">
        <ele>59</ele>
        <time>2020-12-31T13:29:49Z</time>
      </trkpt>
      <trkpt lat="43.6109" lon="3.87697">
        <ele>46.2</ele>
        <time>2020-12-31T13:29:50Z</time>
      </trkpt>
      <trkpt lat="43.61093" lon="3.87701">
        <ele>46.3</ele>
        <time>2020-12-31T13:29:51Z</time>
      </trkpt>
      <trkpt lat="43.61097" lon="3.87703">
        <ele>46.5</ele>
        <time>2020-12-31T13:29:52Z</time>
      </trkpt>
      <trkpt lat="43.611" lon="3.87705">
        <ele>46.6</ele>
        <time>2020-12-31T13:29:53Z</time>
      </trkpt>
      <trkpt lat="43.61102" lon="3.87706">
        <ele>46.7</ele>
        <time>2020-12-31T13:29:54Z</time>
      </trkpt>
      <trkpt lat="43.61104" lon="3.87707">
        <ele>46.7</ele>
        <time>2020-12-31T13:29:55Z</time>
      </trkpt>
      <trkpt lat="43.61107" lon="3.87708">
        <ele>46.9</ele>
        <time>2020-12-31T13:29:56Z</time>
      </trkpt>
      <trkpt lat="43.61109" lon="3.87708">
        <ele>46.9</ele>
        <time>2020-12-31T13:29:57Z</time>
      </trkpt>
      <trkpt lat="43.61113" lon="3.8771">
        <ele>47</ele>
        <time>2020-12-31T13:29:58Z</time>
      </trkpt>
      <trkpt lat="43.61117" lon="3.87712">
        <ele>59</ele>
        <time>2020-12-31T13:29:59Z</time>
      </trkpt>
      <trkpt lat="43.61121" lon="3.87714">
        <ele>47.1</ele>
        <time>2020-12-31T13:30:00Z</time>
      </trkpt>
      <trkpt lat="43.61124" lon="3.87716">
        <ele>47.1</ele>
        <time>2020-12-31T13:30:01Z</time>
      </trkpt>
      <trkpt lat="43.61128" lon="3.87718">
        <ele>47.1</ele>
        <time>2020-12-31T13:30:02Z</time>
      </trkpt>
      <trkpt lat="43.61131" lon="3.8772">
        <ele>47.1</ele>
        <time>2020-12-31T13:30:03Z</time>
      </trkpt>
      <trkpt lat="43.61134" lon="3.87722">
        <ele>47</ele>
        <time>2020-12-31T13:30:04Z</time>
      </trkpt>
      <trkpt lat="43.61137" lon="3.87725">
        <ele>47</ele>
        <time>2020-12-31T13:30:05Z</time>
      </trkpt>
      <trkpt lat="43.6114" lon="3.87729">
        <ele>47</ele>
        <time>2020-12-31T13:30:06Z</time>
      </trkpt>
      <trkpt lat="43.61142" lon="3.87733">
        <ele>47</ele>
        <time>2020-12-31T13:30:07Z</time>
      </trkpt>
      <trkpt lat="43.61145" lon="3.87736">
        <ele>47</ele>
        <time>2020-12-31T13:30:08Z</time>
      </trkpt>
      <trkpt lat="43.61148" lon="3.87739">
        <ele>57</ele>
        <time>2020-12-31T13:30:09Z</time>
      </trkpt>
      <trkpt lat="43.61151" lon="3.87743">
        <ele>47</ele>
        <time>2020-12-31T13:30:10Z</time>
      </trkpt>
      <trkpt lat="43.61153" lon="3.87746">
        <ele>47</ele>
        <time>2020-12-31T13:30:11Z</time>
      </trkpt>
      <trkpt lat="43.61155" lon="3.87749">
        <ele>47</ele>
        <time>2020-12-31T13:30:12Z</time>
      </trkpt>
      <trkpt lat="43.61158" lon="3.87751">
        <ele>47</ele>
        <time>2020-12-31T13:30:13Z</time>
      </trkpt>
      <trkpt lat="43.6116" lon="3.87751">
        <ele>47</ele>
        <time>2020-12-31T13:30:14Z</time>
      </trkpt>
      <trkpt lat="43.61162" lon="3.8775">
        <ele>47</ele>
        <time>2020-12-31T13:30:16Z</time>
      </trkpt>
      <trkpt lat="43.6116" lon="3.87752">
        <ele>47</ele>
        <time>2020-12-31T13:30:18Z</time>
      </trkpt>
      <trkpt lat="43.61157" lon="3.87753">
        <ele>47</ele>
        <time>2020-12-31T13:30:23Z</time>
      </trkpt>
      <trkpt lat="43.61157" lon="3.87753">
        <ele>59</ele>
        <time>2020-12-31T13:30:24Z</time>
      </trkpt>
      <trkpt lat="43.61156" lon="3.8774">
        <ele>64</ele>
        <time>2020-12-31T13:30:36Z</time>
      </trkpt>
      <trkpt lat="43.61155" lon="3.87733">
        <ele>47</ele>
        <time>2020-12-31T13:30:38Z</time>
      </trkpt>
      <trkpt lat="43.61154" lon="3.87731">
        <ele>47</ele>
        <time>2020-12-31T13:30:39Z</time>
      </trkpt>
      <trkpt lat="43.61152" lon="3.87731">
        <ele>72</ele>
        <time>2020-12-31T13:30:47Z</time>
      </trkpt>
      <trkpt lat="43.61149" lon="3.87734">
        <ele>74</ele>
        <time>2020-12-31T13:31:10Z</time>
      </trkpt>
      <trkpt lat="43.61149" lon="3.8773">
        <ele>78</ele>
        <time>2020-12-31T13:31:20Z</time>
      </trkpt>
      <trkpt lat="43.61148" lon="3.87727">
        <ele>47</ele>
        <time>2020-12-31T13:31:22Z</time>
      </trkpt>
      <trkpt lat="43.61148" lon="3.87727">
        <ele>80</ele>
        <time>2020-12-31T13:31:27Z</time>
      </trkpt>
    </trkseg>
  </trk>
</gpx>